<?xml version="1.0" encoding="UTF-8"?>
<gpx
version="1.1"
creator="Créé par Mes parcours sur Android."
xmlns="http://www.topografix.com/GPX/1/1"
xmlns:topografix="http://www.topografix.com/GPX/Private/TopoGrafix/0/1"
xmlns:xsi="http://www.w3.org/2001/XMLSchema-instance"
xsi:schemaLocation="http://www.topografix.com/GPX/1/1 http://www.topografix.com/GPX/1/1/gpx.xsd http://www.topografix.com/GPX/Private/TopoGrafix/0/1 http://www.topografix.com/GPX/Private/TopoGrafix/0/1/topografix.xsd">
<metadata>
<name><![CDATA[Lac.de.pareloup_am]]></name>
<desc><![CDATA[]]></desc>
</metadata>
<trk>
<name><![CDATA[Lac.de.pareloup_am]]></name>
<desc><![CDATA[]]></desc>
<extensions><topografix:color>c0c0c0</topografix:color></extensions>
<trkseg>
<trkpt lat="43.869966" lon="3.696955">
<ele>248.7</ele>
<time>2013-05-08T04:40:47.000Z</time>
</trkpt>
<trkpt lat="43.869966" lon="3.696955">
<ele>249.4</ele>
<time>2013-05-08T04:41:09.000Z</time>
</trkpt>
<trkpt lat="43.869964" lon="3.697091">
<ele>248.8</ele>
<time>2013-05-08T04:41:10.000Z</time>
</trkpt>
<trkpt lat="43.869973" lon="3.697142">
<ele>249.2</ele>
<time>2013-05-08T04:41:11.000Z</time>
</trkpt>
<trkpt lat="43.869971" lon="3.697204">
<ele>251.2</ele>
<time>2013-05-08T04:41:12.000Z</time>
</trkpt>
<trkpt lat="43.86997" lon="3.697289">
<ele>252.3</ele>
<time>2013-05-08T04:41:13.000Z</time>
</trkpt>
<trkpt lat="43.869959" lon="3.69738">
<ele>252.3</ele>
<time>2013-05-08T04:41:14.000Z</time>
</trkpt>
<trkpt lat="43.869949" lon="3.697484">
<ele>252.3</ele>
<time>2013-05-08T04:41:15.000Z</time>
</trkpt>
<trkpt lat="43.869936" lon="3.697581">
<ele>251.9</ele>
<time>2013-05-08T04:41:16.000Z</time>
</trkpt>
<trkpt lat="43.869921" lon="3.697682">
<ele>251.6</ele>
<time>2013-05-08T04:41:17.000Z</time>
</trkpt>
<trkpt lat="43.869905" lon="3.697772">
<ele>251.3</ele>
<time>2013-05-08T04:41:18.000Z</time>
</trkpt>
<trkpt lat="43.869891" lon="3.69785">
<ele>251</ele>
<time>2013-05-08T04:41:19.000Z</time>
</trkpt>
<trkpt lat="43.869874" lon="3.697945">
<ele>250.6</ele>
<time>2013-05-08T04:41:20.000Z</time>
</trkpt>
<trkpt lat="43.869871" lon="3.698033">
<ele>250.1</ele>
<time>2013-05-08T04:41:21.000Z</time>
</trkpt>
<trkpt lat="43.869872" lon="3.698102">
<ele>249.7</ele>
<time>2013-05-08T04:41:22.000Z</time>
</trkpt>
<trkpt lat="43.869871" lon="3.698164">
<ele>249.4</ele>
<time>2013-05-08T04:41:23.000Z</time>
</trkpt>
<trkpt lat="43.86986" lon="3.698199">
<ele>249.4</ele>
<time>2013-05-08T04:41:24.000Z</time>
</trkpt>
<trkpt lat="43.869842" lon="3.698223">
<ele>249.5</ele>
<time>2013-05-08T04:41:25.000Z</time>
</trkpt>
<trkpt lat="43.869818" lon="3.698253">
<ele>249.5</ele>
<time>2013-05-08T04:41:26.000Z</time>
</trkpt>
<trkpt lat="43.869789" lon="3.698277">
<ele>249.6</ele>
<time>2013-05-08T04:41:27.000Z</time>
</trkpt>
<trkpt lat="43.869758" lon="3.698263">
<ele>249.5</ele>
<time>2013-05-08T04:41:28.000Z</time>
</trkpt>
<trkpt lat="43.869727" lon="3.69823">
<ele>249.5</ele>
<time>2013-05-08T04:41:29.000Z</time>
</trkpt>
<trkpt lat="43.869692" lon="3.698189">
<ele>249.4</ele>
<time>2013-05-08T04:41:30.000Z</time>
</trkpt>
<trkpt lat="43.869639" lon="3.698128">
<ele>249.4</ele>
<time>2013-05-08T04:41:31.000Z</time>
</trkpt>
<trkpt lat="43.869591" lon="3.698058">
<ele>248.6</ele>
<time>2013-05-08T04:41:32.000Z</time>
</trkpt>
<trkpt lat="43.869544" lon="3.697978">
<ele>247.8</ele>
<time>2013-05-08T04:41:33.000Z</time>
</trkpt>
<trkpt lat="43.869509" lon="3.697901">
<ele>246.9</ele>
<time>2013-05-08T04:41:34.000Z</time>
</trkpt>
<trkpt lat="43.869491" lon="3.697829">
<ele>246.8</ele>
<time>2013-05-08T04:41:35.000Z</time>
</trkpt>
<trkpt lat="43.869468" lon="3.697783">
<ele>246.7</ele>
<time>2013-05-08T04:41:36.000Z</time>
</trkpt>
<trkpt lat="43.869455" lon="3.697767">
<ele>246.7</ele>
<time>2013-05-08T04:41:37.000Z</time>
</trkpt>
<trkpt lat="43.869432" lon="3.697786">
<ele>246.5</ele>
<time>2013-05-08T04:41:39.000Z</time>
</trkpt>
<trkpt lat="43.869426" lon="3.697822">
<ele>246.4</ele>
<time>2013-05-08T04:41:40.000Z</time>
</trkpt>
<trkpt lat="43.869412" lon="3.697883">
<ele>246.2</ele>
<time>2013-05-08T04:41:41.000Z</time>
</trkpt>
<trkpt lat="43.869399" lon="3.69794">
<ele>246.1</ele>
<time>2013-05-08T04:41:42.000Z</time>
</trkpt>
<trkpt lat="43.869386" lon="3.697999">
<ele>245.9</ele>
<time>2013-05-08T04:41:43.000Z</time>
</trkpt>
<trkpt lat="43.869371" lon="3.698065">
<ele>245.6</ele>
<time>2013-05-08T04:41:44.000Z</time>
</trkpt>
<trkpt lat="43.869355" lon="3.698132">
<ele>243.7</ele>
<time>2013-05-08T04:41:45.000Z</time>
</trkpt>
<trkpt lat="43.869319" lon="3.698279">
<ele>240.9</ele>
<time>2013-05-08T04:41:47.000Z</time>
</trkpt>
<trkpt lat="43.8693" lon="3.698361">
<ele>239.7</ele>
<time>2013-05-08T04:41:48.000Z</time>
</trkpt>
<trkpt lat="43.869281" lon="3.698446">
<ele>238.7</ele>
<time>2013-05-08T04:41:49.000Z</time>
</trkpt>
<trkpt lat="43.869263" lon="3.698537">
<ele>238</ele>
<time>2013-05-08T04:41:50.000Z</time>
</trkpt>
<trkpt lat="43.86925" lon="3.698627">
<ele>237.6</ele>
<time>2013-05-08T04:41:51.000Z</time>
</trkpt>
<trkpt lat="43.869253" lon="3.69872">
<ele>237.3</ele>
<time>2013-05-08T04:41:52.000Z</time>
</trkpt>
<trkpt lat="43.86926" lon="3.698799">
<ele>237.1</ele>
<time>2013-05-08T04:41:53.000Z</time>
</trkpt>
<trkpt lat="43.86927" lon="3.69886">
<ele>237</ele>
<time>2013-05-08T04:41:54.000Z</time>
</trkpt>
<trkpt lat="43.869283" lon="3.698923">
<ele>236.6</ele>
<time>2013-05-08T04:41:55.000Z</time>
</trkpt>
<trkpt lat="43.869295" lon="3.698978">
<ele>236</ele>
<time>2013-05-08T04:41:56.000Z</time>
</trkpt>
<trkpt lat="43.86931" lon="3.699028">
<ele>236</ele>
<time>2013-05-08T04:41:57.000Z</time>
</trkpt>
<trkpt lat="43.869328" lon="3.699076">
<ele>235.9</ele>
<time>2013-05-08T04:41:58.000Z</time>
</trkpt>
<trkpt lat="43.869347" lon="3.699117">
<ele>235.8</ele>
<time>2013-05-08T04:41:59.000Z</time>
</trkpt>
<trkpt lat="43.869364" lon="3.699151">
<ele>235.7</ele>
<time>2013-05-08T04:42:00.000Z</time>
</trkpt>
<trkpt lat="43.869369" lon="3.699179">
<ele>235.6</ele>
<time>2013-05-08T04:42:01.000Z</time>
</trkpt>
<trkpt lat="43.869358" lon="3.699212">
<ele>235.5</ele>
<time>2013-05-08T04:42:03.000Z</time>
</trkpt>
<trkpt lat="43.86933" lon="3.699225">
<ele>235.4</ele>
<time>2013-05-08T04:42:04.000Z</time>
</trkpt>
<trkpt lat="43.869275" lon="3.699222">
<ele>234.6</ele>
<time>2013-05-08T04:42:05.000Z</time>
</trkpt>
<trkpt lat="43.8692" lon="3.699208">
<ele>234.1</ele>
<time>2013-05-08T04:42:06.000Z</time>
</trkpt>
<trkpt lat="43.86912" lon="3.699187">
<ele>233.4</ele>
<time>2013-05-08T04:42:07.000Z</time>
</trkpt>
<trkpt lat="43.869047" lon="3.699163">
<ele>232.8</ele>
<time>2013-05-08T04:42:08.000Z</time>
</trkpt>
<trkpt lat="43.868978" lon="3.699141">
<ele>232.3</ele>
<time>2013-05-08T04:42:09.000Z</time>
</trkpt>
<trkpt lat="43.868928" lon="3.699125">
<ele>231.5</ele>
<time>2013-05-08T04:42:10.000Z</time>
</trkpt>
<trkpt lat="43.86889" lon="3.699113">
<ele>231.2</ele>
<time>2013-05-08T04:42:11.000Z</time>
</trkpt>
<trkpt lat="43.868859" lon="3.699115">
<ele>231.2</ele>
<time>2013-05-08T04:42:12.000Z</time>
</trkpt>
<trkpt lat="43.868818" lon="3.69914">
<ele>231.1</ele>
<time>2013-05-08T04:42:14.000Z</time>
</trkpt>
<trkpt lat="43.868803" lon="3.699189">
<ele>231.1</ele>
<time>2013-05-08T04:42:15.000Z</time>
</trkpt>
<trkpt lat="43.868806" lon="3.699276">
<ele>230.4</ele>
<time>2013-05-08T04:42:16.000Z</time>
</trkpt>
<trkpt lat="43.868828" lon="3.699408">
<ele>229.9</ele>
<time>2013-05-08T04:42:17.000Z</time>
</trkpt>
<trkpt lat="43.868873" lon="3.699556">
<ele>229.8</ele>
<time>2013-05-08T04:42:18.000Z</time>
</trkpt>
<trkpt lat="43.868936" lon="3.699737">
<ele>229.6</ele>
<time>2013-05-08T04:42:19.000Z</time>
</trkpt>
<trkpt lat="43.869012" lon="3.699932">
<ele>229.4</ele>
<time>2013-05-08T04:42:20.000Z</time>
</trkpt>
<trkpt lat="43.869099" lon="3.700115">
<ele>229.1</ele>
<time>2013-05-08T04:42:21.000Z</time>
</trkpt>
<trkpt lat="43.869195" lon="3.700269">
<ele>228.5</ele>
<time>2013-05-08T04:42:22.000Z</time>
</trkpt>
<trkpt lat="43.869309" lon="3.700478">
<ele>228.3</ele>
<time>2013-05-08T04:42:23.000Z</time>
</trkpt>
<trkpt lat="43.869414" lon="3.700662">
<ele>228.5</ele>
<time>2013-05-08T04:42:24.000Z</time>
</trkpt>
<trkpt lat="43.869538" lon="3.700876">
<ele>228.6</ele>
<time>2013-05-08T04:42:25.000Z</time>
</trkpt>
<trkpt lat="43.869673" lon="3.701097">
<ele>228.6</ele>
<time>2013-05-08T04:42:26.000Z</time>
</trkpt>
<trkpt lat="43.8698" lon="3.701296">
<ele>228</ele>
<time>2013-05-08T04:42:27.000Z</time>
</trkpt>
<trkpt lat="43.869917" lon="3.701505">
<ele>226.9</ele>
<time>2013-05-08T04:42:28.000Z</time>
</trkpt>
<trkpt lat="43.870031" lon="3.701703">
<ele>225.5</ele>
<time>2013-05-08T04:42:29.000Z</time>
</trkpt>
<trkpt lat="43.870149" lon="3.701897">
<ele>224.1</ele>
<time>2013-05-08T04:42:30.000Z</time>
</trkpt>
<trkpt lat="43.870269" lon="3.702081">
<ele>222.6</ele>
<time>2013-05-08T04:42:31.000Z</time>
</trkpt>
<trkpt lat="43.870395" lon="3.702246">
<ele>221.2</ele>
<time>2013-05-08T04:42:32.000Z</time>
</trkpt>
<trkpt lat="43.870523" lon="3.702398">
<ele>219.9</ele>
<time>2013-05-08T04:42:33.000Z</time>
</trkpt>
<trkpt lat="43.870647" lon="3.702543">
<ele>218.7</ele>
<time>2013-05-08T04:42:34.000Z</time>
</trkpt>
<trkpt lat="43.870773" lon="3.702671">
<ele>217.8</ele>
<time>2013-05-08T04:42:35.000Z</time>
</trkpt>
<trkpt lat="43.870927" lon="3.70276">
<ele>216.9</ele>
<time>2013-05-08T04:42:36.000Z</time>
</trkpt>
<trkpt lat="43.871089" lon="3.702838">
<ele>216.1</ele>
<time>2013-05-08T04:42:37.000Z</time>
</trkpt>
<trkpt lat="43.871256" lon="3.702903">
<ele>215.3</ele>
<time>2013-05-08T04:42:38.000Z</time>
</trkpt>
<trkpt lat="43.871428" lon="3.702979">
<ele>214.6</ele>
<time>2013-05-08T04:42:39.000Z</time>
</trkpt>
<trkpt lat="43.871599" lon="3.703029">
<ele>214</ele>
<time>2013-05-08T04:42:40.000Z</time>
</trkpt>
<trkpt lat="43.871734" lon="3.703166">
<ele>213.4</ele>
<time>2013-05-08T04:42:41.000Z</time>
</trkpt>
<trkpt lat="43.871865" lon="3.703324">
<ele>212.9</ele>
<time>2013-05-08T04:42:42.000Z</time>
</trkpt>
<trkpt lat="43.871996" lon="3.703484">
<ele>212.3</ele>
<time>2013-05-08T04:42:43.000Z</time>
</trkpt>
<trkpt lat="43.872126" lon="3.703636">
<ele>211.6</ele>
<time>2013-05-08T04:42:44.000Z</time>
</trkpt>
<trkpt lat="43.872244" lon="3.703756">
<ele>211</ele>
<time>2013-05-08T04:42:45.000Z</time>
</trkpt>
<trkpt lat="43.872444" lon="3.703921">
<ele>210.4</ele>
<time>2013-05-08T04:42:47.000Z</time>
</trkpt>
<trkpt lat="43.87252" lon="3.703964">
<ele>210.1</ele>
<time>2013-05-08T04:42:48.000Z</time>
</trkpt>
<trkpt lat="43.872574" lon="3.703992">
<ele>209.6</ele>
<time>2013-05-08T04:42:49.000Z</time>
</trkpt>
<trkpt lat="43.872567" lon="3.704035">
<ele>209</ele>
<time>2013-05-08T04:42:52.000Z</time>
</trkpt>
<trkpt lat="43.872519" lon="3.704035">
<ele>208.2</ele>
<time>2013-05-08T04:42:53.000Z</time>
</trkpt>
<trkpt lat="43.872435" lon="3.703985">
<ele>207.2</ele>
<time>2013-05-08T04:42:54.000Z</time>
</trkpt>
<trkpt lat="43.872315" lon="3.703916">
<ele>205.8</ele>
<time>2013-05-08T04:42:55.000Z</time>
</trkpt>
<trkpt lat="43.872171" lon="3.703834">
<ele>204.7</ele>
<time>2013-05-08T04:42:56.000Z</time>
</trkpt>
<trkpt lat="43.872026" lon="3.703763">
<ele>203.7</ele>
<time>2013-05-08T04:42:57.000Z</time>
</trkpt>
<trkpt lat="43.871866" lon="3.703693">
<ele>202.7</ele>
<time>2013-05-08T04:42:58.000Z</time>
</trkpt>
<trkpt lat="43.871708" lon="3.703627">
<ele>201.6</ele>
<time>2013-05-08T04:42:59.000Z</time>
</trkpt>
<trkpt lat="43.871544" lon="3.703568">
<ele>200.5</ele>
<time>2013-05-08T04:43:00.000Z</time>
</trkpt>
<trkpt lat="43.871384" lon="3.703522">
<ele>199.3</ele>
<time>2013-05-08T04:43:01.000Z</time>
</trkpt>
<trkpt lat="43.871231" lon="3.703492">
<ele>198</ele>
<time>2013-05-08T04:43:02.000Z</time>
</trkpt>
<trkpt lat="43.87109" lon="3.703481">
<ele>196.5</ele>
<time>2013-05-08T04:43:03.000Z</time>
</trkpt>
<trkpt lat="43.870954" lon="3.703512">
<ele>195.3</ele>
<time>2013-05-08T04:43:04.000Z</time>
</trkpt>
<trkpt lat="43.870807" lon="3.70355">
<ele>194.3</ele>
<time>2013-05-08T04:43:05.000Z</time>
</trkpt>
<trkpt lat="43.870675" lon="3.703602">
<ele>193.1</ele>
<time>2013-05-08T04:43:06.000Z</time>
</trkpt>
<trkpt lat="43.870537" lon="3.703661">
<ele>191.7</ele>
<time>2013-05-08T04:43:07.000Z</time>
</trkpt>
<trkpt lat="43.870379" lon="3.703731">
<ele>190.6</ele>
<time>2013-05-08T04:43:08.000Z</time>
</trkpt>
<trkpt lat="43.870249" lon="3.703808">
<ele>189.3</ele>
<time>2013-05-08T04:43:09.000Z</time>
</trkpt>
<trkpt lat="43.870127" lon="3.703924">
<ele>188.2</ele>
<time>2013-05-08T04:43:10.000Z</time>
</trkpt>
<trkpt lat="43.870025" lon="3.704021">
<ele>187.2</ele>
<time>2013-05-08T04:43:11.000Z</time>
</trkpt>
<trkpt lat="43.869974" lon="3.704108">
<ele>186.9</ele>
<time>2013-05-08T04:43:12.000Z</time>
</trkpt>
<trkpt lat="43.869925" lon="3.7042">
<ele>185.6</ele>
<time>2013-05-08T04:43:13.000Z</time>
</trkpt>
<trkpt lat="43.869909" lon="3.704301">
<ele>184.8</ele>
<time>2013-05-08T04:43:14.000Z</time>
</trkpt>
<trkpt lat="43.869931" lon="3.704457">
<ele>183.7</ele>
<time>2013-05-08T04:43:15.000Z</time>
</trkpt>
<trkpt lat="43.869974" lon="3.704603">
<ele>182.7</ele>
<time>2013-05-08T04:43:16.000Z</time>
</trkpt>
<trkpt lat="43.870068" lon="3.704732">
<ele>181.9</ele>
<time>2013-05-08T04:43:17.000Z</time>
</trkpt>
<trkpt lat="43.870173" lon="3.704853">
<ele>181.4</ele>
<time>2013-05-08T04:43:18.000Z</time>
</trkpt>
<trkpt lat="43.870287" lon="3.704969">
<ele>181</ele>
<time>2013-05-08T04:43:19.000Z</time>
</trkpt>
<trkpt lat="43.870434" lon="3.705048">
<ele>181.2</ele>
<time>2013-05-08T04:43:20.000Z</time>
</trkpt>
<trkpt lat="43.870576" lon="3.705128">
<ele>181.5</ele>
<time>2013-05-08T04:43:21.000Z</time>
</trkpt>
<trkpt lat="43.870724" lon="3.705205">
<ele>181.7</ele>
<time>2013-05-08T04:43:22.000Z</time>
</trkpt>
<trkpt lat="43.870874" lon="3.705276">
<ele>181.4</ele>
<time>2013-05-08T04:43:23.000Z</time>
</trkpt>
<trkpt lat="43.871016" lon="3.705339">
<ele>181.1</ele>
<time>2013-05-08T04:43:24.000Z</time>
</trkpt>
<trkpt lat="43.871153" lon="3.705397">
<ele>180.6</ele>
<time>2013-05-08T04:43:25.000Z</time>
</trkpt>
<trkpt lat="43.871297" lon="3.705396">
<ele>180.1</ele>
<time>2013-05-08T04:43:26.000Z</time>
</trkpt>
<trkpt lat="43.871439" lon="3.70539">
<ele>179.9</ele>
<time>2013-05-08T04:43:27.000Z</time>
</trkpt>
<trkpt lat="43.87159" lon="3.705379">
<ele>179.9</ele>
<time>2013-05-08T04:43:28.000Z</time>
</trkpt>
<trkpt lat="43.871753" lon="3.705366">
<ele>180.3</ele>
<time>2013-05-08T04:43:29.000Z</time>
</trkpt>
<trkpt lat="43.871908" lon="3.70535">
<ele>180.6</ele>
<time>2013-05-08T04:43:30.000Z</time>
</trkpt>
<trkpt lat="43.872048" lon="3.70534">
<ele>180.9</ele>
<time>2013-05-08T04:43:31.000Z</time>
</trkpt>
<trkpt lat="43.872176" lon="3.705334">
<ele>181</ele>
<time>2013-05-08T04:43:32.000Z</time>
</trkpt>
<trkpt lat="43.872293" lon="3.705332">
<ele>181.1</ele>
<time>2013-05-08T04:43:33.000Z</time>
</trkpt>
<trkpt lat="43.872385" lon="3.705339">
<ele>181.5</ele>
<time>2013-05-08T04:43:34.000Z</time>
</trkpt>
<trkpt lat="43.872447" lon="3.705379">
<ele>182</ele>
<time>2013-05-08T04:43:35.000Z</time>
</trkpt>
<trkpt lat="43.872492" lon="3.70544">
<ele>182.5</ele>
<time>2013-05-08T04:43:36.000Z</time>
</trkpt>
<trkpt lat="43.8725" lon="3.705504">
<ele>182.9</ele>
<time>2013-05-08T04:43:37.000Z</time>
</trkpt>
<trkpt lat="43.872493" lon="3.705585">
<ele>183.1</ele>
<time>2013-05-08T04:43:38.000Z</time>
</trkpt>
<trkpt lat="43.872472" lon="3.705698">
<ele>182.8</ele>
<time>2013-05-08T04:43:39.000Z</time>
</trkpt>
<trkpt lat="43.872441" lon="3.705875">
<ele>183.2</ele>
<time>2013-05-08T04:43:40.000Z</time>
</trkpt>
<trkpt lat="43.872411" lon="3.706059">
<ele>183.6</ele>
<time>2013-05-08T04:43:41.000Z</time>
</trkpt>
<trkpt lat="43.872376" lon="3.706269">
<ele>183.9</ele>
<time>2013-05-08T04:43:42.000Z</time>
</trkpt>
<trkpt lat="43.872351" lon="3.706485">
<ele>183.9</ele>
<time>2013-05-08T04:43:43.000Z</time>
</trkpt>
<trkpt lat="43.872331" lon="3.706709">
<ele>183.8</ele>
<time>2013-05-08T04:43:44.000Z</time>
</trkpt>
<trkpt lat="43.87231" lon="3.706974">
<ele>184.6</ele>
<time>2013-05-08T04:43:45.000Z</time>
</trkpt>
<trkpt lat="43.872279" lon="3.707518">
<ele>186.9</ele>
<time>2013-05-08T04:43:47.000Z</time>
</trkpt>
<trkpt lat="43.87227" lon="3.70778">
<ele>188</ele>
<time>2013-05-08T04:43:48.000Z</time>
</trkpt>
<trkpt lat="43.872268" lon="3.708046">
<ele>189.2</ele>
<time>2013-05-08T04:43:49.000Z</time>
</trkpt>
<trkpt lat="43.872267" lon="3.708305">
<ele>190.4</ele>
<time>2013-05-08T04:43:50.000Z</time>
</trkpt>
<trkpt lat="43.872259" lon="3.70856">
<ele>191.6</ele>
<time>2013-05-08T04:43:51.000Z</time>
</trkpt>
<trkpt lat="43.872246" lon="3.708817">
<ele>193.2</ele>
<time>2013-05-08T04:43:52.000Z</time>
</trkpt>
<trkpt lat="43.87221" lon="3.709072">
<ele>194.5</ele>
<time>2013-05-08T04:43:53.000Z</time>
</trkpt>
<trkpt lat="43.872162" lon="3.709322">
<ele>195.6</ele>
<time>2013-05-08T04:43:54.000Z</time>
</trkpt>
<trkpt lat="43.87209" lon="3.709564">
<ele>196.4</ele>
<time>2013-05-08T04:43:55.000Z</time>
</trkpt>
<trkpt lat="43.871954" lon="3.709818">
<ele>197.1</ele>
<time>2013-05-08T04:43:56.000Z</time>
</trkpt>
<trkpt lat="43.871823" lon="3.71004">
<ele>198</ele>
<time>2013-05-08T04:43:57.000Z</time>
</trkpt>
<trkpt lat="43.871703" lon="3.710241">
<ele>198.6</ele>
<time>2013-05-08T04:43:58.000Z</time>
</trkpt>
<trkpt lat="43.871597" lon="3.710441">
<ele>199.2</ele>
<time>2013-05-08T04:43:59.000Z</time>
</trkpt>
<trkpt lat="43.871507" lon="3.710622">
<ele>199.7</ele>
<time>2013-05-08T04:44:00.000Z</time>
</trkpt>
<trkpt lat="43.871438" lon="3.710786">
<ele>199.8</ele>
<time>2013-05-08T04:44:01.000Z</time>
</trkpt>
<trkpt lat="43.871379" lon="3.710952">
<ele>199.4</ele>
<time>2013-05-08T04:44:02.000Z</time>
</trkpt>
<trkpt lat="43.871384" lon="3.711116">
<ele>199.4</ele>
<time>2013-05-08T04:44:03.000Z</time>
</trkpt>
<trkpt lat="43.871428" lon="3.7113">
<ele>200</ele>
<time>2013-05-08T04:44:04.000Z</time>
</trkpt>
<trkpt lat="43.871486" lon="3.711517">
<ele>200.7</ele>
<time>2013-05-08T04:44:05.000Z</time>
</trkpt>
<trkpt lat="43.87156" lon="3.711757">
<ele>200.8</ele>
<time>2013-05-08T04:44:06.000Z</time>
</trkpt>
<trkpt lat="43.871654" lon="3.712003">
<ele>200.5</ele>
<time>2013-05-08T04:44:07.000Z</time>
</trkpt>
<trkpt lat="43.871792" lon="3.712218">
<ele>200.1</ele>
<time>2013-05-08T04:44:08.000Z</time>
</trkpt>
<trkpt lat="43.871937" lon="3.712405">
<ele>199.7</ele>
<time>2013-05-08T04:44:09.000Z</time>
</trkpt>
<trkpt lat="43.872099" lon="3.712596">
<ele>199.1</ele>
<time>2013-05-08T04:44:10.000Z</time>
</trkpt>
<trkpt lat="43.872278" lon="3.712798">
<ele>198.6</ele>
<time>2013-05-08T04:44:11.000Z</time>
</trkpt>
<trkpt lat="43.872468" lon="3.713008">
<ele>198.2</ele>
<time>2013-05-08T04:44:12.000Z</time>
</trkpt>
<trkpt lat="43.87265" lon="3.713219">
<ele>197.9</ele>
<time>2013-05-08T04:44:13.000Z</time>
</trkpt>
<trkpt lat="43.872841" lon="3.713427">
<ele>197.7</ele>
<time>2013-05-08T04:44:14.000Z</time>
</trkpt>
<trkpt lat="43.873042" lon="3.713622">
<ele>197.3</ele>
<time>2013-05-08T04:44:15.000Z</time>
</trkpt>
<trkpt lat="43.873253" lon="3.713799">
<ele>196.7</ele>
<time>2013-05-08T04:44:16.000Z</time>
</trkpt>
<trkpt lat="43.873484" lon="3.71397">
<ele>196.4</ele>
<time>2013-05-08T04:44:17.000Z</time>
</trkpt>
<trkpt lat="43.873706" lon="3.714146">
<ele>196</ele>
<time>2013-05-08T04:44:18.000Z</time>
</trkpt>
<trkpt lat="43.873931" lon="3.714328">
<ele>195.4</ele>
<time>2013-05-08T04:44:19.000Z</time>
</trkpt>
<trkpt lat="43.874163" lon="3.714514">
<ele>194.8</ele>
<time>2013-05-08T04:44:20.000Z</time>
</trkpt>
<trkpt lat="43.874396" lon="3.7147">
<ele>193.9</ele>
<time>2013-05-08T04:44:21.000Z</time>
</trkpt>
<trkpt lat="43.874625" lon="3.714878">
<ele>192.8</ele>
<time>2013-05-08T04:44:22.000Z</time>
</trkpt>
<trkpt lat="43.874864" lon="3.71507">
<ele>191.8</ele>
<time>2013-05-08T04:44:23.000Z</time>
</trkpt>
<trkpt lat="43.875098" lon="3.715256">
<ele>190.8</ele>
<time>2013-05-08T04:44:24.000Z</time>
</trkpt>
<trkpt lat="43.875336" lon="3.715448">
<ele>189.6</ele>
<time>2013-05-08T04:44:25.000Z</time>
</trkpt>
<trkpt lat="43.875571" lon="3.715638">
<ele>188.8</ele>
<time>2013-05-08T04:44:26.000Z</time>
</trkpt>
<trkpt lat="43.875813" lon="3.715835">
<ele>188</ele>
<time>2013-05-08T04:44:27.000Z</time>
</trkpt>
<trkpt lat="43.876054" lon="3.716034">
<ele>187.6</ele>
<time>2013-05-08T04:44:28.000Z</time>
</trkpt>
<trkpt lat="43.876294" lon="3.716216">
<ele>187.4</ele>
<time>2013-05-08T04:44:29.000Z</time>
</trkpt>
<trkpt lat="43.876526" lon="3.716393">
<ele>187.6</ele>
<time>2013-05-08T04:44:30.000Z</time>
</trkpt>
<trkpt lat="43.876743" lon="3.716558">
<ele>187.8</ele>
<time>2013-05-08T04:44:31.000Z</time>
</trkpt>
<trkpt lat="43.876956" lon="3.71671">
<ele>188</ele>
<time>2013-05-08T04:44:32.000Z</time>
</trkpt>
<trkpt lat="43.877181" lon="3.71683">
<ele>188.4</ele>
<time>2013-05-08T04:44:33.000Z</time>
</trkpt>
<trkpt lat="43.877421" lon="3.716932">
<ele>188.8</ele>
<time>2013-05-08T04:44:34.000Z</time>
</trkpt>
<trkpt lat="43.877673" lon="3.717009">
<ele>188.8</ele>
<time>2013-05-08T04:44:35.000Z</time>
</trkpt>
<trkpt lat="43.877946" lon="3.717094">
<ele>188.5</ele>
<time>2013-05-08T04:44:36.000Z</time>
</trkpt>
<trkpt lat="43.878207" lon="3.717189">
<ele>188.2</ele>
<time>2013-05-08T04:44:37.000Z</time>
</trkpt>
<trkpt lat="43.878467" lon="3.717305">
<ele>187.5</ele>
<time>2013-05-08T04:44:38.000Z</time>
</trkpt>
<trkpt lat="43.878728" lon="3.717425">
<ele>186.5</ele>
<time>2013-05-08T04:44:39.000Z</time>
</trkpt>
<trkpt lat="43.878982" lon="3.717543">
<ele>185.4</ele>
<time>2013-05-08T04:44:40.000Z</time>
</trkpt>
<trkpt lat="43.879223" lon="3.717674">
<ele>184.7</ele>
<time>2013-05-08T04:44:41.000Z</time>
</trkpt>
<trkpt lat="43.879452" lon="3.7178">
<ele>184.5</ele>
<time>2013-05-08T04:44:42.000Z</time>
</trkpt>
<trkpt lat="43.879664" lon="3.717932">
<ele>184.5</ele>
<time>2013-05-08T04:44:43.000Z</time>
</trkpt>
<trkpt lat="43.879852" lon="3.718108">
<ele>184.8</ele>
<time>2013-05-08T04:44:44.000Z</time>
</trkpt>
<trkpt lat="43.879999" lon="3.718344">
<ele>185</ele>
<time>2013-05-08T04:44:45.000Z</time>
</trkpt>
<trkpt lat="43.880279" lon="3.718871">
<ele>184.8</ele>
<time>2013-05-08T04:44:47.000Z</time>
</trkpt>
<trkpt lat="43.880435" lon="3.71913">
<ele>184.8</ele>
<time>2013-05-08T04:44:48.000Z</time>
</trkpt>
<trkpt lat="43.8806" lon="3.719375">
<ele>184.7</ele>
<time>2013-05-08T04:44:49.000Z</time>
</trkpt>
<trkpt lat="43.880783" lon="3.719597">
<ele>184.3</ele>
<time>2013-05-08T04:44:50.000Z</time>
</trkpt>
<trkpt lat="43.880966" lon="3.719807">
<ele>184.2</ele>
<time>2013-05-08T04:44:51.000Z</time>
</trkpt>
<trkpt lat="43.881161" lon="3.719989">
<ele>184.5</ele>
<time>2013-05-08T04:44:52.000Z</time>
</trkpt>
<trkpt lat="43.881379" lon="3.720134">
<ele>184.7</ele>
<time>2013-05-08T04:44:53.000Z</time>
</trkpt>
<trkpt lat="43.881584" lon="3.720273">
<ele>184.7</ele>
<time>2013-05-08T04:44:54.000Z</time>
</trkpt>
<trkpt lat="43.881787" lon="3.720433">
<ele>184.4</ele>
<time>2013-05-08T04:44:55.000Z</time>
</trkpt>
<trkpt lat="43.881991" lon="3.720587">
<ele>184</ele>
<time>2013-05-08T04:44:56.000Z</time>
</trkpt>
<trkpt lat="43.882204" lon="3.720728">
<ele>183.5</ele>
<time>2013-05-08T04:44:57.000Z</time>
</trkpt>
<trkpt lat="43.88243" lon="3.720843">
<ele>183</ele>
<time>2013-05-08T04:44:58.000Z</time>
</trkpt>
<trkpt lat="43.882648" lon="3.720952">
<ele>182.6</ele>
<time>2013-05-08T04:44:59.000Z</time>
</trkpt>
<trkpt lat="43.882856" lon="3.721068">
<ele>182.3</ele>
<time>2013-05-08T04:45:00.000Z</time>
</trkpt>
<trkpt lat="43.883046" lon="3.721204">
<ele>181.9</ele>
<time>2013-05-08T04:45:01.000Z</time>
</trkpt>
<trkpt lat="43.883221" lon="3.721371">
<ele>181.1</ele>
<time>2013-05-08T04:45:02.000Z</time>
</trkpt>
<trkpt lat="43.88338" lon="3.721579">
<ele>180.4</ele>
<time>2013-05-08T04:45:03.000Z</time>
</trkpt>
<trkpt lat="43.88354" lon="3.721808">
<ele>179.3</ele>
<time>2013-05-08T04:45:04.000Z</time>
</trkpt>
<trkpt lat="43.883688" lon="3.722053">
<ele>178.8</ele>
<time>2013-05-08T04:45:05.000Z</time>
</trkpt>
<trkpt lat="43.883837" lon="3.722339">
<ele>178.5</ele>
<time>2013-05-08T04:45:06.000Z</time>
</trkpt>
<trkpt lat="43.883989" lon="3.722645">
<ele>178.4</ele>
<time>2013-05-08T04:45:07.000Z</time>
</trkpt>
<trkpt lat="43.884145" lon="3.722991">
<ele>178.5</ele>
<time>2013-05-08T04:45:08.000Z</time>
</trkpt>
<trkpt lat="43.884303" lon="3.723321">
<ele>178.4</ele>
<time>2013-05-08T04:45:09.000Z</time>
</trkpt>
<trkpt lat="43.884464" lon="3.723648">
<ele>178.6</ele>
<time>2013-05-08T04:45:10.000Z</time>
</trkpt>
<trkpt lat="43.88462" lon="3.723962">
<ele>178.4</ele>
<time>2013-05-08T04:45:11.000Z</time>
</trkpt>
<trkpt lat="43.884777" lon="3.724269">
<ele>178.1</ele>
<time>2013-05-08T04:45:12.000Z</time>
</trkpt>
<trkpt lat="43.884933" lon="3.724572">
<ele>177.9</ele>
<time>2013-05-08T04:45:13.000Z</time>
</trkpt>
<trkpt lat="43.88509" lon="3.724878">
<ele>177.7</ele>
<time>2013-05-08T04:45:14.000Z</time>
</trkpt>
<trkpt lat="43.885247" lon="3.725183">
<ele>177.6</ele>
<time>2013-05-08T04:45:15.000Z</time>
</trkpt>
<trkpt lat="43.885408" lon="3.725488">
<ele>177.5</ele>
<time>2013-05-08T04:45:16.000Z</time>
</trkpt>
<trkpt lat="43.88557" lon="3.725787">
<ele>177.4</ele>
<time>2013-05-08T04:45:17.000Z</time>
</trkpt>
<trkpt lat="43.885728" lon="3.72608">
<ele>177.2</ele>
<time>2013-05-08T04:45:18.000Z</time>
</trkpt>
<trkpt lat="43.885884" lon="3.726367">
<ele>177</ele>
<time>2013-05-08T04:45:19.000Z</time>
</trkpt>
<trkpt lat="43.886039" lon="3.726642">
<ele>176.9</ele>
<time>2013-05-08T04:45:20.000Z</time>
</trkpt>
<trkpt lat="43.886207" lon="3.726888">
<ele>176.7</ele>
<time>2013-05-08T04:45:21.000Z</time>
</trkpt>
<trkpt lat="43.886407" lon="3.727085">
<ele>176.7</ele>
<time>2013-05-08T04:45:22.000Z</time>
</trkpt>
<trkpt lat="43.886617" lon="3.727267">
<ele>176.7</ele>
<time>2013-05-08T04:45:23.000Z</time>
</trkpt>
<trkpt lat="43.886833" lon="3.727438">
<ele>176.6</ele>
<time>2013-05-08T04:45:24.000Z</time>
</trkpt>
<trkpt lat="43.887053" lon="3.727619">
<ele>176.4</ele>
<time>2013-05-08T04:45:25.000Z</time>
</trkpt>
<trkpt lat="43.887272" lon="3.727798">
<ele>176.4</ele>
<time>2013-05-08T04:45:26.000Z</time>
</trkpt>
<trkpt lat="43.887482" lon="3.727979">
<ele>176.3</ele>
<time>2013-05-08T04:45:27.000Z</time>
</trkpt>
<trkpt lat="43.887694" lon="3.728157">
<ele>176.5</ele>
<time>2013-05-08T04:45:28.000Z</time>
</trkpt>
<trkpt lat="43.887904" lon="3.728332">
<ele>176.8</ele>
<time>2013-05-08T04:45:29.000Z</time>
</trkpt>
<trkpt lat="43.888117" lon="3.728515">
<ele>177.1</ele>
<time>2013-05-08T04:45:30.000Z</time>
</trkpt>
<trkpt lat="43.888323" lon="3.728704">
<ele>177.3</ele>
<time>2013-05-08T04:45:31.000Z</time>
</trkpt>
<trkpt lat="43.888531" lon="3.728894">
<ele>177.5</ele>
<time>2013-05-08T04:45:32.000Z</time>
</trkpt>
<trkpt lat="43.888739" lon="3.72908">
<ele>177.6</ele>
<time>2013-05-08T04:45:33.000Z</time>
</trkpt>
<trkpt lat="43.888942" lon="3.729256">
<ele>177.9</ele>
<time>2013-05-08T04:45:34.000Z</time>
</trkpt>
<trkpt lat="43.889137" lon="3.729427">
<ele>178.1</ele>
<time>2013-05-08T04:45:35.000Z</time>
</trkpt>
<trkpt lat="43.889328" lon="3.729598">
<ele>178.3</ele>
<time>2013-05-08T04:45:36.000Z</time>
</trkpt>
<trkpt lat="43.889513" lon="3.729769">
<ele>178.1</ele>
<time>2013-05-08T04:45:37.000Z</time>
</trkpt>
<trkpt lat="43.889701" lon="3.729933">
<ele>177.8</ele>
<time>2013-05-08T04:45:38.000Z</time>
</trkpt>
<trkpt lat="43.889883" lon="3.73009">
<ele>177.6</ele>
<time>2013-05-08T04:45:39.000Z</time>
</trkpt>
<trkpt lat="43.890052" lon="3.730227">
<ele>177.7</ele>
<time>2013-05-08T04:45:40.000Z</time>
</trkpt>
<trkpt lat="43.890182" lon="3.730362">
<ele>177.8</ele>
<time>2013-05-08T04:45:41.000Z</time>
</trkpt>
<trkpt lat="43.890272" lon="3.730504">
<ele>178</ele>
<time>2013-05-08T04:45:42.000Z</time>
</trkpt>
<trkpt lat="43.890359" lon="3.730664">
<ele>179</ele>
<time>2013-05-08T04:45:43.000Z</time>
</trkpt>
<trkpt lat="43.890406" lon="3.730824">
<ele>179.9</ele>
<time>2013-05-08T04:45:44.000Z</time>
</trkpt>
<trkpt lat="43.890434" lon="3.730994">
<ele>180.9</ele>
<time>2013-05-08T04:45:45.000Z</time>
</trkpt>
<trkpt lat="43.890459" lon="3.731204">
<ele>182</ele>
<time>2013-05-08T04:45:46.000Z</time>
</trkpt>
<trkpt lat="43.890473" lon="3.731421">
<ele>183</ele>
<time>2013-05-08T04:45:47.000Z</time>
</trkpt>
<trkpt lat="43.890494" lon="3.7317">
<ele>183.9</ele>
<time>2013-05-08T04:45:48.000Z</time>
</trkpt>
<trkpt lat="43.890522" lon="3.731994">
<ele>184.9</ele>
<time>2013-05-08T04:45:49.000Z</time>
</trkpt>
<trkpt lat="43.890541" lon="3.732279">
<ele>185.4</ele>
<time>2013-05-08T04:45:50.000Z</time>
</trkpt>
<trkpt lat="43.890549" lon="3.732543">
<ele>185.9</ele>
<time>2013-05-08T04:45:51.000Z</time>
</trkpt>
<trkpt lat="43.890561" lon="3.732832">
<ele>186.2</ele>
<time>2013-05-08T04:45:52.000Z</time>
</trkpt>
<trkpt lat="43.890579" lon="3.733119">
<ele>186.4</ele>
<time>2013-05-08T04:45:53.000Z</time>
</trkpt>
<trkpt lat="43.890607" lon="3.7334">
<ele>186.7</ele>
<time>2013-05-08T04:45:54.000Z</time>
</trkpt>
<trkpt lat="43.890626" lon="3.733716">
<ele>187.2</ele>
<time>2013-05-08T04:45:55.000Z</time>
</trkpt>
<trkpt lat="43.890645" lon="3.734024">
<ele>187.6</ele>
<time>2013-05-08T04:45:56.000Z</time>
</trkpt>
<trkpt lat="43.890656" lon="3.734323">
<ele>187.9</ele>
<time>2013-05-08T04:45:57.000Z</time>
</trkpt>
<trkpt lat="43.89065" lon="3.734624">
<ele>188.1</ele>
<time>2013-05-08T04:45:58.000Z</time>
</trkpt>
<trkpt lat="43.890614" lon="3.734925">
<ele>188</ele>
<time>2013-05-08T04:45:59.000Z</time>
</trkpt>
<trkpt lat="43.890555" lon="3.73523">
<ele>187.6</ele>
<time>2013-05-08T04:46:00.000Z</time>
</trkpt>
<trkpt lat="43.890476" lon="3.735522">
<ele>186.9</ele>
<time>2013-05-08T04:46:01.000Z</time>
</trkpt>
<trkpt lat="43.890378" lon="3.735832">
<ele>185.7</ele>
<time>2013-05-08T04:46:02.000Z</time>
</trkpt>
<trkpt lat="43.890291" lon="3.736144">
<ele>184.9</ele>
<time>2013-05-08T04:46:03.000Z</time>
</trkpt>
<trkpt lat="43.890201" lon="3.736463">
<ele>183.9</ele>
<time>2013-05-08T04:46:04.000Z</time>
</trkpt>
<trkpt lat="43.890113" lon="3.736778">
<ele>183.2</ele>
<time>2013-05-08T04:46:05.000Z</time>
</trkpt>
<trkpt lat="43.890035" lon="3.737082">
<ele>182.6</ele>
<time>2013-05-08T04:46:06.000Z</time>
</trkpt>
<trkpt lat="43.88996" lon="3.737392">
<ele>181.8</ele>
<time>2013-05-08T04:46:07.000Z</time>
</trkpt>
<trkpt lat="43.889879" lon="3.7377">
<ele>180.9</ele>
<time>2013-05-08T04:46:08.000Z</time>
</trkpt>
<trkpt lat="43.889795" lon="3.737996">
<ele>180.3</ele>
<time>2013-05-08T04:46:09.000Z</time>
</trkpt>
<trkpt lat="43.889715" lon="3.738275">
<ele>180.1</ele>
<time>2013-05-08T04:46:10.000Z</time>
</trkpt>
<trkpt lat="43.889646" lon="3.73852">
<ele>179.9</ele>
<time>2013-05-08T04:46:11.000Z</time>
</trkpt>
<trkpt lat="43.889586" lon="3.738744">
<ele>179.7</ele>
<time>2013-05-08T04:46:12.000Z</time>
</trkpt>
<trkpt lat="43.889527" lon="3.738945">
<ele>179.7</ele>
<time>2013-05-08T04:46:13.000Z</time>
</trkpt>
<trkpt lat="43.889468" lon="3.739142">
<ele>179.7</ele>
<time>2013-05-08T04:46:14.000Z</time>
</trkpt>
<trkpt lat="43.88941" lon="3.7393">
<ele>179.9</ele>
<time>2013-05-08T04:46:15.000Z</time>
</trkpt>
<trkpt lat="43.88936" lon="3.739426">
<ele>180.2</ele>
<time>2013-05-08T04:46:16.000Z</time>
</trkpt>
<trkpt lat="43.8893" lon="3.739569">
<ele>180.6</ele>
<time>2013-05-08T04:46:17.000Z</time>
</trkpt>
<trkpt lat="43.889228" lon="3.739715">
<ele>181</ele>
<time>2013-05-08T04:46:18.000Z</time>
</trkpt>
<trkpt lat="43.889102" lon="3.739852">
<ele>181.8</ele>
<time>2013-05-08T04:46:19.000Z</time>
</trkpt>
<trkpt lat="43.888953" lon="3.739975">
<ele>182.3</ele>
<time>2013-05-08T04:46:20.000Z</time>
</trkpt>
<trkpt lat="43.888738" lon="3.740079">
<ele>182.6</ele>
<time>2013-05-08T04:46:21.000Z</time>
</trkpt>
<trkpt lat="43.888528" lon="3.740166">
<ele>182.9</ele>
<time>2013-05-08T04:46:22.000Z</time>
</trkpt>
<trkpt lat="43.888302" lon="3.740262">
<ele>183.6</ele>
<time>2013-05-08T04:46:23.000Z</time>
</trkpt>
<trkpt lat="43.888074" lon="3.740375">
<ele>184</ele>
<time>2013-05-08T04:46:24.000Z</time>
</trkpt>
<trkpt lat="43.887832" lon="3.740478">
<ele>184.4</ele>
<time>2013-05-08T04:46:25.000Z</time>
</trkpt>
<trkpt lat="43.887585" lon="3.740548">
<ele>184.9</ele>
<time>2013-05-08T04:46:26.000Z</time>
</trkpt>
<trkpt lat="43.887332" lon="3.740589">
<ele>185.1</ele>
<time>2013-05-08T04:46:27.000Z</time>
</trkpt>
<trkpt lat="43.887062" lon="3.740588">
<ele>185.4</ele>
<time>2013-05-08T04:46:28.000Z</time>
</trkpt>
<trkpt lat="43.886785" lon="3.74056">
<ele>185.6</ele>
<time>2013-05-08T04:46:29.000Z</time>
</trkpt>
<trkpt lat="43.886505" lon="3.740519">
<ele>185.6</ele>
<time>2013-05-08T04:46:30.000Z</time>
</trkpt>
<trkpt lat="43.886237" lon="3.740471">
<ele>186.2</ele>
<time>2013-05-08T04:46:31.000Z</time>
</trkpt>
<trkpt lat="43.88596" lon="3.740428">
<ele>187.2</ele>
<time>2013-05-08T04:46:32.000Z</time>
</trkpt>
<trkpt lat="43.88568" lon="3.740401">
<ele>188.4</ele>
<time>2013-05-08T04:46:33.000Z</time>
</trkpt>
<trkpt lat="43.885396" lon="3.74038">
<ele>189.7</ele>
<time>2013-05-08T04:46:34.000Z</time>
</trkpt>
<trkpt lat="43.885115" lon="3.740382">
<ele>190.8</ele>
<time>2013-05-08T04:46:35.000Z</time>
</trkpt>
<trkpt lat="43.884836" lon="3.740408">
<ele>191.8</ele>
<time>2013-05-08T04:46:36.000Z</time>
</trkpt>
<trkpt lat="43.884551" lon="3.740479">
<ele>192.5</ele>
<time>2013-05-08T04:46:37.000Z</time>
</trkpt>
<trkpt lat="43.884282" lon="3.740582">
<ele>192.9</ele>
<time>2013-05-08T04:46:38.000Z</time>
</trkpt>
<trkpt lat="43.884021" lon="3.740735">
<ele>193.2</ele>
<time>2013-05-08T04:46:39.000Z</time>
</trkpt>
<trkpt lat="43.883777" lon="3.740933">
<ele>193.6</ele>
<time>2013-05-08T04:46:40.000Z</time>
</trkpt>
<trkpt lat="43.883547" lon="3.741176">
<ele>194</ele>
<time>2013-05-08T04:46:41.000Z</time>
</trkpt>
<trkpt lat="43.88333" lon="3.741472">
<ele>194.4</ele>
<time>2013-05-08T04:46:42.000Z</time>
</trkpt>
<trkpt lat="43.883123" lon="3.741784">
<ele>195</ele>
<time>2013-05-08T04:46:43.000Z</time>
</trkpt>
<trkpt lat="43.882939" lon="3.742106">
<ele>195.9</ele>
<time>2013-05-08T04:46:44.000Z</time>
</trkpt>
<trkpt lat="43.882756" lon="3.742443">
<ele>196.7</ele>
<time>2013-05-08T04:46:45.000Z</time>
</trkpt>
<trkpt lat="43.88238" lon="3.743148">
<ele>198.6</ele>
<time>2013-05-08T04:46:47.000Z</time>
</trkpt>
<trkpt lat="43.88217" lon="3.743472">
<ele>199.6</ele>
<time>2013-05-08T04:46:48.000Z</time>
</trkpt>
<trkpt lat="43.881946" lon="3.743766">
<ele>201.1</ele>
<time>2013-05-08T04:46:49.000Z</time>
</trkpt>
<trkpt lat="43.881696" lon="3.744025">
<ele>203.2</ele>
<time>2013-05-08T04:46:50.000Z</time>
</trkpt>
<trkpt lat="43.881442" lon="3.744259">
<ele>205.3</ele>
<time>2013-05-08T04:46:51.000Z</time>
</trkpt>
<trkpt lat="43.881174" lon="3.744461">
<ele>207.4</ele>
<time>2013-05-08T04:46:52.000Z</time>
</trkpt>
<trkpt lat="43.880882" lon="3.744617">
<ele>208.9</ele>
<time>2013-05-08T04:46:53.000Z</time>
</trkpt>
<trkpt lat="43.880578" lon="3.744741">
<ele>210.2</ele>
<time>2013-05-08T04:46:54.000Z</time>
</trkpt>
<trkpt lat="43.880269" lon="3.744842">
<ele>211.2</ele>
<time>2013-05-08T04:46:55.000Z</time>
</trkpt>
<trkpt lat="43.87996" lon="3.744932">
<ele>212</ele>
<time>2013-05-08T04:46:56.000Z</time>
</trkpt>
<trkpt lat="43.879641" lon="3.744985">
<ele>213.2</ele>
<time>2013-05-08T04:46:57.000Z</time>
</trkpt>
<trkpt lat="43.879317" lon="3.744993">
<ele>214.3</ele>
<time>2013-05-08T04:46:58.000Z</time>
</trkpt>
<trkpt lat="43.878985" lon="3.744938">
<ele>215.1</ele>
<time>2013-05-08T04:46:59.000Z</time>
</trkpt>
<trkpt lat="43.878661" lon="3.744861">
<ele>216</ele>
<time>2013-05-08T04:47:00.000Z</time>
</trkpt>
<trkpt lat="43.878386" lon="3.7447">
<ele>216.9</ele>
<time>2013-05-08T04:47:01.000Z</time>
</trkpt>
<trkpt lat="43.878133" lon="3.744483">
<ele>218.3</ele>
<time>2013-05-08T04:47:02.000Z</time>
</trkpt>
<trkpt lat="43.877914" lon="3.744203">
<ele>219.9</ele>
<time>2013-05-08T04:47:03.000Z</time>
</trkpt>
<trkpt lat="43.877726" lon="3.743863">
<ele>221.3</ele>
<time>2013-05-08T04:47:04.000Z</time>
</trkpt>
<trkpt lat="43.877556" lon="3.743477">
<ele>222.2</ele>
<time>2013-05-08T04:47:05.000Z</time>
</trkpt>
<trkpt lat="43.877392" lon="3.74307">
<ele>222.5</ele>
<time>2013-05-08T04:47:06.000Z</time>
</trkpt>
<trkpt lat="43.877213" lon="3.742687">
<ele>222.6</ele>
<time>2013-05-08T04:47:07.000Z</time>
</trkpt>
<trkpt lat="43.877009" lon="3.742347">
<ele>222.5</ele>
<time>2013-05-08T04:47:08.000Z</time>
</trkpt>
<trkpt lat="43.876779" lon="3.742075">
<ele>222.1</ele>
<time>2013-05-08T04:47:09.000Z</time>
</trkpt>
<trkpt lat="43.876527" lon="3.74185">
<ele>221.5</ele>
<time>2013-05-08T04:47:10.000Z</time>
</trkpt>
<trkpt lat="43.876258" lon="3.74169">
<ele>220.6</ele>
<time>2013-05-08T04:47:11.000Z</time>
</trkpt>
<trkpt lat="43.875956" lon="3.74163">
<ele>220.3</ele>
<time>2013-05-08T04:47:12.000Z</time>
</trkpt>
<trkpt lat="43.875655" lon="3.74162">
<ele>220.3</ele>
<time>2013-05-08T04:47:13.000Z</time>
</trkpt>
<trkpt lat="43.875335" lon="3.741673">
<ele>220.5</ele>
<time>2013-05-08T04:47:14.000Z</time>
</trkpt>
<trkpt lat="43.875019" lon="3.741747">
<ele>221.2</ele>
<time>2013-05-08T04:47:15.000Z</time>
</trkpt>
<trkpt lat="43.874707" lon="3.741858">
<ele>222</ele>
<time>2013-05-08T04:47:16.000Z</time>
</trkpt>
<trkpt lat="43.874388" lon="3.741972">
<ele>222.5</ele>
<time>2013-05-08T04:47:17.000Z</time>
</trkpt>
<trkpt lat="43.874065" lon="3.742082">
<ele>222.7</ele>
<time>2013-05-08T04:47:18.000Z</time>
</trkpt>
<trkpt lat="43.873732" lon="3.742188">
<ele>223.1</ele>
<time>2013-05-08T04:47:19.000Z</time>
</trkpt>
<trkpt lat="43.873391" lon="3.742275">
<ele>223.8</ele>
<time>2013-05-08T04:47:20.000Z</time>
</trkpt>
<trkpt lat="43.87304" lon="3.742362">
<ele>224.9</ele>
<time>2013-05-08T04:47:21.000Z</time>
</trkpt>
<trkpt lat="43.872689" lon="3.742391">
<ele>226</ele>
<time>2013-05-08T04:47:22.000Z</time>
</trkpt>
<trkpt lat="43.872339" lon="3.7424">
<ele>227.3</ele>
<time>2013-05-08T04:47:23.000Z</time>
</trkpt>
<trkpt lat="43.871991" lon="3.742387">
<ele>228.6</ele>
<time>2013-05-08T04:47:24.000Z</time>
</trkpt>
<trkpt lat="43.871645" lon="3.742356">
<ele>229.9</ele>
<time>2013-05-08T04:47:25.000Z</time>
</trkpt>
<trkpt lat="43.871305" lon="3.742305">
<ele>231.5</ele>
<time>2013-05-08T04:47:26.000Z</time>
</trkpt>
<trkpt lat="43.870955" lon="3.742234">
<ele>233.4</ele>
<time>2013-05-08T04:47:27.000Z</time>
</trkpt>
<trkpt lat="43.870606" lon="3.742136">
<ele>234.9</ele>
<time>2013-05-08T04:47:28.000Z</time>
</trkpt>
<trkpt lat="43.87026" lon="3.742031">
<ele>236.3</ele>
<time>2013-05-08T04:47:29.000Z</time>
</trkpt>
<trkpt lat="43.869928" lon="3.741904">
<ele>237.2</ele>
<time>2013-05-08T04:47:30.000Z</time>
</trkpt>
<trkpt lat="43.869592" lon="3.741762">
<ele>238.5</ele>
<time>2013-05-08T04:47:31.000Z</time>
</trkpt>
<trkpt lat="43.869262" lon="3.741598">
<ele>239.9</ele>
<time>2013-05-08T04:47:32.000Z</time>
</trkpt>
<trkpt lat="43.868946" lon="3.741401">
<ele>241</ele>
<time>2013-05-08T04:47:33.000Z</time>
</trkpt>
<trkpt lat="43.868642" lon="3.741191">
<ele>241.9</ele>
<time>2013-05-08T04:47:34.000Z</time>
</trkpt>
<trkpt lat="43.868339" lon="3.740968">
<ele>242.9</ele>
<time>2013-05-08T04:47:35.000Z</time>
</trkpt>
<trkpt lat="43.868036" lon="3.740753">
<ele>244.1</ele>
<time>2013-05-08T04:47:36.000Z</time>
</trkpt>
<trkpt lat="43.86774" lon="3.740545">
<ele>245.2</ele>
<time>2013-05-08T04:47:37.000Z</time>
</trkpt>
<trkpt lat="43.867431" lon="3.740369">
<ele>246.5</ele>
<time>2013-05-08T04:47:38.000Z</time>
</trkpt>
<trkpt lat="43.867124" lon="3.740262">
<ele>247.7</ele>
<time>2013-05-08T04:47:39.000Z</time>
</trkpt>
<trkpt lat="43.86683" lon="3.740191">
<ele>248.6</ele>
<time>2013-05-08T04:47:40.000Z</time>
</trkpt>
<trkpt lat="43.866528" lon="3.740203">
<ele>249</ele>
<time>2013-05-08T04:47:41.000Z</time>
</trkpt>
<trkpt lat="43.866223" lon="3.740244">
<ele>249.3</ele>
<time>2013-05-08T04:47:42.000Z</time>
</trkpt>
<trkpt lat="43.865913" lon="3.740332">
<ele>250</ele>
<time>2013-05-08T04:47:43.000Z</time>
</trkpt>
<trkpt lat="43.86561" lon="3.740479">
<ele>251.1</ele>
<time>2013-05-08T04:47:44.000Z</time>
</trkpt>
<trkpt lat="43.865305" lon="3.740665">
<ele>252.4</ele>
<time>2013-05-08T04:47:45.000Z</time>
</trkpt>
<trkpt lat="43.865005" lon="3.740876">
<ele>253.9</ele>
<time>2013-05-08T04:47:46.000Z</time>
</trkpt>
<trkpt lat="43.864701" lon="3.741092">
<ele>255.3</ele>
<time>2013-05-08T04:47:47.000Z</time>
</trkpt>
<trkpt lat="43.864405" lon="3.741315">
<ele>256.6</ele>
<time>2013-05-08T04:47:48.000Z</time>
</trkpt>
<trkpt lat="43.864102" lon="3.741543">
<ele>258</ele>
<time>2013-05-08T04:47:49.000Z</time>
</trkpt>
<trkpt lat="43.863797" lon="3.741777">
<ele>259.4</ele>
<time>2013-05-08T04:47:50.000Z</time>
</trkpt>
<trkpt lat="43.863493" lon="3.742009">
<ele>260.7</ele>
<time>2013-05-08T04:47:51.000Z</time>
</trkpt>
<trkpt lat="43.863196" lon="3.742257">
<ele>262.1</ele>
<time>2013-05-08T04:47:52.000Z</time>
</trkpt>
<trkpt lat="43.862894" lon="3.742508">
<ele>264</ele>
<time>2013-05-08T04:47:53.000Z</time>
</trkpt>
<trkpt lat="43.862604" lon="3.742743">
<ele>265.7</ele>
<time>2013-05-08T04:47:54.000Z</time>
</trkpt>
<trkpt lat="43.862313" lon="3.742935">
<ele>267.7</ele>
<time>2013-05-08T04:47:55.000Z</time>
</trkpt>
<trkpt lat="43.86201" lon="3.74307">
<ele>269.6</ele>
<time>2013-05-08T04:47:56.000Z</time>
</trkpt>
<trkpt lat="43.861689" lon="3.743138">
<ele>271.8</ele>
<time>2013-05-08T04:47:57.000Z</time>
</trkpt>
<trkpt lat="43.861361" lon="3.743177">
<ele>273.7</ele>
<time>2013-05-08T04:47:58.000Z</time>
</trkpt>
<trkpt lat="43.861021" lon="3.74315">
<ele>275.1</ele>
<time>2013-05-08T04:47:59.000Z</time>
</trkpt>
<trkpt lat="43.86068" lon="3.743047">
<ele>276.6</ele>
<time>2013-05-08T04:48:00.000Z</time>
</trkpt>
<trkpt lat="43.860371" lon="3.742908">
<ele>278.2</ele>
<time>2013-05-08T04:48:01.000Z</time>
</trkpt>
<trkpt lat="43.860085" lon="3.74269">
<ele>279.4</ele>
<time>2013-05-08T04:48:02.000Z</time>
</trkpt>
<trkpt lat="43.859787" lon="3.742432">
<ele>281.2</ele>
<time>2013-05-08T04:48:03.000Z</time>
</trkpt>
<trkpt lat="43.859503" lon="3.742217">
<ele>283.5</ele>
<time>2013-05-08T04:48:04.000Z</time>
</trkpt>
<trkpt lat="43.859199" lon="3.741997">
<ele>285.9</ele>
<time>2013-05-08T04:48:05.000Z</time>
</trkpt>
<trkpt lat="43.858903" lon="3.741801">
<ele>288.4</ele>
<time>2013-05-08T04:48:06.000Z</time>
</trkpt>
<trkpt lat="43.858597" lon="3.741662">
<ele>290.9</ele>
<time>2013-05-08T04:48:07.000Z</time>
</trkpt>
<trkpt lat="43.858273" lon="3.741634">
<ele>293.6</ele>
<time>2013-05-08T04:48:08.000Z</time>
</trkpt>
<trkpt lat="43.857948" lon="3.741624">
<ele>296.3</ele>
<time>2013-05-08T04:48:09.000Z</time>
</trkpt>
<trkpt lat="43.85762" lon="3.741658">
<ele>299.2</ele>
<time>2013-05-08T04:48:10.000Z</time>
</trkpt>
<trkpt lat="43.857306" lon="3.741705">
<ele>301.6</ele>
<time>2013-05-08T04:48:11.000Z</time>
</trkpt>
<trkpt lat="43.856986" lon="3.741769">
<ele>303.7</ele>
<time>2013-05-08T04:48:12.000Z</time>
</trkpt>
<trkpt lat="43.856654" lon="3.741847">
<ele>306.1</ele>
<time>2013-05-08T04:48:13.000Z</time>
</trkpt>
<trkpt lat="43.856327" lon="3.741913">
<ele>308.5</ele>
<time>2013-05-08T04:48:14.000Z</time>
</trkpt>
<trkpt lat="43.855985" lon="3.74197">
<ele>311.4</ele>
<time>2013-05-08T04:48:15.000Z</time>
</trkpt>
<trkpt lat="43.855632" lon="3.742029">
<ele>314.6</ele>
<time>2013-05-08T04:48:16.000Z</time>
</trkpt>
<trkpt lat="43.855286" lon="3.742072">
<ele>317.6</ele>
<time>2013-05-08T04:48:17.000Z</time>
</trkpt>
<trkpt lat="43.854946" lon="3.742101">
<ele>320.6</ele>
<time>2013-05-08T04:48:18.000Z</time>
</trkpt>
<trkpt lat="43.854602" lon="3.7421">
<ele>323.7</ele>
<time>2013-05-08T04:48:19.000Z</time>
</trkpt>
<trkpt lat="43.854257" lon="3.742059">
<ele>326.7</ele>
<time>2013-05-08T04:48:20.000Z</time>
</trkpt>
<trkpt lat="43.853919" lon="3.742004">
<ele>329.2</ele>
<time>2013-05-08T04:48:21.000Z</time>
</trkpt>
<trkpt lat="43.853577" lon="3.741909">
<ele>331.7</ele>
<time>2013-05-08T04:48:22.000Z</time>
</trkpt>
<trkpt lat="43.853238" lon="3.741802">
<ele>334.2</ele>
<time>2013-05-08T04:48:23.000Z</time>
</trkpt>
<trkpt lat="43.85291" lon="3.741687">
<ele>336.6</ele>
<time>2013-05-08T04:48:24.000Z</time>
</trkpt>
<trkpt lat="43.852591" lon="3.741534">
<ele>339</ele>
<time>2013-05-08T04:48:25.000Z</time>
</trkpt>
<trkpt lat="43.85227" lon="3.741384">
<ele>341.5</ele>
<time>2013-05-08T04:48:26.000Z</time>
</trkpt>
<trkpt lat="43.851935" lon="3.741227">
<ele>345</ele>
<time>2013-05-08T04:48:27.000Z</time>
</trkpt>
<trkpt lat="43.851612" lon="3.741063">
<ele>348.4</ele>
<time>2013-05-08T04:48:28.000Z</time>
</trkpt>
<trkpt lat="43.851293" lon="3.740888">
<ele>351.6</ele>
<time>2013-05-08T04:48:29.000Z</time>
</trkpt>
<trkpt lat="43.850983" lon="3.740698">
<ele>354.7</ele>
<time>2013-05-08T04:48:30.000Z</time>
</trkpt>
<trkpt lat="43.850675" lon="3.740505">
<ele>357.5</ele>
<time>2013-05-08T04:48:31.000Z</time>
</trkpt>
<trkpt lat="43.850362" lon="3.740319">
<ele>360.1</ele>
<time>2013-05-08T04:48:32.000Z</time>
</trkpt>
<trkpt lat="43.850047" lon="3.740144">
<ele>362.4</ele>
<time>2013-05-08T04:48:33.000Z</time>
</trkpt>
<trkpt lat="43.849732" lon="3.739992">
<ele>364.2</ele>
<time>2013-05-08T04:48:34.000Z</time>
</trkpt>
<trkpt lat="43.849413" lon="3.73987">
<ele>365.5</ele>
<time>2013-05-08T04:48:35.000Z</time>
</trkpt>
<trkpt lat="43.84909" lon="3.739798">
<ele>366.4</ele>
<time>2013-05-08T04:48:36.000Z</time>
</trkpt>
<trkpt lat="43.848761" lon="3.739767">
<ele>366.9</ele>
<time>2013-05-08T04:48:37.000Z</time>
</trkpt>
<trkpt lat="43.848426" lon="3.739786">
<ele>366.9</ele>
<time>2013-05-08T04:48:38.000Z</time>
</trkpt>
<trkpt lat="43.848085" lon="3.739855">
<ele>366.1</ele>
<time>2013-05-08T04:48:39.000Z</time>
</trkpt>
<trkpt lat="43.847741" lon="3.739975">
<ele>365.1</ele>
<time>2013-05-08T04:48:40.000Z</time>
</trkpt>
<trkpt lat="43.84739" lon="3.740137">
<ele>364.1</ele>
<time>2013-05-08T04:48:41.000Z</time>
</trkpt>
<trkpt lat="43.84704" lon="3.740321">
<ele>363.4</ele>
<time>2013-05-08T04:48:42.000Z</time>
</trkpt>
<trkpt lat="43.846686" lon="3.740513">
<ele>362.6</ele>
<time>2013-05-08T04:48:43.000Z</time>
</trkpt>
<trkpt lat="43.846311" lon="3.740757">
<ele>363.2</ele>
<time>2013-05-08T04:48:44.000Z</time>
</trkpt>
<trkpt lat="43.845951" lon="3.740994">
<ele>364.5</ele>
<time>2013-05-08T04:48:45.000Z</time>
</trkpt>
<trkpt lat="43.845602" lon="3.741212">
<ele>366</ele>
<time>2013-05-08T04:48:46.000Z</time>
</trkpt>
<trkpt lat="43.84493" lon="3.741623">
<ele>368.7</ele>
<time>2013-05-08T04:48:48.000Z</time>
</trkpt>
<trkpt lat="43.844599" lon="3.741814">
<ele>369.6</ele>
<time>2013-05-08T04:48:49.000Z</time>
</trkpt>
<trkpt lat="43.844275" lon="3.741996">
<ele>370.1</ele>
<time>2013-05-08T04:48:50.000Z</time>
</trkpt>
<trkpt lat="43.843952" lon="3.742174">
<ele>370.1</ele>
<time>2013-05-08T04:48:51.000Z</time>
</trkpt>
<trkpt lat="43.843638" lon="3.742351">
<ele>369.1</ele>
<time>2013-05-08T04:48:52.000Z</time>
</trkpt>
<trkpt lat="43.843323" lon="3.742526">
<ele>367.7</ele>
<time>2013-05-08T04:48:53.000Z</time>
</trkpt>
<trkpt lat="43.843018" lon="3.742695">
<ele>365.7</ele>
<time>2013-05-08T04:48:54.000Z</time>
</trkpt>
<trkpt lat="43.842704" lon="3.742862">
<ele>363.5</ele>
<time>2013-05-08T04:48:55.000Z</time>
</trkpt>
<trkpt lat="43.842417" lon="3.742998">
<ele>360.2</ele>
<time>2013-05-08T04:48:56.000Z</time>
</trkpt>
<trkpt lat="43.842126" lon="3.743132">
<ele>356.1</ele>
<time>2013-05-08T04:48:57.000Z</time>
</trkpt>
<trkpt lat="43.841837" lon="3.743266">
<ele>351.9</ele>
<time>2013-05-08T04:48:58.000Z</time>
</trkpt>
<trkpt lat="43.841544" lon="3.74341">
<ele>347.8</ele>
<time>2013-05-08T04:48:59.000Z</time>
</trkpt>
<trkpt lat="43.841251" lon="3.743545">
<ele>343.6</ele>
<time>2013-05-08T04:49:00.000Z</time>
</trkpt>
<trkpt lat="43.840964" lon="3.743695">
<ele>339.7</ele>
<time>2013-05-08T04:49:01.000Z</time>
</trkpt>
<trkpt lat="43.840674" lon="3.743844">
<ele>336.1</ele>
<time>2013-05-08T04:49:02.000Z</time>
</trkpt>
<trkpt lat="43.840381" lon="3.743988">
<ele>332.8</ele>
<time>2013-05-08T04:49:03.000Z</time>
</trkpt>
<trkpt lat="43.840091" lon="3.744111">
<ele>329.8</ele>
<time>2013-05-08T04:49:04.000Z</time>
</trkpt>
<trkpt lat="43.839794" lon="3.744195">
<ele>326.8</ele>
<time>2013-05-08T04:49:05.000Z</time>
</trkpt>
<trkpt lat="43.839489" lon="3.744247">
<ele>324</ele>
<time>2013-05-08T04:49:06.000Z</time>
</trkpt>
<trkpt lat="43.839186" lon="3.744274">
<ele>321.1</ele>
<time>2013-05-08T04:49:07.000Z</time>
</trkpt>
<trkpt lat="43.838872" lon="3.744274">
<ele>318.7</ele>
<time>2013-05-08T04:49:08.000Z</time>
</trkpt>
<trkpt lat="43.838556" lon="3.744229">
<ele>316.7</ele>
<time>2013-05-08T04:49:09.000Z</time>
</trkpt>
<trkpt lat="43.838242" lon="3.744167">
<ele>315</ele>
<time>2013-05-08T04:49:10.000Z</time>
</trkpt>
<trkpt lat="43.837929" lon="3.74407">
<ele>313.3</ele>
<time>2013-05-08T04:49:11.000Z</time>
</trkpt>
<trkpt lat="43.837623" lon="3.743941">
<ele>311.5</ele>
<time>2013-05-08T04:49:12.000Z</time>
</trkpt>
<trkpt lat="43.837321" lon="3.743775">
<ele>309.5</ele>
<time>2013-05-08T04:49:13.000Z</time>
</trkpt>
<trkpt lat="43.837023" lon="3.743587">
<ele>307.7</ele>
<time>2013-05-08T04:49:14.000Z</time>
</trkpt>
<trkpt lat="43.836724" lon="3.743384">
<ele>305.5</ele>
<time>2013-05-08T04:49:15.000Z</time>
</trkpt>
<trkpt lat="43.836429" lon="3.743175">
<ele>303.5</ele>
<time>2013-05-08T04:49:16.000Z</time>
</trkpt>
<trkpt lat="43.836134" lon="3.742972">
<ele>301.7</ele>
<time>2013-05-08T04:49:17.000Z</time>
</trkpt>
<trkpt lat="43.835833" lon="3.742782">
<ele>300.1</ele>
<time>2013-05-08T04:49:18.000Z</time>
</trkpt>
<trkpt lat="43.835523" lon="3.742615">
<ele>298.3</ele>
<time>2013-05-08T04:49:19.000Z</time>
</trkpt>
<trkpt lat="43.835214" lon="3.742479">
<ele>296.4</ele>
<time>2013-05-08T04:49:20.000Z</time>
</trkpt>
<trkpt lat="43.834911" lon="3.742359">
<ele>294.6</ele>
<time>2013-05-08T04:49:21.000Z</time>
</trkpt>
<trkpt lat="43.834605" lon="3.742263">
<ele>293</ele>
<time>2013-05-08T04:49:22.000Z</time>
</trkpt>
<trkpt lat="43.834298" lon="3.742202">
<ele>291.8</ele>
<time>2013-05-08T04:49:23.000Z</time>
</trkpt>
<trkpt lat="43.834006" lon="3.742223">
<ele>290.4</ele>
<time>2013-05-08T04:49:24.000Z</time>
</trkpt>
<trkpt lat="43.833705" lon="3.742287">
<ele>289.2</ele>
<time>2013-05-08T04:49:25.000Z</time>
</trkpt>
<trkpt lat="43.833419" lon="3.742423">
<ele>287.6</ele>
<time>2013-05-08T04:49:26.000Z</time>
</trkpt>
<trkpt lat="43.833141" lon="3.742641">
<ele>286.4</ele>
<time>2013-05-08T04:49:27.000Z</time>
</trkpt>
<trkpt lat="43.832887" lon="3.742888">
<ele>285.1</ele>
<time>2013-05-08T04:49:28.000Z</time>
</trkpt>
<trkpt lat="43.832632" lon="3.74315">
<ele>283.6</ele>
<time>2013-05-08T04:49:29.000Z</time>
</trkpt>
<trkpt lat="43.83238" lon="3.743424">
<ele>282.4</ele>
<time>2013-05-08T04:49:30.000Z</time>
</trkpt>
<trkpt lat="43.832116" lon="3.743712">
<ele>281.4</ele>
<time>2013-05-08T04:49:31.000Z</time>
</trkpt>
<trkpt lat="43.831849" lon="3.743995">
<ele>280.2</ele>
<time>2013-05-08T04:49:32.000Z</time>
</trkpt>
<trkpt lat="43.831587" lon="3.744265">
<ele>278.7</ele>
<time>2013-05-08T04:49:33.000Z</time>
</trkpt>
<trkpt lat="43.831321" lon="3.744539">
<ele>277.6</ele>
<time>2013-05-08T04:49:34.000Z</time>
</trkpt>
<trkpt lat="43.831062" lon="3.744782">
<ele>276.4</ele>
<time>2013-05-08T04:49:35.000Z</time>
</trkpt>
<trkpt lat="43.830804" lon="3.744961">
<ele>275.3</ele>
<time>2013-05-08T04:49:36.000Z</time>
</trkpt>
<trkpt lat="43.830541" lon="3.745084">
<ele>274.1</ele>
<time>2013-05-08T04:49:37.000Z</time>
</trkpt>
<trkpt lat="43.83026" lon="3.745165">
<ele>272.8</ele>
<time>2013-05-08T04:49:38.000Z</time>
</trkpt>
<trkpt lat="43.829959" lon="3.745181">
<ele>271.1</ele>
<time>2013-05-08T04:49:39.000Z</time>
</trkpt>
<trkpt lat="43.829655" lon="3.745157">
<ele>269.5</ele>
<time>2013-05-08T04:49:40.000Z</time>
</trkpt>
<trkpt lat="43.829345" lon="3.745111">
<ele>268.2</ele>
<time>2013-05-08T04:49:41.000Z</time>
</trkpt>
<trkpt lat="43.829034" lon="3.745064">
<ele>267</ele>
<time>2013-05-08T04:49:42.000Z</time>
</trkpt>
<trkpt lat="43.828721" lon="3.74502">
<ele>266.3</ele>
<time>2013-05-08T04:49:43.000Z</time>
</trkpt>
<trkpt lat="43.828401" lon="3.744982">
<ele>265.8</ele>
<time>2013-05-08T04:49:44.000Z</time>
</trkpt>
<trkpt lat="43.828074" lon="3.744944">
<ele>265.5</ele>
<time>2013-05-08T04:49:45.000Z</time>
</trkpt>
<trkpt lat="43.82775" lon="3.744909">
<ele>265.3</ele>
<time>2013-05-08T04:49:46.000Z</time>
</trkpt>
<trkpt lat="43.827423" lon="3.744878">
<ele>265</ele>
<time>2013-05-08T04:49:47.000Z</time>
</trkpt>
<trkpt lat="43.827093" lon="3.74485">
<ele>264.8</ele>
<time>2013-05-08T04:49:48.000Z</time>
</trkpt>
<trkpt lat="43.826765" lon="3.744822">
<ele>264.6</ele>
<time>2013-05-08T04:49:49.000Z</time>
</trkpt>
<trkpt lat="43.826437" lon="3.744793">
<ele>264.5</ele>
<time>2013-05-08T04:49:50.000Z</time>
</trkpt>
<trkpt lat="43.826109" lon="3.744761">
<ele>264.4</ele>
<time>2013-05-08T04:49:51.000Z</time>
</trkpt>
<trkpt lat="43.825782" lon="3.744731">
<ele>264.3</ele>
<time>2013-05-08T04:49:52.000Z</time>
</trkpt>
<trkpt lat="43.825452" lon="3.744705">
<ele>264.2</ele>
<time>2013-05-08T04:49:53.000Z</time>
</trkpt>
<trkpt lat="43.825124" lon="3.744676">
<ele>264</ele>
<time>2013-05-08T04:49:54.000Z</time>
</trkpt>
<trkpt lat="43.824798" lon="3.744653">
<ele>264</ele>
<time>2013-05-08T04:49:55.000Z</time>
</trkpt>
<trkpt lat="43.824473" lon="3.744624">
<ele>264</ele>
<time>2013-05-08T04:49:56.000Z</time>
</trkpt>
<trkpt lat="43.824153" lon="3.744601">
<ele>264.1</ele>
<time>2013-05-08T04:49:57.000Z</time>
</trkpt>
<trkpt lat="43.823834" lon="3.744576">
<ele>264.4</ele>
<time>2013-05-08T04:49:58.000Z</time>
</trkpt>
<trkpt lat="43.823517" lon="3.744552">
<ele>264.8</ele>
<time>2013-05-08T04:49:59.000Z</time>
</trkpt>
<trkpt lat="43.823195" lon="3.744527">
<ele>265.1</ele>
<time>2013-05-08T04:50:00.000Z</time>
</trkpt>
<trkpt lat="43.822868" lon="3.744505">
<ele>265.3</ele>
<time>2013-05-08T04:50:01.000Z</time>
</trkpt>
<trkpt lat="43.822544" lon="3.744504">
<ele>265.2</ele>
<time>2013-05-08T04:50:02.000Z</time>
</trkpt>
<trkpt lat="43.822244" lon="3.744516">
<ele>265</ele>
<time>2013-05-08T04:50:03.000Z</time>
</trkpt>
<trkpt lat="43.821952" lon="3.744518">
<ele>264.5</ele>
<time>2013-05-08T04:50:04.000Z</time>
</trkpt>
<trkpt lat="43.821644" lon="3.74454">
<ele>263.7</ele>
<time>2013-05-08T04:50:05.000Z</time>
</trkpt>
<trkpt lat="43.821328" lon="3.74456">
<ele>262.8</ele>
<time>2013-05-08T04:50:06.000Z</time>
</trkpt>
<trkpt lat="43.821011" lon="3.744576">
<ele>261.8</ele>
<time>2013-05-08T04:50:07.000Z</time>
</trkpt>
<trkpt lat="43.82069" lon="3.744599">
<ele>261.3</ele>
<time>2013-05-08T04:50:08.000Z</time>
</trkpt>
<trkpt lat="43.820373" lon="3.744601">
<ele>260.8</ele>
<time>2013-05-08T04:50:09.000Z</time>
</trkpt>
<trkpt lat="43.820064" lon="3.744571">
<ele>260.2</ele>
<time>2013-05-08T04:50:10.000Z</time>
</trkpt>
<trkpt lat="43.819765" lon="3.74451">
<ele>259.7</ele>
<time>2013-05-08T04:50:11.000Z</time>
</trkpt>
<trkpt lat="43.819476" lon="3.744452">
<ele>258.8</ele>
<time>2013-05-08T04:50:12.000Z</time>
</trkpt>
<trkpt lat="43.819191" lon="3.744425">
<ele>258</ele>
<time>2013-05-08T04:50:13.000Z</time>
</trkpt>
<trkpt lat="43.81893" lon="3.744429">
<ele>256.8</ele>
<time>2013-05-08T04:50:14.000Z</time>
</trkpt>
<trkpt lat="43.818652" lon="3.744461">
<ele>255.3</ele>
<time>2013-05-08T04:50:15.000Z</time>
</trkpt>
<trkpt lat="43.818368" lon="3.7445">
<ele>253.9</ele>
<time>2013-05-08T04:50:16.000Z</time>
</trkpt>
<trkpt lat="43.81807" lon="3.744506">
<ele>252.3</ele>
<time>2013-05-08T04:50:17.000Z</time>
</trkpt>
<trkpt lat="43.817768" lon="3.744473">
<ele>251</ele>
<time>2013-05-08T04:50:18.000Z</time>
</trkpt>
<trkpt lat="43.817458" lon="3.744354">
<ele>249.4</ele>
<time>2013-05-08T04:50:19.000Z</time>
</trkpt>
<trkpt lat="43.817164" lon="3.744198">
<ele>248</ele>
<time>2013-05-08T04:50:20.000Z</time>
</trkpt>
<trkpt lat="43.81688" lon="3.744036">
<ele>246.7</ele>
<time>2013-05-08T04:50:21.000Z</time>
</trkpt>
<trkpt lat="43.816587" lon="3.743878">
<ele>245.5</ele>
<time>2013-05-08T04:50:22.000Z</time>
</trkpt>
<trkpt lat="43.81632" lon="3.743719">
<ele>244.6</ele>
<time>2013-05-08T04:50:23.000Z</time>
</trkpt>
<trkpt lat="43.816061" lon="3.743569">
<ele>243.7</ele>
<time>2013-05-08T04:50:24.000Z</time>
</trkpt>
<trkpt lat="43.815816" lon="3.743445">
<ele>243.1</ele>
<time>2013-05-08T04:50:25.000Z</time>
</trkpt>
<trkpt lat="43.815554" lon="3.743357">
<ele>242.5</ele>
<time>2013-05-08T04:50:26.000Z</time>
</trkpt>
<trkpt lat="43.815286" lon="3.743323">
<ele>241.8</ele>
<time>2013-05-08T04:50:27.000Z</time>
</trkpt>
<trkpt lat="43.815017" lon="3.743356">
<ele>240.6</ele>
<time>2013-05-08T04:50:28.000Z</time>
</trkpt>
<trkpt lat="43.814742" lon="3.743422">
<ele>239.1</ele>
<time>2013-05-08T04:50:29.000Z</time>
</trkpt>
<trkpt lat="43.81447" lon="3.743497">
<ele>237.4</ele>
<time>2013-05-08T04:50:30.000Z</time>
</trkpt>
<trkpt lat="43.81421" lon="3.743565">
<ele>235.6</ele>
<time>2013-05-08T04:50:31.000Z</time>
</trkpt>
<trkpt lat="43.813961" lon="3.743634">
<ele>234</ele>
<time>2013-05-08T04:50:32.000Z</time>
</trkpt>
<trkpt lat="43.813716" lon="3.743702">
<ele>232.5</ele>
<time>2013-05-08T04:50:33.000Z</time>
</trkpt>
<trkpt lat="43.813473" lon="3.743767">
<ele>231.1</ele>
<time>2013-05-08T04:50:34.000Z</time>
</trkpt>
<trkpt lat="43.813241" lon="3.743802">
<ele>229.7</ele>
<time>2013-05-08T04:50:35.000Z</time>
</trkpt>
<trkpt lat="43.813007" lon="3.743793">
<ele>228.5</ele>
<time>2013-05-08T04:50:36.000Z</time>
</trkpt>
<trkpt lat="43.812784" lon="3.743715">
<ele>227.5</ele>
<time>2013-05-08T04:50:37.000Z</time>
</trkpt>
<trkpt lat="43.81258" lon="3.743564">
<ele>226.5</ele>
<time>2013-05-08T04:50:38.000Z</time>
</trkpt>
<trkpt lat="43.812385" lon="3.743354">
<ele>226.5</ele>
<time>2013-05-08T04:50:39.000Z</time>
</trkpt>
<trkpt lat="43.812237" lon="3.743078">
<ele>226.8</ele>
<time>2013-05-08T04:50:40.000Z</time>
</trkpt>
<trkpt lat="43.81209" lon="3.74279">
<ele>227</ele>
<time>2013-05-08T04:50:41.000Z</time>
</trkpt>
<trkpt lat="43.811942" lon="3.742475">
<ele>227.1</ele>
<time>2013-05-08T04:50:42.000Z</time>
</trkpt>
<trkpt lat="43.811797" lon="3.742164">
<ele>226.7</ele>
<time>2013-05-08T04:50:43.000Z</time>
</trkpt>
<trkpt lat="43.811642" lon="3.741861">
<ele>226.3</ele>
<time>2013-05-08T04:50:44.000Z</time>
</trkpt>
<trkpt lat="43.811464" lon="3.741592">
<ele>225.7</ele>
<time>2013-05-08T04:50:45.000Z</time>
</trkpt>
<trkpt lat="43.811255" lon="3.741372">
<ele>224.7</ele>
<time>2013-05-08T04:50:46.000Z</time>
</trkpt>
<trkpt lat="43.811021" lon="3.741203">
<ele>223.5</ele>
<time>2013-05-08T04:50:47.000Z</time>
</trkpt>
<trkpt lat="43.810764" lon="3.741088">
<ele>222.5</ele>
<time>2013-05-08T04:50:48.000Z</time>
</trkpt>
<trkpt lat="43.810483" lon="3.741046">
<ele>222.1</ele>
<time>2013-05-08T04:50:49.000Z</time>
</trkpt>
<trkpt lat="43.810211" lon="3.741063">
<ele>222</ele>
<time>2013-05-08T04:50:50.000Z</time>
</trkpt>
<trkpt lat="43.809935" lon="3.741177">
<ele>222.2</ele>
<time>2013-05-08T04:50:51.000Z</time>
</trkpt>
<trkpt lat="43.809651" lon="3.741301">
<ele>222.5</ele>
<time>2013-05-08T04:50:52.000Z</time>
</trkpt>
<trkpt lat="43.809362" lon="3.741402">
<ele>222.8</ele>
<time>2013-05-08T04:50:53.000Z</time>
</trkpt>
<trkpt lat="43.809068" lon="3.741467">
<ele>222.8</ele>
<time>2013-05-08T04:50:54.000Z</time>
</trkpt>
<trkpt lat="43.808764" lon="3.741464">
<ele>222.7</ele>
<time>2013-05-08T04:50:55.000Z</time>
</trkpt>
<trkpt lat="43.808477" lon="3.741392">
<ele>222.7</ele>
<time>2013-05-08T04:50:56.000Z</time>
</trkpt>
<trkpt lat="43.808191" lon="3.741274">
<ele>222.5</ele>
<time>2013-05-08T04:50:57.000Z</time>
</trkpt>
<trkpt lat="43.807925" lon="3.741081">
<ele>222.3</ele>
<time>2013-05-08T04:50:58.000Z</time>
</trkpt>
<trkpt lat="43.807659" lon="3.74086">
<ele>222.3</ele>
<time>2013-05-08T04:50:59.000Z</time>
</trkpt>
<trkpt lat="43.807389" lon="3.740622">
<ele>222.5</ele>
<time>2013-05-08T04:51:00.000Z</time>
</trkpt>
<trkpt lat="43.807118" lon="3.740368">
<ele>223.1</ele>
<time>2013-05-08T04:51:01.000Z</time>
</trkpt>
<trkpt lat="43.806846" lon="3.740106">
<ele>223.9</ele>
<time>2013-05-08T04:51:02.000Z</time>
</trkpt>
<trkpt lat="43.806575" lon="3.739847">
<ele>224.8</ele>
<time>2013-05-08T04:51:03.000Z</time>
</trkpt>
<trkpt lat="43.806302" lon="3.739592">
<ele>225.6</ele>
<time>2013-05-08T04:51:04.000Z</time>
</trkpt>
<trkpt lat="43.806033" lon="3.739329">
<ele>226.6</ele>
<time>2013-05-08T04:51:05.000Z</time>
</trkpt>
<trkpt lat="43.805763" lon="3.739066">
<ele>227.5</ele>
<time>2013-05-08T04:51:06.000Z</time>
</trkpt>
<trkpt lat="43.805495" lon="3.738807">
<ele>228.1</ele>
<time>2013-05-08T04:51:07.000Z</time>
</trkpt>
<trkpt lat="43.805213" lon="3.738551">
<ele>229.2</ele>
<time>2013-05-08T04:51:08.000Z</time>
</trkpt>
<trkpt lat="43.804926" lon="3.738347">
<ele>230.2</ele>
<time>2013-05-08T04:51:09.000Z</time>
</trkpt>
<trkpt lat="43.804627" lon="3.73819">
<ele>231</ele>
<time>2013-05-08T04:51:10.000Z</time>
</trkpt>
<trkpt lat="43.804318" lon="3.738081">
<ele>231.9</ele>
<time>2013-05-08T04:51:11.000Z</time>
</trkpt>
<trkpt lat="43.804" lon="3.738007">
<ele>232.9</ele>
<time>2013-05-08T04:51:12.000Z</time>
</trkpt>
<trkpt lat="43.803681" lon="3.737944">
<ele>234.1</ele>
<time>2013-05-08T04:51:13.000Z</time>
</trkpt>
<trkpt lat="43.803363" lon="3.737876">
<ele>235.2</ele>
<time>2013-05-08T04:51:14.000Z</time>
</trkpt>
<trkpt lat="43.80304" lon="3.737817">
<ele>236.3</ele>
<time>2013-05-08T04:51:15.000Z</time>
</trkpt>
<trkpt lat="43.802721" lon="3.73776">
<ele>237.4</ele>
<time>2013-05-08T04:51:16.000Z</time>
</trkpt>
<trkpt lat="43.802399" lon="3.737723">
<ele>238.6</ele>
<time>2013-05-08T04:51:17.000Z</time>
</trkpt>
<trkpt lat="43.802078" lon="3.737728">
<ele>239.8</ele>
<time>2013-05-08T04:51:18.000Z</time>
</trkpt>
<trkpt lat="43.801755" lon="3.73776">
<ele>241</ele>
<time>2013-05-08T04:51:19.000Z</time>
</trkpt>
<trkpt lat="43.801431" lon="3.737818">
<ele>242.2</ele>
<time>2013-05-08T04:51:20.000Z</time>
</trkpt>
<trkpt lat="43.801108" lon="3.737881">
<ele>243.2</ele>
<time>2013-05-08T04:51:21.000Z</time>
</trkpt>
<trkpt lat="43.800791" lon="3.737967">
<ele>244</ele>
<time>2013-05-08T04:51:22.000Z</time>
</trkpt>
<trkpt lat="43.800478" lon="3.738088">
<ele>244.8</ele>
<time>2013-05-08T04:51:23.000Z</time>
</trkpt>
<trkpt lat="43.800172" lon="3.738233">
<ele>245.5</ele>
<time>2013-05-08T04:51:24.000Z</time>
</trkpt>
<trkpt lat="43.799874" lon="3.738402">
<ele>246</ele>
<time>2013-05-08T04:51:25.000Z</time>
</trkpt>
<trkpt lat="43.799581" lon="3.738588">
<ele>246.4</ele>
<time>2013-05-08T04:51:26.000Z</time>
</trkpt>
<trkpt lat="43.799289" lon="3.738773">
<ele>246.6</ele>
<time>2013-05-08T04:51:27.000Z</time>
</trkpt>
<trkpt lat="43.798993" lon="3.73896">
<ele>246.7</ele>
<time>2013-05-08T04:51:28.000Z</time>
</trkpt>
<trkpt lat="43.798699" lon="3.739144">
<ele>246.5</ele>
<time>2013-05-08T04:51:29.000Z</time>
</trkpt>
<trkpt lat="43.798407" lon="3.739329">
<ele>246</ele>
<time>2013-05-08T04:51:30.000Z</time>
</trkpt>
<trkpt lat="43.798109" lon="3.739504">
<ele>245.3</ele>
<time>2013-05-08T04:51:31.000Z</time>
</trkpt>
<trkpt lat="43.797806" lon="3.739665">
<ele>244.4</ele>
<time>2013-05-08T04:51:32.000Z</time>
</trkpt>
<trkpt lat="43.797489" lon="3.739801">
<ele>243.7</ele>
<time>2013-05-08T04:51:33.000Z</time>
</trkpt>
<trkpt lat="43.797171" lon="3.739898">
<ele>243</ele>
<time>2013-05-08T04:51:34.000Z</time>
</trkpt>
<trkpt lat="43.796844" lon="3.739943">
<ele>242.2</ele>
<time>2013-05-08T04:51:35.000Z</time>
</trkpt>
<trkpt lat="43.796504" lon="3.739953">
<ele>241.6</ele>
<time>2013-05-08T04:51:36.000Z</time>
</trkpt>
<trkpt lat="43.796161" lon="3.739924">
<ele>240.5</ele>
<time>2013-05-08T04:51:37.000Z</time>
</trkpt>
<trkpt lat="43.79582" lon="3.739859">
<ele>239.8</ele>
<time>2013-05-08T04:51:38.000Z</time>
</trkpt>
<trkpt lat="43.795474" lon="3.739751">
<ele>239.2</ele>
<time>2013-05-08T04:51:39.000Z</time>
</trkpt>
<trkpt lat="43.795158" lon="3.739589">
<ele>238.6</ele>
<time>2013-05-08T04:51:40.000Z</time>
</trkpt>
<trkpt lat="43.794851" lon="3.739388">
<ele>238.1</ele>
<time>2013-05-08T04:51:41.000Z</time>
</trkpt>
<trkpt lat="43.794558" lon="3.739155">
<ele>237.6</ele>
<time>2013-05-08T04:51:42.000Z</time>
</trkpt>
<trkpt lat="43.794282" lon="3.738875">
<ele>237.1</ele>
<time>2013-05-08T04:51:43.000Z</time>
</trkpt>
<trkpt lat="43.794023" lon="3.738571">
<ele>236.8</ele>
<time>2013-05-08T04:51:44.000Z</time>
</trkpt>
<trkpt lat="43.79376" lon="3.738282">
<ele>236.5</ele>
<time>2013-05-08T04:51:45.000Z</time>
</trkpt>
<trkpt lat="43.793504" lon="3.738005">
<ele>236.4</ele>
<time>2013-05-08T04:51:46.000Z</time>
</trkpt>
<trkpt lat="43.793245" lon="3.737735">
<ele>236.4</ele>
<time>2013-05-08T04:51:47.000Z</time>
</trkpt>
<trkpt lat="43.792989" lon="3.737484">
<ele>236.4</ele>
<time>2013-05-08T04:51:48.000Z</time>
</trkpt>
<trkpt lat="43.79272" lon="3.737253">
<ele>236.2</ele>
<time>2013-05-08T04:51:49.000Z</time>
</trkpt>
<trkpt lat="43.792442" lon="3.737055">
<ele>235.8</ele>
<time>2013-05-08T04:51:50.000Z</time>
</trkpt>
<trkpt lat="43.792159" lon="3.736894">
<ele>235.5</ele>
<time>2013-05-08T04:51:51.000Z</time>
</trkpt>
<trkpt lat="43.791874" lon="3.736776">
<ele>235.5</ele>
<time>2013-05-08T04:51:52.000Z</time>
</trkpt>
<trkpt lat="43.791593" lon="3.736702">
<ele>235.5</ele>
<time>2013-05-08T04:51:52.999Z</time>
</trkpt>
<trkpt lat="43.791321" lon="3.736651">
<ele>235.7</ele>
<time>2013-05-08T04:51:53.999Z</time>
</trkpt>
<trkpt lat="43.791064" lon="3.736637">
<ele>236.1</ele>
<time>2013-05-08T04:51:54.999Z</time>
</trkpt>
<trkpt lat="43.790821" lon="3.736635">
<ele>236.5</ele>
<time>2013-05-08T04:51:55.999Z</time>
</trkpt>
<trkpt lat="43.790589" lon="3.736639">
<ele>237</ele>
<time>2013-05-08T04:51:56.999Z</time>
</trkpt>
<trkpt lat="43.790362" lon="3.736646">
<ele>237.8</ele>
<time>2013-05-08T04:51:57.999Z</time>
</trkpt>
<trkpt lat="43.790167" lon="3.736647">
<ele>238.7</ele>
<time>2013-05-08T04:51:58.999Z</time>
</trkpt>
<trkpt lat="43.789993" lon="3.736645">
<ele>239.5</ele>
<time>2013-05-08T04:51:59.999Z</time>
</trkpt>
<trkpt lat="43.789833" lon="3.736627">
<ele>240</ele>
<time>2013-05-08T04:52:00.999Z</time>
</trkpt>
<trkpt lat="43.789658" lon="3.736594">
<ele>240.3</ele>
<time>2013-05-08T04:52:01.999Z</time>
</trkpt>
<trkpt lat="43.789539" lon="3.736524">
<ele>240.3</ele>
<time>2013-05-08T04:52:02.999Z</time>
</trkpt>
<trkpt lat="43.789429" lon="3.73646">
<ele>240.1</ele>
<time>2013-05-08T04:52:03.999Z</time>
</trkpt>
<trkpt lat="43.789345" lon="3.736449">
<ele>240.2</ele>
<time>2013-05-08T04:52:04.999Z</time>
</trkpt>
<trkpt lat="43.78926" lon="3.736475">
<ele>240.2</ele>
<time>2013-05-08T04:52:05.999Z</time>
</trkpt>
<trkpt lat="43.789186" lon="3.736499">
<ele>240.3</ele>
<time>2013-05-08T04:52:06.999Z</time>
</trkpt>
<trkpt lat="43.789123" lon="3.73652">
<ele>240.5</ele>
<time>2013-05-08T04:52:07.999Z</time>
</trkpt>
<trkpt lat="43.789068" lon="3.736534">
<ele>240.3</ele>
<time>2013-05-08T04:52:08.999Z</time>
</trkpt>
<trkpt lat="43.78902" lon="3.736544">
<ele>240</ele>
<time>2013-05-08T04:52:09.999Z</time>
</trkpt>
<trkpt lat="43.788966" lon="3.736552">
<ele>239.3</ele>
<time>2013-05-08T04:52:10.999Z</time>
</trkpt>
<trkpt lat="43.788917" lon="3.736555">
<ele>238.7</ele>
<time>2013-05-08T04:52:11.999Z</time>
</trkpt>
<trkpt lat="43.788877" lon="3.736554">
<ele>238.3</ele>
<time>2013-05-08T04:52:12.999Z</time>
</trkpt>
<trkpt lat="43.78883" lon="3.736555">
<ele>238.3</ele>
<time>2013-05-08T04:52:13.999Z</time>
</trkpt>
<trkpt lat="43.788761" lon="3.73655">
<ele>238.2</ele>
<time>2013-05-08T04:52:14.999Z</time>
</trkpt>
<trkpt lat="43.78865" lon="3.736528">
<ele>238.3</ele>
<time>2013-05-08T04:52:15.999Z</time>
</trkpt>
<trkpt lat="43.788508" lon="3.736503">
<ele>238.5</ele>
<time>2013-05-08T04:52:16.999Z</time>
</trkpt>
<trkpt lat="43.788348" lon="3.736467">
<ele>238.7</ele>
<time>2013-05-08T04:52:17.999Z</time>
</trkpt>
<trkpt lat="43.788167" lon="3.736422">
<ele>238.7</ele>
<time>2013-05-08T04:52:18.999Z</time>
</trkpt>
<trkpt lat="43.787969" lon="3.736368">
<ele>238.8</ele>
<time>2013-05-08T04:52:19.999Z</time>
</trkpt>
<trkpt lat="43.787756" lon="3.73631">
<ele>238.9</ele>
<time>2013-05-08T04:52:20.999Z</time>
</trkpt>
<trkpt lat="43.787543" lon="3.736245">
<ele>238.9</ele>
<time>2013-05-08T04:52:21.999Z</time>
</trkpt>
<trkpt lat="43.787312" lon="3.736186">
<ele>238.8</ele>
<time>2013-05-08T04:52:22.999Z</time>
</trkpt>
<trkpt lat="43.787067" lon="3.736141">
<ele>238.9</ele>
<time>2013-05-08T04:52:23.999Z</time>
</trkpt>
<trkpt lat="43.786808" lon="3.736118">
<ele>239.4</ele>
<time>2013-05-08T04:52:24.999Z</time>
</trkpt>
<trkpt lat="43.786545" lon="3.736123">
<ele>240.2</ele>
<time>2013-05-08T04:52:25.999Z</time>
</trkpt>
<trkpt lat="43.786275" lon="3.736153">
<ele>241</ele>
<time>2013-05-08T04:52:26.999Z</time>
</trkpt>
<trkpt lat="43.786004" lon="3.736192">
<ele>241.8</ele>
<time>2013-05-08T04:52:27.999Z</time>
</trkpt>
<trkpt lat="43.785736" lon="3.736252">
<ele>242.5</ele>
<time>2013-05-08T04:52:28.999Z</time>
</trkpt>
<trkpt lat="43.785461" lon="3.736345">
<ele>243.3</ele>
<time>2013-05-08T04:52:29.999Z</time>
</trkpt>
<trkpt lat="43.785194" lon="3.736456">
<ele>244</ele>
<time>2013-05-08T04:52:30.999Z</time>
</trkpt>
<trkpt lat="43.784935" lon="3.73656">
<ele>244.9</ele>
<time>2013-05-08T04:52:31.999Z</time>
</trkpt>
<trkpt lat="43.784694" lon="3.736672">
<ele>245.9</ele>
<time>2013-05-08T04:52:32.999Z</time>
</trkpt>
<trkpt lat="43.784474" lon="3.736748">
<ele>247</ele>
<time>2013-05-08T04:52:33.999Z</time>
</trkpt>
<trkpt lat="43.784264" lon="3.736794">
<ele>247.7</ele>
<time>2013-05-08T04:52:34.999Z</time>
</trkpt>
<trkpt lat="43.784058" lon="3.736793">
<ele>248.2</ele>
<time>2013-05-08T04:52:35.999Z</time>
</trkpt>
<trkpt lat="43.783882" lon="3.73674">
<ele>248.7</ele>
<time>2013-05-08T04:52:36.999Z</time>
</trkpt>
<trkpt lat="43.78373" lon="3.736644">
<ele>249.2</ele>
<time>2013-05-08T04:52:37.999Z</time>
</trkpt>
<trkpt lat="43.783603" lon="3.736532">
<ele>249.7</ele>
<time>2013-05-08T04:52:38.999Z</time>
</trkpt>
<trkpt lat="43.783507" lon="3.736411">
<ele>250.3</ele>
<time>2013-05-08T04:52:39.999Z</time>
</trkpt>
<trkpt lat="43.783441" lon="3.736262">
<ele>250.8</ele>
<time>2013-05-08T04:52:40.999Z</time>
</trkpt>
<trkpt lat="43.783422" lon="3.736097">
<ele>251.2</ele>
<time>2013-05-08T04:52:41.999Z</time>
</trkpt>
<trkpt lat="43.783403" lon="3.735939">
<ele>251.4</ele>
<time>2013-05-08T04:52:42.999Z</time>
</trkpt>
<trkpt lat="43.783345" lon="3.735818">
<ele>250.9</ele>
<time>2013-05-08T04:52:43.999Z</time>
</trkpt>
<trkpt lat="43.783252" lon="3.735766">
<ele>250.9</ele>
<time>2013-05-08T04:52:44.999Z</time>
</trkpt>
<trkpt lat="43.783148" lon="3.735751">
<ele>251.3</ele>
<time>2013-05-08T04:52:45.999Z</time>
</trkpt>
<trkpt lat="43.783029" lon="3.735794">
<ele>251.5</ele>
<time>2013-05-08T04:52:46.999Z</time>
</trkpt>
<trkpt lat="43.782891" lon="3.735932">
<ele>251.1</ele>
<time>2013-05-08T04:52:47.999Z</time>
</trkpt>
<trkpt lat="43.782729" lon="3.736104">
<ele>250.8</ele>
<time>2013-05-08T04:52:48.999Z</time>
</trkpt>
<trkpt lat="43.782544" lon="3.736189">
<ele>250.7</ele>
<time>2013-05-08T04:52:49.999Z</time>
</trkpt>
<trkpt lat="43.782339" lon="3.736264">
<ele>250.9</ele>
<time>2013-05-08T04:52:50.999Z</time>
</trkpt>
<trkpt lat="43.782099" lon="3.736351">
<ele>251.2</ele>
<time>2013-05-08T04:52:51.999Z</time>
</trkpt>
<trkpt lat="43.781876" lon="3.736445">
<ele>251.9</ele>
<time>2013-05-08T04:52:52.999Z</time>
</trkpt>
<trkpt lat="43.781641" lon="3.73656">
<ele>252.7</ele>
<time>2013-05-08T04:52:53.999Z</time>
</trkpt>
<trkpt lat="43.781389" lon="3.7367">
<ele>253.5</ele>
<time>2013-05-08T04:52:54.999Z</time>
</trkpt>
<trkpt lat="43.781129" lon="3.736849">
<ele>254.4</ele>
<time>2013-05-08T04:52:55.999Z</time>
</trkpt>
<trkpt lat="43.780855" lon="3.737017">
<ele>255.3</ele>
<time>2013-05-08T04:52:56.999Z</time>
</trkpt>
<trkpt lat="43.780581" lon="3.737184">
<ele>256.2</ele>
<time>2013-05-08T04:52:57.999Z</time>
</trkpt>
<trkpt lat="43.780313" lon="3.737344">
<ele>257</ele>
<time>2013-05-08T04:52:58.999Z</time>
</trkpt>
<trkpt lat="43.780035" lon="3.737522">
<ele>257.5</ele>
<time>2013-05-08T04:52:59.999Z</time>
</trkpt>
<trkpt lat="43.779755" lon="3.737715">
<ele>258.1</ele>
<time>2013-05-08T04:53:00.999Z</time>
</trkpt>
<trkpt lat="43.779472" lon="3.737916">
<ele>258.8</ele>
<time>2013-05-08T04:53:01.999Z</time>
</trkpt>
<trkpt lat="43.779212" lon="3.73813">
<ele>259.5</ele>
<time>2013-05-08T04:53:02.999Z</time>
</trkpt>
<trkpt lat="43.778998" lon="3.738412">
<ele>260.2</ele>
<time>2013-05-08T04:53:03.999Z</time>
</trkpt>
<trkpt lat="43.778802" lon="3.738728">
<ele>261</ele>
<time>2013-05-08T04:53:04.999Z</time>
</trkpt>
<trkpt lat="43.778606" lon="3.739046">
<ele>262</ele>
<time>2013-05-08T04:53:05.999Z</time>
</trkpt>
<trkpt lat="43.778391" lon="3.739376">
<ele>262.9</ele>
<time>2013-05-08T04:53:06.999Z</time>
</trkpt>
<trkpt lat="43.778148" lon="3.739689">
<ele>264.3</ele>
<time>2013-05-08T04:53:07.999Z</time>
</trkpt>
<trkpt lat="43.777907" lon="3.73999">
<ele>265.7</ele>
<time>2013-05-08T04:53:08.999Z</time>
</trkpt>
<trkpt lat="43.777678" lon="3.740312">
<ele>267.1</ele>
<time>2013-05-08T04:53:09.999Z</time>
</trkpt>
<trkpt lat="43.777457" lon="3.740636">
<ele>268.7</ele>
<time>2013-05-08T04:53:10.999Z</time>
</trkpt>
<trkpt lat="43.777228" lon="3.74097">
<ele>270.4</ele>
<time>2013-05-08T04:53:11.999Z</time>
</trkpt>
<trkpt lat="43.776953" lon="3.741246">
<ele>272.6</ele>
<time>2013-05-08T04:53:12.999Z</time>
</trkpt>
<trkpt lat="43.77666" lon="3.741511">
<ele>275.2</ele>
<time>2013-05-08T04:53:13.999Z</time>
</trkpt>
<trkpt lat="43.77637" lon="3.741706">
<ele>277.6</ele>
<time>2013-05-08T04:53:14.999Z</time>
</trkpt>
<trkpt lat="43.776063" lon="3.741889">
<ele>279.3</ele>
<time>2013-05-08T04:53:15.999Z</time>
</trkpt>
<trkpt lat="43.775759" lon="3.742085">
<ele>280.3</ele>
<time>2013-05-08T04:53:16.999Z</time>
</trkpt>
<trkpt lat="43.775463" lon="3.742311">
<ele>281.3</ele>
<time>2013-05-08T04:53:17.999Z</time>
</trkpt>
<trkpt lat="43.775169" lon="3.742563">
<ele>282.3</ele>
<time>2013-05-08T04:53:18.999Z</time>
</trkpt>
<trkpt lat="43.774908" lon="3.742846">
<ele>283.9</ele>
<time>2013-05-08T04:53:19.999Z</time>
</trkpt>
<trkpt lat="43.77467" lon="3.74316">
<ele>285.6</ele>
<time>2013-05-08T04:53:20.999Z</time>
</trkpt>
<trkpt lat="43.77446" lon="3.743511">
<ele>287.6</ele>
<time>2013-05-08T04:53:21.999Z</time>
</trkpt>
<trkpt lat="43.774254" lon="3.743863">
<ele>289.7</ele>
<time>2013-05-08T04:53:22.999Z</time>
</trkpt>
<trkpt lat="43.774032" lon="3.744181">
<ele>291.6</ele>
<time>2013-05-08T04:53:23.999Z</time>
</trkpt>
<trkpt lat="43.773787" lon="3.744488">
<ele>293.6</ele>
<time>2013-05-08T04:53:24.999Z</time>
</trkpt>
<trkpt lat="43.7735" lon="3.744752">
<ele>295.8</ele>
<time>2013-05-08T04:53:25.999Z</time>
</trkpt>
<trkpt lat="43.773203" lon="3.74499">
<ele>298.1</ele>
<time>2013-05-08T04:53:26.999Z</time>
</trkpt>
<trkpt lat="43.772905" lon="3.745228">
<ele>300.4</ele>
<time>2013-05-08T04:53:27.999Z</time>
</trkpt>
<trkpt lat="43.772606" lon="3.745458">
<ele>302.7</ele>
<time>2013-05-08T04:53:28.999Z</time>
</trkpt>
<trkpt lat="43.772316" lon="3.745672">
<ele>305.3</ele>
<time>2013-05-08T04:53:29.999Z</time>
</trkpt>
<trkpt lat="43.772012" lon="3.745855">
<ele>307.5</ele>
<time>2013-05-08T04:53:30.999Z</time>
</trkpt>
<trkpt lat="43.771698" lon="3.746001">
<ele>309.5</ele>
<time>2013-05-08T04:53:31.999Z</time>
</trkpt>
<trkpt lat="43.77137" lon="3.746099">
<ele>311.2</ele>
<time>2013-05-08T04:53:32.999Z</time>
</trkpt>
<trkpt lat="43.77105" lon="3.746179">
<ele>312.8</ele>
<time>2013-05-08T04:53:33.999Z</time>
</trkpt>
<trkpt lat="43.770696" lon="3.746228">
<ele>314.2</ele>
<time>2013-05-08T04:53:34.999Z</time>
</trkpt>
<trkpt lat="43.770339" lon="3.746238">
<ele>315.4</ele>
<time>2013-05-08T04:53:35.999Z</time>
</trkpt>
<trkpt lat="43.769981" lon="3.7462">
<ele>316.4</ele>
<time>2013-05-08T04:53:36.999Z</time>
</trkpt>
<trkpt lat="43.769622" lon="3.746113">
<ele>317.4</ele>
<time>2013-05-08T04:53:37.999Z</time>
</trkpt>
<trkpt lat="43.769265" lon="3.746011">
<ele>318.1</ele>
<time>2013-05-08T04:53:38.999Z</time>
</trkpt>
<trkpt lat="43.768905" lon="3.745909">
<ele>318.4</ele>
<time>2013-05-08T04:53:39.999Z</time>
</trkpt>
<trkpt lat="43.768553" lon="3.745808">
<ele>318.6</ele>
<time>2013-05-08T04:53:40.999Z</time>
</trkpt>
<trkpt lat="43.768212" lon="3.745713">
<ele>318.7</ele>
<time>2013-05-08T04:53:41.999Z</time>
</trkpt>
<trkpt lat="43.767883" lon="3.745624">
<ele>318.7</ele>
<time>2013-05-08T04:53:42.999Z</time>
</trkpt>
<trkpt lat="43.767559" lon="3.745545">
<ele>318.6</ele>
<time>2013-05-08T04:53:43.999Z</time>
</trkpt>
<trkpt lat="43.767236" lon="3.745497">
<ele>318.2</ele>
<time>2013-05-08T04:53:44.999Z</time>
</trkpt>
<trkpt lat="43.766914" lon="3.745482">
<ele>317.7</ele>
<time>2013-05-08T04:53:45.999Z</time>
</trkpt>
<trkpt lat="43.766603" lon="3.745495">
<ele>317.3</ele>
<time>2013-05-08T04:53:46.999Z</time>
</trkpt>
<trkpt lat="43.766296" lon="3.745528">
<ele>317.3</ele>
<time>2013-05-08T04:53:47.999Z</time>
</trkpt>
<trkpt lat="43.76601" lon="3.745563">
<ele>317.1</ele>
<time>2013-05-08T04:53:48.999Z</time>
</trkpt>
<trkpt lat="43.765739" lon="3.745625">
<ele>316.7</ele>
<time>2013-05-08T04:53:49.999Z</time>
</trkpt>
<trkpt lat="43.765465" lon="3.745722">
<ele>316.2</ele>
<time>2013-05-08T04:53:50.999Z</time>
</trkpt>
<trkpt lat="43.765173" lon="3.745847">
<ele>315.4</ele>
<time>2013-05-08T04:53:51.999Z</time>
</trkpt>
<trkpt lat="43.764875" lon="3.745992">
<ele>314.4</ele>
<time>2013-05-08T04:53:52.999Z</time>
</trkpt>
<trkpt lat="43.764563" lon="3.746151">
<ele>313.6</ele>
<time>2013-05-08T04:53:53.999Z</time>
</trkpt>
<trkpt lat="43.764247" lon="3.74633">
<ele>312.2</ele>
<time>2013-05-08T04:53:54.999Z</time>
</trkpt>
<trkpt lat="43.763918" lon="3.746503">
<ele>311</ele>
<time>2013-05-08T04:53:55.999Z</time>
</trkpt>
<trkpt lat="43.763586" lon="3.746677">
<ele>309.7</ele>
<time>2013-05-08T04:53:56.999Z</time>
</trkpt>
<trkpt lat="43.763262" lon="3.746849">
<ele>308.5</ele>
<time>2013-05-08T04:53:57.999Z</time>
</trkpt>
<trkpt lat="43.762934" lon="3.747019">
<ele>307.1</ele>
<time>2013-05-08T04:53:58.999Z</time>
</trkpt>
<trkpt lat="43.762614" lon="3.747187">
<ele>306</ele>
<time>2013-05-08T04:53:59.999Z</time>
</trkpt>
<trkpt lat="43.762298" lon="3.747353">
<ele>304.7</ele>
<time>2013-05-08T04:54:00.999Z</time>
</trkpt>
<trkpt lat="43.761987" lon="3.747513">
<ele>303.5</ele>
<time>2013-05-08T04:54:01.999Z</time>
</trkpt>
<trkpt lat="43.761682" lon="3.74768">
<ele>302.4</ele>
<time>2013-05-08T04:54:02.999Z</time>
</trkpt>
<trkpt lat="43.761381" lon="3.747853">
<ele>301.3</ele>
<time>2013-05-08T04:54:03.999Z</time>
</trkpt>
<trkpt lat="43.761084" lon="3.748048">
<ele>300.2</ele>
<time>2013-05-08T04:54:04.999Z</time>
</trkpt>
<trkpt lat="43.760794" lon="3.748284">
<ele>299.4</ele>
<time>2013-05-08T04:54:05.999Z</time>
</trkpt>
<trkpt lat="43.760516" lon="3.748535">
<ele>298.8</ele>
<time>2013-05-08T04:54:06.999Z</time>
</trkpt>
<trkpt lat="43.760243" lon="3.748789">
<ele>298.2</ele>
<time>2013-05-08T04:54:07.999Z</time>
</trkpt>
<trkpt lat="43.759978" lon="3.749048">
<ele>297.8</ele>
<time>2013-05-08T04:54:08.999Z</time>
</trkpt>
<trkpt lat="43.759741" lon="3.749304">
<ele>297.5</ele>
<time>2013-05-08T04:54:09.999Z</time>
</trkpt>
<trkpt lat="43.759509" lon="3.749534">
<ele>297</ele>
<time>2013-05-08T04:54:10.999Z</time>
</trkpt>
<trkpt lat="43.759287" lon="3.749754">
<ele>296.2</ele>
<time>2013-05-08T04:54:11.999Z</time>
</trkpt>
<trkpt lat="43.759077" lon="3.749971">
<ele>295.7</ele>
<time>2013-05-08T04:54:12.999Z</time>
</trkpt>
<trkpt lat="43.758882" lon="3.750172">
<ele>295.3</ele>
<time>2013-05-08T04:54:13.999Z</time>
</trkpt>
<trkpt lat="43.758693" lon="3.750365">
<ele>294.9</ele>
<time>2013-05-08T04:54:14.999Z</time>
</trkpt>
<trkpt lat="43.758517" lon="3.750537">
<ele>294.3</ele>
<time>2013-05-08T04:54:15.999Z</time>
</trkpt>
<trkpt lat="43.758352" lon="3.750691">
<ele>293.7</ele>
<time>2013-05-08T04:54:16.999Z</time>
</trkpt>
<trkpt lat="43.758191" lon="3.750824">
<ele>292.9</ele>
<time>2013-05-08T04:54:17.999Z</time>
</trkpt>
<trkpt lat="43.758045" lon="3.750887">
<ele>292</ele>
<time>2013-05-08T04:54:18.999Z</time>
</trkpt>
<trkpt lat="43.757909" lon="3.750921">
<ele>291.1</ele>
<time>2013-05-08T04:54:19.999Z</time>
</trkpt>
<trkpt lat="43.757801" lon="3.750948">
<ele>290.6</ele>
<time>2013-05-08T04:54:20.999Z</time>
</trkpt>
<trkpt lat="43.757697" lon="3.751051">
<ele>289.8</ele>
<time>2013-05-08T04:54:21.999Z</time>
</trkpt>
<trkpt lat="43.757608" lon="3.751225">
<ele>289.7</ele>
<time>2013-05-08T04:54:22.999Z</time>
</trkpt>
<trkpt lat="43.757514" lon="3.751408">
<ele>290.1</ele>
<time>2013-05-08T04:54:23.999Z</time>
</trkpt>
<trkpt lat="43.757384" lon="3.75162">
<ele>290.3</ele>
<time>2013-05-08T04:54:24.999Z</time>
</trkpt>
<trkpt lat="43.757213" lon="3.75186">
<ele>290.7</ele>
<time>2013-05-08T04:54:25.999Z</time>
</trkpt>
<trkpt lat="43.757007" lon="3.752105">
<ele>291</ele>
<time>2013-05-08T04:54:26.999Z</time>
</trkpt>
<trkpt lat="43.756771" lon="3.752323">
<ele>290.6</ele>
<time>2013-05-08T04:54:27.999Z</time>
</trkpt>
<trkpt lat="43.756525" lon="3.752541">
<ele>290</ele>
<time>2013-05-08T04:54:28.999Z</time>
</trkpt>
<trkpt lat="43.756282" lon="3.752773">
<ele>289.1</ele>
<time>2013-05-08T04:54:29.999Z</time>
</trkpt>
<trkpt lat="43.756024" lon="3.753011">
<ele>288</ele>
<time>2013-05-08T04:54:30.999Z</time>
</trkpt>
<trkpt lat="43.755762" lon="3.753263">
<ele>286.8</ele>
<time>2013-05-08T04:54:31.999Z</time>
</trkpt>
<trkpt lat="43.755489" lon="3.753517">
<ele>285.7</ele>
<time>2013-05-08T04:54:32.999Z</time>
</trkpt>
<trkpt lat="43.75522" lon="3.753776">
<ele>284.7</ele>
<time>2013-05-08T04:54:33.999Z</time>
</trkpt>
<trkpt lat="43.754953" lon="3.754043">
<ele>283.6</ele>
<time>2013-05-08T04:54:34.999Z</time>
</trkpt>
<trkpt lat="43.754681" lon="3.754314">
<ele>282.7</ele>
<time>2013-05-08T04:54:35.999Z</time>
</trkpt>
<trkpt lat="43.754401" lon="3.754579">
<ele>281.9</ele>
<time>2013-05-08T04:54:36.999Z</time>
</trkpt>
<trkpt lat="43.754115" lon="3.754843">
<ele>281.3</ele>
<time>2013-05-08T04:54:37.999Z</time>
</trkpt>
<trkpt lat="43.753835" lon="3.755113">
<ele>281.1</ele>
<time>2013-05-08T04:54:38.999Z</time>
</trkpt>
<trkpt lat="43.753545" lon="3.755381">
<ele>281.2</ele>
<time>2013-05-08T04:54:39.999Z</time>
</trkpt>
<trkpt lat="43.753262" lon="3.755652">
<ele>281.1</ele>
<time>2013-05-08T04:54:40.999Z</time>
</trkpt>
<trkpt lat="43.75298" lon="3.755924">
<ele>281</ele>
<time>2013-05-08T04:54:41.999Z</time>
</trkpt>
<trkpt lat="43.752696" lon="3.756197">
<ele>280.8</ele>
<time>2013-05-08T04:54:42.999Z</time>
</trkpt>
<trkpt lat="43.752408" lon="3.756468">
<ele>280.7</ele>
<time>2013-05-08T04:54:43.999Z</time>
</trkpt>
<trkpt lat="43.752121" lon="3.756741">
<ele>280.2</ele>
<time>2013-05-08T04:54:44.999Z</time>
</trkpt>
<trkpt lat="43.751833" lon="3.757023">
<ele>279.9</ele>
<time>2013-05-08T04:54:45.999Z</time>
</trkpt>
<trkpt lat="43.751549" lon="3.757298">
<ele>279.4</ele>
<time>2013-05-08T04:54:46.999Z</time>
</trkpt>
<trkpt lat="43.751262" lon="3.757578">
<ele>279</ele>
<time>2013-05-08T04:54:47.999Z</time>
</trkpt>
<trkpt lat="43.750979" lon="3.757852">
<ele>278.7</ele>
<time>2013-05-08T04:54:48.999Z</time>
</trkpt>
<trkpt lat="43.750697" lon="3.758124">
<ele>278.5</ele>
<time>2013-05-08T04:54:49.999Z</time>
</trkpt>
<trkpt lat="43.750413" lon="3.758401">
<ele>278.3</ele>
<time>2013-05-08T04:54:50.999Z</time>
</trkpt>
<trkpt lat="43.750124" lon="3.758688">
<ele>278.1</ele>
<time>2013-05-08T04:54:51.999Z</time>
</trkpt>
<trkpt lat="43.749837" lon="3.758967">
<ele>277.8</ele>
<time>2013-05-08T04:54:52.999Z</time>
</trkpt>
<trkpt lat="43.749552" lon="3.759249">
<ele>277.7</ele>
<time>2013-05-08T04:54:53.999Z</time>
</trkpt>
<trkpt lat="43.749277" lon="3.759541">
<ele>277.6</ele>
<time>2013-05-08T04:54:54.999Z</time>
</trkpt>
<trkpt lat="43.749003" lon="3.759833">
<ele>277.4</ele>
<time>2013-05-08T04:54:55.999Z</time>
</trkpt>
<trkpt lat="43.748727" lon="3.760136">
<ele>277.2</ele>
<time>2013-05-08T04:54:56.999Z</time>
</trkpt>
<trkpt lat="43.74845" lon="3.760431">
<ele>277.1</ele>
<time>2013-05-08T04:54:57.999Z</time>
</trkpt>
<trkpt lat="43.748165" lon="3.760725">
<ele>277.2</ele>
<time>2013-05-08T04:54:58.999Z</time>
</trkpt>
<trkpt lat="43.747887" lon="3.761017">
<ele>277.5</ele>
<time>2013-05-08T04:54:59.999Z</time>
</trkpt>
<trkpt lat="43.747612" lon="3.761303">
<ele>277.6</ele>
<time>2013-05-08T04:55:00.999Z</time>
</trkpt>
<trkpt lat="43.747335" lon="3.761583">
<ele>277.8</ele>
<time>2013-05-08T04:55:01.999Z</time>
</trkpt>
<trkpt lat="43.747056" lon="3.761863">
<ele>278</ele>
<time>2013-05-08T04:55:02.999Z</time>
</trkpt>
<trkpt lat="43.746774" lon="3.762142">
<ele>277.9</ele>
<time>2013-05-08T04:55:03.999Z</time>
</trkpt>
<trkpt lat="43.746501" lon="3.762429">
<ele>278</ele>
<time>2013-05-08T04:55:04.999Z</time>
</trkpt>
<trkpt lat="43.746243" lon="3.762735">
<ele>278.1</ele>
<time>2013-05-08T04:55:05.999Z</time>
</trkpt>
<trkpt lat="43.745996" lon="3.763049">
<ele>277.6</ele>
<time>2013-05-08T04:55:06.999Z</time>
</trkpt>
<trkpt lat="43.745755" lon="3.763384">
<ele>276.9</ele>
<time>2013-05-08T04:55:07.999Z</time>
</trkpt>
<trkpt lat="43.745526" lon="3.763725">
<ele>276.2</ele>
<time>2013-05-08T04:55:08.999Z</time>
</trkpt>
<trkpt lat="43.745308" lon="3.764083">
<ele>275.7</ele>
<time>2013-05-08T04:55:09.999Z</time>
</trkpt>
<trkpt lat="43.74509" lon="3.764459">
<ele>275.1</ele>
<time>2013-05-08T04:55:10.999Z</time>
</trkpt>
<trkpt lat="43.74488" lon="3.764817">
<ele>274.6</ele>
<time>2013-05-08T04:55:11.999Z</time>
</trkpt>
<trkpt lat="43.74467" lon="3.765176">
<ele>274.2</ele>
<time>2013-05-08T04:55:12.999Z</time>
</trkpt>
<trkpt lat="43.744464" lon="3.765552">
<ele>273.8</ele>
<time>2013-05-08T04:55:13.999Z</time>
</trkpt>
<trkpt lat="43.744255" lon="3.765946">
<ele>273.7</ele>
<time>2013-05-08T04:55:14.999Z</time>
</trkpt>
<trkpt lat="43.74405" lon="3.766324">
<ele>274</ele>
<time>2013-05-08T04:55:15.999Z</time>
</trkpt>
<trkpt lat="43.743846" lon="3.766695">
<ele>274.6</ele>
<time>2013-05-08T04:55:16.999Z</time>
</trkpt>
<trkpt lat="43.743642" lon="3.767062">
<ele>275.3</ele>
<time>2013-05-08T04:55:17.999Z</time>
</trkpt>
<trkpt lat="43.74344" lon="3.767428">
<ele>276</ele>
<time>2013-05-08T04:55:18.999Z</time>
</trkpt>
<trkpt lat="43.743236" lon="3.767795">
<ele>276.7</ele>
<time>2013-05-08T04:55:19.999Z</time>
</trkpt>
<trkpt lat="43.743032" lon="3.768165">
<ele>277.4</ele>
<time>2013-05-08T04:55:20.999Z</time>
</trkpt>
<trkpt lat="43.742827" lon="3.768531">
<ele>277.8</ele>
<time>2013-05-08T04:55:21.999Z</time>
</trkpt>
<trkpt lat="43.742633" lon="3.768897">
<ele>278.2</ele>
<time>2013-05-08T04:55:22.999Z</time>
</trkpt>
<trkpt lat="43.742455" lon="3.769271">
<ele>278.6</ele>
<time>2013-05-08T04:55:23.999Z</time>
</trkpt>
<trkpt lat="43.742289" lon="3.76966">
<ele>278.8</ele>
<time>2013-05-08T04:55:24.999Z</time>
</trkpt>
<trkpt lat="43.742146" lon="3.770063">
<ele>278.9</ele>
<time>2013-05-08T04:55:25.999Z</time>
</trkpt>
<trkpt lat="43.742004" lon="3.770473">
<ele>278.7</ele>
<time>2013-05-08T04:55:26.999Z</time>
</trkpt>
<trkpt lat="43.741863" lon="3.77089">
<ele>278.6</ele>
<time>2013-05-08T04:55:27.999Z</time>
</trkpt>
<trkpt lat="43.741722" lon="3.771304">
<ele>278.6</ele>
<time>2013-05-08T04:55:28.999Z</time>
</trkpt>
<trkpt lat="43.741578" lon="3.771719">
<ele>278.5</ele>
<time>2013-05-08T04:55:29.999Z</time>
</trkpt>
<trkpt lat="43.741432" lon="3.772134">
<ele>278.5</ele>
<time>2013-05-08T04:55:30.999Z</time>
</trkpt>
<trkpt lat="43.741286" lon="3.772542">
<ele>278.3</ele>
<time>2013-05-08T04:55:31.999Z</time>
</trkpt>
<trkpt lat="43.741139" lon="3.77295">
<ele>278.2</ele>
<time>2013-05-08T04:55:32.999Z</time>
</trkpt>
<trkpt lat="43.740993" lon="3.773358">
<ele>278</ele>
<time>2013-05-08T04:55:33.999Z</time>
</trkpt>
<trkpt lat="43.740846" lon="3.773773">
<ele>278.1</ele>
<time>2013-05-08T04:55:34.999Z</time>
</trkpt>
<trkpt lat="43.740701" lon="3.774184">
<ele>278.2</ele>
<time>2013-05-08T04:55:35.999Z</time>
</trkpt>
<trkpt lat="43.740557" lon="3.774587">
<ele>278.4</ele>
<time>2013-05-08T04:55:36.999Z</time>
</trkpt>
<trkpt lat="43.74041" lon="3.774989">
<ele>278.7</ele>
<time>2013-05-08T04:55:37.999Z</time>
</trkpt>
<trkpt lat="43.740262" lon="3.775388">
<ele>278.8</ele>
<time>2013-05-08T04:55:38.999Z</time>
</trkpt>
<trkpt lat="43.740117" lon="3.77578">
<ele>279.2</ele>
<time>2013-05-08T04:55:39.999Z</time>
</trkpt>
<trkpt lat="43.739993" lon="3.776161">
<ele>279.9</ele>
<time>2013-05-08T04:55:40.999Z</time>
</trkpt>
<trkpt lat="43.739882" lon="3.776542">
<ele>280.6</ele>
<time>2013-05-08T04:55:41.999Z</time>
</trkpt>
<trkpt lat="43.739823" lon="3.776945">
<ele>280.8</ele>
<time>2013-05-08T04:55:42.999Z</time>
</trkpt>
<trkpt lat="43.739802" lon="3.777377">
<ele>281.2</ele>
<time>2013-05-08T04:55:43.999Z</time>
</trkpt>
<trkpt lat="43.739804" lon="3.77784">
<ele>282</ele>
<time>2013-05-08T04:55:44.999Z</time>
</trkpt>
<trkpt lat="43.739829" lon="3.778305">
<ele>282.4</ele>
<time>2013-05-08T04:55:45.999Z</time>
</trkpt>
<trkpt lat="43.739858" lon="3.778781">
<ele>282.5</ele>
<time>2013-05-08T04:55:46.999Z</time>
</trkpt>
<trkpt lat="43.739882" lon="3.779262">
<ele>282.4</ele>
<time>2013-05-08T04:55:47.999Z</time>
</trkpt>
<trkpt lat="43.739905" lon="3.779749">
<ele>282.1</ele>
<time>2013-05-08T04:55:48.999Z</time>
</trkpt>
<trkpt lat="43.739921" lon="3.78023">
<ele>281.2</ele>
<time>2013-05-08T04:55:49.999Z</time>
</trkpt>
<trkpt lat="43.739934" lon="3.7807">
<ele>280.4</ele>
<time>2013-05-08T04:55:50.999Z</time>
</trkpt>
<trkpt lat="43.739953" lon="3.781155">
<ele>279.4</ele>
<time>2013-05-08T04:55:51.999Z</time>
</trkpt>
<trkpt lat="43.739969" lon="3.781611">
<ele>278.3</ele>
<time>2013-05-08T04:55:52.999Z</time>
</trkpt>
<trkpt lat="43.739981" lon="3.782033">
<ele>277.1</ele>
<time>2013-05-08T04:55:53.999Z</time>
</trkpt>
<trkpt lat="43.739993" lon="3.782425">
<ele>276.1</ele>
<time>2013-05-08T04:55:54.999Z</time>
</trkpt>
<trkpt lat="43.740002" lon="3.782813">
<ele>275.2</ele>
<time>2013-05-08T04:55:55.999Z</time>
</trkpt>
<trkpt lat="43.740009" lon="3.783203">
<ele>274.2</ele>
<time>2013-05-08T04:55:56.999Z</time>
</trkpt>
<trkpt lat="43.740006" lon="3.7836">
<ele>273.5</ele>
<time>2013-05-08T04:55:57.999Z</time>
</trkpt>
<trkpt lat="43.739984" lon="3.783999">
<ele>273</ele>
<time>2013-05-08T04:55:58.999Z</time>
</trkpt>
<trkpt lat="43.739901" lon="3.784366">
<ele>272.9</ele>
<time>2013-05-08T04:55:59.999Z</time>
</trkpt>
<trkpt lat="43.739746" lon="3.784731">
<ele>272.7</ele>
<time>2013-05-08T04:56:00.999Z</time>
</trkpt>
<trkpt lat="43.739543" lon="3.785068">
<ele>271.8</ele>
<time>2013-05-08T04:56:01.999Z</time>
</trkpt>
<trkpt lat="43.739321" lon="3.785385">
<ele>270.8</ele>
<time>2013-05-08T04:56:02.999Z</time>
</trkpt>
<trkpt lat="43.739086" lon="3.785693">
<ele>269.7</ele>
<time>2013-05-08T04:56:03.999Z</time>
</trkpt>
<trkpt lat="43.738838" lon="3.786012">
<ele>268.3</ele>
<time>2013-05-08T04:56:04.999Z</time>
</trkpt>
<trkpt lat="43.738581" lon="3.786332">
<ele>266.8</ele>
<time>2013-05-08T04:56:05.999Z</time>
</trkpt>
<trkpt lat="43.738306" lon="3.786642">
<ele>265.5</ele>
<time>2013-05-08T04:56:06.999Z</time>
</trkpt>
<trkpt lat="43.738025" lon="3.786956">
<ele>264</ele>
<time>2013-05-08T04:56:07.999Z</time>
</trkpt>
<trkpt lat="43.737743" lon="3.787258">
<ele>262.4</ele>
<time>2013-05-08T04:56:08.999Z</time>
</trkpt>
<trkpt lat="43.737453" lon="3.787565">
<ele>260.5</ele>
<time>2013-05-08T04:56:09.999Z</time>
</trkpt>
<trkpt lat="43.737171" lon="3.787877">
<ele>259.1</ele>
<time>2013-05-08T04:56:10.999Z</time>
</trkpt>
<trkpt lat="43.736881" lon="3.788192">
<ele>258</ele>
<time>2013-05-08T04:56:11.999Z</time>
</trkpt>
<trkpt lat="43.736597" lon="3.788503">
<ele>256.9</ele>
<time>2013-05-08T04:56:12.999Z</time>
</trkpt>
<trkpt lat="43.736317" lon="3.788812">
<ele>255.9</ele>
<time>2013-05-08T04:56:13.999Z</time>
</trkpt>
<trkpt lat="43.736038" lon="3.789126">
<ele>255.1</ele>
<time>2013-05-08T04:56:14.999Z</time>
</trkpt>
<trkpt lat="43.735758" lon="3.78943">
<ele>254.5</ele>
<time>2013-05-08T04:56:15.999Z</time>
</trkpt>
<trkpt lat="43.735481" lon="3.789742">
<ele>253.9</ele>
<time>2013-05-08T04:56:16.999Z</time>
</trkpt>
<trkpt lat="43.735209" lon="3.790074">
<ele>253.1</ele>
<time>2013-05-08T04:56:17.999Z</time>
</trkpt>
<trkpt lat="43.734933" lon="3.790416">
<ele>252.1</ele>
<time>2013-05-08T04:56:18.999Z</time>
</trkpt>
<trkpt lat="43.734661" lon="3.790757">
<ele>251</ele>
<time>2013-05-08T04:56:19.999Z</time>
</trkpt>
<trkpt lat="43.734384" lon="3.791098">
<ele>249.8</ele>
<time>2013-05-08T04:56:20.999Z</time>
</trkpt>
<trkpt lat="43.734103" lon="3.791441">
<ele>248.6</ele>
<time>2013-05-08T04:56:21.999Z</time>
</trkpt>
<trkpt lat="43.733822" lon="3.791788">
<ele>247.4</ele>
<time>2013-05-08T04:56:22.999Z</time>
</trkpt>
<trkpt lat="43.733544" lon="3.792137">
<ele>246</ele>
<time>2013-05-08T04:56:23.999Z</time>
</trkpt>
<trkpt lat="43.733271" lon="3.792482">
<ele>244.7</ele>
<time>2013-05-08T04:56:24.999Z</time>
</trkpt>
<trkpt lat="43.732997" lon="3.792838">
<ele>243.7</ele>
<time>2013-05-08T04:56:25.999Z</time>
</trkpt>
<trkpt lat="43.732732" lon="3.79318">
<ele>243.1</ele>
<time>2013-05-08T04:56:26.999Z</time>
</trkpt>
<trkpt lat="43.732471" lon="3.793512">
<ele>242.9</ele>
<time>2013-05-08T04:56:27.999Z</time>
</trkpt>
<trkpt lat="43.732204" lon="3.79383">
<ele>242.4</ele>
<time>2013-05-08T04:56:28.999Z</time>
</trkpt>
<trkpt lat="43.731939" lon="3.794117">
<ele>242.2</ele>
<time>2013-05-08T04:56:29.999Z</time>
</trkpt>
<trkpt lat="43.731675" lon="3.794378">
<ele>242.4</ele>
<time>2013-05-08T04:56:30.999Z</time>
</trkpt>
<trkpt lat="43.731386" lon="3.794602">
<ele>242.4</ele>
<time>2013-05-08T04:56:31.999Z</time>
</trkpt>
<trkpt lat="43.731098" lon="3.794821">
<ele>242.5</ele>
<time>2013-05-08T04:56:32.999Z</time>
</trkpt>
<trkpt lat="43.730798" lon="3.795033">
<ele>242.6</ele>
<time>2013-05-08T04:56:33.999Z</time>
</trkpt>
<trkpt lat="43.730503" lon="3.795238">
<ele>243</ele>
<time>2013-05-08T04:56:34.999Z</time>
</trkpt>
<trkpt lat="43.730229" lon="3.795427">
<ele>243.4</ele>
<time>2013-05-08T04:56:35.999Z</time>
</trkpt>
<trkpt lat="43.729959" lon="3.795591">
<ele>243.4</ele>
<time>2013-05-08T04:56:36.999Z</time>
</trkpt>
<trkpt lat="43.729707" lon="3.795693">
<ele>243.2</ele>
<time>2013-05-08T04:56:37.999Z</time>
</trkpt>
<trkpt lat="43.729449" lon="3.795751">
<ele>243.3</ele>
<time>2013-05-08T04:56:38.999Z</time>
</trkpt>
<trkpt lat="43.729174" lon="3.795757">
<ele>243.1</ele>
<time>2013-05-08T04:56:39.999Z</time>
</trkpt>
<trkpt lat="43.72888" lon="3.795716">
<ele>242.4</ele>
<time>2013-05-08T04:56:40.999Z</time>
</trkpt>
<trkpt lat="43.728578" lon="3.795651">
<ele>242</ele>
<time>2013-05-08T04:56:41.999Z</time>
</trkpt>
<trkpt lat="43.728267" lon="3.795557">
<ele>241.6</ele>
<time>2013-05-08T04:56:42.999Z</time>
</trkpt>
<trkpt lat="43.727954" lon="3.795475">
<ele>241.3</ele>
<time>2013-05-08T04:56:43.999Z</time>
</trkpt>
<trkpt lat="43.727647" lon="3.795374">
<ele>240.9</ele>
<time>2013-05-08T04:56:44.999Z</time>
</trkpt>
<trkpt lat="43.727353" lon="3.795236">
<ele>240.4</ele>
<time>2013-05-08T04:56:45.999Z</time>
</trkpt>
<trkpt lat="43.727054" lon="3.795049">
<ele>239.4</ele>
<time>2013-05-08T04:56:46.999Z</time>
</trkpt>
<trkpt lat="43.726777" lon="3.79486">
<ele>238.3</ele>
<time>2013-05-08T04:56:47.999Z</time>
</trkpt>
<trkpt lat="43.726504" lon="3.794688">
<ele>236.9</ele>
<time>2013-05-08T04:56:48.999Z</time>
</trkpt>
<trkpt lat="43.726234" lon="3.794551">
<ele>235.6</ele>
<time>2013-05-08T04:56:49.999Z</time>
</trkpt>
<trkpt lat="43.72595" lon="3.794452">
<ele>234.2</ele>
<time>2013-05-08T04:56:50.999Z</time>
</trkpt>
<trkpt lat="43.725658" lon="3.794419">
<ele>232.8</ele>
<time>2013-05-08T04:56:51.999Z</time>
</trkpt>
<trkpt lat="43.725354" lon="3.794472">
<ele>231.2</ele>
<time>2013-05-08T04:56:52.999Z</time>
</trkpt>
<trkpt lat="43.725041" lon="3.794545">
<ele>229.6</ele>
<time>2013-05-08T04:56:53.999Z</time>
</trkpt>
<trkpt lat="43.724728" lon="3.794649">
<ele>228.3</ele>
<time>2013-05-08T04:56:54.999Z</time>
</trkpt>
<trkpt lat="43.724419" lon="3.794735">
<ele>227.3</ele>
<time>2013-05-08T04:56:55.999Z</time>
</trkpt>
<trkpt lat="43.724113" lon="3.794828">
<ele>226.4</ele>
<time>2013-05-08T04:56:56.999Z</time>
</trkpt>
<trkpt lat="43.723808" lon="3.794913">
<ele>225.6</ele>
<time>2013-05-08T04:56:57.999Z</time>
</trkpt>
<trkpt lat="43.723503" lon="3.794991">
<ele>224.9</ele>
<time>2013-05-08T04:56:58.999Z</time>
</trkpt>
<trkpt lat="43.723189" lon="3.795051">
<ele>223.8</ele>
<time>2013-05-08T04:56:59.999Z</time>
</trkpt>
<trkpt lat="43.722869" lon="3.795062">
<ele>223</ele>
<time>2013-05-08T04:57:00.999Z</time>
</trkpt>
<trkpt lat="43.722543" lon="3.795037">
<ele>222.2</ele>
<time>2013-05-08T04:57:01.999Z</time>
</trkpt>
<trkpt lat="43.722217" lon="3.794988">
<ele>221</ele>
<time>2013-05-08T04:57:02.999Z</time>
</trkpt>
<trkpt lat="43.721882" lon="3.794931">
<ele>220</ele>
<time>2013-05-08T04:57:03.999Z</time>
</trkpt>
<trkpt lat="43.721544" lon="3.794878">
<ele>218.9</ele>
<time>2013-05-08T04:57:04.999Z</time>
</trkpt>
<trkpt lat="43.721201" lon="3.794828">
<ele>217.8</ele>
<time>2013-05-08T04:57:05.999Z</time>
</trkpt>
<trkpt lat="43.720857" lon="3.794777">
<ele>216.7</ele>
<time>2013-05-08T04:57:06.999Z</time>
</trkpt>
<trkpt lat="43.720514" lon="3.794719">
<ele>215.7</ele>
<time>2013-05-08T04:57:07.999Z</time>
</trkpt>
<trkpt lat="43.720167" lon="3.79466">
<ele>214.7</ele>
<time>2013-05-08T04:57:08.999Z</time>
</trkpt>
<trkpt lat="43.719823" lon="3.794608">
<ele>214.1</ele>
<time>2013-05-08T04:57:09.999Z</time>
</trkpt>
<trkpt lat="43.71948" lon="3.794558">
<ele>213.5</ele>
<time>2013-05-08T04:57:10.999Z</time>
</trkpt>
<trkpt lat="43.719141" lon="3.794511">
<ele>212.9</ele>
<time>2013-05-08T04:57:11.999Z</time>
</trkpt>
<trkpt lat="43.718804" lon="3.794461">
<ele>212.6</ele>
<time>2013-05-08T04:57:12.999Z</time>
</trkpt>
<trkpt lat="43.718468" lon="3.794413">
<ele>212.1</ele>
<time>2013-05-08T04:57:13.999Z</time>
</trkpt>
<trkpt lat="43.718134" lon="3.794366">
<ele>211.3</ele>
<time>2013-05-08T04:57:14.999Z</time>
</trkpt>
<trkpt lat="43.717807" lon="3.794318">
<ele>210.6</ele>
<time>2013-05-08T04:57:15.999Z</time>
</trkpt>
<trkpt lat="43.717484" lon="3.79427">
<ele>210</ele>
<time>2013-05-08T04:57:16.999Z</time>
</trkpt>
<trkpt lat="43.717159" lon="3.794221">
<ele>209.7</ele>
<time>2013-05-08T04:57:17.999Z</time>
</trkpt>
<trkpt lat="43.716834" lon="3.794177">
<ele>209.5</ele>
<time>2013-05-08T04:57:18.999Z</time>
</trkpt>
<trkpt lat="43.716509" lon="3.794144">
<ele>209.3</ele>
<time>2013-05-08T04:57:19.999Z</time>
</trkpt>
<trkpt lat="43.716178" lon="3.794122">
<ele>208.6</ele>
<time>2013-05-08T04:57:20.999Z</time>
</trkpt>
<trkpt lat="43.715845" lon="3.794153">
<ele>207.5</ele>
<time>2013-05-08T04:57:21.999Z</time>
</trkpt>
<trkpt lat="43.715515" lon="3.794247">
<ele>206.2</ele>
<time>2013-05-08T04:57:22.999Z</time>
</trkpt>
<trkpt lat="43.715181" lon="3.794365">
<ele>204.7</ele>
<time>2013-05-08T04:57:23.999Z</time>
</trkpt>
<trkpt lat="43.714846" lon="3.794486">
<ele>203.2</ele>
<time>2013-05-08T04:57:24.999Z</time>
</trkpt>
<trkpt lat="43.714514" lon="3.794625">
<ele>201.8</ele>
<time>2013-05-08T04:57:25.999Z</time>
</trkpt>
<trkpt lat="43.714186" lon="3.794782">
<ele>200.8</ele>
<time>2013-05-08T04:57:26.999Z</time>
</trkpt>
<trkpt lat="43.713873" lon="3.794973">
<ele>200.3</ele>
<time>2013-05-08T04:57:27.999Z</time>
</trkpt>
<trkpt lat="43.713569" lon="3.795199">
<ele>200.2</ele>
<time>2013-05-08T04:57:28.999Z</time>
</trkpt>
<trkpt lat="43.713291" lon="3.795467">
<ele>200.5</ele>
<time>2013-05-08T04:57:29.999Z</time>
</trkpt>
<trkpt lat="43.713027" lon="3.795752">
<ele>200.9</ele>
<time>2013-05-08T04:57:30.999Z</time>
</trkpt>
<trkpt lat="43.712764" lon="3.796045">
<ele>201.6</ele>
<time>2013-05-08T04:57:31.999Z</time>
</trkpt>
<trkpt lat="43.712511" lon="3.796342">
<ele>202.3</ele>
<time>2013-05-08T04:57:32.999Z</time>
</trkpt>
<trkpt lat="43.712246" lon="3.796638">
<ele>202.7</ele>
<time>2013-05-08T04:57:33.999Z</time>
</trkpt>
<trkpt lat="43.711979" lon="3.796932">
<ele>203.4</ele>
<time>2013-05-08T04:57:34.999Z</time>
</trkpt>
<trkpt lat="43.711706" lon="3.797225">
<ele>204</ele>
<time>2013-05-08T04:57:35.999Z</time>
</trkpt>
<trkpt lat="43.711431" lon="3.797515">
<ele>204.8</ele>
<time>2013-05-08T04:57:36.999Z</time>
</trkpt>
<trkpt lat="43.711162" lon="3.797801">
<ele>205.6</ele>
<time>2013-05-08T04:57:37.999Z</time>
</trkpt>
<trkpt lat="43.710893" lon="3.798089">
<ele>206.5</ele>
<time>2013-05-08T04:57:38.999Z</time>
</trkpt>
<trkpt lat="43.710639" lon="3.798403">
<ele>207.6</ele>
<time>2013-05-08T04:57:39.999Z</time>
</trkpt>
<trkpt lat="43.710394" lon="3.798751">
<ele>208.3</ele>
<time>2013-05-08T04:57:40.999Z</time>
</trkpt>
<trkpt lat="43.710149" lon="3.79914">
<ele>209</ele>
<time>2013-05-08T04:57:41.999Z</time>
</trkpt>
<trkpt lat="43.709924" lon="3.79953">
<ele>209.7</ele>
<time>2013-05-08T04:57:42.999Z</time>
</trkpt>
<trkpt lat="43.709716" lon="3.799949">
<ele>210.4</ele>
<time>2013-05-08T04:57:43.999Z</time>
</trkpt>
<trkpt lat="43.70952" lon="3.800378">
<ele>210.9</ele>
<time>2013-05-08T04:57:44.999Z</time>
</trkpt>
<trkpt lat="43.709348" lon="3.800816">
<ele>211.5</ele>
<time>2013-05-08T04:57:45.999Z</time>
</trkpt>
<trkpt lat="43.709193" lon="3.801272">
<ele>211.8</ele>
<time>2013-05-08T04:57:46.999Z</time>
</trkpt>
<trkpt lat="43.709054" lon="3.801743">
<ele>211.7</ele>
<time>2013-05-08T04:57:47.999Z</time>
</trkpt>
<trkpt lat="43.708948" lon="3.802231">
<ele>211.2</ele>
<time>2013-05-08T04:57:48.999Z</time>
</trkpt>
<trkpt lat="43.708858" lon="3.802723">
<ele>210.2</ele>
<time>2013-05-08T04:57:49.999Z</time>
</trkpt>
<trkpt lat="43.708789" lon="3.803226">
<ele>209.1</ele>
<time>2013-05-08T04:57:50.999Z</time>
</trkpt>
<trkpt lat="43.708747" lon="3.803736">
<ele>207.7</ele>
<time>2013-05-08T04:57:51.999Z</time>
</trkpt>
<trkpt lat="43.708725" lon="3.804256">
<ele>206.1</ele>
<time>2013-05-08T04:57:52.999Z</time>
</trkpt>
<trkpt lat="43.708711" lon="3.804777">
<ele>204.4</ele>
<time>2013-05-08T04:57:53.999Z</time>
</trkpt>
<trkpt lat="43.708698" lon="3.805302">
<ele>202.8</ele>
<time>2013-05-08T04:57:54.999Z</time>
</trkpt>
<trkpt lat="43.708684" lon="3.805833">
<ele>201.3</ele>
<time>2013-05-08T04:57:55.999Z</time>
</trkpt>
<trkpt lat="43.708655" lon="3.806356">
<ele>200</ele>
<time>2013-05-08T04:57:56.999Z</time>
</trkpt>
<trkpt lat="43.708597" lon="3.806854">
<ele>199</ele>
<time>2013-05-08T04:57:57.999Z</time>
</trkpt>
<trkpt lat="43.708519" lon="3.807339">
<ele>198.4</ele>
<time>2013-05-08T04:57:58.999Z</time>
</trkpt>
<trkpt lat="43.708427" lon="3.807811">
<ele>198.3</ele>
<time>2013-05-08T04:57:59.999Z</time>
</trkpt>
<trkpt lat="43.70832" lon="3.808279">
<ele>198.3</ele>
<time>2013-05-08T04:58:00.999Z</time>
</trkpt>
<trkpt lat="43.708214" lon="3.808757">
<ele>198.2</ele>
<time>2013-05-08T04:58:01.999Z</time>
</trkpt>
<trkpt lat="43.708098" lon="3.809225">
<ele>198</ele>
<time>2013-05-08T04:58:02.999Z</time>
</trkpt>
<trkpt lat="43.70798" lon="3.809683">
<ele>197.7</ele>
<time>2013-05-08T04:58:03.999Z</time>
</trkpt>
<trkpt lat="43.707862" lon="3.810138">
<ele>197.4</ele>
<time>2013-05-08T04:58:04.999Z</time>
</trkpt>
<trkpt lat="43.70775" lon="3.810591">
<ele>197.1</ele>
<time>2013-05-08T04:58:05.999Z</time>
</trkpt>
<trkpt lat="43.707634" lon="3.811036">
<ele>196.8</ele>
<time>2013-05-08T04:58:06.999Z</time>
</trkpt>
<trkpt lat="43.70752" lon="3.811468">
<ele>196.5</ele>
<time>2013-05-08T04:58:07.999Z</time>
</trkpt>
<trkpt lat="43.707411" lon="3.811894">
<ele>196.2</ele>
<time>2013-05-08T04:58:08.999Z</time>
</trkpt>
<trkpt lat="43.707303" lon="3.812318">
<ele>195.7</ele>
<time>2013-05-08T04:58:09.999Z</time>
</trkpt>
<trkpt lat="43.707218" lon="3.812744">
<ele>195.5</ele>
<time>2013-05-08T04:58:10.999Z</time>
</trkpt>
<trkpt lat="43.707161" lon="3.813174">
<ele>195</ele>
<time>2013-05-08T04:58:11.999Z</time>
</trkpt>
<trkpt lat="43.707142" lon="3.813614">
<ele>194.2</ele>
<time>2013-05-08T04:58:12.999Z</time>
</trkpt>
<trkpt lat="43.707162" lon="3.814068">
<ele>193.3</ele>
<time>2013-05-08T04:58:13.999Z</time>
</trkpt>
<trkpt lat="43.707234" lon="3.814518">
<ele>192.6</ele>
<time>2013-05-08T04:58:14.999Z</time>
</trkpt>
<trkpt lat="43.70737" lon="3.814913">
<ele>191.7</ele>
<time>2013-05-08T04:58:15.999Z</time>
</trkpt>
<trkpt lat="43.707552" lon="3.815263">
<ele>191.3</ele>
<time>2013-05-08T04:58:16.999Z</time>
</trkpt>
<trkpt lat="43.707708" lon="3.815623">
<ele>190.5</ele>
<time>2013-05-08T04:58:17.999Z</time>
</trkpt>
<trkpt lat="43.707863" lon="3.815947">
<ele>189.4</ele>
<time>2013-05-08T04:58:18.999Z</time>
</trkpt>
<trkpt lat="43.708013" lon="3.816239">
<ele>188</ele>
<time>2013-05-08T04:58:19.999Z</time>
</trkpt>
<trkpt lat="43.708147" lon="3.816521">
<ele>186.5</ele>
<time>2013-05-08T04:58:20.999Z</time>
</trkpt>
<trkpt lat="43.708259" lon="3.816785">
<ele>185</ele>
<time>2013-05-08T04:58:21.999Z</time>
</trkpt>
<trkpt lat="43.708347" lon="3.817023">
<ele>183.5</ele>
<time>2013-05-08T04:58:22.999Z</time>
</trkpt>
<trkpt lat="43.708411" lon="3.817244">
<ele>182</ele>
<time>2013-05-08T04:58:23.999Z</time>
</trkpt>
<trkpt lat="43.708462" lon="3.817451">
<ele>180.5</ele>
<time>2013-05-08T04:58:24.999Z</time>
</trkpt>
<trkpt lat="43.708493" lon="3.817647">
<ele>179.4</ele>
<time>2013-05-08T04:58:25.999Z</time>
</trkpt>
<trkpt lat="43.708469" lon="3.817838">
<ele>178.6</ele>
<time>2013-05-08T04:58:26.999Z</time>
</trkpt>
<trkpt lat="43.70842" lon="3.818032">
<ele>177.9</ele>
<time>2013-05-08T04:58:27.999Z</time>
</trkpt>
<trkpt lat="43.708312" lon="3.818241">
<ele>176.8</ele>
<time>2013-05-08T04:58:28.999Z</time>
</trkpt>
<trkpt lat="43.708159" lon="3.818431">
<ele>176.1</ele>
<time>2013-05-08T04:58:29.999Z</time>
</trkpt>
<trkpt lat="43.707998" lon="3.81862">
<ele>175.8</ele>
<time>2013-05-08T04:58:30.999Z</time>
</trkpt>
<trkpt lat="43.707777" lon="3.818746">
<ele>175.8</ele>
<time>2013-05-08T04:58:31.999Z</time>
</trkpt>
<trkpt lat="43.707524" lon="3.81881">
<ele>175.7</ele>
<time>2013-05-08T04:58:32.999Z</time>
</trkpt>
<trkpt lat="43.707245" lon="3.818837">
<ele>175.7</ele>
<time>2013-05-08T04:58:33.999Z</time>
</trkpt>
<trkpt lat="43.706959" lon="3.818829">
<ele>175.3</ele>
<time>2013-05-08T04:58:34.999Z</time>
</trkpt>
<trkpt lat="43.706662" lon="3.818815">
<ele>174.9</ele>
<time>2013-05-08T04:58:35.999Z</time>
</trkpt>
<trkpt lat="43.706355" lon="3.818805">
<ele>174.8</ele>
<time>2013-05-08T04:58:36.999Z</time>
</trkpt>
<trkpt lat="43.706046" lon="3.8188">
<ele>174.6</ele>
<time>2013-05-08T04:58:37.999Z</time>
</trkpt>
<trkpt lat="43.705736" lon="3.818812">
<ele>174.2</ele>
<time>2013-05-08T04:58:38.999Z</time>
</trkpt>
<trkpt lat="43.70542" lon="3.818845">
<ele>174</ele>
<time>2013-05-08T04:58:39.999Z</time>
</trkpt>
<trkpt lat="43.705106" lon="3.818884">
<ele>173.7</ele>
<time>2013-05-08T04:58:40.999Z</time>
</trkpt>
<trkpt lat="43.704793" lon="3.818937">
<ele>173.4</ele>
<time>2013-05-08T04:58:41.999Z</time>
</trkpt>
<trkpt lat="43.704476" lon="3.819003">
<ele>173.2</ele>
<time>2013-05-08T04:58:42.999Z</time>
</trkpt>
<trkpt lat="43.704155" lon="3.819076">
<ele>173.1</ele>
<time>2013-05-08T04:58:43.999Z</time>
</trkpt>
<trkpt lat="43.703833" lon="3.819171">
<ele>172.9</ele>
<time>2013-05-08T04:58:44.999Z</time>
</trkpt>
<trkpt lat="43.703507" lon="3.819282">
<ele>172.7</ele>
<time>2013-05-08T04:58:45.999Z</time>
</trkpt>
<trkpt lat="43.703183" lon="3.81941">
<ele>172.4</ele>
<time>2013-05-08T04:58:46.999Z</time>
</trkpt>
<trkpt lat="43.702865" lon="3.819553">
<ele>171.8</ele>
<time>2013-05-08T04:58:47.999Z</time>
</trkpt>
<trkpt lat="43.702553" lon="3.819725">
<ele>170.8</ele>
<time>2013-05-08T04:58:48.999Z</time>
</trkpt>
<trkpt lat="43.702245" lon="3.819932">
<ele>169.7</ele>
<time>2013-05-08T04:58:49.999Z</time>
</trkpt>
<trkpt lat="43.701939" lon="3.820151">
<ele>168.6</ele>
<time>2013-05-08T04:58:50.999Z</time>
</trkpt>
<trkpt lat="43.70165" lon="3.820399">
<ele>167.4</ele>
<time>2013-05-08T04:58:51.999Z</time>
</trkpt>
<trkpt lat="43.701373" lon="3.82068">
<ele>166.2</ele>
<time>2013-05-08T04:58:52.999Z</time>
</trkpt>
<trkpt lat="43.701104" lon="3.821007">
<ele>165.1</ele>
<time>2013-05-08T04:58:53.999Z</time>
</trkpt>
<trkpt lat="43.700857" lon="3.821334">
<ele>164.2</ele>
<time>2013-05-08T04:58:54.999Z</time>
</trkpt>
<trkpt lat="43.700631" lon="3.8217">
<ele>163.4</ele>
<time>2013-05-08T04:58:55.999Z</time>
</trkpt>
<trkpt lat="43.700416" lon="3.822082">
<ele>162.8</ele>
<time>2013-05-08T04:58:56.999Z</time>
</trkpt>
<trkpt lat="43.700217" lon="3.822478">
<ele>162.3</ele>
<time>2013-05-08T04:58:57.999Z</time>
</trkpt>
<trkpt lat="43.700038" lon="3.822884">
<ele>161.8</ele>
<time>2013-05-08T04:58:58.999Z</time>
</trkpt>
<trkpt lat="43.69986" lon="3.823285">
<ele>161.5</ele>
<time>2013-05-08T04:58:59.999Z</time>
</trkpt>
<trkpt lat="43.699678" lon="3.82371">
<ele>161.3</ele>
<time>2013-05-08T04:59:00.999Z</time>
</trkpt>
<trkpt lat="43.699486" lon="3.824105">
<ele>161.3</ele>
<time>2013-05-08T04:59:01.999Z</time>
</trkpt>
<trkpt lat="43.699276" lon="3.824473">
<ele>161.2</ele>
<time>2013-05-08T04:59:02.999Z</time>
</trkpt>
<trkpt lat="43.699037" lon="3.824833">
<ele>161.4</ele>
<time>2013-05-08T04:59:03.999Z</time>
</trkpt>
<trkpt lat="43.698784" lon="3.825138">
<ele>161.5</ele>
<time>2013-05-08T04:59:04.999Z</time>
</trkpt>
<trkpt lat="43.698511" lon="3.825421">
<ele>161.4</ele>
<time>2013-05-08T04:59:05.999Z</time>
</trkpt>
<trkpt lat="43.698212" lon="3.825662">
<ele>161.4</ele>
<time>2013-05-08T04:59:06.999Z</time>
</trkpt>
<trkpt lat="43.697893" lon="3.825866">
<ele>161.4</ele>
<time>2013-05-08T04:59:07.999Z</time>
</trkpt>
<trkpt lat="43.697565" lon="3.826043">
<ele>161.3</ele>
<time>2013-05-08T04:59:08.999Z</time>
</trkpt>
<trkpt lat="43.697221" lon="3.826181">
<ele>161.2</ele>
<time>2013-05-08T04:59:09.999Z</time>
</trkpt>
<trkpt lat="43.696864" lon="3.826288">
<ele>161.3</ele>
<time>2013-05-08T04:59:10.999Z</time>
</trkpt>
<trkpt lat="43.696504" lon="3.826376">
<ele>161.1</ele>
<time>2013-05-08T04:59:11.999Z</time>
</trkpt>
<trkpt lat="43.696132" lon="3.826439">
<ele>161.1</ele>
<time>2013-05-08T04:59:12.999Z</time>
</trkpt>
<trkpt lat="43.695762" lon="3.826494">
<ele>161.4</ele>
<time>2013-05-08T04:59:13.999Z</time>
</trkpt>
<trkpt lat="43.695389" lon="3.826536">
<ele>161.8</ele>
<time>2013-05-08T04:59:14.999Z</time>
</trkpt>
<trkpt lat="43.695019" lon="3.826554">
<ele>161.9</ele>
<time>2013-05-08T04:59:15.999Z</time>
</trkpt>
<trkpt lat="43.69465" lon="3.826543">
<ele>161.8</ele>
<time>2013-05-08T04:59:16.999Z</time>
</trkpt>
<trkpt lat="43.694288" lon="3.826503">
<ele>161.7</ele>
<time>2013-05-08T04:59:17.999Z</time>
</trkpt>
<trkpt lat="43.693931" lon="3.826439">
<ele>161.6</ele>
<time>2013-05-08T04:59:18.999Z</time>
</trkpt>
<trkpt lat="43.693572" lon="3.826342">
<ele>161.5</ele>
<time>2013-05-08T04:59:19.999Z</time>
</trkpt>
<trkpt lat="43.693213" lon="3.826235">
<ele>161.8</ele>
<time>2013-05-08T04:59:20.999Z</time>
</trkpt>
<trkpt lat="43.692871" lon="3.82611">
<ele>161.9</ele>
<time>2013-05-08T04:59:21.999Z</time>
</trkpt>
<trkpt lat="43.69253" lon="3.825953">
<ele>161.5</ele>
<time>2013-05-08T04:59:22.999Z</time>
</trkpt>
<trkpt lat="43.692193" lon="3.825784">
<ele>160.9</ele>
<time>2013-05-08T04:59:23.999Z</time>
</trkpt>
<trkpt lat="43.691863" lon="3.825601">
<ele>160.2</ele>
<time>2013-05-08T04:59:24.999Z</time>
</trkpt>
<trkpt lat="43.691536" lon="3.825411">
<ele>159.5</ele>
<time>2013-05-08T04:59:25.999Z</time>
</trkpt>
<trkpt lat="43.69121" lon="3.825211">
<ele>158.8</ele>
<time>2013-05-08T04:59:26.999Z</time>
</trkpt>
<trkpt lat="43.690887" lon="3.825006">
<ele>158.1</ele>
<time>2013-05-08T04:59:27.999Z</time>
</trkpt>
<trkpt lat="43.690566" lon="3.824797">
<ele>157.5</ele>
<time>2013-05-08T04:59:28.999Z</time>
</trkpt>
<trkpt lat="43.690246" lon="3.824577">
<ele>156.8</ele>
<time>2013-05-08T04:59:29.999Z</time>
</trkpt>
<trkpt lat="43.689929" lon="3.824371">
<ele>156.2</ele>
<time>2013-05-08T04:59:30.999Z</time>
</trkpt>
<trkpt lat="43.689608" lon="3.824161">
<ele>155.7</ele>
<time>2013-05-08T04:59:31.999Z</time>
</trkpt>
<trkpt lat="43.689286" lon="3.823951">
<ele>155.2</ele>
<time>2013-05-08T04:59:32.999Z</time>
</trkpt>
<trkpt lat="43.688967" lon="3.823737">
<ele>155</ele>
<time>2013-05-08T04:59:33.999Z</time>
</trkpt>
<trkpt lat="43.688643" lon="3.823532">
<ele>154.5</ele>
<time>2013-05-08T04:59:34.999Z</time>
</trkpt>
<trkpt lat="43.688317" lon="3.82333">
<ele>154</ele>
<time>2013-05-08T04:59:35.999Z</time>
</trkpt>
<trkpt lat="43.68799" lon="3.823144">
<ele>153.8</ele>
<time>2013-05-08T04:59:36.999Z</time>
</trkpt>
<trkpt lat="43.687657" lon="3.82297">
<ele>153.7</ele>
<time>2013-05-08T04:59:37.999Z</time>
</trkpt>
<trkpt lat="43.68733" lon="3.822803">
<ele>153.8</ele>
<time>2013-05-08T04:59:38.999Z</time>
</trkpt>
<trkpt lat="43.686994" lon="3.822646">
<ele>153.8</ele>
<time>2013-05-08T04:59:39.999Z</time>
</trkpt>
<trkpt lat="43.686655" lon="3.822496">
<ele>153.9</ele>
<time>2013-05-08T04:59:40.999Z</time>
</trkpt>
<trkpt lat="43.686312" lon="3.822352">
<ele>154</ele>
<time>2013-05-08T04:59:41.999Z</time>
</trkpt>
<trkpt lat="43.685962" lon="3.822233">
<ele>153.9</ele>
<time>2013-05-08T04:59:42.999Z</time>
</trkpt>
<trkpt lat="43.685606" lon="3.822123">
<ele>153.7</ele>
<time>2013-05-08T04:59:43.999Z</time>
</trkpt>
<trkpt lat="43.685251" lon="3.822017">
<ele>153.3</ele>
<time>2013-05-08T04:59:44.999Z</time>
</trkpt>
<trkpt lat="43.684895" lon="3.821922">
<ele>152.9</ele>
<time>2013-05-08T04:59:45.999Z</time>
</trkpt>
<trkpt lat="43.684538" lon="3.821832">
<ele>152.5</ele>
<time>2013-05-08T04:59:46.999Z</time>
</trkpt>
<trkpt lat="43.68418" lon="3.821762">
<ele>151.9</ele>
<time>2013-05-08T04:59:47.999Z</time>
</trkpt>
<trkpt lat="43.683823" lon="3.821706">
<ele>151.4</ele>
<time>2013-05-08T04:59:48.999Z</time>
</trkpt>
<trkpt lat="43.68347" lon="3.821651">
<ele>151</ele>
<time>2013-05-08T04:59:49.999Z</time>
</trkpt>
<trkpt lat="43.683117" lon="3.821605">
<ele>150.8</ele>
<time>2013-05-08T04:59:50.999Z</time>
</trkpt>
<trkpt lat="43.682762" lon="3.821559">
<ele>150.5</ele>
<time>2013-05-08T04:59:51.999Z</time>
</trkpt>
<trkpt lat="43.682407" lon="3.821522">
<ele>150.4</ele>
<time>2013-05-08T04:59:52.999Z</time>
</trkpt>
<trkpt lat="43.682053" lon="3.821482">
<ele>150.4</ele>
<time>2013-05-08T04:59:53.999Z</time>
</trkpt>
<trkpt lat="43.681701" lon="3.821438">
<ele>150.5</ele>
<time>2013-05-08T04:59:54.999Z</time>
</trkpt>
<trkpt lat="43.681344" lon="3.821396">
<ele>150.8</ele>
<time>2013-05-08T04:59:55.999Z</time>
</trkpt>
<trkpt lat="43.680997" lon="3.821355">
<ele>151.4</ele>
<time>2013-05-08T04:59:56.999Z</time>
</trkpt>
<trkpt lat="43.680647" lon="3.821317">
<ele>152</ele>
<time>2013-05-08T04:59:57.999Z</time>
</trkpt>
<trkpt lat="43.680303" lon="3.82128">
<ele>152.6</ele>
<time>2013-05-08T04:59:58.999Z</time>
</trkpt>
<trkpt lat="43.679961" lon="3.821239">
<ele>153.2</ele>
<time>2013-05-08T04:59:59.999Z</time>
</trkpt>
<trkpt lat="43.679624" lon="3.821194">
<ele>154.2</ele>
<time>2013-05-08T05:00:00.999Z</time>
</trkpt>
<trkpt lat="43.679281" lon="3.821145">
<ele>154.9</ele>
<time>2013-05-08T05:00:01.999Z</time>
</trkpt>
<trkpt lat="43.678948" lon="3.821084">
<ele>155.8</ele>
<time>2013-05-08T05:00:02.999Z</time>
</trkpt>
<trkpt lat="43.678612" lon="3.821028">
<ele>156.7</ele>
<time>2013-05-08T05:00:03.999Z</time>
</trkpt>
<trkpt lat="43.678276" lon="3.820977">
<ele>157.8</ele>
<time>2013-05-08T05:00:04.999Z</time>
</trkpt>
<trkpt lat="43.677944" lon="3.820926">
<ele>159</ele>
<time>2013-05-08T05:00:05.999Z</time>
</trkpt>
<trkpt lat="43.67761" lon="3.820874">
<ele>160.1</ele>
<time>2013-05-08T05:00:06.999Z</time>
</trkpt>
<trkpt lat="43.677281" lon="3.820818">
<ele>161.2</ele>
<time>2013-05-08T05:00:07.999Z</time>
</trkpt>
<trkpt lat="43.676957" lon="3.820743">
<ele>162.3</ele>
<time>2013-05-08T05:00:08.999Z</time>
</trkpt>
<trkpt lat="43.67664" lon="3.820651">
<ele>163.1</ele>
<time>2013-05-08T05:00:09.999Z</time>
</trkpt>
<trkpt lat="43.676323" lon="3.820557">
<ele>163.7</ele>
<time>2013-05-08T05:00:10.999Z</time>
</trkpt>
<trkpt lat="43.676009" lon="3.820453">
<ele>164.2</ele>
<time>2013-05-08T05:00:11.999Z</time>
</trkpt>
<trkpt lat="43.675701" lon="3.820335">
<ele>164.8</ele>
<time>2013-05-08T05:00:12.999Z</time>
</trkpt>
<trkpt lat="43.675382" lon="3.820199">
<ele>165.8</ele>
<time>2013-05-08T05:00:13.999Z</time>
</trkpt>
<trkpt lat="43.675079" lon="3.820037">
<ele>167.1</ele>
<time>2013-05-08T05:00:14.999Z</time>
</trkpt>
<trkpt lat="43.674788" lon="3.819873">
<ele>168.3</ele>
<time>2013-05-08T05:00:15.999Z</time>
</trkpt>
<trkpt lat="43.674527" lon="3.819705">
<ele>169.3</ele>
<time>2013-05-08T05:00:16.999Z</time>
</trkpt>
<trkpt lat="43.674307" lon="3.81954">
<ele>170.4</ele>
<time>2013-05-08T05:00:17.999Z</time>
</trkpt>
<trkpt lat="43.674114" lon="3.819382">
<ele>171.6</ele>
<time>2013-05-08T05:00:18.999Z</time>
</trkpt>
<trkpt lat="43.673935" lon="3.819233">
<ele>172.7</ele>
<time>2013-05-08T05:00:19.999Z</time>
</trkpt>
<trkpt lat="43.673766" lon="3.819083">
<ele>173.5</ele>
<time>2013-05-08T05:00:20.999Z</time>
</trkpt>
<trkpt lat="43.673618" lon="3.818927">
<ele>174.1</ele>
<time>2013-05-08T05:00:21.999Z</time>
</trkpt>
<trkpt lat="43.673495" lon="3.818753">
<ele>174.4</ele>
<time>2013-05-08T05:00:22.999Z</time>
</trkpt>
<trkpt lat="43.673391" lon="3.818559">
<ele>174.6</ele>
<time>2013-05-08T05:00:23.999Z</time>
</trkpt>
<trkpt lat="43.673334" lon="3.818318">
<ele>175.4</ele>
<time>2013-05-08T05:00:24.999Z</time>
</trkpt>
<trkpt lat="43.673375" lon="3.81806">
<ele>175.7</ele>
<time>2013-05-08T05:00:25.999Z</time>
</trkpt>
<trkpt lat="43.673474" lon="3.817854">
<ele>175</ele>
<time>2013-05-08T05:00:26.999Z</time>
</trkpt>
<trkpt lat="43.67362" lon="3.817686">
<ele>174.3</ele>
<time>2013-05-08T05:00:27.999Z</time>
</trkpt>
<trkpt lat="43.673795" lon="3.817563">
<ele>174</ele>
<time>2013-05-08T05:00:28.999Z</time>
</trkpt>
<trkpt lat="43.673974" lon="3.817559">
<ele>173.6</ele>
<time>2013-05-08T05:00:29.999Z</time>
</trkpt>
<trkpt lat="43.674173" lon="3.81767">
<ele>173.1</ele>
<time>2013-05-08T05:00:30.999Z</time>
</trkpt>
<trkpt lat="43.674344" lon="3.817863">
<ele>173.3</ele>
<time>2013-05-08T05:00:31.999Z</time>
</trkpt>
<trkpt lat="43.674434" lon="3.818116">
<ele>173.6</ele>
<time>2013-05-08T05:00:32.999Z</time>
</trkpt>
<trkpt lat="43.67443" lon="3.818387">
<ele>173</ele>
<time>2013-05-08T05:00:33.999Z</time>
</trkpt>
<trkpt lat="43.674397" lon="3.818652">
<ele>172.3</ele>
<time>2013-05-08T05:00:34.999Z</time>
</trkpt>
<trkpt lat="43.674268" lon="3.818895">
<ele>170.9</ele>
<time>2013-05-08T05:00:35.999Z</time>
</trkpt>
<trkpt lat="43.674137" lon="3.819093">
<ele>170.7</ele>
<time>2013-05-08T05:00:36.999Z</time>
</trkpt>
<trkpt lat="43.67396" lon="3.819258">
<ele>170.9</ele>
<time>2013-05-08T05:00:37.999Z</time>
</trkpt>
<trkpt lat="43.673762" lon="3.819405">
<ele>171.4</ele>
<time>2013-05-08T05:00:38.999Z</time>
</trkpt>
<trkpt lat="43.673535" lon="3.819571">
<ele>171.5</ele>
<time>2013-05-08T05:00:39.999Z</time>
</trkpt>
<trkpt lat="43.673303" lon="3.819748">
<ele>171.7</ele>
<time>2013-05-08T05:00:40.999Z</time>
</trkpt>
<trkpt lat="43.673059" lon="3.819929">
<ele>171.7</ele>
<time>2013-05-08T05:00:41.999Z</time>
</trkpt>
<trkpt lat="43.672816" lon="3.820125">
<ele>171.7</ele>
<time>2013-05-08T05:00:42.999Z</time>
</trkpt>
<trkpt lat="43.672577" lon="3.820351">
<ele>171.8</ele>
<time>2013-05-08T05:00:43.999Z</time>
</trkpt>
<trkpt lat="43.672353" lon="3.820603">
<ele>171.5</ele>
<time>2013-05-08T05:00:44.999Z</time>
</trkpt>
<trkpt lat="43.672127" lon="3.820871">
<ele>171.4</ele>
<time>2013-05-08T05:00:45.999Z</time>
</trkpt>
<trkpt lat="43.671904" lon="3.821183">
<ele>171.7</ele>
<time>2013-05-08T05:00:46.999Z</time>
</trkpt>
<trkpt lat="43.671699" lon="3.821477">
<ele>172.1</ele>
<time>2013-05-08T05:00:47.999Z</time>
</trkpt>
<trkpt lat="43.671499" lon="3.821793">
<ele>172.2</ele>
<time>2013-05-08T05:00:48.999Z</time>
</trkpt>
<trkpt lat="43.671305" lon="3.822131">
<ele>172</ele>
<time>2013-05-08T05:00:49.999Z</time>
</trkpt>
<trkpt lat="43.671113" lon="3.822482">
<ele>171.7</ele>
<time>2013-05-08T05:00:50.999Z</time>
</trkpt>
<trkpt lat="43.670926" lon="3.822835">
<ele>171.5</ele>
<time>2013-05-08T05:00:51.999Z</time>
</trkpt>
<trkpt lat="43.670746" lon="3.823205">
<ele>171.1</ele>
<time>2013-05-08T05:00:52.999Z</time>
</trkpt>
<trkpt lat="43.670564" lon="3.823562">
<ele>170.7</ele>
<time>2013-05-08T05:00:53.999Z</time>
</trkpt>
<trkpt lat="43.670378" lon="3.82393">
<ele>170.3</ele>
<time>2013-05-08T05:00:54.999Z</time>
</trkpt>
<trkpt lat="43.670187" lon="3.824306">
<ele>170</ele>
<time>2013-05-08T05:00:55.999Z</time>
</trkpt>
<trkpt lat="43.669965" lon="3.824648">
<ele>169.7</ele>
<time>2013-05-08T05:00:56.999Z</time>
</trkpt>
<trkpt lat="43.669727" lon="3.824967">
<ele>169.4</ele>
<time>2013-05-08T05:00:57.999Z</time>
</trkpt>
<trkpt lat="43.669458" lon="3.825249">
<ele>169.5</ele>
<time>2013-05-08T05:00:58.999Z</time>
</trkpt>
<trkpt lat="43.669189" lon="3.825515">
<ele>169.6</ele>
<time>2013-05-08T05:00:59.999Z</time>
</trkpt>
<trkpt lat="43.66891" lon="3.825766">
<ele>169.4</ele>
<time>2013-05-08T05:01:00.999Z</time>
</trkpt>
<trkpt lat="43.668628" lon="3.826012">
<ele>169.1</ele>
<time>2013-05-08T05:01:01.999Z</time>
</trkpt>
<trkpt lat="43.668344" lon="3.826254">
<ele>169</ele>
<time>2013-05-08T05:01:02.999Z</time>
</trkpt>
<trkpt lat="43.668052" lon="3.826487">
<ele>169.1</ele>
<time>2013-05-08T05:01:03.999Z</time>
</trkpt>
<trkpt lat="43.667748" lon="3.826713">
<ele>169.2</ele>
<time>2013-05-08T05:01:04.999Z</time>
</trkpt>
<trkpt lat="43.66744" lon="3.826941">
<ele>169.4</ele>
<time>2013-05-08T05:01:05.999Z</time>
</trkpt>
<trkpt lat="43.667133" lon="3.827168">
<ele>169.7</ele>
<time>2013-05-08T05:01:06.999Z</time>
</trkpt>
<trkpt lat="43.666812" lon="3.827389">
<ele>169.9</ele>
<time>2013-05-08T05:01:07.999Z</time>
</trkpt>
<trkpt lat="43.666491" lon="3.827615">
<ele>170</ele>
<time>2013-05-08T05:01:08.999Z</time>
</trkpt>
<trkpt lat="43.666176" lon="3.827832">
<ele>169.8</ele>
<time>2013-05-08T05:01:09.999Z</time>
</trkpt>
<trkpt lat="43.665868" lon="3.828062">
<ele>169.7</ele>
<time>2013-05-08T05:01:10.999Z</time>
</trkpt>
<trkpt lat="43.665545" lon="3.828297">
<ele>169.7</ele>
<time>2013-05-08T05:01:11.999Z</time>
</trkpt>
<trkpt lat="43.665231" lon="3.82853">
<ele>169.8</ele>
<time>2013-05-08T05:01:12.999Z</time>
</trkpt>
<trkpt lat="43.664907" lon="3.82876">
<ele>170.1</ele>
<time>2013-05-08T05:01:13.999Z</time>
</trkpt>
<trkpt lat="43.664594" lon="3.82899">
<ele>170.4</ele>
<time>2013-05-08T05:01:14.999Z</time>
</trkpt>
<trkpt lat="43.664277" lon="3.829217">
<ele>170.6</ele>
<time>2013-05-08T05:01:15.999Z</time>
</trkpt>
<trkpt lat="43.663972" lon="3.829447">
<ele>170.6</ele>
<time>2013-05-08T05:01:16.999Z</time>
</trkpt>
<trkpt lat="43.66367" lon="3.829687">
<ele>170.2</ele>
<time>2013-05-08T05:01:17.999Z</time>
</trkpt>
<trkpt lat="43.663367" lon="3.829934">
<ele>169.6</ele>
<time>2013-05-08T05:01:18.999Z</time>
</trkpt>
<trkpt lat="43.663066" lon="3.830177">
<ele>168.6</ele>
<time>2013-05-08T05:01:19.999Z</time>
</trkpt>
<trkpt lat="43.662736" lon="3.830353">
<ele>167.5</ele>
<time>2013-05-08T05:01:20.999Z</time>
</trkpt>
<trkpt lat="43.662399" lon="3.830504">
<ele>166.4</ele>
<time>2013-05-08T05:01:21.999Z</time>
</trkpt>
<trkpt lat="43.662047" lon="3.830592">
<ele>165.6</ele>
<time>2013-05-08T05:01:22.999Z</time>
</trkpt>
<trkpt lat="43.661691" lon="3.830646">
<ele>165</ele>
<time>2013-05-08T05:01:23.999Z</time>
</trkpt>
<trkpt lat="43.661327" lon="3.830698">
<ele>164</ele>
<time>2013-05-08T05:01:24.999Z</time>
</trkpt>
<trkpt lat="43.660958" lon="3.830762">
<ele>162.7</ele>
<time>2013-05-08T05:01:25.999Z</time>
</trkpt>
<trkpt lat="43.660604" lon="3.830822">
<ele>161.1</ele>
<time>2013-05-08T05:01:26.999Z</time>
</trkpt>
<trkpt lat="43.660249" lon="3.830886">
<ele>159.5</ele>
<time>2013-05-08T05:01:27.999Z</time>
</trkpt>
<trkpt lat="43.659893" lon="3.83095">
<ele>157.9</ele>
<time>2013-05-08T05:01:28.999Z</time>
</trkpt>
<trkpt lat="43.659535" lon="3.831018">
<ele>156.4</ele>
<time>2013-05-08T05:01:29.999Z</time>
</trkpt>
<trkpt lat="43.659177" lon="3.831086">
<ele>154.8</ele>
<time>2013-05-08T05:01:30.999Z</time>
</trkpt>
<trkpt lat="43.658819" lon="3.831169">
<ele>153.4</ele>
<time>2013-05-08T05:01:31.999Z</time>
</trkpt>
<trkpt lat="43.658465" lon="3.831254">
<ele>152.1</ele>
<time>2013-05-08T05:01:32.999Z</time>
</trkpt>
<trkpt lat="43.658114" lon="3.831354">
<ele>150.9</ele>
<time>2013-05-08T05:01:33.999Z</time>
</trkpt>
<trkpt lat="43.657766" lon="3.831481">
<ele>149.6</ele>
<time>2013-05-08T05:01:34.999Z</time>
</trkpt>
<trkpt lat="43.657425" lon="3.831638">
<ele>148.3</ele>
<time>2013-05-08T05:01:35.999Z</time>
</trkpt>
<trkpt lat="43.657091" lon="3.831821">
<ele>146.9</ele>
<time>2013-05-08T05:01:36.999Z</time>
</trkpt>
<trkpt lat="43.65678" lon="3.83205">
<ele>145.4</ele>
<time>2013-05-08T05:01:37.999Z</time>
</trkpt>
<trkpt lat="43.656486" lon="3.832329">
<ele>144.3</ele>
<time>2013-05-08T05:01:38.999Z</time>
</trkpt>
<trkpt lat="43.656218" lon="3.832641">
<ele>143.4</ele>
<time>2013-05-08T05:01:39.999Z</time>
</trkpt>
<trkpt lat="43.655956" lon="3.832983">
<ele>142.4</ele>
<time>2013-05-08T05:01:40.999Z</time>
</trkpt>
<trkpt lat="43.655703" lon="3.833357">
<ele>141.7</ele>
<time>2013-05-08T05:01:41.999Z</time>
</trkpt>
<trkpt lat="43.655443" lon="3.833754">
<ele>141.2</ele>
<time>2013-05-08T05:01:42.999Z</time>
</trkpt>
<trkpt lat="43.655188" lon="3.834123">
<ele>140.5</ele>
<time>2013-05-08T05:01:43.999Z</time>
</trkpt>
<trkpt lat="43.654919" lon="3.834483">
<ele>139.9</ele>
<time>2013-05-08T05:01:44.999Z</time>
</trkpt>
<trkpt lat="43.654638" lon="3.834799">
<ele>139.6</ele>
<time>2013-05-08T05:01:45.999Z</time>
</trkpt>
<trkpt lat="43.654347" lon="3.835093">
<ele>139.3</ele>
<time>2013-05-08T05:01:46.999Z</time>
</trkpt>
<trkpt lat="43.654027" lon="3.835348">
<ele>139.9</ele>
<time>2013-05-08T05:01:47.999Z</time>
</trkpt>
<trkpt lat="43.653712" lon="3.835574">
<ele>140.8</ele>
<time>2013-05-08T05:01:48.999Z</time>
</trkpt>
<trkpt lat="43.653405" lon="3.835778">
<ele>141.7</ele>
<time>2013-05-08T05:01:49.999Z</time>
</trkpt>
<trkpt lat="43.6531" lon="3.835974">
<ele>142.3</ele>
<time>2013-05-08T05:01:50.999Z</time>
</trkpt>
<trkpt lat="43.652805" lon="3.83617">
<ele>142.7</ele>
<time>2013-05-08T05:01:51.999Z</time>
</trkpt>
<trkpt lat="43.652515" lon="3.836369">
<ele>142.8</ele>
<time>2013-05-08T05:01:52.999Z</time>
</trkpt>
<trkpt lat="43.652225" lon="3.836598">
<ele>142.9</ele>
<time>2013-05-08T05:01:53.999Z</time>
</trkpt>
<trkpt lat="43.651951" lon="3.836861">
<ele>143.1</ele>
<time>2013-05-08T05:01:54.999Z</time>
</trkpt>
<trkpt lat="43.651685" lon="3.837146">
<ele>143.3</ele>
<time>2013-05-08T05:01:55.999Z</time>
</trkpt>
<trkpt lat="43.651423" lon="3.837444">
<ele>143.5</ele>
<time>2013-05-08T05:01:56.999Z</time>
</trkpt>
<trkpt lat="43.65117" lon="3.837757">
<ele>143.7</ele>
<time>2013-05-08T05:01:57.999Z</time>
</trkpt>
<trkpt lat="43.650916" lon="3.838081">
<ele>143.9</ele>
<time>2013-05-08T05:01:58.999Z</time>
</trkpt>
<trkpt lat="43.650664" lon="3.838402">
<ele>144</ele>
<time>2013-05-08T05:01:59.999Z</time>
</trkpt>
<trkpt lat="43.650404" lon="3.838714">
<ele>144.2</ele>
<time>2013-05-08T05:02:00.999Z</time>
</trkpt>
<trkpt lat="43.650142" lon="3.839023">
<ele>144.4</ele>
<time>2013-05-08T05:02:01.999Z</time>
</trkpt>
<trkpt lat="43.649866" lon="3.839303">
<ele>144.5</ele>
<time>2013-05-08T05:02:02.999Z</time>
</trkpt>
<trkpt lat="43.649581" lon="3.839575">
<ele>144.5</ele>
<time>2013-05-08T05:02:03.999Z</time>
</trkpt>
<trkpt lat="43.64929" lon="3.839835">
<ele>144.7</ele>
<time>2013-05-08T05:02:04.999Z</time>
</trkpt>
<trkpt lat="43.649005" lon="3.8401">
<ele>144.5</ele>
<time>2013-05-08T05:02:05.999Z</time>
</trkpt>
<trkpt lat="43.648725" lon="3.840363">
<ele>144.2</ele>
<time>2013-05-08T05:02:06.999Z</time>
</trkpt>
<trkpt lat="43.64844" lon="3.840616">
<ele>144</ele>
<time>2013-05-08T05:02:07.999Z</time>
</trkpt>
<trkpt lat="43.648155" lon="3.840855">
<ele>143.8</ele>
<time>2013-05-08T05:02:08.999Z</time>
</trkpt>
<trkpt lat="43.647879" lon="3.841058">
<ele>143.1</ele>
<time>2013-05-08T05:02:09.999Z</time>
</trkpt>
<trkpt lat="43.647596" lon="3.84126">
<ele>142.3</ele>
<time>2013-05-08T05:02:10.999Z</time>
</trkpt>
<trkpt lat="43.647324" lon="3.841457">
<ele>141.1</ele>
<time>2013-05-08T05:02:11.999Z</time>
</trkpt>
<trkpt lat="43.647064" lon="3.841649">
<ele>139.9</ele>
<time>2013-05-08T05:02:12.999Z</time>
</trkpt>
<trkpt lat="43.646807" lon="3.841822">
<ele>138.7</ele>
<time>2013-05-08T05:02:13.999Z</time>
</trkpt>
<trkpt lat="43.646558" lon="3.841967">
<ele>137.4</ele>
<time>2013-05-08T05:02:14.999Z</time>
</trkpt>
<trkpt lat="43.646324" lon="3.842108">
<ele>136.1</ele>
<time>2013-05-08T05:02:15.999Z</time>
</trkpt>
<trkpt lat="43.646094" lon="3.842228">
<ele>134.8</ele>
<time>2013-05-08T05:02:16.999Z</time>
</trkpt>
<trkpt lat="43.645879" lon="3.842343">
<ele>133.6</ele>
<time>2013-05-08T05:02:17.999Z</time>
</trkpt>
<trkpt lat="43.645686" lon="3.84244">
<ele>132.4</ele>
<time>2013-05-08T05:02:18.999Z</time>
</trkpt>
<trkpt lat="43.645518" lon="3.84253">
<ele>131.6</ele>
<time>2013-05-08T05:02:19.999Z</time>
</trkpt>
<trkpt lat="43.64538" lon="3.842595">
<ele>131</ele>
<time>2013-05-08T05:02:20.999Z</time>
</trkpt>
<trkpt lat="43.645256" lon="3.842649">
<ele>130.1</ele>
<time>2013-05-08T05:02:21.999Z</time>
</trkpt>
<trkpt lat="43.64517" lon="3.842683">
<ele>129.3</ele>
<time>2013-05-08T05:02:22.999Z</time>
</trkpt>
<trkpt lat="43.645101" lon="3.842702">
<ele>128.4</ele>
<time>2013-05-08T05:02:23.999Z</time>
</trkpt>
<trkpt lat="43.645062" lon="3.842731">
<ele>128.1</ele>
<time>2013-05-08T05:02:27.999Z</time>
</trkpt>
<trkpt lat="43.64506" lon="3.842746">
<ele>128.1</ele>
<time>2013-05-08T05:02:28.999Z</time>
</trkpt>
<trkpt lat="43.645058" lon="3.842793">
<ele>128.1</ele>
<time>2013-05-08T05:02:29.999Z</time>
</trkpt>
<trkpt lat="43.645069" lon="3.842889">
<ele>128.1</ele>
<time>2013-05-08T05:02:30.999Z</time>
</trkpt>
<trkpt lat="43.645112" lon="3.843026">
<ele>128.2</ele>
<time>2013-05-08T05:02:31.999Z</time>
</trkpt>
<trkpt lat="43.645175" lon="3.843185">
<ele>128.1</ele>
<time>2013-05-08T05:02:32.999Z</time>
</trkpt>
<trkpt lat="43.645245" lon="3.843346">
<ele>127.9</ele>
<time>2013-05-08T05:02:33.999Z</time>
</trkpt>
<trkpt lat="43.645342" lon="3.84356">
<ele>128</ele>
<time>2013-05-08T05:02:34.999Z</time>
</trkpt>
<trkpt lat="43.645453" lon="3.84378">
<ele>128.2</ele>
<time>2013-05-08T05:02:35.999Z</time>
</trkpt>
<trkpt lat="43.645582" lon="3.844008">
<ele>128.1</ele>
<time>2013-05-08T05:02:36.999Z</time>
</trkpt>
<trkpt lat="43.645765" lon="3.844172">
<ele>127.8</ele>
<time>2013-05-08T05:02:37.999Z</time>
</trkpt>
<trkpt lat="43.645953" lon="3.844312">
<ele>127.4</ele>
<time>2013-05-08T05:02:38.999Z</time>
</trkpt>
<trkpt lat="43.646157" lon="3.84439">
<ele>126.5</ele>
<time>2013-05-08T05:02:39.999Z</time>
</trkpt>
<trkpt lat="43.646363" lon="3.84444">
<ele>126</ele>
<time>2013-05-08T05:02:40.999Z</time>
</trkpt>
<trkpt lat="43.646564" lon="3.844473">
<ele>125.5</ele>
<time>2013-05-08T05:02:41.999Z</time>
</trkpt>
<trkpt lat="43.646725" lon="3.844483">
<ele>125.6</ele>
<time>2013-05-08T05:02:42.999Z</time>
</trkpt>
<trkpt lat="43.646853" lon="3.844424">
<ele>126.2</ele>
<time>2013-05-08T05:02:43.999Z</time>
</trkpt>
<trkpt lat="43.646942" lon="3.844266">
<ele>126.2</ele>
<time>2013-05-08T05:02:44.999Z</time>
</trkpt>
<trkpt lat="43.64704" lon="3.844087">
<ele>125.9</ele>
<time>2013-05-08T05:02:45.999Z</time>
</trkpt>
<trkpt lat="43.647164" lon="3.84386">
<ele>125.7</ele>
<time>2013-05-08T05:02:46.999Z</time>
</trkpt>
<trkpt lat="43.647282" lon="3.843638">
<ele>125.6</ele>
<time>2013-05-08T05:02:47.999Z</time>
</trkpt>
<trkpt lat="43.647385" lon="3.843441">
<ele>125.4</ele>
<time>2013-05-08T05:02:48.999Z</time>
</trkpt>
<trkpt lat="43.647467" lon="3.843275">
<ele>125.5</ele>
<time>2013-05-08T05:02:49.999Z</time>
</trkpt>
<trkpt lat="43.647527" lon="3.843148">
<ele>125.7</ele>
<time>2013-05-08T05:02:50.999Z</time>
</trkpt>
<trkpt lat="43.647571" lon="3.843038">
<ele>126.1</ele>
<time>2013-05-08T05:02:51.999Z</time>
</trkpt>
<trkpt lat="43.647571" lon="3.842972">
<ele>126.6</ele>
<time>2013-05-08T05:02:52.999Z</time>
</trkpt>
<trkpt lat="43.647514" lon="3.842908">
<ele>126.9</ele>
<time>2013-05-08T05:02:53.999Z</time>
</trkpt>
<trkpt lat="43.647419" lon="3.842896">
<ele>127.2</ele>
<time>2013-05-08T05:02:54.999Z</time>
</trkpt>
<trkpt lat="43.647298" lon="3.842923">
<ele>127.4</ele>
<time>2013-05-08T05:02:55.999Z</time>
</trkpt>
<trkpt lat="43.647188" lon="3.842964">
<ele>127.6</ele>
<time>2013-05-08T05:02:56.999Z</time>
</trkpt>
<trkpt lat="43.647093" lon="3.843006">
<ele>127.7</ele>
<time>2013-05-08T05:02:57.999Z</time>
</trkpt>
<trkpt lat="43.647025" lon="3.843034">
<ele>128</ele>
<time>2013-05-08T05:02:58.999Z</time>
</trkpt>
<trkpt lat="43.646973" lon="3.843031">
<ele>128.1</ele>
<time>2013-05-08T05:02:59.999Z</time>
</trkpt>
<trkpt lat="43.646946" lon="3.843026">
<ele>128.4</ele>
<time>2013-05-08T05:03:00.999Z</time>
</trkpt>
<trkpt lat="43.646916" lon="3.843025">
<ele>128.4</ele>
<time>2013-05-08T05:03:01.999Z</time>
</trkpt>
<trkpt lat="43.646901" lon="3.843082">
<ele>123.2</ele>
<time>2013-05-08T05:08:24.999Z</time>
</trkpt>
<trkpt lat="43.6469" lon="3.843084">
<ele>123.1</ele>
<time>2013-05-08T05:08:25.999Z</time>
</trkpt>
<trkpt lat="43.646917" lon="3.843027">
<ele>122.5</ele>
<time>2013-05-08T05:09:07.000Z</time>
</trkpt>
<trkpt lat="43.646916" lon="3.843024">
<ele>122.5</ele>
<time>2013-05-08T05:09:08.000Z</time>
</trkpt>
<trkpt lat="43.646873" lon="3.843029">
<ele>122.3</ele>
<time>2013-05-08T05:09:46.000Z</time>
</trkpt>
<trkpt lat="43.646831" lon="3.843052">
<ele>122.3</ele>
<time>2013-05-08T05:09:47.000Z</time>
</trkpt>
<trkpt lat="43.646771" lon="3.843085">
<ele>122</ele>
<time>2013-05-08T05:09:48.000Z</time>
</trkpt>
<trkpt lat="43.646715" lon="3.843144">
<ele>122.2</ele>
<time>2013-05-08T05:09:49.000Z</time>
</trkpt>
<trkpt lat="43.64666" lon="3.843211">
<ele>122.3</ele>
<time>2013-05-08T05:09:50.000Z</time>
</trkpt>
<trkpt lat="43.646639" lon="3.843293">
<ele>122.3</ele>
<time>2013-05-08T05:09:51.000Z</time>
</trkpt>
<trkpt lat="43.646674" lon="3.843397">
<ele>122.6</ele>
<time>2013-05-08T05:09:52.000Z</time>
</trkpt>
<trkpt lat="43.646733" lon="3.843521">
<ele>123.1</ele>
<time>2013-05-08T05:09:53.000Z</time>
</trkpt>
<trkpt lat="43.646806" lon="3.843648">
<ele>123.2</ele>
<time>2013-05-08T05:09:54.000Z</time>
</trkpt>
<trkpt lat="43.646875" lon="3.843766">
<ele>123</ele>
<time>2013-05-08T05:09:55.000Z</time>
</trkpt>
<trkpt lat="43.646913" lon="3.843888">
<ele>122.9</ele>
<time>2013-05-08T05:09:56.000Z</time>
</trkpt>
<trkpt lat="43.646928" lon="3.843996">
<ele>122.6</ele>
<time>2013-05-08T05:09:57.000Z</time>
</trkpt>
<trkpt lat="43.646912" lon="3.844105">
<ele>122.1</ele>
<time>2013-05-08T05:09:58.000Z</time>
</trkpt>
<trkpt lat="43.646888" lon="3.844216">
<ele>122.2</ele>
<time>2013-05-08T05:09:59.000Z</time>
</trkpt>
<trkpt lat="43.6468" lon="3.844315">
<ele>122.5</ele>
<time>2013-05-08T05:10:00.000Z</time>
</trkpt>
<trkpt lat="43.646705" lon="3.84441">
<ele>122.8</ele>
<time>2013-05-08T05:10:01.000Z</time>
</trkpt>
<trkpt lat="43.646576" lon="3.844436">
<ele>123.1</ele>
<time>2013-05-08T05:10:02.000Z</time>
</trkpt>
<trkpt lat="43.6464" lon="3.844371">
<ele>123.9</ele>
<time>2013-05-08T05:10:03.000Z</time>
</trkpt>
<trkpt lat="43.646202" lon="3.844288">
<ele>124.6</ele>
<time>2013-05-08T05:10:04.000Z</time>
</trkpt>
<trkpt lat="43.646007" lon="3.844191">
<ele>125.1</ele>
<time>2013-05-08T05:10:05.000Z</time>
</trkpt>
<trkpt lat="43.645813" lon="3.844099">
<ele>125.4</ele>
<time>2013-05-08T05:10:06.000Z</time>
</trkpt>
<trkpt lat="43.645628" lon="3.843994">
<ele>125.5</ele>
<time>2013-05-08T05:10:07.000Z</time>
</trkpt>
<trkpt lat="43.645455" lon="3.843843">
<ele>125.7</ele>
<time>2013-05-08T05:10:08.000Z</time>
</trkpt>
<trkpt lat="43.645333" lon="3.843591">
<ele>126.2</ele>
<time>2013-05-08T05:10:09.000Z</time>
</trkpt>
<trkpt lat="43.645215" lon="3.843358">
<ele>126.4</ele>
<time>2013-05-08T05:10:10.000Z</time>
</trkpt>
<trkpt lat="43.645105" lon="3.843143">
<ele>126.8</ele>
<time>2013-05-08T05:10:11.000Z</time>
</trkpt>
<trkpt lat="43.645027" lon="3.842968">
<ele>127.1</ele>
<time>2013-05-08T05:10:12.000Z</time>
</trkpt>
<trkpt lat="43.64498" lon="3.842856">
<ele>127.2</ele>
<time>2013-05-08T05:10:13.000Z</time>
</trkpt>
<trkpt lat="43.644939" lon="3.842785">
<ele>127.2</ele>
<time>2013-05-08T05:10:14.000Z</time>
</trkpt>
<trkpt lat="43.644903" lon="3.842736">
<ele>127.4</ele>
<time>2013-05-08T05:10:15.000Z</time>
</trkpt>
<trkpt lat="43.644844" lon="3.842699">
<ele>127.2</ele>
<time>2013-05-08T05:10:16.000Z</time>
</trkpt>
<trkpt lat="43.64473" lon="3.842811">
<ele>127</ele>
<time>2013-05-08T05:10:17.000Z</time>
</trkpt>
<trkpt lat="43.644607" lon="3.842914">
<ele>126.7</ele>
<time>2013-05-08T05:10:18.000Z</time>
</trkpt>
<trkpt lat="43.64445" lon="3.843097">
<ele>125.8</ele>
<time>2013-05-08T05:10:19.000Z</time>
</trkpt>
<trkpt lat="43.644272" lon="3.843271">
<ele>124.7</ele>
<time>2013-05-08T05:10:20.000Z</time>
</trkpt>
<trkpt lat="43.644086" lon="3.843478">
<ele>123.7</ele>
<time>2013-05-08T05:10:21.000Z</time>
</trkpt>
<trkpt lat="43.643896" lon="3.843716">
<ele>122.4</ele>
<time>2013-05-08T05:10:22.000Z</time>
</trkpt>
<trkpt lat="43.643736" lon="3.843966">
<ele>120.9</ele>
<time>2013-05-08T05:10:23.000Z</time>
</trkpt>
<trkpt lat="43.64355" lon="3.844229">
<ele>120.4</ele>
<time>2013-05-08T05:10:24.000Z</time>
</trkpt>
<trkpt lat="43.643358" lon="3.844491">
<ele>119.9</ele>
<time>2013-05-08T05:10:25.000Z</time>
</trkpt>
<trkpt lat="43.643149" lon="3.844751">
<ele>120</ele>
<time>2013-05-08T05:10:26.000Z</time>
</trkpt>
<trkpt lat="43.642935" lon="3.844999">
<ele>121</ele>
<time>2013-05-08T05:10:27.000Z</time>
</trkpt>
<trkpt lat="43.642735" lon="3.845239">
<ele>122</ele>
<time>2013-05-08T05:10:28.000Z</time>
</trkpt>
<trkpt lat="43.642542" lon="3.845453">
<ele>122.3</ele>
<time>2013-05-08T05:10:29.000Z</time>
</trkpt>
<trkpt lat="43.642347" lon="3.845655">
<ele>122.2</ele>
<time>2013-05-08T05:10:30.000Z</time>
</trkpt>
<trkpt lat="43.642171" lon="3.845842">
<ele>121.7</ele>
<time>2013-05-08T05:10:31.000Z</time>
</trkpt>
<trkpt lat="43.641993" lon="3.846011">
<ele>120.6</ele>
<time>2013-05-08T05:10:32.000Z</time>
</trkpt>
<trkpt lat="43.641817" lon="3.846158">
<ele>119.5</ele>
<time>2013-05-08T05:10:33.000Z</time>
</trkpt>
<trkpt lat="43.641644" lon="3.8463">
<ele>118.3</ele>
<time>2013-05-08T05:10:34.000Z</time>
</trkpt>
<trkpt lat="43.641474" lon="3.846438">
<ele>117</ele>
<time>2013-05-08T05:10:35.000Z</time>
</trkpt>
<trkpt lat="43.641309" lon="3.846567">
<ele>115.7</ele>
<time>2013-05-08T05:10:36.000Z</time>
</trkpt>
<trkpt lat="43.641158" lon="3.846685">
<ele>114.4</ele>
<time>2013-05-08T05:10:37.000Z</time>
</trkpt>
<trkpt lat="43.641007" lon="3.846801">
<ele>113.5</ele>
<time>2013-05-08T05:10:38.000Z</time>
</trkpt>
<trkpt lat="43.640856" lon="3.846917">
<ele>112.8</ele>
<time>2013-05-08T05:10:39.000Z</time>
</trkpt>
<trkpt lat="43.640703" lon="3.847033">
<ele>112.2</ele>
<time>2013-05-08T05:10:40.000Z</time>
</trkpt>
<trkpt lat="43.640582" lon="3.84722">
<ele>112.8</ele>
<time>2013-05-08T05:10:41.000Z</time>
</trkpt>
<trkpt lat="43.639974" lon="3.847004">
<ele>114.5</ele>
<time>2013-05-08T05:10:44.000Z</time>
</trkpt>
<trkpt lat="43.639763" lon="3.846876">
<ele>115.9</ele>
<time>2013-05-08T05:10:45.000Z</time>
</trkpt>
<trkpt lat="43.639543" lon="3.846827">
<ele>116.2</ele>
<time>2013-05-08T05:10:46.000Z</time>
</trkpt>
<trkpt lat="43.639313" lon="3.846743">
<ele>116.2</ele>
<time>2013-05-08T05:10:47.000Z</time>
</trkpt>
<trkpt lat="43.639116" lon="3.846592">
<ele>115.7</ele>
<time>2013-05-08T05:10:48.000Z</time>
</trkpt>
<trkpt lat="43.638902" lon="3.846499">
<ele>114.9</ele>
<time>2013-05-08T05:10:49.000Z</time>
</trkpt>
<trkpt lat="43.638696" lon="3.84639">
<ele>114.1</ele>
<time>2013-05-08T05:10:50.000Z</time>
</trkpt>
<trkpt lat="43.638495" lon="3.846291">
<ele>113</ele>
<time>2013-05-08T05:10:51.000Z</time>
</trkpt>
<trkpt lat="43.638294" lon="3.846181">
<ele>111.7</ele>
<time>2013-05-08T05:10:52.000Z</time>
</trkpt>
<trkpt lat="43.638096" lon="3.846042">
<ele>110.8</ele>
<time>2013-05-08T05:10:53.000Z</time>
</trkpt>
<trkpt lat="43.637892" lon="3.845882">
<ele>110.5</ele>
<time>2013-05-08T05:10:54.000Z</time>
</trkpt>
<trkpt lat="43.637684" lon="3.845708">
<ele>110</ele>
<time>2013-05-08T05:10:55.000Z</time>
</trkpt>
<trkpt lat="43.637475" lon="3.845529">
<ele>109.6</ele>
<time>2013-05-08T05:10:56.000Z</time>
</trkpt>
<trkpt lat="43.637266" lon="3.845346">
<ele>109.3</ele>
<time>2013-05-08T05:10:57.000Z</time>
</trkpt>
<trkpt lat="43.637056" lon="3.845163">
<ele>109.1</ele>
<time>2013-05-08T05:10:58.000Z</time>
</trkpt>
<trkpt lat="43.636853" lon="3.844981">
<ele>108.9</ele>
<time>2013-05-08T05:10:59.000Z</time>
</trkpt>
<trkpt lat="43.636654" lon="3.844801">
<ele>109</ele>
<time>2013-05-08T05:11:00.000Z</time>
</trkpt>
<trkpt lat="43.636448" lon="3.844637">
<ele>109.3</ele>
<time>2013-05-08T05:11:01.000Z</time>
</trkpt>
<trkpt lat="43.636241" lon="3.844491">
<ele>109.8</ele>
<time>2013-05-08T05:11:02.000Z</time>
</trkpt>
<trkpt lat="43.636047" lon="3.844349">
<ele>110.4</ele>
<time>2013-05-08T05:11:03.000Z</time>
</trkpt>
<trkpt lat="43.63585" lon="3.84422">
<ele>110.9</ele>
<time>2013-05-08T05:11:04.000Z</time>
</trkpt>
<trkpt lat="43.635644" lon="3.844115">
<ele>111.3</ele>
<time>2013-05-08T05:11:05.000Z</time>
</trkpt>
<trkpt lat="43.63544" lon="3.844012">
<ele>111</ele>
<time>2013-05-08T05:11:06.000Z</time>
</trkpt>
<trkpt lat="43.635233" lon="3.843902">
<ele>110.3</ele>
<time>2013-05-08T05:11:07.000Z</time>
</trkpt>
<trkpt lat="43.635016" lon="3.843783">
<ele>109.5</ele>
<time>2013-05-08T05:11:08.000Z</time>
</trkpt>
<trkpt lat="43.634802" lon="3.843659">
<ele>108.7</ele>
<time>2013-05-08T05:11:09.000Z</time>
</trkpt>
<trkpt lat="43.634611" lon="3.843554">
<ele>108</ele>
<time>2013-05-08T05:11:10.000Z</time>
</trkpt>
<trkpt lat="43.634444" lon="3.843472">
<ele>107.2</ele>
<time>2013-05-08T05:11:11.000Z</time>
</trkpt>
<trkpt lat="43.634308" lon="3.843409">
<ele>106.4</ele>
<time>2013-05-08T05:11:12.000Z</time>
</trkpt>
<trkpt lat="43.634196" lon="3.843358">
<ele>105.8</ele>
<time>2013-05-08T05:11:13.000Z</time>
</trkpt>
<trkpt lat="43.6341" lon="3.843314">
<ele>105.1</ele>
<time>2013-05-08T05:11:14.000Z</time>
</trkpt>
<trkpt lat="43.634037" lon="3.84328">
<ele>104.6</ele>
<time>2013-05-08T05:11:15.000Z</time>
</trkpt>
<trkpt lat="43.633987" lon="3.843259">
<ele>104.3</ele>
<time>2013-05-08T05:11:16.000Z</time>
</trkpt>
<trkpt lat="43.633961" lon="3.843243">
<ele>104.4</ele>
<time>2013-05-08T05:11:17.000Z</time>
</trkpt>
<trkpt lat="43.633944" lon="3.843234">
<ele>104.4</ele>
<time>2013-05-08T05:11:18.000Z</time>
</trkpt>
<trkpt lat="43.63394" lon="3.843227">
<ele>104.4</ele>
<time>2013-05-08T05:11:22.000Z</time>
</trkpt>
<trkpt lat="43.633886" lon="3.843181">
<ele>104.2</ele>
<time>2013-05-08T05:11:23.000Z</time>
</trkpt>
<trkpt lat="43.633804" lon="3.843128">
<ele>104.3</ele>
<time>2013-05-08T05:11:24.000Z</time>
</trkpt>
<trkpt lat="43.633685" lon="3.843082">
<ele>104.2</ele>
<time>2013-05-08T05:11:25.000Z</time>
</trkpt>
<trkpt lat="43.633509" lon="3.843048">
<ele>104.1</ele>
<time>2013-05-08T05:11:26.000Z</time>
</trkpt>
<trkpt lat="43.633304" lon="3.843002">
<ele>103.8</ele>
<time>2013-05-08T05:11:27.000Z</time>
</trkpt>
<trkpt lat="43.633071" lon="3.84296">
<ele>103.2</ele>
<time>2013-05-08T05:11:28.000Z</time>
</trkpt>
<trkpt lat="43.632834" lon="3.842905">
<ele>102.5</ele>
<time>2013-05-08T05:11:29.000Z</time>
</trkpt>
<trkpt lat="43.632604" lon="3.842825">
<ele>102</ele>
<time>2013-05-08T05:11:30.000Z</time>
</trkpt>
<trkpt lat="43.632389" lon="3.842735">
<ele>101.5</ele>
<time>2013-05-08T05:11:31.000Z</time>
</trkpt>
<trkpt lat="43.632194" lon="3.842639">
<ele>101.2</ele>
<time>2013-05-08T05:11:32.000Z</time>
</trkpt>
<trkpt lat="43.632028" lon="3.842536">
<ele>100.8</ele>
<time>2013-05-08T05:11:33.000Z</time>
</trkpt>
<trkpt lat="43.631884" lon="3.842435">
<ele>100.8</ele>
<time>2013-05-08T05:11:34.000Z</time>
</trkpt>
<trkpt lat="43.631757" lon="3.842327">
<ele>101</ele>
<time>2013-05-08T05:11:35.000Z</time>
</trkpt>
<trkpt lat="43.631641" lon="3.842219">
<ele>101.1</ele>
<time>2013-05-08T05:11:36.000Z</time>
</trkpt>
<trkpt lat="43.631571" lon="3.842053">
<ele>101.4</ele>
<time>2013-05-08T05:11:37.000Z</time>
</trkpt>
<trkpt lat="43.631503" lon="3.841875">
<ele>101.8</ele>
<time>2013-05-08T05:11:38.000Z</time>
</trkpt>
<trkpt lat="43.631434" lon="3.841711">
<ele>101.5</ele>
<time>2013-05-08T05:11:39.000Z</time>
</trkpt>
<trkpt lat="43.631359" lon="3.841549">
<ele>101.3</ele>
<time>2013-05-08T05:11:40.000Z</time>
</trkpt>
<trkpt lat="43.631233" lon="3.841481">
<ele>102.1</ele>
<time>2013-05-08T05:11:41.000Z</time>
</trkpt>
<trkpt lat="43.631094" lon="3.84148">
<ele>102.6</ele>
<time>2013-05-08T05:11:42.000Z</time>
</trkpt>
<trkpt lat="43.630958" lon="3.841522">
<ele>102.5</ele>
<time>2013-05-08T05:11:43.000Z</time>
</trkpt>
<trkpt lat="43.630815" lon="3.841579">
<ele>102.5</ele>
<time>2013-05-08T05:11:44.000Z</time>
</trkpt>
<trkpt lat="43.630648" lon="3.841653">
<ele>102.3</ele>
<time>2013-05-08T05:11:45.000Z</time>
</trkpt>
<trkpt lat="43.630451" lon="3.841691">
<ele>102.3</ele>
<time>2013-05-08T05:11:46.000Z</time>
</trkpt>
<trkpt lat="43.630253" lon="3.841702">
<ele>102.6</ele>
<time>2013-05-08T05:11:47.000Z</time>
</trkpt>
<trkpt lat="43.630023" lon="3.841705">
<ele>103</ele>
<time>2013-05-08T05:11:48.000Z</time>
</trkpt>
<trkpt lat="43.629792" lon="3.84167">
<ele>103.6</ele>
<time>2013-05-08T05:11:49.000Z</time>
</trkpt>
<trkpt lat="43.629556" lon="3.841612">
<ele>104.3</ele>
<time>2013-05-08T05:11:50.000Z</time>
</trkpt>
<trkpt lat="43.629315" lon="3.841521">
<ele>104.8</ele>
<time>2013-05-08T05:11:51.000Z</time>
</trkpt>
<trkpt lat="43.629075" lon="3.841386">
<ele>105.2</ele>
<time>2013-05-08T05:11:52.000Z</time>
</trkpt>
<trkpt lat="43.628837" lon="3.841217">
<ele>105.7</ele>
<time>2013-05-08T05:11:53.000Z</time>
</trkpt>
<trkpt lat="43.628604" lon="3.841028">
<ele>106</ele>
<time>2013-05-08T05:11:54.000Z</time>
</trkpt>
<trkpt lat="43.628371" lon="3.840825">
<ele>106.4</ele>
<time>2013-05-08T05:11:55.000Z</time>
</trkpt>
<trkpt lat="43.628139" lon="3.840609">
<ele>107</ele>
<time>2013-05-08T05:11:56.000Z</time>
</trkpt>
<trkpt lat="43.627912" lon="3.840369">
<ele>107.6</ele>
<time>2013-05-08T05:11:57.000Z</time>
</trkpt>
<trkpt lat="43.627692" lon="3.840115">
<ele>108.4</ele>
<time>2013-05-08T05:11:58.000Z</time>
</trkpt>
<trkpt lat="43.62748" lon="3.839858">
<ele>109.1</ele>
<time>2013-05-08T05:11:59.000Z</time>
</trkpt>
<trkpt lat="43.627277" lon="3.839583">
<ele>109.9</ele>
<time>2013-05-08T05:12:00.000Z</time>
</trkpt>
<trkpt lat="43.62708" lon="3.839299">
<ele>110.6</ele>
<time>2013-05-08T05:12:01.000Z</time>
</trkpt>
<trkpt lat="43.626886" lon="3.839015">
<ele>111.4</ele>
<time>2013-05-08T05:12:02.000Z</time>
</trkpt>
<trkpt lat="43.626705" lon="3.838716">
<ele>112.1</ele>
<time>2013-05-08T05:12:03.000Z</time>
</trkpt>
<trkpt lat="43.626529" lon="3.838423">
<ele>113.1</ele>
<time>2013-05-08T05:12:04.000Z</time>
</trkpt>
<trkpt lat="43.626369" lon="3.838141">
<ele>113.9</ele>
<time>2013-05-08T05:12:05.000Z</time>
</trkpt>
<trkpt lat="43.626221" lon="3.837868">
<ele>115.2</ele>
<time>2013-05-08T05:12:06.000Z</time>
</trkpt>
<trkpt lat="43.626083" lon="3.837617">
<ele>116.6</ele>
<time>2013-05-08T05:12:07.000Z</time>
</trkpt>
<trkpt lat="43.625954" lon="3.837386">
<ele>117.8</ele>
<time>2013-05-08T05:12:08.000Z</time>
</trkpt>
<trkpt lat="43.625827" lon="3.837181">
<ele>118.6</ele>
<time>2013-05-08T05:12:09.000Z</time>
</trkpt>
<trkpt lat="43.625709" lon="3.837008">
<ele>119.2</ele>
<time>2013-05-08T05:12:10.000Z</time>
</trkpt>
<trkpt lat="43.625611" lon="3.836847">
<ele>119.6</ele>
<time>2013-05-08T05:12:11.000Z</time>
</trkpt>
<trkpt lat="43.625526" lon="3.836693">
<ele>119.7</ele>
<time>2013-05-08T05:12:12.000Z</time>
</trkpt>
<trkpt lat="43.625502" lon="3.836495">
<ele>119.9</ele>
<time>2013-05-08T05:12:13.000Z</time>
</trkpt>
<trkpt lat="43.625489" lon="3.836299">
<ele>120.1</ele>
<time>2013-05-08T05:12:14.000Z</time>
</trkpt>
<trkpt lat="43.62548" lon="3.836091">
<ele>120.3</ele>
<time>2013-05-08T05:12:15.000Z</time>
</trkpt>
<trkpt lat="43.625426" lon="3.835929">
<ele>120</ele>
<time>2013-05-08T05:12:16.000Z</time>
</trkpt>
<trkpt lat="43.625364" lon="3.835764">
<ele>120.2</ele>
<time>2013-05-08T05:12:17.000Z</time>
</trkpt>
<trkpt lat="43.625249" lon="3.835636">
<ele>120.4</ele>
<time>2013-05-08T05:12:18.000Z</time>
</trkpt>
<trkpt lat="43.625129" lon="3.835517">
<ele>120.8</ele>
<time>2013-05-08T05:12:19.000Z</time>
</trkpt>
<trkpt lat="43.625029" lon="3.835362">
<ele>121.1</ele>
<time>2013-05-08T05:12:20.000Z</time>
</trkpt>
<trkpt lat="43.624932" lon="3.835197">
<ele>121.3</ele>
<time>2013-05-08T05:12:21.000Z</time>
</trkpt>
<trkpt lat="43.624843" lon="3.835026">
<ele>121</ele>
<time>2013-05-08T05:12:22.000Z</time>
</trkpt>
<trkpt lat="43.624755" lon="3.834842">
<ele>120.5</ele>
<time>2013-05-08T05:12:23.000Z</time>
</trkpt>
<trkpt lat="43.624642" lon="3.834623">
<ele>120.2</ele>
<time>2013-05-08T05:12:24.000Z</time>
</trkpt>
<trkpt lat="43.624493" lon="3.834409">
<ele>120.5</ele>
<time>2013-05-08T05:12:25.000Z</time>
</trkpt>
<trkpt lat="43.624322" lon="3.834191">
<ele>120.7</ele>
<time>2013-05-08T05:12:26.000Z</time>
</trkpt>
<trkpt lat="43.624128" lon="3.834027">
<ele>120.4</ele>
<time>2013-05-08T05:12:27.000Z</time>
</trkpt>
<trkpt lat="43.623934" lon="3.833897">
<ele>120.2</ele>
<time>2013-05-08T05:12:28.000Z</time>
</trkpt>
<trkpt lat="43.623753" lon="3.833782">
<ele>120.1</ele>
<time>2013-05-08T05:12:29.000Z</time>
</trkpt>
<trkpt lat="43.623588" lon="3.833669">
<ele>120</ele>
<time>2013-05-08T05:12:30.000Z</time>
</trkpt>
<trkpt lat="43.62346" lon="3.833522">
<ele>119.7</ele>
<time>2013-05-08T05:12:31.000Z</time>
</trkpt>
<trkpt lat="43.623339" lon="3.833354">
<ele>119.3</ele>
<time>2013-05-08T05:12:32.000Z</time>
</trkpt>
<trkpt lat="43.623217" lon="3.833171">
<ele>118.8</ele>
<time>2013-05-08T05:12:33.000Z</time>
</trkpt>
<trkpt lat="43.623097" lon="3.832977">
<ele>118.3</ele>
<time>2013-05-08T05:12:34.000Z</time>
</trkpt>
<trkpt lat="43.623016" lon="3.832738">
<ele>118.5</ele>
<time>2013-05-08T05:12:35.000Z</time>
</trkpt>
<trkpt lat="43.622997" lon="3.832484">
<ele>118</ele>
<time>2013-05-08T05:12:36.000Z</time>
</trkpt>
<trkpt lat="43.623007" lon="3.832211">
<ele>117.3</ele>
<time>2013-05-08T05:12:37.000Z</time>
</trkpt>
<trkpt lat="43.623013" lon="3.831923">
<ele>117</ele>
<time>2013-05-08T05:12:38.000Z</time>
</trkpt>
<trkpt lat="43.623083" lon="3.831605">
<ele>117.1</ele>
<time>2013-05-08T05:12:39.000Z</time>
</trkpt>
<trkpt lat="43.623167" lon="3.831282">
<ele>117.2</ele>
<time>2013-05-08T05:12:40.000Z</time>
</trkpt>
<trkpt lat="43.623273" lon="3.830945">
<ele>117.5</ele>
<time>2013-05-08T05:12:41.000Z</time>
</trkpt>
<trkpt lat="43.623409" lon="3.830586">
<ele>117.8</ele>
<time>2013-05-08T05:12:42.000Z</time>
</trkpt>
<trkpt lat="43.623525" lon="3.830236">
<ele>118</ele>
<time>2013-05-08T05:12:43.000Z</time>
</trkpt>
<trkpt lat="43.623634" lon="3.829889">
<ele>118</ele>
<time>2013-05-08T05:12:44.000Z</time>
</trkpt>
<trkpt lat="43.623749" lon="3.829542">
<ele>117.9</ele>
<time>2013-05-08T05:12:45.000Z</time>
</trkpt>
<trkpt lat="43.623873" lon="3.829207">
<ele>117.7</ele>
<time>2013-05-08T05:12:46.000Z</time>
</trkpt>
<trkpt lat="43.62401" lon="3.828876">
<ele>117.4</ele>
<time>2013-05-08T05:12:47.000Z</time>
</trkpt>
<trkpt lat="43.624162" lon="3.828564">
<ele>117.3</ele>
<time>2013-05-08T05:12:48.000Z</time>
</trkpt>
<trkpt lat="43.62431" lon="3.828265">
<ele>117.1</ele>
<time>2013-05-08T05:12:49.000Z</time>
</trkpt>
<trkpt lat="43.624451" lon="3.827986">
<ele>116.9</ele>
<time>2013-05-08T05:12:50.000Z</time>
</trkpt>
<trkpt lat="43.624579" lon="3.827738">
<ele>116.6</ele>
<time>2013-05-08T05:12:51.000Z</time>
</trkpt>
<trkpt lat="43.624684" lon="3.827511">
<ele>116.1</ele>
<time>2013-05-08T05:12:52.000Z</time>
</trkpt>
<trkpt lat="43.624752" lon="3.827304">
<ele>115.5</ele>
<time>2013-05-08T05:12:53.000Z</time>
</trkpt>
<trkpt lat="43.624792" lon="3.827091">
<ele>115</ele>
<time>2013-05-08T05:12:54.000Z</time>
</trkpt>
<trkpt lat="43.624836" lon="3.826876">
<ele>115.3</ele>
<time>2013-05-08T05:12:55.000Z</time>
</trkpt>
<trkpt lat="43.624862" lon="3.826686">
<ele>115.3</ele>
<time>2013-05-08T05:12:56.000Z</time>
</trkpt>
<trkpt lat="43.624879" lon="3.826532">
<ele>115.3</ele>
<time>2013-05-08T05:12:57.000Z</time>
</trkpt>
<trkpt lat="43.624891" lon="3.826399">
<ele>115.1</ele>
<time>2013-05-08T05:12:58.000Z</time>
</trkpt>
<trkpt lat="43.624875" lon="3.826263">
<ele>115.2</ele>
<time>2013-05-08T05:12:59.000Z</time>
</trkpt>
<trkpt lat="43.624813" lon="3.826124">
<ele>114.6</ele>
<time>2013-05-08T05:13:00.000Z</time>
</trkpt>
<trkpt lat="43.624715" lon="3.82597">
<ele>114.1</ele>
<time>2013-05-08T05:13:01.000Z</time>
</trkpt>
<trkpt lat="43.624602" lon="3.825793">
<ele>113.5</ele>
<time>2013-05-08T05:13:02.000Z</time>
</trkpt>
<trkpt lat="43.624482" lon="3.825584">
<ele>112.9</ele>
<time>2013-05-08T05:13:03.000Z</time>
</trkpt>
<trkpt lat="43.624359" lon="3.825352">
<ele>112.4</ele>
<time>2013-05-08T05:13:04.000Z</time>
</trkpt>
<trkpt lat="43.624223" lon="3.825131">
<ele>112</ele>
<time>2013-05-08T05:13:05.000Z</time>
</trkpt>
<trkpt lat="43.624074" lon="3.824865">
<ele>111.4</ele>
<time>2013-05-08T05:13:06.000Z</time>
</trkpt>
<trkpt lat="43.623909" lon="3.824626">
<ele>111</ele>
<time>2013-05-08T05:13:07.000Z</time>
</trkpt>
<trkpt lat="43.623733" lon="3.824386">
<ele>110.6</ele>
<time>2013-05-08T05:13:08.000Z</time>
</trkpt>
<trkpt lat="43.623554" lon="3.824144">
<ele>110.2</ele>
<time>2013-05-08T05:13:09.000Z</time>
</trkpt>
<trkpt lat="43.623369" lon="3.823904">
<ele>109.4</ele>
<time>2013-05-08T05:13:10.000Z</time>
</trkpt>
<trkpt lat="43.623201" lon="3.823678">
<ele>108.7</ele>
<time>2013-05-08T05:13:11.000Z</time>
</trkpt>
<trkpt lat="43.623046" lon="3.823466">
<ele>107.9</ele>
<time>2013-05-08T05:13:12.000Z</time>
</trkpt>
<trkpt lat="43.622897" lon="3.823263">
<ele>107.3</ele>
<time>2013-05-08T05:13:13.000Z</time>
</trkpt>
<trkpt lat="43.622761" lon="3.823071">
<ele>106.8</ele>
<time>2013-05-08T05:13:14.000Z</time>
</trkpt>
<trkpt lat="43.622626" lon="3.822898">
<ele>106.5</ele>
<time>2013-05-08T05:13:15.000Z</time>
</trkpt>
<trkpt lat="43.622486" lon="3.822791">
<ele>106.1</ele>
<time>2013-05-08T05:13:16.000Z</time>
</trkpt>
<trkpt lat="43.622352" lon="3.822696">
<ele>105.5</ele>
<time>2013-05-08T05:13:17.000Z</time>
</trkpt>
<trkpt lat="43.622213" lon="3.822608">
<ele>104.5</ele>
<time>2013-05-08T05:13:18.000Z</time>
</trkpt>
<trkpt lat="43.622105" lon="3.822528">
<ele>103.5</ele>
<time>2013-05-08T05:13:19.000Z</time>
</trkpt>
<trkpt lat="43.622025" lon="3.822472">
<ele>103.1</ele>
<time>2013-05-08T05:13:20.000Z</time>
</trkpt>
<trkpt lat="43.621935" lon="3.822486">
<ele>102.5</ele>
<time>2013-05-08T05:13:21.000Z</time>
</trkpt>
<trkpt lat="43.62183" lon="3.822524">
<ele>101.9</ele>
<time>2013-05-08T05:13:22.000Z</time>
</trkpt>
<trkpt lat="43.621693" lon="3.822587">
<ele>101.2</ele>
<time>2013-05-08T05:13:23.000Z</time>
</trkpt>
<trkpt lat="43.621513" lon="3.822607">
<ele>100.8</ele>
<time>2013-05-08T05:13:24.000Z</time>
</trkpt>
<trkpt lat="43.621307" lon="3.822605">
<ele>100.8</ele>
<time>2013-05-08T05:13:25.000Z</time>
</trkpt>
<trkpt lat="43.621087" lon="3.822591">
<ele>100.5</ele>
<time>2013-05-08T05:13:26.000Z</time>
</trkpt>
<trkpt lat="43.620854" lon="3.822552">
<ele>100.1</ele>
<time>2013-05-08T05:13:27.000Z</time>
</trkpt>
<trkpt lat="43.620606" lon="3.822488">
<ele>99.7</ele>
<time>2013-05-08T05:13:28.000Z</time>
</trkpt>
<trkpt lat="43.620363" lon="3.822399">
<ele>99.7</ele>
<time>2013-05-08T05:13:29.000Z</time>
</trkpt>
<trkpt lat="43.620116" lon="3.82229">
<ele>100.1</ele>
<time>2013-05-08T05:13:30.000Z</time>
</trkpt>
<trkpt lat="43.619861" lon="3.82216">
<ele>100.5</ele>
<time>2013-05-08T05:13:31.000Z</time>
</trkpt>
<trkpt lat="43.619598" lon="3.822016">
<ele>100.8</ele>
<time>2013-05-08T05:13:32.000Z</time>
</trkpt>
<trkpt lat="43.619333" lon="3.821835">
<ele>101</ele>
<time>2013-05-08T05:13:33.000Z</time>
</trkpt>
<trkpt lat="43.619067" lon="3.821632">
<ele>100.9</ele>
<time>2013-05-08T05:13:34.000Z</time>
</trkpt>
<trkpt lat="43.618805" lon="3.821422">
<ele>100.7</ele>
<time>2013-05-08T05:13:35.000Z</time>
</trkpt>
<trkpt lat="43.618543" lon="3.821205">
<ele>100.3</ele>
<time>2013-05-08T05:13:36.000Z</time>
</trkpt>
<trkpt lat="43.618285" lon="3.820981">
<ele>99.8</ele>
<time>2013-05-08T05:13:37.000Z</time>
</trkpt>
<trkpt lat="43.618031" lon="3.820762">
<ele>99.3</ele>
<time>2013-05-08T05:13:38.000Z</time>
</trkpt>
<trkpt lat="43.617779" lon="3.820546">
<ele>98.8</ele>
<time>2013-05-08T05:13:39.000Z</time>
</trkpt>
<trkpt lat="43.617532" lon="3.820344">
<ele>98.2</ele>
<time>2013-05-08T05:13:40.000Z</time>
</trkpt>
<trkpt lat="43.61728" lon="3.820167">
<ele>97.6</ele>
<time>2013-05-08T05:13:41.000Z</time>
</trkpt>
<trkpt lat="43.617028" lon="3.820049">
<ele>97.4</ele>
<time>2013-05-08T05:13:42.000Z</time>
</trkpt>
<trkpt lat="43.616784" lon="3.820004">
<ele>97.3</ele>
<time>2013-05-08T05:13:43.000Z</time>
</trkpt>
<trkpt lat="43.616543" lon="3.820044">
<ele>97.2</ele>
<time>2013-05-08T05:13:44.000Z</time>
</trkpt>
<trkpt lat="43.616302" lon="3.82013">
<ele>96.9</ele>
<time>2013-05-08T05:13:45.000Z</time>
</trkpt>
<trkpt lat="43.616059" lon="3.820275">
<ele>96.7</ele>
<time>2013-05-08T05:13:46.000Z</time>
</trkpt>
<trkpt lat="43.615809" lon="3.820444">
<ele>96.5</ele>
<time>2013-05-08T05:13:47.000Z</time>
</trkpt>
<trkpt lat="43.615558" lon="3.820632">
<ele>96.4</ele>
<time>2013-05-08T05:13:48.000Z</time>
</trkpt>
<trkpt lat="43.615297" lon="3.820824">
<ele>96.4</ele>
<time>2013-05-08T05:13:49.000Z</time>
</trkpt>
<trkpt lat="43.615032" lon="3.82102">
<ele>96.5</ele>
<time>2013-05-08T05:13:50.000Z</time>
</trkpt>
<trkpt lat="43.614765" lon="3.821221">
<ele>96.5</ele>
<time>2013-05-08T05:13:51.000Z</time>
</trkpt>
<trkpt lat="43.614492" lon="3.821426">
<ele>96.4</ele>
<time>2013-05-08T05:13:52.000Z</time>
</trkpt>
<trkpt lat="43.614216" lon="3.821633">
<ele>96.1</ele>
<time>2013-05-08T05:13:53.000Z</time>
</trkpt>
<trkpt lat="43.613936" lon="3.821837">
<ele>95.8</ele>
<time>2013-05-08T05:13:54.000Z</time>
</trkpt>
<trkpt lat="43.613654" lon="3.822057">
<ele>95.5</ele>
<time>2013-05-08T05:13:55.000Z</time>
</trkpt>
<trkpt lat="43.613384" lon="3.822267">
<ele>95.3</ele>
<time>2013-05-08T05:13:56.000Z</time>
</trkpt>
<trkpt lat="43.613124" lon="3.822487">
<ele>95.2</ele>
<time>2013-05-08T05:13:57.000Z</time>
</trkpt>
<trkpt lat="43.612888" lon="3.822736">
<ele>95.3</ele>
<time>2013-05-08T05:13:58.000Z</time>
</trkpt>
<trkpt lat="43.612674" lon="3.823014">
<ele>95.7</ele>
<time>2013-05-08T05:13:59.000Z</time>
</trkpt>
<trkpt lat="43.612481" lon="3.823316">
<ele>96.1</ele>
<time>2013-05-08T05:14:00.000Z</time>
</trkpt>
<trkpt lat="43.612305" lon="3.823622">
<ele>96.5</ele>
<time>2013-05-08T05:14:01.000Z</time>
</trkpt>
<trkpt lat="43.612152" lon="3.823949">
<ele>96.8</ele>
<time>2013-05-08T05:14:02.000Z</time>
</trkpt>
<trkpt lat="43.612009" lon="3.824309">
<ele>97.3</ele>
<time>2013-05-08T05:14:03.000Z</time>
</trkpt>
<trkpt lat="43.611899" lon="3.824678">
<ele>97.9</ele>
<time>2013-05-08T05:14:04.000Z</time>
</trkpt>
<trkpt lat="43.611805" lon="3.825053">
<ele>98.4</ele>
<time>2013-05-08T05:14:05.000Z</time>
</trkpt>
<trkpt lat="43.611732" lon="3.825436">
<ele>99</ele>
<time>2013-05-08T05:14:06.000Z</time>
</trkpt>
<trkpt lat="43.611695" lon="3.825816">
<ele>100</ele>
<time>2013-05-08T05:14:07.000Z</time>
</trkpt>
<trkpt lat="43.611664" lon="3.826185">
<ele>100.6</ele>
<time>2013-05-08T05:14:08.000Z</time>
</trkpt>
<trkpt lat="43.611643" lon="3.826535">
<ele>101</ele>
<time>2013-05-08T05:14:09.000Z</time>
</trkpt>
<trkpt lat="43.611616" lon="3.826858">
<ele>101.1</ele>
<time>2013-05-08T05:14:10.000Z</time>
</trkpt>
<trkpt lat="43.611588" lon="3.827144">
<ele>101.5</ele>
<time>2013-05-08T05:14:11.000Z</time>
</trkpt>
<trkpt lat="43.611557" lon="3.827383">
<ele>102.2</ele>
<time>2013-05-08T05:14:12.000Z</time>
</trkpt>
<trkpt lat="43.61153" lon="3.827603">
<ele>102.8</ele>
<time>2013-05-08T05:14:13.000Z</time>
</trkpt>
<trkpt lat="43.6115" lon="3.827787">
<ele>103.4</ele>
<time>2013-05-08T05:14:14.000Z</time>
</trkpt>
<trkpt lat="43.611474" lon="3.827941">
<ele>104.1</ele>
<time>2013-05-08T05:14:15.000Z</time>
</trkpt>
<trkpt lat="43.61145" lon="3.828071">
<ele>104.9</ele>
<time>2013-05-08T05:14:16.000Z</time>
</trkpt>
<trkpt lat="43.611428" lon="3.828189">
<ele>105.8</ele>
<time>2013-05-08T05:14:17.000Z</time>
</trkpt>
<trkpt lat="43.611412" lon="3.82828">
<ele>106.7</ele>
<time>2013-05-08T05:14:18.000Z</time>
</trkpt>
<trkpt lat="43.611399" lon="3.828359">
<ele>107.4</ele>
<time>2013-05-08T05:14:19.000Z</time>
</trkpt>
<trkpt lat="43.611391" lon="3.828411">
<ele>108.2</ele>
<time>2013-05-08T05:14:20.000Z</time>
</trkpt>
<trkpt lat="43.61138" lon="3.828456">
<ele>108.2</ele>
<time>2013-05-08T05:14:21.000Z</time>
</trkpt>
<trkpt lat="43.611369" lon="3.828507">
<ele>108.2</ele>
<time>2013-05-08T05:14:50.000Z</time>
</trkpt>
<trkpt lat="43.611366" lon="3.828521">
<ele>108.2</ele>
<time>2013-05-08T05:14:51.000Z</time>
</trkpt>
<trkpt lat="43.611355" lon="3.828609">
<ele>108.6</ele>
<time>2013-05-08T05:14:52.000Z</time>
</trkpt>
<trkpt lat="43.611328" lon="3.828769">
<ele>108.9</ele>
<time>2013-05-08T05:14:53.000Z</time>
</trkpt>
<trkpt lat="43.61128" lon="3.829016">
<ele>109.2</ele>
<time>2013-05-08T05:14:54.000Z</time>
</trkpt>
<trkpt lat="43.611229" lon="3.829284">
<ele>109.4</ele>
<time>2013-05-08T05:14:55.000Z</time>
</trkpt>
<trkpt lat="43.61118" lon="3.829564">
<ele>109.7</ele>
<time>2013-05-08T05:14:56.000Z</time>
</trkpt>
<trkpt lat="43.611127" lon="3.82986">
<ele>110.1</ele>
<time>2013-05-08T05:14:57.000Z</time>
</trkpt>
<trkpt lat="43.611069" lon="3.830163">
<ele>110.4</ele>
<time>2013-05-08T05:14:58.000Z</time>
</trkpt>
<trkpt lat="43.611009" lon="3.830471">
<ele>110.6</ele>
<time>2013-05-08T05:14:59.000Z</time>
</trkpt>
<trkpt lat="43.610945" lon="3.830796">
<ele>110.9</ele>
<time>2013-05-08T05:15:00.000Z</time>
</trkpt>
<trkpt lat="43.610882" lon="3.831137">
<ele>111</ele>
<time>2013-05-08T05:15:01.000Z</time>
</trkpt>
<trkpt lat="43.610814" lon="3.831502">
<ele>111.2</ele>
<time>2013-05-08T05:15:02.000Z</time>
</trkpt>
<trkpt lat="43.610743" lon="3.831866">
<ele>111.5</ele>
<time>2013-05-08T05:15:03.000Z</time>
</trkpt>
<trkpt lat="43.610676" lon="3.832227">
<ele>111.8</ele>
<time>2013-05-08T05:15:04.000Z</time>
</trkpt>
<trkpt lat="43.610604" lon="3.832613">
<ele>112.3</ele>
<time>2013-05-08T05:15:05.000Z</time>
</trkpt>
<trkpt lat="43.610535" lon="3.832997">
<ele>112.9</ele>
<time>2013-05-08T05:15:06.000Z</time>
</trkpt>
<trkpt lat="43.61046" lon="3.833402">
<ele>113.4</ele>
<time>2013-05-08T05:15:07.000Z</time>
</trkpt>
<trkpt lat="43.61039" lon="3.833812">
<ele>113.8</ele>
<time>2013-05-08T05:15:08.000Z</time>
</trkpt>
<trkpt lat="43.610319" lon="3.834224">
<ele>114.3</ele>
<time>2013-05-08T05:15:09.000Z</time>
</trkpt>
<trkpt lat="43.610248" lon="3.83463">
<ele>114.7</ele>
<time>2013-05-08T05:15:10.000Z</time>
</trkpt>
<trkpt lat="43.610178" lon="3.835029">
<ele>114.9</ele>
<time>2013-05-08T05:15:11.000Z</time>
</trkpt>
<trkpt lat="43.610109" lon="3.835421">
<ele>115.1</ele>
<time>2013-05-08T05:15:12.000Z</time>
</trkpt>
<trkpt lat="43.610036" lon="3.835799">
<ele>115.3</ele>
<time>2013-05-08T05:15:13.000Z</time>
</trkpt>
<trkpt lat="43.60996" lon="3.83617">
<ele>115.5</ele>
<time>2013-05-08T05:15:14.000Z</time>
</trkpt>
<trkpt lat="43.609876" lon="3.836525">
<ele>115.7</ele>
<time>2013-05-08T05:15:15.000Z</time>
</trkpt>
<trkpt lat="43.609785" lon="3.836886">
<ele>116</ele>
<time>2013-05-08T05:15:16.000Z</time>
</trkpt>
<trkpt lat="43.609698" lon="3.837235">
<ele>116.3</ele>
<time>2013-05-08T05:15:17.000Z</time>
</trkpt>
<trkpt lat="43.609619" lon="3.837569">
<ele>116.6</ele>
<time>2013-05-08T05:15:18.000Z</time>
</trkpt>
<trkpt lat="43.609561" lon="3.837879">
<ele>116.6</ele>
<time>2013-05-08T05:15:19.000Z</time>
</trkpt>
<trkpt lat="43.60951" lon="3.838157">
<ele>116.5</ele>
<time>2013-05-08T05:15:20.000Z</time>
</trkpt>
<trkpt lat="43.609465" lon="3.8384">
<ele>116.5</ele>
<time>2013-05-08T05:15:21.000Z</time>
</trkpt>
<trkpt lat="43.609424" lon="3.838623">
<ele>116.4</ele>
<time>2013-05-08T05:15:22.000Z</time>
</trkpt>
<trkpt lat="43.609387" lon="3.838812">
<ele>116</ele>
<time>2013-05-08T05:15:23.000Z</time>
</trkpt>
<trkpt lat="43.609357" lon="3.838987">
<ele>115.3</ele>
<time>2013-05-08T05:15:24.000Z</time>
</trkpt>
<trkpt lat="43.609322" lon="3.839156">
<ele>114.6</ele>
<time>2013-05-08T05:15:25.000Z</time>
</trkpt>
<trkpt lat="43.609288" lon="3.839342">
<ele>113.9</ele>
<time>2013-05-08T05:15:26.000Z</time>
</trkpt>
<trkpt lat="43.609251" lon="3.839559">
<ele>113.5</ele>
<time>2013-05-08T05:15:27.000Z</time>
</trkpt>
<trkpt lat="43.60921" lon="3.839784">
<ele>113.2</ele>
<time>2013-05-08T05:15:28.000Z</time>
</trkpt>
<trkpt lat="43.609172" lon="3.840009">
<ele>113</ele>
<time>2013-05-08T05:15:29.000Z</time>
</trkpt>
<trkpt lat="43.609139" lon="3.840238">
<ele>112.7</ele>
<time>2013-05-08T05:15:30.000Z</time>
</trkpt>
<trkpt lat="43.609108" lon="3.840449">
<ele>112.3</ele>
<time>2013-05-08T05:15:31.000Z</time>
</trkpt>
<trkpt lat="43.609078" lon="3.840651">
<ele>112.1</ele>
<time>2013-05-08T05:15:32.000Z</time>
</trkpt>
<trkpt lat="43.609047" lon="3.840851">
<ele>112</ele>
<time>2013-05-08T05:15:33.000Z</time>
</trkpt>
<trkpt lat="43.609016" lon="3.841048">
<ele>111.8</ele>
<time>2013-05-08T05:15:34.000Z</time>
</trkpt>
<trkpt lat="43.608982" lon="3.841232">
<ele>111.8</ele>
<time>2013-05-08T05:15:35.000Z</time>
</trkpt>
<trkpt lat="43.608948" lon="3.84143">
<ele>111.8</ele>
<time>2013-05-08T05:15:36.000Z</time>
</trkpt>
<trkpt lat="43.608913" lon="3.841639">
<ele>111.6</ele>
<time>2013-05-08T05:15:37.000Z</time>
</trkpt>
<trkpt lat="43.60888" lon="3.841864">
<ele>111.4</ele>
<time>2013-05-08T05:15:38.000Z</time>
</trkpt>
<trkpt lat="43.608849" lon="3.842122">
<ele>111.1</ele>
<time>2013-05-08T05:15:39.000Z</time>
</trkpt>
<trkpt lat="43.60882" lon="3.842403">
<ele>111.1</ele>
<time>2013-05-08T05:15:40.000Z</time>
</trkpt>
<trkpt lat="43.608801" lon="3.842697">
<ele>111.3</ele>
<time>2013-05-08T05:15:41.000Z</time>
</trkpt>
<trkpt lat="43.608794" lon="3.843007">
<ele>111.3</ele>
<time>2013-05-08T05:15:42.000Z</time>
</trkpt>
<trkpt lat="43.60879" lon="3.843333">
<ele>111.3</ele>
<time>2013-05-08T05:15:43.000Z</time>
</trkpt>
<trkpt lat="43.608784" lon="3.843672">
<ele>111.3</ele>
<time>2013-05-08T05:15:44.000Z</time>
</trkpt>
<trkpt lat="43.608779" lon="3.844018">
<ele>111.3</ele>
<time>2013-05-08T05:15:45.000Z</time>
</trkpt>
<trkpt lat="43.608774" lon="3.844373">
<ele>111.3</ele>
<time>2013-05-08T05:15:46.000Z</time>
</trkpt>
<trkpt lat="43.608771" lon="3.844725">
<ele>111.4</ele>
<time>2013-05-08T05:15:47.000Z</time>
</trkpt>
<trkpt lat="43.608765" lon="3.845076">
<ele>111.4</ele>
<time>2013-05-08T05:15:48.000Z</time>
</trkpt>
<trkpt lat="43.608757" lon="3.845424">
<ele>111.5</ele>
<time>2013-05-08T05:15:49.000Z</time>
</trkpt>
<trkpt lat="43.608749" lon="3.845772">
<ele>111.8</ele>
<time>2013-05-08T05:15:50.000Z</time>
</trkpt>
<trkpt lat="43.60874" lon="3.846114">
<ele>112.2</ele>
<time>2013-05-08T05:15:51.000Z</time>
</trkpt>
<trkpt lat="43.608731" lon="3.846462">
<ele>112.5</ele>
<time>2013-05-08T05:15:52.000Z</time>
</trkpt>
<trkpt lat="43.608722" lon="3.846809">
<ele>112.8</ele>
<time>2013-05-08T05:15:53.000Z</time>
</trkpt>
<trkpt lat="43.608712" lon="3.847159">
<ele>112.9</ele>
<time>2013-05-08T05:15:54.000Z</time>
</trkpt>
<trkpt lat="43.608701" lon="3.847522">
<ele>112.6</ele>
<time>2013-05-08T05:15:55.000Z</time>
</trkpt>
<trkpt lat="43.608696" lon="3.847886">
<ele>112.3</ele>
<time>2013-05-08T05:15:56.000Z</time>
</trkpt>
<trkpt lat="43.608684" lon="3.848245">
<ele>111.6</ele>
<time>2013-05-08T05:15:57.000Z</time>
</trkpt>
<trkpt lat="43.608677" lon="3.848606">
<ele>111.4</ele>
<time>2013-05-08T05:15:58.000Z</time>
</trkpt>
<trkpt lat="43.608675" lon="3.848928">
<ele>111.6</ele>
<time>2013-05-08T05:15:59.000Z</time>
</trkpt>
<trkpt lat="43.608673" lon="3.849234">
<ele>112</ele>
<time>2013-05-08T05:16:00.000Z</time>
</trkpt>
<trkpt lat="43.608676" lon="3.849537">
<ele>112.4</ele>
<time>2013-05-08T05:16:01.000Z</time>
</trkpt>
<trkpt lat="43.608677" lon="3.849844">
<ele>112.9</ele>
<time>2013-05-08T05:16:02.000Z</time>
</trkpt>
<trkpt lat="43.608677" lon="3.850152">
<ele>113.3</ele>
<time>2013-05-08T05:16:03.000Z</time>
</trkpt>
<trkpt lat="43.608673" lon="3.850469">
<ele>113.5</ele>
<time>2013-05-08T05:16:04.000Z</time>
</trkpt>
<trkpt lat="43.608676" lon="3.850779">
<ele>113.6</ele>
<time>2013-05-08T05:16:05.000Z</time>
</trkpt>
<trkpt lat="43.608689" lon="3.85109">
<ele>113.6</ele>
<time>2013-05-08T05:16:06.000Z</time>
</trkpt>
<trkpt lat="43.608702" lon="3.851395">
<ele>113.6</ele>
<time>2013-05-08T05:16:07.000Z</time>
</trkpt>
<trkpt lat="43.608716" lon="3.851687">
<ele>113.4</ele>
<time>2013-05-08T05:16:08.000Z</time>
</trkpt>
<trkpt lat="43.608727" lon="3.85197">
<ele>113.2</ele>
<time>2013-05-08T05:16:09.000Z</time>
</trkpt>
<trkpt lat="43.60874" lon="3.852231">
<ele>112.9</ele>
<time>2013-05-08T05:16:10.000Z</time>
</trkpt>
<trkpt lat="43.60875" lon="3.852481">
<ele>112.6</ele>
<time>2013-05-08T05:16:11.000Z</time>
</trkpt>
<trkpt lat="43.608764" lon="3.852715">
<ele>112.4</ele>
<time>2013-05-08T05:16:12.000Z</time>
</trkpt>
<trkpt lat="43.608781" lon="3.852938">
<ele>112.3</ele>
<time>2013-05-08T05:16:13.000Z</time>
</trkpt>
<trkpt lat="43.608803" lon="3.853168">
<ele>112.5</ele>
<time>2013-05-08T05:16:14.000Z</time>
</trkpt>
<trkpt lat="43.608825" lon="3.853443">
<ele>112.3</ele>
<time>2013-05-08T05:16:15.000Z</time>
</trkpt>
<trkpt lat="43.608853" lon="3.85375">
<ele>111.8</ele>
<time>2013-05-08T05:16:16.000Z</time>
</trkpt>
<trkpt lat="43.608874" lon="3.854078">
<ele>111.4</ele>
<time>2013-05-08T05:16:17.000Z</time>
</trkpt>
<trkpt lat="43.608899" lon="3.854423">
<ele>111.2</ele>
<time>2013-05-08T05:16:18.000Z</time>
</trkpt>
<trkpt lat="43.608917" lon="3.854788">
<ele>111.3</ele>
<time>2013-05-08T05:16:19.000Z</time>
</trkpt>
<trkpt lat="43.608935" lon="3.855178">
<ele>111.6</ele>
<time>2013-05-08T05:16:20.000Z</time>
</trkpt>
<trkpt lat="43.60897" lon="3.855579">
<ele>111.7</ele>
<time>2013-05-08T05:16:21.000Z</time>
</trkpt>
<trkpt lat="43.609005" lon="3.85598">
<ele>111.4</ele>
<time>2013-05-08T05:16:22.000Z</time>
</trkpt>
<trkpt lat="43.609048" lon="3.856388">
<ele>111.2</ele>
<time>2013-05-08T05:16:23.000Z</time>
</trkpt>
<trkpt lat="43.609098" lon="3.856799">
<ele>111</ele>
<time>2013-05-08T05:16:24.000Z</time>
</trkpt>
<trkpt lat="43.609128" lon="3.857206">
<ele>110.5</ele>
<time>2013-05-08T05:16:25.000Z</time>
</trkpt>
<trkpt lat="43.609152" lon="3.857601">
<ele>110</ele>
<time>2013-05-08T05:16:26.000Z</time>
</trkpt>
<trkpt lat="43.609158" lon="3.857987">
<ele>109.4</ele>
<time>2013-05-08T05:16:27.000Z</time>
</trkpt>
<trkpt lat="43.60915" lon="3.858364">
<ele>108.1</ele>
<time>2013-05-08T05:16:28.000Z</time>
</trkpt>
<trkpt lat="43.609127" lon="3.858737">
<ele>106.9</ele>
<time>2013-05-08T05:16:29.000Z</time>
</trkpt>
<trkpt lat="43.609093" lon="3.85908">
<ele>105.8</ele>
<time>2013-05-08T05:16:30.000Z</time>
</trkpt>
<trkpt lat="43.609048" lon="3.859425">
<ele>104.9</ele>
<time>2013-05-08T05:16:31.000Z</time>
</trkpt>
<trkpt lat="43.60899" lon="3.859766">
<ele>104.4</ele>
<time>2013-05-08T05:16:32.000Z</time>
</trkpt>
<trkpt lat="43.608926" lon="3.860101">
<ele>104</ele>
<time>2013-05-08T05:16:33.000Z</time>
</trkpt>
<trkpt lat="43.60886" lon="3.860421">
<ele>103.8</ele>
<time>2013-05-08T05:16:34.000Z</time>
</trkpt>
<trkpt lat="43.608787" lon="3.860717">
<ele>103.7</ele>
<time>2013-05-08T05:16:35.000Z</time>
</trkpt>
<trkpt lat="43.608735" lon="3.860987">
<ele>103.5</ele>
<time>2013-05-08T05:16:36.000Z</time>
</trkpt>
<trkpt lat="43.608683" lon="3.861251">
<ele>103.4</ele>
<time>2013-05-08T05:16:37.000Z</time>
</trkpt>
<trkpt lat="43.60863" lon="3.861482">
<ele>103.2</ele>
<time>2013-05-08T05:16:38.000Z</time>
</trkpt>
<trkpt lat="43.608581" lon="3.861678">
<ele>103.1</ele>
<time>2013-05-08T05:16:39.000Z</time>
</trkpt>
<trkpt lat="43.608527" lon="3.861844">
<ele>102.8</ele>
<time>2013-05-08T05:16:40.000Z</time>
</trkpt>
<trkpt lat="43.60847" lon="3.862012">
<ele>102.6</ele>
<time>2013-05-08T05:16:41.000Z</time>
</trkpt>
<trkpt lat="43.608402" lon="3.862195">
<ele>102.5</ele>
<time>2013-05-08T05:16:42.000Z</time>
</trkpt>
<trkpt lat="43.608325" lon="3.862404">
<ele>102.8</ele>
<time>2013-05-08T05:16:43.000Z</time>
</trkpt>
<trkpt lat="43.608229" lon="3.862625">
<ele>102.9</ele>
<time>2013-05-08T05:16:44.000Z</time>
</trkpt>
<trkpt lat="43.608097" lon="3.862888">
<ele>102.8</ele>
<time>2013-05-08T05:16:45.000Z</time>
</trkpt>
<trkpt lat="43.607955" lon="3.863147">
<ele>102.4</ele>
<time>2013-05-08T05:16:46.000Z</time>
</trkpt>
<trkpt lat="43.607797" lon="3.863375">
<ele>102.1</ele>
<time>2013-05-08T05:16:47.000Z</time>
</trkpt>
<trkpt lat="43.607608" lon="3.863593">
<ele>101.3</ele>
<time>2013-05-08T05:16:48.000Z</time>
</trkpt>
<trkpt lat="43.607411" lon="3.863809">
<ele>100.8</ele>
<time>2013-05-08T05:16:49.000Z</time>
</trkpt>
<trkpt lat="43.607189" lon="3.86399">
<ele>100.1</ele>
<time>2013-05-08T05:16:50.000Z</time>
</trkpt>
<trkpt lat="43.606947" lon="3.864172">
<ele>99.5</ele>
<time>2013-05-08T05:16:51.000Z</time>
</trkpt>
<trkpt lat="43.606697" lon="3.86434">
<ele>98.8</ele>
<time>2013-05-08T05:16:52.000Z</time>
</trkpt>
<trkpt lat="43.606447" lon="3.864479">
<ele>97.7</ele>
<time>2013-05-08T05:16:53.000Z</time>
</trkpt>
<trkpt lat="43.606201" lon="3.86461">
<ele>96.8</ele>
<time>2013-05-08T05:16:54.000Z</time>
</trkpt>
<trkpt lat="43.605971" lon="3.864726">
<ele>96.1</ele>
<time>2013-05-08T05:16:55.000Z</time>
</trkpt>
<trkpt lat="43.605747" lon="3.864834">
<ele>95.7</ele>
<time>2013-05-08T05:16:56.000Z</time>
</trkpt>
<trkpt lat="43.605521" lon="3.864904">
<ele>95.4</ele>
<time>2013-05-08T05:16:57.000Z</time>
</trkpt>
<trkpt lat="43.605295" lon="3.864953">
<ele>95.1</ele>
<time>2013-05-08T05:16:58.000Z</time>
</trkpt>
<trkpt lat="43.605054" lon="3.864966">
<ele>94.7</ele>
<time>2013-05-08T05:16:59.000Z</time>
</trkpt>
<trkpt lat="43.604799" lon="3.86495">
<ele>94.3</ele>
<time>2013-05-08T05:17:00.000Z</time>
</trkpt>
<trkpt lat="43.604554" lon="3.864977">
<ele>93.7</ele>
<time>2013-05-08T05:17:01.000Z</time>
</trkpt>
<trkpt lat="43.604308" lon="3.865035">
<ele>93.2</ele>
<time>2013-05-08T05:17:02.000Z</time>
</trkpt>
<trkpt lat="43.604076" lon="3.865124">
<ele>92.9</ele>
<time>2013-05-08T05:17:03.000Z</time>
</trkpt>
<trkpt lat="43.603849" lon="3.865268">
<ele>92.6</ele>
<time>2013-05-08T05:17:04.000Z</time>
</trkpt>
<trkpt lat="43.603624" lon="3.865438">
<ele>92.6</ele>
<time>2013-05-08T05:17:05.000Z</time>
</trkpt>
<trkpt lat="43.603408" lon="3.86565">
<ele>92.5</ele>
<time>2013-05-08T05:17:06.000Z</time>
</trkpt>
<trkpt lat="43.60318" lon="3.865895">
<ele>92.5</ele>
<time>2013-05-08T05:17:07.000Z</time>
</trkpt>
<trkpt lat="43.602952" lon="3.866131">
<ele>92.6</ele>
<time>2013-05-08T05:17:08.000Z</time>
</trkpt>
<trkpt lat="43.602723" lon="3.866375">
<ele>92.7</ele>
<time>2013-05-08T05:17:09.000Z</time>
</trkpt>
<trkpt lat="43.602495" lon="3.866616">
<ele>92.7</ele>
<time>2013-05-08T05:17:10.000Z</time>
</trkpt>
<trkpt lat="43.602263" lon="3.866856">
<ele>92.8</ele>
<time>2013-05-08T05:17:11.000Z</time>
</trkpt>
<trkpt lat="43.602041" lon="3.867085">
<ele>92.5</ele>
<time>2013-05-08T05:17:12.000Z</time>
</trkpt>
<trkpt lat="43.601819" lon="3.867324">
<ele>92</ele>
<time>2013-05-08T05:17:13.000Z</time>
</trkpt>
<trkpt lat="43.601583" lon="3.867584">
<ele>92.1</ele>
<time>2013-05-08T05:17:14.000Z</time>
</trkpt>
<trkpt lat="43.601356" lon="3.867834">
<ele>92.4</ele>
<time>2013-05-08T05:17:15.000Z</time>
</trkpt>
<trkpt lat="43.601144" lon="3.868081">
<ele>92.9</ele>
<time>2013-05-08T05:17:16.000Z</time>
</trkpt>
<trkpt lat="43.600946" lon="3.868359">
<ele>93.1</ele>
<time>2013-05-08T05:17:17.000Z</time>
</trkpt>
<trkpt lat="43.600755" lon="3.868655">
<ele>93.1</ele>
<time>2013-05-08T05:17:18.000Z</time>
</trkpt>
<trkpt lat="43.600575" lon="3.868953">
<ele>93.1</ele>
<time>2013-05-08T05:17:19.000Z</time>
</trkpt>
<trkpt lat="43.600406" lon="3.869235">
<ele>93.1</ele>
<time>2013-05-08T05:17:20.000Z</time>
</trkpt>
<trkpt lat="43.600254" lon="3.869518">
<ele>93.1</ele>
<time>2013-05-08T05:17:21.000Z</time>
</trkpt>
<trkpt lat="43.600117" lon="3.869796">
<ele>92.8</ele>
<time>2013-05-08T05:17:22.000Z</time>
</trkpt>
<trkpt lat="43.599994" lon="3.870055">
<ele>92.6</ele>
<time>2013-05-08T05:17:23.000Z</time>
</trkpt>
<trkpt lat="43.599886" lon="3.870304">
<ele>92.6</ele>
<time>2013-05-08T05:17:24.000Z</time>
</trkpt>
<trkpt lat="43.599766" lon="3.870556">
<ele>93.1</ele>
<time>2013-05-08T05:17:25.000Z</time>
</trkpt>
<trkpt lat="43.599645" lon="3.870816">
<ele>93.3</ele>
<time>2013-05-08T05:17:26.000Z</time>
</trkpt>
<trkpt lat="43.599512" lon="3.871095">
<ele>93.5</ele>
<time>2013-05-08T05:17:27.000Z</time>
</trkpt>
<trkpt lat="43.599364" lon="3.871377">
<ele>93.7</ele>
<time>2013-05-08T05:17:28.000Z</time>
</trkpt>
<trkpt lat="43.599211" lon="3.871675">
<ele>94</ele>
<time>2013-05-08T05:17:29.000Z</time>
</trkpt>
<trkpt lat="43.599057" lon="3.871979">
<ele>94.2</ele>
<time>2013-05-08T05:17:30.000Z</time>
</trkpt>
<trkpt lat="43.598898" lon="3.872267">
<ele>94.7</ele>
<time>2013-05-08T05:17:31.000Z</time>
</trkpt>
<trkpt lat="43.598737" lon="3.872561">
<ele>94.7</ele>
<time>2013-05-08T05:17:32.000Z</time>
</trkpt>
<trkpt lat="43.598589" lon="3.87284">
<ele>94.4</ele>
<time>2013-05-08T05:17:33.000Z</time>
</trkpt>
<trkpt lat="43.598454" lon="3.873115">
<ele>93.9</ele>
<time>2013-05-08T05:17:34.000Z</time>
</trkpt>
<trkpt lat="43.598329" lon="3.873367">
<ele>93.3</ele>
<time>2013-05-08T05:17:35.000Z</time>
</trkpt>
<trkpt lat="43.598226" lon="3.873581">
<ele>92.6</ele>
<time>2013-05-08T05:17:36.000Z</time>
</trkpt>
<trkpt lat="43.598135" lon="3.873779">
<ele>91.8</ele>
<time>2013-05-08T05:17:37.000Z</time>
</trkpt>
<trkpt lat="43.598045" lon="3.873973">
<ele>91.3</ele>
<time>2013-05-08T05:17:38.000Z</time>
</trkpt>
<trkpt lat="43.597955" lon="3.874164">
<ele>91</ele>
<time>2013-05-08T05:17:39.000Z</time>
</trkpt>
<trkpt lat="43.597863" lon="3.874357">
<ele>90.7</ele>
<time>2013-05-08T05:17:40.000Z</time>
</trkpt>
<trkpt lat="43.597771" lon="3.874555">
<ele>90.9</ele>
<time>2013-05-08T05:17:41.000Z</time>
</trkpt>
<trkpt lat="43.597676" lon="3.87476">
<ele>90.9</ele>
<time>2013-05-08T05:17:42.000Z</time>
</trkpt>
<trkpt lat="43.597589" lon="3.874951">
<ele>91.2</ele>
<time>2013-05-08T05:17:43.000Z</time>
</trkpt>
<trkpt lat="43.59751" lon="3.875126">
<ele>91.6</ele>
<time>2013-05-08T05:17:44.000Z</time>
</trkpt>
<trkpt lat="43.597433" lon="3.875289">
<ele>91.8</ele>
<time>2013-05-08T05:17:45.000Z</time>
</trkpt>
<trkpt lat="43.597366" lon="3.875422">
<ele>91.8</ele>
<time>2013-05-08T05:17:46.000Z</time>
</trkpt>
<trkpt lat="43.597324" lon="3.875503">
<ele>91.5</ele>
<time>2013-05-08T05:17:47.000Z</time>
</trkpt>
<trkpt lat="43.597297" lon="3.875558">
<ele>91.5</ele>
<time>2013-05-08T05:17:48.000Z</time>
</trkpt>
<trkpt lat="43.597286" lon="3.875585">
<ele>91.4</ele>
<time>2013-05-08T05:18:08.000Z</time>
</trkpt>
<trkpt lat="43.597281" lon="3.87563">
<ele>90.6</ele>
<time>2013-05-08T05:18:09.000Z</time>
</trkpt>
<trkpt lat="43.597251" lon="3.875763">
<ele>89.9</ele>
<time>2013-05-08T05:18:10.000Z</time>
</trkpt>
<trkpt lat="43.597217" lon="3.875927">
<ele>89.5</ele>
<time>2013-05-08T05:18:11.000Z</time>
</trkpt>
<trkpt lat="43.597179" lon="3.87611">
<ele>89.2</ele>
<time>2013-05-08T05:18:12.000Z</time>
</trkpt>
<trkpt lat="43.597141" lon="3.8763">
<ele>89.3</ele>
<time>2013-05-08T05:18:13.000Z</time>
</trkpt>
<trkpt lat="43.597106" lon="3.876467">
<ele>89.1</ele>
<time>2013-05-08T05:18:14.000Z</time>
</trkpt>
<trkpt lat="43.597075" lon="3.876627">
<ele>88.4</ele>
<time>2013-05-08T05:18:15.000Z</time>
</trkpt>
<trkpt lat="43.597047" lon="3.876772">
<ele>87.9</ele>
<time>2013-05-08T05:18:16.000Z</time>
</trkpt>
<trkpt lat="43.597022" lon="3.876901">
<ele>87.7</ele>
<time>2013-05-08T05:18:17.000Z</time>
</trkpt>
<trkpt lat="43.597001" lon="3.87703">
<ele>87.5</ele>
<time>2013-05-08T05:18:18.000Z</time>
</trkpt>
<trkpt lat="43.596981" lon="3.87715">
<ele>87.4</ele>
<time>2013-05-08T05:18:19.000Z</time>
</trkpt>
<trkpt lat="43.596967" lon="3.87726">
<ele>87.1</ele>
<time>2013-05-08T05:18:20.000Z</time>
</trkpt>
<trkpt lat="43.596953" lon="3.877366">
<ele>86.7</ele>
<time>2013-05-08T05:18:21.000Z</time>
</trkpt>
<trkpt lat="43.596942" lon="3.877478">
<ele>86.3</ele>
<time>2013-05-08T05:18:22.000Z</time>
</trkpt>
<trkpt lat="43.596929" lon="3.877618">
<ele>86.1</ele>
<time>2013-05-08T05:18:23.000Z</time>
</trkpt>
<trkpt lat="43.596907" lon="3.877824">
<ele>86</ele>
<time>2013-05-08T05:18:24.000Z</time>
</trkpt>
<trkpt lat="43.596889" lon="3.87806">
<ele>86.1</ele>
<time>2013-05-08T05:18:25.000Z</time>
</trkpt>
<trkpt lat="43.596874" lon="3.878348">
<ele>86.2</ele>
<time>2013-05-08T05:18:26.000Z</time>
</trkpt>
<trkpt lat="43.596875" lon="3.87862">
<ele>86.1</ele>
<time>2013-05-08T05:18:27.000Z</time>
</trkpt>
<trkpt lat="43.596878" lon="3.87892">
<ele>85.8</ele>
<time>2013-05-08T05:18:28.000Z</time>
</trkpt>
<trkpt lat="43.596888" lon="3.879197">
<ele>85.3</ele>
<time>2013-05-08T05:18:29.000Z</time>
</trkpt>
<trkpt lat="43.596898" lon="3.879456">
<ele>84.9</ele>
<time>2013-05-08T05:18:30.000Z</time>
</trkpt>
<trkpt lat="43.596906" lon="3.879679">
<ele>84.5</ele>
<time>2013-05-08T05:18:31.000Z</time>
</trkpt>
<trkpt lat="43.596915" lon="3.879875">
<ele>84.1</ele>
<time>2013-05-08T05:18:32.000Z</time>
</trkpt>
<trkpt lat="43.596924" lon="3.88002">
<ele>83.8</ele>
<time>2013-05-08T05:18:33.000Z</time>
</trkpt>
<trkpt lat="43.596928" lon="3.880119">
<ele>83.7</ele>
<time>2013-05-08T05:18:34.000Z</time>
</trkpt>
<trkpt lat="43.59693" lon="3.880199">
<ele>83.1</ele>
<time>2013-05-08T05:18:35.000Z</time>
</trkpt>
<trkpt lat="43.596935" lon="3.880255">
<ele>83</ele>
<time>2013-05-08T05:18:36.000Z</time>
</trkpt>
<trkpt lat="43.59694" lon="3.880291">
<ele>83</ele>
<time>2013-05-08T05:18:37.000Z</time>
</trkpt>
<trkpt lat="43.596945" lon="3.880343">
<ele>82.6</ele>
<time>2013-05-08T05:18:44.000Z</time>
</trkpt>
<trkpt lat="43.59695" lon="3.880378">
<ele>82.6</ele>
<time>2013-05-08T05:18:45.000Z</time>
</trkpt>
<trkpt lat="43.596953" lon="3.880504">
<ele>82.7</ele>
<time>2013-05-08T05:18:46.000Z</time>
</trkpt>
<trkpt lat="43.596949" lon="3.880699">
<ele>82.6</ele>
<time>2013-05-08T05:18:47.000Z</time>
</trkpt>
<trkpt lat="43.596938" lon="3.880956">
<ele>82.3</ele>
<time>2013-05-08T05:18:48.000Z</time>
</trkpt>
<trkpt lat="43.596933" lon="3.881224">
<ele>82</ele>
<time>2013-05-08T05:18:49.000Z</time>
</trkpt>
<trkpt lat="43.596932" lon="3.881521">
<ele>81.8</ele>
<time>2013-05-08T05:18:50.000Z</time>
</trkpt>
<trkpt lat="43.596931" lon="3.88183">
<ele>81.5</ele>
<time>2013-05-08T05:18:51.000Z</time>
</trkpt>
<trkpt lat="43.596937" lon="3.882139">
<ele>81.3</ele>
<time>2013-05-08T05:18:52.000Z</time>
</trkpt>
<trkpt lat="43.596941" lon="3.882468">
<ele>81.3</ele>
<time>2013-05-08T05:18:53.000Z</time>
</trkpt>
<trkpt lat="43.596945" lon="3.882808">
<ele>81.4</ele>
<time>2013-05-08T05:18:54.000Z</time>
</trkpt>
<trkpt lat="43.596945" lon="3.883144">
<ele>81.1</ele>
<time>2013-05-08T05:18:55.000Z</time>
</trkpt>
<trkpt lat="43.596947" lon="3.88348">
<ele>80.7</ele>
<time>2013-05-08T05:18:56.000Z</time>
</trkpt>
<trkpt lat="43.596959" lon="3.883838">
<ele>80.3</ele>
<time>2013-05-08T05:18:57.000Z</time>
</trkpt>
<trkpt lat="43.596968" lon="3.884204">
<ele>79.7</ele>
<time>2013-05-08T05:18:58.000Z</time>
</trkpt>
<trkpt lat="43.596977" lon="3.884558">
<ele>79.1</ele>
<time>2013-05-08T05:18:59.000Z</time>
</trkpt>
<trkpt lat="43.596991" lon="3.884902">
<ele>79.2</ele>
<time>2013-05-08T05:19:00.000Z</time>
</trkpt>
<trkpt lat="43.597015" lon="3.885241">
<ele>79.6</ele>
<time>2013-05-08T05:19:01.000Z</time>
</trkpt>
<trkpt lat="43.597039" lon="3.88558">
<ele>80</ele>
<time>2013-05-08T05:19:02.000Z</time>
</trkpt>
<trkpt lat="43.597078" lon="3.885911">
<ele>80.2</ele>
<time>2013-05-08T05:19:03.000Z</time>
</trkpt>
<trkpt lat="43.597129" lon="3.886236">
<ele>80.1</ele>
<time>2013-05-08T05:19:04.000Z</time>
</trkpt>
<trkpt lat="43.597202" lon="3.886544">
<ele>79.9</ele>
<time>2013-05-08T05:19:05.000Z</time>
</trkpt>
<trkpt lat="43.59729" lon="3.886837">
<ele>80.1</ele>
<time>2013-05-08T05:19:06.000Z</time>
</trkpt>
<trkpt lat="43.597391" lon="3.887117">
<ele>80.4</ele>
<time>2013-05-08T05:19:07.000Z</time>
</trkpt>
<trkpt lat="43.597515" lon="3.88739">
<ele>80.8</ele>
<time>2013-05-08T05:19:08.000Z</time>
</trkpt>
<trkpt lat="43.597645" lon="3.887657">
<ele>80.8</ele>
<time>2013-05-08T05:19:09.000Z</time>
</trkpt>
<trkpt lat="43.597797" lon="3.887927">
<ele>80.5</ele>
<time>2013-05-08T05:19:10.000Z</time>
</trkpt>
<trkpt lat="43.597974" lon="3.888198">
<ele>80.2</ele>
<time>2013-05-08T05:19:11.000Z</time>
</trkpt>
<trkpt lat="43.598142" lon="3.888467">
<ele>79.8</ele>
<time>2013-05-08T05:19:12.000Z</time>
</trkpt>
<trkpt lat="43.598304" lon="3.888733">
<ele>79.1</ele>
<time>2013-05-08T05:19:13.000Z</time>
</trkpt>
<trkpt lat="43.598466" lon="3.889006">
<ele>78.1</ele>
<time>2013-05-08T05:19:14.000Z</time>
</trkpt>
<trkpt lat="43.598618" lon="3.889256">
<ele>77.2</ele>
<time>2013-05-08T05:19:15.000Z</time>
</trkpt>
<trkpt lat="43.598763" lon="3.889501">
<ele>76.5</ele>
<time>2013-05-08T05:19:16.000Z</time>
</trkpt>
<trkpt lat="43.598895" lon="3.889729">
<ele>75.9</ele>
<time>2013-05-08T05:19:17.000Z</time>
</trkpt>
<trkpt lat="43.599022" lon="3.889944">
<ele>75.2</ele>
<time>2013-05-08T05:19:18.000Z</time>
</trkpt>
<trkpt lat="43.599129" lon="3.890149">
<ele>74.8</ele>
<time>2013-05-08T05:19:19.000Z</time>
</trkpt>
<trkpt lat="43.599225" lon="3.890355">
<ele>74.3</ele>
<time>2013-05-08T05:19:20.000Z</time>
</trkpt>
<trkpt lat="43.599296" lon="3.890556">
<ele>73.6</ele>
<time>2013-05-08T05:19:21.000Z</time>
</trkpt>
<trkpt lat="43.599368" lon="3.890767">
<ele>73</ele>
<time>2013-05-08T05:19:22.000Z</time>
</trkpt>
<trkpt lat="43.599439" lon="3.890987">
<ele>72.6</ele>
<time>2013-05-08T05:19:23.000Z</time>
</trkpt>
<trkpt lat="43.599502" lon="3.891237">
<ele>71.9</ele>
<time>2013-05-08T05:19:24.000Z</time>
</trkpt>
<trkpt lat="43.599553" lon="3.891505">
<ele>71</ele>
<time>2013-05-08T05:19:25.000Z</time>
</trkpt>
<trkpt lat="43.599584" lon="3.891785">
<ele>70.1</ele>
<time>2013-05-08T05:19:26.000Z</time>
</trkpt>
<trkpt lat="43.59959" lon="3.89207">
<ele>69.5</ele>
<time>2013-05-08T05:19:27.000Z</time>
</trkpt>
<trkpt lat="43.59958" lon="3.892353">
<ele>69.4</ele>
<time>2013-05-08T05:19:28.000Z</time>
</trkpt>
<trkpt lat="43.599555" lon="3.892647">
<ele>69.2</ele>
<time>2013-05-08T05:19:29.000Z</time>
</trkpt>
<trkpt lat="43.599512" lon="3.89292">
<ele>68.8</ele>
<time>2013-05-08T05:19:30.000Z</time>
</trkpt>
<trkpt lat="43.599463" lon="3.893165">
<ele>68.5</ele>
<time>2013-05-08T05:19:31.000Z</time>
</trkpt>
<trkpt lat="43.599404" lon="3.89337">
<ele>68.1</ele>
<time>2013-05-08T05:19:32.000Z</time>
</trkpt>
<trkpt lat="43.599344" lon="3.893591">
<ele>67.7</ele>
<time>2013-05-08T05:19:33.000Z</time>
</trkpt>
<trkpt lat="43.599288" lon="3.893795">
<ele>67.4</ele>
<time>2013-05-08T05:19:34.000Z</time>
</trkpt>
<trkpt lat="43.599234" lon="3.893975">
<ele>67.4</ele>
<time>2013-05-08T05:19:35.000Z</time>
</trkpt>
<trkpt lat="43.599184" lon="3.89415">
<ele>67.4</ele>
<time>2013-05-08T05:19:36.000Z</time>
</trkpt>
<trkpt lat="43.599121" lon="3.894344">
<ele>67.9</ele>
<time>2013-05-08T05:19:37.000Z</time>
</trkpt>
<trkpt lat="43.599015" lon="3.894522">
<ele>68.6</ele>
<time>2013-05-08T05:19:38.000Z</time>
</trkpt>
<trkpt lat="43.5989" lon="3.894696">
<ele>69.4</ele>
<time>2013-05-08T05:19:39.000Z</time>
</trkpt>
<trkpt lat="43.598771" lon="3.894861">
<ele>69.6</ele>
<time>2013-05-08T05:19:40.000Z</time>
</trkpt>
<trkpt lat="43.598657" lon="3.894991">
<ele>70.1</ele>
<time>2013-05-08T05:19:41.000Z</time>
</trkpt>
<trkpt lat="43.598564" lon="3.89507">
<ele>70.6</ele>
<time>2013-05-08T05:19:42.000Z</time>
</trkpt>
<trkpt lat="43.5985" lon="3.895111">
<ele>71.3</ele>
<time>2013-05-08T05:19:43.000Z</time>
</trkpt>
<trkpt lat="43.59845" lon="3.895135">
<ele>71.9</ele>
<time>2013-05-08T05:19:44.000Z</time>
</trkpt>
<trkpt lat="43.598429" lon="3.895127">
<ele>71.9</ele>
<time>2013-05-08T05:19:45.000Z</time>
</trkpt>
<trkpt lat="43.59838" lon="3.895164">
<ele>72.1</ele>
<time>2013-05-08T05:19:46.000Z</time>
</trkpt>
<trkpt lat="43.598313" lon="3.895214">
<ele>71.8</ele>
<time>2013-05-08T05:19:47.000Z</time>
</trkpt>
<trkpt lat="43.598223" lon="3.895279">
<ele>71.6</ele>
<time>2013-05-08T05:19:48.000Z</time>
</trkpt>
<trkpt lat="43.598094" lon="3.895371">
<ele>70.8</ele>
<time>2013-05-08T05:19:49.000Z</time>
</trkpt>
<trkpt lat="43.597947" lon="3.895477">
<ele>69.9</ele>
<time>2013-05-08T05:19:50.000Z</time>
</trkpt>
<trkpt lat="43.597777" lon="3.895598">
<ele>69.3</ele>
<time>2013-05-08T05:19:51.000Z</time>
</trkpt>
<trkpt lat="43.597601" lon="3.895695">
<ele>68.7</ele>
<time>2013-05-08T05:19:52.000Z</time>
</trkpt>
<trkpt lat="43.597438" lon="3.895776">
<ele>68.1</ele>
<time>2013-05-08T05:19:53.000Z</time>
</trkpt>
<trkpt lat="43.597284" lon="3.895836">
<ele>67.5</ele>
<time>2013-05-08T05:19:54.000Z</time>
</trkpt>
<trkpt lat="43.597147" lon="3.895881">
<ele>67.1</ele>
<time>2013-05-08T05:19:55.000Z</time>
</trkpt>
<trkpt lat="43.597032" lon="3.89592">
<ele>66.8</ele>
<time>2013-05-08T05:19:56.000Z</time>
</trkpt>
<trkpt lat="43.596944" lon="3.89594">
<ele>66.4</ele>
<time>2013-05-08T05:19:57.000Z</time>
</trkpt>
<trkpt lat="43.596887" lon="3.895948">
<ele>66.3</ele>
<time>2013-05-08T05:19:58.000Z</time>
</trkpt>
<trkpt lat="43.596862" lon="3.895942">
<ele>66.2</ele>
<time>2013-05-08T05:20:01.000Z</time>
</trkpt>
<trkpt lat="43.596846" lon="3.895912">
<ele>66.2</ele>
<time>2013-05-08T05:20:02.000Z</time>
</trkpt>
<trkpt lat="43.596796" lon="3.895924">
<ele>66.2</ele>
<time>2013-05-08T05:20:03.000Z</time>
</trkpt>
<trkpt lat="43.596705" lon="3.895959">
<ele>66.4</ele>
<time>2013-05-08T05:20:04.000Z</time>
</trkpt>
<trkpt lat="43.596608" lon="3.896004">
<ele>66.3</ele>
<time>2013-05-08T05:20:05.000Z</time>
</trkpt>
<trkpt lat="43.596503" lon="3.896057">
<ele>66.1</ele>
<time>2013-05-08T05:20:06.000Z</time>
</trkpt>
<trkpt lat="43.596374" lon="3.896125">
<ele>66</ele>
<time>2013-05-08T05:20:07.000Z</time>
</trkpt>
<trkpt lat="43.596254" lon="3.896188">
<ele>66.1</ele>
<time>2013-05-08T05:20:08.000Z</time>
</trkpt>
<trkpt lat="43.596141" lon="3.896247">
<ele>66</ele>
<time>2013-05-08T05:20:09.000Z</time>
</trkpt>
<trkpt lat="43.59603" lon="3.896302">
<ele>66</ele>
<time>2013-05-08T05:20:10.000Z</time>
</trkpt>
<trkpt lat="43.595923" lon="3.896356">
<ele>65.9</ele>
<time>2013-05-08T05:20:11.000Z</time>
</trkpt>
<trkpt lat="43.595823" lon="3.896404">
<ele>66</ele>
<time>2013-05-08T05:20:12.000Z</time>
</trkpt>
<trkpt lat="43.595733" lon="3.896444">
<ele>66.1</ele>
<time>2013-05-08T05:20:13.000Z</time>
</trkpt>
<trkpt lat="43.595665" lon="3.896466">
<ele>66.2</ele>
<time>2013-05-08T05:20:14.000Z</time>
</trkpt>
<trkpt lat="43.595602" lon="3.896486">
<ele>66.3</ele>
<time>2013-05-08T05:20:15.000Z</time>
</trkpt>
<trkpt lat="43.595558" lon="3.896501">
<ele>66.2</ele>
<time>2013-05-08T05:20:16.000Z</time>
</trkpt>
<trkpt lat="43.595537" lon="3.896502">
<ele>66.5</ele>
<time>2013-05-08T05:20:29.000Z</time>
</trkpt>
<trkpt lat="43.595514" lon="3.896571">
<ele>67.4</ele>
<time>2013-05-08T05:20:30.000Z</time>
</trkpt>
<trkpt lat="43.595487" lon="3.896685">
<ele>68.3</ele>
<time>2013-05-08T05:20:31.000Z</time>
</trkpt>
<trkpt lat="43.595462" lon="3.896799">
<ele>69.1</ele>
<time>2013-05-08T05:20:32.000Z</time>
</trkpt>
<trkpt lat="43.595404" lon="3.896855">
<ele>68.7</ele>
<time>2013-05-08T05:20:33.000Z</time>
</trkpt>
<trkpt lat="43.595306" lon="3.896911">
<ele>68.2</ele>
<time>2013-05-08T05:20:34.000Z</time>
</trkpt>
<trkpt lat="43.595182" lon="3.896989">
<ele>67.5</ele>
<time>2013-05-08T05:20:35.000Z</time>
</trkpt>
<trkpt lat="43.595062" lon="3.897105">
<ele>67.1</ele>
<time>2013-05-08T05:20:36.000Z</time>
</trkpt>
<trkpt lat="43.594935" lon="3.897248">
<ele>67.1</ele>
<time>2013-05-08T05:20:37.000Z</time>
</trkpt>
<trkpt lat="43.594808" lon="3.897406">
<ele>66.8</ele>
<time>2013-05-08T05:20:38.000Z</time>
</trkpt>
<trkpt lat="43.594683" lon="3.897568">
<ele>66.4</ele>
<time>2013-05-08T05:20:39.000Z</time>
</trkpt>
<trkpt lat="43.594558" lon="3.897732">
<ele>66.1</ele>
<time>2013-05-08T05:20:40.000Z</time>
</trkpt>
<trkpt lat="43.594444" lon="3.897894">
<ele>65.6</ele>
<time>2013-05-08T05:20:41.000Z</time>
</trkpt>
<trkpt lat="43.594337" lon="3.898044">
<ele>65.1</ele>
<time>2013-05-08T05:20:42.000Z</time>
</trkpt>
<trkpt lat="43.594255" lon="3.898166">
<ele>64.9</ele>
<time>2013-05-08T05:20:43.000Z</time>
</trkpt>
<trkpt lat="43.594187" lon="3.898273">
<ele>64.9</ele>
<time>2013-05-08T05:20:44.000Z</time>
</trkpt>
<trkpt lat="43.594159" lon="3.8984">
<ele>64.7</ele>
<time>2013-05-08T05:20:45.000Z</time>
</trkpt>
<trkpt lat="43.594203" lon="3.898484">
<ele>64.7</ele>
<time>2013-05-08T05:20:46.000Z</time>
</trkpt>
<trkpt lat="43.594257" lon="3.898591">
<ele>64.5</ele>
<time>2013-05-08T05:20:47.000Z</time>
</trkpt>
<trkpt lat="43.594319" lon="3.898668">
<ele>64.5</ele>
<time>2013-05-08T05:20:48.000Z</time>
</trkpt>
<trkpt lat="43.59438" lon="3.898676">
<ele>64.6</ele>
<time>2013-05-08T05:20:49.000Z</time>
</trkpt>
<trkpt lat="43.594444" lon="3.89865">
<ele>64.5</ele>
<time>2013-05-08T05:20:50.000Z</time>
</trkpt>
<trkpt lat="43.594505" lon="3.898592">
<ele>64.8</ele>
<time>2013-05-08T05:20:51.000Z</time>
</trkpt>
<trkpt lat="43.59457" lon="3.898527">
<ele>65</ele>
<time>2013-05-08T05:20:52.000Z</time>
</trkpt>
<trkpt lat="43.594631" lon="3.898444">
<ele>65.1</ele>
<time>2013-05-08T05:20:53.000Z</time>
</trkpt>
<trkpt lat="43.594685" lon="3.898363">
<ele>65.5</ele>
<time>2013-05-08T05:20:54.000Z</time>
</trkpt>
<trkpt lat="43.594734" lon="3.898285">
<ele>66.1</ele>
<time>2013-05-08T05:20:55.000Z</time>
</trkpt>
<trkpt lat="43.594786" lon="3.898202">
<ele>66.9</ele>
<time>2013-05-08T05:20:56.000Z</time>
</trkpt>
<trkpt lat="43.594845" lon="3.898114">
<ele>67.2</ele>
<time>2013-05-08T05:20:57.000Z</time>
</trkpt>
<trkpt lat="43.594913" lon="3.898042">
<ele>68.1</ele>
<time>2013-05-08T05:20:58.000Z</time>
</trkpt>
<trkpt lat="43.59499" lon="3.898061">
<ele>69.1</ele>
<time>2013-05-08T05:20:59.000Z</time>
</trkpt>
<trkpt lat="43.59505" lon="3.898073">
<ele>70</ele>
<time>2013-05-08T05:21:00.000Z</time>
</trkpt>
<trkpt lat="43.595092" lon="3.898059">
<ele>70.1</ele>
<time>2013-05-08T05:21:01.000Z</time>
</trkpt>
<trkpt lat="43.595129" lon="3.898025">
<ele>70.1</ele>
<time>2013-05-08T05:21:02.000Z</time>
</trkpt>
<trkpt lat="43.595137" lon="3.897984">
<ele>70.2</ele>
<time>2013-05-08T05:21:03.000Z</time>
</trkpt>
<trkpt lat="43.595125" lon="3.897957">
<ele>70.2</ele>
<time>2013-05-08T05:21:04.000Z</time>
</trkpt>
<trkpt lat="43.595095" lon="3.897917">
<ele>67</ele>
<time>2013-05-08T05:25:58.000Z</time>
</trkpt>
<trkpt lat="43.595104" lon="3.897899">
<ele>67</ele>
<time>2013-05-08T05:25:59.000Z</time>
</trkpt>
<trkpt lat="43.595121" lon="3.897855">
<ele>66.9</ele>
<time>2013-05-08T05:26:01.000Z</time>
</trkpt>
<trkpt lat="43.595131" lon="3.897845">
<ele>66.8</ele>
<time>2013-05-08T05:26:02.000Z</time>
</trkpt>
<trkpt lat="43.595173" lon="3.897825">
<ele>66.6</ele>
<time>2013-05-08T05:26:08.000Z</time>
</trkpt>
<trkpt lat="43.595177" lon="3.897822">
<ele>66.6</ele>
<time>2013-05-08T05:26:09.000Z</time>
</trkpt>
<trkpt lat="43.595201" lon="3.897775">
<ele>66.1</ele>
<time>2013-05-08T05:26:21.000Z</time>
</trkpt>
<trkpt lat="43.595204" lon="3.897771">
<ele>66.1</ele>
<time>2013-05-08T05:26:22.000Z</time>
</trkpt>
<trkpt lat="43.59518" lon="3.897718">
<ele>65.5</ele>
<time>2013-05-08T05:26:58.000Z</time>
</trkpt>
<trkpt lat="43.595178" lon="3.897719">
<ele>65.5</ele>
<time>2013-05-08T05:26:59.000Z</time>
</trkpt>
<trkpt lat="43.595134" lon="3.897722">
<ele>65.1</ele>
<time>2013-05-08T05:27:35.000Z</time>
</trkpt>
<trkpt lat="43.595132" lon="3.897723">
<ele>65.1</ele>
<time>2013-05-08T05:27:36.000Z</time>
</trkpt>
<trkpt lat="43.595175" lon="3.897734">
<ele>64.8</ele>
<time>2013-05-08T05:28:22.999Z</time>
</trkpt>
<trkpt lat="43.595178" lon="3.897734">
<ele>64.9</ele>
<time>2013-05-08T05:28:23.999Z</time>
</trkpt>
<trkpt lat="43.595147" lon="3.897689">
<ele>64.9</ele>
<time>2013-05-08T05:28:53.999Z</time>
</trkpt>
<trkpt lat="43.595146" lon="3.897687">
<ele>64.9</ele>
<time>2013-05-08T05:28:54.999Z</time>
</trkpt>
<trkpt lat="43.595163" lon="3.897633">
<ele>65.9</ele>
<time>2013-05-08T05:29:54.999Z</time>
</trkpt>
<trkpt lat="43.595169" lon="3.897633">
<ele>65.9</ele>
<time>2013-05-08T05:29:55.999Z</time>
</trkpt>
<trkpt lat="43.595208" lon="3.897632">
<ele>66</ele>
<time>2013-05-08T05:30:01.999Z</time>
</trkpt>
<trkpt lat="43.595214" lon="3.897632">
<ele>66.1</ele>
<time>2013-05-08T05:30:02.999Z</time>
</trkpt>
<trkpt lat="43.595183" lon="3.897672">
<ele>67.8</ele>
<time>2013-05-08T05:31:10.999Z</time>
</trkpt>
<trkpt lat="43.59518" lon="3.897674">
<ele>67.8</ele>
<time>2013-05-08T05:31:11.999Z</time>
</trkpt>
<trkpt lat="43.595217" lon="3.897643">
<ele>67.9</ele>
<time>2013-05-08T05:31:41.999Z</time>
</trkpt>
<trkpt lat="43.595221" lon="3.897641">
<ele>67.9</ele>
<time>2013-05-08T05:31:42.999Z</time>
</trkpt>
<trkpt lat="43.595265" lon="3.897632">
<ele>68.2</ele>
<time>2013-05-08T05:31:58.999Z</time>
</trkpt>
<trkpt lat="43.595267" lon="3.897632">
<ele>68.3</ele>
<time>2013-05-08T05:31:59.999Z</time>
</trkpt>
<trkpt lat="43.5953" lon="3.897591">
<ele>69.4</ele>
<time>2013-05-08T05:32:52.999Z</time>
</trkpt>
<trkpt lat="43.595305" lon="3.897595">
<ele>69.4</ele>
<time>2013-05-08T05:32:53.999Z</time>
</trkpt>
<trkpt lat="43.595345" lon="3.897616">
<ele>69.6</ele>
<time>2013-05-08T05:32:59.999Z</time>
</trkpt>
<trkpt lat="43.595351" lon="3.897617">
<ele>69.6</ele>
<time>2013-05-08T05:33:00.999Z</time>
</trkpt>
<trkpt lat="43.595329" lon="3.897566">
<ele>69.8</ele>
<time>2013-05-08T05:34:05.999Z</time>
</trkpt>
<trkpt lat="43.595327" lon="3.897563">
<ele>69.8</ele>
<time>2013-05-08T05:34:06.999Z</time>
</trkpt>
<trkpt lat="43.595288" lon="3.89756">
<ele>69.7</ele>
<time>2013-05-08T05:34:14.999Z</time>
</trkpt>
<trkpt lat="43.595273" lon="3.897561">
<ele>69.7</ele>
<time>2013-05-08T05:34:15.999Z</time>
</trkpt>
<trkpt lat="43.595235" lon="3.897571">
<ele>69.8</ele>
<time>2013-05-08T05:34:19.999Z</time>
</trkpt>
<trkpt lat="43.595229" lon="3.897574">
<ele>69.8</ele>
<time>2013-05-08T05:34:20.999Z</time>
</trkpt>
<trkpt lat="43.595201" lon="3.89759">
<ele>70.5</ele>
<time>2013-05-08T05:34:52.999Z</time>
</trkpt>
<trkpt lat="43.595187" lon="3.897602">
<ele>70.3</ele>
<time>2013-05-08T05:34:53.999Z</time>
</trkpt>
<trkpt lat="43.595156" lon="3.897614">
<ele>65.3</ele>
<time>2013-05-08T05:40:01.999Z</time>
</trkpt>
<trkpt lat="43.595238" lon="3.897615">
<ele>65.2</ele>
<time>2013-05-08T05:41:11.999Z</time>
</trkpt>
<trkpt lat="43.595223" lon="3.897617">
<ele>64.8</ele>
<time>2013-05-08T05:43:04.999Z</time>
</trkpt>
<trkpt lat="43.595183" lon="3.897677">
<ele>64.5</ele>
<time>2013-05-08T05:43:09.999Z</time>
</trkpt>
<trkpt lat="43.595208" lon="3.897726">
<ele>64.3</ele>
<time>2013-05-08T05:43:13.999Z</time>
</trkpt>
<trkpt lat="43.595211" lon="3.897736">
<ele>64.3</ele>
<time>2013-05-08T05:43:14.999Z</time>
</trkpt>
<trkpt lat="43.595224" lon="3.897786">
<ele>64.2</ele>
<time>2013-05-08T05:43:18.999Z</time>
</trkpt>
<trkpt lat="43.595229" lon="3.897796">
<ele>64.2</ele>
<time>2013-05-08T05:43:19.999Z</time>
</trkpt>
<trkpt lat="43.595265" lon="3.897827">
<ele>64</ele>
<time>2013-05-08T05:43:29.999Z</time>
</trkpt>
<trkpt lat="43.595269" lon="3.897832">
<ele>63.9</ele>
<time>2013-05-08T05:43:30.999Z</time>
</trkpt>
<trkpt lat="43.595305" lon="3.897866">
<ele>63.8</ele>
<time>2013-05-08T05:43:38.999Z</time>
</trkpt>
<trkpt lat="43.595308" lon="3.89787">
<ele>63.8</ele>
<time>2013-05-08T05:43:39.999Z</time>
</trkpt>
<trkpt lat="43.59532" lon="3.897852">
<ele>63.8</ele>
<time>2013-05-08T05:44:04.999Z</time>
</trkpt>
<trkpt lat="43.595431" lon="3.897924">
<ele>63.9</ele>
<time>2013-05-08T05:44:35.999Z</time>
</trkpt>
<trkpt lat="43.595412" lon="3.897875">
<ele>63.9</ele>
<time>2013-05-08T05:44:36.999Z</time>
</trkpt>
<trkpt lat="43.595399" lon="3.897847">
<ele>63.9</ele>
<time>2013-05-08T05:44:37.999Z</time>
</trkpt>
<trkpt lat="43.595387" lon="3.897815">
<ele>63.9</ele>
<time>2013-05-08T05:44:51.999Z</time>
</trkpt>
<trkpt lat="43.595347" lon="3.897726">
<ele>63.9</ele>
<time>2013-05-08T05:44:56.999Z</time>
</trkpt>
<trkpt lat="43.595325" lon="3.89769">
<ele>63.9</ele>
<time>2013-05-08T05:45:00.999Z</time>
</trkpt>
<trkpt lat="43.595138" lon="3.897449">
<ele>63.9</ele>
<time>2013-05-08T05:45:16.999Z</time>
</trkpt>
<trkpt lat="43.59514" lon="3.897503">
<ele>63.8</ele>
<time>2013-05-08T05:45:18.999Z</time>
</trkpt>
<trkpt lat="43.595139" lon="3.89754">
<ele>63.8</ele>
<time>2013-05-08T05:45:19.999Z</time>
</trkpt>
<trkpt lat="43.59514" lon="3.897587">
<ele>63.8</ele>
<time>2013-05-08T05:45:22.999Z</time>
</trkpt>
<trkpt lat="43.595145" lon="3.897614">
<ele>63.8</ele>
<time>2013-05-08T05:45:24.999Z</time>
</trkpt>
<trkpt lat="43.595144" lon="3.897643">
<ele>63.7</ele>
<time>2013-05-08T05:45:26.999Z</time>
</trkpt>
<trkpt lat="43.595147" lon="3.897692">
<ele>63.7</ele>
<time>2013-05-08T05:45:30.999Z</time>
</trkpt>
<trkpt lat="43.595185" lon="3.89771">
<ele>63.8</ele>
<time>2013-05-08T05:45:36.999Z</time>
</trkpt>
<trkpt lat="43.595198" lon="3.897709">
<ele>63.8</ele>
<time>2013-05-08T05:45:37.999Z</time>
</trkpt>
<trkpt lat="43.595221" lon="3.897726">
<ele>63.8</ele>
<time>2013-05-08T05:45:48.999Z</time>
</trkpt>
<trkpt lat="43.595164" lon="3.897627">
<ele>65.4</ele>
<time>2013-05-08T05:46:37.999Z</time>
</trkpt>
<trkpt lat="43.595139" lon="3.897676">
<ele>65.9</ele>
<time>2013-05-08T05:49:50.999Z</time>
</trkpt>
<trkpt lat="43.595224" lon="3.897691">
<ele>78.8</ele>
<time>2013-05-08T05:51:17.999Z</time>
</trkpt>
<trkpt lat="43.59526" lon="3.8977">
<ele>78.8</ele>
<time>2013-05-08T05:51:20.000Z</time>
</trkpt>
<trkpt lat="43.595303" lon="3.897694">
<ele>78.8</ele>
<time>2013-05-08T05:51:28.000Z</time>
</trkpt>
<trkpt lat="43.595307" lon="3.897745">
<ele>78.9</ele>
<time>2013-05-08T05:51:54.000Z</time>
</trkpt>
<trkpt lat="43.595303" lon="3.897768">
<ele>78.5</ele>
<time>2013-05-08T05:52:11.000Z</time>
</trkpt>
<trkpt lat="43.595261" lon="3.89775">
<ele>78.1</ele>
<time>2013-05-08T05:52:39.000Z</time>
</trkpt>
<trkpt lat="43.595259" lon="3.897749">
<ele>78.1</ele>
<time>2013-05-08T05:52:40.000Z</time>
</trkpt>
<trkpt lat="43.59522" lon="3.897717">
<ele>77.4</ele>
<time>2013-05-08T05:53:33.000Z</time>
</trkpt>
<trkpt lat="43.595219" lon="3.897717">
<ele>77.4</ele>
<time>2013-05-08T05:53:34.000Z</time>
</trkpt>
<trkpt lat="43.595239" lon="3.897751">
<ele>72.5</ele>
<time>2013-05-08T05:56:49.000Z</time>
</trkpt>
<trkpt lat="43.595078" lon="3.897747">
<ele>59</ele>
<time>2013-05-08T05:58:01.000Z</time>
</trkpt>
<trkpt lat="43.595049" lon="3.897844">
<ele>59</ele>
<time>2013-05-08T05:58:02.000Z</time>
</trkpt>
<trkpt lat="43.595025" lon="3.897893">
<ele>58.9</ele>
<time>2013-05-08T05:58:03.000Z</time>
</trkpt>
<trkpt lat="43.595002" lon="3.897919">
<ele>59</ele>
<time>2013-05-08T05:58:04.000Z</time>
</trkpt>
<trkpt lat="43.595005" lon="3.897864">
<ele>60.3</ele>
<time>2013-05-08T05:58:20.000Z</time>
</trkpt>
<trkpt lat="43.595015" lon="3.897847">
<ele>60.5</ele>
<time>2013-05-08T05:58:21.000Z</time>
</trkpt>
<trkpt lat="43.59504" lon="3.897811">
<ele>61</ele>
<time>2013-05-08T05:58:23.000Z</time>
</trkpt>
<trkpt lat="43.595051" lon="3.897792">
<ele>61.2</ele>
<time>2013-05-08T05:58:24.000Z</time>
</trkpt>
<trkpt lat="43.595085" lon="3.897751">
<ele>62</ele>
<time>2013-05-08T05:58:29.000Z</time>
</trkpt>
<trkpt lat="43.595094" lon="3.897739">
<ele>62.1</ele>
<time>2013-05-08T05:58:30.000Z</time>
</trkpt>
<trkpt lat="43.595116" lon="3.897698">
<ele>62</ele>
<time>2013-05-08T05:58:33.000Z</time>
</trkpt>
<trkpt lat="43.59512" lon="3.897687">
<ele>62</ele>
<time>2013-05-08T05:58:34.000Z</time>
</trkpt>
<trkpt lat="43.595127" lon="3.897666">
<ele>61.8</ele>
<time>2013-05-08T05:58:44.000Z</time>
</trkpt>
<trkpt lat="43.595127" lon="3.897558">
<ele>67.9</ele>
<time>2013-05-08T05:59:22.000Z</time>
</trkpt>
<trkpt lat="43.595104" lon="3.897524">
<ele>67.9</ele>
<time>2013-05-08T05:59:37.000Z</time>
</trkpt>
<trkpt lat="43.595096" lon="3.89751">
<ele>67.9</ele>
<time>2013-05-08T05:59:38.000Z</time>
</trkpt>
<trkpt lat="43.595069" lon="3.897479">
<ele>67.9</ele>
<time>2013-05-08T05:59:42.000Z</time>
</trkpt>
<trkpt lat="43.595026" lon="3.897639">
<ele>67.6</ele>
<time>2013-05-08T05:59:50.000Z</time>
</trkpt>
<trkpt lat="43.595024" lon="3.897664">
<ele>67.5</ele>
<time>2013-05-08T05:59:52.000Z</time>
</trkpt>
<trkpt lat="43.594905" lon="3.897592">
<ele>67.6</ele>
<time>2013-05-08T06:00:13.000Z</time>
</trkpt>
<trkpt lat="43.595077" lon="3.898256">
<ele>50.9</ele>
<time>2013-05-08T06:01:26.000Z</time>
</trkpt>
<trkpt lat="43.595057" lon="3.898268">
<ele>50.8</ele>
<time>2013-05-08T06:01:27.000Z</time>
</trkpt>
<trkpt lat="43.59503" lon="3.898288">
<ele>50.6</ele>
<time>2013-05-08T06:01:28.000Z</time>
</trkpt>
<trkpt lat="43.594985" lon="3.898282">
<ele>50.4</ele>
<time>2013-05-08T06:01:30.000Z</time>
</trkpt>
<trkpt lat="43.594965" lon="3.898258">
<ele>50.3</ele>
<time>2013-05-08T06:01:31.000Z</time>
</trkpt>
<trkpt lat="43.594962" lon="3.898303">
<ele>49.4</ele>
<time>2013-05-08T06:01:49.000Z</time>
</trkpt>
<trkpt lat="43.595011" lon="3.898237">
<ele>49.5</ele>
<time>2013-05-08T06:02:04.000Z</time>
</trkpt>
<trkpt lat="43.595022" lon="3.898199">
<ele>49.5</ele>
<time>2013-05-08T06:02:06.000Z</time>
</trkpt>
<trkpt lat="43.595036" lon="3.898183">
<ele>49.5</ele>
<time>2013-05-08T06:02:07.000Z</time>
</trkpt>
<trkpt lat="43.595055" lon="3.898169">
<ele>49.6</ele>
<time>2013-05-08T06:02:08.000Z</time>
</trkpt>
<trkpt lat="43.595098" lon="3.898144">
<ele>49.7</ele>
<time>2013-05-08T06:02:09.000Z</time>
</trkpt>
<trkpt lat="43.59512" lon="3.898125">
<ele>49.8</ele>
<time>2013-05-08T06:02:10.000Z</time>
</trkpt>
<trkpt lat="43.595137" lon="3.898093">
<ele>50.1</ele>
<time>2013-05-08T06:02:11.000Z</time>
</trkpt>
<trkpt lat="43.595131" lon="3.89804">
<ele>53.8</ele>
<time>2013-05-08T06:03:01.000Z</time>
</trkpt>
<trkpt lat="43.595121" lon="3.898026">
<ele>53.8</ele>
<time>2013-05-08T06:03:02.000Z</time>
</trkpt>
<trkpt lat="43.595093" lon="3.89799">
<ele>53.8</ele>
<time>2013-05-08T06:03:05.000Z</time>
</trkpt>
<trkpt lat="43.595085" lon="3.897981">
<ele>53.9</ele>
<time>2013-05-08T06:03:06.000Z</time>
</trkpt>
<trkpt lat="43.595057" lon="3.897941">
<ele>54</ele>
<time>2013-05-08T06:03:11.000Z</time>
</trkpt>
<trkpt lat="43.595053" lon="3.897936">
<ele>54</ele>
<time>2013-05-08T06:03:12.000Z</time>
</trkpt>
<trkpt lat="43.595078" lon="3.897889">
<ele>56.2</ele>
<time>2013-05-08T06:03:24.000Z</time>
</trkpt>
<trkpt lat="43.595081" lon="3.89788">
<ele>56.5</ele>
<time>2013-05-08T06:03:25.000Z</time>
</trkpt>
<trkpt lat="43.59511" lon="3.897837">
<ele>58.5</ele>
<time>2013-05-08T06:03:34.000Z</time>
</trkpt>
<trkpt lat="43.595114" lon="3.897834">
<ele>58.5</ele>
<time>2013-05-08T06:03:35.000Z</time>
</trkpt>
<trkpt lat="43.595151" lon="3.897831">
<ele>58.9</ele>
<time>2013-05-08T06:03:39.000Z</time>
</trkpt>
<trkpt lat="43.59516" lon="3.897834">
<ele>59</ele>
<time>2013-05-08T06:03:40.000Z</time>
</trkpt>
<trkpt lat="43.595192" lon="3.897799">
<ele>60.6</ele>
<time>2013-05-08T06:03:56.000Z</time>
</trkpt>
<trkpt lat="43.595212" lon="3.897794">
<ele>60.7</ele>
<time>2013-05-08T06:03:57.000Z</time>
</trkpt>
<trkpt lat="43.595253" lon="3.89778">
<ele>60.8</ele>
<time>2013-05-08T06:04:00.000Z</time>
</trkpt>
<trkpt lat="43.595257" lon="3.897773">
<ele>60.8</ele>
<time>2013-05-08T06:04:01.000Z</time>
</trkpt>
<trkpt lat="43.59526" lon="3.897716">
<ele>61.2</ele>
<time>2013-05-08T06:04:07.000Z</time>
</trkpt>
<trkpt lat="43.595258" lon="3.897711">
<ele>61.3</ele>
<time>2013-05-08T06:04:08.000Z</time>
</trkpt>
<trkpt lat="43.595273" lon="3.897654">
<ele>61.7</ele>
<time>2013-05-08T06:04:24.000Z</time>
</trkpt>
<trkpt lat="43.595275" lon="3.897649">
<ele>61.8</ele>
<time>2013-05-08T06:04:25.000Z</time>
</trkpt>
<trkpt lat="43.595255" lon="3.897654">
<ele>62</ele>
<time>2013-05-08T06:04:32.000Z</time>
</trkpt>
<trkpt lat="43.595224" lon="3.897682">
<ele>62.1</ele>
<time>2013-05-08T06:04:33.000Z</time>
</trkpt>
<trkpt lat="43.595197" lon="3.897718">
<ele>62.1</ele>
<time>2013-05-08T06:04:36.000Z</time>
</trkpt>
<trkpt lat="43.595182" lon="3.897725">
<ele>62.1</ele>
<time>2013-05-08T06:04:37.000Z</time>
</trkpt>
<trkpt lat="43.595147" lon="3.89776">
<ele>61.8</ele>
<time>2013-05-08T06:04:44.000Z</time>
</trkpt>
<trkpt lat="43.595143" lon="3.897765">
<ele>61.8</ele>
<time>2013-05-08T06:04:45.000Z</time>
</trkpt>
<trkpt lat="43.595129" lon="3.897712">
<ele>60.2</ele>
<time>2013-05-08T06:05:09.000Z</time>
</trkpt>
<trkpt lat="43.595119" lon="3.897708">
<ele>60.1</ele>
<time>2013-05-08T06:05:10.000Z</time>
</trkpt>
<trkpt lat="43.595098" lon="3.897699">
<ele>60.1</ele>
<time>2013-05-08T06:05:28.000Z</time>
</trkpt>
<trkpt lat="43.595068" lon="3.897758">
<ele>60.1</ele>
<time>2013-05-08T06:05:38.000Z</time>
</trkpt>
<trkpt lat="43.595068" lon="3.897809">
<ele>60.1</ele>
<time>2013-05-08T06:05:39.000Z</time>
</trkpt>
<trkpt lat="43.595078" lon="3.897844">
<ele>60.1</ele>
<time>2013-05-08T06:05:40.000Z</time>
</trkpt>
<trkpt lat="43.595071" lon="3.897903">
<ele>61.2</ele>
<time>2013-05-08T06:05:49.000Z</time>
</trkpt>
<trkpt lat="43.595072" lon="3.897919">
<ele>61.3</ele>
<time>2013-05-08T06:05:50.000Z</time>
</trkpt>
<trkpt lat="43.595105" lon="3.897879">
<ele>63.4</ele>
<time>2013-05-08T06:09:11.000Z</time>
</trkpt>
<trkpt lat="43.595106" lon="3.897876">
<ele>63.4</ele>
<time>2013-05-08T06:09:12.000Z</time>
</trkpt>
<trkpt lat="43.595063" lon="3.897893">
<ele>63.5</ele>
<time>2013-05-08T06:12:30.000Z</time>
</trkpt>
<trkpt lat="43.595062" lon="3.897895">
<ele>63.5</ele>
<time>2013-05-08T06:12:31.000Z</time>
</trkpt>
<trkpt lat="43.595039" lon="3.897871">
<ele>63.7</ele>
<time>2013-05-08T06:13:22.000Z</time>
</trkpt>
<trkpt lat="43.595012" lon="3.897877">
<ele>63.7</ele>
<time>2013-05-08T06:13:23.000Z</time>
</trkpt>
<trkpt lat="43.594976" lon="3.897905">
<ele>63.9</ele>
<time>2013-05-08T06:13:24.000Z</time>
</trkpt>
<trkpt lat="43.594943" lon="3.897945">
<ele>64</ele>
<time>2013-05-08T06:13:25.000Z</time>
</trkpt>
<trkpt lat="43.594905" lon="3.897992">
<ele>64.2</ele>
<time>2013-05-08T06:13:26.000Z</time>
</trkpt>
<trkpt lat="43.59486" lon="3.898048">
<ele>64.1</ele>
<time>2013-05-08T06:13:27.000Z</time>
</trkpt>
<trkpt lat="43.594813" lon="3.898108">
<ele>63.8</ele>
<time>2013-05-08T06:13:28.000Z</time>
</trkpt>
<trkpt lat="43.594768" lon="3.898166">
<ele>63.8</ele>
<time>2013-05-08T06:13:29.000Z</time>
</trkpt>
<trkpt lat="43.594726" lon="3.89823">
<ele>63.9</ele>
<time>2013-05-08T06:13:30.000Z</time>
</trkpt>
<trkpt lat="43.594679" lon="3.898306">
<ele>64.2</ele>
<time>2013-05-08T06:13:31.000Z</time>
</trkpt>
<trkpt lat="43.59463" lon="3.898381">
<ele>64.4</ele>
<time>2013-05-08T06:13:32.000Z</time>
</trkpt>
<trkpt lat="43.594576" lon="3.898463">
<ele>65</ele>
<time>2013-05-08T06:13:33.000Z</time>
</trkpt>
<trkpt lat="43.594519" lon="3.898542">
<ele>65.8</ele>
<time>2013-05-08T06:13:34.000Z</time>
</trkpt>
<trkpt lat="43.594463" lon="3.898583">
<ele>66.1</ele>
<time>2013-05-08T06:13:35.000Z</time>
</trkpt>
<trkpt lat="43.594427" lon="3.898571">
<ele>66.4</ele>
<time>2013-05-08T06:13:36.000Z</time>
</trkpt>
<trkpt lat="43.594382" lon="3.898535">
<ele>66.3</ele>
<time>2013-05-08T06:13:37.000Z</time>
</trkpt>
<trkpt lat="43.59434" lon="3.898498">
<ele>66.2</ele>
<time>2013-05-08T06:13:38.000Z</time>
</trkpt>
<trkpt lat="43.594296" lon="3.898456">
<ele>66.2</ele>
<time>2013-05-08T06:13:39.000Z</time>
</trkpt>
<trkpt lat="43.594259" lon="3.898418">
<ele>66.3</ele>
<time>2013-05-08T06:13:40.000Z</time>
</trkpt>
<trkpt lat="43.594233" lon="3.898393">
<ele>66.4</ele>
<time>2013-05-08T06:13:41.000Z</time>
</trkpt>
<trkpt lat="43.594198" lon="3.898383">
<ele>66.4</ele>
<time>2013-05-08T06:13:42.000Z</time>
</trkpt>
<trkpt lat="43.594172" lon="3.898393">
<ele>66.5</ele>
<time>2013-05-08T06:13:43.000Z</time>
</trkpt>
<trkpt lat="43.59414" lon="3.898435">
<ele>67.2</ele>
<time>2013-05-08T06:13:44.000Z</time>
</trkpt>
<trkpt lat="43.594094" lon="3.898523">
<ele>67.4</ele>
<time>2013-05-08T06:13:45.000Z</time>
</trkpt>
<trkpt lat="43.594025" lon="3.898643">
<ele>67.1</ele>
<time>2013-05-08T06:13:46.000Z</time>
</trkpt>
<trkpt lat="43.593943" lon="3.898786">
<ele>67.1</ele>
<time>2013-05-08T06:13:47.000Z</time>
</trkpt>
<trkpt lat="43.593853" lon="3.898947">
<ele>67</ele>
<time>2013-05-08T06:13:48.000Z</time>
</trkpt>
<trkpt lat="43.593755" lon="3.89913">
<ele>66.7</ele>
<time>2013-05-08T06:13:49.000Z</time>
</trkpt>
<trkpt lat="43.593643" lon="3.899329">
<ele>66.8</ele>
<time>2013-05-08T06:13:50.000Z</time>
</trkpt>
<trkpt lat="43.593534" lon="3.899539">
<ele>66.6</ele>
<time>2013-05-08T06:13:51.000Z</time>
</trkpt>
<trkpt lat="43.593418" lon="3.899755">
<ele>65.9</ele>
<time>2013-05-08T06:13:52.000Z</time>
</trkpt>
<trkpt lat="43.593309" lon="3.899962">
<ele>64.9</ele>
<time>2013-05-08T06:13:53.000Z</time>
</trkpt>
<trkpt lat="43.593208" lon="3.900155">
<ele>63.5</ele>
<time>2013-05-08T06:13:54.000Z</time>
</trkpt>
<trkpt lat="43.593117" lon="3.900329">
<ele>62.1</ele>
<time>2013-05-08T06:13:55.000Z</time>
</trkpt>
<trkpt lat="43.593029" lon="3.900487">
<ele>60.8</ele>
<time>2013-05-08T06:13:56.000Z</time>
</trkpt>
<trkpt lat="43.592906" lon="3.900596">
<ele>60.1</ele>
<time>2013-05-08T06:13:57.000Z</time>
</trkpt>
<trkpt lat="43.592768" lon="3.90064">
<ele>59.3</ele>
<time>2013-05-08T06:13:58.000Z</time>
</trkpt>
<trkpt lat="43.592624" lon="3.900672">
<ele>58.6</ele>
<time>2013-05-08T06:13:59.000Z</time>
</trkpt>
<trkpt lat="43.592475" lon="3.900674">
<ele>58.1</ele>
<time>2013-05-08T06:14:00.000Z</time>
</trkpt>
<trkpt lat="43.592312" lon="3.900616">
<ele>57.3</ele>
<time>2013-05-08T06:14:01.000Z</time>
</trkpt>
<trkpt lat="43.592228" lon="3.900404">
<ele>56.7</ele>
<time>2013-05-08T06:14:02.000Z</time>
</trkpt>
<trkpt lat="43.59213" lon="3.900189">
<ele>56.1</ele>
<time>2013-05-08T06:14:03.000Z</time>
</trkpt>
<trkpt lat="43.592023" lon="3.899964">
<ele>55.8</ele>
<time>2013-05-08T06:14:04.000Z</time>
</trkpt>
<trkpt lat="43.591916" lon="3.89973">
<ele>55.8</ele>
<time>2013-05-08T06:14:05.000Z</time>
</trkpt>
<trkpt lat="43.591812" lon="3.899501">
<ele>56.1</ele>
<time>2013-05-08T06:14:06.000Z</time>
</trkpt>
<trkpt lat="43.591723" lon="3.89928">
<ele>56.6</ele>
<time>2013-05-08T06:14:07.000Z</time>
</trkpt>
<trkpt lat="43.59164" lon="3.899091">
<ele>57.1</ele>
<time>2013-05-08T06:14:08.000Z</time>
</trkpt>
<trkpt lat="43.591556" lon="3.898921">
<ele>57.7</ele>
<time>2013-05-08T06:14:09.000Z</time>
</trkpt>
<trkpt lat="43.591478" lon="3.898785">
<ele>58.2</ele>
<time>2013-05-08T06:14:10.000Z</time>
</trkpt>
<trkpt lat="43.591406" lon="3.898652">
<ele>58.6</ele>
<time>2013-05-08T06:14:11.000Z</time>
</trkpt>
<trkpt lat="43.591328" lon="3.898499">
<ele>58.9</ele>
<time>2013-05-08T06:14:12.000Z</time>
</trkpt>
<trkpt lat="43.591235" lon="3.898319">
<ele>59.2</ele>
<time>2013-05-08T06:14:13.000Z</time>
</trkpt>
<trkpt lat="43.591127" lon="3.898118">
<ele>59.8</ele>
<time>2013-05-08T06:14:14.000Z</time>
</trkpt>
<trkpt lat="43.591013" lon="3.897906">
<ele>60.3</ele>
<time>2013-05-08T06:14:15.000Z</time>
</trkpt>
<trkpt lat="43.590894" lon="3.897684">
<ele>60.7</ele>
<time>2013-05-08T06:14:16.000Z</time>
</trkpt>
<trkpt lat="43.590785" lon="3.897473">
<ele>61.3</ele>
<time>2013-05-08T06:14:17.000Z</time>
</trkpt>
<trkpt lat="43.590683" lon="3.897275">
<ele>61.7</ele>
<time>2013-05-08T06:14:18.000Z</time>
</trkpt>
<trkpt lat="43.590599" lon="3.897106">
<ele>61.7</ele>
<time>2013-05-08T06:14:19.000Z</time>
</trkpt>
<trkpt lat="43.590529" lon="3.896977">
<ele>61.6</ele>
<time>2013-05-08T06:14:20.000Z</time>
</trkpt>
<trkpt lat="43.590479" lon="3.896887">
<ele>61.6</ele>
<time>2013-05-08T06:14:21.000Z</time>
</trkpt>
<trkpt lat="43.590437" lon="3.896826">
<ele>61.8</ele>
<time>2013-05-08T06:14:22.000Z</time>
</trkpt>
<trkpt lat="43.590396" lon="3.896766">
<ele>62.2</ele>
<time>2013-05-08T06:14:23.000Z</time>
</trkpt>
<trkpt lat="43.590355" lon="3.896702">
<ele>62.5</ele>
<time>2013-05-08T06:14:24.000Z</time>
</trkpt>
<trkpt lat="43.590305" lon="3.896611">
<ele>62.6</ele>
<time>2013-05-08T06:14:25.000Z</time>
</trkpt>
<trkpt lat="43.590236" lon="3.896492">
<ele>62.8</ele>
<time>2013-05-08T06:14:26.000Z</time>
</trkpt>
<trkpt lat="43.590136" lon="3.896333">
<ele>62.9</ele>
<time>2013-05-08T06:14:27.000Z</time>
</trkpt>
<trkpt lat="43.590025" lon="3.896173">
<ele>62.7</ele>
<time>2013-05-08T06:14:28.000Z</time>
</trkpt>
<trkpt lat="43.589893" lon="3.895999">
<ele>62.6</ele>
<time>2013-05-08T06:14:29.000Z</time>
</trkpt>
<trkpt lat="43.589751" lon="3.895824">
<ele>62.5</ele>
<time>2013-05-08T06:14:30.000Z</time>
</trkpt>
<trkpt lat="43.589607" lon="3.895648">
<ele>62.3</ele>
<time>2013-05-08T06:14:31.000Z</time>
</trkpt>
<trkpt lat="43.589474" lon="3.895469">
<ele>61.7</ele>
<time>2013-05-08T06:14:32.000Z</time>
</trkpt>
<trkpt lat="43.589342" lon="3.895279">
<ele>60.9</ele>
<time>2013-05-08T06:14:33.000Z</time>
</trkpt>
<trkpt lat="43.589203" lon="3.895078">
<ele>60.1</ele>
<time>2013-05-08T06:14:34.000Z</time>
</trkpt>
<trkpt lat="43.589065" lon="3.894877">
<ele>59.4</ele>
<time>2013-05-08T06:14:35.000Z</time>
</trkpt>
<trkpt lat="43.588933" lon="3.89468">
<ele>58.9</ele>
<time>2013-05-08T06:14:36.000Z</time>
</trkpt>
<trkpt lat="43.588804" lon="3.894486">
<ele>58.9</ele>
<time>2013-05-08T06:14:37.000Z</time>
</trkpt>
<trkpt lat="43.588683" lon="3.894301">
<ele>59.2</ele>
<time>2013-05-08T06:14:38.000Z</time>
</trkpt>
<trkpt lat="43.588572" lon="3.894116">
<ele>59.8</ele>
<time>2013-05-08T06:14:39.000Z</time>
</trkpt>
<trkpt lat="43.588479" lon="3.893944">
<ele>60.1</ele>
<time>2013-05-08T06:14:40.000Z</time>
</trkpt>
<trkpt lat="43.588428" lon="3.893758">
<ele>60.6</ele>
<time>2013-05-08T06:14:41.000Z</time>
</trkpt>
<trkpt lat="43.588378" lon="3.893583">
<ele>60.9</ele>
<time>2013-05-08T06:14:42.000Z</time>
</trkpt>
<trkpt lat="43.588344" lon="3.89343">
<ele>61.4</ele>
<time>2013-05-08T06:14:43.000Z</time>
</trkpt>
<trkpt lat="43.588343" lon="3.893273">
<ele>61.9</ele>
<time>2013-05-08T06:14:44.000Z</time>
</trkpt>
<trkpt lat="43.588374" lon="3.893129">
<ele>62.1</ele>
<time>2013-05-08T06:14:45.000Z</time>
</trkpt>
<trkpt lat="43.588457" lon="3.89301">
<ele>61.7</ele>
<time>2013-05-08T06:14:46.000Z</time>
</trkpt>
<trkpt lat="43.588554" lon="3.892877">
<ele>61.5</ele>
<time>2013-05-08T06:14:47.000Z</time>
</trkpt>
<trkpt lat="43.588676" lon="3.892722">
<ele>61.4</ele>
<time>2013-05-08T06:14:48.000Z</time>
</trkpt>
<trkpt lat="43.588805" lon="3.892557">
<ele>61.5</ele>
<time>2013-05-08T06:14:49.000Z</time>
</trkpt>
<trkpt lat="43.588942" lon="3.892385">
<ele>61.5</ele>
<time>2013-05-08T06:14:50.000Z</time>
</trkpt>
<trkpt lat="43.589089" lon="3.892208">
<ele>61.5</ele>
<time>2013-05-08T06:14:51.000Z</time>
</trkpt>
<trkpt lat="43.589239" lon="3.892026">
<ele>62.1</ele>
<time>2013-05-08T06:14:52.000Z</time>
</trkpt>
<trkpt lat="43.589398" lon="3.891832">
<ele>62.8</ele>
<time>2013-05-08T06:14:53.000Z</time>
</trkpt>
<trkpt lat="43.589546" lon="3.89165">
<ele>63.5</ele>
<time>2013-05-08T06:14:54.000Z</time>
</trkpt>
<trkpt lat="43.589708" lon="3.891474">
<ele>64.1</ele>
<time>2013-05-08T06:14:55.000Z</time>
</trkpt>
<trkpt lat="43.589866" lon="3.891314">
<ele>64.9</ele>
<time>2013-05-08T06:14:56.000Z</time>
</trkpt>
<trkpt lat="43.590009" lon="3.891171">
<ele>64.9</ele>
<time>2013-05-08T06:14:57.000Z</time>
</trkpt>
<trkpt lat="43.590149" lon="3.891036">
<ele>64.9</ele>
<time>2013-05-08T06:14:58.000Z</time>
</trkpt>
<trkpt lat="43.590284" lon="3.890907">
<ele>64.8</ele>
<time>2013-05-08T06:14:59.000Z</time>
</trkpt>
<trkpt lat="43.590416" lon="3.890787">
<ele>64.7</ele>
<time>2013-05-08T06:15:00.000Z</time>
</trkpt>
<trkpt lat="43.590525" lon="3.890682">
<ele>64.5</ele>
<time>2013-05-08T06:15:01.000Z</time>
</trkpt>
<trkpt lat="43.59062" lon="3.890596">
<ele>64.5</ele>
<time>2013-05-08T06:15:02.000Z</time>
</trkpt>
<trkpt lat="43.590704" lon="3.890523">
<ele>64.5</ele>
<time>2013-05-08T06:15:03.000Z</time>
</trkpt>
<trkpt lat="43.590722" lon="3.890421">
<ele>64.6</ele>
<time>2013-05-08T06:15:04.000Z</time>
</trkpt>
<trkpt lat="43.590695" lon="3.89033">
<ele>65</ele>
<time>2013-05-08T06:15:05.000Z</time>
</trkpt>
<trkpt lat="43.59063" lon="3.890235">
<ele>65.3</ele>
<time>2013-05-08T06:15:06.000Z</time>
</trkpt>
<trkpt lat="43.590548" lon="3.890194">
<ele>66</ele>
<time>2013-05-08T06:15:07.000Z</time>
</trkpt>
<trkpt lat="43.590449" lon="3.89016">
<ele>65.7</ele>
<time>2013-05-08T06:15:08.000Z</time>
</trkpt>
<trkpt lat="43.590335" lon="3.890132">
<ele>65.3</ele>
<time>2013-05-08T06:15:09.000Z</time>
</trkpt>
<trkpt lat="43.590204" lon="3.890111">
<ele>64.9</ele>
<time>2013-05-08T06:15:10.000Z</time>
</trkpt>
<trkpt lat="43.590073" lon="3.890102">
<ele>64.4</ele>
<time>2013-05-08T06:15:11.000Z</time>
</trkpt>
<trkpt lat="43.589947" lon="3.890102">
<ele>63.9</ele>
<time>2013-05-08T06:15:12.000Z</time>
</trkpt>
<trkpt lat="43.589835" lon="3.890107">
<ele>63.9</ele>
<time>2013-05-08T06:15:13.000Z</time>
</trkpt>
<trkpt lat="43.589758" lon="3.890111">
<ele>64</ele>
<time>2013-05-08T06:15:14.000Z</time>
</trkpt>
<trkpt lat="43.589715" lon="3.890096">
<ele>64.1</ele>
<time>2013-05-08T06:15:15.000Z</time>
</trkpt>
<trkpt lat="43.589682" lon="3.890081">
<ele>64.1</ele>
<time>2013-05-08T06:15:16.000Z</time>
</trkpt>
<trkpt lat="43.589644" lon="3.890039">
<ele>63.7</ele>
<time>2013-05-08T06:15:17.000Z</time>
</trkpt>
<trkpt lat="43.589596" lon="3.889969">
<ele>63.1</ele>
<time>2013-05-08T06:15:18.000Z</time>
</trkpt>
<trkpt lat="43.589539" lon="3.889875">
<ele>62.4</ele>
<time>2013-05-08T06:15:19.000Z</time>
</trkpt>
<trkpt lat="43.589479" lon="3.889772">
<ele>61.6</ele>
<time>2013-05-08T06:15:20.000Z</time>
</trkpt>
<trkpt lat="43.589397" lon="3.88968">
<ele>61.8</ele>
<time>2013-05-08T06:15:21.000Z</time>
</trkpt>
<trkpt lat="43.589302" lon="3.889609">
<ele>62.4</ele>
<time>2013-05-08T06:15:22.000Z</time>
</trkpt>
<trkpt lat="43.589181" lon="3.889589">
<ele>62.2</ele>
<time>2013-05-08T06:15:23.000Z</time>
</trkpt>
<trkpt lat="43.589049" lon="3.889625">
<ele>61.5</ele>
<time>2013-05-08T06:15:24.000Z</time>
</trkpt>
<trkpt lat="43.588912" lon="3.889733">
<ele>60.8</ele>
<time>2013-05-08T06:15:25.000Z</time>
</trkpt>
<trkpt lat="43.588775" lon="3.889867">
<ele>60.1</ele>
<time>2013-05-08T06:15:26.000Z</time>
</trkpt>
<trkpt lat="43.588639" lon="3.88999">
<ele>59.6</ele>
<time>2013-05-08T06:15:27.000Z</time>
</trkpt>
<trkpt lat="43.588462" lon="3.890068">
<ele>59.2</ele>
<time>2013-05-08T06:15:28.000Z</time>
</trkpt>
<trkpt lat="43.588279" lon="3.890087">
<ele>58.8</ele>
<time>2013-05-08T06:15:29.000Z</time>
</trkpt>
<trkpt lat="43.588093" lon="3.890086">
<ele>58.4</ele>
<time>2013-05-08T06:15:30.000Z</time>
</trkpt>
<trkpt lat="43.587902" lon="3.89002">
<ele>58.2</ele>
<time>2013-05-08T06:15:31.000Z</time>
</trkpt>
<trkpt lat="43.587702" lon="3.889921">
<ele>58.1</ele>
<time>2013-05-08T06:15:32.000Z</time>
</trkpt>
<trkpt lat="43.587494" lon="3.889791">
<ele>58.2</ele>
<time>2013-05-08T06:15:33.000Z</time>
</trkpt>
<trkpt lat="43.587279" lon="3.889645">
<ele>58.6</ele>
<time>2013-05-08T06:15:34.000Z</time>
</trkpt>
<trkpt lat="43.587069" lon="3.889499">
<ele>59.1</ele>
<time>2013-05-08T06:15:35.000Z</time>
</trkpt>
<trkpt lat="43.586858" lon="3.889343">
<ele>60.1</ele>
<time>2013-05-08T06:15:36.000Z</time>
</trkpt>
<trkpt lat="43.586636" lon="3.889196">
<ele>61.2</ele>
<time>2013-05-08T06:15:37.000Z</time>
</trkpt>
<trkpt lat="43.586404" lon="3.889067">
<ele>62.1</ele>
<time>2013-05-08T06:15:38.000Z</time>
</trkpt>
<trkpt lat="43.586176" lon="3.888942">
<ele>62.7</ele>
<time>2013-05-08T06:15:39.000Z</time>
</trkpt>
<trkpt lat="43.585963" lon="3.888831">
<ele>63.3</ele>
<time>2013-05-08T06:15:40.000Z</time>
</trkpt>
<trkpt lat="43.585784" lon="3.888731">
<ele>63.8</ele>
<time>2013-05-08T06:15:41.000Z</time>
</trkpt>
<trkpt lat="43.58565" lon="3.888644">
<ele>64.4</ele>
<time>2013-05-08T06:15:42.000Z</time>
</trkpt>
<trkpt lat="43.585559" lon="3.888541">
<ele>64.9</ele>
<time>2013-05-08T06:15:43.000Z</time>
</trkpt>
<trkpt lat="43.585512" lon="3.888414">
<ele>65.5</ele>
<time>2013-05-08T06:15:44.000Z</time>
</trkpt>
<trkpt lat="43.585477" lon="3.888289">
<ele>65.8</ele>
<time>2013-05-08T06:15:45.000Z</time>
</trkpt>
<trkpt lat="43.585429" lon="3.888162">
<ele>66</ele>
<time>2013-05-08T06:15:46.000Z</time>
</trkpt>
<trkpt lat="43.585363" lon="3.888099">
<ele>66.5</ele>
<time>2013-05-08T06:15:47.000Z</time>
</trkpt>
<trkpt lat="43.585284" lon="3.888104">
<ele>66.4</ele>
<time>2013-05-08T06:15:48.000Z</time>
</trkpt>
<trkpt lat="43.585179" lon="3.88812">
<ele>66.1</ele>
<time>2013-05-08T06:15:49.000Z</time>
</trkpt>
<trkpt lat="43.585054" lon="3.888149">
<ele>66.2</ele>
<time>2013-05-08T06:15:50.000Z</time>
</trkpt>
<trkpt lat="43.584906" lon="3.88818">
<ele>66.3</ele>
<time>2013-05-08T06:15:51.000Z</time>
</trkpt>
<trkpt lat="43.584744" lon="3.888198">
<ele>66.2</ele>
<time>2013-05-08T06:15:52.000Z</time>
</trkpt>
<trkpt lat="43.584574" lon="3.888148">
<ele>66</ele>
<time>2013-05-08T06:15:52.999Z</time>
</trkpt>
<trkpt lat="43.584391" lon="3.888088">
<ele>65.7</ele>
<time>2013-05-08T06:15:53.999Z</time>
</trkpt>
<trkpt lat="43.584201" lon="3.888011">
<ele>65.6</ele>
<time>2013-05-08T06:15:54.999Z</time>
</trkpt>
<trkpt lat="43.584005" lon="3.8879">
<ele>65.6</ele>
<time>2013-05-08T06:15:55.999Z</time>
</trkpt>
<trkpt lat="43.583806" lon="3.887789">
<ele>65.8</ele>
<time>2013-05-08T06:15:56.999Z</time>
</trkpt>
<trkpt lat="43.583583" lon="3.887653">
<ele>66</ele>
<time>2013-05-08T06:15:57.999Z</time>
</trkpt>
<trkpt lat="43.583371" lon="3.887487">
<ele>65.9</ele>
<time>2013-05-08T06:15:58.999Z</time>
</trkpt>
<trkpt lat="43.583171" lon="3.887302">
<ele>65.7</ele>
<time>2013-05-08T06:15:59.999Z</time>
</trkpt>
<trkpt lat="43.582991" lon="3.88711">
<ele>65.4</ele>
<time>2013-05-08T06:16:00.999Z</time>
</trkpt>
<trkpt lat="43.582828" lon="3.88691">
<ele>65.2</ele>
<time>2013-05-08T06:16:01.999Z</time>
</trkpt>
<trkpt lat="43.582668" lon="3.886707">
<ele>65.5</ele>
<time>2013-05-08T06:16:02.999Z</time>
</trkpt>
<trkpt lat="43.582519" lon="3.88652">
<ele>66</ele>
<time>2013-05-08T06:16:03.999Z</time>
</trkpt>
<trkpt lat="43.582384" lon="3.886354">
<ele>66.4</ele>
<time>2013-05-08T06:16:04.999Z</time>
</trkpt>
<trkpt lat="43.582267" lon="3.886197">
<ele>66.8</ele>
<time>2013-05-08T06:16:05.999Z</time>
</trkpt>
<trkpt lat="43.582155" lon="3.886034">
<ele>67.5</ele>
<time>2013-05-08T06:16:06.999Z</time>
</trkpt>
<trkpt lat="43.582064" lon="3.88588">
<ele>68</ele>
<time>2013-05-08T06:16:07.999Z</time>
</trkpt>
<trkpt lat="43.581977" lon="3.88572">
<ele>68.2</ele>
<time>2013-05-08T06:16:08.999Z</time>
</trkpt>
<trkpt lat="43.581869" lon="3.885517">
<ele>68.4</ele>
<time>2013-05-08T06:16:09.999Z</time>
</trkpt>
<trkpt lat="43.581759" lon="3.885283">
<ele>68.7</ele>
<time>2013-05-08T06:16:10.999Z</time>
</trkpt>
<trkpt lat="43.581646" lon="3.885014">
<ele>68.5</ele>
<time>2013-05-08T06:16:11.999Z</time>
</trkpt>
<trkpt lat="43.581543" lon="3.884716">
<ele>68.3</ele>
<time>2013-05-08T06:16:12.999Z</time>
</trkpt>
<trkpt lat="43.581445" lon="3.884401">
<ele>68.2</ele>
<time>2013-05-08T06:16:13.999Z</time>
</trkpt>
<trkpt lat="43.581344" lon="3.884078">
<ele>67.9</ele>
<time>2013-05-08T06:16:14.999Z</time>
</trkpt>
<trkpt lat="43.581228" lon="3.883758">
<ele>67.7</ele>
<time>2013-05-08T06:16:15.999Z</time>
</trkpt>
<trkpt lat="43.581106" lon="3.88342">
<ele>67.4</ele>
<time>2013-05-08T06:16:16.999Z</time>
</trkpt>
<trkpt lat="43.580986" lon="3.883074">
<ele>66.9</ele>
<time>2013-05-08T06:16:17.999Z</time>
</trkpt>
<trkpt lat="43.580875" lon="3.882718">
<ele>66.4</ele>
<time>2013-05-08T06:16:18.999Z</time>
</trkpt>
<trkpt lat="43.580776" lon="3.882361">
<ele>66.1</ele>
<time>2013-05-08T06:16:19.999Z</time>
</trkpt>
<trkpt lat="43.580695" lon="3.882003">
<ele>65.7</ele>
<time>2013-05-08T06:16:20.999Z</time>
</trkpt>
<trkpt lat="43.580614" lon="3.881647">
<ele>65.4</ele>
<time>2013-05-08T06:16:21.999Z</time>
</trkpt>
<trkpt lat="43.580535" lon="3.881298">
<ele>65.1</ele>
<time>2013-05-08T06:16:22.999Z</time>
</trkpt>
<trkpt lat="43.580455" lon="3.88096">
<ele>65.1</ele>
<time>2013-05-08T06:16:23.999Z</time>
</trkpt>
<trkpt lat="43.580367" lon="3.880635">
<ele>65.2</ele>
<time>2013-05-08T06:16:24.999Z</time>
</trkpt>
<trkpt lat="43.580271" lon="3.880317">
<ele>65.5</ele>
<time>2013-05-08T06:16:25.999Z</time>
</trkpt>
<trkpt lat="43.580162" lon="3.880013">
<ele>65.8</ele>
<time>2013-05-08T06:16:26.999Z</time>
</trkpt>
<trkpt lat="43.580054" lon="3.879716">
<ele>65.9</ele>
<time>2013-05-08T06:16:27.999Z</time>
</trkpt>
<trkpt lat="43.579929" lon="3.879441">
<ele>66</ele>
<time>2013-05-08T06:16:28.999Z</time>
</trkpt>
<trkpt lat="43.579787" lon="3.879169">
<ele>66.2</ele>
<time>2013-05-08T06:16:29.999Z</time>
</trkpt>
<trkpt lat="43.579651" lon="3.87892">
<ele>65.6</ele>
<time>2013-05-08T06:16:30.999Z</time>
</trkpt>
<trkpt lat="43.579522" lon="3.878691">
<ele>65.1</ele>
<time>2013-05-08T06:16:31.999Z</time>
</trkpt>
<trkpt lat="43.579396" lon="3.878467">
<ele>64.6</ele>
<time>2013-05-08T06:16:32.999Z</time>
</trkpt>
<trkpt lat="43.579268" lon="3.878238">
<ele>64.1</ele>
<time>2013-05-08T06:16:33.999Z</time>
</trkpt>
<trkpt lat="43.579135" lon="3.878001">
<ele>63.7</ele>
<time>2013-05-08T06:16:34.999Z</time>
</trkpt>
<trkpt lat="43.578996" lon="3.877745">
<ele>63.5</ele>
<time>2013-05-08T06:16:35.999Z</time>
</trkpt>
<trkpt lat="43.578863" lon="3.877473">
<ele>63.3</ele>
<time>2013-05-08T06:16:36.999Z</time>
</trkpt>
<trkpt lat="43.578728" lon="3.877203">
<ele>62.9</ele>
<time>2013-05-08T06:16:37.999Z</time>
</trkpt>
<trkpt lat="43.578584" lon="3.876926">
<ele>62.6</ele>
<time>2013-05-08T06:16:38.999Z</time>
</trkpt>
<trkpt lat="43.578443" lon="3.876648">
<ele>62.5</ele>
<time>2013-05-08T06:16:39.999Z</time>
</trkpt>
<trkpt lat="43.5783" lon="3.876364">
<ele>62.5</ele>
<time>2013-05-08T06:16:40.999Z</time>
</trkpt>
<trkpt lat="43.57816" lon="3.876073">
<ele>62.6</ele>
<time>2013-05-08T06:16:41.999Z</time>
</trkpt>
<trkpt lat="43.578021" lon="3.875786">
<ele>62.7</ele>
<time>2013-05-08T06:16:42.999Z</time>
</trkpt>
<trkpt lat="43.577878" lon="3.875518">
<ele>62.8</ele>
<time>2013-05-08T06:16:43.999Z</time>
</trkpt>
<trkpt lat="43.577737" lon="3.875265">
<ele>63.1</ele>
<time>2013-05-08T06:16:44.999Z</time>
</trkpt>
<trkpt lat="43.577601" lon="3.875031">
<ele>63.4</ele>
<time>2013-05-08T06:16:45.999Z</time>
</trkpt>
<trkpt lat="43.577468" lon="3.874808">
<ele>63.8</ele>
<time>2013-05-08T06:16:46.999Z</time>
</trkpt>
<trkpt lat="43.577344" lon="3.874607">
<ele>64.3</ele>
<time>2013-05-08T06:16:47.999Z</time>
</trkpt>
<trkpt lat="43.577234" lon="3.874429">
<ele>64.9</ele>
<time>2013-05-08T06:16:48.999Z</time>
</trkpt>
<trkpt lat="43.577123" lon="3.874283">
<ele>65.3</ele>
<time>2013-05-08T06:16:49.999Z</time>
</trkpt>
<trkpt lat="43.577035" lon="3.874165">
<ele>65.4</ele>
<time>2013-05-08T06:16:50.999Z</time>
</trkpt>
<trkpt lat="43.576968" lon="3.87403">
<ele>65.6</ele>
<time>2013-05-08T06:16:51.999Z</time>
</trkpt>
<trkpt lat="43.576923" lon="3.873875">
<ele>65.6</ele>
<time>2013-05-08T06:16:52.999Z</time>
</trkpt>
<trkpt lat="43.576889" lon="3.873724">
<ele>65.7</ele>
<time>2013-05-08T06:16:53.999Z</time>
</trkpt>
<trkpt lat="43.576849" lon="3.873553">
<ele>65.5</ele>
<time>2013-05-08T06:16:54.999Z</time>
</trkpt>
<trkpt lat="43.576787" lon="3.873395">
<ele>65.9</ele>
<time>2013-05-08T06:16:55.999Z</time>
</trkpt>
<trkpt lat="43.576687" lon="3.873259">
<ele>66.4</ele>
<time>2013-05-08T06:16:56.999Z</time>
</trkpt>
<trkpt lat="43.57657" lon="3.873117">
<ele>66.5</ele>
<time>2013-05-08T06:16:57.999Z</time>
</trkpt>
<trkpt lat="43.576463" lon="3.872958">
<ele>67.2</ele>
<time>2013-05-08T06:16:58.999Z</time>
</trkpt>
<trkpt lat="43.576391" lon="3.872737">
<ele>67.6</ele>
<time>2013-05-08T06:16:59.999Z</time>
</trkpt>
<trkpt lat="43.576324" lon="3.872494">
<ele>68</ele>
<time>2013-05-08T06:17:00.999Z</time>
</trkpt>
<trkpt lat="43.576252" lon="3.872223">
<ele>68.8</ele>
<time>2013-05-08T06:17:01.999Z</time>
</trkpt>
<trkpt lat="43.576182" lon="3.871944">
<ele>69.4</ele>
<time>2013-05-08T06:17:02.999Z</time>
</trkpt>
<trkpt lat="43.576113" lon="3.871657">
<ele>69.8</ele>
<time>2013-05-08T06:17:03.999Z</time>
</trkpt>
<trkpt lat="43.576052" lon="3.871375">
<ele>70.2</ele>
<time>2013-05-08T06:17:04.999Z</time>
</trkpt>
<trkpt lat="43.575992" lon="3.871095">
<ele>70.7</ele>
<time>2013-05-08T06:17:05.999Z</time>
</trkpt>
<trkpt lat="43.57593" lon="3.870827">
<ele>71.4</ele>
<time>2013-05-08T06:17:06.999Z</time>
</trkpt>
<trkpt lat="43.575856" lon="3.870553">
<ele>72</ele>
<time>2013-05-08T06:17:07.999Z</time>
</trkpt>
<trkpt lat="43.575746" lon="3.87026">
<ele>72.2</ele>
<time>2013-05-08T06:17:08.999Z</time>
</trkpt>
<trkpt lat="43.57562" lon="3.869956">
<ele>72.1</ele>
<time>2013-05-08T06:17:09.999Z</time>
</trkpt>
<trkpt lat="43.575481" lon="3.869646">
<ele>72</ele>
<time>2013-05-08T06:17:10.999Z</time>
</trkpt>
<trkpt lat="43.575346" lon="3.869341">
<ele>72.1</ele>
<time>2013-05-08T06:17:11.999Z</time>
</trkpt>
<trkpt lat="43.575235" lon="3.869043">
<ele>72.2</ele>
<time>2013-05-08T06:17:12.999Z</time>
</trkpt>
<trkpt lat="43.575158" lon="3.868774">
<ele>72.6</ele>
<time>2013-05-08T06:17:13.999Z</time>
</trkpt>
<trkpt lat="43.575095" lon="3.86853">
<ele>72.8</ele>
<time>2013-05-08T06:17:14.999Z</time>
</trkpt>
<trkpt lat="43.575072" lon="3.868316">
<ele>73.1</ele>
<time>2013-05-08T06:17:15.999Z</time>
</trkpt>
<trkpt lat="43.575081" lon="3.868138">
<ele>73.3</ele>
<time>2013-05-08T06:17:16.999Z</time>
</trkpt>
<trkpt lat="43.575115" lon="3.867981">
<ele>73.5</ele>
<time>2013-05-08T06:17:17.999Z</time>
</trkpt>
<trkpt lat="43.575163" lon="3.867838">
<ele>73.9</ele>
<time>2013-05-08T06:17:18.999Z</time>
</trkpt>
<trkpt lat="43.57522" lon="3.867695">
<ele>74.2</ele>
<time>2013-05-08T06:17:19.999Z</time>
</trkpt>
<trkpt lat="43.575267" lon="3.86756">
<ele>74.6</ele>
<time>2013-05-08T06:17:20.999Z</time>
</trkpt>
<trkpt lat="43.575289" lon="3.867418">
<ele>75.1</ele>
<time>2013-05-08T06:17:21.999Z</time>
</trkpt>
<trkpt lat="43.575251" lon="3.867321">
<ele>75.6</ele>
<time>2013-05-08T06:17:22.999Z</time>
</trkpt>
<trkpt lat="43.575174" lon="3.867238">
<ele>76.1</ele>
<time>2013-05-08T06:17:23.999Z</time>
</trkpt>
<trkpt lat="43.575093" lon="3.86716">
<ele>76.3</ele>
<time>2013-05-08T06:17:24.999Z</time>
</trkpt>
<trkpt lat="43.575005" lon="3.867072">
<ele>76.5</ele>
<time>2013-05-08T06:17:25.999Z</time>
</trkpt>
<trkpt lat="43.574936" lon="3.866947">
<ele>76.9</ele>
<time>2013-05-08T06:17:26.999Z</time>
</trkpt>
<trkpt lat="43.574873" lon="3.866802">
<ele>77.5</ele>
<time>2013-05-08T06:17:27.999Z</time>
</trkpt>
<trkpt lat="43.574819" lon="3.866635">
<ele>77.8</ele>
<time>2013-05-08T06:17:28.999Z</time>
</trkpt>
<trkpt lat="43.574801" lon="3.866395">
<ele>77.8</ele>
<time>2013-05-08T06:17:29.999Z</time>
</trkpt>
<trkpt lat="43.574818" lon="3.866133">
<ele>77.8</ele>
<time>2013-05-08T06:17:30.999Z</time>
</trkpt>
<trkpt lat="43.574842" lon="3.865852">
<ele>77.5</ele>
<time>2013-05-08T06:17:31.999Z</time>
</trkpt>
<trkpt lat="43.574914" lon="3.865537">
<ele>76.8</ele>
<time>2013-05-08T06:17:32.999Z</time>
</trkpt>
<trkpt lat="43.574996" lon="3.865213">
<ele>76.3</ele>
<time>2013-05-08T06:17:33.999Z</time>
</trkpt>
<trkpt lat="43.575083" lon="3.864875">
<ele>76</ele>
<time>2013-05-08T06:17:34.999Z</time>
</trkpt>
<trkpt lat="43.575165" lon="3.864541">
<ele>76</ele>
<time>2013-05-08T06:17:35.999Z</time>
</trkpt>
<trkpt lat="43.57524" lon="3.864208">
<ele>76.1</ele>
<time>2013-05-08T06:17:36.999Z</time>
</trkpt>
<trkpt lat="43.575305" lon="3.863877">
<ele>76.1</ele>
<time>2013-05-08T06:17:37.999Z</time>
</trkpt>
<trkpt lat="43.575344" lon="3.863526">
<ele>75.7</ele>
<time>2013-05-08T06:17:38.999Z</time>
</trkpt>
<trkpt lat="43.575362" lon="3.863172">
<ele>75.5</ele>
<time>2013-05-08T06:17:39.999Z</time>
</trkpt>
<trkpt lat="43.575354" lon="3.86282">
<ele>75.2</ele>
<time>2013-05-08T06:17:40.999Z</time>
</trkpt>
<trkpt lat="43.575332" lon="3.862479">
<ele>75</ele>
<time>2013-05-08T06:17:41.999Z</time>
</trkpt>
<trkpt lat="43.57531" lon="3.862153">
<ele>75</ele>
<time>2013-05-08T06:17:42.999Z</time>
</trkpt>
<trkpt lat="43.575268" lon="3.861846">
<ele>75</ele>
<time>2013-05-08T06:17:43.999Z</time>
</trkpt>
<trkpt lat="43.575224" lon="3.861586">
<ele>74.9</ele>
<time>2013-05-08T06:17:44.999Z</time>
</trkpt>
<trkpt lat="43.575193" lon="3.86135">
<ele>74.9</ele>
<time>2013-05-08T06:17:45.999Z</time>
</trkpt>
<trkpt lat="43.575175" lon="3.861122">
<ele>74.6</ele>
<time>2013-05-08T06:17:46.999Z</time>
</trkpt>
<trkpt lat="43.575168" lon="3.860901">
<ele>74.4</ele>
<time>2013-05-08T06:17:47.999Z</time>
</trkpt>
<trkpt lat="43.575205" lon="3.860698">
<ele>74</ele>
<time>2013-05-08T06:17:48.999Z</time>
</trkpt>
<trkpt lat="43.575241" lon="3.860524">
<ele>74</ele>
<time>2013-05-08T06:17:49.999Z</time>
</trkpt>
<trkpt lat="43.575277" lon="3.860361">
<ele>74</ele>
<time>2013-05-08T06:17:50.999Z</time>
</trkpt>
<trkpt lat="43.575283" lon="3.860203">
<ele>73.8</ele>
<time>2013-05-08T06:17:51.999Z</time>
</trkpt>
<trkpt lat="43.575255" lon="3.860069">
<ele>73.8</ele>
<time>2013-05-08T06:17:52.999Z</time>
</trkpt>
<trkpt lat="43.575212" lon="3.859919">
<ele>73.6</ele>
<time>2013-05-08T06:17:53.999Z</time>
</trkpt>
<trkpt lat="43.575157" lon="3.85973">
<ele>73.6</ele>
<time>2013-05-08T06:17:54.999Z</time>
</trkpt>
<trkpt lat="43.575105" lon="3.859514">
<ele>73.5</ele>
<time>2013-05-08T06:17:55.999Z</time>
</trkpt>
<trkpt lat="43.575106" lon="3.859255">
<ele>73.6</ele>
<time>2013-05-08T06:17:56.999Z</time>
</trkpt>
<trkpt lat="43.575109" lon="3.858967">
<ele>73.6</ele>
<time>2013-05-08T06:17:57.999Z</time>
</trkpt>
<trkpt lat="43.575109" lon="3.858647">
<ele>73.5</ele>
<time>2013-05-08T06:17:58.999Z</time>
</trkpt>
<trkpt lat="43.575112" lon="3.858309">
<ele>73.2</ele>
<time>2013-05-08T06:17:59.999Z</time>
</trkpt>
<trkpt lat="43.575118" lon="3.857946">
<ele>72.9</ele>
<time>2013-05-08T06:18:00.999Z</time>
</trkpt>
<trkpt lat="43.575131" lon="3.857566">
<ele>72.2</ele>
<time>2013-05-08T06:18:01.999Z</time>
</trkpt>
<trkpt lat="43.575148" lon="3.857171">
<ele>71.4</ele>
<time>2013-05-08T06:18:02.999Z</time>
</trkpt>
<trkpt lat="43.575169" lon="3.856764">
<ele>70.9</ele>
<time>2013-05-08T06:18:03.999Z</time>
</trkpt>
<trkpt lat="43.575192" lon="3.856366">
<ele>70.4</ele>
<time>2013-05-08T06:18:04.999Z</time>
</trkpt>
<trkpt lat="43.575213" lon="3.855971">
<ele>70</ele>
<time>2013-05-08T06:18:05.999Z</time>
</trkpt>
<trkpt lat="43.575237" lon="3.855586">
<ele>69.7</ele>
<time>2013-05-08T06:18:06.999Z</time>
</trkpt>
<trkpt lat="43.575263" lon="3.855218">
<ele>69.7</ele>
<time>2013-05-08T06:18:07.999Z</time>
</trkpt>
<trkpt lat="43.575273" lon="3.854862">
<ele>69.7</ele>
<time>2013-05-08T06:18:08.999Z</time>
</trkpt>
<trkpt lat="43.575268" lon="3.854509">
<ele>69.5</ele>
<time>2013-05-08T06:18:09.999Z</time>
</trkpt>
<trkpt lat="43.575244" lon="3.854172">
<ele>69.4</ele>
<time>2013-05-08T06:18:10.999Z</time>
</trkpt>
<trkpt lat="43.575191" lon="3.853851">
<ele>69.5</ele>
<time>2013-05-08T06:18:11.999Z</time>
</trkpt>
<trkpt lat="43.575114" lon="3.853524">
<ele>70</ele>
<time>2013-05-08T06:18:12.999Z</time>
</trkpt>
<trkpt lat="43.575012" lon="3.85321">
<ele>70.3</ele>
<time>2013-05-08T06:18:13.999Z</time>
</trkpt>
<trkpt lat="43.574895" lon="3.852925">
<ele>70.2</ele>
<time>2013-05-08T06:18:14.999Z</time>
</trkpt>
<trkpt lat="43.574731" lon="3.852685">
<ele>69.8</ele>
<time>2013-05-08T06:18:15.999Z</time>
</trkpt>
<trkpt lat="43.574556" lon="3.852472">
<ele>69.3</ele>
<time>2013-05-08T06:18:16.999Z</time>
</trkpt>
<trkpt lat="43.574375" lon="3.852271">
<ele>69.2</ele>
<time>2013-05-08T06:18:17.999Z</time>
</trkpt>
<trkpt lat="43.574209" lon="3.852097">
<ele>69.3</ele>
<time>2013-05-08T06:18:18.999Z</time>
</trkpt>
<trkpt lat="43.574064" lon="3.851959">
<ele>69.8</ele>
<time>2013-05-08T06:18:19.999Z</time>
</trkpt>
<trkpt lat="43.573943" lon="3.851856">
<ele>70.3</ele>
<time>2013-05-08T06:18:20.999Z</time>
</trkpt>
<trkpt lat="43.573851" lon="3.851775">
<ele>70.5</ele>
<time>2013-05-08T06:18:21.999Z</time>
</trkpt>
<trkpt lat="43.573816" lon="3.851683">
<ele>70.2</ele>
<time>2013-05-08T06:18:22.999Z</time>
</trkpt>
<trkpt lat="43.573806" lon="3.851568">
<ele>69.9</ele>
<time>2013-05-08T06:18:23.999Z</time>
</trkpt>
<trkpt lat="43.573796" lon="3.851426">
<ele>70.1</ele>
<time>2013-05-08T06:18:24.999Z</time>
</trkpt>
<trkpt lat="43.573778" lon="3.85127">
<ele>70.4</ele>
<time>2013-05-08T06:18:25.999Z</time>
</trkpt>
<trkpt lat="43.573737" lon="3.851149">
<ele>70.4</ele>
<time>2013-05-08T06:18:26.999Z</time>
</trkpt>
<trkpt lat="43.573684" lon="3.851073">
<ele>70.9</ele>
<time>2013-05-08T06:18:27.999Z</time>
</trkpt>
<trkpt lat="43.573594" lon="3.851037">
<ele>71.4</ele>
<time>2013-05-08T06:18:28.999Z</time>
</trkpt>
<trkpt lat="43.57348" lon="3.850996">
<ele>71.9</ele>
<time>2013-05-08T06:18:29.999Z</time>
</trkpt>
<trkpt lat="43.573361" lon="3.850949">
<ele>72.7</ele>
<time>2013-05-08T06:18:30.999Z</time>
</trkpt>
<trkpt lat="43.573236" lon="3.850873">
<ele>73.6</ele>
<time>2013-05-08T06:18:31.999Z</time>
</trkpt>
<trkpt lat="43.573073" lon="3.850791">
<ele>74</ele>
<time>2013-05-08T06:18:32.999Z</time>
</trkpt>
<trkpt lat="43.572916" lon="3.850722">
<ele>74.2</ele>
<time>2013-05-08T06:18:33.999Z</time>
</trkpt>
<trkpt lat="43.572709" lon="3.850653">
<ele>74.4</ele>
<time>2013-05-08T06:18:34.999Z</time>
</trkpt>
<trkpt lat="43.572505" lon="3.8506">
<ele>74.6</ele>
<time>2013-05-08T06:18:35.999Z</time>
</trkpt>
<trkpt lat="43.572302" lon="3.85056">
<ele>75.1</ele>
<time>2013-05-08T06:18:36.999Z</time>
</trkpt>
<trkpt lat="43.572109" lon="3.85055">
<ele>75.3</ele>
<time>2013-05-08T06:18:37.999Z</time>
</trkpt>
<trkpt lat="43.571927" lon="3.850542">
<ele>75.3</ele>
<time>2013-05-08T06:18:38.999Z</time>
</trkpt>
<trkpt lat="43.57177" lon="3.850524">
<ele>75.2</ele>
<time>2013-05-08T06:18:39.999Z</time>
</trkpt>
<trkpt lat="43.571637" lon="3.850494">
<ele>74.8</ele>
<time>2013-05-08T06:18:40.999Z</time>
</trkpt>
<trkpt lat="43.571516" lon="3.850458">
<ele>74.3</ele>
<time>2013-05-08T06:18:41.999Z</time>
</trkpt>
<trkpt lat="43.571437" lon="3.850379">
<ele>73.5</ele>
<time>2013-05-08T06:18:42.999Z</time>
</trkpt>
<trkpt lat="43.57139" lon="3.850302">
<ele>72.5</ele>
<time>2013-05-08T06:18:43.999Z</time>
</trkpt>
<trkpt lat="43.571367" lon="3.850217">
<ele>71.5</ele>
<time>2013-05-08T06:18:44.999Z</time>
</trkpt>
<trkpt lat="43.57135" lon="3.850122">
<ele>70.8</ele>
<time>2013-05-08T06:18:45.999Z</time>
</trkpt>
<trkpt lat="43.57136" lon="3.850001">
<ele>70.4</ele>
<time>2013-05-08T06:18:46.999Z</time>
</trkpt>
<trkpt lat="43.571427" lon="3.849882">
<ele>69.9</ele>
<time>2013-05-08T06:18:47.999Z</time>
</trkpt>
<trkpt lat="43.571499" lon="3.849766">
<ele>69.5</ele>
<time>2013-05-08T06:18:48.999Z</time>
</trkpt>
<trkpt lat="43.571586" lon="3.849641">
<ele>69.1</ele>
<time>2013-05-08T06:18:49.999Z</time>
</trkpt>
<trkpt lat="43.57165" lon="3.849501">
<ele>68.9</ele>
<time>2013-05-08T06:18:50.999Z</time>
</trkpt>
<trkpt lat="43.571718" lon="3.849343">
<ele>69</ele>
<time>2013-05-08T06:18:51.999Z</time>
</trkpt>
<trkpt lat="43.571697" lon="3.849163">
<ele>69</ele>
<time>2013-05-08T06:18:52.999Z</time>
</trkpt>
<trkpt lat="43.571658" lon="3.848991">
<ele>68.8</ele>
<time>2013-05-08T06:18:53.999Z</time>
</trkpt>
<trkpt lat="43.571581" lon="3.84884">
<ele>68.7</ele>
<time>2013-05-08T06:18:54.999Z</time>
</trkpt>
<trkpt lat="43.571496" lon="3.848699">
<ele>68.5</ele>
<time>2013-05-08T06:18:55.999Z</time>
</trkpt>
<trkpt lat="43.571311" lon="3.848641">
<ele>68.9</ele>
<time>2013-05-08T06:18:56.999Z</time>
</trkpt>
<trkpt lat="43.571102" lon="3.848569">
<ele>69.6</ele>
<time>2013-05-08T06:18:57.999Z</time>
</trkpt>
<trkpt lat="43.570919" lon="3.848446">
<ele>70</ele>
<time>2013-05-08T06:18:58.999Z</time>
</trkpt>
<trkpt lat="43.570714" lon="3.848279">
<ele>70.6</ele>
<time>2013-05-08T06:18:59.999Z</time>
</trkpt>
<trkpt lat="43.570545" lon="3.848056">
<ele>70.7</ele>
<time>2013-05-08T06:19:00.999Z</time>
</trkpt>
<trkpt lat="43.570383" lon="3.847801">
<ele>70.9</ele>
<time>2013-05-08T06:19:01.999Z</time>
</trkpt>
<trkpt lat="43.570242" lon="3.847495">
<ele>70.8</ele>
<time>2013-05-08T06:19:02.999Z</time>
</trkpt>
<trkpt lat="43.570103" lon="3.847153">
<ele>70.9</ele>
<time>2013-05-08T06:19:03.999Z</time>
</trkpt>
<trkpt lat="43.569969" lon="3.846791">
<ele>71.2</ele>
<time>2013-05-08T06:19:04.999Z</time>
</trkpt>
<trkpt lat="43.569832" lon="3.846418">
<ele>71.7</ele>
<time>2013-05-08T06:19:05.999Z</time>
</trkpt>
<trkpt lat="43.569703" lon="3.84605">
<ele>72.2</ele>
<time>2013-05-08T06:19:06.999Z</time>
</trkpt>
<trkpt lat="43.569578" lon="3.845693">
<ele>72.5</ele>
<time>2013-05-08T06:19:07.999Z</time>
</trkpt>
<trkpt lat="43.569478" lon="3.845337">
<ele>72.7</ele>
<time>2013-05-08T06:19:08.999Z</time>
</trkpt>
<trkpt lat="43.5694" lon="3.844988">
<ele>72.9</ele>
<time>2013-05-08T06:19:09.999Z</time>
</trkpt>
<trkpt lat="43.569342" lon="3.844648">
<ele>72.9</ele>
<time>2013-05-08T06:19:10.999Z</time>
</trkpt>
<trkpt lat="43.56931" lon="3.844303">
<ele>73</ele>
<time>2013-05-08T06:19:11.999Z</time>
</trkpt>
<trkpt lat="43.569323" lon="3.843941">
<ele>73.1</ele>
<time>2013-05-08T06:19:12.999Z</time>
</trkpt>
<trkpt lat="43.56936" lon="3.843551">
<ele>73.1</ele>
<time>2013-05-08T06:19:13.999Z</time>
</trkpt>
<trkpt lat="43.569422" lon="3.843167">
<ele>73.5</ele>
<time>2013-05-08T06:19:14.999Z</time>
</trkpt>
<trkpt lat="43.569481" lon="3.842785">
<ele>74.1</ele>
<time>2013-05-08T06:19:15.999Z</time>
</trkpt>
<trkpt lat="43.569524" lon="3.842378">
<ele>74.9</ele>
<time>2013-05-08T06:19:16.999Z</time>
</trkpt>
<trkpt lat="43.569561" lon="3.84197">
<ele>75.7</ele>
<time>2013-05-08T06:19:17.999Z</time>
</trkpt>
<trkpt lat="43.569601" lon="3.841564">
<ele>76.3</ele>
<time>2013-05-08T06:19:18.999Z</time>
</trkpt>
<trkpt lat="43.569644" lon="3.841167">
<ele>76.9</ele>
<time>2013-05-08T06:19:19.999Z</time>
</trkpt>
<trkpt lat="43.569699" lon="3.840785">
<ele>77.5</ele>
<time>2013-05-08T06:19:20.999Z</time>
</trkpt>
<trkpt lat="43.569754" lon="3.84041">
<ele>78.1</ele>
<time>2013-05-08T06:19:21.999Z</time>
</trkpt>
<trkpt lat="43.56981" lon="3.840042">
<ele>78.6</ele>
<time>2013-05-08T06:19:22.999Z</time>
</trkpt>
<trkpt lat="43.569868" lon="3.83969">
<ele>79</ele>
<time>2013-05-08T06:19:23.999Z</time>
</trkpt>
<trkpt lat="43.569923" lon="3.839347">
<ele>79.2</ele>
<time>2013-05-08T06:19:24.999Z</time>
</trkpt>
<trkpt lat="43.56997" lon="3.839024">
<ele>79.4</ele>
<time>2013-05-08T06:19:25.999Z</time>
</trkpt>
<trkpt lat="43.57001" lon="3.838744">
<ele>79.4</ele>
<time>2013-05-08T06:19:26.999Z</time>
</trkpt>
<trkpt lat="43.570037" lon="3.838526">
<ele>79.6</ele>
<time>2013-05-08T06:19:27.999Z</time>
</trkpt>
<trkpt lat="43.570058" lon="3.838349">
<ele>79.7</ele>
<time>2013-05-08T06:19:28.999Z</time>
</trkpt>
<trkpt lat="43.570078" lon="3.838211">
<ele>79.8</ele>
<time>2013-05-08T06:19:29.999Z</time>
</trkpt>
<trkpt lat="43.57012" lon="3.838104">
<ele>80.1</ele>
<time>2013-05-08T06:19:30.999Z</time>
</trkpt>
<trkpt lat="43.570191" lon="3.838015">
<ele>80.3</ele>
<time>2013-05-08T06:19:31.999Z</time>
</trkpt>
<trkpt lat="43.570261" lon="3.837929">
<ele>81.1</ele>
<time>2013-05-08T06:19:32.999Z</time>
</trkpt>
<trkpt lat="43.570331" lon="3.837832">
<ele>82.2</ele>
<time>2013-05-08T06:19:33.999Z</time>
</trkpt>
<trkpt lat="43.570366" lon="3.837695">
<ele>82.8</ele>
<time>2013-05-08T06:19:34.999Z</time>
</trkpt>
<trkpt lat="43.570401" lon="3.837538">
<ele>83.1</ele>
<time>2013-05-08T06:19:35.999Z</time>
</trkpt>
<trkpt lat="43.570394" lon="3.837394">
<ele>83.2</ele>
<time>2013-05-08T06:19:36.999Z</time>
</trkpt>
<trkpt lat="43.570353" lon="3.837247">
<ele>83.2</ele>
<time>2013-05-08T06:19:37.999Z</time>
</trkpt>
<trkpt lat="43.570283" lon="3.837108">
<ele>83</ele>
<time>2013-05-08T06:19:38.999Z</time>
</trkpt>
<trkpt lat="43.570144" lon="3.837032">
<ele>82.6</ele>
<time>2013-05-08T06:19:39.999Z</time>
</trkpt>
<trkpt lat="43.569996" lon="3.83704">
<ele>82.3</ele>
<time>2013-05-08T06:19:40.999Z</time>
</trkpt>
<trkpt lat="43.569854" lon="3.837076">
<ele>82.2</ele>
<time>2013-05-08T06:19:41.999Z</time>
</trkpt>
<trkpt lat="43.569708" lon="3.837121">
<ele>82</ele>
<time>2013-05-08T06:19:42.999Z</time>
</trkpt>
<trkpt lat="43.569563" lon="3.837164">
<ele>81.7</ele>
<time>2013-05-08T06:19:43.999Z</time>
</trkpt>
<trkpt lat="43.56943" lon="3.837182">
<ele>81.8</ele>
<time>2013-05-08T06:19:44.999Z</time>
</trkpt>
<trkpt lat="43.569313" lon="3.837113">
<ele>82.2</ele>
<time>2013-05-08T06:19:45.999Z</time>
</trkpt>
<trkpt lat="43.569222" lon="3.836958">
<ele>82.4</ele>
<time>2013-05-08T06:19:46.999Z</time>
</trkpt>
<trkpt lat="43.569133" lon="3.83678">
<ele>82.6</ele>
<time>2013-05-08T06:19:47.999Z</time>
</trkpt>
<trkpt lat="43.56904" lon="3.836572">
<ele>82.6</ele>
<time>2013-05-08T06:19:48.999Z</time>
</trkpt>
<trkpt lat="43.568948" lon="3.836345">
<ele>82.7</ele>
<time>2013-05-08T06:19:49.999Z</time>
</trkpt>
<trkpt lat="43.568859" lon="3.836123">
<ele>82.5</ele>
<time>2013-05-08T06:19:50.999Z</time>
</trkpt>
<trkpt lat="43.568778" lon="3.835904">
<ele>82.6</ele>
<time>2013-05-08T06:19:51.999Z</time>
</trkpt>
<trkpt lat="43.568703" lon="3.835696">
<ele>83</ele>
<time>2013-05-08T06:19:52.999Z</time>
</trkpt>
<trkpt lat="43.568633" lon="3.835504">
<ele>83.1</ele>
<time>2013-05-08T06:19:53.999Z</time>
</trkpt>
<trkpt lat="43.568564" lon="3.835322">
<ele>83.4</ele>
<time>2013-05-08T06:19:54.999Z</time>
</trkpt>
<trkpt lat="43.568497" lon="3.835162">
<ele>83.4</ele>
<time>2013-05-08T06:19:55.999Z</time>
</trkpt>
<trkpt lat="43.568431" lon="3.835025">
<ele>83.3</ele>
<time>2013-05-08T06:19:56.999Z</time>
</trkpt>
<trkpt lat="43.568369" lon="3.834915">
<ele>83.1</ele>
<time>2013-05-08T06:19:57.999Z</time>
</trkpt>
<trkpt lat="43.568304" lon="3.834819">
<ele>83.2</ele>
<time>2013-05-08T06:19:58.999Z</time>
</trkpt>
<trkpt lat="43.568237" lon="3.834764">
<ele>83.3</ele>
<time>2013-05-08T06:19:59.999Z</time>
</trkpt>
<trkpt lat="43.568173" lon="3.834714">
<ele>83.3</ele>
<time>2013-05-08T06:20:00.999Z</time>
</trkpt>
<trkpt lat="43.5681" lon="3.834662">
<ele>83.3</ele>
<time>2013-05-08T06:20:01.999Z</time>
</trkpt>
<trkpt lat="43.568028" lon="3.834612">
<ele>83.3</ele>
<time>2013-05-08T06:20:02.999Z</time>
</trkpt>
<trkpt lat="43.567963" lon="3.834569">
<ele>83.3</ele>
<time>2013-05-08T06:20:03.999Z</time>
</trkpt>
<trkpt lat="43.567921" lon="3.834539">
<ele>83.2</ele>
<time>2013-05-08T06:20:04.999Z</time>
</trkpt>
<trkpt lat="43.567882" lon="3.834509">
<ele>83.1</ele>
<time>2013-05-08T06:20:05.999Z</time>
</trkpt>
<trkpt lat="43.567853" lon="3.834491">
<ele>83</ele>
<time>2013-05-08T06:20:06.999Z</time>
</trkpt>
<trkpt lat="43.567819" lon="3.834471">
<ele>82.9</ele>
<time>2013-05-08T06:20:11.999Z</time>
</trkpt>
<trkpt lat="43.567791" lon="3.834463">
<ele>83.2</ele>
<time>2013-05-08T06:20:12.999Z</time>
</trkpt>
<trkpt lat="43.567719" lon="3.834411">
<ele>83.5</ele>
<time>2013-05-08T06:20:13.999Z</time>
</trkpt>
<trkpt lat="43.567608" lon="3.834328">
<ele>83.5</ele>
<time>2013-05-08T06:20:14.999Z</time>
</trkpt>
<trkpt lat="43.567478" lon="3.834228">
<ele>83.5</ele>
<time>2013-05-08T06:20:15.999Z</time>
</trkpt>
<trkpt lat="43.567316" lon="3.834115">
<ele>82.9</ele>
<time>2013-05-08T06:20:16.999Z</time>
</trkpt>
<trkpt lat="43.567124" lon="3.834011">
<ele>82.8</ele>
<time>2013-05-08T06:20:17.999Z</time>
</trkpt>
<trkpt lat="43.5669" lon="3.833974">
<ele>82.7</ele>
<time>2013-05-08T06:20:18.999Z</time>
</trkpt>
<trkpt lat="43.566676" lon="3.833946">
<ele>82.9</ele>
<time>2013-05-08T06:20:19.999Z</time>
</trkpt>
<trkpt lat="43.56643" lon="3.833946">
<ele>83.1</ele>
<time>2013-05-08T06:20:20.999Z</time>
</trkpt>
<trkpt lat="43.566171" lon="3.833946">
<ele>82.9</ele>
<time>2013-05-08T06:20:21.999Z</time>
</trkpt>
<trkpt lat="43.565902" lon="3.83395">
<ele>82.7</ele>
<time>2013-05-08T06:20:22.999Z</time>
</trkpt>
<trkpt lat="43.565633" lon="3.833952">
<ele>82.5</ele>
<time>2013-05-08T06:20:23.999Z</time>
</trkpt>
<trkpt lat="43.565372" lon="3.833954">
<ele>82.3</ele>
<time>2013-05-08T06:20:24.999Z</time>
</trkpt>
<trkpt lat="43.565116" lon="3.833936">
<ele>81.9</ele>
<time>2013-05-08T06:20:25.999Z</time>
</trkpt>
<trkpt lat="43.564871" lon="3.833896">
<ele>81.5</ele>
<time>2013-05-08T06:20:26.999Z</time>
</trkpt>
<trkpt lat="43.564663" lon="3.833762">
<ele>81.2</ele>
<time>2013-05-08T06:20:27.999Z</time>
</trkpt>
<trkpt lat="43.564472" lon="3.833552">
<ele>81.1</ele>
<time>2013-05-08T06:20:28.999Z</time>
</trkpt>
<trkpt lat="43.564323" lon="3.833272">
<ele>80.7</ele>
<time>2013-05-08T06:20:29.999Z</time>
</trkpt>
<trkpt lat="43.56418" lon="3.832959">
<ele>80.3</ele>
<time>2013-05-08T06:20:30.999Z</time>
</trkpt>
<trkpt lat="43.564034" lon="3.832615">
<ele>80.1</ele>
<time>2013-05-08T06:20:31.999Z</time>
</trkpt>
<trkpt lat="43.563882" lon="3.832252">
<ele>79.9</ele>
<time>2013-05-08T06:20:32.999Z</time>
</trkpt>
<trkpt lat="43.563725" lon="3.831885">
<ele>79.8</ele>
<time>2013-05-08T06:20:33.999Z</time>
</trkpt>
<trkpt lat="43.563572" lon="3.831531">
<ele>79.5</ele>
<time>2013-05-08T06:20:34.999Z</time>
</trkpt>
<trkpt lat="43.563423" lon="3.831187">
<ele>79.4</ele>
<time>2013-05-08T06:20:35.999Z</time>
</trkpt>
<trkpt lat="43.563269" lon="3.830857">
<ele>79.6</ele>
<time>2013-05-08T06:20:36.999Z</time>
</trkpt>
<trkpt lat="43.563117" lon="3.830555">
<ele>80.1</ele>
<time>2013-05-08T06:20:37.999Z</time>
</trkpt>
<trkpt lat="43.562958" lon="3.830273">
<ele>80.7</ele>
<time>2013-05-08T06:20:38.999Z</time>
</trkpt>
<trkpt lat="43.562796" lon="3.830008">
<ele>81.3</ele>
<time>2013-05-08T06:20:39.999Z</time>
</trkpt>
<trkpt lat="43.562628" lon="3.829755">
<ele>81.3</ele>
<time>2013-05-08T06:20:40.999Z</time>
</trkpt>
<trkpt lat="43.562439" lon="3.829502">
<ele>81</ele>
<time>2013-05-08T06:20:41.999Z</time>
</trkpt>
<trkpt lat="43.562222" lon="3.82925">
<ele>81</ele>
<time>2013-05-08T06:20:42.999Z</time>
</trkpt>
<trkpt lat="43.561996" lon="3.829002">
<ele>80.9</ele>
<time>2013-05-08T06:20:43.999Z</time>
</trkpt>
<trkpt lat="43.561753" lon="3.828759">
<ele>80.8</ele>
<time>2013-05-08T06:20:44.999Z</time>
</trkpt>
<trkpt lat="43.561483" lon="3.828512">
<ele>81</ele>
<time>2013-05-08T06:20:45.999Z</time>
</trkpt>
<trkpt lat="43.561204" lon="3.82826">
<ele>81.3</ele>
<time>2013-05-08T06:20:46.999Z</time>
</trkpt>
<trkpt lat="43.560937" lon="3.827998">
<ele>81.5</ele>
<time>2013-05-08T06:20:47.999Z</time>
</trkpt>
<trkpt lat="43.560663" lon="3.827727">
<ele>81.5</ele>
<time>2013-05-08T06:20:48.999Z</time>
</trkpt>
<trkpt lat="43.560383" lon="3.827448">
<ele>81.5</ele>
<time>2013-05-08T06:20:49.999Z</time>
</trkpt>
<trkpt lat="43.560098" lon="3.827162">
<ele>81.3</ele>
<time>2013-05-08T06:20:50.999Z</time>
</trkpt>
<trkpt lat="43.559806" lon="3.826866">
<ele>81</ele>
<time>2013-05-08T06:20:51.999Z</time>
</trkpt>
<trkpt lat="43.559508" lon="3.826568">
<ele>80.5</ele>
<time>2013-05-08T06:20:52.999Z</time>
</trkpt>
<trkpt lat="43.559206" lon="3.826273">
<ele>80.1</ele>
<time>2013-05-08T06:20:53.999Z</time>
</trkpt>
<trkpt lat="43.558902" lon="3.825982">
<ele>79.6</ele>
<time>2013-05-08T06:20:54.999Z</time>
</trkpt>
<trkpt lat="43.558594" lon="3.825699">
<ele>79</ele>
<time>2013-05-08T06:20:55.999Z</time>
</trkpt>
<trkpt lat="43.558284" lon="3.825413">
<ele>78.3</ele>
<time>2013-05-08T06:20:56.999Z</time>
</trkpt>
<trkpt lat="43.557971" lon="3.825121">
<ele>77.6</ele>
<time>2013-05-08T06:20:57.999Z</time>
</trkpt>
<trkpt lat="43.557655" lon="3.824826">
<ele>77.1</ele>
<time>2013-05-08T06:20:58.999Z</time>
</trkpt>
<trkpt lat="43.557342" lon="3.82453">
<ele>76.5</ele>
<time>2013-05-08T06:20:59.999Z</time>
</trkpt>
<trkpt lat="43.557027" lon="3.824232">
<ele>76</ele>
<time>2013-05-08T06:21:00.999Z</time>
</trkpt>
<trkpt lat="43.556714" lon="3.823933">
<ele>75.4</ele>
<time>2013-05-08T06:21:01.999Z</time>
</trkpt>
<trkpt lat="43.556405" lon="3.823632">
<ele>74.8</ele>
<time>2013-05-08T06:21:02.999Z</time>
</trkpt>
<trkpt lat="43.556103" lon="3.823318">
<ele>74.2</ele>
<time>2013-05-08T06:21:03.999Z</time>
</trkpt>
<trkpt lat="43.555792" lon="3.822999">
<ele>73.5</ele>
<time>2013-05-08T06:21:04.999Z</time>
</trkpt>
<trkpt lat="43.555481" lon="3.822681">
<ele>73.1</ele>
<time>2013-05-08T06:21:05.999Z</time>
</trkpt>
<trkpt lat="43.555199" lon="3.822329">
<ele>73</ele>
<time>2013-05-08T06:21:06.999Z</time>
</trkpt>
<trkpt lat="43.554919" lon="3.821963">
<ele>72.9</ele>
<time>2013-05-08T06:21:07.999Z</time>
</trkpt>
<trkpt lat="43.554654" lon="3.821586">
<ele>72.6</ele>
<time>2013-05-08T06:21:08.999Z</time>
</trkpt>
<trkpt lat="43.554393" lon="3.82121">
<ele>72.1</ele>
<time>2013-05-08T06:21:09.999Z</time>
</trkpt>
<trkpt lat="43.554146" lon="3.820815">
<ele>71.6</ele>
<time>2013-05-08T06:21:10.999Z</time>
</trkpt>
<trkpt lat="43.553902" lon="3.82041">
<ele>71.2</ele>
<time>2013-05-08T06:21:11.999Z</time>
</trkpt>
<trkpt lat="43.553664" lon="3.819997">
<ele>70.8</ele>
<time>2013-05-08T06:21:12.999Z</time>
</trkpt>
<trkpt lat="43.553423" lon="3.819583">
<ele>70.7</ele>
<time>2013-05-08T06:21:13.999Z</time>
</trkpt>
<trkpt lat="43.553201" lon="3.819155">
<ele>70.7</ele>
<time>2013-05-08T06:21:14.999Z</time>
</trkpt>
<trkpt lat="43.552987" lon="3.818719">
<ele>71</ele>
<time>2013-05-08T06:21:15.999Z</time>
</trkpt>
<trkpt lat="43.552785" lon="3.818279">
<ele>71.4</ele>
<time>2013-05-08T06:21:16.999Z</time>
</trkpt>
<trkpt lat="43.552598" lon="3.817831">
<ele>71.8</ele>
<time>2013-05-08T06:21:17.999Z</time>
</trkpt>
<trkpt lat="43.552426" lon="3.817387">
<ele>72.3</ele>
<time>2013-05-08T06:21:18.999Z</time>
</trkpt>
<trkpt lat="43.552264" lon="3.816933">
<ele>72.7</ele>
<time>2013-05-08T06:21:19.999Z</time>
</trkpt>
<trkpt lat="43.552106" lon="3.816463">
<ele>73</ele>
<time>2013-05-08T06:21:20.999Z</time>
</trkpt>
<trkpt lat="43.551964" lon="3.815998">
<ele>73.1</ele>
<time>2013-05-08T06:21:21.999Z</time>
</trkpt>
<trkpt lat="43.551828" lon="3.815536">
<ele>73.6</ele>
<time>2013-05-08T06:21:22.999Z</time>
</trkpt>
<trkpt lat="43.551699" lon="3.815058">
<ele>74.3</ele>
<time>2013-05-08T06:21:23.999Z</time>
</trkpt>
<trkpt lat="43.551576" lon="3.814572">
<ele>75</ele>
<time>2013-05-08T06:21:24.999Z</time>
</trkpt>
<trkpt lat="43.551458" lon="3.814072">
<ele>75.8</ele>
<time>2013-05-08T06:21:25.999Z</time>
</trkpt>
<trkpt lat="43.551352" lon="3.813574">
<ele>76.6</ele>
<time>2013-05-08T06:21:26.999Z</time>
</trkpt>
<trkpt lat="43.55126" lon="3.813072">
<ele>77.1</ele>
<time>2013-05-08T06:21:27.999Z</time>
</trkpt>
<trkpt lat="43.551168" lon="3.812562">
<ele>77.8</ele>
<time>2013-05-08T06:21:28.999Z</time>
</trkpt>
<trkpt lat="43.551094" lon="3.812056">
<ele>78.7</ele>
<time>2013-05-08T06:21:29.999Z</time>
</trkpt>
<trkpt lat="43.551024" lon="3.811552">
<ele>79.4</ele>
<time>2013-05-08T06:21:30.999Z</time>
</trkpt>
<trkpt lat="43.550964" lon="3.811053">
<ele>79.9</ele>
<time>2013-05-08T06:21:31.999Z</time>
</trkpt>
<trkpt lat="43.550914" lon="3.81055">
<ele>80.1</ele>
<time>2013-05-08T06:21:32.999Z</time>
</trkpt>
<trkpt lat="43.550867" lon="3.810044">
<ele>80.3</ele>
<time>2013-05-08T06:21:33.999Z</time>
</trkpt>
<trkpt lat="43.550834" lon="3.809539">
<ele>80.3</ele>
<time>2013-05-08T06:21:34.999Z</time>
</trkpt>
<trkpt lat="43.550803" lon="3.809034">
<ele>80.6</ele>
<time>2013-05-08T06:21:35.999Z</time>
</trkpt>
<trkpt lat="43.550773" lon="3.808531">
<ele>81</ele>
<time>2013-05-08T06:21:36.999Z</time>
</trkpt>
<trkpt lat="43.550743" lon="3.808021">
<ele>81.5</ele>
<time>2013-05-08T06:21:37.999Z</time>
</trkpt>
<trkpt lat="43.550712" lon="3.807514">
<ele>82.2</ele>
<time>2013-05-08T06:21:38.999Z</time>
</trkpt>
<trkpt lat="43.55068" lon="3.807007">
<ele>82.7</ele>
<time>2013-05-08T06:21:39.999Z</time>
</trkpt>
<trkpt lat="43.550649" lon="3.806506">
<ele>83.2</ele>
<time>2013-05-08T06:21:40.999Z</time>
</trkpt>
<trkpt lat="43.550621" lon="3.806006">
<ele>83.9</ele>
<time>2013-05-08T06:21:41.999Z</time>
</trkpt>
<trkpt lat="43.550592" lon="3.805515">
<ele>85.1</ele>
<time>2013-05-08T06:21:42.999Z</time>
</trkpt>
<trkpt lat="43.550559" lon="3.805026">
<ele>86.5</ele>
<time>2013-05-08T06:21:43.999Z</time>
</trkpt>
<trkpt lat="43.550528" lon="3.804545">
<ele>87.8</ele>
<time>2013-05-08T06:21:44.999Z</time>
</trkpt>
<trkpt lat="43.550466" lon="3.804068">
<ele>89.1</ele>
<time>2013-05-08T06:21:45.999Z</time>
</trkpt>
<trkpt lat="43.550386" lon="3.8036">
<ele>90.3</ele>
<time>2013-05-08T06:21:46.999Z</time>
</trkpt>
<trkpt lat="43.550298" lon="3.803141">
<ele>91.3</ele>
<time>2013-05-08T06:21:47.999Z</time>
</trkpt>
<trkpt lat="43.55019" lon="3.802695">
<ele>92.4</ele>
<time>2013-05-08T06:21:48.999Z</time>
</trkpt>
<trkpt lat="43.550075" lon="3.802245">
<ele>93.4</ele>
<time>2013-05-08T06:21:49.999Z</time>
</trkpt>
<trkpt lat="43.549955" lon="3.801819">
<ele>94.2</ele>
<time>2013-05-08T06:21:50.999Z</time>
</trkpt>
<trkpt lat="43.549832" lon="3.801406">
<ele>94.6</ele>
<time>2013-05-08T06:21:51.999Z</time>
</trkpt>
<trkpt lat="43.549706" lon="3.801003">
<ele>94.9</ele>
<time>2013-05-08T06:21:52.999Z</time>
</trkpt>
<trkpt lat="43.549574" lon="3.800605">
<ele>95.2</ele>
<time>2013-05-08T06:21:53.999Z</time>
</trkpt>
<trkpt lat="43.549431" lon="3.800208">
<ele>95.5</ele>
<time>2013-05-08T06:21:54.999Z</time>
</trkpt>
<trkpt lat="43.549286" lon="3.799816">
<ele>95.7</ele>
<time>2013-05-08T06:21:55.999Z</time>
</trkpt>
<trkpt lat="43.549129" lon="3.799428">
<ele>95.8</ele>
<time>2013-05-08T06:21:56.999Z</time>
</trkpt>
<trkpt lat="43.548959" lon="3.799051">
<ele>96.1</ele>
<time>2013-05-08T06:21:57.999Z</time>
</trkpt>
<trkpt lat="43.548789" lon="3.798675">
<ele>96.4</ele>
<time>2013-05-08T06:21:58.999Z</time>
</trkpt>
<trkpt lat="43.548609" lon="3.798306">
<ele>96.5</ele>
<time>2013-05-08T06:21:59.999Z</time>
</trkpt>
<trkpt lat="43.548433" lon="3.797945">
<ele>96.6</ele>
<time>2013-05-08T06:22:00.999Z</time>
</trkpt>
<trkpt lat="43.54824" lon="3.797594">
<ele>96.6</ele>
<time>2013-05-08T06:22:01.999Z</time>
</trkpt>
<trkpt lat="43.548045" lon="3.79725">
<ele>96.7</ele>
<time>2013-05-08T06:22:02.999Z</time>
</trkpt>
<trkpt lat="43.547844" lon="3.796911">
<ele>96.8</ele>
<time>2013-05-08T06:22:03.999Z</time>
</trkpt>
<trkpt lat="43.547639" lon="3.796573">
<ele>97</ele>
<time>2013-05-08T06:22:04.999Z</time>
</trkpt>
<trkpt lat="43.547423" lon="3.796231">
<ele>97.2</ele>
<time>2013-05-08T06:22:05.999Z</time>
</trkpt>
<trkpt lat="43.547204" lon="3.795888">
<ele>97.2</ele>
<time>2013-05-08T06:22:06.999Z</time>
</trkpt>
<trkpt lat="43.54698" lon="3.795545">
<ele>97.1</ele>
<time>2013-05-08T06:22:07.999Z</time>
</trkpt>
<trkpt lat="43.546751" lon="3.795206">
<ele>96.9</ele>
<time>2013-05-08T06:22:08.999Z</time>
</trkpt>
<trkpt lat="43.546513" lon="3.794862">
<ele>96.7</ele>
<time>2013-05-08T06:22:09.999Z</time>
</trkpt>
<trkpt lat="43.54626" lon="3.794515">
<ele>96.5</ele>
<time>2013-05-08T06:22:10.999Z</time>
</trkpt>
<trkpt lat="43.546003" lon="3.794155">
<ele>96.3</ele>
<time>2013-05-08T06:22:11.999Z</time>
</trkpt>
<trkpt lat="43.545747" lon="3.793793">
<ele>96.1</ele>
<time>2013-05-08T06:22:12.999Z</time>
</trkpt>
<trkpt lat="43.545482" lon="3.793415">
<ele>95.9</ele>
<time>2013-05-08T06:22:13.999Z</time>
</trkpt>
<trkpt lat="43.545224" lon="3.793042">
<ele>96.2</ele>
<time>2013-05-08T06:22:14.999Z</time>
</trkpt>
<trkpt lat="43.544958" lon="3.792654">
<ele>96.5</ele>
<time>2013-05-08T06:22:15.999Z</time>
</trkpt>
<trkpt lat="43.544691" lon="3.792269">
<ele>96.8</ele>
<time>2013-05-08T06:22:16.999Z</time>
</trkpt>
<trkpt lat="43.544425" lon="3.791883">
<ele>96.9</ele>
<time>2013-05-08T06:22:17.999Z</time>
</trkpt>
<trkpt lat="43.544157" lon="3.791495">
<ele>96.8</ele>
<time>2013-05-08T06:22:18.999Z</time>
</trkpt>
<trkpt lat="43.54389" lon="3.791106">
<ele>96.8</ele>
<time>2013-05-08T06:22:19.999Z</time>
</trkpt>
<trkpt lat="43.543625" lon="3.790719">
<ele>96.7</ele>
<time>2013-05-08T06:22:20.999Z</time>
</trkpt>
<trkpt lat="43.54336" lon="3.790338">
<ele>96.5</ele>
<time>2013-05-08T06:22:21.999Z</time>
</trkpt>
<trkpt lat="43.543091" lon="3.789955">
<ele>96.1</ele>
<time>2013-05-08T06:22:22.999Z</time>
</trkpt>
<trkpt lat="43.542825" lon="3.789581">
<ele>95.8</ele>
<time>2013-05-08T06:22:23.999Z</time>
</trkpt>
<trkpt lat="43.54256" lon="3.78921">
<ele>95.8</ele>
<time>2013-05-08T06:22:24.999Z</time>
</trkpt>
<trkpt lat="43.542297" lon="3.788839">
<ele>96</ele>
<time>2013-05-08T06:22:25.999Z</time>
</trkpt>
<trkpt lat="43.542033" lon="3.788464">
<ele>96.2</ele>
<time>2013-05-08T06:22:26.999Z</time>
</trkpt>
<trkpt lat="43.541772" lon="3.78809">
<ele>96.4</ele>
<time>2013-05-08T06:22:27.999Z</time>
</trkpt>
<trkpt lat="43.541512" lon="3.787717">
<ele>96.6</ele>
<time>2013-05-08T06:22:28.999Z</time>
</trkpt>
<trkpt lat="43.541255" lon="3.787347">
<ele>96.9</ele>
<time>2013-05-08T06:22:29.999Z</time>
</trkpt>
<trkpt lat="43.541" lon="3.786979">
<ele>97.4</ele>
<time>2013-05-08T06:22:30.999Z</time>
</trkpt>
<trkpt lat="43.540744" lon="3.786613">
<ele>97.9</ele>
<time>2013-05-08T06:22:31.999Z</time>
</trkpt>
<trkpt lat="43.540484" lon="3.786246">
<ele>98.4</ele>
<time>2013-05-08T06:22:32.999Z</time>
</trkpt>
<trkpt lat="43.54022" lon="3.785894">
<ele>98.8</ele>
<time>2013-05-08T06:22:33.999Z</time>
</trkpt>
<trkpt lat="43.539952" lon="3.785548">
<ele>99.1</ele>
<time>2013-05-08T06:22:34.999Z</time>
</trkpt>
<trkpt lat="43.539682" lon="3.785205">
<ele>99.5</ele>
<time>2013-05-08T06:22:35.999Z</time>
</trkpt>
<trkpt lat="43.539405" lon="3.784875">
<ele>99.9</ele>
<time>2013-05-08T06:22:36.999Z</time>
</trkpt>
<trkpt lat="43.539128" lon="3.784551">
<ele>100.4</ele>
<time>2013-05-08T06:22:37.999Z</time>
</trkpt>
<trkpt lat="43.538855" lon="3.784236">
<ele>101.1</ele>
<time>2013-05-08T06:22:38.999Z</time>
</trkpt>
<trkpt lat="43.538577" lon="3.783943">
<ele>101.5</ele>
<time>2013-05-08T06:22:39.999Z</time>
</trkpt>
<trkpt lat="43.538303" lon="3.783658">
<ele>101.7</ele>
<time>2013-05-08T06:22:40.999Z</time>
</trkpt>
<trkpt lat="43.538035" lon="3.783392">
<ele>102.1</ele>
<time>2013-05-08T06:22:41.999Z</time>
</trkpt>
<trkpt lat="43.537773" lon="3.783131">
<ele>102.4</ele>
<time>2013-05-08T06:22:42.999Z</time>
</trkpt>
<trkpt lat="43.537516" lon="3.782871">
<ele>102.9</ele>
<time>2013-05-08T06:22:43.999Z</time>
</trkpt>
<trkpt lat="43.537259" lon="3.782615">
<ele>103.3</ele>
<time>2013-05-08T06:22:44.999Z</time>
</trkpt>
<trkpt lat="43.537015" lon="3.782369">
<ele>103.7</ele>
<time>2013-05-08T06:22:45.999Z</time>
</trkpt>
<trkpt lat="43.536774" lon="3.782128">
<ele>103.9</ele>
<time>2013-05-08T06:22:46.999Z</time>
</trkpt>
<trkpt lat="43.536533" lon="3.781885">
<ele>103.9</ele>
<time>2013-05-08T06:22:47.999Z</time>
</trkpt>
<trkpt lat="43.536294" lon="3.781643">
<ele>103.8</ele>
<time>2013-05-08T06:22:48.999Z</time>
</trkpt>
<trkpt lat="43.536054" lon="3.781401">
<ele>103.7</ele>
<time>2013-05-08T06:22:49.999Z</time>
</trkpt>
<trkpt lat="43.535815" lon="3.781157">
<ele>103.8</ele>
<time>2013-05-08T06:22:50.999Z</time>
</trkpt>
<trkpt lat="43.535576" lon="3.780914">
<ele>103.8</ele>
<time>2013-05-08T06:22:51.999Z</time>
</trkpt>
<trkpt lat="43.535338" lon="3.780669">
<ele>103.8</ele>
<time>2013-05-08T06:22:52.999Z</time>
</trkpt>
<trkpt lat="43.535098" lon="3.78042">
<ele>103.9</ele>
<time>2013-05-08T06:22:53.999Z</time>
</trkpt>
<trkpt lat="43.534859" lon="3.780155">
<ele>104.1</ele>
<time>2013-05-08T06:22:54.999Z</time>
</trkpt>
<trkpt lat="43.534616" lon="3.779884">
<ele>104.3</ele>
<time>2013-05-08T06:22:55.999Z</time>
</trkpt>
<trkpt lat="43.534365" lon="3.7796">
<ele>104.6</ele>
<time>2013-05-08T06:22:56.999Z</time>
</trkpt>
<trkpt lat="43.534124" lon="3.77929">
<ele>104.7</ele>
<time>2013-05-08T06:22:57.999Z</time>
</trkpt>
<trkpt lat="43.53386" lon="3.778968">
<ele>104.8</ele>
<time>2013-05-08T06:22:58.999Z</time>
</trkpt>
<trkpt lat="43.533596" lon="3.778635">
<ele>105</ele>
<time>2013-05-08T06:22:59.999Z</time>
</trkpt>
<trkpt lat="43.533336" lon="3.77829">
<ele>105.1</ele>
<time>2013-05-08T06:23:00.999Z</time>
</trkpt>
<trkpt lat="43.533062" lon="3.777922">
<ele>105.4</ele>
<time>2013-05-08T06:23:01.999Z</time>
</trkpt>
<trkpt lat="43.532795" lon="3.777532">
<ele>105.6</ele>
<time>2013-05-08T06:23:02.999Z</time>
</trkpt>
<trkpt lat="43.532539" lon="3.777133">
<ele>105.5</ele>
<time>2013-05-08T06:23:03.999Z</time>
</trkpt>
<trkpt lat="43.53228" lon="3.776731">
<ele>105.3</ele>
<time>2013-05-08T06:23:04.999Z</time>
</trkpt>
<trkpt lat="43.532028" lon="3.776323">
<ele>105</ele>
<time>2013-05-08T06:23:05.999Z</time>
</trkpt>
<trkpt lat="43.531778" lon="3.775918">
<ele>104.7</ele>
<time>2013-05-08T06:23:06.999Z</time>
</trkpt>
<trkpt lat="43.53153" lon="3.775513">
<ele>104.5</ele>
<time>2013-05-08T06:23:07.999Z</time>
</trkpt>
<trkpt lat="43.53128" lon="3.775103">
<ele>104.5</ele>
<time>2013-05-08T06:23:08.999Z</time>
</trkpt>
<trkpt lat="43.531031" lon="3.774697">
<ele>104.5</ele>
<time>2013-05-08T06:23:09.999Z</time>
</trkpt>
<trkpt lat="43.530782" lon="3.774291">
<ele>104.6</ele>
<time>2013-05-08T06:23:10.999Z</time>
</trkpt>
<trkpt lat="43.53053" lon="3.773882">
<ele>104.8</ele>
<time>2013-05-08T06:23:11.999Z</time>
</trkpt>
<trkpt lat="43.530281" lon="3.773478">
<ele>105</ele>
<time>2013-05-08T06:23:12.999Z</time>
</trkpt>
<trkpt lat="43.530033" lon="3.773077">
<ele>105.4</ele>
<time>2013-05-08T06:23:13.999Z</time>
</trkpt>
<trkpt lat="43.529785" lon="3.772676">
<ele>105.9</ele>
<time>2013-05-08T06:23:14.999Z</time>
</trkpt>
<trkpt lat="43.529537" lon="3.772272">
<ele>106.3</ele>
<time>2013-05-08T06:23:15.999Z</time>
</trkpt>
<trkpt lat="43.52929" lon="3.77187">
<ele>106.8</ele>
<time>2013-05-08T06:23:16.999Z</time>
</trkpt>
<trkpt lat="43.529047" lon="3.771471">
<ele>107.1</ele>
<time>2013-05-08T06:23:17.999Z</time>
</trkpt>
<trkpt lat="43.52881" lon="3.771073">
<ele>107.5</ele>
<time>2013-05-08T06:23:18.999Z</time>
</trkpt>
<trkpt lat="43.528571" lon="3.770672">
<ele>107.6</ele>
<time>2013-05-08T06:23:19.999Z</time>
</trkpt>
<trkpt lat="43.528337" lon="3.770274">
<ele>107.6</ele>
<time>2013-05-08T06:23:20.999Z</time>
</trkpt>
<trkpt lat="43.528103" lon="3.769876">
<ele>107.5</ele>
<time>2013-05-08T06:23:21.999Z</time>
</trkpt>
<trkpt lat="43.52787" lon="3.769477">
<ele>107.2</ele>
<time>2013-05-08T06:23:22.999Z</time>
</trkpt>
<trkpt lat="43.527636" lon="3.769078">
<ele>106.9</ele>
<time>2013-05-08T06:23:23.999Z</time>
</trkpt>
<trkpt lat="43.527401" lon="3.768671">
<ele>106.6</ele>
<time>2013-05-08T06:23:24.999Z</time>
</trkpt>
<trkpt lat="43.527176" lon="3.76827">
<ele>106.2</ele>
<time>2013-05-08T06:23:25.999Z</time>
</trkpt>
<trkpt lat="43.526949" lon="3.767865">
<ele>105.9</ele>
<time>2013-05-08T06:23:26.999Z</time>
</trkpt>
<trkpt lat="43.526721" lon="3.767458">
<ele>105.7</ele>
<time>2013-05-08T06:23:27.999Z</time>
</trkpt>
<trkpt lat="43.526491" lon="3.767053">
<ele>105.5</ele>
<time>2013-05-08T06:23:28.999Z</time>
</trkpt>
<trkpt lat="43.526265" lon="3.766636">
<ele>105.2</ele>
<time>2013-05-08T06:23:29.999Z</time>
</trkpt>
<trkpt lat="43.526035" lon="3.766211">
<ele>105.7</ele>
<time>2013-05-08T06:23:30.999Z</time>
</trkpt>
<trkpt lat="43.525807" lon="3.765791">
<ele>106.2</ele>
<time>2013-05-08T06:23:31.999Z</time>
</trkpt>
<trkpt lat="43.525583" lon="3.765378">
<ele>106.9</ele>
<time>2013-05-08T06:23:32.999Z</time>
</trkpt>
<trkpt lat="43.52536" lon="3.764966">
<ele>107.6</ele>
<time>2013-05-08T06:23:33.999Z</time>
</trkpt>
<trkpt lat="43.525135" lon="3.764548">
<ele>108.2</ele>
<time>2013-05-08T06:23:34.999Z</time>
</trkpt>
<trkpt lat="43.524911" lon="3.764129">
<ele>108.8</ele>
<time>2013-05-08T06:23:35.999Z</time>
</trkpt>
<trkpt lat="43.524687" lon="3.763705">
<ele>109.2</ele>
<time>2013-05-08T06:23:36.999Z</time>
</trkpt>
<trkpt lat="43.524459" lon="3.76327">
<ele>109.5</ele>
<time>2013-05-08T06:23:37.999Z</time>
</trkpt>
<trkpt lat="43.524239" lon="3.762832">
<ele>109.9</ele>
<time>2013-05-08T06:23:38.999Z</time>
</trkpt>
<trkpt lat="43.524019" lon="3.762397">
<ele>110.2</ele>
<time>2013-05-08T06:23:39.999Z</time>
</trkpt>
<trkpt lat="43.523798" lon="3.761964">
<ele>110.6</ele>
<time>2013-05-08T06:23:40.999Z</time>
</trkpt>
<trkpt lat="43.523582" lon="3.761533">
<ele>111.1</ele>
<time>2013-05-08T06:23:41.999Z</time>
</trkpt>
<trkpt lat="43.523367" lon="3.761099">
<ele>111.6</ele>
<time>2013-05-08T06:23:42.999Z</time>
</trkpt>
<trkpt lat="43.523161" lon="3.760658">
<ele>112</ele>
<time>2013-05-08T06:23:43.999Z</time>
</trkpt>
<trkpt lat="43.522958" lon="3.760217">
<ele>112.4</ele>
<time>2013-05-08T06:23:44.999Z</time>
</trkpt>
<trkpt lat="43.522756" lon="3.759773">
<ele>112.5</ele>
<time>2013-05-08T06:23:45.999Z</time>
</trkpt>
<trkpt lat="43.522554" lon="3.759335">
<ele>112.5</ele>
<time>2013-05-08T06:23:46.999Z</time>
</trkpt>
<trkpt lat="43.522354" lon="3.758902">
<ele>112.3</ele>
<time>2013-05-08T06:23:47.999Z</time>
</trkpt>
<trkpt lat="43.522152" lon="3.758469">
<ele>112.1</ele>
<time>2013-05-08T06:23:48.999Z</time>
</trkpt>
<trkpt lat="43.52195" lon="3.758038">
<ele>112</ele>
<time>2013-05-08T06:23:49.999Z</time>
</trkpt>
<trkpt lat="43.521748" lon="3.757608">
<ele>111.9</ele>
<time>2013-05-08T06:23:50.999Z</time>
</trkpt>
<trkpt lat="43.521545" lon="3.75718">
<ele>112</ele>
<time>2013-05-08T06:23:51.999Z</time>
</trkpt>
<trkpt lat="43.521341" lon="3.756751">
<ele>112</ele>
<time>2013-05-08T06:23:52.999Z</time>
</trkpt>
<trkpt lat="43.521137" lon="3.756325">
<ele>112.1</ele>
<time>2013-05-08T06:23:53.999Z</time>
</trkpt>
<trkpt lat="43.520931" lon="3.755895">
<ele>112.2</ele>
<time>2013-05-08T06:23:54.999Z</time>
</trkpt>
<trkpt lat="43.520724" lon="3.755467">
<ele>112.3</ele>
<time>2013-05-08T06:23:55.999Z</time>
</trkpt>
<trkpt lat="43.520516" lon="3.755041">
<ele>112.6</ele>
<time>2013-05-08T06:23:56.999Z</time>
</trkpt>
<trkpt lat="43.520302" lon="3.754623">
<ele>112.9</ele>
<time>2013-05-08T06:23:57.999Z</time>
</trkpt>
<trkpt lat="43.520086" lon="3.754208">
<ele>113.2</ele>
<time>2013-05-08T06:23:58.999Z</time>
</trkpt>
<trkpt lat="43.519869" lon="3.753797">
<ele>113.5</ele>
<time>2013-05-08T06:23:59.999Z</time>
</trkpt>
<trkpt lat="43.519638" lon="3.753398">
<ele>113.9</ele>
<time>2013-05-08T06:24:00.999Z</time>
</trkpt>
<trkpt lat="43.519405" lon="3.752995">
<ele>114.3</ele>
<time>2013-05-08T06:24:01.999Z</time>
</trkpt>
<trkpt lat="43.519168" lon="3.752604">
<ele>114.8</ele>
<time>2013-05-08T06:24:02.999Z</time>
</trkpt>
<trkpt lat="43.518918" lon="3.75222">
<ele>115.2</ele>
<time>2013-05-08T06:24:03.999Z</time>
</trkpt>
<trkpt lat="43.518662" lon="3.751842">
<ele>115.6</ele>
<time>2013-05-08T06:24:04.999Z</time>
</trkpt>
<trkpt lat="43.518398" lon="3.75147">
<ele>116</ele>
<time>2013-05-08T06:24:05.999Z</time>
</trkpt>
<trkpt lat="43.518136" lon="3.751103">
<ele>116.4</ele>
<time>2013-05-08T06:24:06.999Z</time>
</trkpt>
<trkpt lat="43.517856" lon="3.750756">
<ele>116.7</ele>
<time>2013-05-08T06:24:07.999Z</time>
</trkpt>
<trkpt lat="43.517574" lon="3.75041">
<ele>117.3</ele>
<time>2013-05-08T06:24:08.999Z</time>
</trkpt>
<trkpt lat="43.51728" lon="3.750075">
<ele>118</ele>
<time>2013-05-08T06:24:09.999Z</time>
</trkpt>
<trkpt lat="43.516994" lon="3.74975">
<ele>118.9</ele>
<time>2013-05-08T06:24:10.999Z</time>
</trkpt>
<trkpt lat="43.516709" lon="3.749433">
<ele>119.8</ele>
<time>2013-05-08T06:24:11.999Z</time>
</trkpt>
<trkpt lat="43.516418" lon="3.749118">
<ele>120.6</ele>
<time>2013-05-08T06:24:12.999Z</time>
</trkpt>
<trkpt lat="43.516126" lon="3.748812">
<ele>121.3</ele>
<time>2013-05-08T06:24:13.999Z</time>
</trkpt>
<trkpt lat="43.515826" lon="3.748505">
<ele>121.7</ele>
<time>2013-05-08T06:24:14.999Z</time>
</trkpt>
<trkpt lat="43.51553" lon="3.748205">
<ele>121.9</ele>
<time>2013-05-08T06:24:15.999Z</time>
</trkpt>
<trkpt lat="43.51523" lon="3.74791">
<ele>122</ele>
<time>2013-05-08T06:24:16.999Z</time>
</trkpt>
<trkpt lat="43.514931" lon="3.747628">
<ele>122.2</ele>
<time>2013-05-08T06:24:17.999Z</time>
</trkpt>
<trkpt lat="43.514627" lon="3.747343">
<ele>122.5</ele>
<time>2013-05-08T06:24:18.999Z</time>
</trkpt>
<trkpt lat="43.514324" lon="3.747056">
<ele>122.9</ele>
<time>2013-05-08T06:24:19.999Z</time>
</trkpt>
<trkpt lat="43.514018" lon="3.74677">
<ele>123.5</ele>
<time>2013-05-08T06:24:20.999Z</time>
</trkpt>
<trkpt lat="43.513713" lon="3.746478">
<ele>124.4</ele>
<time>2013-05-08T06:24:21.999Z</time>
</trkpt>
<trkpt lat="43.513407" lon="3.746187">
<ele>125.3</ele>
<time>2013-05-08T06:24:22.999Z</time>
</trkpt>
<trkpt lat="43.513098" lon="3.745902">
<ele>126.1</ele>
<time>2013-05-08T06:24:23.999Z</time>
</trkpt>
<trkpt lat="43.512789" lon="3.745615">
<ele>126.9</ele>
<time>2013-05-08T06:24:24.999Z</time>
</trkpt>
<trkpt lat="43.512484" lon="3.745318">
<ele>127.7</ele>
<time>2013-05-08T06:24:25.999Z</time>
</trkpt>
<trkpt lat="43.512176" lon="3.745015">
<ele>128.5</ele>
<time>2013-05-08T06:24:26.999Z</time>
</trkpt>
<trkpt lat="43.511872" lon="3.7447">
<ele>129.4</ele>
<time>2013-05-08T06:24:27.999Z</time>
</trkpt>
<trkpt lat="43.511571" lon="3.744384">
<ele>130.5</ele>
<time>2013-05-08T06:24:28.999Z</time>
</trkpt>
<trkpt lat="43.511271" lon="3.744063">
<ele>131.6</ele>
<time>2013-05-08T06:24:29.999Z</time>
</trkpt>
<trkpt lat="43.510987" lon="3.743737">
<ele>132.1</ele>
<time>2013-05-08T06:24:30.999Z</time>
</trkpt>
<trkpt lat="43.510701" lon="3.743406">
<ele>132.7</ele>
<time>2013-05-08T06:24:31.999Z</time>
</trkpt>
<trkpt lat="43.510415" lon="3.743055">
<ele>133.1</ele>
<time>2013-05-08T06:24:32.999Z</time>
</trkpt>
<trkpt lat="43.510136" lon="3.742707">
<ele>133.2</ele>
<time>2013-05-08T06:24:33.999Z</time>
</trkpt>
<trkpt lat="43.509869" lon="3.742348">
<ele>133.3</ele>
<time>2013-05-08T06:24:34.999Z</time>
</trkpt>
<trkpt lat="43.509597" lon="3.741981">
<ele>133.3</ele>
<time>2013-05-08T06:24:35.999Z</time>
</trkpt>
<trkpt lat="43.509335" lon="3.74161">
<ele>133.2</ele>
<time>2013-05-08T06:24:36.999Z</time>
</trkpt>
<trkpt lat="43.509076" lon="3.741241">
<ele>133.1</ele>
<time>2013-05-08T06:24:37.999Z</time>
</trkpt>
<trkpt lat="43.508821" lon="3.740867">
<ele>132.9</ele>
<time>2013-05-08T06:24:38.999Z</time>
</trkpt>
<trkpt lat="43.508576" lon="3.740471">
<ele>132.7</ele>
<time>2013-05-08T06:24:39.999Z</time>
</trkpt>
<trkpt lat="43.508331" lon="3.740081">
<ele>132.8</ele>
<time>2013-05-08T06:24:40.999Z</time>
</trkpt>
<trkpt lat="43.508085" lon="3.739689">
<ele>133</ele>
<time>2013-05-08T06:24:41.999Z</time>
</trkpt>
<trkpt lat="43.507843" lon="3.739294">
<ele>133.3</ele>
<time>2013-05-08T06:24:42.999Z</time>
</trkpt>
<trkpt lat="43.507603" lon="3.738896">
<ele>133.9</ele>
<time>2013-05-08T06:24:43.999Z</time>
</trkpt>
<trkpt lat="43.507375" lon="3.738491">
<ele>134.3</ele>
<time>2013-05-08T06:24:44.999Z</time>
</trkpt>
<trkpt lat="43.507145" lon="3.73808">
<ele>134.5</ele>
<time>2013-05-08T06:24:45.999Z</time>
</trkpt>
<trkpt lat="43.506918" lon="3.737678">
<ele>134.4</ele>
<time>2013-05-08T06:24:46.999Z</time>
</trkpt>
<trkpt lat="43.506685" lon="3.737269">
<ele>134.3</ele>
<time>2013-05-08T06:24:47.999Z</time>
</trkpt>
<trkpt lat="43.506453" lon="3.736862">
<ele>134.1</ele>
<time>2013-05-08T06:24:48.999Z</time>
</trkpt>
<trkpt lat="43.506221" lon="3.736454">
<ele>133.8</ele>
<time>2013-05-08T06:24:49.999Z</time>
</trkpt>
<trkpt lat="43.505987" lon="3.736041">
<ele>133.6</ele>
<time>2013-05-08T06:24:50.999Z</time>
</trkpt>
<trkpt lat="43.50575" lon="3.735628">
<ele>133.4</ele>
<time>2013-05-08T06:24:51.999Z</time>
</trkpt>
<trkpt lat="43.505513" lon="3.73522">
<ele>133.2</ele>
<time>2013-05-08T06:24:52.999Z</time>
</trkpt>
<trkpt lat="43.505273" lon="3.73481">
<ele>133</ele>
<time>2013-05-08T06:24:53.999Z</time>
</trkpt>
<trkpt lat="43.505029" lon="3.734402">
<ele>133</ele>
<time>2013-05-08T06:24:54.999Z</time>
</trkpt>
<trkpt lat="43.504785" lon="3.733987">
<ele>133</ele>
<time>2013-05-08T06:24:55.999Z</time>
</trkpt>
<trkpt lat="43.504542" lon="3.733572">
<ele>132.9</ele>
<time>2013-05-08T06:24:56.999Z</time>
</trkpt>
<trkpt lat="43.504301" lon="3.733158">
<ele>132.7</ele>
<time>2013-05-08T06:24:57.999Z</time>
</trkpt>
<trkpt lat="43.504059" lon="3.732748">
<ele>132.6</ele>
<time>2013-05-08T06:24:58.999Z</time>
</trkpt>
<trkpt lat="43.503815" lon="3.732332">
<ele>132.6</ele>
<time>2013-05-08T06:24:59.999Z</time>
</trkpt>
<trkpt lat="43.503573" lon="3.731919">
<ele>132.6</ele>
<time>2013-05-08T06:25:00.999Z</time>
</trkpt>
<trkpt lat="43.503332" lon="3.731505">
<ele>132.4</ele>
<time>2013-05-08T06:25:01.999Z</time>
</trkpt>
<trkpt lat="43.503092" lon="3.731092">
<ele>132.2</ele>
<time>2013-05-08T06:25:02.999Z</time>
</trkpt>
<trkpt lat="43.50285" lon="3.730683">
<ele>132.1</ele>
<time>2013-05-08T06:25:03.999Z</time>
</trkpt>
<trkpt lat="43.502608" lon="3.73028">
<ele>132</ele>
<time>2013-05-08T06:25:04.999Z</time>
</trkpt>
<trkpt lat="43.502361" lon="3.729877">
<ele>132</ele>
<time>2013-05-08T06:25:05.999Z</time>
</trkpt>
<trkpt lat="43.502108" lon="3.729476">
<ele>132</ele>
<time>2013-05-08T06:25:06.999Z</time>
</trkpt>
<trkpt lat="43.501852" lon="3.729087">
<ele>132</ele>
<time>2013-05-08T06:25:07.999Z</time>
</trkpt>
<trkpt lat="43.501596" lon="3.7287">
<ele>132</ele>
<time>2013-05-08T06:25:08.999Z</time>
</trkpt>
<trkpt lat="43.501334" lon="3.728321">
<ele>131.9</ele>
<time>2013-05-08T06:25:09.999Z</time>
</trkpt>
<trkpt lat="43.501068" lon="3.727944">
<ele>132</ele>
<time>2013-05-08T06:25:10.999Z</time>
</trkpt>
<trkpt lat="43.500806" lon="3.727569">
<ele>132.1</ele>
<time>2013-05-08T06:25:11.999Z</time>
</trkpt>
<trkpt lat="43.500537" lon="3.727197">
<ele>132</ele>
<time>2013-05-08T06:25:12.999Z</time>
</trkpt>
<trkpt lat="43.50027" lon="3.726832">
<ele>131.9</ele>
<time>2013-05-08T06:25:13.999Z</time>
</trkpt>
<trkpt lat="43.499994" lon="3.726471">
<ele>131.8</ele>
<time>2013-05-08T06:25:14.999Z</time>
</trkpt>
<trkpt lat="43.499718" lon="3.726114">
<ele>131.7</ele>
<time>2013-05-08T06:25:15.999Z</time>
</trkpt>
<trkpt lat="43.499441" lon="3.725759">
<ele>131.5</ele>
<time>2013-05-08T06:25:16.999Z</time>
</trkpt>
<trkpt lat="43.499149" lon="3.72541">
<ele>131.3</ele>
<time>2013-05-08T06:25:17.999Z</time>
</trkpt>
<trkpt lat="43.498869" lon="3.725075">
<ele>131.3</ele>
<time>2013-05-08T06:25:18.999Z</time>
</trkpt>
<trkpt lat="43.498581" lon="3.724737">
<ele>131.2</ele>
<time>2013-05-08T06:25:19.999Z</time>
</trkpt>
<trkpt lat="43.498296" lon="3.724406">
<ele>131</ele>
<time>2013-05-08T06:25:20.999Z</time>
</trkpt>
<trkpt lat="43.498011" lon="3.724077">
<ele>131</ele>
<time>2013-05-08T06:25:21.999Z</time>
</trkpt>
<trkpt lat="43.497728" lon="3.723758">
<ele>131.1</ele>
<time>2013-05-08T06:25:22.999Z</time>
</trkpt>
<trkpt lat="43.497445" lon="3.723449">
<ele>131.1</ele>
<time>2013-05-08T06:25:23.999Z</time>
</trkpt>
<trkpt lat="43.497168" lon="3.723142">
<ele>131</ele>
<time>2013-05-08T06:25:24.999Z</time>
</trkpt>
<trkpt lat="43.49689" lon="3.722841">
<ele>130.9</ele>
<time>2013-05-08T06:25:25.999Z</time>
</trkpt>
<trkpt lat="43.496612" lon="3.722553">
<ele>130.7</ele>
<time>2013-05-08T06:25:26.999Z</time>
</trkpt>
<trkpt lat="43.496341" lon="3.722267">
<ele>130.3</ele>
<time>2013-05-08T06:25:27.999Z</time>
</trkpt>
<trkpt lat="43.49607" lon="3.721983">
<ele>130</ele>
<time>2013-05-08T06:25:28.999Z</time>
</trkpt>
<trkpt lat="43.495802" lon="3.7217">
<ele>129.5</ele>
<time>2013-05-08T06:25:29.999Z</time>
</trkpt>
<trkpt lat="43.495535" lon="3.721421">
<ele>128.9</ele>
<time>2013-05-08T06:25:30.999Z</time>
</trkpt>
<trkpt lat="43.495271" lon="3.721145">
<ele>128.2</ele>
<time>2013-05-08T06:25:31.999Z</time>
</trkpt>
<trkpt lat="43.495009" lon="3.72087">
<ele>127.4</ele>
<time>2013-05-08T06:25:32.999Z</time>
</trkpt>
<trkpt lat="43.494748" lon="3.720599">
<ele>126.6</ele>
<time>2013-05-08T06:25:33.999Z</time>
</trkpt>
<trkpt lat="43.494484" lon="3.720322">
<ele>125.7</ele>
<time>2013-05-08T06:25:34.999Z</time>
</trkpt>
<trkpt lat="43.49422" lon="3.720047">
<ele>124.9</ele>
<time>2013-05-08T06:25:35.999Z</time>
</trkpt>
<trkpt lat="43.493959" lon="3.719775">
<ele>124</ele>
<time>2013-05-08T06:25:36.999Z</time>
</trkpt>
<trkpt lat="43.493695" lon="3.719503">
<ele>123.4</ele>
<time>2013-05-08T06:25:37.999Z</time>
</trkpt>
<trkpt lat="43.493433" lon="3.719227">
<ele>122.7</ele>
<time>2013-05-08T06:25:38.999Z</time>
</trkpt>
<trkpt lat="43.493167" lon="3.718943">
<ele>121.9</ele>
<time>2013-05-08T06:25:39.999Z</time>
</trkpt>
<trkpt lat="43.4929" lon="3.718656">
<ele>121.2</ele>
<time>2013-05-08T06:25:40.999Z</time>
</trkpt>
<trkpt lat="43.49263" lon="3.718356">
<ele>120.4</ele>
<time>2013-05-08T06:25:41.999Z</time>
</trkpt>
<trkpt lat="43.492359" lon="3.718052">
<ele>119.6</ele>
<time>2013-05-08T06:25:42.999Z</time>
</trkpt>
<trkpt lat="43.492093" lon="3.717734">
<ele>118.8</ele>
<time>2013-05-08T06:25:43.999Z</time>
</trkpt>
<trkpt lat="43.491829" lon="3.717417">
<ele>118.2</ele>
<time>2013-05-08T06:25:44.999Z</time>
</trkpt>
<trkpt lat="43.49157" lon="3.717087">
<ele>117.5</ele>
<time>2013-05-08T06:25:45.999Z</time>
</trkpt>
<trkpt lat="43.491321" lon="3.716754">
<ele>116.8</ele>
<time>2013-05-08T06:25:46.999Z</time>
</trkpt>
<trkpt lat="43.491078" lon="3.716417">
<ele>116</ele>
<time>2013-05-08T06:25:47.999Z</time>
</trkpt>
<trkpt lat="43.490839" lon="3.716076">
<ele>115</ele>
<time>2013-05-08T06:25:48.999Z</time>
</trkpt>
<trkpt lat="43.49061" lon="3.715732">
<ele>114</ele>
<time>2013-05-08T06:25:49.999Z</time>
</trkpt>
<trkpt lat="43.490387" lon="3.715384">
<ele>113</ele>
<time>2013-05-08T06:25:50.999Z</time>
</trkpt>
<trkpt lat="43.490162" lon="3.715032">
<ele>112.1</ele>
<time>2013-05-08T06:25:51.999Z</time>
</trkpt>
<trkpt lat="43.489947" lon="3.714673">
<ele>111.3</ele>
<time>2013-05-08T06:25:52.999Z</time>
</trkpt>
<trkpt lat="43.489733" lon="3.714311">
<ele>110.5</ele>
<time>2013-05-08T06:25:53.999Z</time>
</trkpt>
<trkpt lat="43.489528" lon="3.713943">
<ele>109.8</ele>
<time>2013-05-08T06:25:54.999Z</time>
</trkpt>
<trkpt lat="43.489328" lon="3.713569">
<ele>109.2</ele>
<time>2013-05-08T06:25:55.999Z</time>
</trkpt>
<trkpt lat="43.489128" lon="3.713195">
<ele>108.6</ele>
<time>2013-05-08T06:25:56.999Z</time>
</trkpt>
<trkpt lat="43.48894" lon="3.712811">
<ele>108.1</ele>
<time>2013-05-08T06:25:57.999Z</time>
</trkpt>
<trkpt lat="43.488754" lon="3.712428">
<ele>107.7</ele>
<time>2013-05-08T06:25:58.999Z</time>
</trkpt>
<trkpt lat="43.488576" lon="3.712034">
<ele>107.2</ele>
<time>2013-05-08T06:25:59.999Z</time>
</trkpt>
<trkpt lat="43.48841" lon="3.711637">
<ele>106.7</ele>
<time>2013-05-08T06:26:00.999Z</time>
</trkpt>
<trkpt lat="43.488248" lon="3.711231">
<ele>106.2</ele>
<time>2013-05-08T06:26:01.999Z</time>
</trkpt>
<trkpt lat="43.488092" lon="3.710816">
<ele>105.6</ele>
<time>2013-05-08T06:26:02.999Z</time>
</trkpt>
<trkpt lat="43.487934" lon="3.710395">
<ele>105</ele>
<time>2013-05-08T06:26:03.999Z</time>
</trkpt>
<trkpt lat="43.487786" lon="3.709969">
<ele>104.3</ele>
<time>2013-05-08T06:26:04.999Z</time>
</trkpt>
<trkpt lat="43.487639" lon="3.709545">
<ele>103.4</ele>
<time>2013-05-08T06:26:05.999Z</time>
</trkpt>
<trkpt lat="43.487495" lon="3.709125">
<ele>102.5</ele>
<time>2013-05-08T06:26:06.999Z</time>
</trkpt>
<trkpt lat="43.487368" lon="3.7087">
<ele>101.6</ele>
<time>2013-05-08T06:26:07.999Z</time>
</trkpt>
<trkpt lat="43.487243" lon="3.708273">
<ele>100.7</ele>
<time>2013-05-08T06:26:08.999Z</time>
</trkpt>
<trkpt lat="43.487128" lon="3.707846">
<ele>99.8</ele>
<time>2013-05-08T06:26:09.999Z</time>
</trkpt>
<trkpt lat="43.487011" lon="3.707418">
<ele>98.9</ele>
<time>2013-05-08T06:26:10.999Z</time>
</trkpt>
<trkpt lat="43.486896" lon="3.706989">
<ele>98</ele>
<time>2013-05-08T06:26:11.999Z</time>
</trkpt>
<trkpt lat="43.486789" lon="3.706551">
<ele>97.3</ele>
<time>2013-05-08T06:26:12.999Z</time>
</trkpt>
<trkpt lat="43.486686" lon="3.706118">
<ele>96.6</ele>
<time>2013-05-08T06:26:13.999Z</time>
</trkpt>
<trkpt lat="43.486597" lon="3.70568">
<ele>95.9</ele>
<time>2013-05-08T06:26:14.999Z</time>
</trkpt>
<trkpt lat="43.486506" lon="3.705237">
<ele>95.1</ele>
<time>2013-05-08T06:26:15.999Z</time>
</trkpt>
<trkpt lat="43.48642" lon="3.704788">
<ele>94.1</ele>
<time>2013-05-08T06:26:16.999Z</time>
</trkpt>
<trkpt lat="43.486333" lon="3.704335">
<ele>93.2</ele>
<time>2013-05-08T06:26:17.999Z</time>
</trkpt>
<trkpt lat="43.486244" lon="3.703877">
<ele>92.5</ele>
<time>2013-05-08T06:26:18.999Z</time>
</trkpt>
<trkpt lat="43.486152" lon="3.703408">
<ele>91.8</ele>
<time>2013-05-08T06:26:19.999Z</time>
</trkpt>
<trkpt lat="43.48606" lon="3.702937">
<ele>91.3</ele>
<time>2013-05-08T06:26:20.999Z</time>
</trkpt>
<trkpt lat="43.485977" lon="3.702465">
<ele>90.6</ele>
<time>2013-05-08T06:26:21.999Z</time>
</trkpt>
<trkpt lat="43.485896" lon="3.701993">
<ele>89.8</ele>
<time>2013-05-08T06:26:22.999Z</time>
</trkpt>
<trkpt lat="43.485815" lon="3.701523">
<ele>88.9</ele>
<time>2013-05-08T06:26:23.999Z</time>
</trkpt>
<trkpt lat="43.485733" lon="3.701057">
<ele>88.2</ele>
<time>2013-05-08T06:26:24.999Z</time>
</trkpt>
<trkpt lat="43.485653" lon="3.700594">
<ele>87.3</ele>
<time>2013-05-08T06:26:25.999Z</time>
</trkpt>
<trkpt lat="43.485572" lon="3.700138">
<ele>86.5</ele>
<time>2013-05-08T06:26:26.999Z</time>
</trkpt>
<trkpt lat="43.485492" lon="3.699686">
<ele>85.8</ele>
<time>2013-05-08T06:26:27.999Z</time>
</trkpt>
<trkpt lat="43.485413" lon="3.699238">
<ele>85.1</ele>
<time>2013-05-08T06:26:28.999Z</time>
</trkpt>
<trkpt lat="43.485334" lon="3.698797">
<ele>84.5</ele>
<time>2013-05-08T06:26:29.999Z</time>
</trkpt>
<trkpt lat="43.485256" lon="3.698361">
<ele>83.9</ele>
<time>2013-05-08T06:26:30.999Z</time>
</trkpt>
<trkpt lat="43.485179" lon="3.697933">
<ele>83.3</ele>
<time>2013-05-08T06:26:31.999Z</time>
</trkpt>
<trkpt lat="43.485103" lon="3.69751">
<ele>82.7</ele>
<time>2013-05-08T06:26:32.999Z</time>
</trkpt>
<trkpt lat="43.485028" lon="3.697088">
<ele>82.1</ele>
<time>2013-05-08T06:26:33.999Z</time>
</trkpt>
<trkpt lat="43.484952" lon="3.696669">
<ele>81.4</ele>
<time>2013-05-08T06:26:34.999Z</time>
</trkpt>
<trkpt lat="43.484869" lon="3.696252">
<ele>80.7</ele>
<time>2013-05-08T06:26:35.999Z</time>
</trkpt>
<trkpt lat="43.484785" lon="3.695836">
<ele>80</ele>
<time>2013-05-08T06:26:36.999Z</time>
</trkpt>
<trkpt lat="43.484702" lon="3.695419">
<ele>79.4</ele>
<time>2013-05-08T06:26:37.999Z</time>
</trkpt>
<trkpt lat="43.484614" lon="3.695006">
<ele>78.7</ele>
<time>2013-05-08T06:26:38.999Z</time>
</trkpt>
<trkpt lat="43.48452" lon="3.694602">
<ele>78.1</ele>
<time>2013-05-08T06:26:39.999Z</time>
</trkpt>
<trkpt lat="43.484414" lon="3.694209">
<ele>77.5</ele>
<time>2013-05-08T06:26:40.999Z</time>
</trkpt>
<trkpt lat="43.484313" lon="3.693831">
<ele>76.9</ele>
<time>2013-05-08T06:26:41.999Z</time>
</trkpt>
<trkpt lat="43.484204" lon="3.69346">
<ele>76.2</ele>
<time>2013-05-08T06:26:42.999Z</time>
</trkpt>
<trkpt lat="43.484086" lon="3.693081">
<ele>75.6</ele>
<time>2013-05-08T06:26:43.999Z</time>
</trkpt>
<trkpt lat="43.483968" lon="3.692699">
<ele>75</ele>
<time>2013-05-08T06:26:44.999Z</time>
</trkpt>
<trkpt lat="43.483849" lon="3.692306">
<ele>74.4</ele>
<time>2013-05-08T06:26:45.999Z</time>
</trkpt>
<trkpt lat="43.483732" lon="3.691917">
<ele>74</ele>
<time>2013-05-08T06:26:46.999Z</time>
</trkpt>
<trkpt lat="43.483616" lon="3.691532">
<ele>73.7</ele>
<time>2013-05-08T06:26:47.999Z</time>
</trkpt>
<trkpt lat="43.4835" lon="3.691147">
<ele>73.6</ele>
<time>2013-05-08T06:26:48.999Z</time>
</trkpt>
<trkpt lat="43.483386" lon="3.690768">
<ele>73.5</ele>
<time>2013-05-08T06:26:49.999Z</time>
</trkpt>
<trkpt lat="43.483275" lon="3.690391">
<ele>73.3</ele>
<time>2013-05-08T06:26:50.999Z</time>
</trkpt>
<trkpt lat="43.483165" lon="3.690018">
<ele>73</ele>
<time>2013-05-08T06:26:51.999Z</time>
</trkpt>
<trkpt lat="43.483054" lon="3.689646">
<ele>72.7</ele>
<time>2013-05-08T06:26:52.999Z</time>
</trkpt>
<trkpt lat="43.482947" lon="3.689271">
<ele>72</ele>
<time>2013-05-08T06:26:53.999Z</time>
</trkpt>
<trkpt lat="43.482848" lon="3.688901">
<ele>71.5</ele>
<time>2013-05-08T06:26:54.999Z</time>
</trkpt>
<trkpt lat="43.482746" lon="3.688527">
<ele>70.7</ele>
<time>2013-05-08T06:26:55.999Z</time>
</trkpt>
<trkpt lat="43.482637" lon="3.688134">
<ele>70.3</ele>
<time>2013-05-08T06:26:56.999Z</time>
</trkpt>
<trkpt lat="43.48253" lon="3.687712">
<ele>70.5</ele>
<time>2013-05-08T06:26:57.999Z</time>
</trkpt>
<trkpt lat="43.48242" lon="3.687279">
<ele>71.1</ele>
<time>2013-05-08T06:26:58.999Z</time>
</trkpt>
<trkpt lat="43.482312" lon="3.686854">
<ele>71.9</ele>
<time>2013-05-08T06:26:59.999Z</time>
</trkpt>
<trkpt lat="43.482211" lon="3.686438">
<ele>72.6</ele>
<time>2013-05-08T06:27:00.999Z</time>
</trkpt>
<trkpt lat="43.48213" lon="3.686037">
<ele>73.1</ele>
<time>2013-05-08T06:27:01.999Z</time>
</trkpt>
<trkpt lat="43.482093" lon="3.685661">
<ele>73.5</ele>
<time>2013-05-08T06:27:02.999Z</time>
</trkpt>
<trkpt lat="43.482085" lon="3.685305">
<ele>73.5</ele>
<time>2013-05-08T06:27:03.999Z</time>
</trkpt>
<trkpt lat="43.482099" lon="3.684968">
<ele>73.5</ele>
<time>2013-05-08T06:27:04.999Z</time>
</trkpt>
<trkpt lat="43.482129" lon="3.684656">
<ele>73.4</ele>
<time>2013-05-08T06:27:05.999Z</time>
</trkpt>
<trkpt lat="43.482174" lon="3.684349">
<ele>73.6</ele>
<time>2013-05-08T06:27:06.999Z</time>
</trkpt>
<trkpt lat="43.482211" lon="3.684055">
<ele>74.1</ele>
<time>2013-05-08T06:27:07.999Z</time>
</trkpt>
<trkpt lat="43.482228" lon="3.683796">
<ele>74.5</ele>
<time>2013-05-08T06:27:08.999Z</time>
</trkpt>
<trkpt lat="43.482237" lon="3.683556">
<ele>74.6</ele>
<time>2013-05-08T06:27:09.999Z</time>
</trkpt>
<trkpt lat="43.48219" lon="3.683379">
<ele>74.7</ele>
<time>2013-05-08T06:27:10.999Z</time>
</trkpt>
<trkpt lat="43.482129" lon="3.683221">
<ele>74.8</ele>
<time>2013-05-08T06:27:11.999Z</time>
</trkpt>
<trkpt lat="43.481996" lon="3.683152">
<ele>74.7</ele>
<time>2013-05-08T06:27:12.999Z</time>
</trkpt>
<trkpt lat="43.481841" lon="3.683109">
<ele>74.4</ele>
<time>2013-05-08T06:27:13.999Z</time>
</trkpt>
<trkpt lat="43.481662" lon="3.683145">
<ele>74.1</ele>
<time>2013-05-08T06:27:14.999Z</time>
</trkpt>
<trkpt lat="43.481478" lon="3.683201">
<ele>73.9</ele>
<time>2013-05-08T06:27:15.999Z</time>
</trkpt>
<trkpt lat="43.48129" lon="3.683269">
<ele>73.7</ele>
<time>2013-05-08T06:27:16.999Z</time>
</trkpt>
<trkpt lat="43.481103" lon="3.683355">
<ele>73.6</ele>
<time>2013-05-08T06:27:17.999Z</time>
</trkpt>
<trkpt lat="43.480905" lon="3.683467">
<ele>73.7</ele>
<time>2013-05-08T06:27:18.999Z</time>
</trkpt>
<trkpt lat="43.480711" lon="3.683575">
<ele>73.5</ele>
<time>2013-05-08T06:27:19.999Z</time>
</trkpt>
<trkpt lat="43.480519" lon="3.683681">
<ele>73.2</ele>
<time>2013-05-08T06:27:20.999Z</time>
</trkpt>
<trkpt lat="43.480332" lon="3.683779">
<ele>73</ele>
<time>2013-05-08T06:27:21.999Z</time>
</trkpt>
<trkpt lat="43.480151" lon="3.68387">
<ele>72.7</ele>
<time>2013-05-08T06:27:22.999Z</time>
</trkpt>
<trkpt lat="43.479971" lon="3.683954">
<ele>72.6</ele>
<time>2013-05-08T06:27:23.999Z</time>
</trkpt>
<trkpt lat="43.479791" lon="3.684036">
<ele>72.5</ele>
<time>2013-05-08T06:27:24.999Z</time>
</trkpt>
<trkpt lat="43.479608" lon="3.684125">
<ele>72.5</ele>
<time>2013-05-08T06:27:25.999Z</time>
</trkpt>
<trkpt lat="43.479429" lon="3.684213">
<ele>72.3</ele>
<time>2013-05-08T06:27:26.999Z</time>
</trkpt>
<trkpt lat="43.479252" lon="3.684295">
<ele>72.2</ele>
<time>2013-05-08T06:27:27.999Z</time>
</trkpt>
<trkpt lat="43.47908" lon="3.68438">
<ele>72</ele>
<time>2013-05-08T06:27:28.999Z</time>
</trkpt>
<trkpt lat="43.478913" lon="3.68446">
<ele>71.7</ele>
<time>2013-05-08T06:27:29.999Z</time>
</trkpt>
<trkpt lat="43.478753" lon="3.68453">
<ele>71.5</ele>
<time>2013-05-08T06:27:30.999Z</time>
</trkpt>
<trkpt lat="43.478608" lon="3.684587">
<ele>71.2</ele>
<time>2013-05-08T06:27:31.999Z</time>
</trkpt>
<trkpt lat="43.478474" lon="3.684636">
<ele>70.9</ele>
<time>2013-05-08T06:27:32.999Z</time>
</trkpt>
<trkpt lat="43.478351" lon="3.684676">
<ele>70.7</ele>
<time>2013-05-08T06:27:33.999Z</time>
</trkpt>
<trkpt lat="43.478243" lon="3.684709">
<ele>70.5</ele>
<time>2013-05-08T06:27:34.999Z</time>
</trkpt>
<trkpt lat="43.478139" lon="3.68474">
<ele>70.4</ele>
<time>2013-05-08T06:27:35.999Z</time>
</trkpt>
<trkpt lat="43.47805" lon="3.684766">
<ele>70.2</ele>
<time>2013-05-08T06:27:36.999Z</time>
</trkpt>
<trkpt lat="43.477971" lon="3.684786">
<ele>70</ele>
<time>2013-05-08T06:27:37.999Z</time>
</trkpt>
<trkpt lat="43.47791" lon="3.684795">
<ele>69.7</ele>
<time>2013-05-08T06:27:38.999Z</time>
</trkpt>
<trkpt lat="43.477864" lon="3.684797">
<ele>69.4</ele>
<time>2013-05-08T06:27:39.999Z</time>
</trkpt>
<trkpt lat="43.477838" lon="3.684795">
<ele>69.3</ele>
<time>2013-05-08T06:27:40.999Z</time>
</trkpt>
<trkpt lat="43.477816" lon="3.684796">
<ele>69.3</ele>
<time>2013-05-08T06:27:41.999Z</time>
</trkpt>
<trkpt lat="43.477786" lon="3.684806">
<ele>68.7</ele>
<time>2013-05-08T06:28:19.999Z</time>
</trkpt>
<trkpt lat="43.477762" lon="3.684811">
<ele>68.6</ele>
<time>2013-05-08T06:28:20.999Z</time>
</trkpt>
<trkpt lat="43.477734" lon="3.684823">
<ele>68.3</ele>
<time>2013-05-08T06:28:36.999Z</time>
</trkpt>
<trkpt lat="43.477718" lon="3.684831">
<ele>68.3</ele>
<time>2013-05-08T06:28:37.999Z</time>
</trkpt>
<trkpt lat="43.477677" lon="3.684847">
<ele>68.5</ele>
<time>2013-05-08T06:28:47.999Z</time>
</trkpt>
<trkpt lat="43.477657" lon="3.684849">
<ele>68.6</ele>
<time>2013-05-08T06:28:48.999Z</time>
</trkpt>
<trkpt lat="43.477613" lon="3.68485">
<ele>68.9</ele>
<time>2013-05-08T06:29:02.999Z</time>
</trkpt>
<trkpt lat="43.477597" lon="3.684852">
<ele>69</ele>
<time>2013-05-08T06:29:03.999Z</time>
</trkpt>
<trkpt lat="43.477568" lon="3.684868">
<ele>69.1</ele>
<time>2013-05-08T06:29:27.999Z</time>
</trkpt>
<trkpt lat="43.47751" lon="3.684896">
<ele>68.9</ele>
<time>2013-05-08T06:29:28.999Z</time>
</trkpt>
<trkpt lat="43.47751" lon="3.684896">
<ele>68.7</ele>
<time>2013-05-08T06:29:30.999Z</time>
</trkpt>
<trkpt lat="43.477472" lon="3.684931">
<ele>68.6</ele>
<time>2013-05-08T06:29:31.999Z</time>
</trkpt>
<trkpt lat="43.477472" lon="3.684931">
<ele>64</ele>
<time>2013-05-08T06:30:30.999Z</time>
</trkpt>
<trkpt lat="43.477421" lon="3.684944">
<ele>63.9</ele>
<time>2013-05-08T06:30:31.999Z</time>
</trkpt>
<trkpt lat="43.477421" lon="3.684944">
<ele>63.9</ele>
<time>2013-05-08T06:30:32.999Z</time>
</trkpt>
<trkpt lat="43.477347" lon="3.684998">
<ele>64.4</ele>
<time>2013-05-08T06:30:33.999Z</time>
</trkpt>
<trkpt lat="43.477234" lon="3.685057">
<ele>65.6</ele>
<time>2013-05-08T06:30:34.999Z</time>
</trkpt>
<trkpt lat="43.477061" lon="3.685143">
<ele>66.3</ele>
<time>2013-05-08T06:30:35.999Z</time>
</trkpt>
<trkpt lat="43.476914" lon="3.685239">
<ele>66.6</ele>
<time>2013-05-08T06:30:36.999Z</time>
</trkpt>
<trkpt lat="43.476777" lon="3.685326">
<ele>67.1</ele>
<time>2013-05-08T06:30:37.999Z</time>
</trkpt>
<trkpt lat="43.476645" lon="3.685412">
<ele>67.6</ele>
<time>2013-05-08T06:30:38.999Z</time>
</trkpt>
<trkpt lat="43.476523" lon="3.685481">
<ele>67.8</ele>
<time>2013-05-08T06:30:39.999Z</time>
</trkpt>
<trkpt lat="43.476415" lon="3.685535">
<ele>67.9</ele>
<time>2013-05-08T06:30:40.999Z</time>
</trkpt>
<trkpt lat="43.476317" lon="3.685579">
<ele>67.9</ele>
<time>2013-05-08T06:30:41.999Z</time>
</trkpt>
<trkpt lat="43.476216" lon="3.685626">
<ele>67.9</ele>
<time>2013-05-08T06:30:42.999Z</time>
</trkpt>
<trkpt lat="43.476091" lon="3.685684">
<ele>68</ele>
<time>2013-05-08T06:30:43.999Z</time>
</trkpt>
<trkpt lat="43.475961" lon="3.685744">
<ele>68.1</ele>
<time>2013-05-08T06:30:44.999Z</time>
</trkpt>
<trkpt lat="43.475806" lon="3.685817">
<ele>68.1</ele>
<time>2013-05-08T06:30:45.999Z</time>
</trkpt>
<trkpt lat="43.475637" lon="3.685888">
<ele>68.2</ele>
<time>2013-05-08T06:30:46.999Z</time>
</trkpt>
<trkpt lat="43.475461" lon="3.685961">
<ele>68.3</ele>
<time>2013-05-08T06:30:47.999Z</time>
</trkpt>
<trkpt lat="43.475284" lon="3.68603">
<ele>68.4</ele>
<time>2013-05-08T06:30:48.999Z</time>
</trkpt>
<trkpt lat="43.47511" lon="3.686099">
<ele>68.4</ele>
<time>2013-05-08T06:30:49.999Z</time>
</trkpt>
<trkpt lat="43.474929" lon="3.686174">
<ele>68.3</ele>
<time>2013-05-08T06:30:50.999Z</time>
</trkpt>
<trkpt lat="43.474747" lon="3.68625">
<ele>68.3</ele>
<time>2013-05-08T06:30:51.999Z</time>
</trkpt>
<trkpt lat="43.474571" lon="3.686323">
<ele>68.4</ele>
<time>2013-05-08T06:30:52.999Z</time>
</trkpt>
<trkpt lat="43.474394" lon="3.686398">
<ele>68.5</ele>
<time>2013-05-08T06:30:53.999Z</time>
</trkpt>
<trkpt lat="43.474219" lon="3.686472">
<ele>68.7</ele>
<time>2013-05-08T06:30:54.999Z</time>
</trkpt>
<trkpt lat="43.474047" lon="3.686548">
<ele>68.8</ele>
<time>2013-05-08T06:30:55.999Z</time>
</trkpt>
<trkpt lat="43.473874" lon="3.686633">
<ele>68.9</ele>
<time>2013-05-08T06:30:56.999Z</time>
</trkpt>
<trkpt lat="43.4737" lon="3.686721">
<ele>68.9</ele>
<time>2013-05-08T06:30:57.999Z</time>
</trkpt>
<trkpt lat="43.473527" lon="3.686807">
<ele>68.9</ele>
<time>2013-05-08T06:30:58.999Z</time>
</trkpt>
<trkpt lat="43.473352" lon="3.686893">
<ele>68.8</ele>
<time>2013-05-08T06:30:59.999Z</time>
</trkpt>
<trkpt lat="43.473177" lon="3.686972">
<ele>68.9</ele>
<time>2013-05-08T06:31:00.999Z</time>
</trkpt>
<trkpt lat="43.473004" lon="3.687051">
<ele>69.1</ele>
<time>2013-05-08T06:31:01.999Z</time>
</trkpt>
<trkpt lat="43.472842" lon="3.687121">
<ele>69.5</ele>
<time>2013-05-08T06:31:02.999Z</time>
</trkpt>
<trkpt lat="43.472698" lon="3.687175">
<ele>69.4</ele>
<time>2013-05-08T06:31:03.999Z</time>
</trkpt>
<trkpt lat="43.472552" lon="3.687168">
<ele>68.9</ele>
<time>2013-05-08T06:31:04.999Z</time>
</trkpt>
<trkpt lat="43.472429" lon="3.687104">
<ele>68</ele>
<time>2013-05-08T06:31:05.999Z</time>
</trkpt>
<trkpt lat="43.47231" lon="3.686999">
<ele>67.5</ele>
<time>2013-05-08T06:31:06.999Z</time>
</trkpt>
<trkpt lat="43.472224" lon="3.686845">
<ele>67.2</ele>
<time>2013-05-08T06:31:07.999Z</time>
</trkpt>
<trkpt lat="43.472169" lon="3.686658">
<ele>66.8</ele>
<time>2013-05-08T06:31:08.999Z</time>
</trkpt>
<trkpt lat="43.472158" lon="3.686474">
<ele>66.2</ele>
<time>2013-05-08T06:31:09.999Z</time>
</trkpt>
<trkpt lat="43.47219" lon="3.686299">
<ele>65.6</ele>
<time>2013-05-08T06:31:10.999Z</time>
</trkpt>
<trkpt lat="43.472271" lon="3.686143">
<ele>65.2</ele>
<time>2013-05-08T06:31:11.999Z</time>
</trkpt>
<trkpt lat="43.472385" lon="3.686019">
<ele>64.6</ele>
<time>2013-05-08T06:31:12.999Z</time>
</trkpt>
<trkpt lat="43.472518" lon="3.685955">
<ele>64.2</ele>
<time>2013-05-08T06:31:13.999Z</time>
</trkpt>
<trkpt lat="43.472648" lon="3.685922">
<ele>64</ele>
<time>2013-05-08T06:31:14.999Z</time>
</trkpt>
<trkpt lat="43.472797" lon="3.685958">
<ele>63.7</ele>
<time>2013-05-08T06:31:15.999Z</time>
</trkpt>
<trkpt lat="43.472922" lon="3.68609">
<ele>63.4</ele>
<time>2013-05-08T06:31:16.999Z</time>
</trkpt>
<trkpt lat="43.473013" lon="3.686275">
<ele>62.9</ele>
<time>2013-05-08T06:31:17.999Z</time>
</trkpt>
<trkpt lat="43.473111" lon="3.686482">
<ele>62.5</ele>
<time>2013-05-08T06:31:18.999Z</time>
</trkpt>
<trkpt lat="43.4732" lon="3.686708">
<ele>62.2</ele>
<time>2013-05-08T06:31:19.999Z</time>
</trkpt>
<trkpt lat="43.473295" lon="3.686945">
<ele>62.2</ele>
<time>2013-05-08T06:31:20.999Z</time>
</trkpt>
<trkpt lat="43.473409" lon="3.687216">
<ele>62.1</ele>
<time>2013-05-08T06:31:21.999Z</time>
</trkpt>
<trkpt lat="43.473523" lon="3.687506">
<ele>62.4</ele>
<time>2013-05-08T06:31:22.999Z</time>
</trkpt>
<trkpt lat="43.473646" lon="3.687786">
<ele>62.8</ele>
<time>2013-05-08T06:31:23.999Z</time>
</trkpt>
<trkpt lat="43.473777" lon="3.688076">
<ele>63.3</ele>
<time>2013-05-08T06:31:24.999Z</time>
</trkpt>
<trkpt lat="43.473935" lon="3.688373">
<ele>63.7</ele>
<time>2013-05-08T06:31:25.999Z</time>
</trkpt>
<trkpt lat="43.474104" lon="3.688677">
<ele>64.2</ele>
<time>2013-05-08T06:31:26.999Z</time>
</trkpt>
<trkpt lat="43.474298" lon="3.688978">
<ele>64.9</ele>
<time>2013-05-08T06:31:27.999Z</time>
</trkpt>
<trkpt lat="43.47451" lon="3.689267">
<ele>65.5</ele>
<time>2013-05-08T06:31:28.999Z</time>
</trkpt>
<trkpt lat="43.474736" lon="3.689562">
<ele>66.3</ele>
<time>2013-05-08T06:31:29.999Z</time>
</trkpt>
<trkpt lat="43.474966" lon="3.689857">
<ele>66.9</ele>
<time>2013-05-08T06:31:30.999Z</time>
</trkpt>
<trkpt lat="43.47521" lon="3.690145">
<ele>67.3</ele>
<time>2013-05-08T06:31:31.999Z</time>
</trkpt>
<trkpt lat="43.475459" lon="3.69043">
<ele>68.1</ele>
<time>2013-05-08T06:31:32.999Z</time>
</trkpt>
<trkpt lat="43.475709" lon="3.690719">
<ele>68.9</ele>
<time>2013-05-08T06:31:33.999Z</time>
</trkpt>
<trkpt lat="43.475967" lon="3.691013">
<ele>69.7</ele>
<time>2013-05-08T06:31:34.999Z</time>
</trkpt>
<trkpt lat="43.476229" lon="3.691313">
<ele>70.1</ele>
<time>2013-05-08T06:31:35.999Z</time>
</trkpt>
<trkpt lat="43.47649" lon="3.691615">
<ele>70.3</ele>
<time>2013-05-08T06:31:36.999Z</time>
</trkpt>
<trkpt lat="43.47675" lon="3.691919">
<ele>70.5</ele>
<time>2013-05-08T06:31:37.999Z</time>
</trkpt>
<trkpt lat="43.477007" lon="3.692229">
<ele>70.5</ele>
<time>2013-05-08T06:31:38.999Z</time>
</trkpt>
<trkpt lat="43.477257" lon="3.692529">
<ele>70.5</ele>
<time>2013-05-08T06:31:39.999Z</time>
</trkpt>
<trkpt lat="43.477507" lon="3.692826">
<ele>70.6</ele>
<time>2013-05-08T06:31:40.999Z</time>
</trkpt>
<trkpt lat="43.477761" lon="3.693124">
<ele>70.9</ele>
<time>2013-05-08T06:31:41.999Z</time>
</trkpt>
<trkpt lat="43.478011" lon="3.693422">
<ele>71.2</ele>
<time>2013-05-08T06:31:42.999Z</time>
</trkpt>
<trkpt lat="43.478257" lon="3.693721">
<ele>71.4</ele>
<time>2013-05-08T06:31:43.999Z</time>
</trkpt>
<trkpt lat="43.4785" lon="3.694016">
<ele>71.6</ele>
<time>2013-05-08T06:31:44.999Z</time>
</trkpt>
<trkpt lat="43.478743" lon="3.694304">
<ele>71.7</ele>
<time>2013-05-08T06:31:45.999Z</time>
</trkpt>
<trkpt lat="43.478986" lon="3.694594">
<ele>71.5</ele>
<time>2013-05-08T06:31:46.999Z</time>
</trkpt>
<trkpt lat="43.479232" lon="3.694887">
<ele>71.1</ele>
<time>2013-05-08T06:31:47.999Z</time>
</trkpt>
<trkpt lat="43.479482" lon="3.695183">
<ele>70.8</ele>
<time>2013-05-08T06:31:48.999Z</time>
</trkpt>
<trkpt lat="43.479736" lon="3.695481">
<ele>70.6</ele>
<time>2013-05-08T06:31:49.999Z</time>
</trkpt>
<trkpt lat="43.47999" lon="3.695781">
<ele>70.4</ele>
<time>2013-05-08T06:31:50.999Z</time>
</trkpt>
<trkpt lat="43.48024" lon="3.696084">
<ele>70.2</ele>
<time>2013-05-08T06:31:51.999Z</time>
</trkpt>
<trkpt lat="43.480489" lon="3.696388">
<ele>69.8</ele>
<time>2013-05-08T06:31:52.999Z</time>
</trkpt>
<trkpt lat="43.480739" lon="3.69669">
<ele>69.4</ele>
<time>2013-05-08T06:31:53.999Z</time>
</trkpt>
<trkpt lat="43.480983" lon="3.696983">
<ele>69.3</ele>
<time>2013-05-08T06:31:54.999Z</time>
</trkpt>
<trkpt lat="43.48122" lon="3.697263">
<ele>69.2</ele>
<time>2013-05-08T06:31:55.999Z</time>
</trkpt>
<trkpt lat="43.481457" lon="3.697518">
<ele>69.5</ele>
<time>2013-05-08T06:31:56.999Z</time>
</trkpt>
<trkpt lat="43.481672" lon="3.697745">
<ele>69.7</ele>
<time>2013-05-08T06:31:57.999Z</time>
</trkpt>
<trkpt lat="43.481886" lon="3.697945">
<ele>69.7</ele>
<time>2013-05-08T06:31:58.999Z</time>
</trkpt>
<trkpt lat="43.482089" lon="3.698122">
<ele>69.4</ele>
<time>2013-05-08T06:31:59.999Z</time>
</trkpt>
<trkpt lat="43.482284" lon="3.698288">
<ele>69.1</ele>
<time>2013-05-08T06:32:00.999Z</time>
</trkpt>
<trkpt lat="43.482462" lon="3.698441">
<ele>68.8</ele>
<time>2013-05-08T06:32:01.999Z</time>
</trkpt>
<trkpt lat="43.482626" lon="3.698583">
<ele>68.6</ele>
<time>2013-05-08T06:32:02.999Z</time>
</trkpt>
<trkpt lat="43.482789" lon="3.698723">
<ele>68.7</ele>
<time>2013-05-08T06:32:03.999Z</time>
</trkpt>
<trkpt lat="43.482941" lon="3.698847">
<ele>68.8</ele>
<time>2013-05-08T06:32:04.999Z</time>
</trkpt>
<trkpt lat="43.483093" lon="3.698963">
<ele>68.9</ele>
<time>2013-05-08T06:32:05.999Z</time>
</trkpt>
<trkpt lat="43.483241" lon="3.699071">
<ele>68.7</ele>
<time>2013-05-08T06:32:06.999Z</time>
</trkpt>
<trkpt lat="43.483391" lon="3.699177">
<ele>68.5</ele>
<time>2013-05-08T06:32:07.999Z</time>
</trkpt>
<trkpt lat="43.483543" lon="3.699272">
<ele>68.3</ele>
<time>2013-05-08T06:32:08.999Z</time>
</trkpt>
<trkpt lat="43.483703" lon="3.699363">
<ele>68.5</ele>
<time>2013-05-08T06:32:09.999Z</time>
</trkpt>
<trkpt lat="43.483865" lon="3.699458">
<ele>68.9</ele>
<time>2013-05-08T06:32:10.999Z</time>
</trkpt>
<trkpt lat="43.484042" lon="3.699556">
<ele>69.9</ele>
<time>2013-05-08T06:32:11.999Z</time>
</trkpt>
<trkpt lat="43.484219" lon="3.699663">
<ele>71.1</ele>
<time>2013-05-08T06:32:12.999Z</time>
</trkpt>
<trkpt lat="43.484389" lon="3.699768">
<ele>72.3</ele>
<time>2013-05-08T06:32:13.999Z</time>
</trkpt>
<trkpt lat="43.484543" lon="3.699866">
<ele>73.5</ele>
<time>2013-05-08T06:32:14.999Z</time>
</trkpt>
<trkpt lat="43.484697" lon="3.699964">
<ele>74.5</ele>
<time>2013-05-08T06:32:15.999Z</time>
</trkpt>
<trkpt lat="43.484848" lon="3.700068">
<ele>75.2</ele>
<time>2013-05-08T06:32:16.999Z</time>
</trkpt>
<trkpt lat="43.485" lon="3.700172">
<ele>75.5</ele>
<time>2013-05-08T06:32:17.999Z</time>
</trkpt>
<trkpt lat="43.485154" lon="3.700276">
<ele>76</ele>
<time>2013-05-08T06:32:18.999Z</time>
</trkpt>
<trkpt lat="43.485308" lon="3.70038">
<ele>76.5</ele>
<time>2013-05-08T06:32:19.999Z</time>
</trkpt>
<trkpt lat="43.485465" lon="3.700484">
<ele>76.8</ele>
<time>2013-05-08T06:32:20.999Z</time>
</trkpt>
<trkpt lat="43.485629" lon="3.700595">
<ele>77.1</ele>
<time>2013-05-08T06:32:21.999Z</time>
</trkpt>
<trkpt lat="43.485788" lon="3.700707">
<ele>77.3</ele>
<time>2013-05-08T06:32:22.999Z</time>
</trkpt>
<trkpt lat="43.485947" lon="3.700815">
<ele>77.6</ele>
<time>2013-05-08T06:32:23.999Z</time>
</trkpt>
<trkpt lat="43.4861" lon="3.700941">
<ele>77.6</ele>
<time>2013-05-08T06:32:24.999Z</time>
</trkpt>
<trkpt lat="43.48626" lon="3.701065">
<ele>77.5</ele>
<time>2013-05-08T06:32:25.999Z</time>
</trkpt>
<trkpt lat="43.486426" lon="3.701191">
<ele>77.8</ele>
<time>2013-05-08T06:32:26.999Z</time>
</trkpt>
<trkpt lat="43.486597" lon="3.701312">
<ele>78.4</ele>
<time>2013-05-08T06:32:27.999Z</time>
</trkpt>
<trkpt lat="43.486769" lon="3.701435">
<ele>78.9</ele>
<time>2013-05-08T06:32:28.999Z</time>
</trkpt>
<trkpt lat="43.486943" lon="3.701567">
<ele>79.5</ele>
<time>2013-05-08T06:32:29.999Z</time>
</trkpt>
<trkpt lat="43.487121" lon="3.701713">
<ele>79.9</ele>
<time>2013-05-08T06:32:30.999Z</time>
</trkpt>
<trkpt lat="43.487296" lon="3.701859">
<ele>80.2</ele>
<time>2013-05-08T06:32:31.999Z</time>
</trkpt>
<trkpt lat="43.487469" lon="3.702016">
<ele>80.4</ele>
<time>2013-05-08T06:32:32.999Z</time>
</trkpt>
<trkpt lat="43.487645" lon="3.702183">
<ele>80.3</ele>
<time>2013-05-08T06:32:33.999Z</time>
</trkpt>
<trkpt lat="43.487818" lon="3.702356">
<ele>80.5</ele>
<time>2013-05-08T06:32:34.999Z</time>
</trkpt>
<trkpt lat="43.487992" lon="3.702532">
<ele>80.9</ele>
<time>2013-05-08T06:32:35.999Z</time>
</trkpt>
<trkpt lat="43.488152" lon="3.702712">
<ele>81.3</ele>
<time>2013-05-08T06:32:36.999Z</time>
</trkpt>
<trkpt lat="43.488302" lon="3.702891">
<ele>81.7</ele>
<time>2013-05-08T06:32:37.999Z</time>
</trkpt>
<trkpt lat="43.488445" lon="3.703059">
<ele>82</ele>
<time>2013-05-08T06:32:38.999Z</time>
</trkpt>
<trkpt lat="43.488582" lon="3.703222">
<ele>82.3</ele>
<time>2013-05-08T06:32:39.999Z</time>
</trkpt>
<trkpt lat="43.488705" lon="3.703374">
<ele>82.5</ele>
<time>2013-05-08T06:32:40.999Z</time>
</trkpt>
<trkpt lat="43.488822" lon="3.703513">
<ele>82.5</ele>
<time>2013-05-08T06:32:41.999Z</time>
</trkpt>
<trkpt lat="43.488935" lon="3.703658">
<ele>82.4</ele>
<time>2013-05-08T06:32:42.999Z</time>
</trkpt>
<trkpt lat="43.489039" lon="3.703792">
<ele>82.3</ele>
<time>2013-05-08T06:32:43.999Z</time>
</trkpt>
<trkpt lat="43.489131" lon="3.703921">
<ele>82.2</ele>
<time>2013-05-08T06:32:44.999Z</time>
</trkpt>
<trkpt lat="43.489219" lon="3.704055">
<ele>82.3</ele>
<time>2013-05-08T06:32:45.999Z</time>
</trkpt>
<trkpt lat="43.489272" lon="3.7042">
<ele>82.3</ele>
<time>2013-05-08T06:32:46.999Z</time>
</trkpt>
<trkpt lat="43.489292" lon="3.70434">
<ele>82.2</ele>
<time>2013-05-08T06:32:47.999Z</time>
</trkpt>
<trkpt lat="43.489308" lon="3.704465">
<ele>82.6</ele>
<time>2013-05-08T06:32:48.999Z</time>
</trkpt>
<trkpt lat="43.489312" lon="3.704529">
<ele>83</ele>
<time>2013-05-08T06:32:49.999Z</time>
</trkpt>
<trkpt lat="43.489264" lon="3.704561">
<ele>83</ele>
<time>2013-05-08T06:32:50.999Z</time>
</trkpt>
<trkpt lat="43.489225" lon="3.704583">
<ele>83.1</ele>
<time>2013-05-08T06:32:51.999Z</time>
</trkpt>
<trkpt lat="43.489182" lon="3.704599">
<ele>83.2</ele>
<time>2013-05-08T06:32:52.999Z</time>
</trkpt>
<trkpt lat="43.489121" lon="3.704641">
<ele>83.4</ele>
<time>2013-05-08T06:32:53.999Z</time>
</trkpt>
<trkpt lat="43.489063" lon="3.704696">
<ele>83.4</ele>
<time>2013-05-08T06:32:54.999Z</time>
</trkpt>
<trkpt lat="43.489025" lon="3.704756">
<ele>83.3</ele>
<time>2013-05-08T06:32:55.999Z</time>
</trkpt>
<trkpt lat="43.489013" lon="3.704809">
<ele>83.5</ele>
<time>2013-05-08T06:32:56.999Z</time>
</trkpt>
<trkpt lat="43.489012" lon="3.704845">
<ele>83.5</ele>
<time>2013-05-08T06:32:57.999Z</time>
</trkpt>
<trkpt lat="43.489006" lon="3.704891">
<ele>83.5</ele>
<time>2013-05-08T06:32:58.999Z</time>
</trkpt>
<trkpt lat="43.489008" lon="3.704931">
<ele>83.5</ele>
<time>2013-05-08T06:32:59.999Z</time>
</trkpt>
<trkpt lat="43.48905" lon="3.70494">
<ele>83.6</ele>
<time>2013-05-08T06:33:01.999Z</time>
</trkpt>
<trkpt lat="43.489058" lon="3.704926">
<ele>83.6</ele>
<time>2013-05-08T06:33:02.999Z</time>
</trkpt>
<trkpt lat="43.489036" lon="3.704875">
<ele>86.4</ele>
<time>2013-05-08T06:38:17.999Z</time>
</trkpt>
<trkpt lat="43.489036" lon="3.704866">
<ele>86.4</ele>
<time>2013-05-08T06:38:18.999Z</time>
</trkpt>
<trkpt lat="43.48904" lon="3.704923">
<ele>87.9</ele>
<time>2013-05-08T06:40:44.000Z</time>
</trkpt>
<trkpt lat="43.489038" lon="3.704928">
<ele>87.9</ele>
<time>2013-05-08T06:40:45.000Z</time>
</trkpt>
<trkpt lat="43.489078" lon="3.704911">
<ele>88.8</ele>
<time>2013-05-08T06:41:14.000Z</time>
</trkpt>
<trkpt lat="43.489081" lon="3.704908">
<ele>88.8</ele>
<time>2013-05-08T06:41:15.000Z</time>
</trkpt>
<trkpt lat="43.489122" lon="3.704913">
<ele>88.4</ele>
<time>2013-05-08T06:41:36.000Z</time>
</trkpt>
<trkpt lat="43.489126" lon="3.704909">
<ele>88.4</ele>
<time>2013-05-08T06:41:37.000Z</time>
</trkpt>
<trkpt lat="43.48914" lon="3.704851">
<ele>88.1</ele>
<time>2013-05-08T06:41:48.000Z</time>
</trkpt>
<trkpt lat="43.489141" lon="3.704846">
<ele>88</ele>
<time>2013-05-08T06:41:49.000Z</time>
</trkpt>
<trkpt lat="43.489097" lon="3.704854">
<ele>86.9</ele>
<time>2013-05-08T06:42:46.000Z</time>
</trkpt>
<trkpt lat="43.489094" lon="3.704853">
<ele>86.9</ele>
<time>2013-05-08T06:42:47.000Z</time>
</trkpt>
<trkpt lat="43.489052" lon="3.704871">
<ele>87</ele>
<time>2013-05-08T06:43:09.000Z</time>
</trkpt>
<trkpt lat="43.48905" lon="3.704872">
<ele>87</ele>
<time>2013-05-08T06:43:10.000Z</time>
</trkpt>
<trkpt lat="43.489008" lon="3.704893">
<ele>87.5</ele>
<time>2013-05-08T06:44:09.000Z</time>
</trkpt>
<trkpt lat="43.489004" lon="3.704895">
<ele>87.5</ele>
<time>2013-05-08T06:44:10.000Z</time>
</trkpt>
<trkpt lat="43.489047" lon="3.70488">
<ele>87.9</ele>
<time>2013-05-08T06:45:13.000Z</time>
</trkpt>
<trkpt lat="43.489049" lon="3.704882">
<ele>87.9</ele>
<time>2013-05-08T06:45:14.000Z</time>
</trkpt>
<trkpt lat="43.489083" lon="3.704843">
<ele>86.9</ele>
<time>2013-05-08T06:46:49.000Z</time>
</trkpt>
<trkpt lat="43.489085" lon="3.704844">
<ele>86.9</ele>
<time>2013-05-08T06:46:50.000Z</time>
</trkpt>
<trkpt lat="43.489122" lon="3.704811">
<ele>83.9</ele>
<time>2013-05-08T06:48:32.000Z</time>
</trkpt>
<trkpt lat="43.489122" lon="3.70481">
<ele>83.9</ele>
<time>2013-05-08T06:48:33.000Z</time>
</trkpt>
<trkpt lat="43.489087" lon="3.704847">
<ele>82.7</ele>
<time>2013-05-08T06:49:21.000Z</time>
</trkpt>
<trkpt lat="43.489085" lon="3.704849">
<ele>82.7</ele>
<time>2013-05-08T06:49:22.000Z</time>
</trkpt>
<trkpt lat="43.489041" lon="3.704861">
<ele>82.5</ele>
<time>2013-05-08T06:49:58.000Z</time>
</trkpt>
<trkpt lat="43.48904" lon="3.704863">
<ele>82.5</ele>
<time>2013-05-08T06:49:59.000Z</time>
</trkpt>
<trkpt lat="43.489052" lon="3.704808">
<ele>83.1</ele>
<time>2013-05-08T06:50:44.000Z</time>
</trkpt>
<trkpt lat="43.489056" lon="3.704798">
<ele>83.1</ele>
<time>2013-05-08T06:50:45.000Z</time>
</trkpt>
<trkpt lat="43.489069" lon="3.70476">
<ele>83.2</ele>
<time>2013-05-08T06:50:50.000Z</time>
</trkpt>
<trkpt lat="43.489104" lon="3.704741">
<ele>83.2</ele>
<time>2013-05-08T06:50:51.000Z</time>
</trkpt>
<trkpt lat="43.48913" lon="3.704722">
<ele>83.3</ele>
<time>2013-05-08T06:50:52.000Z</time>
</trkpt>
<trkpt lat="43.489165" lon="3.704703">
<ele>83.3</ele>
<time>2013-05-08T06:50:53.000Z</time>
</trkpt>
<trkpt lat="43.4892" lon="3.704682">
<ele>83.2</ele>
<time>2013-05-08T06:50:54.000Z</time>
</trkpt>
<trkpt lat="43.48925" lon="3.70467">
<ele>83.5</ele>
<time>2013-05-08T06:50:55.000Z</time>
</trkpt>
<trkpt lat="43.489318" lon="3.704679">
<ele>83.7</ele>
<time>2013-05-08T06:50:56.000Z</time>
</trkpt>
<trkpt lat="43.489388" lon="3.704686">
<ele>83.5</ele>
<time>2013-05-08T06:50:57.000Z</time>
</trkpt>
<trkpt lat="43.489474" lon="3.704744">
<ele>83.5</ele>
<time>2013-05-08T06:50:58.000Z</time>
</trkpt>
<trkpt lat="43.489561" lon="3.704801">
<ele>83.6</ele>
<time>2013-05-08T06:50:59.000Z</time>
</trkpt>
<trkpt lat="43.489636" lon="3.704844">
<ele>83.4</ele>
<time>2013-05-08T06:51:00.000Z</time>
</trkpt>
<trkpt lat="43.489719" lon="3.70486">
<ele>83.1</ele>
<time>2013-05-08T06:51:01.000Z</time>
</trkpt>
<trkpt lat="43.489809" lon="3.704844">
<ele>83</ele>
<time>2013-05-08T06:51:02.000Z</time>
</trkpt>
<trkpt lat="43.489903" lon="3.704787">
<ele>83</ele>
<time>2013-05-08T06:51:03.000Z</time>
</trkpt>
<trkpt lat="43.489968" lon="3.704684">
<ele>82.9</ele>
<time>2013-05-08T06:51:04.000Z</time>
</trkpt>
<trkpt lat="43.490026" lon="3.70456">
<ele>82.7</ele>
<time>2013-05-08T06:51:05.000Z</time>
</trkpt>
<trkpt lat="43.49005" lon="3.704396">
<ele>82.9</ele>
<time>2013-05-08T06:51:06.000Z</time>
</trkpt>
<trkpt lat="43.490046" lon="3.704253">
<ele>83.2</ele>
<time>2013-05-08T06:51:07.000Z</time>
</trkpt>
<trkpt lat="43.490035" lon="3.704107">
<ele>83.5</ele>
<time>2013-05-08T06:51:08.000Z</time>
</trkpt>
<trkpt lat="43.49" lon="3.703965">
<ele>83.6</ele>
<time>2013-05-08T06:51:09.000Z</time>
</trkpt>
<trkpt lat="43.489924" lon="3.703843">
<ele>83.8</ele>
<time>2013-05-08T06:51:10.000Z</time>
</trkpt>
<trkpt lat="43.489847" lon="3.703722">
<ele>83.6</ele>
<time>2013-05-08T06:51:11.000Z</time>
</trkpt>
<trkpt lat="43.489803" lon="3.703563">
<ele>82.9</ele>
<time>2013-05-08T06:51:12.000Z</time>
</trkpt>
<trkpt lat="43.489766" lon="3.703408">
<ele>82.4</ele>
<time>2013-05-08T06:51:13.000Z</time>
</trkpt>
<trkpt lat="43.489755" lon="3.703193">
<ele>81.6</ele>
<time>2013-05-08T06:51:14.000Z</time>
</trkpt>
<trkpt lat="43.489793" lon="3.702949">
<ele>80.9</ele>
<time>2013-05-08T06:51:15.000Z</time>
</trkpt>
<trkpt lat="43.489903" lon="3.702718">
<ele>80.3</ele>
<time>2013-05-08T06:51:16.000Z</time>
</trkpt>
<trkpt lat="43.490026" lon="3.702483">
<ele>79.7</ele>
<time>2013-05-08T06:51:17.000Z</time>
</trkpt>
<trkpt lat="43.49016" lon="3.702251">
<ele>78.8</ele>
<time>2013-05-08T06:51:18.000Z</time>
</trkpt>
<trkpt lat="43.490318" lon="3.702044">
<ele>77.9</ele>
<time>2013-05-08T06:51:19.000Z</time>
</trkpt>
<trkpt lat="43.490488" lon="3.701872">
<ele>77.2</ele>
<time>2013-05-08T06:51:20.000Z</time>
</trkpt>
<trkpt lat="43.490642" lon="3.701733">
<ele>76.9</ele>
<time>2013-05-08T06:51:21.000Z</time>
</trkpt>
<trkpt lat="43.490788" lon="3.701635">
<ele>76.9</ele>
<time>2013-05-08T06:51:22.000Z</time>
</trkpt>
<trkpt lat="43.490931" lon="3.701538">
<ele>76.9</ele>
<time>2013-05-08T06:51:23.000Z</time>
</trkpt>
<trkpt lat="43.491077" lon="3.701449">
<ele>76.8</ele>
<time>2013-05-08T06:51:24.000Z</time>
</trkpt>
<trkpt lat="43.491238" lon="3.701368">
<ele>77</ele>
<time>2013-05-08T06:51:25.000Z</time>
</trkpt>
<trkpt lat="43.491419" lon="3.701301">
<ele>77.2</ele>
<time>2013-05-08T06:51:26.000Z</time>
</trkpt>
<trkpt lat="43.491608" lon="3.701234">
<ele>77.7</ele>
<time>2013-05-08T06:51:27.000Z</time>
</trkpt>
<trkpt lat="43.491813" lon="3.701173">
<ele>77.9</ele>
<time>2013-05-08T06:51:28.000Z</time>
</trkpt>
<trkpt lat="43.492031" lon="3.701133">
<ele>78.1</ele>
<time>2013-05-08T06:51:29.000Z</time>
</trkpt>
<trkpt lat="43.492242" lon="3.701091">
<ele>78</ele>
<time>2013-05-08T06:51:30.000Z</time>
</trkpt>
<trkpt lat="43.492454" lon="3.701026">
<ele>77.7</ele>
<time>2013-05-08T06:51:31.000Z</time>
</trkpt>
<trkpt lat="43.492672" lon="3.700931">
<ele>77.3</ele>
<time>2013-05-08T06:51:32.000Z</time>
</trkpt>
<trkpt lat="43.492894" lon="3.700811">
<ele>77</ele>
<time>2013-05-08T06:51:33.000Z</time>
</trkpt>
<trkpt lat="43.493122" lon="3.700676">
<ele>76.6</ele>
<time>2013-05-08T06:51:34.000Z</time>
</trkpt>
<trkpt lat="43.493349" lon="3.700502">
<ele>76.6</ele>
<time>2013-05-08T06:51:35.000Z</time>
</trkpt>
<trkpt lat="43.493573" lon="3.700321">
<ele>76.7</ele>
<time>2013-05-08T06:51:36.000Z</time>
</trkpt>
<trkpt lat="43.49379" lon="3.70013">
<ele>76.9</ele>
<time>2013-05-08T06:51:37.000Z</time>
</trkpt>
<trkpt lat="43.493981" lon="3.699935">
<ele>76.5</ele>
<time>2013-05-08T06:51:38.000Z</time>
</trkpt>
<trkpt lat="43.494166" lon="3.699727">
<ele>76.3</ele>
<time>2013-05-08T06:51:39.000Z</time>
</trkpt>
<trkpt lat="43.494337" lon="3.699499">
<ele>76.3</ele>
<time>2013-05-08T06:51:40.000Z</time>
</trkpt>
<trkpt lat="43.494497" lon="3.699262">
<ele>76.3</ele>
<time>2013-05-08T06:51:41.000Z</time>
</trkpt>
<trkpt lat="43.49464" lon="3.699017">
<ele>76.3</ele>
<time>2013-05-08T06:51:42.000Z</time>
</trkpt>
<trkpt lat="43.494771" lon="3.69876">
<ele>76.4</ele>
<time>2013-05-08T06:51:43.000Z</time>
</trkpt>
<trkpt lat="43.494893" lon="3.698503">
<ele>76.4</ele>
<time>2013-05-08T06:51:44.000Z</time>
</trkpt>
<trkpt lat="43.495" lon="3.698245">
<ele>76.5</ele>
<time>2013-05-08T06:51:45.000Z</time>
</trkpt>
<trkpt lat="43.495103" lon="3.697985">
<ele>76.5</ele>
<time>2013-05-08T06:51:46.000Z</time>
</trkpt>
<trkpt lat="43.495196" lon="3.69771">
<ele>76.4</ele>
<time>2013-05-08T06:51:47.000Z</time>
</trkpt>
<trkpt lat="43.495286" lon="3.697434">
<ele>76.2</ele>
<time>2013-05-08T06:51:48.000Z</time>
</trkpt>
<trkpt lat="43.495372" lon="3.697159">
<ele>76.1</ele>
<time>2013-05-08T06:51:49.000Z</time>
</trkpt>
<trkpt lat="43.495459" lon="3.696881">
<ele>75.8</ele>
<time>2013-05-08T06:51:50.000Z</time>
</trkpt>
<trkpt lat="43.495547" lon="3.696602">
<ele>75.4</ele>
<time>2013-05-08T06:51:51.000Z</time>
</trkpt>
<trkpt lat="43.495628" lon="3.69632">
<ele>75.1</ele>
<time>2013-05-08T06:51:52.000Z</time>
</trkpt>
<trkpt lat="43.495709" lon="3.696039">
<ele>74.7</ele>
<time>2013-05-08T06:51:53.000Z</time>
</trkpt>
<trkpt lat="43.495802" lon="3.695747">
<ele>74.4</ele>
<time>2013-05-08T06:51:54.000Z</time>
</trkpt>
<trkpt lat="43.495901" lon="3.695438">
<ele>74.4</ele>
<time>2013-05-08T06:51:55.000Z</time>
</trkpt>
<trkpt lat="43.496005" lon="3.69511">
<ele>74.3</ele>
<time>2013-05-08T06:51:56.000Z</time>
</trkpt>
<trkpt lat="43.496113" lon="3.694769">
<ele>74.4</ele>
<time>2013-05-08T06:51:57.000Z</time>
</trkpt>
<trkpt lat="43.49622" lon="3.694417">
<ele>74.4</ele>
<time>2013-05-08T06:51:58.000Z</time>
</trkpt>
<trkpt lat="43.496328" lon="3.694066">
<ele>74.8</ele>
<time>2013-05-08T06:51:59.000Z</time>
</trkpt>
<trkpt lat="43.496435" lon="3.693713">
<ele>75.4</ele>
<time>2013-05-08T06:52:00.000Z</time>
</trkpt>
<trkpt lat="43.496538" lon="3.693362">
<ele>75.9</ele>
<time>2013-05-08T06:52:01.000Z</time>
</trkpt>
<trkpt lat="43.496639" lon="3.693024">
<ele>76.6</ele>
<time>2013-05-08T06:52:02.000Z</time>
</trkpt>
<trkpt lat="43.496739" lon="3.692698">
<ele>77.3</ele>
<time>2013-05-08T06:52:03.000Z</time>
</trkpt>
<trkpt lat="43.496839" lon="3.692372">
<ele>78.1</ele>
<time>2013-05-08T06:52:04.000Z</time>
</trkpt>
<trkpt lat="43.496939" lon="3.69205">
<ele>78.9</ele>
<time>2013-05-08T06:52:05.000Z</time>
</trkpt>
<trkpt lat="43.497038" lon="3.691732">
<ele>79.7</ele>
<time>2013-05-08T06:52:06.000Z</time>
</trkpt>
<trkpt lat="43.497139" lon="3.69142">
<ele>80.7</ele>
<time>2013-05-08T06:52:07.000Z</time>
</trkpt>
<trkpt lat="43.497241" lon="3.691106">
<ele>81.7</ele>
<time>2013-05-08T06:52:08.000Z</time>
</trkpt>
<trkpt lat="43.497344" lon="3.690785">
<ele>82.4</ele>
<time>2013-05-08T06:52:09.000Z</time>
</trkpt>
<trkpt lat="43.497447" lon="3.690462">
<ele>83.1</ele>
<time>2013-05-08T06:52:10.000Z</time>
</trkpt>
<trkpt lat="43.497551" lon="3.690134">
<ele>83.6</ele>
<time>2013-05-08T06:52:11.000Z</time>
</trkpt>
<trkpt lat="43.497655" lon="3.689803">
<ele>84.1</ele>
<time>2013-05-08T06:52:12.000Z</time>
</trkpt>
<trkpt lat="43.497759" lon="3.689473">
<ele>84.5</ele>
<time>2013-05-08T06:52:13.000Z</time>
</trkpt>
<trkpt lat="43.497863" lon="3.689146">
<ele>84.8</ele>
<time>2013-05-08T06:52:14.000Z</time>
</trkpt>
<trkpt lat="43.497967" lon="3.688821">
<ele>85.2</ele>
<time>2013-05-08T06:52:15.000Z</time>
</trkpt>
<trkpt lat="43.498072" lon="3.688494">
<ele>85.5</ele>
<time>2013-05-08T06:52:16.000Z</time>
</trkpt>
<trkpt lat="43.498177" lon="3.688166">
<ele>85.9</ele>
<time>2013-05-08T06:52:17.000Z</time>
</trkpt>
<trkpt lat="43.49828" lon="3.687837">
<ele>86.3</ele>
<time>2013-05-08T06:52:18.000Z</time>
</trkpt>
<trkpt lat="43.498379" lon="3.687503">
<ele>86.8</ele>
<time>2013-05-08T06:52:19.000Z</time>
</trkpt>
<trkpt lat="43.498471" lon="3.687165">
<ele>87.5</ele>
<time>2013-05-08T06:52:20.000Z</time>
</trkpt>
<trkpt lat="43.498559" lon="3.686828">
<ele>88.3</ele>
<time>2013-05-08T06:52:21.000Z</time>
</trkpt>
<trkpt lat="43.498639" lon="3.686489">
<ele>88.9</ele>
<time>2013-05-08T06:52:22.000Z</time>
</trkpt>
<trkpt lat="43.498716" lon="3.686169">
<ele>89.2</ele>
<time>2013-05-08T06:52:23.000Z</time>
</trkpt>
<trkpt lat="43.498794" lon="3.685853">
<ele>89.5</ele>
<time>2013-05-08T06:52:24.000Z</time>
</trkpt>
<trkpt lat="43.498899" lon="3.685559">
<ele>89.7</ele>
<time>2013-05-08T06:52:25.000Z</time>
</trkpt>
<trkpt lat="43.499017" lon="3.685269">
<ele>89.7</ele>
<time>2013-05-08T06:52:26.000Z</time>
</trkpt>
<trkpt lat="43.49917" lon="3.685011">
<ele>89.7</ele>
<time>2013-05-08T06:52:27.000Z</time>
</trkpt>
<trkpt lat="43.499352" lon="3.684778">
<ele>89.5</ele>
<time>2013-05-08T06:52:28.000Z</time>
</trkpt>
<trkpt lat="43.49956" lon="3.684585">
<ele>89.4</ele>
<time>2013-05-08T06:52:29.000Z</time>
</trkpt>
<trkpt lat="43.499789" lon="3.684428">
<ele>89.2</ele>
<time>2013-05-08T06:52:30.000Z</time>
</trkpt>
<trkpt lat="43.500031" lon="3.684305">
<ele>88.9</ele>
<time>2013-05-08T06:52:31.000Z</time>
</trkpt>
<trkpt lat="43.50027" lon="3.68419">
<ele>88.8</ele>
<time>2013-05-08T06:52:32.000Z</time>
</trkpt>
<trkpt lat="43.500512" lon="3.684085">
<ele>88.5</ele>
<time>2013-05-08T06:52:33.000Z</time>
</trkpt>
<trkpt lat="43.500761" lon="3.683974">
<ele>88.3</ele>
<time>2013-05-08T06:52:34.000Z</time>
</trkpt>
<trkpt lat="43.501003" lon="3.683866">
<ele>88.4</ele>
<time>2013-05-08T06:52:35.000Z</time>
</trkpt>
<trkpt lat="43.501242" lon="3.683756">
<ele>89</ele>
<time>2013-05-08T06:52:36.000Z</time>
</trkpt>
<trkpt lat="43.501475" lon="3.683644">
<ele>90</ele>
<time>2013-05-08T06:52:37.000Z</time>
</trkpt>
<trkpt lat="43.501701" lon="3.683551">
<ele>91</ele>
<time>2013-05-08T06:52:38.000Z</time>
</trkpt>
<trkpt lat="43.501926" lon="3.683478">
<ele>91.7</ele>
<time>2013-05-08T06:52:39.000Z</time>
</trkpt>
<trkpt lat="43.502149" lon="3.683436">
<ele>92.3</ele>
<time>2013-05-08T06:52:40.000Z</time>
</trkpt>
<trkpt lat="43.502365" lon="3.683421">
<ele>92.7</ele>
<time>2013-05-08T06:52:41.000Z</time>
</trkpt>
<trkpt lat="43.502589" lon="3.683424">
<ele>93</ele>
<time>2013-05-08T06:52:42.000Z</time>
</trkpt>
<trkpt lat="43.502819" lon="3.68345">
<ele>93.4</ele>
<time>2013-05-08T06:52:43.000Z</time>
</trkpt>
<trkpt lat="43.503058" lon="3.683502">
<ele>93.9</ele>
<time>2013-05-08T06:52:44.000Z</time>
</trkpt>
<trkpt lat="43.503289" lon="3.683572">
<ele>94.5</ele>
<time>2013-05-08T06:52:45.000Z</time>
</trkpt>
<trkpt lat="43.50353" lon="3.683659">
<ele>95.1</ele>
<time>2013-05-08T06:52:46.000Z</time>
</trkpt>
<trkpt lat="43.503773" lon="3.68375">
<ele>95.6</ele>
<time>2013-05-08T06:52:47.000Z</time>
</trkpt>
<trkpt lat="43.504013" lon="3.68384">
<ele>95.9</ele>
<time>2013-05-08T06:52:48.000Z</time>
</trkpt>
<trkpt lat="43.504253" lon="3.683907">
<ele>96.1</ele>
<time>2013-05-08T06:52:49.000Z</time>
</trkpt>
<trkpt lat="43.504493" lon="3.683955">
<ele>96.1</ele>
<time>2013-05-08T06:52:50.000Z</time>
</trkpt>
<trkpt lat="43.504741" lon="3.683991">
<ele>96.1</ele>
<time>2013-05-08T06:52:51.000Z</time>
</trkpt>
<trkpt lat="43.504994" lon="3.684016">
<ele>96</ele>
<time>2013-05-08T06:52:52.000Z</time>
</trkpt>
<trkpt lat="43.505256" lon="3.684032">
<ele>96.1</ele>
<time>2013-05-08T06:52:53.000Z</time>
</trkpt>
<trkpt lat="43.505519" lon="3.684049">
<ele>96.1</ele>
<time>2013-05-08T06:52:54.000Z</time>
</trkpt>
<trkpt lat="43.505786" lon="3.684067">
<ele>95.9</ele>
<time>2013-05-08T06:52:55.000Z</time>
</trkpt>
<trkpt lat="43.506045" lon="3.684078">
<ele>95.9</ele>
<time>2013-05-08T06:52:56.000Z</time>
</trkpt>
<trkpt lat="43.506295" lon="3.684088">
<ele>95.8</ele>
<time>2013-05-08T06:52:57.000Z</time>
</trkpt>
<trkpt lat="43.506537" lon="3.684101">
<ele>96.1</ele>
<time>2013-05-08T06:52:58.000Z</time>
</trkpt>
<trkpt lat="43.506771" lon="3.684113">
<ele>96.3</ele>
<time>2013-05-08T06:52:59.000Z</time>
</trkpt>
<trkpt lat="43.507005" lon="3.684123">
<ele>96.4</ele>
<time>2013-05-08T06:53:00.000Z</time>
</trkpt>
<trkpt lat="43.507242" lon="3.684134">
<ele>96.2</ele>
<time>2013-05-08T06:53:01.000Z</time>
</trkpt>
<trkpt lat="43.507479" lon="3.684146">
<ele>95.9</ele>
<time>2013-05-08T06:53:02.000Z</time>
</trkpt>
<trkpt lat="43.507716" lon="3.68416">
<ele>95.5</ele>
<time>2013-05-08T06:53:03.000Z</time>
</trkpt>
<trkpt lat="43.507953" lon="3.684173">
<ele>95.1</ele>
<time>2013-05-08T06:53:04.000Z</time>
</trkpt>
<trkpt lat="43.508196" lon="3.68418">
<ele>94.8</ele>
<time>2013-05-08T06:53:05.000Z</time>
</trkpt>
<trkpt lat="43.508437" lon="3.684189">
<ele>94.4</ele>
<time>2013-05-08T06:53:06.000Z</time>
</trkpt>
<trkpt lat="43.508675" lon="3.684185">
<ele>94</ele>
<time>2013-05-08T06:53:07.000Z</time>
</trkpt>
<trkpt lat="43.508907" lon="3.684172">
<ele>94</ele>
<time>2013-05-08T06:53:08.000Z</time>
</trkpt>
<trkpt lat="43.509138" lon="3.684137">
<ele>94.5</ele>
<time>2013-05-08T06:53:09.000Z</time>
</trkpt>
<trkpt lat="43.509365" lon="3.684086">
<ele>95.1</ele>
<time>2013-05-08T06:53:10.000Z</time>
</trkpt>
<trkpt lat="43.509587" lon="3.684016">
<ele>95.8</ele>
<time>2013-05-08T06:53:11.000Z</time>
</trkpt>
<trkpt lat="43.509807" lon="3.68393">
<ele>96.6</ele>
<time>2013-05-08T06:53:12.000Z</time>
</trkpt>
<trkpt lat="43.510028" lon="3.683829">
<ele>97.1</ele>
<time>2013-05-08T06:53:13.000Z</time>
</trkpt>
<trkpt lat="43.510253" lon="3.683715">
<ele>97.5</ele>
<time>2013-05-08T06:53:14.000Z</time>
</trkpt>
<trkpt lat="43.510484" lon="3.683582">
<ele>97.9</ele>
<time>2013-05-08T06:53:15.000Z</time>
</trkpt>
<trkpt lat="43.51071" lon="3.683432">
<ele>98.3</ele>
<time>2013-05-08T06:53:16.000Z</time>
</trkpt>
<trkpt lat="43.510943" lon="3.683259">
<ele>98.6</ele>
<time>2013-05-08T06:53:17.000Z</time>
</trkpt>
<trkpt lat="43.511176" lon="3.683065">
<ele>99</ele>
<time>2013-05-08T06:53:18.000Z</time>
</trkpt>
<trkpt lat="43.511408" lon="3.682846">
<ele>99</ele>
<time>2013-05-08T06:53:19.000Z</time>
</trkpt>
<trkpt lat="43.511636" lon="3.682606">
<ele>99.2</ele>
<time>2013-05-08T06:53:20.000Z</time>
</trkpt>
<trkpt lat="43.511854" lon="3.682343">
<ele>99.5</ele>
<time>2013-05-08T06:53:21.000Z</time>
</trkpt>
<trkpt lat="43.512057" lon="3.682067">
<ele>99.9</ele>
<time>2013-05-08T06:53:22.000Z</time>
</trkpt>
<trkpt lat="43.512249" lon="3.681775">
<ele>100</ele>
<time>2013-05-08T06:53:23.000Z</time>
</trkpt>
<trkpt lat="43.512424" lon="3.681478">
<ele>100.1</ele>
<time>2013-05-08T06:53:24.000Z</time>
</trkpt>
<trkpt lat="43.51258" lon="3.681174">
<ele>100.2</ele>
<time>2013-05-08T06:53:25.000Z</time>
</trkpt>
<trkpt lat="43.512717" lon="3.680866">
<ele>100.5</ele>
<time>2013-05-08T06:53:26.000Z</time>
</trkpt>
<trkpt lat="43.512832" lon="3.680551">
<ele>101.1</ele>
<time>2013-05-08T06:53:27.000Z</time>
</trkpt>
<trkpt lat="43.512935" lon="3.680246">
<ele>101.5</ele>
<time>2013-05-08T06:53:28.000Z</time>
</trkpt>
<trkpt lat="43.513014" lon="3.679941">
<ele>102.2</ele>
<time>2013-05-08T06:53:29.000Z</time>
</trkpt>
<trkpt lat="43.513079" lon="3.679629">
<ele>103.1</ele>
<time>2013-05-08T06:53:30.000Z</time>
</trkpt>
<trkpt lat="43.513132" lon="3.679308">
<ele>104.3</ele>
<time>2013-05-08T06:53:31.000Z</time>
</trkpt>
<trkpt lat="43.513177" lon="3.678988">
<ele>105.6</ele>
<time>2013-05-08T06:53:32.000Z</time>
</trkpt>
<trkpt lat="43.513213" lon="3.678669">
<ele>107</ele>
<time>2013-05-08T06:53:33.000Z</time>
</trkpt>
<trkpt lat="43.513251" lon="3.678366">
<ele>108.1</ele>
<time>2013-05-08T06:53:34.000Z</time>
</trkpt>
<trkpt lat="43.513289" lon="3.678071">
<ele>108.8</ele>
<time>2013-05-08T06:53:35.000Z</time>
</trkpt>
<trkpt lat="43.513321" lon="3.677777">
<ele>109.3</ele>
<time>2013-05-08T06:53:36.000Z</time>
</trkpt>
<trkpt lat="43.513351" lon="3.677485">
<ele>109.4</ele>
<time>2013-05-08T06:53:37.000Z</time>
</trkpt>
<trkpt lat="43.51338" lon="3.677183">
<ele>109.3</ele>
<time>2013-05-08T06:53:38.000Z</time>
</trkpt>
<trkpt lat="43.513406" lon="3.67687">
<ele>109.2</ele>
<time>2013-05-08T06:53:39.000Z</time>
</trkpt>
<trkpt lat="43.51343" lon="3.67654">
<ele>109.1</ele>
<time>2013-05-08T06:53:40.000Z</time>
</trkpt>
<trkpt lat="43.513453" lon="3.676202">
<ele>109</ele>
<time>2013-05-08T06:53:41.000Z</time>
</trkpt>
<trkpt lat="43.513475" lon="3.675865">
<ele>108.6</ele>
<time>2013-05-08T06:53:42.000Z</time>
</trkpt>
<trkpt lat="43.5135" lon="3.675539">
<ele>108.4</ele>
<time>2013-05-08T06:53:43.000Z</time>
</trkpt>
<trkpt lat="43.513529" lon="3.675219">
<ele>108.1</ele>
<time>2013-05-08T06:53:44.000Z</time>
</trkpt>
<trkpt lat="43.513557" lon="3.674901">
<ele>107.7</ele>
<time>2013-05-08T06:53:45.000Z</time>
</trkpt>
<trkpt lat="43.513587" lon="3.674585">
<ele>107.5</ele>
<time>2013-05-08T06:53:46.000Z</time>
</trkpt>
<trkpt lat="43.513618" lon="3.674262">
<ele>107.2</ele>
<time>2013-05-08T06:53:47.000Z</time>
</trkpt>
<trkpt lat="43.51365" lon="3.673934">
<ele>107</ele>
<time>2013-05-08T06:53:48.000Z</time>
</trkpt>
<trkpt lat="43.513688" lon="3.673608">
<ele>106.8</ele>
<time>2013-05-08T06:53:49.000Z</time>
</trkpt>
<trkpt lat="43.513724" lon="3.673279">
<ele>106.6</ele>
<time>2013-05-08T06:53:50.000Z</time>
</trkpt>
<trkpt lat="43.513757" lon="3.672948">
<ele>106.3</ele>
<time>2013-05-08T06:53:51.000Z</time>
</trkpt>
<trkpt lat="43.513792" lon="3.67262">
<ele>106.3</ele>
<time>2013-05-08T06:53:52.000Z</time>
</trkpt>
<trkpt lat="43.513827" lon="3.672287">
<ele>106.4</ele>
<time>2013-05-08T06:53:53.000Z</time>
</trkpt>
<trkpt lat="43.513848" lon="3.671954">
<ele>106.5</ele>
<time>2013-05-08T06:53:54.000Z</time>
</trkpt>
<trkpt lat="43.513852" lon="3.671623">
<ele>106.6</ele>
<time>2013-05-08T06:53:55.000Z</time>
</trkpt>
<trkpt lat="43.513837" lon="3.671291">
<ele>106.7</ele>
<time>2013-05-08T06:53:56.000Z</time>
</trkpt>
<trkpt lat="43.513802" lon="3.670962">
<ele>106.9</ele>
<time>2013-05-08T06:53:57.000Z</time>
</trkpt>
<trkpt lat="43.513751" lon="3.670647">
<ele>107.2</ele>
<time>2013-05-08T06:53:58.000Z</time>
</trkpt>
<trkpt lat="43.51368" lon="3.670335">
<ele>107.7</ele>
<time>2013-05-08T06:53:59.000Z</time>
</trkpt>
<trkpt lat="43.513596" lon="3.67004">
<ele>108.2</ele>
<time>2013-05-08T06:54:00.000Z</time>
</trkpt>
<trkpt lat="43.513502" lon="3.669752">
<ele>108.7</ele>
<time>2013-05-08T06:54:01.000Z</time>
</trkpt>
<trkpt lat="43.513407" lon="3.669471">
<ele>108.9</ele>
<time>2013-05-08T06:54:02.000Z</time>
</trkpt>
<trkpt lat="43.51331" lon="3.669184">
<ele>108.8</ele>
<time>2013-05-08T06:54:03.000Z</time>
</trkpt>
<trkpt lat="43.513227" lon="3.668895">
<ele>108.6</ele>
<time>2013-05-08T06:54:04.000Z</time>
</trkpt>
<trkpt lat="43.513167" lon="3.668601">
<ele>108.3</ele>
<time>2013-05-08T06:54:05.000Z</time>
</trkpt>
<trkpt lat="43.513129" lon="3.668318">
<ele>108.1</ele>
<time>2013-05-08T06:54:06.000Z</time>
</trkpt>
<trkpt lat="43.513095" lon="3.668034">
<ele>108.2</ele>
<time>2013-05-08T06:54:07.000Z</time>
</trkpt>
<trkpt lat="43.513071" lon="3.667754">
<ele>108.8</ele>
<time>2013-05-08T06:54:08.000Z</time>
</trkpt>
<trkpt lat="43.51306" lon="3.667487">
<ele>109.5</ele>
<time>2013-05-08T06:54:09.000Z</time>
</trkpt>
<trkpt lat="43.513051" lon="3.667231">
<ele>110.4</ele>
<time>2013-05-08T06:54:10.000Z</time>
</trkpt>
<trkpt lat="43.513044" lon="3.666979">
<ele>111.4</ele>
<time>2013-05-08T06:54:11.000Z</time>
</trkpt>
<trkpt lat="43.51303" lon="3.666745">
<ele>112.1</ele>
<time>2013-05-08T06:54:12.000Z</time>
</trkpt>
<trkpt lat="43.512985" lon="3.666525">
<ele>113</ele>
<time>2013-05-08T06:54:13.000Z</time>
</trkpt>
<trkpt lat="43.512933" lon="3.666315">
<ele>114.1</ele>
<time>2013-05-08T06:54:14.000Z</time>
</trkpt>
<trkpt lat="43.512849" lon="3.666115">
<ele>115.2</ele>
<time>2013-05-08T06:54:15.000Z</time>
</trkpt>
<trkpt lat="43.512753" lon="3.665908">
<ele>115.8</ele>
<time>2013-05-08T06:54:16.000Z</time>
</trkpt>
<trkpt lat="43.512649" lon="3.665697">
<ele>116.2</ele>
<time>2013-05-08T06:54:17.000Z</time>
</trkpt>
<trkpt lat="43.512551" lon="3.665489">
<ele>117</ele>
<time>2013-05-08T06:54:18.000Z</time>
</trkpt>
<trkpt lat="43.512463" lon="3.66528">
<ele>117.8</ele>
<time>2013-05-08T06:54:19.000Z</time>
</trkpt>
<trkpt lat="43.512403" lon="3.665057">
<ele>118.4</ele>
<time>2013-05-08T06:54:20.000Z</time>
</trkpt>
<trkpt lat="43.51237" lon="3.664846">
<ele>119.3</ele>
<time>2013-05-08T06:54:21.000Z</time>
</trkpt>
<trkpt lat="43.512353" lon="3.664626">
<ele>120.2</ele>
<time>2013-05-08T06:54:22.000Z</time>
</trkpt>
<trkpt lat="43.512373" lon="3.664411">
<ele>121.2</ele>
<time>2013-05-08T06:54:23.000Z</time>
</trkpt>
<trkpt lat="43.512395" lon="3.664199">
<ele>122.1</ele>
<time>2013-05-08T06:54:24.000Z</time>
</trkpt>
<trkpt lat="43.512432" lon="3.663983">
<ele>123</ele>
<time>2013-05-08T06:54:25.000Z</time>
</trkpt>
<trkpt lat="43.512513" lon="3.663762">
<ele>123.6</ele>
<time>2013-05-08T06:54:26.000Z</time>
</trkpt>
<trkpt lat="43.512605" lon="3.663542">
<ele>124.2</ele>
<time>2013-05-08T06:54:27.000Z</time>
</trkpt>
<trkpt lat="43.512707" lon="3.663331">
<ele>124.6</ele>
<time>2013-05-08T06:54:28.000Z</time>
</trkpt>
<trkpt lat="43.512819" lon="3.663106">
<ele>125</ele>
<time>2013-05-08T06:54:29.000Z</time>
</trkpt>
<trkpt lat="43.512945" lon="3.662892">
<ele>125.6</ele>
<time>2013-05-08T06:54:30.000Z</time>
</trkpt>
<trkpt lat="43.513046" lon="3.662669">
<ele>126.1</ele>
<time>2013-05-08T06:54:31.000Z</time>
</trkpt>
<trkpt lat="43.513141" lon="3.662443">
<ele>127.1</ele>
<time>2013-05-08T06:54:32.000Z</time>
</trkpt>
<trkpt lat="43.513204" lon="3.662214">
<ele>128.1</ele>
<time>2013-05-08T06:54:33.000Z</time>
</trkpt>
<trkpt lat="43.513233" lon="3.661967">
<ele>128.8</ele>
<time>2013-05-08T06:54:34.000Z</time>
</trkpt>
<trkpt lat="43.513233" lon="3.661716">
<ele>129.6</ele>
<time>2013-05-08T06:54:35.000Z</time>
</trkpt>
<trkpt lat="43.513223" lon="3.661476">
<ele>130.2</ele>
<time>2013-05-08T06:54:36.000Z</time>
</trkpt>
<trkpt lat="43.513169" lon="3.661223">
<ele>130.5</ele>
<time>2013-05-08T06:54:37.000Z</time>
</trkpt>
<trkpt lat="43.513102" lon="3.660954">
<ele>130.6</ele>
<time>2013-05-08T06:54:38.000Z</time>
</trkpt>
<trkpt lat="43.513002" lon="3.660694">
<ele>130.8</ele>
<time>2013-05-08T06:54:39.000Z</time>
</trkpt>
<trkpt lat="43.512863" lon="3.660422">
<ele>131</ele>
<time>2013-05-08T06:54:40.000Z</time>
</trkpt>
<trkpt lat="43.512707" lon="3.660133">
<ele>131.9</ele>
<time>2013-05-08T06:54:41.000Z</time>
</trkpt>
<trkpt lat="43.512553" lon="3.659812">
<ele>132.4</ele>
<time>2013-05-08T06:54:42.000Z</time>
</trkpt>
<trkpt lat="43.512408" lon="3.659502">
<ele>132.5</ele>
<time>2013-05-08T06:54:43.000Z</time>
</trkpt>
<trkpt lat="43.512275" lon="3.659206">
<ele>132.6</ele>
<time>2013-05-08T06:54:44.000Z</time>
</trkpt>
<trkpt lat="43.512151" lon="3.658912">
<ele>132.6</ele>
<time>2013-05-08T06:54:45.000Z</time>
</trkpt>
<trkpt lat="43.512035" lon="3.658624">
<ele>132.7</ele>
<time>2013-05-08T06:54:46.000Z</time>
</trkpt>
<trkpt lat="43.511933" lon="3.658347">
<ele>132.7</ele>
<time>2013-05-08T06:54:47.000Z</time>
</trkpt>
<trkpt lat="43.511844" lon="3.658085">
<ele>133</ele>
<time>2013-05-08T06:54:48.000Z</time>
</trkpt>
<trkpt lat="43.511757" lon="3.657829">
<ele>133.2</ele>
<time>2013-05-08T06:54:49.000Z</time>
</trkpt>
<trkpt lat="43.511675" lon="3.657593">
<ele>133.3</ele>
<time>2013-05-08T06:54:50.000Z</time>
</trkpt>
<trkpt lat="43.511599" lon="3.657364">
<ele>133.4</ele>
<time>2013-05-08T06:54:51.000Z</time>
</trkpt>
<trkpt lat="43.511521" lon="3.657124">
<ele>133.8</ele>
<time>2013-05-08T06:54:52.000Z</time>
</trkpt>
<trkpt lat="43.511458" lon="3.65687">
<ele>134</ele>
<time>2013-05-08T06:54:53.000Z</time>
</trkpt>
<trkpt lat="43.511416" lon="3.656622">
<ele>134</ele>
<time>2013-05-08T06:54:54.000Z</time>
</trkpt>
<trkpt lat="43.511381" lon="3.656364">
<ele>134.1</ele>
<time>2013-05-08T06:54:55.000Z</time>
</trkpt>
<trkpt lat="43.511349" lon="3.656088">
<ele>133.6</ele>
<time>2013-05-08T06:54:56.000Z</time>
</trkpt>
<trkpt lat="43.511301" lon="3.655796">
<ele>133.5</ele>
<time>2013-05-08T06:54:57.000Z</time>
</trkpt>
<trkpt lat="43.51123" lon="3.655477">
<ele>133.2</ele>
<time>2013-05-08T06:54:58.000Z</time>
</trkpt>
<trkpt lat="43.511124" lon="3.655153">
<ele>133.3</ele>
<time>2013-05-08T06:54:59.000Z</time>
</trkpt>
<trkpt lat="43.510994" lon="3.654853">
<ele>133.8</ele>
<time>2013-05-08T06:55:00.000Z</time>
</trkpt>
<trkpt lat="43.510871" lon="3.654555">
<ele>134.3</ele>
<time>2013-05-08T06:55:01.000Z</time>
</trkpt>
<trkpt lat="43.51078" lon="3.654245">
<ele>134.7</ele>
<time>2013-05-08T06:55:02.000Z</time>
</trkpt>
<trkpt lat="43.510725" lon="3.653903">
<ele>135.2</ele>
<time>2013-05-08T06:55:03.000Z</time>
</trkpt>
<trkpt lat="43.510715" lon="3.653574">
<ele>135.6</ele>
<time>2013-05-08T06:55:04.000Z</time>
</trkpt>
<trkpt lat="43.510742" lon="3.653217">
<ele>135.9</ele>
<time>2013-05-08T06:55:05.000Z</time>
</trkpt>
<trkpt lat="43.510762" lon="3.652841">
<ele>136</ele>
<time>2013-05-08T06:55:06.000Z</time>
</trkpt>
<trkpt lat="43.510733" lon="3.652465">
<ele>135.6</ele>
<time>2013-05-08T06:55:07.000Z</time>
</trkpt>
<trkpt lat="43.51067" lon="3.652097">
<ele>135</ele>
<time>2013-05-08T06:55:08.000Z</time>
</trkpt>
<trkpt lat="43.510603" lon="3.651726">
<ele>134.7</ele>
<time>2013-05-08T06:55:09.000Z</time>
</trkpt>
<trkpt lat="43.510504" lon="3.651386">
<ele>134.6</ele>
<time>2013-05-08T06:55:10.000Z</time>
</trkpt>
<trkpt lat="43.510328" lon="3.651086">
<ele>135.2</ele>
<time>2013-05-08T06:55:11.000Z</time>
</trkpt>
<trkpt lat="43.51016" lon="3.650783">
<ele>134.9</ele>
<time>2013-05-08T06:55:12.000Z</time>
</trkpt>
<trkpt lat="43.510006" lon="3.650468">
<ele>135.4</ele>
<time>2013-05-08T06:55:13.000Z</time>
</trkpt>
<trkpt lat="43.509884" lon="3.650129">
<ele>136.7</ele>
<time>2013-05-08T06:55:14.000Z</time>
</trkpt>
<trkpt lat="43.50984" lon="3.649768">
<ele>138</ele>
<time>2013-05-08T06:55:15.000Z</time>
</trkpt>
<trkpt lat="43.509849" lon="3.649397">
<ele>139.4</ele>
<time>2013-05-08T06:55:16.000Z</time>
</trkpt>
<trkpt lat="43.509889" lon="3.649041">
<ele>140.5</ele>
<time>2013-05-08T06:55:17.000Z</time>
</trkpt>
<trkpt lat="43.509958" lon="3.648686">
<ele>141.2</ele>
<time>2013-05-08T06:55:18.000Z</time>
</trkpt>
<trkpt lat="43.510082" lon="3.648332">
<ele>142.3</ele>
<time>2013-05-08T06:55:19.000Z</time>
</trkpt>
<trkpt lat="43.510203" lon="3.648002">
<ele>143.5</ele>
<time>2013-05-08T06:55:20.000Z</time>
</trkpt>
<trkpt lat="43.510329" lon="3.647679">
<ele>144.5</ele>
<time>2013-05-08T06:55:21.000Z</time>
</trkpt>
<trkpt lat="43.510398" lon="3.647339">
<ele>145.5</ele>
<time>2013-05-08T06:55:22.000Z</time>
</trkpt>
<trkpt lat="43.510442" lon="3.646975">
<ele>146.8</ele>
<time>2013-05-08T06:55:23.000Z</time>
</trkpt>
<trkpt lat="43.51047" lon="3.6466">
<ele>148.3</ele>
<time>2013-05-08T06:55:24.000Z</time>
</trkpt>
<trkpt lat="43.510482" lon="3.646221">
<ele>149.7</ele>
<time>2013-05-08T06:55:25.000Z</time>
</trkpt>
<trkpt lat="43.510484" lon="3.645844">
<ele>151</ele>
<time>2013-05-08T06:55:26.000Z</time>
</trkpt>
<trkpt lat="43.510485" lon="3.64549">
<ele>152.6</ele>
<time>2013-05-08T06:55:27.000Z</time>
</trkpt>
<trkpt lat="43.510457" lon="3.645135">
<ele>154.5</ele>
<time>2013-05-08T06:55:28.000Z</time>
</trkpt>
<trkpt lat="43.510403" lon="3.644785">
<ele>156.3</ele>
<time>2013-05-08T06:55:29.000Z</time>
</trkpt>
<trkpt lat="43.510331" lon="3.644429">
<ele>158.3</ele>
<time>2013-05-08T06:55:30.000Z</time>
</trkpt>
<trkpt lat="43.510257" lon="3.644061">
<ele>159.5</ele>
<time>2013-05-08T06:55:31.000Z</time>
</trkpt>
<trkpt lat="43.51021" lon="3.643697">
<ele>160.7</ele>
<time>2013-05-08T06:55:32.000Z</time>
</trkpt>
<trkpt lat="43.510179" lon="3.643337">
<ele>161.7</ele>
<time>2013-05-08T06:55:33.000Z</time>
</trkpt>
<trkpt lat="43.510152" lon="3.642976">
<ele>162.5</ele>
<time>2013-05-08T06:55:34.000Z</time>
</trkpt>
<trkpt lat="43.510135" lon="3.642611">
<ele>163.1</ele>
<time>2013-05-08T06:55:35.000Z</time>
</trkpt>
<trkpt lat="43.510124" lon="3.642238">
<ele>163.8</ele>
<time>2013-05-08T06:55:36.000Z</time>
</trkpt>
<trkpt lat="43.510121" lon="3.641872">
<ele>164.7</ele>
<time>2013-05-08T06:55:37.000Z</time>
</trkpt>
<trkpt lat="43.510161" lon="3.641492">
<ele>165.2</ele>
<time>2013-05-08T06:55:38.000Z</time>
</trkpt>
<trkpt lat="43.510193" lon="3.641104">
<ele>165.8</ele>
<time>2013-05-08T06:55:39.000Z</time>
</trkpt>
<trkpt lat="43.51022" lon="3.640713">
<ele>166.4</ele>
<time>2013-05-08T06:55:40.000Z</time>
</trkpt>
<trkpt lat="43.510243" lon="3.640322">
<ele>166.8</ele>
<time>2013-05-08T06:55:41.000Z</time>
</trkpt>
<trkpt lat="43.510266" lon="3.639929">
<ele>167</ele>
<time>2013-05-08T06:55:42.000Z</time>
</trkpt>
<trkpt lat="43.510286" lon="3.639534">
<ele>167.2</ele>
<time>2013-05-08T06:55:43.000Z</time>
</trkpt>
<trkpt lat="43.510306" lon="3.63915">
<ele>167.7</ele>
<time>2013-05-08T06:55:44.000Z</time>
</trkpt>
<trkpt lat="43.510323" lon="3.638792">
<ele>168.3</ele>
<time>2013-05-08T06:55:45.000Z</time>
</trkpt>
<trkpt lat="43.510339" lon="3.638467">
<ele>168.8</ele>
<time>2013-05-08T06:55:46.000Z</time>
</trkpt>
<trkpt lat="43.510354" lon="3.638157">
<ele>169.7</ele>
<time>2013-05-08T06:55:47.000Z</time>
</trkpt>
<trkpt lat="43.510369" lon="3.63786">
<ele>171</ele>
<time>2013-05-08T06:55:48.000Z</time>
</trkpt>
<trkpt lat="43.510382" lon="3.637558">
<ele>171.9</ele>
<time>2013-05-08T06:55:49.000Z</time>
</trkpt>
<trkpt lat="43.510389" lon="3.637261">
<ele>172.6</ele>
<time>2013-05-08T06:55:50.000Z</time>
</trkpt>
<trkpt lat="43.510391" lon="3.636975">
<ele>173.1</ele>
<time>2013-05-08T06:55:51.000Z</time>
</trkpt>
<trkpt lat="43.51038" lon="3.6367">
<ele>173.5</ele>
<time>2013-05-08T06:55:52.000Z</time>
</trkpt>
<trkpt lat="43.510342" lon="3.636428">
<ele>173.6</ele>
<time>2013-05-08T06:55:53.000Z</time>
</trkpt>
<trkpt lat="43.510252" lon="3.636159">
<ele>173.3</ele>
<time>2013-05-08T06:55:54.000Z</time>
</trkpt>
<trkpt lat="43.510154" lon="3.635906">
<ele>172.7</ele>
<time>2013-05-08T06:55:55.000Z</time>
</trkpt>
<trkpt lat="43.51" lon="3.635676">
<ele>172.3</ele>
<time>2013-05-08T06:55:56.000Z</time>
</trkpt>
<trkpt lat="43.509825" lon="3.635465">
<ele>171.8</ele>
<time>2013-05-08T06:55:57.000Z</time>
</trkpt>
<trkpt lat="43.509639" lon="3.635274">
<ele>170.7</ele>
<time>2013-05-08T06:55:58.000Z</time>
</trkpt>
<trkpt lat="43.509408" lon="3.635176">
<ele>169.6</ele>
<time>2013-05-08T06:55:59.000Z</time>
</trkpt>
<trkpt lat="43.509153" lon="3.6351">
<ele>168.7</ele>
<time>2013-05-08T06:56:00.000Z</time>
</trkpt>
<trkpt lat="43.508907" lon="3.635062">
<ele>168</ele>
<time>2013-05-08T06:56:01.000Z</time>
</trkpt>
<trkpt lat="43.508664" lon="3.635041">
<ele>167.4</ele>
<time>2013-05-08T06:56:02.000Z</time>
</trkpt>
<trkpt lat="43.508414" lon="3.635021">
<ele>166.7</ele>
<time>2013-05-08T06:56:03.000Z</time>
</trkpt>
<trkpt lat="43.508173" lon="3.634975">
<ele>165.9</ele>
<time>2013-05-08T06:56:04.000Z</time>
</trkpt>
<trkpt lat="43.507945" lon="3.634869">
<ele>164.9</ele>
<time>2013-05-08T06:56:05.000Z</time>
</trkpt>
<trkpt lat="43.507725" lon="3.634716">
<ele>163.5</ele>
<time>2013-05-08T06:56:06.000Z</time>
</trkpt>
<trkpt lat="43.507507" lon="3.634531">
<ele>162.1</ele>
<time>2013-05-08T06:56:07.000Z</time>
</trkpt>
<trkpt lat="43.507299" lon="3.634307">
<ele>160.3</ele>
<time>2013-05-08T06:56:08.000Z</time>
</trkpt>
<trkpt lat="43.507111" lon="3.634061">
<ele>158.3</ele>
<time>2013-05-08T06:56:09.000Z</time>
</trkpt>
<trkpt lat="43.506926" lon="3.63381">
<ele>156.2</ele>
<time>2013-05-08T06:56:10.000Z</time>
</trkpt>
<trkpt lat="43.506739" lon="3.633557">
<ele>153.7</ele>
<time>2013-05-08T06:56:11.000Z</time>
</trkpt>
<trkpt lat="43.506551" lon="3.6333">
<ele>151.3</ele>
<time>2013-05-08T06:56:12.000Z</time>
</trkpt>
<trkpt lat="43.506361" lon="3.633038">
<ele>149</ele>
<time>2013-05-08T06:56:13.000Z</time>
</trkpt>
<trkpt lat="43.506168" lon="3.632781">
<ele>146.7</ele>
<time>2013-05-08T06:56:14.000Z</time>
</trkpt>
<trkpt lat="43.505983" lon="3.632538">
<ele>144.7</ele>
<time>2013-05-08T06:56:15.000Z</time>
</trkpt>
<trkpt lat="43.505805" lon="3.632301">
<ele>143</ele>
<time>2013-05-08T06:56:16.000Z</time>
</trkpt>
<trkpt lat="43.505633" lon="3.632077">
<ele>141.5</ele>
<time>2013-05-08T06:56:17.000Z</time>
</trkpt>
<trkpt lat="43.505466" lon="3.631854">
<ele>140.2</ele>
<time>2013-05-08T06:56:18.000Z</time>
</trkpt>
<trkpt lat="43.505304" lon="3.631639">
<ele>139.1</ele>
<time>2013-05-08T06:56:19.000Z</time>
</trkpt>
<trkpt lat="43.505141" lon="3.631428">
<ele>138.2</ele>
<time>2013-05-08T06:56:20.000Z</time>
</trkpt>
<trkpt lat="43.504981" lon="3.631216">
<ele>137.3</ele>
<time>2013-05-08T06:56:21.000Z</time>
</trkpt>
<trkpt lat="43.504819" lon="3.631">
<ele>136.3</ele>
<time>2013-05-08T06:56:22.000Z</time>
</trkpt>
<trkpt lat="43.504655" lon="3.630788">
<ele>135.2</ele>
<time>2013-05-08T06:56:23.000Z</time>
</trkpt>
<trkpt lat="43.504485" lon="3.630574">
<ele>134.2</ele>
<time>2013-05-08T06:56:24.000Z</time>
</trkpt>
<trkpt lat="43.504312" lon="3.630357">
<ele>133.4</ele>
<time>2013-05-08T06:56:25.000Z</time>
</trkpt>
<trkpt lat="43.504129" lon="3.630127">
<ele>132.7</ele>
<time>2013-05-08T06:56:26.000Z</time>
</trkpt>
<trkpt lat="43.503947" lon="3.629903">
<ele>131.8</ele>
<time>2013-05-08T06:56:27.000Z</time>
</trkpt>
<trkpt lat="43.503768" lon="3.629684">
<ele>131.1</ele>
<time>2013-05-08T06:56:28.000Z</time>
</trkpt>
<trkpt lat="43.503596" lon="3.629473">
<ele>130.8</ele>
<time>2013-05-08T06:56:29.000Z</time>
</trkpt>
<trkpt lat="43.503424" lon="3.629258">
<ele>130.6</ele>
<time>2013-05-08T06:56:30.000Z</time>
</trkpt>
<trkpt lat="43.503254" lon="3.629041">
<ele>130.4</ele>
<time>2013-05-08T06:56:31.000Z</time>
</trkpt>
<trkpt lat="43.503085" lon="3.628823">
<ele>130.2</ele>
<time>2013-05-08T06:56:32.000Z</time>
</trkpt>
<trkpt lat="43.502913" lon="3.628604">
<ele>130.2</ele>
<time>2013-05-08T06:56:33.000Z</time>
</trkpt>
<trkpt lat="43.502734" lon="3.628377">
<ele>130.1</ele>
<time>2013-05-08T06:56:34.000Z</time>
</trkpt>
<trkpt lat="43.502554" lon="3.628147">
<ele>129.8</ele>
<time>2013-05-08T06:56:35.000Z</time>
</trkpt>
<trkpt lat="43.502375" lon="3.627918">
<ele>129.4</ele>
<time>2013-05-08T06:56:36.000Z</time>
</trkpt>
<trkpt lat="43.502207" lon="3.627681">
<ele>128.8</ele>
<time>2013-05-08T06:56:37.000Z</time>
</trkpt>
<trkpt lat="43.502061" lon="3.627434">
<ele>128.1</ele>
<time>2013-05-08T06:56:38.000Z</time>
</trkpt>
<trkpt lat="43.501926" lon="3.627176">
<ele>127.1</ele>
<time>2013-05-08T06:56:39.000Z</time>
</trkpt>
<trkpt lat="43.501797" lon="3.626891">
<ele>125.8</ele>
<time>2013-05-08T06:56:40.000Z</time>
</trkpt>
<trkpt lat="43.501694" lon="3.626595">
<ele>124.6</ele>
<time>2013-05-08T06:56:41.000Z</time>
</trkpt>
<trkpt lat="43.501622" lon="3.62628">
<ele>123.4</ele>
<time>2013-05-08T06:56:42.000Z</time>
</trkpt>
<trkpt lat="43.50162" lon="3.625954">
<ele>121.5</ele>
<time>2013-05-08T06:56:43.000Z</time>
</trkpt>
<trkpt lat="43.501614" lon="3.625629">
<ele>119.8</ele>
<time>2013-05-08T06:56:44.000Z</time>
</trkpt>
<trkpt lat="43.501604" lon="3.625292">
<ele>118.1</ele>
<time>2013-05-08T06:56:45.000Z</time>
</trkpt>
<trkpt lat="43.501599" lon="3.624951">
<ele>116.8</ele>
<time>2013-05-08T06:56:46.000Z</time>
</trkpt>
<trkpt lat="43.501594" lon="3.624622">
<ele>115.8</ele>
<time>2013-05-08T06:56:47.000Z</time>
</trkpt>
<trkpt lat="43.501587" lon="3.62429">
<ele>115.3</ele>
<time>2013-05-08T06:56:48.000Z</time>
</trkpt>
<trkpt lat="43.501574" lon="3.623967">
<ele>114.7</ele>
<time>2013-05-08T06:56:49.000Z</time>
</trkpt>
<trkpt lat="43.501545" lon="3.623647">
<ele>114</ele>
<time>2013-05-08T06:56:50.000Z</time>
</trkpt>
<trkpt lat="43.501507" lon="3.623344">
<ele>114.2</ele>
<time>2013-05-08T06:56:51.000Z</time>
</trkpt>
<trkpt lat="43.501454" lon="3.623069">
<ele>114.5</ele>
<time>2013-05-08T06:56:52.000Z</time>
</trkpt>
<trkpt lat="43.501399" lon="3.622798">
<ele>114.6</ele>
<time>2013-05-08T06:56:53.000Z</time>
</trkpt>
<trkpt lat="43.501341" lon="3.622521">
<ele>114.6</ele>
<time>2013-05-08T06:56:54.000Z</time>
</trkpt>
<trkpt lat="43.501285" lon="3.622236">
<ele>114.4</ele>
<time>2013-05-08T06:56:55.000Z</time>
</trkpt>
<trkpt lat="43.501251" lon="3.621941">
<ele>113</ele>
<time>2013-05-08T06:56:56.000Z</time>
</trkpt>
<trkpt lat="43.50124" lon="3.621638">
<ele>111.4</ele>
<time>2013-05-08T06:56:57.000Z</time>
</trkpt>
<trkpt lat="43.501223" lon="3.621335">
<ele>109.7</ele>
<time>2013-05-08T06:56:58.000Z</time>
</trkpt>
<trkpt lat="43.501237" lon="3.621019">
<ele>108.2</ele>
<time>2013-05-08T06:56:59.000Z</time>
</trkpt>
<trkpt lat="43.50128" lon="3.620712">
<ele>106.7</ele>
<time>2013-05-08T06:57:00.000Z</time>
</trkpt>
<trkpt lat="43.501329" lon="3.620377">
<ele>105.2</ele>
<time>2013-05-08T06:57:01.000Z</time>
</trkpt>
<trkpt lat="43.501371" lon="3.620038">
<ele>104.1</ele>
<time>2013-05-08T06:57:02.000Z</time>
</trkpt>
<trkpt lat="43.501413" lon="3.619708">
<ele>103.4</ele>
<time>2013-05-08T06:57:03.000Z</time>
</trkpt>
<trkpt lat="43.501455" lon="3.619388">
<ele>103.1</ele>
<time>2013-05-08T06:57:04.000Z</time>
</trkpt>
<trkpt lat="43.501501" lon="3.619075">
<ele>102.9</ele>
<time>2013-05-08T06:57:05.000Z</time>
</trkpt>
<trkpt lat="43.501544" lon="3.618766">
<ele>102.5</ele>
<time>2013-05-08T06:57:06.000Z</time>
</trkpt>
<trkpt lat="43.501583" lon="3.618451">
<ele>102.5</ele>
<time>2013-05-08T06:57:07.000Z</time>
</trkpt>
<trkpt lat="43.501617" lon="3.618139">
<ele>102.1</ele>
<time>2013-05-08T06:57:08.000Z</time>
</trkpt>
<trkpt lat="43.501641" lon="3.617826">
<ele>101.5</ele>
<time>2013-05-08T06:57:09.000Z</time>
</trkpt>
<trkpt lat="43.501651" lon="3.617512">
<ele>100.8</ele>
<time>2013-05-08T06:57:10.000Z</time>
</trkpt>
<trkpt lat="43.501645" lon="3.617203">
<ele>100.3</ele>
<time>2013-05-08T06:57:11.000Z</time>
</trkpt>
<trkpt lat="43.501631" lon="3.616898">
<ele>99.7</ele>
<time>2013-05-08T06:57:12.000Z</time>
</trkpt>
<trkpt lat="43.501597" lon="3.616598">
<ele>98.9</ele>
<time>2013-05-08T06:57:13.000Z</time>
</trkpt>
<trkpt lat="43.50155" lon="3.616299">
<ele>98.2</ele>
<time>2013-05-08T06:57:14.000Z</time>
</trkpt>
<trkpt lat="43.501495" lon="3.616">
<ele>97.5</ele>
<time>2013-05-08T06:57:15.000Z</time>
</trkpt>
<trkpt lat="43.50142" lon="3.615704">
<ele>97</ele>
<time>2013-05-08T06:57:16.000Z</time>
</trkpt>
<trkpt lat="43.501331" lon="3.615402">
<ele>96.5</ele>
<time>2013-05-08T06:57:17.000Z</time>
</trkpt>
<trkpt lat="43.501246" lon="3.615109">
<ele>95.9</ele>
<time>2013-05-08T06:57:18.000Z</time>
</trkpt>
<trkpt lat="43.501159" lon="3.614821">
<ele>94.9</ele>
<time>2013-05-08T06:57:19.000Z</time>
</trkpt>
<trkpt lat="43.501077" lon="3.61456">
<ele>93.9</ele>
<time>2013-05-08T06:57:20.000Z</time>
</trkpt>
<trkpt lat="43.501009" lon="3.614332">
<ele>93</ele>
<time>2013-05-08T06:57:21.000Z</time>
</trkpt>
<trkpt lat="43.500943" lon="3.614129">
<ele>92.3</ele>
<time>2013-05-08T06:57:22.000Z</time>
</trkpt>
<trkpt lat="43.50088" lon="3.613944">
<ele>91.8</ele>
<time>2013-05-08T06:57:23.000Z</time>
</trkpt>
<trkpt lat="43.500821" lon="3.613767">
<ele>91.6</ele>
<time>2013-05-08T06:57:24.000Z</time>
</trkpt>
<trkpt lat="43.500763" lon="3.613592">
<ele>91.5</ele>
<time>2013-05-08T06:57:25.000Z</time>
</trkpt>
<trkpt lat="43.50071" lon="3.613429">
<ele>91.5</ele>
<time>2013-05-08T06:57:26.000Z</time>
</trkpt>
<trkpt lat="43.500658" lon="3.613272">
<ele>91.7</ele>
<time>2013-05-08T06:57:27.000Z</time>
</trkpt>
<trkpt lat="43.500602" lon="3.613119">
<ele>91.8</ele>
<time>2013-05-08T06:57:28.000Z</time>
</trkpt>
<trkpt lat="43.50054" lon="3.612961">
<ele>92.1</ele>
<time>2013-05-08T06:57:29.000Z</time>
</trkpt>
<trkpt lat="43.500482" lon="3.612799">
<ele>92.8</ele>
<time>2013-05-08T06:57:30.000Z</time>
</trkpt>
<trkpt lat="43.500428" lon="3.612628">
<ele>93.4</ele>
<time>2013-05-08T06:57:31.000Z</time>
</trkpt>
<trkpt lat="43.500371" lon="3.612454">
<ele>93.8</ele>
<time>2013-05-08T06:57:32.000Z</time>
</trkpt>
<trkpt lat="43.50031" lon="3.61228">
<ele>94.6</ele>
<time>2013-05-08T06:57:33.000Z</time>
</trkpt>
<trkpt lat="43.500242" lon="3.612101">
<ele>95.3</ele>
<time>2013-05-08T06:57:34.000Z</time>
</trkpt>
<trkpt lat="43.50017" lon="3.611913">
<ele>95.7</ele>
<time>2013-05-08T06:57:35.000Z</time>
</trkpt>
<trkpt lat="43.500095" lon="3.611716">
<ele>96.1</ele>
<time>2013-05-08T06:57:36.000Z</time>
</trkpt>
<trkpt lat="43.500017" lon="3.611513">
<ele>96.3</ele>
<time>2013-05-08T06:57:37.000Z</time>
</trkpt>
<trkpt lat="43.499939" lon="3.611304">
<ele>96.8</ele>
<time>2013-05-08T06:57:38.000Z</time>
</trkpt>
<trkpt lat="43.499861" lon="3.611096">
<ele>97.1</ele>
<time>2013-05-08T06:57:39.000Z</time>
</trkpt>
<trkpt lat="43.499783" lon="3.610892">
<ele>97.4</ele>
<time>2013-05-08T06:57:40.000Z</time>
</trkpt>
<trkpt lat="43.499698" lon="3.610673">
<ele>97.8</ele>
<time>2013-05-08T06:57:41.000Z</time>
</trkpt>
<trkpt lat="43.499614" lon="3.610456">
<ele>98.5</ele>
<time>2013-05-08T06:57:42.000Z</time>
</trkpt>
<trkpt lat="43.499539" lon="3.610243">
<ele>99.2</ele>
<time>2013-05-08T06:57:43.000Z</time>
</trkpt>
<trkpt lat="43.499467" lon="3.610022">
<ele>99.4</ele>
<time>2013-05-08T06:57:44.000Z</time>
</trkpt>
<trkpt lat="43.4994" lon="3.609812">
<ele>99.6</ele>
<time>2013-05-08T06:57:45.000Z</time>
</trkpt>
<trkpt lat="43.49934" lon="3.609616">
<ele>100.3</ele>
<time>2013-05-08T06:57:46.000Z</time>
</trkpt>
<trkpt lat="43.499283" lon="3.609431">
<ele>101.8</ele>
<time>2013-05-08T06:57:47.000Z</time>
</trkpt>
<trkpt lat="43.499233" lon="3.609255">
<ele>103.4</ele>
<time>2013-05-08T06:57:48.000Z</time>
</trkpt>
<trkpt lat="43.499185" lon="3.60909">
<ele>105.2</ele>
<time>2013-05-08T06:57:49.000Z</time>
</trkpt>
<trkpt lat="43.499134" lon="3.60892">
<ele>106.4</ele>
<time>2013-05-08T06:57:50.000Z</time>
</trkpt>
<trkpt lat="43.499088" lon="3.608751">
<ele>107.8</ele>
<time>2013-05-08T06:57:51.000Z</time>
</trkpt>
<trkpt lat="43.499052" lon="3.608607">
<ele>109</ele>
<time>2013-05-08T06:57:52.000Z</time>
</trkpt>
<trkpt lat="43.49903" lon="3.608494">
<ele>109.5</ele>
<time>2013-05-08T06:57:53.000Z</time>
</trkpt>
<trkpt lat="43.499018" lon="3.608407">
<ele>109.9</ele>
<time>2013-05-08T06:57:54.000Z</time>
</trkpt>
<trkpt lat="43.499011" lon="3.60834">
<ele>110.2</ele>
<time>2013-05-08T06:57:55.000Z</time>
</trkpt>
<trkpt lat="43.499008" lon="3.608296">
<ele>110.2</ele>
<time>2013-05-08T06:57:56.000Z</time>
</trkpt>
<trkpt lat="43.499005" lon="3.608263">
<ele>110.2</ele>
<time>2013-05-08T06:57:57.000Z</time>
</trkpt>
<trkpt lat="43.499006" lon="3.60823">
<ele>110.2</ele>
<time>2013-05-08T06:57:58.000Z</time>
</trkpt>
<trkpt lat="43.499006" lon="3.608199">
<ele>110.1</ele>
<time>2013-05-08T06:57:59.000Z</time>
</trkpt>
<trkpt lat="43.499004" lon="3.608153">
<ele>110.1</ele>
<time>2013-05-08T06:58:00.000Z</time>
</trkpt>
<trkpt lat="43.499" lon="3.608077">
<ele>109.9</ele>
<time>2013-05-08T06:58:01.000Z</time>
</trkpt>
<trkpt lat="43.498993" lon="3.607982">
<ele>109.9</ele>
<time>2013-05-08T06:58:02.000Z</time>
</trkpt>
<trkpt lat="43.498986" lon="3.607877">
<ele>110.1</ele>
<time>2013-05-08T06:58:03.000Z</time>
</trkpt>
<trkpt lat="43.498979" lon="3.607767">
<ele>110.4</ele>
<time>2013-05-08T06:58:04.000Z</time>
</trkpt>
<trkpt lat="43.498971" lon="3.607656">
<ele>110.8</ele>
<time>2013-05-08T06:58:05.000Z</time>
</trkpt>
<trkpt lat="43.498969" lon="3.607538">
<ele>111</ele>
<time>2013-05-08T06:58:06.000Z</time>
</trkpt>
<trkpt lat="43.498961" lon="3.607417">
<ele>111.6</ele>
<time>2013-05-08T06:58:07.000Z</time>
</trkpt>
<trkpt lat="43.498969" lon="3.607268">
<ele>112</ele>
<time>2013-05-08T06:58:08.000Z</time>
</trkpt>
<trkpt lat="43.498988" lon="3.607121">
<ele>112.7</ele>
<time>2013-05-08T06:58:09.000Z</time>
</trkpt>
<trkpt lat="43.499022" lon="3.606965">
<ele>112.7</ele>
<time>2013-05-08T06:58:10.000Z</time>
</trkpt>
<trkpt lat="43.499052" lon="3.606817">
<ele>112.8</ele>
<time>2013-05-08T06:58:11.000Z</time>
</trkpt>
<trkpt lat="43.499076" lon="3.606675">
<ele>112.7</ele>
<time>2013-05-08T06:58:12.000Z</time>
</trkpt>
<trkpt lat="43.4991" lon="3.606542">
<ele>112.3</ele>
<time>2013-05-08T06:58:13.000Z</time>
</trkpt>
<trkpt lat="43.499127" lon="3.606412">
<ele>112</ele>
<time>2013-05-08T06:58:14.000Z</time>
</trkpt>
<trkpt lat="43.499151" lon="3.606292">
<ele>111.7</ele>
<time>2013-05-08T06:58:15.000Z</time>
</trkpt>
<trkpt lat="43.499174" lon="3.606174">
<ele>111.8</ele>
<time>2013-05-08T06:58:16.000Z</time>
</trkpt>
<trkpt lat="43.499201" lon="3.606052">
<ele>112.1</ele>
<time>2013-05-08T06:58:17.000Z</time>
</trkpt>
<trkpt lat="43.499231" lon="3.605934">
<ele>112.4</ele>
<time>2013-05-08T06:58:18.000Z</time>
</trkpt>
<trkpt lat="43.499281" lon="3.605845">
<ele>112.1</ele>
<time>2013-05-08T06:58:19.000Z</time>
</trkpt>
<trkpt lat="43.499337" lon="3.60576">
<ele>111.7</ele>
<time>2013-05-08T06:58:20.000Z</time>
</trkpt>
<trkpt lat="43.499401" lon="3.605673">
<ele>111.2</ele>
<time>2013-05-08T06:58:21.000Z</time>
</trkpt>
<trkpt lat="43.49947" lon="3.605588">
<ele>110.9</ele>
<time>2013-05-08T06:58:22.000Z</time>
</trkpt>
<trkpt lat="43.499549" lon="3.6055">
<ele>110.6</ele>
<time>2013-05-08T06:58:23.000Z</time>
</trkpt>
<trkpt lat="43.499627" lon="3.60542">
<ele>110.5</ele>
<time>2013-05-08T06:58:24.000Z</time>
</trkpt>
<trkpt lat="43.499703" lon="3.605342">
<ele>110.4</ele>
<time>2013-05-08T06:58:25.000Z</time>
</trkpt>
<trkpt lat="43.499776" lon="3.605266">
<ele>110.2</ele>
<time>2013-05-08T06:58:26.000Z</time>
</trkpt>
<trkpt lat="43.49985" lon="3.60519">
<ele>109.9</ele>
<time>2013-05-08T06:58:27.000Z</time>
</trkpt>
<trkpt lat="43.499913" lon="3.605119">
<ele>109.4</ele>
<time>2013-05-08T06:58:28.000Z</time>
</trkpt>
<trkpt lat="43.499967" lon="3.605056">
<ele>109.1</ele>
<time>2013-05-08T06:58:29.000Z</time>
</trkpt>
<trkpt lat="43.500009" lon="3.605008">
<ele>109.2</ele>
<time>2013-05-08T06:58:30.000Z</time>
</trkpt>
<trkpt lat="43.500038" lon="3.604984">
<ele>109.4</ele>
<time>2013-05-08T06:58:31.000Z</time>
</trkpt>
<trkpt lat="43.500063" lon="3.604961">
<ele>109.4</ele>
<time>2013-05-08T06:58:32.000Z</time>
</trkpt>
<trkpt lat="43.500095" lon="3.604927">
<ele>109.4</ele>
<time>2013-05-08T06:58:34.000Z</time>
</trkpt>
<trkpt lat="43.500112" lon="3.604911">
<ele>109.4</ele>
<time>2013-05-08T06:58:35.000Z</time>
</trkpt>
<trkpt lat="43.500123" lon="3.604902">
<ele>109.7</ele>
<time>2013-05-08T06:58:53.000Z</time>
</trkpt>
<trkpt lat="43.500127" lon="3.604846">
<ele>109.8</ele>
<time>2013-05-08T06:58:54.000Z</time>
</trkpt>
<trkpt lat="43.500167" lon="3.6048">
<ele>111.2</ele>
<time>2013-05-08T06:58:55.000Z</time>
</trkpt>
<trkpt lat="43.500213" lon="3.60475">
<ele>112.2</ele>
<time>2013-05-08T06:58:56.000Z</time>
</trkpt>
<trkpt lat="43.500258" lon="3.604702">
<ele>112.9</ele>
<time>2013-05-08T06:58:57.000Z</time>
</trkpt>
<trkpt lat="43.500294" lon="3.604664">
<ele>113.3</ele>
<time>2013-05-08T06:58:58.000Z</time>
</trkpt>
<trkpt lat="43.50033" lon="3.604623">
<ele>113.1</ele>
<time>2013-05-08T06:58:59.000Z</time>
</trkpt>
<trkpt lat="43.500353" lon="3.604566">
<ele>112.5</ele>
<time>2013-05-08T06:59:00.000Z</time>
</trkpt>
<trkpt lat="43.500374" lon="3.604505">
<ele>112</ele>
<time>2013-05-08T06:59:01.000Z</time>
</trkpt>
<trkpt lat="43.500376" lon="3.604439">
<ele>111.5</ele>
<time>2013-05-08T06:59:02.000Z</time>
</trkpt>
<trkpt lat="43.500356" lon="3.604347">
<ele>111</ele>
<time>2013-05-08T06:59:03.000Z</time>
</trkpt>
<trkpt lat="43.50033" lon="3.604234">
<ele>111.1</ele>
<time>2013-05-08T06:59:04.000Z</time>
</trkpt>
<trkpt lat="43.500286" lon="3.604102">
<ele>111.4</ele>
<time>2013-05-08T06:59:05.000Z</time>
</trkpt>
<trkpt lat="43.500238" lon="3.603954">
<ele>111.8</ele>
<time>2013-05-08T06:59:06.000Z</time>
</trkpt>
<trkpt lat="43.500185" lon="3.603804">
<ele>111.8</ele>
<time>2013-05-08T06:59:07.000Z</time>
</trkpt>
<trkpt lat="43.500133" lon="3.603661">
<ele>111.5</ele>
<time>2013-05-08T06:59:08.000Z</time>
</trkpt>
<trkpt lat="43.500086" lon="3.603515">
<ele>110.6</ele>
<time>2013-05-08T06:59:09.000Z</time>
</trkpt>
<trkpt lat="43.500046" lon="3.603383">
<ele>109.8</ele>
<time>2013-05-08T06:59:10.000Z</time>
</trkpt>
<trkpt lat="43.500015" lon="3.603247">
<ele>109.2</ele>
<time>2013-05-08T06:59:11.000Z</time>
</trkpt>
<trkpt lat="43.499986" lon="3.6031">
<ele>108.4</ele>
<time>2013-05-08T06:59:12.000Z</time>
</trkpt>
<trkpt lat="43.49996" lon="3.602951">
<ele>107.3</ele>
<time>2013-05-08T06:59:13.000Z</time>
</trkpt>
<trkpt lat="43.499953" lon="3.602785">
<ele>105.9</ele>
<time>2013-05-08T06:59:14.000Z</time>
</trkpt>
<trkpt lat="43.499955" lon="3.602623">
<ele>104.8</ele>
<time>2013-05-08T06:59:15.000Z</time>
</trkpt>
<trkpt lat="43.499969" lon="3.602446">
<ele>103.8</ele>
<time>2013-05-08T06:59:16.000Z</time>
</trkpt>
<trkpt lat="43.499989" lon="3.602286">
<ele>103.5</ele>
<time>2013-05-08T06:59:17.000Z</time>
</trkpt>
<trkpt lat="43.500015" lon="3.602118">
<ele>103.3</ele>
<time>2013-05-08T06:59:18.000Z</time>
</trkpt>
<trkpt lat="43.500038" lon="3.601949">
<ele>102.9</ele>
<time>2013-05-08T06:59:19.000Z</time>
</trkpt>
<trkpt lat="43.500059" lon="3.60178">
<ele>102.3</ele>
<time>2013-05-08T06:59:20.000Z</time>
</trkpt>
<trkpt lat="43.50007" lon="3.601626">
<ele>102.3</ele>
<time>2013-05-08T06:59:21.000Z</time>
</trkpt>
<trkpt lat="43.500073" lon="3.60148">
<ele>102.4</ele>
<time>2013-05-08T06:59:22.000Z</time>
</trkpt>
<trkpt lat="43.500067" lon="3.60133">
<ele>102.5</ele>
<time>2013-05-08T06:59:23.000Z</time>
</trkpt>
<trkpt lat="43.500053" lon="3.601186">
<ele>102.9</ele>
<time>2013-05-08T06:59:24.000Z</time>
</trkpt>
<trkpt lat="43.500037" lon="3.60107">
<ele>103.2</ele>
<time>2013-05-08T06:59:25.000Z</time>
</trkpt>
<trkpt lat="43.500018" lon="3.600962">
<ele>103.8</ele>
<time>2013-05-08T06:59:26.000Z</time>
</trkpt>
<trkpt lat="43.499997" lon="3.600857">
<ele>104.2</ele>
<time>2013-05-08T06:59:27.000Z</time>
</trkpt>
<trkpt lat="43.499979" lon="3.600764">
<ele>104.6</ele>
<time>2013-05-08T06:59:28.000Z</time>
</trkpt>
<trkpt lat="43.499959" lon="3.600667">
<ele>105</ele>
<time>2013-05-08T06:59:29.000Z</time>
</trkpt>
<trkpt lat="43.499937" lon="3.600557">
<ele>105.9</ele>
<time>2013-05-08T06:59:30.000Z</time>
</trkpt>
<trkpt lat="43.499908" lon="3.600419">
<ele>106.7</ele>
<time>2013-05-08T06:59:31.000Z</time>
</trkpt>
<trkpt lat="43.499881" lon="3.600274">
<ele>107.4</ele>
<time>2013-05-08T06:59:32.000Z</time>
</trkpt>
<trkpt lat="43.499858" lon="3.600141">
<ele>108.1</ele>
<time>2013-05-08T06:59:33.000Z</time>
</trkpt>
<trkpt lat="43.499836" lon="3.600015">
<ele>108.9</ele>
<time>2013-05-08T06:59:34.000Z</time>
</trkpt>
<trkpt lat="43.499817" lon="3.599901">
<ele>109.6</ele>
<time>2013-05-08T06:59:35.000Z</time>
</trkpt>
<trkpt lat="43.4998" lon="3.599803">
<ele>110.3</ele>
<time>2013-05-08T06:59:36.000Z</time>
</trkpt>
<trkpt lat="43.499785" lon="3.599708">
<ele>111</ele>
<time>2013-05-08T06:59:37.000Z</time>
</trkpt>
<trkpt lat="43.49977" lon="3.599598">
<ele>111.5</ele>
<time>2013-05-08T06:59:38.000Z</time>
</trkpt>
<trkpt lat="43.499749" lon="3.599455">
<ele>111.9</ele>
<time>2013-05-08T06:59:39.000Z</time>
</trkpt>
<trkpt lat="43.499729" lon="3.599322">
<ele>112.2</ele>
<time>2013-05-08T06:59:40.000Z</time>
</trkpt>
<trkpt lat="43.499707" lon="3.599186">
<ele>111.9</ele>
<time>2013-05-08T06:59:41.000Z</time>
</trkpt>
<trkpt lat="43.499687" lon="3.599053">
<ele>111.3</ele>
<time>2013-05-08T06:59:42.000Z</time>
</trkpt>
<trkpt lat="43.499663" lon="3.598923">
<ele>110.6</ele>
<time>2013-05-08T06:59:43.000Z</time>
</trkpt>
<trkpt lat="43.49964" lon="3.598808">
<ele>109.9</ele>
<time>2013-05-08T06:59:44.000Z</time>
</trkpt>
<trkpt lat="43.499622" lon="3.598711">
<ele>109.1</ele>
<time>2013-05-08T06:59:45.000Z</time>
</trkpt>
<trkpt lat="43.499601" lon="3.598607">
<ele>108.5</ele>
<time>2013-05-08T06:59:46.000Z</time>
</trkpt>
<trkpt lat="43.499573" lon="3.598478">
<ele>108</ele>
<time>2013-05-08T06:59:47.000Z</time>
</trkpt>
<trkpt lat="43.499542" lon="3.598344">
<ele>107.3</ele>
<time>2013-05-08T06:59:48.000Z</time>
</trkpt>
<trkpt lat="43.499507" lon="3.598199">
<ele>106.8</ele>
<time>2013-05-08T06:59:49.000Z</time>
</trkpt>
<trkpt lat="43.499471" lon="3.598048">
<ele>106.4</ele>
<time>2013-05-08T06:59:50.000Z</time>
</trkpt>
<trkpt lat="43.499436" lon="3.597906">
<ele>106.1</ele>
<time>2013-05-08T06:59:51.000Z</time>
</trkpt>
<trkpt lat="43.499405" lon="3.597782">
<ele>105.9</ele>
<time>2013-05-08T06:59:52.000Z</time>
</trkpt>
<trkpt lat="43.49938" lon="3.597676">
<ele>105.8</ele>
<time>2013-05-08T06:59:53.000Z</time>
</trkpt>
<trkpt lat="43.499359" lon="3.597586">
<ele>104.9</ele>
<time>2013-05-08T06:59:54.000Z</time>
</trkpt>
<trkpt lat="43.499332" lon="3.597473">
<ele>103.9</ele>
<time>2013-05-08T06:59:55.000Z</time>
</trkpt>
<trkpt lat="43.499299" lon="3.597333">
<ele>103.3</ele>
<time>2013-05-08T06:59:56.000Z</time>
</trkpt>
<trkpt lat="43.499255" lon="3.597142">
<ele>102.9</ele>
<time>2013-05-08T06:59:57.000Z</time>
</trkpt>
<trkpt lat="43.4992" lon="3.596893">
<ele>102.6</ele>
<time>2013-05-08T06:59:58.000Z</time>
</trkpt>
<trkpt lat="43.499136" lon="3.596613">
<ele>102.6</ele>
<time>2013-05-08T06:59:59.000Z</time>
</trkpt>
<trkpt lat="43.49907" lon="3.59631">
<ele>101.8</ele>
<time>2013-05-08T07:00:00.000Z</time>
</trkpt>
<trkpt lat="43.499023" lon="3.596005">
<ele>101</ele>
<time>2013-05-08T07:00:01.000Z</time>
</trkpt>
<trkpt lat="43.498975" lon="3.595704">
<ele>100.8</ele>
<time>2013-05-08T07:00:02.000Z</time>
</trkpt>
<trkpt lat="43.498924" lon="3.595419">
<ele>100.1</ele>
<time>2013-05-08T07:00:03.000Z</time>
</trkpt>
<trkpt lat="43.498876" lon="3.595161">
<ele>99.7</ele>
<time>2013-05-08T07:00:04.000Z</time>
</trkpt>
<trkpt lat="43.498826" lon="3.59491">
<ele>100</ele>
<time>2013-05-08T07:00:05.000Z</time>
</trkpt>
<trkpt lat="43.49878" lon="3.594687">
<ele>100.5</ele>
<time>2013-05-08T07:00:06.000Z</time>
</trkpt>
<trkpt lat="43.498735" lon="3.594471">
<ele>101.1</ele>
<time>2013-05-08T07:00:07.000Z</time>
</trkpt>
<trkpt lat="43.498688" lon="3.594256">
<ele>101.6</ele>
<time>2013-05-08T07:00:08.000Z</time>
</trkpt>
<trkpt lat="43.498641" lon="3.594043">
<ele>102.3</ele>
<time>2013-05-08T07:00:09.000Z</time>
</trkpt>
<trkpt lat="43.498593" lon="3.593824">
<ele>102.9</ele>
<time>2013-05-08T07:00:10.000Z</time>
</trkpt>
<trkpt lat="43.49855" lon="3.593603">
<ele>103.4</ele>
<time>2013-05-08T07:00:11.000Z</time>
</trkpt>
<trkpt lat="43.498508" lon="3.593374">
<ele>103.8</ele>
<time>2013-05-08T07:00:12.000Z</time>
</trkpt>
<trkpt lat="43.498475" lon="3.593159">
<ele>104.1</ele>
<time>2013-05-08T07:00:13.000Z</time>
</trkpt>
<trkpt lat="43.498447" lon="3.592954">
<ele>104.1</ele>
<time>2013-05-08T07:00:14.000Z</time>
</trkpt>
<trkpt lat="43.498429" lon="3.59276">
<ele>104.6</ele>
<time>2013-05-08T07:00:15.000Z</time>
</trkpt>
<trkpt lat="43.498426" lon="3.592577">
<ele>105.6</ele>
<time>2013-05-08T07:00:16.000Z</time>
</trkpt>
<trkpt lat="43.498429" lon="3.59239">
<ele>106.6</ele>
<time>2013-05-08T07:00:17.000Z</time>
</trkpt>
<trkpt lat="43.498437" lon="3.592199">
<ele>107.6</ele>
<time>2013-05-08T07:00:18.000Z</time>
</trkpt>
<trkpt lat="43.498445" lon="3.592006">
<ele>108.4</ele>
<time>2013-05-08T07:00:19.000Z</time>
</trkpt>
<trkpt lat="43.498451" lon="3.591819">
<ele>109</ele>
<time>2013-05-08T07:00:20.000Z</time>
</trkpt>
<trkpt lat="43.498459" lon="3.591647">
<ele>109.5</ele>
<time>2013-05-08T07:00:21.000Z</time>
</trkpt>
<trkpt lat="43.498466" lon="3.591495">
<ele>109.8</ele>
<time>2013-05-08T07:00:22.000Z</time>
</trkpt>
<trkpt lat="43.498476" lon="3.591352">
<ele>110</ele>
<time>2013-05-08T07:00:23.000Z</time>
</trkpt>
<trkpt lat="43.498506" lon="3.59121">
<ele>110.3</ele>
<time>2013-05-08T07:00:24.000Z</time>
</trkpt>
<trkpt lat="43.49854" lon="3.591076">
<ele>110.4</ele>
<time>2013-05-08T07:00:25.000Z</time>
</trkpt>
<trkpt lat="43.498576" lon="3.59095">
<ele>110.7</ele>
<time>2013-05-08T07:00:26.000Z</time>
</trkpt>
<trkpt lat="43.49857" lon="3.590825">
<ele>110.9</ele>
<time>2013-05-08T07:00:27.000Z</time>
</trkpt>
<trkpt lat="43.498539" lon="3.590697">
<ele>110.9</ele>
<time>2013-05-08T07:00:28.000Z</time>
</trkpt>
<trkpt lat="43.498467" lon="3.590605">
<ele>111.4</ele>
<time>2013-05-08T07:00:29.000Z</time>
</trkpt>
<trkpt lat="43.498386" lon="3.590527">
<ele>111.5</ele>
<time>2013-05-08T07:00:30.000Z</time>
</trkpt>
<trkpt lat="43.498289" lon="3.590436">
<ele>111.2</ele>
<time>2013-05-08T07:00:31.000Z</time>
</trkpt>
<trkpt lat="43.498196" lon="3.590272">
<ele>111.1</ele>
<time>2013-05-08T07:00:32.000Z</time>
</trkpt>
<trkpt lat="43.4981" lon="3.59009">
<ele>111</ele>
<time>2013-05-08T07:00:33.000Z</time>
</trkpt>
<trkpt lat="43.498" lon="3.589876">
<ele>110.9</ele>
<time>2013-05-08T07:00:34.000Z</time>
</trkpt>
<trkpt lat="43.497908" lon="3.589649">
<ele>110.9</ele>
<time>2013-05-08T07:00:35.000Z</time>
</trkpt>
<trkpt lat="43.497818" lon="3.589403">
<ele>111</ele>
<time>2013-05-08T07:00:36.000Z</time>
</trkpt>
<trkpt lat="43.497758" lon="3.58915">
<ele>111.4</ele>
<time>2013-05-08T07:00:37.000Z</time>
</trkpt>
<trkpt lat="43.49771" lon="3.588893">
<ele>111.6</ele>
<time>2013-05-08T07:00:38.000Z</time>
</trkpt>
<trkpt lat="43.497668" lon="3.588619">
<ele>112.1</ele>
<time>2013-05-08T07:00:39.000Z</time>
</trkpt>
<trkpt lat="43.497624" lon="3.588346">
<ele>112.8</ele>
<time>2013-05-08T07:00:40.000Z</time>
</trkpt>
<trkpt lat="43.49758" lon="3.588086">
<ele>113.4</ele>
<time>2013-05-08T07:00:41.000Z</time>
</trkpt>
<trkpt lat="43.497531" lon="3.587836">
<ele>113.8</ele>
<time>2013-05-08T07:00:42.000Z</time>
</trkpt>
<trkpt lat="43.497484" lon="3.58759">
<ele>114.1</ele>
<time>2013-05-08T07:00:43.000Z</time>
</trkpt>
<trkpt lat="43.497438" lon="3.587349">
<ele>114.4</ele>
<time>2013-05-08T07:00:44.000Z</time>
</trkpt>
<trkpt lat="43.497387" lon="3.587108">
<ele>114.9</ele>
<time>2013-05-08T07:00:45.000Z</time>
</trkpt>
<trkpt lat="43.497328" lon="3.586854">
<ele>115.3</ele>
<time>2013-05-08T07:00:46.000Z</time>
</trkpt>
<trkpt lat="43.497251" lon="3.586594">
<ele>115.2</ele>
<time>2013-05-08T07:00:47.000Z</time>
</trkpt>
<trkpt lat="43.49715" lon="3.586325">
<ele>115</ele>
<time>2013-05-08T07:00:48.000Z</time>
</trkpt>
<trkpt lat="43.497031" lon="3.586057">
<ele>114.8</ele>
<time>2013-05-08T07:00:49.000Z</time>
</trkpt>
<trkpt lat="43.496907" lon="3.585784">
<ele>114.2</ele>
<time>2013-05-08T07:00:50.000Z</time>
</trkpt>
<trkpt lat="43.49677" lon="3.585523">
<ele>113.8</ele>
<time>2013-05-08T07:00:51.000Z</time>
</trkpt>
<trkpt lat="43.496631" lon="3.585269">
<ele>113.5</ele>
<time>2013-05-08T07:00:52.000Z</time>
</trkpt>
<trkpt lat="43.496492" lon="3.585028">
<ele>113.4</ele>
<time>2013-05-08T07:00:53.000Z</time>
</trkpt>
<trkpt lat="43.496344" lon="3.5848">
<ele>113.3</ele>
<time>2013-05-08T07:00:54.000Z</time>
</trkpt>
<trkpt lat="43.496191" lon="3.584578">
<ele>113.4</ele>
<time>2013-05-08T07:00:55.000Z</time>
</trkpt>
<trkpt lat="43.496031" lon="3.584358">
<ele>113.5</ele>
<time>2013-05-08T07:00:56.000Z</time>
</trkpt>
<trkpt lat="43.495874" lon="3.584141">
<ele>113.7</ele>
<time>2013-05-08T07:00:57.000Z</time>
</trkpt>
<trkpt lat="43.495714" lon="3.583918">
<ele>114</ele>
<time>2013-05-08T07:00:58.000Z</time>
</trkpt>
<trkpt lat="43.495558" lon="3.583693">
<ele>114</ele>
<time>2013-05-08T07:00:59.000Z</time>
</trkpt>
<trkpt lat="43.495407" lon="3.583472">
<ele>113.6</ele>
<time>2013-05-08T07:01:00.000Z</time>
</trkpt>
<trkpt lat="43.49525" lon="3.583275">
<ele>113.2</ele>
<time>2013-05-08T07:01:01.000Z</time>
</trkpt>
<trkpt lat="43.495085" lon="3.583086">
<ele>112.9</ele>
<time>2013-05-08T07:01:02.000Z</time>
</trkpt>
<trkpt lat="43.494911" lon="3.582893">
<ele>112.4</ele>
<time>2013-05-08T07:01:03.000Z</time>
</trkpt>
<trkpt lat="43.494738" lon="3.582672">
<ele>111.5</ele>
<time>2013-05-08T07:01:04.000Z</time>
</trkpt>
<trkpt lat="43.494575" lon="3.582419">
<ele>110.5</ele>
<time>2013-05-08T07:01:05.000Z</time>
</trkpt>
<trkpt lat="43.494441" lon="3.582135">
<ele>109.6</ele>
<time>2013-05-08T07:01:06.000Z</time>
</trkpt>
<trkpt lat="43.49431" lon="3.581834">
<ele>108.5</ele>
<time>2013-05-08T07:01:07.000Z</time>
</trkpt>
<trkpt lat="43.494179" lon="3.581535">
<ele>106.9</ele>
<time>2013-05-08T07:01:08.000Z</time>
</trkpt>
<trkpt lat="43.494044" lon="3.581242">
<ele>105.3</ele>
<time>2013-05-08T07:01:09.000Z</time>
</trkpt>
<trkpt lat="43.493894" lon="3.580952">
<ele>103.8</ele>
<time>2013-05-08T07:01:10.000Z</time>
</trkpt>
<trkpt lat="43.493741" lon="3.580668">
<ele>102.5</ele>
<time>2013-05-08T07:01:11.000Z</time>
</trkpt>
<trkpt lat="43.493589" lon="3.580394">
<ele>101.6</ele>
<time>2013-05-08T07:01:12.000Z</time>
</trkpt>
<trkpt lat="43.493438" lon="3.580126">
<ele>101.1</ele>
<time>2013-05-08T07:01:13.000Z</time>
</trkpt>
<trkpt lat="43.493296" lon="3.579864">
<ele>100.8</ele>
<time>2013-05-08T07:01:14.000Z</time>
</trkpt>
<trkpt lat="43.493164" lon="3.579598">
<ele>100.8</ele>
<time>2013-05-08T07:01:15.000Z</time>
</trkpt>
<trkpt lat="43.49303" lon="3.579329">
<ele>100.9</ele>
<time>2013-05-08T07:01:16.000Z</time>
</trkpt>
<trkpt lat="43.492904" lon="3.579055">
<ele>100.9</ele>
<time>2013-05-08T07:01:17.000Z</time>
</trkpt>
<trkpt lat="43.492784" lon="3.578787">
<ele>100.9</ele>
<time>2013-05-08T07:01:18.000Z</time>
</trkpt>
<trkpt lat="43.492669" lon="3.578515">
<ele>101</ele>
<time>2013-05-08T07:01:19.000Z</time>
</trkpt>
<trkpt lat="43.492556" lon="3.578237">
<ele>101.4</ele>
<time>2013-05-08T07:01:20.000Z</time>
</trkpt>
<trkpt lat="43.492441" lon="3.577958">
<ele>102.1</ele>
<time>2013-05-08T07:01:21.000Z</time>
</trkpt>
<trkpt lat="43.492315" lon="3.577677">
<ele>103</ele>
<time>2013-05-08T07:01:22.000Z</time>
</trkpt>
<trkpt lat="43.492185" lon="3.577387">
<ele>104.2</ele>
<time>2013-05-08T07:01:23.000Z</time>
</trkpt>
<trkpt lat="43.492053" lon="3.577092">
<ele>105.6</ele>
<time>2013-05-08T07:01:24.000Z</time>
</trkpt>
<trkpt lat="43.491923" lon="3.5768">
<ele>107.1</ele>
<time>2013-05-08T07:01:25.000Z</time>
</trkpt>
<trkpt lat="43.491809" lon="3.576512">
<ele>108.3</ele>
<time>2013-05-08T07:01:26.000Z</time>
</trkpt>
<trkpt lat="43.491701" lon="3.576241">
<ele>109.6</ele>
<time>2013-05-08T07:01:27.000Z</time>
</trkpt>
<trkpt lat="43.491594" lon="3.57599">
<ele>110.8</ele>
<time>2013-05-08T07:01:28.000Z</time>
</trkpt>
<trkpt lat="43.491495" lon="3.575755">
<ele>111.9</ele>
<time>2013-05-08T07:01:29.000Z</time>
</trkpt>
<trkpt lat="43.491393" lon="3.575526">
<ele>112.8</ele>
<time>2013-05-08T07:01:30.000Z</time>
</trkpt>
<trkpt lat="43.491289" lon="3.575285">
<ele>113.5</ele>
<time>2013-05-08T07:01:31.000Z</time>
</trkpt>
<trkpt lat="43.491181" lon="3.575033">
<ele>113.9</ele>
<time>2013-05-08T07:01:32.000Z</time>
</trkpt>
<trkpt lat="43.491069" lon="3.574769">
<ele>114</ele>
<time>2013-05-08T07:01:33.000Z</time>
</trkpt>
<trkpt lat="43.490957" lon="3.574503">
<ele>114.1</ele>
<time>2013-05-08T07:01:34.000Z</time>
</trkpt>
<trkpt lat="43.490845" lon="3.574232">
<ele>114</ele>
<time>2013-05-08T07:01:35.000Z</time>
</trkpt>
<trkpt lat="43.490731" lon="3.573946">
<ele>114.1</ele>
<time>2013-05-08T07:01:36.000Z</time>
</trkpt>
<trkpt lat="43.490613" lon="3.573653">
<ele>114</ele>
<time>2013-05-08T07:01:37.000Z</time>
</trkpt>
<trkpt lat="43.490496" lon="3.573365">
<ele>113.9</ele>
<time>2013-05-08T07:01:38.000Z</time>
</trkpt>
<trkpt lat="43.490375" lon="3.573072">
<ele>113.8</ele>
<time>2013-05-08T07:01:39.000Z</time>
</trkpt>
<trkpt lat="43.490252" lon="3.572777">
<ele>113.7</ele>
<time>2013-05-08T07:01:40.000Z</time>
</trkpt>
<trkpt lat="43.49013" lon="3.572486">
<ele>113.6</ele>
<time>2013-05-08T07:01:41.000Z</time>
</trkpt>
<trkpt lat="43.490009" lon="3.572199">
<ele>113.5</ele>
<time>2013-05-08T07:01:42.000Z</time>
</trkpt>
<trkpt lat="43.489891" lon="3.571919">
<ele>113.5</ele>
<time>2013-05-08T07:01:43.000Z</time>
</trkpt>
<trkpt lat="43.489779" lon="3.571652">
<ele>113.5</ele>
<time>2013-05-08T07:01:44.000Z</time>
</trkpt>
<trkpt lat="43.489666" lon="3.571391">
<ele>113.3</ele>
<time>2013-05-08T07:01:45.000Z</time>
</trkpt>
<trkpt lat="43.489546" lon="3.571123">
<ele>113.3</ele>
<time>2013-05-08T07:01:46.000Z</time>
</trkpt>
<trkpt lat="43.489419" lon="3.570853">
<ele>113.2</ele>
<time>2013-05-08T07:01:47.000Z</time>
</trkpt>
<trkpt lat="43.489289" lon="3.57057">
<ele>113.2</ele>
<time>2013-05-08T07:01:48.000Z</time>
</trkpt>
<trkpt lat="43.489007" lon="3.570006">
<ele>113.8</ele>
<time>2013-05-08T07:01:50.000Z</time>
</trkpt>
<trkpt lat="43.488865" lon="3.569721">
<ele>114.1</ele>
<time>2013-05-08T07:01:51.000Z</time>
</trkpt>
<trkpt lat="43.488726" lon="3.569442">
<ele>114.5</ele>
<time>2013-05-08T07:01:52.000Z</time>
</trkpt>
<trkpt lat="43.488587" lon="3.569161">
<ele>114.9</ele>
<time>2013-05-08T07:01:53.000Z</time>
</trkpt>
<trkpt lat="43.488441" lon="3.568875">
<ele>115.3</ele>
<time>2013-05-08T07:01:54.000Z</time>
</trkpt>
<trkpt lat="43.488293" lon="3.568581">
<ele>115.4</ele>
<time>2013-05-08T07:01:55.000Z</time>
</trkpt>
<trkpt lat="43.488146" lon="3.568293">
<ele>115.5</ele>
<time>2013-05-08T07:01:56.000Z</time>
</trkpt>
<trkpt lat="43.488002" lon="3.568011">
<ele>115.5</ele>
<time>2013-05-08T07:01:57.000Z</time>
</trkpt>
<trkpt lat="43.48786" lon="3.567736">
<ele>116</ele>
<time>2013-05-08T07:01:58.000Z</time>
</trkpt>
<trkpt lat="43.487719" lon="3.567467">
<ele>116.9</ele>
<time>2013-05-08T07:01:59.000Z</time>
</trkpt>
<trkpt lat="43.487576" lon="3.567199">
<ele>118.2</ele>
<time>2013-05-08T07:02:00.000Z</time>
</trkpt>
<trkpt lat="43.487433" lon="3.566929">
<ele>119.5</ele>
<time>2013-05-08T07:02:01.000Z</time>
</trkpt>
<trkpt lat="43.487295" lon="3.566655">
<ele>120.5</ele>
<time>2013-05-08T07:02:02.000Z</time>
</trkpt>
<trkpt lat="43.487158" lon="3.566384">
<ele>121.3</ele>
<time>2013-05-08T07:02:03.000Z</time>
</trkpt>
<trkpt lat="43.487021" lon="3.566108">
<ele>121.9</ele>
<time>2013-05-08T07:02:04.000Z</time>
</trkpt>
<trkpt lat="43.486894" lon="3.565823">
<ele>122.4</ele>
<time>2013-05-08T07:02:05.000Z</time>
</trkpt>
<trkpt lat="43.486765" lon="3.565538">
<ele>122.9</ele>
<time>2013-05-08T07:02:06.000Z</time>
</trkpt>
<trkpt lat="43.486636" lon="3.565244">
<ele>123.2</ele>
<time>2013-05-08T07:02:07.000Z</time>
</trkpt>
<trkpt lat="43.486508" lon="3.564951">
<ele>123.4</ele>
<time>2013-05-08T07:02:08.000Z</time>
</trkpt>
<trkpt lat="43.486387" lon="3.564668">
<ele>123.5</ele>
<time>2013-05-08T07:02:09.000Z</time>
</trkpt>
<trkpt lat="43.486274" lon="3.564393">
<ele>123.5</ele>
<time>2013-05-08T07:02:10.000Z</time>
</trkpt>
<trkpt lat="43.486166" lon="3.564127">
<ele>123.8</ele>
<time>2013-05-08T07:02:11.000Z</time>
</trkpt>
<trkpt lat="43.486056" lon="3.563869">
<ele>124.4</ele>
<time>2013-05-08T07:02:12.000Z</time>
</trkpt>
<trkpt lat="43.485939" lon="3.56361">
<ele>125.1</ele>
<time>2013-05-08T07:02:13.000Z</time>
</trkpt>
<trkpt lat="43.485822" lon="3.56335">
<ele>125.6</ele>
<time>2013-05-08T07:02:14.000Z</time>
</trkpt>
<trkpt lat="43.485713" lon="3.563083">
<ele>126</ele>
<time>2013-05-08T07:02:15.000Z</time>
</trkpt>
<trkpt lat="43.485605" lon="3.562809">
<ele>126</ele>
<time>2013-05-08T07:02:16.000Z</time>
</trkpt>
<trkpt lat="43.485532" lon="3.562501">
<ele>125.4</ele>
<time>2013-05-08T07:02:17.000Z</time>
</trkpt>
<trkpt lat="43.485533" lon="3.56218">
<ele>124.7</ele>
<time>2013-05-08T07:02:18.000Z</time>
</trkpt>
<trkpt lat="43.485581" lon="3.561837">
<ele>124.3</ele>
<time>2013-05-08T07:02:19.000Z</time>
</trkpt>
<trkpt lat="43.485637" lon="3.561499">
<ele>124</ele>
<time>2013-05-08T07:02:20.000Z</time>
</trkpt>
<trkpt lat="43.485699" lon="3.561175">
<ele>124.3</ele>
<time>2013-05-08T07:02:21.000Z</time>
</trkpt>
<trkpt lat="43.485757" lon="3.560866">
<ele>124.7</ele>
<time>2013-05-08T07:02:22.000Z</time>
</trkpt>
<trkpt lat="43.485809" lon="3.560577">
<ele>125.3</ele>
<time>2013-05-08T07:02:23.000Z</time>
</trkpt>
<trkpt lat="43.485853" lon="3.560307">
<ele>126.1</ele>
<time>2013-05-08T07:02:24.000Z</time>
</trkpt>
<trkpt lat="43.485896" lon="3.560061">
<ele>126.9</ele>
<time>2013-05-08T07:02:25.000Z</time>
</trkpt>
<trkpt lat="43.485935" lon="3.559832">
<ele>127.8</ele>
<time>2013-05-08T07:02:26.000Z</time>
</trkpt>
<trkpt lat="43.485974" lon="3.55961">
<ele>128.8</ele>
<time>2013-05-08T07:02:27.000Z</time>
</trkpt>
<trkpt lat="43.486005" lon="3.559382">
<ele>129.7</ele>
<time>2013-05-08T07:02:28.000Z</time>
</trkpt>
<trkpt lat="43.486024" lon="3.559154">
<ele>130.7</ele>
<time>2013-05-08T07:02:29.000Z</time>
</trkpt>
<trkpt lat="43.486028" lon="3.558927">
<ele>131.6</ele>
<time>2013-05-08T07:02:30.000Z</time>
</trkpt>
<trkpt lat="43.48602" lon="3.558691">
<ele>132.3</ele>
<time>2013-05-08T07:02:31.000Z</time>
</trkpt>
<trkpt lat="43.485972" lon="3.558472">
<ele>132.8</ele>
<time>2013-05-08T07:02:32.000Z</time>
</trkpt>
<trkpt lat="43.485906" lon="3.558261">
<ele>133.2</ele>
<time>2013-05-08T07:02:33.000Z</time>
</trkpt>
<trkpt lat="43.485826" lon="3.55806">
<ele>133.4</ele>
<time>2013-05-08T07:02:34.000Z</time>
</trkpt>
<trkpt lat="43.485714" lon="3.557864">
<ele>134.4</ele>
<time>2013-05-08T07:02:35.000Z</time>
</trkpt>
<trkpt lat="43.485552" lon="3.557698">
<ele>135.2</ele>
<time>2013-05-08T07:02:36.000Z</time>
</trkpt>
<trkpt lat="43.485395" lon="3.557523">
<ele>135.7</ele>
<time>2013-05-08T07:02:37.000Z</time>
</trkpt>
<trkpt lat="43.485243" lon="3.557345">
<ele>136</ele>
<time>2013-05-08T07:02:38.000Z</time>
</trkpt>
<trkpt lat="43.485095" lon="3.557183">
<ele>135.8</ele>
<time>2013-05-08T07:02:39.000Z</time>
</trkpt>
<trkpt lat="43.484957" lon="3.557019">
<ele>135.5</ele>
<time>2013-05-08T07:02:40.000Z</time>
</trkpt>
<trkpt lat="43.484835" lon="3.55685">
<ele>135.8</ele>
<time>2013-05-08T07:02:41.000Z</time>
</trkpt>
<trkpt lat="43.484735" lon="3.55667">
<ele>135.9</ele>
<time>2013-05-08T07:02:42.000Z</time>
</trkpt>
<trkpt lat="43.484643" lon="3.556475">
<ele>136</ele>
<time>2013-05-08T07:02:43.000Z</time>
</trkpt>
<trkpt lat="43.484543" lon="3.556251">
<ele>136.6</ele>
<time>2013-05-08T07:02:44.000Z</time>
</trkpt>
<trkpt lat="43.484444" lon="3.55598">
<ele>137.2</ele>
<time>2013-05-08T07:02:45.000Z</time>
</trkpt>
<trkpt lat="43.484365" lon="3.555691">
<ele>137.7</ele>
<time>2013-05-08T07:02:46.000Z</time>
</trkpt>
<trkpt lat="43.484285" lon="3.555404">
<ele>138.3</ele>
<time>2013-05-08T07:02:47.000Z</time>
</trkpt>
<trkpt lat="43.484209" lon="3.5551">
<ele>138.6</ele>
<time>2013-05-08T07:02:48.000Z</time>
</trkpt>
<trkpt lat="43.484064" lon="3.554421">
<ele>138.7</ele>
<time>2013-05-08T07:02:50.000Z</time>
</trkpt>
<trkpt lat="43.483997" lon="3.554107">
<ele>139.6</ele>
<time>2013-05-08T07:02:51.000Z</time>
</trkpt>
<trkpt lat="43.483933" lon="3.553778">
<ele>140.6</ele>
<time>2013-05-08T07:02:52.000Z</time>
</trkpt>
<trkpt lat="43.48387" lon="3.55346">
<ele>141.7</ele>
<time>2013-05-08T07:02:53.000Z</time>
</trkpt>
<trkpt lat="43.483819" lon="3.553133">
<ele>142.3</ele>
<time>2013-05-08T07:02:54.000Z</time>
</trkpt>
<trkpt lat="43.483781" lon="3.552804">
<ele>142.5</ele>
<time>2013-05-08T07:02:55.000Z</time>
</trkpt>
<trkpt lat="43.483778" lon="3.552476">
<ele>143</ele>
<time>2013-05-08T07:02:56.000Z</time>
</trkpt>
<trkpt lat="43.483789" lon="3.552148">
<ele>143.6</ele>
<time>2013-05-08T07:02:57.000Z</time>
</trkpt>
<trkpt lat="43.483797" lon="3.551823">
<ele>144.4</ele>
<time>2013-05-08T07:02:58.000Z</time>
</trkpt>
<trkpt lat="43.483785" lon="3.551507">
<ele>145.8</ele>
<time>2013-05-08T07:02:59.000Z</time>
</trkpt>
<trkpt lat="43.483751" lon="3.551216">
<ele>147.6</ele>
<time>2013-05-08T07:03:00.000Z</time>
</trkpt>
<trkpt lat="43.483692" lon="3.550936">
<ele>149.6</ele>
<time>2013-05-08T07:03:01.000Z</time>
</trkpt>
<trkpt lat="43.483619" lon="3.550648">
<ele>151.3</ele>
<time>2013-05-08T07:03:02.000Z</time>
</trkpt>
<trkpt lat="43.483537" lon="3.550367">
<ele>153</ele>
<time>2013-05-08T07:03:03.000Z</time>
</trkpt>
<trkpt lat="43.483451" lon="3.550092">
<ele>154.6</ele>
<time>2013-05-08T07:03:04.000Z</time>
</trkpt>
<trkpt lat="43.483366" lon="3.549818">
<ele>156.2</ele>
<time>2013-05-08T07:03:05.000Z</time>
</trkpt>
<trkpt lat="43.483284" lon="3.549554">
<ele>157.9</ele>
<time>2013-05-08T07:03:06.000Z</time>
</trkpt>
<trkpt lat="43.483203" lon="3.549293">
<ele>159.7</ele>
<time>2013-05-08T07:03:07.000Z</time>
</trkpt>
<trkpt lat="43.483117" lon="3.549028">
<ele>161.5</ele>
<time>2013-05-08T07:03:08.000Z</time>
</trkpt>
<trkpt lat="43.483033" lon="3.548756">
<ele>162.7</ele>
<time>2013-05-08T07:03:09.000Z</time>
</trkpt>
<trkpt lat="43.482976" lon="3.548477">
<ele>164</ele>
<time>2013-05-08T07:03:10.000Z</time>
</trkpt>
<trkpt lat="43.482936" lon="3.548181">
<ele>165.1</ele>
<time>2013-05-08T07:03:11.000Z</time>
</trkpt>
<trkpt lat="43.482935" lon="3.547881">
<ele>166.3</ele>
<time>2013-05-08T07:03:12.000Z</time>
</trkpt>
<trkpt lat="43.482956" lon="3.547598">
<ele>167.4</ele>
<time>2013-05-08T07:03:13.000Z</time>
</trkpt>
<trkpt lat="43.482998" lon="3.547309">
<ele>168.5</ele>
<time>2013-05-08T07:03:14.000Z</time>
</trkpt>
<trkpt lat="43.483074" lon="3.54702">
<ele>169.6</ele>
<time>2013-05-08T07:03:15.000Z</time>
</trkpt>
<trkpt lat="43.483174" lon="3.546733">
<ele>170.7</ele>
<time>2013-05-08T07:03:16.000Z</time>
</trkpt>
<trkpt lat="43.483273" lon="3.546444">
<ele>171.7</ele>
<time>2013-05-08T07:03:17.000Z</time>
</trkpt>
<trkpt lat="43.483372" lon="3.546149">
<ele>172.4</ele>
<time>2013-05-08T07:03:18.000Z</time>
</trkpt>
<trkpt lat="43.483469" lon="3.545847">
<ele>172.6</ele>
<time>2013-05-08T07:03:19.000Z</time>
</trkpt>
<trkpt lat="43.483569" lon="3.545559">
<ele>172.9</ele>
<time>2013-05-08T07:03:20.000Z</time>
</trkpt>
<trkpt lat="43.483647" lon="3.545267">
<ele>173.3</ele>
<time>2013-05-08T07:03:21.000Z</time>
</trkpt>
<trkpt lat="43.483696" lon="3.544966">
<ele>173.8</ele>
<time>2013-05-08T07:03:22.000Z</time>
</trkpt>
<trkpt lat="43.483729" lon="3.544664">
<ele>174.8</ele>
<time>2013-05-08T07:03:23.000Z</time>
</trkpt>
<trkpt lat="43.483737" lon="3.544365">
<ele>175.8</ele>
<time>2013-05-08T07:03:24.000Z</time>
</trkpt>
<trkpt lat="43.483727" lon="3.544077">
<ele>176.6</ele>
<time>2013-05-08T07:03:25.000Z</time>
</trkpt>
<trkpt lat="43.483694" lon="3.54379">
<ele>177.6</ele>
<time>2013-05-08T07:03:26.000Z</time>
</trkpt>
<trkpt lat="43.483634" lon="3.543502">
<ele>178.5</ele>
<time>2013-05-08T07:03:27.000Z</time>
</trkpt>
<trkpt lat="43.483567" lon="3.543218">
<ele>179.5</ele>
<time>2013-05-08T07:03:28.000Z</time>
</trkpt>
<trkpt lat="43.483485" lon="3.542938">
<ele>180.3</ele>
<time>2013-05-08T07:03:29.000Z</time>
</trkpt>
<trkpt lat="43.4834" lon="3.542657">
<ele>180.8</ele>
<time>2013-05-08T07:03:30.000Z</time>
</trkpt>
<trkpt lat="43.483317" lon="3.542367">
<ele>181.2</ele>
<time>2013-05-08T07:03:31.000Z</time>
</trkpt>
<trkpt lat="43.483231" lon="3.542066">
<ele>181.4</ele>
<time>2013-05-08T07:03:32.000Z</time>
</trkpt>
<trkpt lat="43.483146" lon="3.541758">
<ele>181.6</ele>
<time>2013-05-08T07:03:33.000Z</time>
</trkpt>
<trkpt lat="43.48306" lon="3.541445">
<ele>181.9</ele>
<time>2013-05-08T07:03:34.000Z</time>
</trkpt>
<trkpt lat="43.482976" lon="3.541127">
<ele>182.4</ele>
<time>2013-05-08T07:03:35.000Z</time>
</trkpt>
<trkpt lat="43.482894" lon="3.54081">
<ele>183</ele>
<time>2013-05-08T07:03:36.000Z</time>
</trkpt>
<trkpt lat="43.482814" lon="3.540495">
<ele>183.9</ele>
<time>2013-05-08T07:03:37.000Z</time>
</trkpt>
<trkpt lat="43.482729" lon="3.540176">
<ele>184.7</ele>
<time>2013-05-08T07:03:38.000Z</time>
</trkpt>
<trkpt lat="43.482647" lon="3.539865">
<ele>185.3</ele>
<time>2013-05-08T07:03:39.000Z</time>
</trkpt>
<trkpt lat="43.482571" lon="3.539575">
<ele>186.1</ele>
<time>2013-05-08T07:03:40.000Z</time>
</trkpt>
<trkpt lat="43.482498" lon="3.53929">
<ele>186.8</ele>
<time>2013-05-08T07:03:41.000Z</time>
</trkpt>
<trkpt lat="43.482422" lon="3.539005">
<ele>187.5</ele>
<time>2013-05-08T07:03:42.000Z</time>
</trkpt>
<trkpt lat="43.482357" lon="3.538711">
<ele>187.8</ele>
<time>2013-05-08T07:03:43.000Z</time>
</trkpt>
<trkpt lat="43.482303" lon="3.538397">
<ele>187.3</ele>
<time>2013-05-08T07:03:44.000Z</time>
</trkpt>
<trkpt lat="43.482258" lon="3.538072">
<ele>186.6</ele>
<time>2013-05-08T07:03:45.000Z</time>
</trkpt>
<trkpt lat="43.482225" lon="3.537745">
<ele>186</ele>
<time>2013-05-08T07:03:46.000Z</time>
</trkpt>
<trkpt lat="43.482208" lon="3.537411">
<ele>185.5</ele>
<time>2013-05-08T07:03:47.000Z</time>
</trkpt>
<trkpt lat="43.482199" lon="3.537068">
<ele>185.1</ele>
<time>2013-05-08T07:03:48.000Z</time>
</trkpt>
<trkpt lat="43.482208" lon="3.536723">
<ele>184.9</ele>
<time>2013-05-08T07:03:49.000Z</time>
</trkpt>
<trkpt lat="43.482218" lon="3.536376">
<ele>184.6</ele>
<time>2013-05-08T07:03:50.000Z</time>
</trkpt>
<trkpt lat="43.482227" lon="3.536025">
<ele>183.9</ele>
<time>2013-05-08T07:03:51.000Z</time>
</trkpt>
<trkpt lat="43.482233" lon="3.535683">
<ele>183.4</ele>
<time>2013-05-08T07:03:52.000Z</time>
</trkpt>
<trkpt lat="43.482241" lon="3.535327">
<ele>183.1</ele>
<time>2013-05-08T07:03:53.000Z</time>
</trkpt>
<trkpt lat="43.482254" lon="3.534992">
<ele>183</ele>
<time>2013-05-08T07:03:54.000Z</time>
</trkpt>
<trkpt lat="43.482273" lon="3.53465">
<ele>182.9</ele>
<time>2013-05-08T07:03:55.000Z</time>
</trkpt>
<trkpt lat="43.482304" lon="3.534304">
<ele>182.9</ele>
<time>2013-05-08T07:03:56.000Z</time>
</trkpt>
<trkpt lat="43.482349" lon="3.533955">
<ele>183.1</ele>
<time>2013-05-08T07:03:57.000Z</time>
</trkpt>
<trkpt lat="43.482399" lon="3.533599">
<ele>183.2</ele>
<time>2013-05-08T07:03:58.000Z</time>
</trkpt>
<trkpt lat="43.482462" lon="3.533248">
<ele>183.7</ele>
<time>2013-05-08T07:03:59.000Z</time>
</trkpt>
<trkpt lat="43.482538" lon="3.532906">
<ele>184.2</ele>
<time>2013-05-08T07:04:00.000Z</time>
</trkpt>
<trkpt lat="43.482613" lon="3.532562">
<ele>184.9</ele>
<time>2013-05-08T07:04:01.000Z</time>
</trkpt>
<trkpt lat="43.482681" lon="3.532219">
<ele>185.4</ele>
<time>2013-05-08T07:04:02.000Z</time>
</trkpt>
<trkpt lat="43.482751" lon="3.531881">
<ele>185.9</ele>
<time>2013-05-08T07:04:03.000Z</time>
</trkpt>
<trkpt lat="43.482826" lon="3.531552">
<ele>186.3</ele>
<time>2013-05-08T07:04:04.000Z</time>
</trkpt>
<trkpt lat="43.482906" lon="3.531235">
<ele>186.8</ele>
<time>2013-05-08T07:04:05.000Z</time>
</trkpt>
<trkpt lat="43.482985" lon="3.530916">
<ele>187.4</ele>
<time>2013-05-08T07:04:06.000Z</time>
</trkpt>
<trkpt lat="43.483077" lon="3.530594">
<ele>187.8</ele>
<time>2013-05-08T07:04:07.000Z</time>
</trkpt>
<trkpt lat="43.4832" lon="3.530275">
<ele>188.3</ele>
<time>2013-05-08T07:04:08.000Z</time>
</trkpt>
<trkpt lat="43.483327" lon="3.529951">
<ele>188.6</ele>
<time>2013-05-08T07:04:09.000Z</time>
</trkpt>
<trkpt lat="43.483452" lon="3.529632">
<ele>188.6</ele>
<time>2013-05-08T07:04:10.000Z</time>
</trkpt>
<trkpt lat="43.483586" lon="3.529331">
<ele>188.8</ele>
<time>2013-05-08T07:04:11.000Z</time>
</trkpt>
<trkpt lat="43.483721" lon="3.529032">
<ele>188.9</ele>
<time>2013-05-08T07:04:12.000Z</time>
</trkpt>
<trkpt lat="43.483854" lon="3.528735">
<ele>189.2</ele>
<time>2013-05-08T07:04:13.000Z</time>
</trkpt>
<trkpt lat="43.483983" lon="3.528436">
<ele>189.4</ele>
<time>2013-05-08T07:04:14.000Z</time>
</trkpt>
<trkpt lat="43.48411" lon="3.528131">
<ele>189.5</ele>
<time>2013-05-08T07:04:15.000Z</time>
</trkpt>
<trkpt lat="43.484239" lon="3.527823">
<ele>189.4</ele>
<time>2013-05-08T07:04:16.000Z</time>
</trkpt>
<trkpt lat="43.484367" lon="3.527517">
<ele>189.2</ele>
<time>2013-05-08T07:04:17.000Z</time>
</trkpt>
<trkpt lat="43.484492" lon="3.527211">
<ele>188.7</ele>
<time>2013-05-08T07:04:18.000Z</time>
</trkpt>
<trkpt lat="43.484621" lon="3.526906">
<ele>188</ele>
<time>2013-05-08T07:04:19.000Z</time>
</trkpt>
<trkpt lat="43.48477" lon="3.526624">
<ele>187</ele>
<time>2013-05-08T07:04:20.000Z</time>
</trkpt>
<trkpt lat="43.484941" lon="3.526362">
<ele>186.1</ele>
<time>2013-05-08T07:04:21.000Z</time>
</trkpt>
<trkpt lat="43.48511" lon="3.526092">
<ele>185</ele>
<time>2013-05-08T07:04:22.000Z</time>
</trkpt>
<trkpt lat="43.485282" lon="3.525822">
<ele>184.1</ele>
<time>2013-05-08T07:04:23.000Z</time>
</trkpt>
<trkpt lat="43.485444" lon="3.525528">
<ele>183.4</ele>
<time>2013-05-08T07:04:24.000Z</time>
</trkpt>
<trkpt lat="43.485605" lon="3.525231">
<ele>182.7</ele>
<time>2013-05-08T07:04:25.000Z</time>
</trkpt>
<trkpt lat="43.48576" lon="3.524933">
<ele>182.3</ele>
<time>2013-05-08T07:04:26.000Z</time>
</trkpt>
<trkpt lat="43.485906" lon="3.524627">
<ele>182.1</ele>
<time>2013-05-08T07:04:27.000Z</time>
</trkpt>
<trkpt lat="43.486039" lon="3.524315">
<ele>181.8</ele>
<time>2013-05-08T07:04:28.000Z</time>
</trkpt>
<trkpt lat="43.486166" lon="3.523996">
<ele>181.6</ele>
<time>2013-05-08T07:04:29.000Z</time>
</trkpt>
<trkpt lat="43.486269" lon="3.523681">
<ele>181.2</ele>
<time>2013-05-08T07:04:30.000Z</time>
</trkpt>
<trkpt lat="43.486362" lon="3.523367">
<ele>180.7</ele>
<time>2013-05-08T07:04:31.000Z</time>
</trkpt>
<trkpt lat="43.486446" lon="3.523084">
<ele>180.3</ele>
<time>2013-05-08T07:04:32.000Z</time>
</trkpt>
<trkpt lat="43.486523" lon="3.522827">
<ele>179.8</ele>
<time>2013-05-08T07:04:33.000Z</time>
</trkpt>
<trkpt lat="43.486591" lon="3.522601">
<ele>179.4</ele>
<time>2013-05-08T07:04:34.000Z</time>
</trkpt>
<trkpt lat="43.486651" lon="3.522393">
<ele>179.2</ele>
<time>2013-05-08T07:04:35.000Z</time>
</trkpt>
<trkpt lat="43.486707" lon="3.52219">
<ele>178.9</ele>
<time>2013-05-08T07:04:36.000Z</time>
</trkpt>
<trkpt lat="43.486763" lon="3.521987">
<ele>178.3</ele>
<time>2013-05-08T07:04:37.000Z</time>
</trkpt>
<trkpt lat="43.486824" lon="3.521779">
<ele>177.6</ele>
<time>2013-05-08T07:04:38.000Z</time>
</trkpt>
<trkpt lat="43.486887" lon="3.521564">
<ele>176.8</ele>
<time>2013-05-08T07:04:39.000Z</time>
</trkpt>
<trkpt lat="43.48695" lon="3.521342">
<ele>175.9</ele>
<time>2013-05-08T07:04:40.000Z</time>
</trkpt>
<trkpt lat="43.487016" lon="3.521116">
<ele>174.9</ele>
<time>2013-05-08T07:04:41.000Z</time>
</trkpt>
<trkpt lat="43.487083" lon="3.520886">
<ele>173.8</ele>
<time>2013-05-08T07:04:42.000Z</time>
</trkpt>
<trkpt lat="43.487153" lon="3.520644">
<ele>172.7</ele>
<time>2013-05-08T07:04:43.000Z</time>
</trkpt>
<trkpt lat="43.487224" lon="3.520398">
<ele>171.8</ele>
<time>2013-05-08T07:04:44.000Z</time>
</trkpt>
<trkpt lat="43.487296" lon="3.520138">
<ele>170.9</ele>
<time>2013-05-08T07:04:45.000Z</time>
</trkpt>
<trkpt lat="43.487368" lon="3.519873">
<ele>170</ele>
<time>2013-05-08T07:04:46.000Z</time>
</trkpt>
<trkpt lat="43.487443" lon="3.519606">
<ele>169.2</ele>
<time>2013-05-08T07:04:47.000Z</time>
</trkpt>
<trkpt lat="43.487517" lon="3.519339">
<ele>168.4</ele>
<time>2013-05-08T07:04:48.000Z</time>
</trkpt>
<trkpt lat="43.487651" lon="3.518771">
<ele>167.1</ele>
<time>2013-05-08T07:04:50.000Z</time>
</trkpt>
<trkpt lat="43.487701" lon="3.518474">
<ele>166.7</ele>
<time>2013-05-08T07:04:51.000Z</time>
</trkpt>
<trkpt lat="43.487739" lon="3.518162">
<ele>166.2</ele>
<time>2013-05-08T07:04:52.000Z</time>
</trkpt>
<trkpt lat="43.487768" lon="3.517832">
<ele>165.6</ele>
<time>2013-05-08T07:04:53.000Z</time>
</trkpt>
<trkpt lat="43.487789" lon="3.517497">
<ele>165.1</ele>
<time>2013-05-08T07:04:54.000Z</time>
</trkpt>
<trkpt lat="43.487794" lon="3.517146">
<ele>164.7</ele>
<time>2013-05-08T07:04:55.000Z</time>
</trkpt>
<trkpt lat="43.487792" lon="3.516806">
<ele>164.4</ele>
<time>2013-05-08T07:04:56.000Z</time>
</trkpt>
<trkpt lat="43.48779" lon="3.516466">
<ele>164.2</ele>
<time>2013-05-08T07:04:57.000Z</time>
</trkpt>
<trkpt lat="43.487768" lon="3.516113">
<ele>164.4</ele>
<time>2013-05-08T07:04:58.000Z</time>
</trkpt>
<trkpt lat="43.487736" lon="3.515764">
<ele>165</ele>
<time>2013-05-08T07:04:59.000Z</time>
</trkpt>
<trkpt lat="43.487696" lon="3.515422">
<ele>165.6</ele>
<time>2013-05-08T07:05:00.000Z</time>
</trkpt>
<trkpt lat="43.487648" lon="3.515098">
<ele>166.4</ele>
<time>2013-05-08T07:05:01.000Z</time>
</trkpt>
<trkpt lat="43.487599" lon="3.514781">
<ele>167.1</ele>
<time>2013-05-08T07:05:02.000Z</time>
</trkpt>
<trkpt lat="43.48755" lon="3.514467">
<ele>167.4</ele>
<time>2013-05-08T07:05:03.000Z</time>
</trkpt>
<trkpt lat="43.487499" lon="3.514148">
<ele>167.4</ele>
<time>2013-05-08T07:05:04.000Z</time>
</trkpt>
<trkpt lat="43.48745" lon="3.513821">
<ele>167</ele>
<time>2013-05-08T07:05:05.000Z</time>
</trkpt>
<trkpt lat="43.487406" lon="3.513502">
<ele>166.2</ele>
<time>2013-05-08T07:05:06.000Z</time>
</trkpt>
<trkpt lat="43.48736" lon="3.513175">
<ele>165.6</ele>
<time>2013-05-08T07:05:07.000Z</time>
</trkpt>
<trkpt lat="43.487312" lon="3.512837">
<ele>164.7</ele>
<time>2013-05-08T07:05:08.000Z</time>
</trkpt>
<trkpt lat="43.487275" lon="3.512489">
<ele>163.2</ele>
<time>2013-05-08T07:05:09.000Z</time>
</trkpt>
<trkpt lat="43.487252" lon="3.512132">
<ele>161.5</ele>
<time>2013-05-08T07:05:10.000Z</time>
</trkpt>
<trkpt lat="43.487251" lon="3.511785">
<ele>159.8</ele>
<time>2013-05-08T07:05:11.000Z</time>
</trkpt>
<trkpt lat="43.487257" lon="3.511436">
<ele>158.3</ele>
<time>2013-05-08T07:05:12.000Z</time>
</trkpt>
<trkpt lat="43.487269" lon="3.511088">
<ele>157</ele>
<time>2013-05-08T07:05:13.000Z</time>
</trkpt>
<trkpt lat="43.487286" lon="3.510739">
<ele>156.1</ele>
<time>2013-05-08T07:05:14.000Z</time>
</trkpt>
<trkpt lat="43.487316" lon="3.510402">
<ele>155.4</ele>
<time>2013-05-08T07:05:15.000Z</time>
</trkpt>
<trkpt lat="43.487356" lon="3.510074">
<ele>155.1</ele>
<time>2013-05-08T07:05:16.000Z</time>
</trkpt>
<trkpt lat="43.487398" lon="3.509747">
<ele>154.8</ele>
<time>2013-05-08T07:05:17.000Z</time>
</trkpt>
<trkpt lat="43.487426" lon="3.509422">
<ele>154.7</ele>
<time>2013-05-08T07:05:18.000Z</time>
</trkpt>
<trkpt lat="43.48743" lon="3.509091">
<ele>154.6</ele>
<time>2013-05-08T07:05:19.000Z</time>
</trkpt>
<trkpt lat="43.487394" lon="3.508753">
<ele>154.5</ele>
<time>2013-05-08T07:05:20.000Z</time>
</trkpt>
<trkpt lat="43.487346" lon="3.508425">
<ele>154.6</ele>
<time>2013-05-08T07:05:21.000Z</time>
</trkpt>
<trkpt lat="43.487298" lon="3.508094">
<ele>154.8</ele>
<time>2013-05-08T07:05:22.000Z</time>
</trkpt>
<trkpt lat="43.487252" lon="3.507759">
<ele>154.8</ele>
<time>2013-05-08T07:05:23.000Z</time>
</trkpt>
<trkpt lat="43.487212" lon="3.507417">
<ele>153.9</ele>
<time>2013-05-08T07:05:24.000Z</time>
</trkpt>
<trkpt lat="43.487185" lon="3.507062">
<ele>152.7</ele>
<time>2013-05-08T07:05:25.000Z</time>
</trkpt>
<trkpt lat="43.487174" lon="3.506701">
<ele>151.6</ele>
<time>2013-05-08T07:05:26.000Z</time>
</trkpt>
<trkpt lat="43.487173" lon="3.506342">
<ele>150.7</ele>
<time>2013-05-08T07:05:27.000Z</time>
</trkpt>
<trkpt lat="43.487204" lon="3.50597">
<ele>149.8</ele>
<time>2013-05-08T07:05:28.000Z</time>
</trkpt>
<trkpt lat="43.487246" lon="3.505596">
<ele>149.2</ele>
<time>2013-05-08T07:05:29.000Z</time>
</trkpt>
<trkpt lat="43.487291" lon="3.50523">
<ele>149</ele>
<time>2013-05-08T07:05:30.000Z</time>
</trkpt>
<trkpt lat="43.487335" lon="3.504887">
<ele>149.1</ele>
<time>2013-05-08T07:05:31.000Z</time>
</trkpt>
<trkpt lat="43.487374" lon="3.504573">
<ele>149.2</ele>
<time>2013-05-08T07:05:32.000Z</time>
</trkpt>
<trkpt lat="43.48741" lon="3.504271">
<ele>149.3</ele>
<time>2013-05-08T07:05:33.000Z</time>
</trkpt>
<trkpt lat="43.487443" lon="3.503975">
<ele>149.2</ele>
<time>2013-05-08T07:05:34.000Z</time>
</trkpt>
<trkpt lat="43.487474" lon="3.50369">
<ele>149</ele>
<time>2013-05-08T07:05:35.000Z</time>
</trkpt>
<trkpt lat="43.487508" lon="3.50341">
<ele>148.8</ele>
<time>2013-05-08T07:05:36.000Z</time>
</trkpt>
<trkpt lat="43.487541" lon="3.503136">
<ele>148.6</ele>
<time>2013-05-08T07:05:37.000Z</time>
</trkpt>
<trkpt lat="43.487576" lon="3.502851">
<ele>148.2</ele>
<time>2013-05-08T07:05:38.000Z</time>
</trkpt>
<trkpt lat="43.487613" lon="3.502556">
<ele>147.9</ele>
<time>2013-05-08T07:05:39.000Z</time>
</trkpt>
<trkpt lat="43.487652" lon="3.502255">
<ele>147.6</ele>
<time>2013-05-08T07:05:40.000Z</time>
</trkpt>
<trkpt lat="43.487691" lon="3.501951">
<ele>147.2</ele>
<time>2013-05-08T07:05:41.000Z</time>
</trkpt>
<trkpt lat="43.48773" lon="3.501649">
<ele>146.9</ele>
<time>2013-05-08T07:05:42.000Z</time>
</trkpt>
<trkpt lat="43.487762" lon="3.501344">
<ele>146.6</ele>
<time>2013-05-08T07:05:43.000Z</time>
</trkpt>
<trkpt lat="43.487787" lon="3.501036">
<ele>146</ele>
<time>2013-05-08T07:05:44.000Z</time>
</trkpt>
<trkpt lat="43.487806" lon="3.50072">
<ele>145.3</ele>
<time>2013-05-08T07:05:45.000Z</time>
</trkpt>
<trkpt lat="43.487824" lon="3.500399">
<ele>144.3</ele>
<time>2013-05-08T07:05:46.000Z</time>
</trkpt>
<trkpt lat="43.487842" lon="3.500061">
<ele>143.5</ele>
<time>2013-05-08T07:05:47.000Z</time>
</trkpt>
<trkpt lat="43.487867" lon="3.499717">
<ele>142.7</ele>
<time>2013-05-08T07:05:48.000Z</time>
</trkpt>
<trkpt lat="43.487933" lon="3.49903">
<ele>141.1</ele>
<time>2013-05-08T07:05:50.000Z</time>
</trkpt>
<trkpt lat="43.487949" lon="3.498702">
<ele>140.2</ele>
<time>2013-05-08T07:05:51.000Z</time>
</trkpt>
<trkpt lat="43.487954" lon="3.498379">
<ele>139.3</ele>
<time>2013-05-08T07:05:52.000Z</time>
</trkpt>
<trkpt lat="43.487943" lon="3.498052">
<ele>138.4</ele>
<time>2013-05-08T07:05:53.000Z</time>
</trkpt>
<trkpt lat="43.48792" lon="3.497713">
<ele>137.6</ele>
<time>2013-05-08T07:05:54.000Z</time>
</trkpt>
<trkpt lat="43.487897" lon="3.497376">
<ele>136.7</ele>
<time>2013-05-08T07:05:55.000Z</time>
</trkpt>
<trkpt lat="43.487873" lon="3.497041">
<ele>135.7</ele>
<time>2013-05-08T07:05:56.000Z</time>
</trkpt>
<trkpt lat="43.487847" lon="3.496699">
<ele>134.7</ele>
<time>2013-05-08T07:05:57.000Z</time>
</trkpt>
<trkpt lat="43.487817" lon="3.496362">
<ele>133.8</ele>
<time>2013-05-08T07:05:58.000Z</time>
</trkpt>
<trkpt lat="43.487794" lon="3.496046">
<ele>132.8</ele>
<time>2013-05-08T07:05:59.000Z</time>
</trkpt>
<trkpt lat="43.487788" lon="3.495718">
<ele>131.5</ele>
<time>2013-05-08T07:06:00.000Z</time>
</trkpt>
<trkpt lat="43.487796" lon="3.495386">
<ele>130</ele>
<time>2013-05-08T07:06:01.000Z</time>
</trkpt>
<trkpt lat="43.487844" lon="3.495068">
<ele>128.7</ele>
<time>2013-05-08T07:06:02.000Z</time>
</trkpt>
<trkpt lat="43.487914" lon="3.494765">
<ele>127.5</ele>
<time>2013-05-08T07:06:03.000Z</time>
</trkpt>
<trkpt lat="43.48801" lon="3.494482">
<ele>126.6</ele>
<time>2013-05-08T07:06:04.000Z</time>
</trkpt>
<trkpt lat="43.488111" lon="3.494217">
<ele>126</ele>
<time>2013-05-08T07:06:05.000Z</time>
</trkpt>
<trkpt lat="43.488215" lon="3.493984">
<ele>125</ele>
<time>2013-05-08T07:06:06.000Z</time>
</trkpt>
<trkpt lat="43.488293" lon="3.493761">
<ele>124</ele>
<time>2013-05-08T07:06:07.000Z</time>
</trkpt>
<trkpt lat="43.488363" lon="3.493527">
<ele>123.2</ele>
<time>2013-05-08T07:06:08.000Z</time>
</trkpt>
<trkpt lat="43.488382" lon="3.493295">
<ele>122.6</ele>
<time>2013-05-08T07:06:09.000Z</time>
</trkpt>
<trkpt lat="43.488347" lon="3.493074">
<ele>122</ele>
<time>2013-05-08T07:06:10.000Z</time>
</trkpt>
<trkpt lat="43.488244" lon="3.492831">
<ele>121.6</ele>
<time>2013-05-08T07:06:11.000Z</time>
</trkpt>
<trkpt lat="43.48814" lon="3.492578">
<ele>121.1</ele>
<time>2013-05-08T07:06:12.000Z</time>
</trkpt>
<trkpt lat="43.48802" lon="3.492308">
<ele>119.9</ele>
<time>2013-05-08T07:06:13.000Z</time>
</trkpt>
<trkpt lat="43.48789" lon="3.49203">
<ele>118.1</ele>
<time>2013-05-08T07:06:14.000Z</time>
</trkpt>
<trkpt lat="43.48777" lon="3.491758">
<ele>116.9</ele>
<time>2013-05-08T07:06:15.000Z</time>
</trkpt>
<trkpt lat="43.487638" lon="3.491485">
<ele>116.1</ele>
<time>2013-05-08T07:06:16.000Z</time>
</trkpt>
<trkpt lat="43.487501" lon="3.491212">
<ele>115.3</ele>
<time>2013-05-08T07:06:17.000Z</time>
</trkpt>
<trkpt lat="43.487364" lon="3.490946">
<ele>114.4</ele>
<time>2013-05-08T07:06:18.000Z</time>
</trkpt>
<trkpt lat="43.487241" lon="3.490693">
<ele>113.6</ele>
<time>2013-05-08T07:06:19.000Z</time>
</trkpt>
<trkpt lat="43.487133" lon="3.490456">
<ele>112.7</ele>
<time>2013-05-08T07:06:20.000Z</time>
</trkpt>
<trkpt lat="43.487036" lon="3.490231">
<ele>111.6</ele>
<time>2013-05-08T07:06:21.000Z</time>
</trkpt>
<trkpt lat="43.486944" lon="3.490017">
<ele>110.6</ele>
<time>2013-05-08T07:06:22.000Z</time>
</trkpt>
<trkpt lat="43.486853" lon="3.489798">
<ele>109.9</ele>
<time>2013-05-08T07:06:23.000Z</time>
</trkpt>
<trkpt lat="43.48675" lon="3.489581">
<ele>109.2</ele>
<time>2013-05-08T07:06:24.000Z</time>
</trkpt>
<trkpt lat="43.486626" lon="3.489368">
<ele>108.8</ele>
<time>2013-05-08T07:06:25.000Z</time>
</trkpt>
<trkpt lat="43.486488" lon="3.489176">
<ele>108.4</ele>
<time>2013-05-08T07:06:26.000Z</time>
</trkpt>
<trkpt lat="43.48634" lon="3.488983">
<ele>108.5</ele>
<time>2013-05-08T07:06:27.000Z</time>
</trkpt>
<trkpt lat="43.486181" lon="3.488785">
<ele>108.9</ele>
<time>2013-05-08T07:06:28.000Z</time>
</trkpt>
<trkpt lat="43.486016" lon="3.488586">
<ele>109.3</ele>
<time>2013-05-08T07:06:29.000Z</time>
</trkpt>
<trkpt lat="43.485851" lon="3.488384">
<ele>109.5</ele>
<time>2013-05-08T07:06:30.000Z</time>
</trkpt>
<trkpt lat="43.485698" lon="3.488194">
<ele>109.5</ele>
<time>2013-05-08T07:06:31.000Z</time>
</trkpt>
<trkpt lat="43.485556" lon="3.488011">
<ele>109.5</ele>
<time>2013-05-08T07:06:32.000Z</time>
</trkpt>
<trkpt lat="43.485424" lon="3.487826">
<ele>109.2</ele>
<time>2013-05-08T07:06:33.000Z</time>
</trkpt>
<trkpt lat="43.485302" lon="3.487649">
<ele>108.7</ele>
<time>2013-05-08T07:06:34.000Z</time>
</trkpt>
<trkpt lat="43.485189" lon="3.487476">
<ele>108.5</ele>
<time>2013-05-08T07:06:35.000Z</time>
</trkpt>
<trkpt lat="43.48508" lon="3.487295">
<ele>108.3</ele>
<time>2013-05-08T07:06:36.000Z</time>
</trkpt>
<trkpt lat="43.484971" lon="3.487117">
<ele>108.3</ele>
<time>2013-05-08T07:06:37.000Z</time>
</trkpt>
<trkpt lat="43.484868" lon="3.486955">
<ele>108.5</ele>
<time>2013-05-08T07:06:38.000Z</time>
</trkpt>
<trkpt lat="43.484757" lon="3.48677">
<ele>108.3</ele>
<time>2013-05-08T07:06:39.000Z</time>
</trkpt>
<trkpt lat="43.484656" lon="3.486601">
<ele>108.1</ele>
<time>2013-05-08T07:06:40.000Z</time>
</trkpt>
<trkpt lat="43.484554" lon="3.486444">
<ele>108.1</ele>
<time>2013-05-08T07:06:41.000Z</time>
</trkpt>
<trkpt lat="43.484453" lon="3.486286">
<ele>107.7</ele>
<time>2013-05-08T07:06:42.000Z</time>
</trkpt>
<trkpt lat="43.484357" lon="3.486139">
<ele>107.3</ele>
<time>2013-05-08T07:06:43.000Z</time>
</trkpt>
<trkpt lat="43.484258" lon="3.485995">
<ele>107.3</ele>
<time>2013-05-08T07:06:44.000Z</time>
</trkpt>
<trkpt lat="43.484157" lon="3.485861">
<ele>107</ele>
<time>2013-05-08T07:06:45.000Z</time>
</trkpt>
<trkpt lat="43.484061" lon="3.485739">
<ele>107.2</ele>
<time>2013-05-08T07:06:46.000Z</time>
</trkpt>
<trkpt lat="43.483975" lon="3.485644">
<ele>107.3</ele>
<time>2013-05-08T07:06:47.000Z</time>
</trkpt>
<trkpt lat="43.483891" lon="3.485555">
<ele>107.3</ele>
<time>2013-05-08T07:06:48.000Z</time>
</trkpt>
<trkpt lat="43.483721" lon="3.485378">
<ele>106</ele>
<time>2013-05-08T07:06:50.000Z</time>
</trkpt>
<trkpt lat="43.483627" lon="3.485287">
<ele>106</ele>
<time>2013-05-08T07:06:51.000Z</time>
</trkpt>
<trkpt lat="43.483536" lon="3.485201">
<ele>106</ele>
<time>2013-05-08T07:06:52.000Z</time>
</trkpt>
<trkpt lat="43.483451" lon="3.485117">
<ele>106.2</ele>
<time>2013-05-08T07:06:53.000Z</time>
</trkpt>
<trkpt lat="43.483367" lon="3.485038">
<ele>106.2</ele>
<time>2013-05-08T07:06:54.000Z</time>
</trkpt>
<trkpt lat="43.483294" lon="3.484964">
<ele>106.1</ele>
<time>2013-05-08T07:06:55.000Z</time>
</trkpt>
<trkpt lat="43.483232" lon="3.484899">
<ele>105.9</ele>
<time>2013-05-08T07:06:56.000Z</time>
</trkpt>
<trkpt lat="43.483174" lon="3.484839">
<ele>105.6</ele>
<time>2013-05-08T07:06:57.000Z</time>
</trkpt>
<trkpt lat="43.483119" lon="3.484783">
<ele>105.5</ele>
<time>2013-05-08T07:06:58.000Z</time>
</trkpt>
<trkpt lat="43.483059" lon="3.48472">
<ele>105.5</ele>
<time>2013-05-08T07:06:59.000Z</time>
</trkpt>
<trkpt lat="43.482988" lon="3.484648">
<ele>106.1</ele>
<time>2013-05-08T07:07:00.000Z</time>
</trkpt>
<trkpt lat="43.48291" lon="3.48457">
<ele>106.6</ele>
<time>2013-05-08T07:07:01.000Z</time>
</trkpt>
<trkpt lat="43.482825" lon="3.484489">
<ele>107.1</ele>
<time>2013-05-08T07:07:02.000Z</time>
</trkpt>
<trkpt lat="43.482738" lon="3.484407">
<ele>107.4</ele>
<time>2013-05-08T07:07:03.000Z</time>
</trkpt>
<trkpt lat="43.482654" lon="3.48433">
<ele>107.6</ele>
<time>2013-05-08T07:07:04.000Z</time>
</trkpt>
<trkpt lat="43.482569" lon="3.484252">
<ele>107.5</ele>
<time>2013-05-08T07:07:05.000Z</time>
</trkpt>
<trkpt lat="43.482489" lon="3.484185">
<ele>107.4</ele>
<time>2013-05-08T07:07:06.000Z</time>
</trkpt>
<trkpt lat="43.482414" lon="3.484119">
<ele>107.1</ele>
<time>2013-05-08T07:07:07.000Z</time>
</trkpt>
<trkpt lat="43.482333" lon="3.484055">
<ele>106.9</ele>
<time>2013-05-08T07:07:08.000Z</time>
</trkpt>
<trkpt lat="43.482251" lon="3.483995">
<ele>106.9</ele>
<time>2013-05-08T07:07:09.000Z</time>
</trkpt>
<trkpt lat="43.482167" lon="3.483942">
<ele>107.1</ele>
<time>2013-05-08T07:07:10.000Z</time>
</trkpt>
<trkpt lat="43.482073" lon="3.483899">
<ele>107.5</ele>
<time>2013-05-08T07:07:11.000Z</time>
</trkpt>
<trkpt lat="43.481976" lon="3.483862">
<ele>107.9</ele>
<time>2013-05-08T07:07:12.000Z</time>
</trkpt>
<trkpt lat="43.48188" lon="3.483824">
<ele>108.2</ele>
<time>2013-05-08T07:07:13.000Z</time>
</trkpt>
<trkpt lat="43.481782" lon="3.483793">
<ele>108.3</ele>
<time>2013-05-08T07:07:14.000Z</time>
</trkpt>
<trkpt lat="43.48169" lon="3.483767">
<ele>108.4</ele>
<time>2013-05-08T07:07:15.000Z</time>
</trkpt>
<trkpt lat="43.481605" lon="3.483742">
<ele>108.7</ele>
<time>2013-05-08T07:07:16.000Z</time>
</trkpt>
<trkpt lat="43.481521" lon="3.48372">
<ele>109</ele>
<time>2013-05-08T07:07:17.000Z</time>
</trkpt>
<trkpt lat="43.481451" lon="3.483703">
<ele>109.1</ele>
<time>2013-05-08T07:07:18.000Z</time>
</trkpt>
<trkpt lat="43.481391" lon="3.483688">
<ele>109</ele>
<time>2013-05-08T07:07:19.000Z</time>
</trkpt>
<trkpt lat="43.481349" lon="3.483678">
<ele>108.8</ele>
<time>2013-05-08T07:07:20.000Z</time>
</trkpt>
<trkpt lat="43.481322" lon="3.483673">
<ele>108.8</ele>
<time>2013-05-08T07:07:21.000Z</time>
</trkpt>
<trkpt lat="43.481291" lon="3.483665">
<ele>108.7</ele>
<time>2013-05-08T07:07:22.000Z</time>
</trkpt>
<trkpt lat="43.481267" lon="3.483656">
<ele>108.7</ele>
<time>2013-05-08T07:07:23.000Z</time>
</trkpt>
<trkpt lat="43.481225" lon="3.483643">
<ele>108.6</ele>
<time>2013-05-08T07:07:25.000Z</time>
</trkpt>
<trkpt lat="43.481208" lon="3.483642">
<ele>108.5</ele>
<time>2013-05-08T07:07:26.000Z</time>
</trkpt>
<trkpt lat="43.481196" lon="3.483641">
<ele>108.3</ele>
<time>2013-05-08T07:08:03.000Z</time>
</trkpt>
<trkpt lat="43.481176" lon="3.483704">
<ele>108.3</ele>
<time>2013-05-08T07:08:04.000Z</time>
</trkpt>
<trkpt lat="43.481125" lon="3.483706">
<ele>108.3</ele>
<time>2013-05-08T07:08:05.000Z</time>
</trkpt>
<trkpt lat="43.481076" lon="3.483701">
<ele>108</ele>
<time>2013-05-08T07:08:06.000Z</time>
</trkpt>
<trkpt lat="43.481032" lon="3.48369">
<ele>108.2</ele>
<time>2013-05-08T07:08:07.000Z</time>
</trkpt>
<trkpt lat="43.480984" lon="3.483676">
<ele>108.1</ele>
<time>2013-05-08T07:08:08.000Z</time>
</trkpt>
<trkpt lat="43.480934" lon="3.483664">
<ele>108</ele>
<time>2013-05-08T07:08:09.000Z</time>
</trkpt>
<trkpt lat="43.480875" lon="3.483647">
<ele>108.2</ele>
<time>2013-05-08T07:08:10.000Z</time>
</trkpt>
<trkpt lat="43.480821" lon="3.483593">
<ele>108.4</ele>
<time>2013-05-08T07:08:11.000Z</time>
</trkpt>
<trkpt lat="43.480771" lon="3.483519">
<ele>108.2</ele>
<time>2013-05-08T07:08:12.000Z</time>
</trkpt>
<trkpt lat="43.48073" lon="3.483449">
<ele>107.9</ele>
<time>2013-05-08T07:08:13.000Z</time>
</trkpt>
<trkpt lat="43.480695" lon="3.483379">
<ele>107.8</ele>
<time>2013-05-08T07:08:14.000Z</time>
</trkpt>
<trkpt lat="43.480666" lon="3.483295">
<ele>107.8</ele>
<time>2013-05-08T07:08:15.000Z</time>
</trkpt>
<trkpt lat="43.480658" lon="3.483194">
<ele>107.7</ele>
<time>2013-05-08T07:08:16.000Z</time>
</trkpt>
<trkpt lat="43.480669" lon="3.483071">
<ele>107</ele>
<time>2013-05-08T07:08:17.000Z</time>
</trkpt>
<trkpt lat="43.480685" lon="3.482933">
<ele>106.9</ele>
<time>2013-05-08T07:08:18.000Z</time>
</trkpt>
<trkpt lat="43.480743" lon="3.482755">
<ele>106.8</ele>
<time>2013-05-08T07:08:19.000Z</time>
</trkpt>
<trkpt lat="43.480792" lon="3.482569">
<ele>106.7</ele>
<time>2013-05-08T07:08:20.000Z</time>
</trkpt>
<trkpt lat="43.480866" lon="3.48236">
<ele>106.1</ele>
<time>2013-05-08T07:08:21.000Z</time>
</trkpt>
<trkpt lat="43.480943" lon="3.482155">
<ele>105.4</ele>
<time>2013-05-08T07:08:22.000Z</time>
</trkpt>
<trkpt lat="43.48101" lon="3.481956">
<ele>104.2</ele>
<time>2013-05-08T07:08:23.000Z</time>
</trkpt>
<trkpt lat="43.481069" lon="3.481775">
<ele>102.8</ele>
<time>2013-05-08T07:08:24.000Z</time>
</trkpt>
<trkpt lat="43.481123" lon="3.481623">
<ele>101.4</ele>
<time>2013-05-08T07:08:25.000Z</time>
</trkpt>
<trkpt lat="43.481169" lon="3.481494">
<ele>100.1</ele>
<time>2013-05-08T07:08:26.000Z</time>
</trkpt>
<trkpt lat="43.481217" lon="3.481375">
<ele>99.3</ele>
<time>2013-05-08T07:08:27.000Z</time>
</trkpt>
<trkpt lat="43.481256" lon="3.481273">
<ele>98.5</ele>
<time>2013-05-08T07:08:28.000Z</time>
</trkpt>
<trkpt lat="43.481294" lon="3.481169">
<ele>97.7</ele>
<time>2013-05-08T07:08:29.000Z</time>
</trkpt>
<trkpt lat="43.48133" lon="3.481073">
<ele>96.8</ele>
<time>2013-05-08T07:08:30.000Z</time>
</trkpt>
<trkpt lat="43.481369" lon="3.480974">
<ele>96</ele>
<time>2013-05-08T07:08:31.000Z</time>
</trkpt>
<trkpt lat="43.481411" lon="3.480887">
<ele>95.7</ele>
<time>2013-05-08T07:08:32.000Z</time>
</trkpt>
<trkpt lat="43.481454" lon="3.480796">
<ele>95.4</ele>
<time>2013-05-08T07:08:33.000Z</time>
</trkpt>
<trkpt lat="43.481493" lon="3.480694">
<ele>95.1</ele>
<time>2013-05-08T07:08:34.000Z</time>
</trkpt>
<trkpt lat="43.481506" lon="3.480558">
<ele>94.6</ele>
<time>2013-05-08T07:08:35.000Z</time>
</trkpt>
<trkpt lat="43.48151" lon="3.480397">
<ele>94.1</ele>
<time>2013-05-08T07:08:36.000Z</time>
</trkpt>
<trkpt lat="43.481507" lon="3.480217">
<ele>93.5</ele>
<time>2013-05-08T07:08:37.000Z</time>
</trkpt>
<trkpt lat="43.481499" lon="3.480044">
<ele>92.9</ele>
<time>2013-05-08T07:08:38.000Z</time>
</trkpt>
<trkpt lat="43.481484" lon="3.479878">
<ele>92.7</ele>
<time>2013-05-08T07:08:39.000Z</time>
</trkpt>
<trkpt lat="43.481468" lon="3.479707">
<ele>92.3</ele>
<time>2013-05-08T07:08:40.000Z</time>
</trkpt>
<trkpt lat="43.481451" lon="3.47953">
<ele>91.8</ele>
<time>2013-05-08T07:08:41.000Z</time>
</trkpt>
<trkpt lat="43.48143" lon="3.479349">
<ele>91.6</ele>
<time>2013-05-08T07:08:42.000Z</time>
</trkpt>
<trkpt lat="43.481411" lon="3.479171">
<ele>91.3</ele>
<time>2013-05-08T07:08:43.000Z</time>
</trkpt>
<trkpt lat="43.481391" lon="3.478988">
<ele>91.2</ele>
<time>2013-05-08T07:08:44.000Z</time>
</trkpt>
<trkpt lat="43.481369" lon="3.478797">
<ele>91.3</ele>
<time>2013-05-08T07:08:45.000Z</time>
</trkpt>
<trkpt lat="43.481346" lon="3.478608">
<ele>91.4</ele>
<time>2013-05-08T07:08:46.000Z</time>
</trkpt>
<trkpt lat="43.481321" lon="3.478418">
<ele>91.7</ele>
<time>2013-05-08T07:08:47.000Z</time>
</trkpt>
<trkpt lat="43.481289" lon="3.47821">
<ele>91.6</ele>
<time>2013-05-08T07:08:48.000Z</time>
</trkpt>
<trkpt lat="43.481233" lon="3.477711">
<ele>91.5</ele>
<time>2013-05-08T07:08:50.000Z</time>
</trkpt>
<trkpt lat="43.481201" lon="3.477442">
<ele>91.5</ele>
<time>2013-05-08T07:08:51.000Z</time>
</trkpt>
<trkpt lat="43.481168" lon="3.477187">
<ele>90.8</ele>
<time>2013-05-08T07:08:52.000Z</time>
</trkpt>
<trkpt lat="43.481136" lon="3.47694">
<ele>90.7</ele>
<time>2013-05-08T07:08:53.000Z</time>
</trkpt>
<trkpt lat="43.481104" lon="3.47669">
<ele>89.5</ele>
<time>2013-05-08T07:08:54.000Z</time>
</trkpt>
<trkpt lat="43.481073" lon="3.476442">
<ele>87.9</ele>
<time>2013-05-08T07:08:55.000Z</time>
</trkpt>
<trkpt lat="43.481042" lon="3.476204">
<ele>86.7</ele>
<time>2013-05-08T07:08:56.000Z</time>
</trkpt>
<trkpt lat="43.481017" lon="3.475972">
<ele>85.4</ele>
<time>2013-05-08T07:08:57.000Z</time>
</trkpt>
<trkpt lat="43.480989" lon="3.475731">
<ele>84.9</ele>
<time>2013-05-08T07:08:58.000Z</time>
</trkpt>
<trkpt lat="43.480957" lon="3.475467">
<ele>84.9</ele>
<time>2013-05-08T07:08:59.000Z</time>
</trkpt>
<trkpt lat="43.480921" lon="3.475172">
<ele>85</ele>
<time>2013-05-08T07:09:00.000Z</time>
</trkpt>
<trkpt lat="43.480885" lon="3.47486">
<ele>85.3</ele>
<time>2013-05-08T07:09:01.000Z</time>
</trkpt>
<trkpt lat="43.480843" lon="3.474545">
<ele>85.5</ele>
<time>2013-05-08T07:09:02.000Z</time>
</trkpt>
<trkpt lat="43.480799" lon="3.474206">
<ele>84.8</ele>
<time>2013-05-08T07:09:03.000Z</time>
</trkpt>
<trkpt lat="43.480763" lon="3.473865">
<ele>83.9</ele>
<time>2013-05-08T07:09:04.000Z</time>
</trkpt>
<trkpt lat="43.480725" lon="3.47353">
<ele>82.7</ele>
<time>2013-05-08T07:09:05.000Z</time>
</trkpt>
<trkpt lat="43.480686" lon="3.473203">
<ele>81.2</ele>
<time>2013-05-08T07:09:06.000Z</time>
</trkpt>
<trkpt lat="43.480648" lon="3.472896">
<ele>80</ele>
<time>2013-05-08T07:09:07.000Z</time>
</trkpt>
<trkpt lat="43.480607" lon="3.472591">
<ele>79.1</ele>
<time>2013-05-08T07:09:08.000Z</time>
</trkpt>
<trkpt lat="43.480567" lon="3.47229">
<ele>78.3</ele>
<time>2013-05-08T07:09:09.000Z</time>
</trkpt>
<trkpt lat="43.480535" lon="3.471987">
<ele>78.4</ele>
<time>2013-05-08T07:09:10.000Z</time>
</trkpt>
<trkpt lat="43.480501" lon="3.471679">
<ele>78.2</ele>
<time>2013-05-08T07:09:11.000Z</time>
</trkpt>
<trkpt lat="43.480432" lon="3.471367">
<ele>78.1</ele>
<time>2013-05-08T07:09:12.000Z</time>
</trkpt>
<trkpt lat="43.480367" lon="3.47104">
<ele>78.7</ele>
<time>2013-05-08T07:09:13.000Z</time>
</trkpt>
<trkpt lat="43.480306" lon="3.470693">
<ele>78.9</ele>
<time>2013-05-08T07:09:14.000Z</time>
</trkpt>
<trkpt lat="43.480249" lon="3.470341">
<ele>79.3</ele>
<time>2013-05-08T07:09:15.000Z</time>
</trkpt>
<trkpt lat="43.480186" lon="3.469988">
<ele>79.3</ele>
<time>2013-05-08T07:09:16.000Z</time>
</trkpt>
<trkpt lat="43.480118" lon="3.469639">
<ele>78.8</ele>
<time>2013-05-08T07:09:17.000Z</time>
</trkpt>
<trkpt lat="43.480049" lon="3.469316">
<ele>78.1</ele>
<time>2013-05-08T07:09:18.000Z</time>
</trkpt>
<trkpt lat="43.479981" lon="3.469009">
<ele>77.5</ele>
<time>2013-05-08T07:09:19.000Z</time>
</trkpt>
<trkpt lat="43.479928" lon="3.468727">
<ele>76.8</ele>
<time>2013-05-08T07:09:20.000Z</time>
</trkpt>
<trkpt lat="43.479882" lon="3.468477">
<ele>75.1</ele>
<time>2013-05-08T07:09:21.000Z</time>
</trkpt>
<trkpt lat="43.479836" lon="3.468217">
<ele>73.3</ele>
<time>2013-05-08T07:09:22.000Z</time>
</trkpt>
<trkpt lat="43.479799" lon="3.467966">
<ele>71.7</ele>
<time>2013-05-08T07:09:23.000Z</time>
</trkpt>
<trkpt lat="43.479759" lon="3.46771">
<ele>70.4</ele>
<time>2013-05-08T07:09:24.000Z</time>
</trkpt>
<trkpt lat="43.479704" lon="3.467456">
<ele>69.9</ele>
<time>2013-05-08T07:09:25.000Z</time>
</trkpt>
<trkpt lat="43.479632" lon="3.467204">
<ele>69.9</ele>
<time>2013-05-08T07:09:26.000Z</time>
</trkpt>
<trkpt lat="43.479562" lon="3.466934">
<ele>69.9</ele>
<time>2013-05-08T07:09:27.000Z</time>
</trkpt>
<trkpt lat="43.479491" lon="3.466681">
<ele>70.1</ele>
<time>2013-05-08T07:09:28.000Z</time>
</trkpt>
<trkpt lat="43.479424" lon="3.466426">
<ele>70.5</ele>
<time>2013-05-08T07:09:29.000Z</time>
</trkpt>
<trkpt lat="43.479356" lon="3.466166">
<ele>70.4</ele>
<time>2013-05-08T07:09:30.000Z</time>
</trkpt>
<trkpt lat="43.479295" lon="3.465894">
<ele>70.4</ele>
<time>2013-05-08T07:09:31.000Z</time>
</trkpt>
<trkpt lat="43.479227" lon="3.465605">
<ele>70</ele>
<time>2013-05-08T07:09:32.000Z</time>
</trkpt>
<trkpt lat="43.479164" lon="3.465317">
<ele>70</ele>
<time>2013-05-08T07:09:33.000Z</time>
</trkpt>
<trkpt lat="43.479096" lon="3.465017">
<ele>70</ele>
<time>2013-05-08T07:09:34.000Z</time>
</trkpt>
<trkpt lat="43.479028" lon="3.464724">
<ele>70.3</ele>
<time>2013-05-08T07:09:35.000Z</time>
</trkpt>
<trkpt lat="43.478968" lon="3.464419">
<ele>70.6</ele>
<time>2013-05-08T07:09:36.000Z</time>
</trkpt>
<trkpt lat="43.478909" lon="3.464104">
<ele>70.9</ele>
<time>2013-05-08T07:09:37.000Z</time>
</trkpt>
<trkpt lat="43.478859" lon="3.463768">
<ele>71.1</ele>
<time>2013-05-08T07:09:38.000Z</time>
</trkpt>
<trkpt lat="43.478817" lon="3.463417">
<ele>70.8</ele>
<time>2013-05-08T07:09:39.000Z</time>
</trkpt>
<trkpt lat="43.478778" lon="3.463069">
<ele>71.6</ele>
<time>2013-05-08T07:09:40.000Z</time>
</trkpt>
<trkpt lat="43.478746" lon="3.462731">
<ele>72</ele>
<time>2013-05-08T07:09:41.000Z</time>
</trkpt>
<trkpt lat="43.478722" lon="3.462397">
<ele>71.8</ele>
<time>2013-05-08T07:09:42.000Z</time>
</trkpt>
<trkpt lat="43.478704" lon="3.462073">
<ele>71.5</ele>
<time>2013-05-08T07:09:43.000Z</time>
</trkpt>
<trkpt lat="43.478678" lon="3.46176">
<ele>71.6</ele>
<time>2013-05-08T07:09:44.000Z</time>
</trkpt>
<trkpt lat="43.478655" lon="3.461445">
<ele>71.2</ele>
<time>2013-05-08T07:09:45.000Z</time>
</trkpt>
<trkpt lat="43.478627" lon="3.461124">
<ele>71.9</ele>
<time>2013-05-08T07:09:46.000Z</time>
</trkpt>
<trkpt lat="43.478598" lon="3.460789">
<ele>72.2</ele>
<time>2013-05-08T07:09:47.000Z</time>
</trkpt>
<trkpt lat="43.478574" lon="3.460465">
<ele>73.5</ele>
<time>2013-05-08T07:09:48.000Z</time>
</trkpt>
<trkpt lat="43.478517" lon="3.45984">
<ele>74.5</ele>
<time>2013-05-08T07:09:50.000Z</time>
</trkpt>
<trkpt lat="43.478484" lon="3.45954">
<ele>75.1</ele>
<time>2013-05-08T07:09:51.000Z</time>
</trkpt>
<trkpt lat="43.478443" lon="3.459238">
<ele>75.3</ele>
<time>2013-05-08T07:09:52.000Z</time>
</trkpt>
<trkpt lat="43.478392" lon="3.458932">
<ele>75.5</ele>
<time>2013-05-08T07:09:53.000Z</time>
</trkpt>
<trkpt lat="43.478333" lon="3.458617">
<ele>75.3</ele>
<time>2013-05-08T07:09:54.000Z</time>
</trkpt>
<trkpt lat="43.478243" lon="3.458299">
<ele>74.8</ele>
<time>2013-05-08T07:09:55.000Z</time>
</trkpt>
<trkpt lat="43.478146" lon="3.457982">
<ele>74.7</ele>
<time>2013-05-08T07:09:56.000Z</time>
</trkpt>
<trkpt lat="43.478007" lon="3.457692">
<ele>74.3</ele>
<time>2013-05-08T07:09:57.000Z</time>
</trkpt>
<trkpt lat="43.477793" lon="3.457457">
<ele>74.1</ele>
<time>2013-05-08T07:09:58.000Z</time>
</trkpt>
<trkpt lat="43.477574" lon="3.457215">
<ele>74.2</ele>
<time>2013-05-08T07:09:59.000Z</time>
</trkpt>
<trkpt lat="43.477374" lon="3.456967">
<ele>74.8</ele>
<time>2013-05-08T07:10:00.000Z</time>
</trkpt>
<trkpt lat="43.477174" lon="3.456721">
<ele>75.2</ele>
<time>2013-05-08T07:10:01.000Z</time>
</trkpt>
<trkpt lat="43.476972" lon="3.456478">
<ele>75.2</ele>
<time>2013-05-08T07:10:02.000Z</time>
</trkpt>
<trkpt lat="43.476766" lon="3.456224">
<ele>74.7</ele>
<time>2013-05-08T07:10:03.000Z</time>
</trkpt>
<trkpt lat="43.476564" lon="3.455973">
<ele>74.1</ele>
<time>2013-05-08T07:10:04.000Z</time>
</trkpt>
<trkpt lat="43.476361" lon="3.455721">
<ele>73.4</ele>
<time>2013-05-08T07:10:05.000Z</time>
</trkpt>
<trkpt lat="43.476162" lon="3.455475">
<ele>72.8</ele>
<time>2013-05-08T07:10:06.000Z</time>
</trkpt>
<trkpt lat="43.475953" lon="3.455225">
<ele>72.3</ele>
<time>2013-05-08T07:10:07.000Z</time>
</trkpt>
<trkpt lat="43.47574" lon="3.454971">
<ele>72</ele>
<time>2013-05-08T07:10:08.000Z</time>
</trkpt>
<trkpt lat="43.475537" lon="3.454714">
<ele>71.8</ele>
<time>2013-05-08T07:10:09.000Z</time>
</trkpt>
<trkpt lat="43.475343" lon="3.454465">
<ele>71.6</ele>
<time>2013-05-08T07:10:10.000Z</time>
</trkpt>
<trkpt lat="43.475173" lon="3.454233">
<ele>71.4</ele>
<time>2013-05-08T07:10:11.000Z</time>
</trkpt>
<trkpt lat="43.475013" lon="3.454014">
<ele>71.2</ele>
<time>2013-05-08T07:10:12.000Z</time>
</trkpt>
<trkpt lat="43.474854" lon="3.453811">
<ele>71.2</ele>
<time>2013-05-08T07:10:13.000Z</time>
</trkpt>
<trkpt lat="43.47469" lon="3.453612">
<ele>71.3</ele>
<time>2013-05-08T07:10:14.000Z</time>
</trkpt>
<trkpt lat="43.474522" lon="3.453414">
<ele>71.6</ele>
<time>2013-05-08T07:10:15.000Z</time>
</trkpt>
<trkpt lat="43.474356" lon="3.453214">
<ele>71.9</ele>
<time>2013-05-08T07:10:16.000Z</time>
</trkpt>
<trkpt lat="43.474204" lon="3.453022">
<ele>72.3</ele>
<time>2013-05-08T07:10:17.000Z</time>
</trkpt>
<trkpt lat="43.474074" lon="3.452848">
<ele>72.7</ele>
<time>2013-05-08T07:10:18.000Z</time>
</trkpt>
<trkpt lat="43.473953" lon="3.452659">
<ele>72.9</ele>
<time>2013-05-08T07:10:19.000Z</time>
</trkpt>
<trkpt lat="43.473837" lon="3.452459">
<ele>73.1</ele>
<time>2013-05-08T07:10:20.000Z</time>
</trkpt>
<trkpt lat="43.473746" lon="3.45223">
<ele>73.1</ele>
<time>2013-05-08T07:10:21.000Z</time>
</trkpt>
<trkpt lat="43.473677" lon="3.451963">
<ele>72.9</ele>
<time>2013-05-08T07:10:22.000Z</time>
</trkpt>
<trkpt lat="43.473614" lon="3.451685">
<ele>72.6</ele>
<time>2013-05-08T07:10:23.000Z</time>
</trkpt>
<trkpt lat="43.473587" lon="3.451397">
<ele>72.2</ele>
<time>2013-05-08T07:10:24.000Z</time>
</trkpt>
<trkpt lat="43.473587" lon="3.451102">
<ele>71.5</ele>
<time>2013-05-08T07:10:25.000Z</time>
</trkpt>
<trkpt lat="43.473638" lon="3.450782">
<ele>70.5</ele>
<time>2013-05-08T07:10:26.000Z</time>
</trkpt>
<trkpt lat="43.473726" lon="3.450463">
<ele>69.9</ele>
<time>2013-05-08T07:10:27.000Z</time>
</trkpt>
<trkpt lat="43.473814" lon="3.450135">
<ele>70.5</ele>
<time>2013-05-08T07:10:28.000Z</time>
</trkpt>
<trkpt lat="43.473874" lon="3.449852">
<ele>70.9</ele>
<time>2013-05-08T07:10:29.000Z</time>
</trkpt>
<trkpt lat="43.473937" lon="3.449577">
<ele>71.8</ele>
<time>2013-05-08T07:10:30.000Z</time>
</trkpt>
<trkpt lat="43.473989" lon="3.449323">
<ele>72.4</ele>
<time>2013-05-08T07:10:31.000Z</time>
</trkpt>
<trkpt lat="43.47404" lon="3.44908">
<ele>73.1</ele>
<time>2013-05-08T07:10:32.000Z</time>
</trkpt>
<trkpt lat="43.474094" lon="3.448836">
<ele>74</ele>
<time>2013-05-08T07:10:33.000Z</time>
</trkpt>
<trkpt lat="43.474145" lon="3.448592">
<ele>75</ele>
<time>2013-05-08T07:10:34.000Z</time>
</trkpt>
<trkpt lat="43.474196" lon="3.448349">
<ele>75.9</ele>
<time>2013-05-08T07:10:35.000Z</time>
</trkpt>
<trkpt lat="43.474245" lon="3.448106">
<ele>76.7</ele>
<time>2013-05-08T07:10:36.000Z</time>
</trkpt>
<trkpt lat="43.474293" lon="3.447863">
<ele>77.3</ele>
<time>2013-05-08T07:10:36.999Z</time>
</trkpt>
<trkpt lat="43.474345" lon="3.447617">
<ele>77.9</ele>
<time>2013-05-08T07:10:37.999Z</time>
</trkpt>
<trkpt lat="43.474398" lon="3.447362">
<ele>78.4</ele>
<time>2013-05-08T07:10:38.999Z</time>
</trkpt>
<trkpt lat="43.474455" lon="3.4471">
<ele>78.9</ele>
<time>2013-05-08T07:10:39.999Z</time>
</trkpt>
<trkpt lat="43.474511" lon="3.446842">
<ele>79.4</ele>
<time>2013-05-08T07:10:40.999Z</time>
</trkpt>
<trkpt lat="43.474566" lon="3.446588">
<ele>79.5</ele>
<time>2013-05-08T07:10:41.999Z</time>
</trkpt>
<trkpt lat="43.47462" lon="3.446343">
<ele>79.5</ele>
<time>2013-05-08T07:10:42.999Z</time>
</trkpt>
<trkpt lat="43.47467" lon="3.446108">
<ele>79.6</ele>
<time>2013-05-08T07:10:43.999Z</time>
</trkpt>
<trkpt lat="43.474713" lon="3.445879">
<ele>79.8</ele>
<time>2013-05-08T07:10:44.999Z</time>
</trkpt>
<trkpt lat="43.474755" lon="3.445657">
<ele>80.1</ele>
<time>2013-05-08T07:10:45.999Z</time>
</trkpt>
<trkpt lat="43.474798" lon="3.445429">
<ele>80.5</ele>
<time>2013-05-08T07:10:46.999Z</time>
</trkpt>
<trkpt lat="43.474842" lon="3.445188">
<ele>80.9</ele>
<time>2013-05-08T07:10:47.999Z</time>
</trkpt>
<trkpt lat="43.474933" lon="3.444689">
<ele>81.4</ele>
<time>2013-05-08T07:10:49.999Z</time>
</trkpt>
<trkpt lat="43.474979" lon="3.444427">
<ele>81.5</ele>
<time>2013-05-08T07:10:50.999Z</time>
</trkpt>
<trkpt lat="43.475026" lon="3.44415">
<ele>81.6</ele>
<time>2013-05-08T07:10:51.999Z</time>
</trkpt>
<trkpt lat="43.475075" lon="3.443866">
<ele>81.6</ele>
<time>2013-05-08T07:10:52.999Z</time>
</trkpt>
<trkpt lat="43.475123" lon="3.44357">
<ele>81.7</ele>
<time>2013-05-08T07:10:53.999Z</time>
</trkpt>
<trkpt lat="43.475174" lon="3.443266">
<ele>81.6</ele>
<time>2013-05-08T07:10:54.999Z</time>
</trkpt>
<trkpt lat="43.475226" lon="3.442958">
<ele>81.4</ele>
<time>2013-05-08T07:10:55.999Z</time>
</trkpt>
<trkpt lat="43.475278" lon="3.44265">
<ele>81.2</ele>
<time>2013-05-08T07:10:56.999Z</time>
</trkpt>
<trkpt lat="43.475333" lon="3.442338">
<ele>80.9</ele>
<time>2013-05-08T07:10:57.999Z</time>
</trkpt>
<trkpt lat="43.475388" lon="3.442029">
<ele>80.7</ele>
<time>2013-05-08T07:10:58.999Z</time>
</trkpt>
<trkpt lat="43.475444" lon="3.441717">
<ele>80.4</ele>
<time>2013-05-08T07:10:59.999Z</time>
</trkpt>
<trkpt lat="43.475499" lon="3.441412">
<ele>80.1</ele>
<time>2013-05-08T07:11:00.999Z</time>
</trkpt>
<trkpt lat="43.475548" lon="3.441117">
<ele>80</ele>
<time>2013-05-08T07:11:01.999Z</time>
</trkpt>
<trkpt lat="43.475596" lon="3.440836">
<ele>80.1</ele>
<time>2013-05-08T07:11:02.999Z</time>
</trkpt>
<trkpt lat="43.475648" lon="3.440563">
<ele>79.9</ele>
<time>2013-05-08T07:11:03.999Z</time>
</trkpt>
<trkpt lat="43.475694" lon="3.440314">
<ele>79.6</ele>
<time>2013-05-08T07:11:04.999Z</time>
</trkpt>
<trkpt lat="43.47574" lon="3.440084">
<ele>78.9</ele>
<time>2013-05-08T07:11:05.999Z</time>
</trkpt>
<trkpt lat="43.47578" lon="3.439873">
<ele>78.6</ele>
<time>2013-05-08T07:11:06.999Z</time>
</trkpt>
<trkpt lat="43.475818" lon="3.439677">
<ele>78.3</ele>
<time>2013-05-08T07:11:07.999Z</time>
</trkpt>
<trkpt lat="43.475852" lon="3.439498">
<ele>78.2</ele>
<time>2013-05-08T07:11:08.999Z</time>
</trkpt>
<trkpt lat="43.475882" lon="3.439339">
<ele>78</ele>
<time>2013-05-08T07:11:09.999Z</time>
</trkpt>
<trkpt lat="43.475911" lon="3.439191">
<ele>77.9</ele>
<time>2013-05-08T07:11:10.999Z</time>
</trkpt>
<trkpt lat="43.475935" lon="3.43907">
<ele>77.8</ele>
<time>2013-05-08T07:11:11.999Z</time>
</trkpt>
<trkpt lat="43.475955" lon="3.438983">
<ele>77.8</ele>
<time>2013-05-08T07:11:12.999Z</time>
</trkpt>
<trkpt lat="43.475972" lon="3.438911">
<ele>77.8</ele>
<time>2013-05-08T07:11:13.999Z</time>
</trkpt>
<trkpt lat="43.475989" lon="3.438835">
<ele>77.7</ele>
<time>2013-05-08T07:11:14.999Z</time>
</trkpt>
<trkpt lat="43.476006" lon="3.438761">
<ele>77.4</ele>
<time>2013-05-08T07:11:15.999Z</time>
</trkpt>
<trkpt lat="43.476032" lon="3.438667">
<ele>76.9</ele>
<time>2013-05-08T07:11:16.999Z</time>
</trkpt>
<trkpt lat="43.476099" lon="3.438587">
<ele>76</ele>
<time>2013-05-08T07:11:17.999Z</time>
</trkpt>
<trkpt lat="43.476174" lon="3.438511">
<ele>75.3</ele>
<time>2013-05-08T07:11:18.999Z</time>
</trkpt>
<trkpt lat="43.476245" lon="3.438445">
<ele>74.5</ele>
<time>2013-05-08T07:11:19.999Z</time>
</trkpt>
<trkpt lat="43.476309" lon="3.438381">
<ele>73.6</ele>
<time>2013-05-08T07:11:20.999Z</time>
</trkpt>
<trkpt lat="43.476331" lon="3.438266">
<ele>73.1</ele>
<time>2013-05-08T07:11:21.999Z</time>
</trkpt>
<trkpt lat="43.476349" lon="3.438147">
<ele>72.8</ele>
<time>2013-05-08T07:11:22.999Z</time>
</trkpt>
<trkpt lat="43.476307" lon="3.438022">
<ele>72.5</ele>
<time>2013-05-08T07:11:23.999Z</time>
</trkpt>
<trkpt lat="43.47626" lon="3.437898">
<ele>72.7</ele>
<time>2013-05-08T07:11:24.999Z</time>
</trkpt>
<trkpt lat="43.476239" lon="3.437753">
<ele>72.8</ele>
<time>2013-05-08T07:11:25.999Z</time>
</trkpt>
<trkpt lat="43.476243" lon="3.437614">
<ele>72.9</ele>
<time>2013-05-08T07:11:26.999Z</time>
</trkpt>
<trkpt lat="43.476253" lon="3.437482">
<ele>73.1</ele>
<time>2013-05-08T07:11:27.999Z</time>
</trkpt>
<trkpt lat="43.476269" lon="3.43735">
<ele>73.2</ele>
<time>2013-05-08T07:11:28.999Z</time>
</trkpt>
<trkpt lat="43.476289" lon="3.437214">
<ele>73</ele>
<time>2013-05-08T07:11:29.999Z</time>
</trkpt>
<trkpt lat="43.476311" lon="3.437077">
<ele>72.8</ele>
<time>2013-05-08T07:11:30.999Z</time>
</trkpt>
<trkpt lat="43.476326" lon="3.43697">
<ele>72.4</ele>
<time>2013-05-08T07:11:31.999Z</time>
</trkpt>
<trkpt lat="43.476342" lon="3.436861">
<ele>72.9</ele>
<time>2013-05-08T07:11:32.999Z</time>
</trkpt>
<trkpt lat="43.476361" lon="3.436764">
<ele>73.4</ele>
<time>2013-05-08T07:11:33.999Z</time>
</trkpt>
<trkpt lat="43.476378" lon="3.436681">
<ele>73.9</ele>
<time>2013-05-08T07:11:34.999Z</time>
</trkpt>
<trkpt lat="43.476396" lon="3.436602">
<ele>74.4</ele>
<time>2013-05-08T07:11:35.999Z</time>
</trkpt>
<trkpt lat="43.476431" lon="3.436511">
<ele>74.6</ele>
<time>2013-05-08T07:11:36.999Z</time>
</trkpt>
<trkpt lat="43.476485" lon="3.436424">
<ele>75</ele>
<time>2013-05-08T07:11:37.999Z</time>
</trkpt>
<trkpt lat="43.476546" lon="3.436338">
<ele>75.5</ele>
<time>2013-05-08T07:11:38.999Z</time>
</trkpt>
<trkpt lat="43.47661" lon="3.436252">
<ele>75.3</ele>
<time>2013-05-08T07:11:39.999Z</time>
</trkpt>
<trkpt lat="43.476671" lon="3.436134">
<ele>75.1</ele>
<time>2013-05-08T07:11:40.999Z</time>
</trkpt>
<trkpt lat="43.476739" lon="3.436005">
<ele>75.4</ele>
<time>2013-05-08T07:11:41.999Z</time>
</trkpt>
<trkpt lat="43.47685" lon="3.435931">
<ele>75.2</ele>
<time>2013-05-08T07:11:42.999Z</time>
</trkpt>
<trkpt lat="43.476986" lon="3.435907">
<ele>75.3</ele>
<time>2013-05-08T07:11:43.999Z</time>
</trkpt>
<trkpt lat="43.477144" lon="3.435909">
<ele>75.3</ele>
<time>2013-05-08T07:11:44.999Z</time>
</trkpt>
<trkpt lat="43.477288" lon="3.435955">
<ele>75.2</ele>
<time>2013-05-08T07:11:45.999Z</time>
</trkpt>
<trkpt lat="43.477404" lon="3.435994">
<ele>74.8</ele>
<time>2013-05-08T07:11:46.999Z</time>
</trkpt>
<trkpt lat="43.477511" lon="3.43603">
<ele>74.2</ele>
<time>2013-05-08T07:11:47.999Z</time>
</trkpt>
<trkpt lat="43.477675" lon="3.43609">
<ele>73.2</ele>
<time>2013-05-08T07:11:49.999Z</time>
</trkpt>
<trkpt lat="43.477754" lon="3.436121">
<ele>72.9</ele>
<time>2013-05-08T07:11:50.999Z</time>
</trkpt>
<trkpt lat="43.47784" lon="3.43616">
<ele>72.9</ele>
<time>2013-05-08T07:11:51.999Z</time>
</trkpt>
<trkpt lat="43.477925" lon="3.436203">
<ele>73</ele>
<time>2013-05-08T07:11:52.999Z</time>
</trkpt>
<trkpt lat="43.478017" lon="3.436252">
<ele>72.9</ele>
<time>2013-05-08T07:11:53.999Z</time>
</trkpt>
<trkpt lat="43.478122" lon="3.436298">
<ele>72.7</ele>
<time>2013-05-08T07:11:54.999Z</time>
</trkpt>
<trkpt lat="43.478232" lon="3.436345">
<ele>72.8</ele>
<time>2013-05-08T07:11:55.999Z</time>
</trkpt>
<trkpt lat="43.47835" lon="3.436394">
<ele>72.9</ele>
<time>2013-05-08T07:11:56.999Z</time>
</trkpt>
<trkpt lat="43.478475" lon="3.436445">
<ele>72.9</ele>
<time>2013-05-08T07:11:57.999Z</time>
</trkpt>
<trkpt lat="43.478599" lon="3.436496">
<ele>72.7</ele>
<time>2013-05-08T07:11:58.999Z</time>
</trkpt>
<trkpt lat="43.47873" lon="3.436545">
<ele>72.4</ele>
<time>2013-05-08T07:11:59.999Z</time>
</trkpt>
<trkpt lat="43.478873" lon="3.436586">
<ele>72.3</ele>
<time>2013-05-08T07:12:00.999Z</time>
</trkpt>
<trkpt lat="43.479038" lon="3.436616">
<ele>72.4</ele>
<time>2013-05-08T07:12:01.999Z</time>
</trkpt>
<trkpt lat="43.479218" lon="3.436643">
<ele>72.6</ele>
<time>2013-05-08T07:12:02.999Z</time>
</trkpt>
<trkpt lat="43.479398" lon="3.436661">
<ele>72.8</ele>
<time>2013-05-08T07:12:03.999Z</time>
</trkpt>
<trkpt lat="43.47958" lon="3.436679">
<ele>72.8</ele>
<time>2013-05-08T07:12:04.999Z</time>
</trkpt>
<trkpt lat="43.479763" lon="3.436696">
<ele>72.9</ele>
<time>2013-05-08T07:12:05.999Z</time>
</trkpt>
<trkpt lat="43.479941" lon="3.436715">
<ele>72.8</ele>
<time>2013-05-08T07:12:06.999Z</time>
</trkpt>
<trkpt lat="43.480126" lon="3.436738">
<ele>72.8</ele>
<time>2013-05-08T07:12:07.999Z</time>
</trkpt>
<trkpt lat="43.480315" lon="3.436768">
<ele>72.8</ele>
<time>2013-05-08T07:12:08.999Z</time>
</trkpt>
<trkpt lat="43.480513" lon="3.43681">
<ele>72.9</ele>
<time>2013-05-08T07:12:09.999Z</time>
</trkpt>
<trkpt lat="43.480716" lon="3.436858">
<ele>72.9</ele>
<time>2013-05-08T07:12:10.999Z</time>
</trkpt>
<trkpt lat="43.48093" lon="3.436916">
<ele>72.9</ele>
<time>2013-05-08T07:12:11.999Z</time>
</trkpt>
<trkpt lat="43.481155" lon="3.436979">
<ele>73</ele>
<time>2013-05-08T07:12:12.999Z</time>
</trkpt>
<trkpt lat="43.48138" lon="3.437038">
<ele>72.9</ele>
<time>2013-05-08T07:12:13.999Z</time>
</trkpt>
<trkpt lat="43.481604" lon="3.437096">
<ele>72.8</ele>
<time>2013-05-08T07:12:14.999Z</time>
</trkpt>
<trkpt lat="43.481829" lon="3.437154">
<ele>72.4</ele>
<time>2013-05-08T07:12:15.999Z</time>
</trkpt>
<trkpt lat="43.482058" lon="3.437213">
<ele>71.9</ele>
<time>2013-05-08T07:12:16.999Z</time>
</trkpt>
<trkpt lat="43.482293" lon="3.437271">
<ele>71.5</ele>
<time>2013-05-08T07:12:17.999Z</time>
</trkpt>
<trkpt lat="43.482528" lon="3.437326">
<ele>71.3</ele>
<time>2013-05-08T07:12:18.999Z</time>
</trkpt>
<trkpt lat="43.482764" lon="3.43738">
<ele>71.3</ele>
<time>2013-05-08T07:12:19.999Z</time>
</trkpt>
<trkpt lat="43.482996" lon="3.437438">
<ele>71.4</ele>
<time>2013-05-08T07:12:20.999Z</time>
</trkpt>
<trkpt lat="43.483216" lon="3.437492">
<ele>71.8</ele>
<time>2013-05-08T07:12:21.999Z</time>
</trkpt>
<trkpt lat="43.483434" lon="3.437546">
<ele>72.2</ele>
<time>2013-05-08T07:12:22.999Z</time>
</trkpt>
<trkpt lat="43.483652" lon="3.437593">
<ele>72.4</ele>
<time>2013-05-08T07:12:23.999Z</time>
</trkpt>
<trkpt lat="43.483868" lon="3.437641">
<ele>72.3</ele>
<time>2013-05-08T07:12:24.999Z</time>
</trkpt>
<trkpt lat="43.484084" lon="3.437693">
<ele>72.3</ele>
<time>2013-05-08T07:12:25.999Z</time>
</trkpt>
<trkpt lat="43.484306" lon="3.437749">
<ele>72.4</ele>
<time>2013-05-08T07:12:26.999Z</time>
</trkpt>
<trkpt lat="43.484542" lon="3.437811">
<ele>72.4</ele>
<time>2013-05-08T07:12:27.999Z</time>
</trkpt>
<trkpt lat="43.48478" lon="3.437874">
<ele>72.6</ele>
<time>2013-05-08T07:12:28.999Z</time>
</trkpt>
<trkpt lat="43.485016" lon="3.437936">
<ele>72.7</ele>
<time>2013-05-08T07:12:29.999Z</time>
</trkpt>
<trkpt lat="43.485247" lon="3.438">
<ele>73</ele>
<time>2013-05-08T07:12:30.999Z</time>
</trkpt>
<trkpt lat="43.485483" lon="3.43804">
<ele>73</ele>
<time>2013-05-08T07:12:31.999Z</time>
</trkpt>
<trkpt lat="43.485711" lon="3.438081">
<ele>73.1</ele>
<time>2013-05-08T07:12:32.999Z</time>
</trkpt>
<trkpt lat="43.48593" lon="3.438123">
<ele>73.2</ele>
<time>2013-05-08T07:12:33.999Z</time>
</trkpt>
<trkpt lat="43.486144" lon="3.438163">
<ele>73.2</ele>
<time>2013-05-08T07:12:34.999Z</time>
</trkpt>
<trkpt lat="43.486357" lon="3.438203">
<ele>73.1</ele>
<time>2013-05-08T07:12:35.999Z</time>
</trkpt>
<trkpt lat="43.48657" lon="3.438239">
<ele>73.3</ele>
<time>2013-05-08T07:12:36.999Z</time>
</trkpt>
<trkpt lat="43.486777" lon="3.438269">
<ele>73.4</ele>
<time>2013-05-08T07:12:37.999Z</time>
</trkpt>
<trkpt lat="43.486986" lon="3.438291">
<ele>73.3</ele>
<time>2013-05-08T07:12:38.999Z</time>
</trkpt>
<trkpt lat="43.487187" lon="3.438286">
<ele>72.8</ele>
<time>2013-05-08T07:12:39.999Z</time>
</trkpt>
<trkpt lat="43.487388" lon="3.438251">
<ele>72.4</ele>
<time>2013-05-08T07:12:40.999Z</time>
</trkpt>
<trkpt lat="43.487586" lon="3.438191">
<ele>71.7</ele>
<time>2013-05-08T07:12:41.999Z</time>
</trkpt>
<trkpt lat="43.487792" lon="3.438104">
<ele>70.7</ele>
<time>2013-05-08T07:12:42.999Z</time>
</trkpt>
<trkpt lat="43.487999" lon="3.438013">
<ele>69.8</ele>
<time>2013-05-08T07:12:43.999Z</time>
</trkpt>
<trkpt lat="43.488192" lon="3.437916">
<ele>69.4</ele>
<time>2013-05-08T07:12:44.999Z</time>
</trkpt>
<trkpt lat="43.488378" lon="3.437815">
<ele>69.2</ele>
<time>2013-05-08T07:12:45.999Z</time>
</trkpt>
<trkpt lat="43.488557" lon="3.437713">
<ele>69</ele>
<time>2013-05-08T07:12:46.999Z</time>
</trkpt>
<trkpt lat="43.488734" lon="3.43761">
<ele>68.4</ele>
<time>2013-05-08T07:12:47.999Z</time>
</trkpt>
<trkpt lat="43.48911" lon="3.43745">
<ele>68.2</ele>
<time>2013-05-08T07:12:49.999Z</time>
</trkpt>
<trkpt lat="43.489297" lon="3.437413">
<ele>68.5</ele>
<time>2013-05-08T07:12:50.999Z</time>
</trkpt>
<trkpt lat="43.489483" lon="3.437404">
<ele>68.8</ele>
<time>2013-05-08T07:12:51.999Z</time>
</trkpt>
<trkpt lat="43.489668" lon="3.437404">
<ele>69.2</ele>
<time>2013-05-08T07:12:52.999Z</time>
</trkpt>
<trkpt lat="43.489843" lon="3.437422">
<ele>69.9</ele>
<time>2013-05-08T07:12:53.999Z</time>
</trkpt>
<trkpt lat="43.490005" lon="3.437447">
<ele>70.4</ele>
<time>2013-05-08T07:12:54.999Z</time>
</trkpt>
<trkpt lat="43.490162" lon="3.437476">
<ele>70.9</ele>
<time>2013-05-08T07:12:55.999Z</time>
</trkpt>
<trkpt lat="43.490306" lon="3.437504">
<ele>71.3</ele>
<time>2013-05-08T07:12:56.999Z</time>
</trkpt>
<trkpt lat="43.490448" lon="3.437532">
<ele>71.6</ele>
<time>2013-05-08T07:12:57.999Z</time>
</trkpt>
<trkpt lat="43.490578" lon="3.437571">
<ele>71.1</ele>
<time>2013-05-08T07:12:58.999Z</time>
</trkpt>
<trkpt lat="43.490702" lon="3.437625">
<ele>70.7</ele>
<time>2013-05-08T07:12:59.999Z</time>
</trkpt>
<trkpt lat="43.490841" lon="3.437686">
<ele>70.5</ele>
<time>2013-05-08T07:13:00.999Z</time>
</trkpt>
<trkpt lat="43.490968" lon="3.437756">
<ele>70.5</ele>
<time>2013-05-08T07:13:01.999Z</time>
</trkpt>
<trkpt lat="43.49109" lon="3.437825">
<ele>70.8</ele>
<time>2013-05-08T07:13:02.999Z</time>
</trkpt>
<trkpt lat="43.491208" lon="3.437899">
<ele>71.5</ele>
<time>2013-05-08T07:13:03.999Z</time>
</trkpt>
<trkpt lat="43.491312" lon="3.437968">
<ele>71.8</ele>
<time>2013-05-08T07:13:04.999Z</time>
</trkpt>
<trkpt lat="43.491411" lon="3.43804">
<ele>72.3</ele>
<time>2013-05-08T07:13:05.999Z</time>
</trkpt>
<trkpt lat="43.491512" lon="3.438117">
<ele>72.6</ele>
<time>2013-05-08T07:13:06.999Z</time>
</trkpt>
<trkpt lat="43.491605" lon="3.438178">
<ele>72.9</ele>
<time>2013-05-08T07:13:07.999Z</time>
</trkpt>
<trkpt lat="43.491696" lon="3.438244">
<ele>73.2</ele>
<time>2013-05-08T07:13:08.999Z</time>
</trkpt>
<trkpt lat="43.491787" lon="3.438306">
<ele>72.8</ele>
<time>2013-05-08T07:13:09.999Z</time>
</trkpt>
<trkpt lat="43.491879" lon="3.438364">
<ele>72.1</ele>
<time>2013-05-08T07:13:10.999Z</time>
</trkpt>
<trkpt lat="43.49198" lon="3.438421">
<ele>71.3</ele>
<time>2013-05-08T07:13:11.999Z</time>
</trkpt>
<trkpt lat="43.492089" lon="3.438469">
<ele>70.6</ele>
<time>2013-05-08T07:13:12.999Z</time>
</trkpt>
<trkpt lat="43.492208" lon="3.438486">
<ele>70</ele>
<time>2013-05-08T07:13:13.999Z</time>
</trkpt>
<trkpt lat="43.49233" lon="3.438501">
<ele>69.7</ele>
<time>2013-05-08T07:13:14.999Z</time>
</trkpt>
<trkpt lat="43.49246" lon="3.438508">
<ele>69.3</ele>
<time>2013-05-08T07:13:15.999Z</time>
</trkpt>
<trkpt lat="43.492588" lon="3.438517">
<ele>69.7</ele>
<time>2013-05-08T07:13:16.999Z</time>
</trkpt>
<trkpt lat="43.492721" lon="3.43852">
<ele>70</ele>
<time>2013-05-08T07:13:17.999Z</time>
</trkpt>
<trkpt lat="43.492847" lon="3.438522">
<ele>70.3</ele>
<time>2013-05-08T07:13:18.999Z</time>
</trkpt>
<trkpt lat="43.492973" lon="3.438514">
<ele>71.2</ele>
<time>2013-05-08T07:13:19.999Z</time>
</trkpt>
<trkpt lat="43.493107" lon="3.438506">
<ele>72.2</ele>
<time>2013-05-08T07:13:20.999Z</time>
</trkpt>
<trkpt lat="43.493243" lon="3.438502">
<ele>73</ele>
<time>2013-05-08T07:13:21.999Z</time>
</trkpt>
<trkpt lat="43.493374" lon="3.4385">
<ele>73.7</ele>
<time>2013-05-08T07:13:22.999Z</time>
</trkpt>
<trkpt lat="43.493502" lon="3.438497">
<ele>74.2</ele>
<time>2013-05-08T07:13:23.999Z</time>
</trkpt>
<trkpt lat="43.493624" lon="3.438494">
<ele>74.9</ele>
<time>2013-05-08T07:13:24.999Z</time>
</trkpt>
<trkpt lat="43.493729" lon="3.438494">
<ele>75.2</ele>
<time>2013-05-08T07:13:25.999Z</time>
</trkpt>
<trkpt lat="43.493836" lon="3.438496">
<ele>75.4</ele>
<time>2013-05-08T07:13:26.999Z</time>
</trkpt>
<trkpt lat="43.493943" lon="3.438507">
<ele>75.5</ele>
<time>2013-05-08T07:13:27.999Z</time>
</trkpt>
<trkpt lat="43.494049" lon="3.438524">
<ele>75.6</ele>
<time>2013-05-08T07:13:28.999Z</time>
</trkpt>
<trkpt lat="43.494157" lon="3.438545">
<ele>75.5</ele>
<time>2013-05-08T07:13:29.999Z</time>
</trkpt>
<trkpt lat="43.494261" lon="3.438568">
<ele>75.4</ele>
<time>2013-05-08T07:13:30.999Z</time>
</trkpt>
<trkpt lat="43.494358" lon="3.438593">
<ele>75.3</ele>
<time>2013-05-08T07:13:31.999Z</time>
</trkpt>
<trkpt lat="43.494449" lon="3.438622">
<ele>75.5</ele>
<time>2013-05-08T07:13:32.999Z</time>
</trkpt>
<trkpt lat="43.494512" lon="3.438699">
<ele>75.6</ele>
<time>2013-05-08T07:13:33.999Z</time>
</trkpt>
<trkpt lat="43.494571" lon="3.438771">
<ele>75.5</ele>
<time>2013-05-08T07:13:34.999Z</time>
</trkpt>
<trkpt lat="43.49464" lon="3.438802">
<ele>75.3</ele>
<time>2013-05-08T07:13:35.999Z</time>
</trkpt>
<trkpt lat="43.494709" lon="3.4388">
<ele>75.2</ele>
<time>2013-05-08T07:13:36.999Z</time>
</trkpt>
<trkpt lat="43.494741" lon="3.438741">
<ele>75.4</ele>
<time>2013-05-08T07:13:37.999Z</time>
</trkpt>
<trkpt lat="43.494779" lon="3.438665">
<ele>76.3</ele>
<time>2013-05-08T07:13:38.999Z</time>
</trkpt>
<trkpt lat="43.494822" lon="3.438576">
<ele>77.2</ele>
<time>2013-05-08T07:13:39.999Z</time>
</trkpt>
<trkpt lat="43.494915" lon="3.438529">
<ele>77.8</ele>
<time>2013-05-08T07:13:40.999Z</time>
</trkpt>
<trkpt lat="43.495011" lon="3.438496">
<ele>78.2</ele>
<time>2013-05-08T07:13:41.999Z</time>
</trkpt>
<trkpt lat="43.495153" lon="3.438465">
<ele>78.5</ele>
<time>2013-05-08T07:13:42.999Z</time>
</trkpt>
<trkpt lat="43.495308" lon="3.438459">
<ele>78.8</ele>
<time>2013-05-08T07:13:43.999Z</time>
</trkpt>
<trkpt lat="43.495463" lon="3.438448">
<ele>78.8</ele>
<time>2013-05-08T07:13:44.999Z</time>
</trkpt>
<trkpt lat="43.49562" lon="3.438432">
<ele>78.9</ele>
<time>2013-05-08T07:13:45.999Z</time>
</trkpt>
<trkpt lat="43.495781" lon="3.43841">
<ele>79.4</ele>
<time>2013-05-08T07:13:46.999Z</time>
</trkpt>
<trkpt lat="43.495931" lon="3.438391">
<ele>79.7</ele>
<time>2013-05-08T07:13:47.999Z</time>
</trkpt>
<trkpt lat="43.496206" lon="3.438352">
<ele>80.2</ele>
<time>2013-05-08T07:13:49.999Z</time>
</trkpt>
<trkpt lat="43.496344" lon="3.438332">
<ele>80.4</ele>
<time>2013-05-08T07:13:50.999Z</time>
</trkpt>
<trkpt lat="43.496481" lon="3.438321">
<ele>80.5</ele>
<time>2013-05-08T07:13:51.999Z</time>
</trkpt>
<trkpt lat="43.496624" lon="3.438311">
<ele>80.4</ele>
<time>2013-05-08T07:13:52.999Z</time>
</trkpt>
<trkpt lat="43.496791" lon="3.4383">
<ele>80</ele>
<time>2013-05-08T07:13:53.999Z</time>
</trkpt>
<trkpt lat="43.49697" lon="3.438282">
<ele>79.7</ele>
<time>2013-05-08T07:13:54.999Z</time>
</trkpt>
<trkpt lat="43.497149" lon="3.438265">
<ele>79.3</ele>
<time>2013-05-08T07:13:55.999Z</time>
</trkpt>
<trkpt lat="43.497316" lon="3.438249">
<ele>78.9</ele>
<time>2013-05-08T07:13:56.999Z</time>
</trkpt>
<trkpt lat="43.497468" lon="3.438234">
<ele>78.8</ele>
<time>2013-05-08T07:13:57.999Z</time>
</trkpt>
<trkpt lat="43.497609" lon="3.438218">
<ele>78.9</ele>
<time>2013-05-08T07:13:58.999Z</time>
</trkpt>
<trkpt lat="43.497743" lon="3.438208">
<ele>79</ele>
<time>2013-05-08T07:13:59.999Z</time>
</trkpt>
<trkpt lat="43.49787" lon="3.438197">
<ele>79.3</ele>
<time>2013-05-08T07:14:00.999Z</time>
</trkpt>
<trkpt lat="43.497985" lon="3.438185">
<ele>80.1</ele>
<time>2013-05-08T07:14:01.999Z</time>
</trkpt>
<trkpt lat="43.498086" lon="3.438179">
<ele>80.8</ele>
<time>2013-05-08T07:14:02.999Z</time>
</trkpt>
<trkpt lat="43.498191" lon="3.438174">
<ele>81.2</ele>
<time>2013-05-08T07:14:03.999Z</time>
</trkpt>
<trkpt lat="43.498291" lon="3.438169">
<ele>81.4</ele>
<time>2013-05-08T07:14:04.999Z</time>
</trkpt>
<trkpt lat="43.498394" lon="3.438156">
<ele>81.3</ele>
<time>2013-05-08T07:14:05.999Z</time>
</trkpt>
<trkpt lat="43.49851" lon="3.438138">
<ele>81.2</ele>
<time>2013-05-08T07:14:06.999Z</time>
</trkpt>
<trkpt lat="43.498637" lon="3.438119">
<ele>81</ele>
<time>2013-05-08T07:14:07.999Z</time>
</trkpt>
<trkpt lat="43.498767" lon="3.4381">
<ele>80.9</ele>
<time>2013-05-08T07:14:08.999Z</time>
</trkpt>
<trkpt lat="43.498904" lon="3.438083">
<ele>81.1</ele>
<time>2013-05-08T07:14:09.999Z</time>
</trkpt>
<trkpt lat="43.499045" lon="3.438064">
<ele>81.3</ele>
<time>2013-05-08T07:14:10.999Z</time>
</trkpt>
<trkpt lat="43.499189" lon="3.438044">
<ele>81.8</ele>
<time>2013-05-08T07:14:11.999Z</time>
</trkpt>
<trkpt lat="43.49933" lon="3.438026">
<ele>82.2</ele>
<time>2013-05-08T07:14:12.999Z</time>
</trkpt>
<trkpt lat="43.499466" lon="3.438008">
<ele>82.3</ele>
<time>2013-05-08T07:14:13.999Z</time>
</trkpt>
<trkpt lat="43.499601" lon="3.437987">
<ele>82.5</ele>
<time>2013-05-08T07:14:14.999Z</time>
</trkpt>
<trkpt lat="43.499737" lon="3.437958">
<ele>82.4</ele>
<time>2013-05-08T07:14:15.999Z</time>
</trkpt>
<trkpt lat="43.499895" lon="3.437916">
<ele>82.3</ele>
<time>2013-05-08T07:14:16.999Z</time>
</trkpt>
<trkpt lat="43.500071" lon="3.437863">
<ele>82.2</ele>
<time>2013-05-08T07:14:17.999Z</time>
</trkpt>
<trkpt lat="43.500258" lon="3.437793">
<ele>82.1</ele>
<time>2013-05-08T07:14:18.999Z</time>
</trkpt>
<trkpt lat="43.500457" lon="3.437708">
<ele>81.9</ele>
<time>2013-05-08T07:14:19.999Z</time>
</trkpt>
<trkpt lat="43.50065" lon="3.437603">
<ele>81.9</ele>
<time>2013-05-08T07:14:20.999Z</time>
</trkpt>
<trkpt lat="43.50085" lon="3.437485">
<ele>81.8</ele>
<time>2013-05-08T07:14:21.999Z</time>
</trkpt>
<trkpt lat="43.501059" lon="3.437365">
<ele>81.8</ele>
<time>2013-05-08T07:14:22.999Z</time>
</trkpt>
<trkpt lat="43.501277" lon="3.437245">
<ele>81.8</ele>
<time>2013-05-08T07:14:23.999Z</time>
</trkpt>
<trkpt lat="43.501503" lon="3.437129">
<ele>81.7</ele>
<time>2013-05-08T07:14:24.999Z</time>
</trkpt>
<trkpt lat="43.501724" lon="3.437023">
<ele>81.4</ele>
<time>2013-05-08T07:14:25.999Z</time>
</trkpt>
<trkpt lat="43.501949" lon="3.436922">
<ele>81.2</ele>
<time>2013-05-08T07:14:26.999Z</time>
</trkpt>
<trkpt lat="43.502178" lon="3.436827">
<ele>81.1</ele>
<time>2013-05-08T07:14:27.999Z</time>
</trkpt>
<trkpt lat="43.502414" lon="3.436731">
<ele>80.9</ele>
<time>2013-05-08T07:14:28.999Z</time>
</trkpt>
<trkpt lat="43.502648" lon="3.436636">
<ele>80.4</ele>
<time>2013-05-08T07:14:29.999Z</time>
</trkpt>
<trkpt lat="43.502882" lon="3.436545">
<ele>80</ele>
<time>2013-05-08T07:14:30.999Z</time>
</trkpt>
<trkpt lat="43.503118" lon="3.436459">
<ele>79.8</ele>
<time>2013-05-08T07:14:31.999Z</time>
</trkpt>
<trkpt lat="43.503348" lon="3.436378">
<ele>79.8</ele>
<time>2013-05-08T07:14:32.999Z</time>
</trkpt>
<trkpt lat="43.503573" lon="3.436295">
<ele>79.7</ele>
<time>2013-05-08T07:14:33.999Z</time>
</trkpt>
<trkpt lat="43.503789" lon="3.43621">
<ele>79.3</ele>
<time>2013-05-08T07:14:34.999Z</time>
</trkpt>
<trkpt lat="43.504004" lon="3.436125">
<ele>79</ele>
<time>2013-05-08T07:14:35.999Z</time>
</trkpt>
<trkpt lat="43.504222" lon="3.436044">
<ele>78.7</ele>
<time>2013-05-08T07:14:36.999Z</time>
</trkpt>
<trkpt lat="43.504442" lon="3.435975">
<ele>78.6</ele>
<time>2013-05-08T07:14:37.999Z</time>
</trkpt>
<trkpt lat="43.504665" lon="3.435918">
<ele>78.6</ele>
<time>2013-05-08T07:14:38.999Z</time>
</trkpt>
<trkpt lat="43.504891" lon="3.435867">
<ele>78.6</ele>
<time>2013-05-08T07:14:39.999Z</time>
</trkpt>
<trkpt lat="43.505121" lon="3.435816">
<ele>78.9</ele>
<time>2013-05-08T07:14:40.999Z</time>
</trkpt>
<trkpt lat="43.505354" lon="3.43576">
<ele>79.2</ele>
<time>2013-05-08T07:14:41.999Z</time>
</trkpt>
<trkpt lat="43.50559" lon="3.4357">
<ele>79.6</ele>
<time>2013-05-08T07:14:42.999Z</time>
</trkpt>
<trkpt lat="43.505827" lon="3.43564">
<ele>80.1</ele>
<time>2013-05-08T07:14:43.999Z</time>
</trkpt>
<trkpt lat="43.506068" lon="3.435584">
<ele>81</ele>
<time>2013-05-08T07:14:44.999Z</time>
</trkpt>
<trkpt lat="43.506312" lon="3.435509">
<ele>82.1</ele>
<time>2013-05-08T07:14:45.999Z</time>
</trkpt>
<trkpt lat="43.506557" lon="3.435432">
<ele>82.9</ele>
<time>2013-05-08T07:14:46.999Z</time>
</trkpt>
<trkpt lat="43.5068" lon="3.435345">
<ele>83.3</ele>
<time>2013-05-08T07:14:47.999Z</time>
</trkpt>
<trkpt lat="43.507285" lon="3.435166">
<ele>83.6</ele>
<time>2013-05-08T07:14:49.999Z</time>
</trkpt>
<trkpt lat="43.507519" lon="3.435072">
<ele>83.2</ele>
<time>2013-05-08T07:14:50.999Z</time>
</trkpt>
<trkpt lat="43.507744" lon="3.434973">
<ele>82.6</ele>
<time>2013-05-08T07:14:51.999Z</time>
</trkpt>
<trkpt lat="43.50796" lon="3.434872">
<ele>82.1</ele>
<time>2013-05-08T07:14:52.999Z</time>
</trkpt>
<trkpt lat="43.508179" lon="3.434772">
<ele>81.7</ele>
<time>2013-05-08T07:14:53.999Z</time>
</trkpt>
<trkpt lat="43.508404" lon="3.434673">
<ele>81.4</ele>
<time>2013-05-08T07:14:54.999Z</time>
</trkpt>
<trkpt lat="43.508631" lon="3.434577">
<ele>81.3</ele>
<time>2013-05-08T07:14:55.999Z</time>
</trkpt>
<trkpt lat="43.50886" lon="3.434488">
<ele>81.2</ele>
<time>2013-05-08T07:14:56.999Z</time>
</trkpt>
<trkpt lat="43.509088" lon="3.434393">
<ele>81</ele>
<time>2013-05-08T07:14:57.999Z</time>
</trkpt>
<trkpt lat="43.509311" lon="3.434302">
<ele>80.8</ele>
<time>2013-05-08T07:14:58.999Z</time>
</trkpt>
<trkpt lat="43.509538" lon="3.434211">
<ele>80.6</ele>
<time>2013-05-08T07:14:59.999Z</time>
</trkpt>
<trkpt lat="43.509767" lon="3.434116">
<ele>80.1</ele>
<time>2013-05-08T07:15:00.999Z</time>
</trkpt>
<trkpt lat="43.509999" lon="3.434023">
<ele>79.6</ele>
<time>2013-05-08T07:15:01.999Z</time>
</trkpt>
<trkpt lat="43.510233" lon="3.433933">
<ele>79.3</ele>
<time>2013-05-08T07:15:02.999Z</time>
</trkpt>
<trkpt lat="43.510471" lon="3.433842">
<ele>79.2</ele>
<time>2013-05-08T07:15:03.999Z</time>
</trkpt>
<trkpt lat="43.510711" lon="3.433752">
<ele>78.9</ele>
<time>2013-05-08T07:15:04.999Z</time>
</trkpt>
<trkpt lat="43.510942" lon="3.433659">
<ele>78.7</ele>
<time>2013-05-08T07:15:05.999Z</time>
</trkpt>
<trkpt lat="43.511173" lon="3.433565">
<ele>78.7</ele>
<time>2013-05-08T07:15:06.999Z</time>
</trkpt>
<trkpt lat="43.511405" lon="3.433473">
<ele>78.9</ele>
<time>2013-05-08T07:15:07.999Z</time>
</trkpt>
<trkpt lat="43.511636" lon="3.433384">
<ele>79</ele>
<time>2013-05-08T07:15:08.999Z</time>
</trkpt>
<trkpt lat="43.511867" lon="3.433296">
<ele>79.4</ele>
<time>2013-05-08T07:15:09.999Z</time>
</trkpt>
<trkpt lat="43.512097" lon="3.433212">
<ele>80</ele>
<time>2013-05-08T07:15:10.999Z</time>
</trkpt>
<trkpt lat="43.512325" lon="3.433126">
<ele>80.5</ele>
<time>2013-05-08T07:15:11.999Z</time>
</trkpt>
<trkpt lat="43.512554" lon="3.433045">
<ele>81.1</ele>
<time>2013-05-08T07:15:12.999Z</time>
</trkpt>
<trkpt lat="43.512784" lon="3.432968">
<ele>81.8</ele>
<time>2013-05-08T07:15:13.999Z</time>
</trkpt>
<trkpt lat="43.513018" lon="3.432888">
<ele>82.6</ele>
<time>2013-05-08T07:15:14.999Z</time>
</trkpt>
<trkpt lat="43.513255" lon="3.432803">
<ele>82.8</ele>
<time>2013-05-08T07:15:15.999Z</time>
</trkpt>
<trkpt lat="43.51345" lon="3.43265">
<ele>83.1</ele>
<time>2013-05-08T07:15:16.999Z</time>
</trkpt>
<trkpt lat="43.513645" lon="3.432455">
<ele>83.5</ele>
<time>2013-05-08T07:15:17.999Z</time>
</trkpt>
<trkpt lat="43.513818" lon="3.432232">
<ele>83.7</ele>
<time>2013-05-08T07:15:18.999Z</time>
</trkpt>
<trkpt lat="43.513971" lon="3.431999">
<ele>83.8</ele>
<time>2013-05-08T07:15:19.999Z</time>
</trkpt>
<trkpt lat="43.5141" lon="3.431736">
<ele>83.7</ele>
<time>2013-05-08T07:15:20.999Z</time>
</trkpt>
<trkpt lat="43.51418" lon="3.431405">
<ele>84.6</ele>
<time>2013-05-08T07:15:21.999Z</time>
</trkpt>
<trkpt lat="43.514265" lon="3.431081">
<ele>85.8</ele>
<time>2013-05-08T07:15:22.999Z</time>
</trkpt>
<trkpt lat="43.514355" lon="3.430769">
<ele>86.9</ele>
<time>2013-05-08T07:15:23.999Z</time>
</trkpt>
<trkpt lat="43.514447" lon="3.430455">
<ele>87.5</ele>
<time>2013-05-08T07:15:24.999Z</time>
</trkpt>
<trkpt lat="43.514557" lon="3.430159">
<ele>88.3</ele>
<time>2013-05-08T07:15:25.999Z</time>
</trkpt>
<trkpt lat="43.51469" lon="3.429892">
<ele>88.8</ele>
<time>2013-05-08T07:15:26.999Z</time>
</trkpt>
<trkpt lat="43.514826" lon="3.429623">
<ele>89.5</ele>
<time>2013-05-08T07:15:27.999Z</time>
</trkpt>
<trkpt lat="43.514966" lon="3.429353">
<ele>90.2</ele>
<time>2013-05-08T07:15:28.999Z</time>
</trkpt>
<trkpt lat="43.515111" lon="3.429085">
<ele>90.8</ele>
<time>2013-05-08T07:15:29.999Z</time>
</trkpt>
<trkpt lat="43.515252" lon="3.428826">
<ele>91.4</ele>
<time>2013-05-08T07:15:30.999Z</time>
</trkpt>
<trkpt lat="43.515389" lon="3.428577">
<ele>91.9</ele>
<time>2013-05-08T07:15:31.999Z</time>
</trkpt>
<trkpt lat="43.515518" lon="3.428338">
<ele>92.3</ele>
<time>2013-05-08T07:15:32.999Z</time>
</trkpt>
<trkpt lat="43.515641" lon="3.428113">
<ele>92.8</ele>
<time>2013-05-08T07:15:33.999Z</time>
</trkpt>
<trkpt lat="43.515761" lon="3.427893">
<ele>93.2</ele>
<time>2013-05-08T07:15:34.999Z</time>
</trkpt>
<trkpt lat="43.515877" lon="3.427679">
<ele>93.6</ele>
<time>2013-05-08T07:15:35.999Z</time>
</trkpt>
<trkpt lat="43.515992" lon="3.427464">
<ele>94.1</ele>
<time>2013-05-08T07:15:36.999Z</time>
</trkpt>
<trkpt lat="43.516108" lon="3.427251">
<ele>94.5</ele>
<time>2013-05-08T07:15:37.999Z</time>
</trkpt>
<trkpt lat="43.516228" lon="3.427037">
<ele>94.7</ele>
<time>2013-05-08T07:15:38.999Z</time>
</trkpt>
<trkpt lat="43.516354" lon="3.426813">
<ele>94.9</ele>
<time>2013-05-08T07:15:39.999Z</time>
</trkpt>
<trkpt lat="43.51648" lon="3.426584">
<ele>94.9</ele>
<time>2013-05-08T07:15:40.999Z</time>
</trkpt>
<trkpt lat="43.516611" lon="3.426345">
<ele>94.7</ele>
<time>2013-05-08T07:15:41.999Z</time>
</trkpt>
<trkpt lat="43.516741" lon="3.426102">
<ele>94.5</ele>
<time>2013-05-08T07:15:42.999Z</time>
</trkpt>
<trkpt lat="43.516864" lon="3.425853">
<ele>94.3</ele>
<time>2013-05-08T07:15:43.999Z</time>
</trkpt>
<trkpt lat="43.516979" lon="3.425592">
<ele>94.2</ele>
<time>2013-05-08T07:15:44.999Z</time>
</trkpt>
<trkpt lat="43.517087" lon="3.425334">
<ele>94.1</ele>
<time>2013-05-08T07:15:45.999Z</time>
</trkpt>
<trkpt lat="43.517198" lon="3.425074">
<ele>94.3</ele>
<time>2013-05-08T07:15:46.999Z</time>
</trkpt>
<trkpt lat="43.517332" lon="3.424806">
<ele>94.3</ele>
<time>2013-05-08T07:15:47.999Z</time>
</trkpt>
<trkpt lat="43.517621" lon="3.424304">
<ele>94</ele>
<time>2013-05-08T07:15:49.999Z</time>
</trkpt>
<trkpt lat="43.517772" lon="3.424059">
<ele>94.2</ele>
<time>2013-05-08T07:15:50.999Z</time>
</trkpt>
<trkpt lat="43.517922" lon="3.423827">
<ele>94.2</ele>
<time>2013-05-08T07:15:51.999Z</time>
</trkpt>
<trkpt lat="43.518076" lon="3.423612">
<ele>94.3</ele>
<time>2013-05-08T07:15:52.999Z</time>
</trkpt>
<trkpt lat="43.518235" lon="3.423399">
<ele>94.5</ele>
<time>2013-05-08T07:15:53.999Z</time>
</trkpt>
<trkpt lat="43.518398" lon="3.42319">
<ele>94.3</ele>
<time>2013-05-08T07:15:54.999Z</time>
</trkpt>
<trkpt lat="43.518576" lon="3.422993">
<ele>93.9</ele>
<time>2013-05-08T07:15:55.999Z</time>
</trkpt>
<trkpt lat="43.518753" lon="3.422793">
<ele>93.5</ele>
<time>2013-05-08T07:15:56.999Z</time>
</trkpt>
<trkpt lat="43.518945" lon="3.422603">
<ele>93.5</ele>
<time>2013-05-08T07:15:57.999Z</time>
</trkpt>
<trkpt lat="43.519136" lon="3.422416">
<ele>93.4</ele>
<time>2013-05-08T07:15:58.999Z</time>
</trkpt>
<trkpt lat="43.519325" lon="3.422221">
<ele>93.4</ele>
<time>2013-05-08T07:15:59.999Z</time>
</trkpt>
<trkpt lat="43.519517" lon="3.422028">
<ele>93.4</ele>
<time>2013-05-08T07:16:00.999Z</time>
</trkpt>
<trkpt lat="43.519702" lon="3.421836">
<ele>93.2</ele>
<time>2013-05-08T07:16:01.999Z</time>
</trkpt>
<trkpt lat="43.519885" lon="3.421645">
<ele>93.2</ele>
<time>2013-05-08T07:16:02.999Z</time>
</trkpt>
<trkpt lat="43.520066" lon="3.421454">
<ele>93.3</ele>
<time>2013-05-08T07:16:03.999Z</time>
</trkpt>
<trkpt lat="43.520248" lon="3.421264">
<ele>93.5</ele>
<time>2013-05-08T07:16:04.999Z</time>
</trkpt>
<trkpt lat="43.520425" lon="3.421071">
<ele>93.7</ele>
<time>2013-05-08T07:16:05.999Z</time>
</trkpt>
<trkpt lat="43.520592" lon="3.420853">
<ele>94.2</ele>
<time>2013-05-08T07:16:06.999Z</time>
</trkpt>
<trkpt lat="43.520752" lon="3.420621">
<ele>94.5</ele>
<time>2013-05-08T07:16:07.999Z</time>
</trkpt>
<trkpt lat="43.520896" lon="3.420357">
<ele>95</ele>
<time>2013-05-08T07:16:08.999Z</time>
</trkpt>
<trkpt lat="43.521039" lon="3.42007">
<ele>95.5</ele>
<time>2013-05-08T07:16:09.999Z</time>
</trkpt>
<trkpt lat="43.521184" lon="3.419779">
<ele>96.2</ele>
<time>2013-05-08T07:16:10.999Z</time>
</trkpt>
<trkpt lat="43.521326" lon="3.41949">
<ele>96.9</ele>
<time>2013-05-08T07:16:11.999Z</time>
</trkpt>
<trkpt lat="43.521468" lon="3.419199">
<ele>97.6</ele>
<time>2013-05-08T07:16:12.999Z</time>
</trkpt>
<trkpt lat="43.52161" lon="3.418911">
<ele>98.2</ele>
<time>2013-05-08T07:16:13.999Z</time>
</trkpt>
<trkpt lat="43.521754" lon="3.418624">
<ele>98.7</ele>
<time>2013-05-08T07:16:14.999Z</time>
</trkpt>
<trkpt lat="43.521898" lon="3.418338">
<ele>99.3</ele>
<time>2013-05-08T07:16:15.999Z</time>
</trkpt>
<trkpt lat="43.522042" lon="3.418052">
<ele>99.9</ele>
<time>2013-05-08T07:16:16.999Z</time>
</trkpt>
<trkpt lat="43.522186" lon="3.417767">
<ele>100.5</ele>
<time>2013-05-08T07:16:17.999Z</time>
</trkpt>
<trkpt lat="43.522336" lon="3.417494">
<ele>101.1</ele>
<time>2013-05-08T07:16:18.999Z</time>
</trkpt>
<trkpt lat="43.522489" lon="3.417236">
<ele>101.6</ele>
<time>2013-05-08T07:16:19.999Z</time>
</trkpt>
<trkpt lat="43.522638" lon="3.416986">
<ele>102</ele>
<time>2013-05-08T07:16:20.999Z</time>
</trkpt>
<trkpt lat="43.522784" lon="3.416741">
<ele>102.5</ele>
<time>2013-05-08T07:16:21.999Z</time>
</trkpt>
<trkpt lat="43.522925" lon="3.416508">
<ele>103.1</ele>
<time>2013-05-08T07:16:22.999Z</time>
</trkpt>
<trkpt lat="43.523068" lon="3.416295">
<ele>103.8</ele>
<time>2013-05-08T07:16:23.999Z</time>
</trkpt>
<trkpt lat="43.5232" lon="3.416092">
<ele>104.5</ele>
<time>2013-05-08T07:16:24.999Z</time>
</trkpt>
<trkpt lat="43.523322" lon="3.415933">
<ele>104.9</ele>
<time>2013-05-08T07:16:25.999Z</time>
</trkpt>
<trkpt lat="43.523442" lon="3.41582">
<ele>105.1</ele>
<time>2013-05-08T07:16:26.999Z</time>
</trkpt>
<trkpt lat="43.523532" lon="3.415741">
<ele>105.1</ele>
<time>2013-05-08T07:16:27.999Z</time>
</trkpt>
<trkpt lat="43.523614" lon="3.415678">
<ele>105.2</ele>
<time>2013-05-08T07:16:28.999Z</time>
</trkpt>
<trkpt lat="43.523684" lon="3.415615">
<ele>105.2</ele>
<time>2013-05-08T07:16:29.999Z</time>
</trkpt>
<trkpt lat="43.523748" lon="3.415569">
<ele>105.3</ele>
<time>2013-05-08T07:16:30.999Z</time>
</trkpt>
<trkpt lat="43.523802" lon="3.415533">
<ele>105.7</ele>
<time>2013-05-08T07:16:31.999Z</time>
</trkpt>
<trkpt lat="43.523853" lon="3.415501">
<ele>106.1</ele>
<time>2013-05-08T07:16:32.999Z</time>
</trkpt>
<trkpt lat="43.523904" lon="3.415468">
<ele>106.6</ele>
<time>2013-05-08T07:16:33.999Z</time>
</trkpt>
<trkpt lat="43.523921" lon="3.415412">
<ele>106.7</ele>
<time>2013-05-08T07:16:34.999Z</time>
</trkpt>
<trkpt lat="43.523896" lon="3.415337">
<ele>106.8</ele>
<time>2013-05-08T07:16:35.999Z</time>
</trkpt>
<trkpt lat="43.523846" lon="3.41525">
<ele>106.9</ele>
<time>2013-05-08T07:16:36.999Z</time>
</trkpt>
<trkpt lat="43.523787" lon="3.415146">
<ele>107</ele>
<time>2013-05-08T07:16:37.999Z</time>
</trkpt>
<trkpt lat="43.523721" lon="3.415024">
<ele>106.8</ele>
<time>2013-05-08T07:16:38.999Z</time>
</trkpt>
<trkpt lat="43.52364" lon="3.41488">
<ele>106.1</ele>
<time>2013-05-08T07:16:39.999Z</time>
</trkpt>
<trkpt lat="43.52355" lon="3.41474">
<ele>105.5</ele>
<time>2013-05-08T07:16:40.999Z</time>
</trkpt>
<trkpt lat="43.523394" lon="3.414679">
<ele>105.4</ele>
<time>2013-05-08T07:16:41.999Z</time>
</trkpt>
<trkpt lat="43.523233" lon="3.414639">
<ele>105.5</ele>
<time>2013-05-08T07:16:42.999Z</time>
</trkpt>
<trkpt lat="43.523056" lon="3.414605">
<ele>105.3</ele>
<time>2013-05-08T07:16:43.999Z</time>
</trkpt>
<trkpt lat="43.522886" lon="3.414564">
<ele>105.2</ele>
<time>2013-05-08T07:16:44.999Z</time>
</trkpt>
<trkpt lat="43.522707" lon="3.414505">
<ele>105.4</ele>
<time>2013-05-08T07:16:45.999Z</time>
</trkpt>
<trkpt lat="43.522545" lon="3.414394">
<ele>105.3</ele>
<time>2013-05-08T07:16:46.999Z</time>
</trkpt>
<trkpt lat="43.522391" lon="3.414286">
<ele>104.8</ele>
<time>2013-05-08T07:16:47.999Z</time>
</trkpt>
<trkpt lat="43.522074" lon="3.414014">
<ele>104.9</ele>
<time>2013-05-08T07:16:49.999Z</time>
</trkpt>
<trkpt lat="43.521892" lon="3.413882">
<ele>105.2</ele>
<time>2013-05-08T07:16:50.999Z</time>
</trkpt>
<trkpt lat="43.521689" lon="3.41376">
<ele>105.5</ele>
<time>2013-05-08T07:16:51.999Z</time>
</trkpt>
<trkpt lat="43.521481" lon="3.413648">
<ele>106</ele>
<time>2013-05-08T07:16:52.999Z</time>
</trkpt>
<trkpt lat="43.521245" lon="3.413534">
<ele>106.7</ele>
<time>2013-05-08T07:16:53.999Z</time>
</trkpt>
<trkpt lat="43.520992" lon="3.413422">
<ele>107.7</ele>
<time>2013-05-08T07:16:54.999Z</time>
</trkpt>
<trkpt lat="43.520719" lon="3.413298">
<ele>108.6</ele>
<time>2013-05-08T07:16:55.999Z</time>
</trkpt>
<trkpt lat="43.520445" lon="3.413156">
<ele>109.2</ele>
<time>2013-05-08T07:16:56.999Z</time>
</trkpt>
<trkpt lat="43.520182" lon="3.413008">
<ele>109.7</ele>
<time>2013-05-08T07:16:57.999Z</time>
</trkpt>
<trkpt lat="43.519924" lon="3.412857">
<ele>110.3</ele>
<time>2013-05-08T07:16:58.999Z</time>
</trkpt>
<trkpt lat="43.519671" lon="3.412693">
<ele>111</ele>
<time>2013-05-08T07:16:59.999Z</time>
</trkpt>
<trkpt lat="43.51943" lon="3.412512">
<ele>111.5</ele>
<time>2013-05-08T07:17:00.999Z</time>
</trkpt>
<trkpt lat="43.519202" lon="3.412335">
<ele>111.9</ele>
<time>2013-05-08T07:17:01.999Z</time>
</trkpt>
<trkpt lat="43.518993" lon="3.412155">
<ele>112.3</ele>
<time>2013-05-08T07:17:02.999Z</time>
</trkpt>
<trkpt lat="43.518804" lon="3.41197">
<ele>112.6</ele>
<time>2013-05-08T07:17:03.999Z</time>
</trkpt>
<trkpt lat="43.518623" lon="3.411774">
<ele>112.9</ele>
<time>2013-05-08T07:17:04.999Z</time>
</trkpt>
<trkpt lat="43.518457" lon="3.411559">
<ele>113.3</ele>
<time>2013-05-08T07:17:05.999Z</time>
</trkpt>
<trkpt lat="43.518286" lon="3.411344">
<ele>113.3</ele>
<time>2013-05-08T07:17:06.999Z</time>
</trkpt>
<trkpt lat="43.518118" lon="3.411137">
<ele>113.3</ele>
<time>2013-05-08T07:17:07.999Z</time>
</trkpt>
<trkpt lat="43.517931" lon="3.410949">
<ele>113.3</ele>
<time>2013-05-08T07:17:08.999Z</time>
</trkpt>
<trkpt lat="43.517734" lon="3.410773">
<ele>113.5</ele>
<time>2013-05-08T07:17:09.999Z</time>
</trkpt>
<trkpt lat="43.51753" lon="3.410601">
<ele>113.8</ele>
<time>2013-05-08T07:17:10.999Z</time>
</trkpt>
<trkpt lat="43.51732" lon="3.410435">
<ele>114.2</ele>
<time>2013-05-08T07:17:11.999Z</time>
</trkpt>
<trkpt lat="43.517102" lon="3.410284">
<ele>114.7</ele>
<time>2013-05-08T07:17:12.999Z</time>
</trkpt>
<trkpt lat="43.516882" lon="3.410133">
<ele>115.4</ele>
<time>2013-05-08T07:17:13.999Z</time>
</trkpt>
<trkpt lat="43.516669" lon="3.410001">
<ele>116.2</ele>
<time>2013-05-08T07:17:14.999Z</time>
</trkpt>
<trkpt lat="43.516473" lon="3.409879">
<ele>116.8</ele>
<time>2013-05-08T07:17:15.999Z</time>
</trkpt>
<trkpt lat="43.516293" lon="3.409769">
<ele>117.2</ele>
<time>2013-05-08T07:17:16.999Z</time>
</trkpt>
<trkpt lat="43.51613" lon="3.409665">
<ele>117.5</ele>
<time>2013-05-08T07:17:17.999Z</time>
</trkpt>
<trkpt lat="43.515988" lon="3.409564">
<ele>117.7</ele>
<time>2013-05-08T07:17:18.999Z</time>
</trkpt>
<trkpt lat="43.515869" lon="3.409474">
<ele>118.2</ele>
<time>2013-05-08T07:17:19.999Z</time>
</trkpt>
<trkpt lat="43.515753" lon="3.409382">
<ele>118.9</ele>
<time>2013-05-08T07:17:20.999Z</time>
</trkpt>
<trkpt lat="43.515654" lon="3.409305">
<ele>119.7</ele>
<time>2013-05-08T07:17:21.999Z</time>
</trkpt>
<trkpt lat="43.515562" lon="3.409233">
<ele>120.6</ele>
<time>2013-05-08T07:17:22.999Z</time>
</trkpt>
<trkpt lat="43.515477" lon="3.409157">
<ele>121.3</ele>
<time>2013-05-08T07:17:23.999Z</time>
</trkpt>
<trkpt lat="43.515387" lon="3.409078">
<ele>122</ele>
<time>2013-05-08T07:17:24.999Z</time>
</trkpt>
<trkpt lat="43.5153" lon="3.408992">
<ele>122.3</ele>
<time>2013-05-08T07:17:25.999Z</time>
</trkpt>
<trkpt lat="43.515213" lon="3.4089">
<ele>122</ele>
<time>2013-05-08T07:17:26.999Z</time>
</trkpt>
<trkpt lat="43.515121" lon="3.408799">
<ele>121.3</ele>
<time>2013-05-08T07:17:27.999Z</time>
</trkpt>
<trkpt lat="43.515036" lon="3.40871">
<ele>120.6</ele>
<time>2013-05-08T07:17:28.999Z</time>
</trkpt>
<trkpt lat="43.514967" lon="3.408635">
<ele>120.1</ele>
<time>2013-05-08T07:17:29.999Z</time>
</trkpt>
<trkpt lat="43.514913" lon="3.408578">
<ele>119.9</ele>
<time>2013-05-08T07:17:30.999Z</time>
</trkpt>
<trkpt lat="43.514867" lon="3.408525">
<ele>119.7</ele>
<time>2013-05-08T07:17:31.999Z</time>
</trkpt>
<trkpt lat="43.51483" lon="3.408481">
<ele>119.4</ele>
<time>2013-05-08T07:17:32.999Z</time>
</trkpt>
<trkpt lat="43.514792" lon="3.408433">
<ele>119.7</ele>
<time>2013-05-08T07:17:33.999Z</time>
</trkpt>
<trkpt lat="43.514754" lon="3.408381">
<ele>119.7</ele>
<time>2013-05-08T07:17:34.999Z</time>
</trkpt>
<trkpt lat="43.514712" lon="3.408326">
<ele>119.8</ele>
<time>2013-05-08T07:17:35.999Z</time>
</trkpt>
<trkpt lat="43.51466" lon="3.408261">
<ele>120.2</ele>
<time>2013-05-08T07:17:36.999Z</time>
</trkpt>
<trkpt lat="43.514593" lon="3.408179">
<ele>120.7</ele>
<time>2013-05-08T07:17:37.999Z</time>
</trkpt>
<trkpt lat="43.514528" lon="3.408099">
<ele>120.8</ele>
<time>2013-05-08T07:17:38.999Z</time>
</trkpt>
<trkpt lat="43.514449" lon="3.408004">
<ele>121.5</ele>
<time>2013-05-08T07:17:39.999Z</time>
</trkpt>
<trkpt lat="43.514358" lon="3.4079">
<ele>122</ele>
<time>2013-05-08T07:17:40.999Z</time>
</trkpt>
<trkpt lat="43.514268" lon="3.407796">
<ele>122.7</ele>
<time>2013-05-08T07:17:41.999Z</time>
</trkpt>
<trkpt lat="43.514183" lon="3.407703">
<ele>123.2</ele>
<time>2013-05-08T07:17:42.999Z</time>
</trkpt>
<trkpt lat="43.514102" lon="3.407619">
<ele>123.4</ele>
<time>2013-05-08T07:17:43.999Z</time>
</trkpt>
<trkpt lat="43.514024" lon="3.407537">
<ele>123.4</ele>
<time>2013-05-08T07:17:44.999Z</time>
</trkpt>
<trkpt lat="43.513944" lon="3.407452">
<ele>123.3</ele>
<time>2013-05-08T07:17:45.999Z</time>
</trkpt>
<trkpt lat="43.513864" lon="3.407365">
<ele>123.1</ele>
<time>2013-05-08T07:17:46.999Z</time>
</trkpt>
<trkpt lat="43.513785" lon="3.407271">
<ele>123</ele>
<time>2013-05-08T07:17:47.999Z</time>
</trkpt>
<trkpt lat="43.513659" lon="3.407031">
<ele>121.6</ele>
<time>2013-05-08T07:17:49.999Z</time>
</trkpt>
<trkpt lat="43.513601" lon="3.406917">
<ele>121.1</ele>
<time>2013-05-08T07:17:50.999Z</time>
</trkpt>
<trkpt lat="43.513549" lon="3.406813">
<ele>120.6</ele>
<time>2013-05-08T07:17:51.999Z</time>
</trkpt>
<trkpt lat="43.513503" lon="3.406722">
<ele>120.4</ele>
<time>2013-05-08T07:17:52.999Z</time>
</trkpt>
<trkpt lat="43.513458" lon="3.406635">
<ele>119.9</ele>
<time>2013-05-08T07:17:53.999Z</time>
</trkpt>
<trkpt lat="43.51341" lon="3.406548">
<ele>119.2</ele>
<time>2013-05-08T07:17:54.999Z</time>
</trkpt>
<trkpt lat="43.513361" lon="3.406465">
<ele>118.7</ele>
<time>2013-05-08T07:17:55.999Z</time>
</trkpt>
<trkpt lat="43.513314" lon="3.406383">
<ele>118.2</ele>
<time>2013-05-08T07:17:56.999Z</time>
</trkpt>
<trkpt lat="43.513261" lon="3.406291">
<ele>118.2</ele>
<time>2013-05-08T07:17:57.999Z</time>
</trkpt>
<trkpt lat="43.513197" lon="3.406184">
<ele>118.2</ele>
<time>2013-05-08T07:17:58.999Z</time>
</trkpt>
<trkpt lat="43.513142" lon="3.406091">
<ele>118.2</ele>
<time>2013-05-08T07:17:59.999Z</time>
</trkpt>
<trkpt lat="43.513101" lon="3.406025">
<ele>118.4</ele>
<time>2013-05-08T07:18:00.999Z</time>
</trkpt>
<trkpt lat="43.513071" lon="3.405974">
<ele>118.6</ele>
<time>2013-05-08T07:18:01.999Z</time>
</trkpt>
<trkpt lat="43.513052" lon="3.405943">
<ele>118.6</ele>
<time>2013-05-08T07:18:02.999Z</time>
</trkpt>
<trkpt lat="43.513027" lon="3.405914">
<ele>118.6</ele>
<time>2013-05-08T07:18:03.999Z</time>
</trkpt>
<trkpt lat="43.513009" lon="3.40589">
<ele>118.7</ele>
<time>2013-05-08T07:18:04.999Z</time>
</trkpt>
<trkpt lat="43.512991" lon="3.405866">
<ele>118.7</ele>
<time>2013-05-08T07:18:05.999Z</time>
</trkpt>
<trkpt lat="43.512975" lon="3.405844">
<ele>118.8</ele>
<time>2013-05-08T07:18:06.999Z</time>
</trkpt>
<trkpt lat="43.512954" lon="3.405814">
<ele>118.7</ele>
<time>2013-05-08T07:18:07.999Z</time>
</trkpt>
<trkpt lat="43.512926" lon="3.405776">
<ele>118</ele>
<time>2013-05-08T07:18:08.999Z</time>
</trkpt>
<trkpt lat="43.512877" lon="3.405712">
<ele>117.6</ele>
<time>2013-05-08T07:18:09.999Z</time>
</trkpt>
<trkpt lat="43.51281" lon="3.405624">
<ele>117.3</ele>
<time>2013-05-08T07:18:10.999Z</time>
</trkpt>
<trkpt lat="43.512725" lon="3.405545">
<ele>117.3</ele>
<time>2013-05-08T07:18:11.999Z</time>
</trkpt>
<trkpt lat="43.512638" lon="3.405455">
<ele>117.4</ele>
<time>2013-05-08T07:18:12.999Z</time>
</trkpt>
<trkpt lat="43.512533" lon="3.405356">
<ele>117.7</ele>
<time>2013-05-08T07:18:13.999Z</time>
</trkpt>
<trkpt lat="43.512417" lon="3.405255">
<ele>118</ele>
<time>2013-05-08T07:18:14.999Z</time>
</trkpt>
<trkpt lat="43.512297" lon="3.405167">
<ele>118.1</ele>
<time>2013-05-08T07:18:15.999Z</time>
</trkpt>
<trkpt lat="43.512177" lon="3.40509">
<ele>117.9</ele>
<time>2013-05-08T07:18:16.999Z</time>
</trkpt>
<trkpt lat="43.512046" lon="3.405054">
<ele>117.8</ele>
<time>2013-05-08T07:18:17.999Z</time>
</trkpt>
<trkpt lat="43.511912" lon="3.40502">
<ele>117.7</ele>
<time>2013-05-08T07:18:18.999Z</time>
</trkpt>
<trkpt lat="43.511773" lon="3.404992">
<ele>117.6</ele>
<time>2013-05-08T07:18:19.999Z</time>
</trkpt>
<trkpt lat="43.51164" lon="3.404978">
<ele>118.5</ele>
<time>2013-05-08T07:18:20.999Z</time>
</trkpt>
<trkpt lat="43.511511" lon="3.404977">
<ele>119.7</ele>
<time>2013-05-08T07:18:21.999Z</time>
</trkpt>
<trkpt lat="43.511364" lon="3.404997">
<ele>121.2</ele>
<time>2013-05-08T07:18:22.999Z</time>
</trkpt>
<trkpt lat="43.511208" lon="3.405056">
<ele>122.7</ele>
<time>2013-05-08T07:18:23.999Z</time>
</trkpt>
<trkpt lat="43.511083" lon="3.405118">
<ele>124.3</ele>
<time>2013-05-08T07:18:24.999Z</time>
</trkpt>
<trkpt lat="43.510954" lon="3.40524">
<ele>125.5</ele>
<time>2013-05-08T07:18:25.999Z</time>
</trkpt>
<trkpt lat="43.510826" lon="3.405358">
<ele>126.4</ele>
<time>2013-05-08T07:18:26.999Z</time>
</trkpt>
<trkpt lat="43.510685" lon="3.405471">
<ele>127.6</ele>
<time>2013-05-08T07:18:27.999Z</time>
</trkpt>
<trkpt lat="43.510539" lon="3.405577">
<ele>128.6</ele>
<time>2013-05-08T07:18:28.999Z</time>
</trkpt>
<trkpt lat="43.510361" lon="3.405685">
<ele>129.7</ele>
<time>2013-05-08T07:18:29.999Z</time>
</trkpt>
<trkpt lat="43.51016" lon="3.405792">
<ele>130.6</ele>
<time>2013-05-08T07:18:30.999Z</time>
</trkpt>
<trkpt lat="43.509942" lon="3.405896">
<ele>131.5</ele>
<time>2013-05-08T07:18:31.999Z</time>
</trkpt>
<trkpt lat="43.509694" lon="3.405985">
<ele>132.4</ele>
<time>2013-05-08T07:18:32.999Z</time>
</trkpt>
<trkpt lat="43.50943" lon="3.406059">
<ele>133.7</ele>
<time>2013-05-08T07:18:33.999Z</time>
</trkpt>
<trkpt lat="43.509159" lon="3.406124">
<ele>135</ele>
<time>2013-05-08T07:18:34.999Z</time>
</trkpt>
<trkpt lat="43.508876" lon="3.406188">
<ele>136.4</ele>
<time>2013-05-08T07:18:35.999Z</time>
</trkpt>
<trkpt lat="43.50859" lon="3.406244">
<ele>138</ele>
<time>2013-05-08T07:18:36.999Z</time>
</trkpt>
<trkpt lat="43.508307" lon="3.406288">
<ele>139.5</ele>
<time>2013-05-08T07:18:37.999Z</time>
</trkpt>
<trkpt lat="43.508035" lon="3.406329">
<ele>140.6</ele>
<time>2013-05-08T07:18:38.999Z</time>
</trkpt>
<trkpt lat="43.507777" lon="3.406387">
<ele>140.9</ele>
<time>2013-05-08T07:18:39.999Z</time>
</trkpt>
<trkpt lat="43.50754" lon="3.406444">
<ele>141.1</ele>
<time>2013-05-08T07:18:40.999Z</time>
</trkpt>
<trkpt lat="43.507325" lon="3.406484">
<ele>141.1</ele>
<time>2013-05-08T07:18:41.999Z</time>
</trkpt>
<trkpt lat="43.507118" lon="3.406537">
<ele>141.4</ele>
<time>2013-05-08T07:18:42.999Z</time>
</trkpt>
<trkpt lat="43.506922" lon="3.406601">
<ele>142.1</ele>
<time>2013-05-08T07:18:43.999Z</time>
</trkpt>
<trkpt lat="43.506753" lon="3.406683">
<ele>143.3</ele>
<time>2013-05-08T07:18:44.999Z</time>
</trkpt>
<trkpt lat="43.506618" lon="3.406769">
<ele>144.3</ele>
<time>2013-05-08T07:18:45.999Z</time>
</trkpt>
<trkpt lat="43.50651" lon="3.406846">
<ele>145.6</ele>
<time>2013-05-08T07:18:46.999Z</time>
</trkpt>
<trkpt lat="43.506434" lon="3.406906">
<ele>146.8</ele>
<time>2013-05-08T07:18:47.999Z</time>
</trkpt>
<trkpt lat="43.506383" lon="3.406956">
<ele>147.7</ele>
<time>2013-05-08T07:18:48.999Z</time>
</trkpt>
<trkpt lat="43.506352" lon="3.406991">
<ele>148.6</ele>
<time>2013-05-08T07:18:49.999Z</time>
</trkpt>
<trkpt lat="43.50634" lon="3.407007">
<ele>148.6</ele>
<time>2013-05-08T07:18:50.999Z</time>
</trkpt>
<trkpt lat="43.506329" lon="3.407033">
<ele>148.7</ele>
<time>2013-05-08T07:18:51.999Z</time>
</trkpt>
<trkpt lat="43.506328" lon="3.407067">
<ele>148.7</ele>
<time>2013-05-08T07:18:52.999Z</time>
</trkpt>
<trkpt lat="43.506358" lon="3.407093">
<ele>148.8</ele>
<time>2013-05-08T07:18:54.999Z</time>
</trkpt>
<trkpt lat="43.506389" lon="3.407074">
<ele>149.2</ele>
<time>2013-05-08T07:18:55.999Z</time>
</trkpt>
<trkpt lat="43.506426" lon="3.407022">
<ele>149.9</ele>
<time>2013-05-08T07:18:56.999Z</time>
</trkpt>
<trkpt lat="43.506466" lon="3.40696">
<ele>150.3</ele>
<time>2013-05-08T07:18:57.999Z</time>
</trkpt>
<trkpt lat="43.506502" lon="3.4069">
<ele>150.4</ele>
<time>2013-05-08T07:18:58.999Z</time>
</trkpt>
<trkpt lat="43.506536" lon="3.406837">
<ele>150.7</ele>
<time>2013-05-08T07:18:59.999Z</time>
</trkpt>
<trkpt lat="43.506587" lon="3.406773">
<ele>151.1</ele>
<time>2013-05-08T07:19:00.999Z</time>
</trkpt>
<trkpt lat="43.50663" lon="3.406703">
<ele>151.3</ele>
<time>2013-05-08T07:19:01.999Z</time>
</trkpt>
<trkpt lat="43.506639" lon="3.406604">
<ele>151.4</ele>
<time>2013-05-08T07:19:02.999Z</time>
</trkpt>
<trkpt lat="43.506613" lon="3.406483">
<ele>151.5</ele>
<time>2013-05-08T07:19:03.999Z</time>
</trkpt>
<trkpt lat="43.506569" lon="3.406347">
<ele>151.3</ele>
<time>2013-05-08T07:19:04.999Z</time>
</trkpt>
<trkpt lat="43.506524" lon="3.406188">
<ele>150.7</ele>
<time>2013-05-08T07:19:05.999Z</time>
</trkpt>
<trkpt lat="43.506517" lon="3.406036">
<ele>150.7</ele>
<time>2013-05-08T07:19:06.999Z</time>
</trkpt>
<trkpt lat="43.506515" lon="3.405874">
<ele>150.8</ele>
<time>2013-05-08T07:19:07.999Z</time>
</trkpt>
<trkpt lat="43.506543" lon="3.405727">
<ele>150.8</ele>
<time>2013-05-08T07:19:08.999Z</time>
</trkpt>
<trkpt lat="43.506575" lon="3.405572">
<ele>150.9</ele>
<time>2013-05-08T07:19:09.999Z</time>
</trkpt>
<trkpt lat="43.506614" lon="3.405418">
<ele>150.7</ele>
<time>2013-05-08T07:19:10.999Z</time>
</trkpt>
<trkpt lat="43.506656" lon="3.405264">
<ele>150.6</ele>
<time>2013-05-08T07:19:11.999Z</time>
</trkpt>
<trkpt lat="43.5067" lon="3.405107">
<ele>150.6</ele>
<time>2013-05-08T07:19:12.999Z</time>
</trkpt>
<trkpt lat="43.506745" lon="3.404948">
<ele>150.9</ele>
<time>2013-05-08T07:19:13.999Z</time>
</trkpt>
<trkpt lat="43.506791" lon="3.404789">
<ele>151.5</ele>
<time>2013-05-08T07:19:14.999Z</time>
</trkpt>
<trkpt lat="43.506841" lon="3.404625">
<ele>152.1</ele>
<time>2013-05-08T07:19:15.999Z</time>
</trkpt>
<trkpt lat="43.50689" lon="3.404458">
<ele>152.8</ele>
<time>2013-05-08T07:19:16.999Z</time>
</trkpt>
<trkpt lat="43.50694" lon="3.404288">
<ele>153.5</ele>
<time>2013-05-08T07:19:17.999Z</time>
</trkpt>
<trkpt lat="43.506991" lon="3.40411">
<ele>154.1</ele>
<time>2013-05-08T07:19:18.999Z</time>
</trkpt>
<trkpt lat="43.507043" lon="3.403929">
<ele>154.8</ele>
<time>2013-05-08T07:19:19.999Z</time>
</trkpt>
<trkpt lat="43.507096" lon="3.403746">
<ele>155.4</ele>
<time>2013-05-08T07:19:20.999Z</time>
</trkpt>
<trkpt lat="43.507146" lon="3.403569">
<ele>156</ele>
<time>2013-05-08T07:19:21.999Z</time>
</trkpt>
<trkpt lat="43.507198" lon="3.403392">
<ele>156.4</ele>
<time>2013-05-08T07:19:22.999Z</time>
</trkpt>
<trkpt lat="43.507252" lon="3.403222">
<ele>156.2</ele>
<time>2013-05-08T07:19:23.999Z</time>
</trkpt>
<trkpt lat="43.507326" lon="3.403084">
<ele>156.1</ele>
<time>2013-05-08T07:19:24.999Z</time>
</trkpt>
<trkpt lat="43.507413" lon="3.402994">
<ele>156.2</ele>
<time>2013-05-08T07:19:25.999Z</time>
</trkpt>
<trkpt lat="43.507519" lon="3.402944">
<ele>156</ele>
<time>2013-05-08T07:19:26.999Z</time>
</trkpt>
<trkpt lat="43.50763" lon="3.402897">
<ele>155.2</ele>
<time>2013-05-08T07:19:27.999Z</time>
</trkpt>
<trkpt lat="43.507745" lon="3.402855">
<ele>154.2</ele>
<time>2013-05-08T07:19:28.999Z</time>
</trkpt>
<trkpt lat="43.507855" lon="3.402804">
<ele>152.8</ele>
<time>2013-05-08T07:19:29.999Z</time>
</trkpt>
<trkpt lat="43.50795" lon="3.402717">
<ele>151</ele>
<time>2013-05-08T07:19:30.999Z</time>
</trkpt>
<trkpt lat="43.508013" lon="3.402576">
<ele>149.4</ele>
<time>2013-05-08T07:19:31.999Z</time>
</trkpt>
<trkpt lat="43.508066" lon="3.402406">
<ele>147.7</ele>
<time>2013-05-08T07:19:32.999Z</time>
</trkpt>
<trkpt lat="43.508072" lon="3.402192">
<ele>146.1</ele>
<time>2013-05-08T07:19:33.999Z</time>
</trkpt>
<trkpt lat="43.508074" lon="3.401971">
<ele>144.5</ele>
<time>2013-05-08T07:19:34.999Z</time>
</trkpt>
<trkpt lat="43.508052" lon="3.401719">
<ele>143.3</ele>
<time>2013-05-08T07:19:35.999Z</time>
</trkpt>
<trkpt lat="43.508021" lon="3.401437">
<ele>141.8</ele>
<time>2013-05-08T07:19:36.999Z</time>
</trkpt>
<trkpt lat="43.507988" lon="3.401144">
<ele>140.3</ele>
<time>2013-05-08T07:19:37.999Z</time>
</trkpt>
<trkpt lat="43.507955" lon="3.400844">
<ele>139.3</ele>
<time>2013-05-08T07:19:38.999Z</time>
</trkpt>
<trkpt lat="43.507925" lon="3.400543">
<ele>138.4</ele>
<time>2013-05-08T07:19:39.999Z</time>
</trkpt>
<trkpt lat="43.507879" lon="3.400229">
<ele>137.6</ele>
<time>2013-05-08T07:19:40.999Z</time>
</trkpt>
<trkpt lat="43.507831" lon="3.399914">
<ele>136.7</ele>
<time>2013-05-08T07:19:41.999Z</time>
</trkpt>
<trkpt lat="43.507794" lon="3.399602">
<ele>135.9</ele>
<time>2013-05-08T07:19:42.999Z</time>
</trkpt>
<trkpt lat="43.507753" lon="3.399279">
<ele>134.9</ele>
<time>2013-05-08T07:19:43.999Z</time>
</trkpt>
<trkpt lat="43.507705" lon="3.398949">
<ele>134.2</ele>
<time>2013-05-08T07:19:44.999Z</time>
</trkpt>
<trkpt lat="43.507657" lon="3.398622">
<ele>133.6</ele>
<time>2013-05-08T07:19:45.999Z</time>
</trkpt>
<trkpt lat="43.507606" lon="3.398295">
<ele>133.1</ele>
<time>2013-05-08T07:19:46.999Z</time>
</trkpt>
<trkpt lat="43.507553" lon="3.397969">
<ele>132.6</ele>
<time>2013-05-08T07:19:47.999Z</time>
</trkpt>
<trkpt lat="43.507502" lon="3.397643">
<ele>132.2</ele>
<time>2013-05-08T07:19:48.999Z</time>
</trkpt>
<trkpt lat="43.507448" lon="3.397314">
<ele>132</ele>
<time>2013-05-08T07:19:49.999Z</time>
</trkpt>
<trkpt lat="43.507395" lon="3.396983">
<ele>131.7</ele>
<time>2013-05-08T07:19:50.999Z</time>
</trkpt>
<trkpt lat="43.507344" lon="3.396653">
<ele>131.5</ele>
<time>2013-05-08T07:19:51.999Z</time>
</trkpt>
<trkpt lat="43.507295" lon="3.396326">
<ele>131.3</ele>
<time>2013-05-08T07:19:52.999Z</time>
</trkpt>
<trkpt lat="43.507245" lon="3.395996">
<ele>131</ele>
<time>2013-05-08T07:19:53.999Z</time>
</trkpt>
<trkpt lat="43.507198" lon="3.395669">
<ele>130.7</ele>
<time>2013-05-08T07:19:54.999Z</time>
</trkpt>
<trkpt lat="43.50715" lon="3.395342">
<ele>130.4</ele>
<time>2013-05-08T07:19:55.999Z</time>
</trkpt>
<trkpt lat="43.507101" lon="3.395011">
<ele>130</ele>
<time>2013-05-08T07:19:56.999Z</time>
</trkpt>
<trkpt lat="43.507051" lon="3.39468">
<ele>129.8</ele>
<time>2013-05-08T07:19:57.999Z</time>
</trkpt>
<trkpt lat="43.507003" lon="3.394346">
<ele>129.6</ele>
<time>2013-05-08T07:19:58.999Z</time>
</trkpt>
<trkpt lat="43.506954" lon="3.394008">
<ele>129.5</ele>
<time>2013-05-08T07:19:59.999Z</time>
</trkpt>
<trkpt lat="43.506902" lon="3.39367">
<ele>129.5</ele>
<time>2013-05-08T07:20:00.999Z</time>
</trkpt>
<trkpt lat="43.506851" lon="3.393327">
<ele>129.4</ele>
<time>2013-05-08T07:20:01.999Z</time>
</trkpt>
<trkpt lat="43.5068" lon="3.392985">
<ele>129.4</ele>
<time>2013-05-08T07:20:02.999Z</time>
</trkpt>
<trkpt lat="43.506749" lon="3.392649">
<ele>129.2</ele>
<time>2013-05-08T07:20:03.999Z</time>
</trkpt>
<trkpt lat="43.506698" lon="3.392315">
<ele>128.9</ele>
<time>2013-05-08T07:20:04.999Z</time>
</trkpt>
<trkpt lat="43.506647" lon="3.391984">
<ele>128.7</ele>
<time>2013-05-08T07:20:05.999Z</time>
</trkpt>
<trkpt lat="43.506597" lon="3.391654">
<ele>128.4</ele>
<time>2013-05-08T07:20:06.999Z</time>
</trkpt>
<trkpt lat="43.506543" lon="3.391323">
<ele>128.2</ele>
<time>2013-05-08T07:20:07.999Z</time>
</trkpt>
<trkpt lat="43.506494" lon="3.390996">
<ele>128</ele>
<time>2013-05-08T07:20:08.999Z</time>
</trkpt>
<trkpt lat="43.506451" lon="3.390673">
<ele>127.7</ele>
<time>2013-05-08T07:20:09.999Z</time>
</trkpt>
<trkpt lat="43.506407" lon="3.39035">
<ele>127.6</ele>
<time>2013-05-08T07:20:10.999Z</time>
</trkpt>
<trkpt lat="43.506353" lon="3.390031">
<ele>127.6</ele>
<time>2013-05-08T07:20:11.999Z</time>
</trkpt>
<trkpt lat="43.506296" lon="3.389718">
<ele>127.7</ele>
<time>2013-05-08T07:20:12.999Z</time>
</trkpt>
<trkpt lat="43.506247" lon="3.389407">
<ele>127.9</ele>
<time>2013-05-08T07:20:13.999Z</time>
</trkpt>
<trkpt lat="43.506197" lon="3.389092">
<ele>128</ele>
<time>2013-05-08T07:20:14.999Z</time>
</trkpt>
<trkpt lat="43.506148" lon="3.388771">
<ele>128.1</ele>
<time>2013-05-08T07:20:15.999Z</time>
</trkpt>
<trkpt lat="43.506098" lon="3.38845">
<ele>128.1</ele>
<time>2013-05-08T07:20:16.999Z</time>
</trkpt>
<trkpt lat="43.506041" lon="3.388132">
<ele>127.4</ele>
<time>2013-05-08T07:20:17.999Z</time>
</trkpt>
<trkpt lat="43.505987" lon="3.387816">
<ele>126.8</ele>
<time>2013-05-08T07:20:18.999Z</time>
</trkpt>
<trkpt lat="43.505939" lon="3.387512">
<ele>126</ele>
<time>2013-05-08T07:20:19.999Z</time>
</trkpt>
<trkpt lat="43.505901" lon="3.387201">
<ele>125.6</ele>
<time>2013-05-08T07:20:20.999Z</time>
</trkpt>
<trkpt lat="43.505859" lon="3.386885">
<ele>125.2</ele>
<time>2013-05-08T07:20:21.999Z</time>
</trkpt>
<trkpt lat="43.505809" lon="3.386576">
<ele>124.9</ele>
<time>2013-05-08T07:20:22.999Z</time>
</trkpt>
<trkpt lat="43.505769" lon="3.386273">
<ele>124.4</ele>
<time>2013-05-08T07:20:23.999Z</time>
</trkpt>
<trkpt lat="43.50573" lon="3.38598">
<ele>123.5</ele>
<time>2013-05-08T07:20:24.999Z</time>
</trkpt>
<trkpt lat="43.505687" lon="3.3857">
<ele>122.9</ele>
<time>2013-05-08T07:20:25.999Z</time>
</trkpt>
<trkpt lat="43.505646" lon="3.38545">
<ele>122.1</ele>
<time>2013-05-08T07:20:26.999Z</time>
</trkpt>
<trkpt lat="43.505603" lon="3.385213">
<ele>121.3</ele>
<time>2013-05-08T07:20:27.999Z</time>
</trkpt>
<trkpt lat="43.50555" lon="3.384985">
<ele>120.6</ele>
<time>2013-05-08T07:20:28.999Z</time>
</trkpt>
<trkpt lat="43.505469" lon="3.384784">
<ele>120.2</ele>
<time>2013-05-08T07:20:29.999Z</time>
</trkpt>
<trkpt lat="43.505377" lon="3.384601">
<ele>120</ele>
<time>2013-05-08T07:20:30.999Z</time>
</trkpt>
<trkpt lat="43.505275" lon="3.384427">
<ele>120.5</ele>
<time>2013-05-08T07:20:31.999Z</time>
</trkpt>
<trkpt lat="43.505138" lon="3.384293">
<ele>121.5</ele>
<time>2013-05-08T07:20:32.999Z</time>
</trkpt>
<trkpt lat="43.504999" lon="3.384161">
<ele>122.8</ele>
<time>2013-05-08T07:20:33.999Z</time>
</trkpt>
<trkpt lat="43.504863" lon="3.384051">
<ele>123.8</ele>
<time>2013-05-08T07:20:34.999Z</time>
</trkpt>
<trkpt lat="43.504726" lon="3.383961">
<ele>124.5</ele>
<time>2013-05-08T07:20:35.999Z</time>
</trkpt>
<trkpt lat="43.504594" lon="3.38388">
<ele>125.1</ele>
<time>2013-05-08T07:20:36.999Z</time>
</trkpt>
<trkpt lat="43.504448" lon="3.383784">
<ele>125.8</ele>
<time>2013-05-08T07:20:37.999Z</time>
</trkpt>
<trkpt lat="43.504358" lon="3.383639">
<ele>126.4</ele>
<time>2013-05-08T07:20:38.999Z</time>
</trkpt>
<trkpt lat="43.504259" lon="3.383513">
<ele>127.4</ele>
<time>2013-05-08T07:20:39.999Z</time>
</trkpt>
<trkpt lat="43.50418" lon="3.383321">
<ele>128.3</ele>
<time>2013-05-08T07:20:40.999Z</time>
</trkpt>
<trkpt lat="43.504185" lon="3.383097">
<ele>129.4</ele>
<time>2013-05-08T07:20:41.999Z</time>
</trkpt>
<trkpt lat="43.504234" lon="3.382858">
<ele>129.9</ele>
<time>2013-05-08T07:20:42.999Z</time>
</trkpt>
<trkpt lat="43.504278" lon="3.382611">
<ele>130.5</ele>
<time>2013-05-08T07:20:43.999Z</time>
</trkpt>
<trkpt lat="43.504328" lon="3.382353">
<ele>131.3</ele>
<time>2013-05-08T07:20:44.999Z</time>
</trkpt>
<trkpt lat="43.504377" lon="3.382076">
<ele>132.3</ele>
<time>2013-05-08T07:20:45.999Z</time>
</trkpt>
<trkpt lat="43.504425" lon="3.381798">
<ele>133.4</ele>
<time>2013-05-08T07:20:46.999Z</time>
</trkpt>
<trkpt lat="43.504471" lon="3.38152">
<ele>134.5</ele>
<time>2013-05-08T07:20:47.999Z</time>
</trkpt>
<trkpt lat="43.504506" lon="3.381247">
<ele>136</ele>
<time>2013-05-08T07:20:48.999Z</time>
</trkpt>
<trkpt lat="43.50454" lon="3.380988">
<ele>138</ele>
<time>2013-05-08T07:20:49.999Z</time>
</trkpt>
<trkpt lat="43.50458" lon="3.380736">
<ele>140.1</ele>
<time>2013-05-08T07:20:50.999Z</time>
</trkpt>
<trkpt lat="43.504632" lon="3.380493">
<ele>141.8</ele>
<time>2013-05-08T07:20:51.999Z</time>
</trkpt>
<trkpt lat="43.5047" lon="3.380247">
<ele>142.8</ele>
<time>2013-05-08T07:20:52.999Z</time>
</trkpt>
<trkpt lat="43.504812" lon="3.380051">
<ele>143.3</ele>
<time>2013-05-08T07:20:53.999Z</time>
</trkpt>
<trkpt lat="43.504958" lon="3.379911">
<ele>143.9</ele>
<time>2013-05-08T07:20:54.999Z</time>
</trkpt>
<trkpt lat="43.505098" lon="3.379774">
<ele>144.2</ele>
<time>2013-05-08T07:20:55.999Z</time>
</trkpt>
<trkpt lat="43.505226" lon="3.379641">
<ele>144.9</ele>
<time>2013-05-08T07:20:56.999Z</time>
</trkpt>
<trkpt lat="43.505334" lon="3.379511">
<ele>145.6</ele>
<time>2013-05-08T07:20:57.999Z</time>
</trkpt>
<trkpt lat="43.505414" lon="3.379352">
<ele>146.9</ele>
<time>2013-05-08T07:20:58.999Z</time>
</trkpt>
<trkpt lat="43.505452" lon="3.379173">
<ele>148</ele>
<time>2013-05-08T07:20:59.999Z</time>
</trkpt>
<trkpt lat="43.50548" lon="3.378986">
<ele>149.1</ele>
<time>2013-05-08T07:21:00.999Z</time>
</trkpt>
<trkpt lat="43.505502" lon="3.378796">
<ele>150.3</ele>
<time>2013-05-08T07:21:01.999Z</time>
</trkpt>
<trkpt lat="43.505524" lon="3.378592">
<ele>151.4</ele>
<time>2013-05-08T07:21:02.999Z</time>
</trkpt>
<trkpt lat="43.50555" lon="3.378382">
<ele>152.5</ele>
<time>2013-05-08T07:21:03.999Z</time>
</trkpt>
<trkpt lat="43.50558" lon="3.378169">
<ele>153.5</ele>
<time>2013-05-08T07:21:04.999Z</time>
</trkpt>
<trkpt lat="43.505618" lon="3.377938">
<ele>154.3</ele>
<time>2013-05-08T07:21:05.999Z</time>
</trkpt>
<trkpt lat="43.505664" lon="3.377708">
<ele>155</ele>
<time>2013-05-08T07:21:06.999Z</time>
</trkpt>
<trkpt lat="43.505721" lon="3.377481">
<ele>155.7</ele>
<time>2013-05-08T07:21:07.999Z</time>
</trkpt>
<trkpt lat="43.505784" lon="3.377257">
<ele>156</ele>
<time>2013-05-08T07:21:08.999Z</time>
</trkpt>
<trkpt lat="43.505855" lon="3.377029">
<ele>156</ele>
<time>2013-05-08T07:21:09.999Z</time>
</trkpt>
<trkpt lat="43.505945" lon="3.37681">
<ele>155.9</ele>
<time>2013-05-08T07:21:10.999Z</time>
</trkpt>
<trkpt lat="43.506052" lon="3.376606">
<ele>155.7</ele>
<time>2013-05-08T07:21:11.999Z</time>
</trkpt>
<trkpt lat="43.506173" lon="3.376406">
<ele>155.4</ele>
<time>2013-05-08T07:21:12.999Z</time>
</trkpt>
<trkpt lat="43.506314" lon="3.376229">
<ele>155.3</ele>
<time>2013-05-08T07:21:13.999Z</time>
</trkpt>
<trkpt lat="43.506454" lon="3.376054">
<ele>155.1</ele>
<time>2013-05-08T07:21:14.999Z</time>
</trkpt>
<trkpt lat="43.506594" lon="3.375879">
<ele>154.9</ele>
<time>2013-05-08T07:21:15.999Z</time>
</trkpt>
<trkpt lat="43.506734" lon="3.375715">
<ele>154.5</ele>
<time>2013-05-08T07:21:16.999Z</time>
</trkpt>
<trkpt lat="43.506871" lon="3.375542">
<ele>154.4</ele>
<time>2013-05-08T07:21:17.999Z</time>
</trkpt>
<trkpt lat="43.507001" lon="3.375374">
<ele>154.3</ele>
<time>2013-05-08T07:21:18.999Z</time>
</trkpt>
<trkpt lat="43.507123" lon="3.375213">
<ele>154</ele>
<time>2013-05-08T07:21:19.999Z</time>
</trkpt>
<trkpt lat="43.507234" lon="3.37506">
<ele>153.6</ele>
<time>2013-05-08T07:21:20.999Z</time>
</trkpt>
<trkpt lat="43.507336" lon="3.374911">
<ele>153.3</ele>
<time>2013-05-08T07:21:21.999Z</time>
</trkpt>
<trkpt lat="43.507433" lon="3.374768">
<ele>152.8</ele>
<time>2013-05-08T07:21:22.999Z</time>
</trkpt>
<trkpt lat="43.507516" lon="3.374628">
<ele>152.6</ele>
<time>2013-05-08T07:21:23.999Z</time>
</trkpt>
<trkpt lat="43.507587" lon="3.374495">
<ele>152.1</ele>
<time>2013-05-08T07:21:24.999Z</time>
</trkpt>
<trkpt lat="43.507626" lon="3.374345">
<ele>151.3</ele>
<time>2013-05-08T07:21:25.999Z</time>
</trkpt>
<trkpt lat="43.507662" lon="3.374191">
<ele>150.6</ele>
<time>2013-05-08T07:21:26.999Z</time>
</trkpt>
<trkpt lat="43.507689" lon="3.374044">
<ele>149.8</ele>
<time>2013-05-08T07:21:27.999Z</time>
</trkpt>
<trkpt lat="43.507661" lon="3.373888">
<ele>149.2</ele>
<time>2013-05-08T07:21:28.999Z</time>
</trkpt>
<trkpt lat="43.507628" lon="3.373743">
<ele>148.3</ele>
<time>2013-05-08T07:21:29.999Z</time>
</trkpt>
<trkpt lat="43.507592" lon="3.373609">
<ele>147.3</ele>
<time>2013-05-08T07:21:30.999Z</time>
</trkpt>
<trkpt lat="43.507555" lon="3.373496">
<ele>146.7</ele>
<time>2013-05-08T07:21:31.999Z</time>
</trkpt>
<trkpt lat="43.50751" lon="3.373415">
<ele>145.9</ele>
<time>2013-05-08T07:21:32.999Z</time>
</trkpt>
<trkpt lat="43.507467" lon="3.37333">
<ele>144.8</ele>
<time>2013-05-08T07:21:33.999Z</time>
</trkpt>
<trkpt lat="43.507423" lon="3.373245">
<ele>143.6</ele>
<time>2013-05-08T07:21:34.999Z</time>
</trkpt>
<trkpt lat="43.507372" lon="3.373161">
<ele>142.3</ele>
<time>2013-05-08T07:21:35.999Z</time>
</trkpt>
<trkpt lat="43.507309" lon="3.373068">
<ele>141.4</ele>
<time>2013-05-08T07:21:36.999Z</time>
</trkpt>
<trkpt lat="43.507255" lon="3.372975">
<ele>140.7</ele>
<time>2013-05-08T07:21:37.999Z</time>
</trkpt>
<trkpt lat="43.507198" lon="3.372877">
<ele>140.6</ele>
<time>2013-05-08T07:21:38.999Z</time>
</trkpt>
<trkpt lat="43.507143" lon="3.372781">
<ele>140.4</ele>
<time>2013-05-08T07:21:39.999Z</time>
</trkpt>
<trkpt lat="43.50709" lon="3.372685">
<ele>140.1</ele>
<time>2013-05-08T07:21:40.999Z</time>
</trkpt>
<trkpt lat="43.507034" lon="3.372579">
<ele>140</ele>
<time>2013-05-08T07:21:41.999Z</time>
</trkpt>
<trkpt lat="43.506983" lon="3.37249">
<ele>139.8</ele>
<time>2013-05-08T07:21:42.999Z</time>
</trkpt>
<trkpt lat="43.506915" lon="3.372367">
<ele>139.1</ele>
<time>2013-05-08T07:21:43.999Z</time>
</trkpt>
<trkpt lat="43.506863" lon="3.372271">
<ele>137.7</ele>
<time>2013-05-08T07:21:44.999Z</time>
</trkpt>
<trkpt lat="43.506812" lon="3.372177">
<ele>136.5</ele>
<time>2013-05-08T07:21:45.999Z</time>
</trkpt>
<trkpt lat="43.506765" lon="3.372088">
<ele>135.6</ele>
<time>2013-05-08T07:21:46.999Z</time>
</trkpt>
<trkpt lat="43.506721" lon="3.372009">
<ele>134.3</ele>
<time>2013-05-08T07:21:47.999Z</time>
</trkpt>
<trkpt lat="43.506703" lon="3.371966">
<ele>134.2</ele>
<time>2013-05-08T07:21:48.999Z</time>
</trkpt>
<trkpt lat="43.506686" lon="3.371923">
<ele>134.1</ele>
<time>2013-05-08T07:21:49.999Z</time>
</trkpt>
<trkpt lat="43.506669" lon="3.371889">
<ele>134</ele>
<time>2013-05-08T07:21:50.999Z</time>
</trkpt>
<trkpt lat="43.506647" lon="3.371854">
<ele>134</ele>
<time>2013-05-08T07:21:51.999Z</time>
</trkpt>
<trkpt lat="43.506626" lon="3.37182">
<ele>134</ele>
<time>2013-05-08T07:21:52.999Z</time>
</trkpt>
<trkpt lat="43.506603" lon="3.371788">
<ele>134</ele>
<time>2013-05-08T07:21:53.999Z</time>
</trkpt>
<trkpt lat="43.50658" lon="3.37175">
<ele>134.1</ele>
<time>2013-05-08T07:21:54.999Z</time>
</trkpt>
<trkpt lat="43.50656" lon="3.371709">
<ele>134</ele>
<time>2013-05-08T07:21:55.999Z</time>
</trkpt>
<trkpt lat="43.506526" lon="3.371646">
<ele>133.3</ele>
<time>2013-05-08T07:21:56.999Z</time>
</trkpt>
<trkpt lat="43.506462" lon="3.371547">
<ele>132.8</ele>
<time>2013-05-08T07:21:57.999Z</time>
</trkpt>
<trkpt lat="43.506398" lon="3.37143">
<ele>132.3</ele>
<time>2013-05-08T07:21:58.999Z</time>
</trkpt>
<trkpt lat="43.506331" lon="3.371314">
<ele>131.5</ele>
<time>2013-05-08T07:21:59.999Z</time>
</trkpt>
<trkpt lat="43.506265" lon="3.371202">
<ele>130.9</ele>
<time>2013-05-08T07:22:00.999Z</time>
</trkpt>
<trkpt lat="43.506212" lon="3.371108">
<ele>130.5</ele>
<time>2013-05-08T07:22:01.999Z</time>
</trkpt>
<trkpt lat="43.506182" lon="3.371047">
<ele>130</ele>
<time>2013-05-08T07:22:02.999Z</time>
</trkpt>
<trkpt lat="43.50616" lon="3.370996">
<ele>130</ele>
<time>2013-05-08T07:22:03.999Z</time>
</trkpt>
<trkpt lat="43.506142" lon="3.370961">
<ele>130</ele>
<time>2013-05-08T07:22:04.999Z</time>
</trkpt>
<trkpt lat="43.506123" lon="3.37094">
<ele>130.1</ele>
<time>2013-05-08T07:22:05.999Z</time>
</trkpt>
<trkpt lat="43.506105" lon="3.370913">
<ele>130.2</ele>
<time>2013-05-08T07:22:06.999Z</time>
</trkpt>
<trkpt lat="43.506085" lon="3.370873">
<ele>130.3</ele>
<time>2013-05-08T07:22:07.999Z</time>
</trkpt>
<trkpt lat="43.506064" lon="3.370827">
<ele>130.4</ele>
<time>2013-05-08T07:22:08.999Z</time>
</trkpt>
<trkpt lat="43.506026" lon="3.370775">
<ele>131.1</ele>
<time>2013-05-08T07:22:09.999Z</time>
</trkpt>
<trkpt lat="43.50598" lon="3.370713">
<ele>131.4</ele>
<time>2013-05-08T07:22:10.999Z</time>
</trkpt>
<trkpt lat="43.505924" lon="3.370645">
<ele>131.8</ele>
<time>2013-05-08T07:22:11.999Z</time>
</trkpt>
<trkpt lat="43.505867" lon="3.370569">
<ele>131.8</ele>
<time>2013-05-08T07:22:12.999Z</time>
</trkpt>
<trkpt lat="43.505802" lon="3.370491">
<ele>131.9</ele>
<time>2013-05-08T07:22:13.999Z</time>
</trkpt>
<trkpt lat="43.505737" lon="3.370412">
<ele>132.2</ele>
<time>2013-05-08T07:22:14.999Z</time>
</trkpt>
<trkpt lat="43.505667" lon="3.370328">
<ele>132.3</ele>
<time>2013-05-08T07:22:15.999Z</time>
</trkpt>
<trkpt lat="43.505598" lon="3.370236">
<ele>133</ele>
<time>2013-05-08T07:22:16.999Z</time>
</trkpt>
<trkpt lat="43.505528" lon="3.370142">
<ele>133.5</ele>
<time>2013-05-08T07:22:17.999Z</time>
</trkpt>
<trkpt lat="43.505463" lon="3.370042">
<ele>133.8</ele>
<time>2013-05-08T07:22:18.999Z</time>
</trkpt>
<trkpt lat="43.505428" lon="3.369923">
<ele>134.1</ele>
<time>2013-05-08T07:22:19.999Z</time>
</trkpt>
<trkpt lat="43.505391" lon="3.369808">
<ele>134.3</ele>
<time>2013-05-08T07:22:20.999Z</time>
</trkpt>
<trkpt lat="43.505364" lon="3.369692">
<ele>134.6</ele>
<time>2013-05-08T07:22:21.999Z</time>
</trkpt>
<trkpt lat="43.505336" lon="3.369549">
<ele>134.6</ele>
<time>2013-05-08T07:22:22.999Z</time>
</trkpt>
<trkpt lat="43.505305" lon="3.369383">
<ele>135.2</ele>
<time>2013-05-08T07:22:23.999Z</time>
</trkpt>
<trkpt lat="43.505271" lon="3.369208">
<ele>135.9</ele>
<time>2013-05-08T07:22:24.999Z</time>
</trkpt>
<trkpt lat="43.505245" lon="3.369046">
<ele>137</ele>
<time>2013-05-08T07:22:25.999Z</time>
</trkpt>
<trkpt lat="43.505226" lon="3.368886">
<ele>137.9</ele>
<time>2013-05-08T07:22:26.999Z</time>
</trkpt>
<trkpt lat="43.505215" lon="3.368728">
<ele>138.3</ele>
<time>2013-05-08T07:22:27.999Z</time>
</trkpt>
<trkpt lat="43.50521" lon="3.368577">
<ele>138.5</ele>
<time>2013-05-08T07:22:28.999Z</time>
</trkpt>
<trkpt lat="43.505209" lon="3.368413">
<ele>138.5</ele>
<time>2013-05-08T07:22:29.999Z</time>
</trkpt>
<trkpt lat="43.505245" lon="3.368248">
<ele>138.4</ele>
<time>2013-05-08T07:22:30.999Z</time>
</trkpt>
<trkpt lat="43.505282" lon="3.368074">
<ele>138.1</ele>
<time>2013-05-08T07:22:31.999Z</time>
</trkpt>
<trkpt lat="43.505325" lon="3.367909">
<ele>138.5</ele>
<time>2013-05-08T07:22:32.999Z</time>
</trkpt>
<trkpt lat="43.50537" lon="3.367739">
<ele>139.2</ele>
<time>2013-05-08T07:22:33.999Z</time>
</trkpt>
<trkpt lat="43.505424" lon="3.367573">
<ele>139.8</ele>
<time>2013-05-08T07:22:34.999Z</time>
</trkpt>
<trkpt lat="43.505473" lon="3.367419">
<ele>140.7</ele>
<time>2013-05-08T07:22:35.999Z</time>
</trkpt>
<trkpt lat="43.505529" lon="3.367266">
<ele>141.5</ele>
<time>2013-05-08T07:22:36.999Z</time>
</trkpt>
<trkpt lat="43.505587" lon="3.367124">
<ele>142.1</ele>
<time>2013-05-08T07:22:37.999Z</time>
</trkpt>
<trkpt lat="43.505647" lon="3.366989">
<ele>142.5</ele>
<time>2013-05-08T07:22:38.999Z</time>
</trkpt>
<trkpt lat="43.505706" lon="3.366853">
<ele>142.5</ele>
<time>2013-05-08T07:22:39.999Z</time>
</trkpt>
<trkpt lat="43.505774" lon="3.366723">
<ele>142.4</ele>
<time>2013-05-08T07:22:40.999Z</time>
</trkpt>
<trkpt lat="43.505866" lon="3.366612">
<ele>142.5</ele>
<time>2013-05-08T07:22:41.999Z</time>
</trkpt>
<trkpt lat="43.505968" lon="3.366514">
<ele>143.3</ele>
<time>2013-05-08T07:22:42.999Z</time>
</trkpt>
<trkpt lat="43.506079" lon="3.366464">
<ele>143.2</ele>
<time>2013-05-08T07:22:43.999Z</time>
</trkpt>
<trkpt lat="43.506187" lon="3.366409">
<ele>143</ele>
<time>2013-05-08T07:22:44.999Z</time>
</trkpt>
<trkpt lat="43.506285" lon="3.366352">
<ele>142.8</ele>
<time>2013-05-08T07:22:45.999Z</time>
</trkpt>
<trkpt lat="43.506375" lon="3.366305">
<ele>142.5</ele>
<time>2013-05-08T07:22:46.999Z</time>
</trkpt>
<trkpt lat="43.506467" lon="3.366265">
<ele>142.4</ele>
<time>2013-05-08T07:22:47.999Z</time>
</trkpt>
<trkpt lat="43.50658" lon="3.366261">
<ele>142.7</ele>
<time>2013-05-08T07:22:48.999Z</time>
</trkpt>
<trkpt lat="43.506708" lon="3.36626">
<ele>142.9</ele>
<time>2013-05-08T07:22:49.999Z</time>
</trkpt>
<trkpt lat="43.506832" lon="3.366263">
<ele>143</ele>
<time>2013-05-08T07:22:50.999Z</time>
</trkpt>
<trkpt lat="43.506945" lon="3.366269">
<ele>143.2</ele>
<time>2013-05-08T07:22:51.999Z</time>
</trkpt>
<trkpt lat="43.507052" lon="3.366278">
<ele>143.1</ele>
<time>2013-05-08T07:22:52.999Z</time>
</trkpt>
<trkpt lat="43.50714" lon="3.366292">
<ele>143.3</ele>
<time>2013-05-08T07:22:53.999Z</time>
</trkpt>
<trkpt lat="43.507216" lon="3.366318">
<ele>143.3</ele>
<time>2013-05-08T07:22:54.999Z</time>
</trkpt>
<trkpt lat="43.507298" lon="3.366345">
<ele>143.7</ele>
<time>2013-05-08T07:22:55.999Z</time>
</trkpt>
<trkpt lat="43.507387" lon="3.366381">
<ele>144.2</ele>
<time>2013-05-08T07:22:56.999Z</time>
</trkpt>
<trkpt lat="43.507483" lon="3.366426">
<ele>144.7</ele>
<time>2013-05-08T07:22:57.999Z</time>
</trkpt>
<trkpt lat="43.50758" lon="3.366478">
<ele>144.8</ele>
<time>2013-05-08T07:22:58.999Z</time>
</trkpt>
<trkpt lat="43.507657" lon="3.366553">
<ele>145</ele>
<time>2013-05-08T07:22:59.999Z</time>
</trkpt>
<trkpt lat="43.507735" lon="3.366629">
<ele>145.9</ele>
<time>2013-05-08T07:23:00.999Z</time>
</trkpt>
<trkpt lat="43.507812" lon="3.366707">
<ele>146.3</ele>
<time>2013-05-08T07:23:01.999Z</time>
</trkpt>
<trkpt lat="43.507876" lon="3.366773">
<ele>146.1</ele>
<time>2013-05-08T07:23:02.999Z</time>
</trkpt>
<trkpt lat="43.507931" lon="3.366831">
<ele>146</ele>
<time>2013-05-08T07:23:03.999Z</time>
</trkpt>
<trkpt lat="43.507972" lon="3.366874">
<ele>145.9</ele>
<time>2013-05-08T07:23:04.999Z</time>
</trkpt>
<trkpt lat="43.508003" lon="3.366914">
<ele>145.8</ele>
<time>2013-05-08T07:23:05.999Z</time>
</trkpt>
<trkpt lat="43.508036" lon="3.366954">
<ele>146.1</ele>
<time>2013-05-08T07:23:06.999Z</time>
</trkpt>
<trkpt lat="43.508072" lon="3.36698">
<ele>146.7</ele>
<time>2013-05-08T07:23:07.999Z</time>
</trkpt>
<trkpt lat="43.508115" lon="3.366955">
<ele>147.5</ele>
<time>2013-05-08T07:23:08.999Z</time>
</trkpt>
<trkpt lat="43.508165" lon="3.366922">
<ele>148.2</ele>
<time>2013-05-08T07:23:09.999Z</time>
</trkpt>
<trkpt lat="43.508234" lon="3.366847">
<ele>148.3</ele>
<time>2013-05-08T07:23:10.999Z</time>
</trkpt>
<trkpt lat="43.508303" lon="3.366734">
<ele>148.4</ele>
<time>2013-05-08T07:23:11.999Z</time>
</trkpt>
<trkpt lat="43.508372" lon="3.366628">
<ele>148.6</ele>
<time>2013-05-08T07:23:12.999Z</time>
</trkpt>
<trkpt lat="43.508456" lon="3.366504">
<ele>148.6</ele>
<time>2013-05-08T07:23:13.999Z</time>
</trkpt>
<trkpt lat="43.508547" lon="3.366374">
<ele>148.8</ele>
<time>2013-05-08T07:23:14.999Z</time>
</trkpt>
<trkpt lat="43.508615" lon="3.366248">
<ele>149</ele>
<time>2013-05-08T07:23:15.999Z</time>
</trkpt>
<trkpt lat="43.508681" lon="3.366114">
<ele>149.5</ele>
<time>2013-05-08T07:23:16.999Z</time>
</trkpt>
<trkpt lat="43.508735" lon="3.365982">
<ele>150</ele>
<time>2013-05-08T07:23:17.999Z</time>
</trkpt>
<trkpt lat="43.508797" lon="3.365865">
<ele>150.1</ele>
<time>2013-05-08T07:23:18.999Z</time>
</trkpt>
<trkpt lat="43.508845" lon="3.365775">
<ele>150.2</ele>
<time>2013-05-08T07:23:19.999Z</time>
</trkpt>
<trkpt lat="43.508875" lon="3.365714">
<ele>150.5</ele>
<time>2013-05-08T07:23:20.999Z</time>
</trkpt>
<trkpt lat="43.508899" lon="3.365674">
<ele>150.7</ele>
<time>2013-05-08T07:23:21.999Z</time>
</trkpt>
<trkpt lat="43.508916" lon="3.365643">
<ele>150.7</ele>
<time>2013-05-08T07:23:22.999Z</time>
</trkpt>
<trkpt lat="43.50893" lon="3.365618">
<ele>150.8</ele>
<time>2013-05-08T07:23:23.999Z</time>
</trkpt>
<trkpt lat="43.508949" lon="3.365579">
<ele>150.9</ele>
<time>2013-05-08T07:23:24.999Z</time>
</trkpt>
<trkpt lat="43.508979" lon="3.365518">
<ele>152.2</ele>
<time>2013-05-08T07:23:25.999Z</time>
</trkpt>
<trkpt lat="43.509011" lon="3.365452">
<ele>153.5</ele>
<time>2013-05-08T07:23:26.999Z</time>
</trkpt>
<trkpt lat="43.509063" lon="3.365339">
<ele>154.8</ele>
<time>2013-05-08T07:23:27.999Z</time>
</trkpt>
<trkpt lat="43.50912" lon="3.365215">
<ele>155.7</ele>
<time>2013-05-08T07:23:28.999Z</time>
</trkpt>
<trkpt lat="43.509172" lon="3.365101">
<ele>156.3</ele>
<time>2013-05-08T07:23:29.999Z</time>
</trkpt>
<trkpt lat="43.509224" lon="3.364987">
<ele>156.7</ele>
<time>2013-05-08T07:23:30.999Z</time>
</trkpt>
<trkpt lat="43.509285" lon="3.364855">
<ele>156.9</ele>
<time>2013-05-08T07:23:31.999Z</time>
</trkpt>
<trkpt lat="43.509358" lon="3.3647">
<ele>157.1</ele>
<time>2013-05-08T07:23:32.999Z</time>
</trkpt>
<trkpt lat="43.509438" lon="3.364527">
<ele>156.9</ele>
<time>2013-05-08T07:23:33.999Z</time>
</trkpt>
<trkpt lat="43.509519" lon="3.364353">
<ele>156.7</ele>
<time>2013-05-08T07:23:34.999Z</time>
</trkpt>
<trkpt lat="43.509597" lon="3.36418">
<ele>156.7</ele>
<time>2013-05-08T07:23:35.999Z</time>
</trkpt>
<trkpt lat="43.509673" lon="3.364013">
<ele>157</ele>
<time>2013-05-08T07:23:36.999Z</time>
</trkpt>
<trkpt lat="43.509744" lon="3.36386">
<ele>157.3</ele>
<time>2013-05-08T07:23:37.999Z</time>
</trkpt>
<trkpt lat="43.509808" lon="3.36372">
<ele>157.8</ele>
<time>2013-05-08T07:23:38.999Z</time>
</trkpt>
<trkpt lat="43.509868" lon="3.363589">
<ele>158</ele>
<time>2013-05-08T07:23:39.999Z</time>
</trkpt>
<trkpt lat="43.509924" lon="3.363473">
<ele>158.1</ele>
<time>2013-05-08T07:23:40.999Z</time>
</trkpt>
<trkpt lat="43.509971" lon="3.363373">
<ele>158.1</ele>
<time>2013-05-08T07:23:41.999Z</time>
</trkpt>
<trkpt lat="43.510015" lon="3.363284">
<ele>157.8</ele>
<time>2013-05-08T07:23:42.999Z</time>
</trkpt>
<trkpt lat="43.510059" lon="3.363197">
<ele>157.2</ele>
<time>2013-05-08T07:23:43.999Z</time>
</trkpt>
<trkpt lat="43.510113" lon="3.363082">
<ele>157.2</ele>
<time>2013-05-08T07:23:44.999Z</time>
</trkpt>
<trkpt lat="43.510181" lon="3.362932">
<ele>157.7</ele>
<time>2013-05-08T07:23:45.999Z</time>
</trkpt>
<trkpt lat="43.510256" lon="3.362767">
<ele>158.5</ele>
<time>2013-05-08T07:23:46.999Z</time>
</trkpt>
<trkpt lat="43.510337" lon="3.362592">
<ele>158.8</ele>
<time>2013-05-08T07:23:47.999Z</time>
</trkpt>
<trkpt lat="43.510422" lon="3.362409">
<ele>159</ele>
<time>2013-05-08T07:23:48.999Z</time>
</trkpt>
<trkpt lat="43.510505" lon="3.36223">
<ele>159.4</ele>
<time>2013-05-08T07:23:49.999Z</time>
</trkpt>
<trkpt lat="43.510585" lon="3.362056">
<ele>159.9</ele>
<time>2013-05-08T07:23:50.999Z</time>
</trkpt>
<trkpt lat="43.510656" lon="3.36189">
<ele>160.2</ele>
<time>2013-05-08T07:23:51.999Z</time>
</trkpt>
<trkpt lat="43.510724" lon="3.361731">
<ele>160.6</ele>
<time>2013-05-08T07:23:52.999Z</time>
</trkpt>
<trkpt lat="43.510787" lon="3.361585">
<ele>161</ele>
<time>2013-05-08T07:23:53.999Z</time>
</trkpt>
<trkpt lat="43.510843" lon="3.36145">
<ele>160.8</ele>
<time>2013-05-08T07:23:54.999Z</time>
</trkpt>
<trkpt lat="43.510886" lon="3.361334">
<ele>160.5</ele>
<time>2013-05-08T07:23:55.999Z</time>
</trkpt>
<trkpt lat="43.51093" lon="3.361204">
<ele>160.2</ele>
<time>2013-05-08T07:23:56.999Z</time>
</trkpt>
<trkpt lat="43.510966" lon="3.361071">
<ele>159.6</ele>
<time>2013-05-08T07:23:57.999Z</time>
</trkpt>
<trkpt lat="43.510999" lon="3.3609">
<ele>159.1</ele>
<time>2013-05-08T07:23:58.999Z</time>
</trkpt>
<trkpt lat="43.511034" lon="3.360688">
<ele>158.6</ele>
<time>2013-05-08T07:23:59.999Z</time>
</trkpt>
<trkpt lat="43.511069" lon="3.360439">
<ele>157.9</ele>
<time>2013-05-08T07:24:00.999Z</time>
</trkpt>
<trkpt lat="43.511101" lon="3.360163">
<ele>157.5</ele>
<time>2013-05-08T07:24:01.999Z</time>
</trkpt>
<trkpt lat="43.511127" lon="3.359868">
<ele>157.1</ele>
<time>2013-05-08T07:24:02.999Z</time>
</trkpt>
<trkpt lat="43.511134" lon="3.359551">
<ele>156.1</ele>
<time>2013-05-08T07:24:03.999Z</time>
</trkpt>
<trkpt lat="43.511143" lon="3.359247">
<ele>155</ele>
<time>2013-05-08T07:24:04.999Z</time>
</trkpt>
<trkpt lat="43.51115" lon="3.358952">
<ele>153.7</ele>
<time>2013-05-08T07:24:05.999Z</time>
</trkpt>
<trkpt lat="43.511158" lon="3.358672">
<ele>152.4</ele>
<time>2013-05-08T07:24:06.999Z</time>
</trkpt>
<trkpt lat="43.511165" lon="3.3584">
<ele>150.9</ele>
<time>2013-05-08T07:24:07.999Z</time>
</trkpt>
<trkpt lat="43.51117" lon="3.358118">
<ele>149.4</ele>
<time>2013-05-08T07:24:08.999Z</time>
</trkpt>
<trkpt lat="43.511176" lon="3.357836">
<ele>147.9</ele>
<time>2013-05-08T07:24:09.999Z</time>
</trkpt>
<trkpt lat="43.511185" lon="3.357559">
<ele>146.5</ele>
<time>2013-05-08T07:24:10.999Z</time>
</trkpt>
<trkpt lat="43.511198" lon="3.357296">
<ele>145.3</ele>
<time>2013-05-08T07:24:11.999Z</time>
</trkpt>
<trkpt lat="43.511215" lon="3.357039">
<ele>144.3</ele>
<time>2013-05-08T07:24:12.999Z</time>
</trkpt>
<trkpt lat="43.511243" lon="3.356787">
<ele>143.1</ele>
<time>2013-05-08T07:24:13.999Z</time>
</trkpt>
<trkpt lat="43.511293" lon="3.356532">
<ele>142.2</ele>
<time>2013-05-08T07:24:14.999Z</time>
</trkpt>
<trkpt lat="43.51137" lon="3.356295">
<ele>141.3</ele>
<time>2013-05-08T07:24:15.999Z</time>
</trkpt>
<trkpt lat="43.511481" lon="3.356078">
<ele>140.7</ele>
<time>2013-05-08T07:24:16.999Z</time>
</trkpt>
<trkpt lat="43.51161" lon="3.355857">
<ele>140.6</ele>
<time>2013-05-08T07:24:17.999Z</time>
</trkpt>
<trkpt lat="43.51192" lon="3.355475">
<ele>141.3</ele>
<time>2013-05-08T07:24:19.999Z</time>
</trkpt>
<trkpt lat="43.512088" lon="3.355309">
<ele>141</ele>
<time>2013-05-08T07:24:20.999Z</time>
</trkpt>
<trkpt lat="43.512242" lon="3.35514">
<ele>140.4</ele>
<time>2013-05-08T07:24:21.999Z</time>
</trkpt>
<trkpt lat="43.512391" lon="3.354966">
<ele>139.9</ele>
<time>2013-05-08T07:24:22.999Z</time>
</trkpt>
<trkpt lat="43.512538" lon="3.354788">
<ele>139.5</ele>
<time>2013-05-08T07:24:23.999Z</time>
</trkpt>
<trkpt lat="43.512689" lon="3.354608">
<ele>138.9</ele>
<time>2013-05-08T07:24:24.999Z</time>
</trkpt>
<trkpt lat="43.512842" lon="3.354417">
<ele>138.2</ele>
<time>2013-05-08T07:24:25.999Z</time>
</trkpt>
<trkpt lat="43.512997" lon="3.354213">
<ele>137.4</ele>
<time>2013-05-08T07:24:26.999Z</time>
</trkpt>
<trkpt lat="43.513163" lon="3.354002">
<ele>136.4</ele>
<time>2013-05-08T07:24:27.999Z</time>
</trkpt>
<trkpt lat="43.513337" lon="3.353779">
<ele>135.7</ele>
<time>2013-05-08T07:24:28.999Z</time>
</trkpt>
<trkpt lat="43.513515" lon="3.353546">
<ele>135.2</ele>
<time>2013-05-08T07:24:29.999Z</time>
</trkpt>
<trkpt lat="43.51369" lon="3.353316">
<ele>134.8</ele>
<time>2013-05-08T07:24:30.999Z</time>
</trkpt>
<trkpt lat="43.513866" lon="3.353086">
<ele>134.4</ele>
<time>2013-05-08T07:24:31.999Z</time>
</trkpt>
<trkpt lat="43.514039" lon="3.352858">
<ele>134.2</ele>
<time>2013-05-08T07:24:32.999Z</time>
</trkpt>
<trkpt lat="43.514205" lon="3.352639">
<ele>134</ele>
<time>2013-05-08T07:24:33.999Z</time>
</trkpt>
<trkpt lat="43.514364" lon="3.352425">
<ele>133.9</ele>
<time>2013-05-08T07:24:34.999Z</time>
</trkpt>
<trkpt lat="43.514505" lon="3.352235">
<ele>133.9</ele>
<time>2013-05-08T07:24:35.999Z</time>
</trkpt>
<trkpt lat="43.514624" lon="3.352068">
<ele>133.8</ele>
<time>2013-05-08T07:24:36.999Z</time>
</trkpt>
<trkpt lat="43.514714" lon="3.351913">
<ele>133.3</ele>
<time>2013-05-08T07:24:37.999Z</time>
</trkpt>
<trkpt lat="43.514776" lon="3.351764">
<ele>132.9</ele>
<time>2013-05-08T07:24:38.999Z</time>
</trkpt>
<trkpt lat="43.514819" lon="3.351631">
<ele>132.5</ele>
<time>2013-05-08T07:24:39.999Z</time>
</trkpt>
<trkpt lat="43.514833" lon="3.351496">
<ele>132.1</ele>
<time>2013-05-08T07:24:40.999Z</time>
</trkpt>
<trkpt lat="43.514846" lon="3.351377">
<ele>131.8</ele>
<time>2013-05-08T07:24:41.999Z</time>
</trkpt>
<trkpt lat="43.514859" lon="3.351241">
<ele>131.5</ele>
<time>2013-05-08T07:24:42.999Z</time>
</trkpt>
<trkpt lat="43.514908" lon="3.351108">
<ele>131.4</ele>
<time>2013-05-08T07:24:43.999Z</time>
</trkpt>
<trkpt lat="43.514988" lon="3.350977">
<ele>131.4</ele>
<time>2013-05-08T07:24:44.999Z</time>
</trkpt>
<trkpt lat="43.515084" lon="3.350846">
<ele>131.1</ele>
<time>2013-05-08T07:24:45.999Z</time>
</trkpt>
<trkpt lat="43.515203" lon="3.35072">
<ele>130.4</ele>
<time>2013-05-08T07:24:46.999Z</time>
</trkpt>
<trkpt lat="43.515334" lon="3.3506">
<ele>129.7</ele>
<time>2013-05-08T07:24:47.999Z</time>
</trkpt>
<trkpt lat="43.515472" lon="3.350477">
<ele>128.6</ele>
<time>2013-05-08T07:24:48.999Z</time>
</trkpt>
<trkpt lat="43.515627" lon="3.350335">
<ele>127.8</ele>
<time>2013-05-08T07:24:49.999Z</time>
</trkpt>
<trkpt lat="43.515787" lon="3.350193">
<ele>127.3</ele>
<time>2013-05-08T07:24:50.999Z</time>
</trkpt>
<trkpt lat="43.515951" lon="3.350044">
<ele>127</ele>
<time>2013-05-08T07:24:51.999Z</time>
</trkpt>
<trkpt lat="43.516112" lon="3.349901">
<ele>126.6</ele>
<time>2013-05-08T07:24:52.999Z</time>
</trkpt>
<trkpt lat="43.516294" lon="3.349752">
<ele>126.2</ele>
<time>2013-05-08T07:24:53.999Z</time>
</trkpt>
<trkpt lat="43.516486" lon="3.34957">
<ele>125.7</ele>
<time>2013-05-08T07:24:54.999Z</time>
</trkpt>
<trkpt lat="43.516697" lon="3.349376">
<ele>125.9</ele>
<time>2013-05-08T07:24:55.999Z</time>
</trkpt>
<trkpt lat="43.516905" lon="3.349179">
<ele>126.4</ele>
<time>2013-05-08T07:24:56.999Z</time>
</trkpt>
<trkpt lat="43.517115" lon="3.348982">
<ele>127.1</ele>
<time>2013-05-08T07:24:57.999Z</time>
</trkpt>
<trkpt lat="43.517335" lon="3.348778">
<ele>127.8</ele>
<time>2013-05-08T07:24:58.999Z</time>
</trkpt>
<trkpt lat="43.517561" lon="3.348564">
<ele>128.5</ele>
<time>2013-05-08T07:24:59.999Z</time>
</trkpt>
<trkpt lat="43.517782" lon="3.348322">
<ele>129.2</ele>
<time>2013-05-08T07:25:00.999Z</time>
</trkpt>
<trkpt lat="43.517991" lon="3.348072">
<ele>129.8</ele>
<time>2013-05-08T07:25:01.999Z</time>
</trkpt>
<trkpt lat="43.518174" lon="3.34783">
<ele>130.4</ele>
<time>2013-05-08T07:25:02.999Z</time>
</trkpt>
<trkpt lat="43.518333" lon="3.347612">
<ele>130.9</ele>
<time>2013-05-08T07:25:03.999Z</time>
</trkpt>
<trkpt lat="43.518475" lon="3.34743">
<ele>131.7</ele>
<time>2013-05-08T07:25:04.999Z</time>
</trkpt>
<trkpt lat="43.518617" lon="3.347284">
<ele>132.8</ele>
<time>2013-05-08T07:25:05.999Z</time>
</trkpt>
<trkpt lat="43.518769" lon="3.347218">
<ele>133.9</ele>
<time>2013-05-08T07:25:06.999Z</time>
</trkpt>
<trkpt lat="43.518894" lon="3.347206">
<ele>134.9</ele>
<time>2013-05-08T07:25:07.999Z</time>
</trkpt>
<trkpt lat="43.518995" lon="3.347205">
<ele>135.5</ele>
<time>2013-05-08T07:25:08.999Z</time>
</trkpt>
<trkpt lat="43.519083" lon="3.347211">
<ele>136.2</ele>
<time>2013-05-08T07:25:09.999Z</time>
</trkpt>
<trkpt lat="43.51917" lon="3.347226">
<ele>136.7</ele>
<time>2013-05-08T07:25:10.999Z</time>
</trkpt>
<trkpt lat="43.51926" lon="3.347229">
<ele>137.1</ele>
<time>2013-05-08T07:25:11.999Z</time>
</trkpt>
<trkpt lat="43.51936" lon="3.347172">
<ele>137.3</ele>
<time>2013-05-08T07:25:12.999Z</time>
</trkpt>
<trkpt lat="43.519478" lon="3.347092">
<ele>137</ele>
<time>2013-05-08T07:25:13.999Z</time>
</trkpt>
<trkpt lat="43.519608" lon="3.346995">
<ele>136.6</ele>
<time>2013-05-08T07:25:14.999Z</time>
</trkpt>
<trkpt lat="43.519739" lon="3.346884">
<ele>136.1</ele>
<time>2013-05-08T07:25:15.999Z</time>
</trkpt>
<trkpt lat="43.519861" lon="3.346771">
<ele>135.6</ele>
<time>2013-05-08T07:25:16.999Z</time>
</trkpt>
<trkpt lat="43.51999" lon="3.346646">
<ele>135.1</ele>
<time>2013-05-08T07:25:17.999Z</time>
</trkpt>
<trkpt lat="43.520123" lon="3.346519">
<ele>134.7</ele>
<time>2013-05-08T07:25:18.999Z</time>
</trkpt>
<trkpt lat="43.520255" lon="3.346394">
<ele>134.4</ele>
<time>2013-05-08T07:25:19.999Z</time>
</trkpt>
<trkpt lat="43.520395" lon="3.346264">
<ele>134.2</ele>
<time>2013-05-08T07:25:20.999Z</time>
</trkpt>
<trkpt lat="43.520533" lon="3.346137">
<ele>134.1</ele>
<time>2013-05-08T07:25:21.999Z</time>
</trkpt>
<trkpt lat="43.520669" lon="3.346012">
<ele>134</ele>
<time>2013-05-08T07:25:22.999Z</time>
</trkpt>
<trkpt lat="43.520797" lon="3.345889">
<ele>133.7</ele>
<time>2013-05-08T07:25:23.999Z</time>
</trkpt>
<trkpt lat="43.520916" lon="3.345755">
<ele>133.3</ele>
<time>2013-05-08T07:25:24.999Z</time>
</trkpt>
<trkpt lat="43.521011" lon="3.345575">
<ele>133.1</ele>
<time>2013-05-08T07:25:25.999Z</time>
</trkpt>
<trkpt lat="43.52109" lon="3.345403">
<ele>132.5</ele>
<time>2013-05-08T07:25:26.999Z</time>
</trkpt>
<trkpt lat="43.521155" lon="3.345199">
<ele>131.9</ele>
<time>2013-05-08T07:25:27.999Z</time>
</trkpt>
<trkpt lat="43.521131" lon="3.344956">
<ele>131.1</ele>
<time>2013-05-08T07:25:28.999Z</time>
</trkpt>
<trkpt lat="43.52108" lon="3.344738">
<ele>130.5</ele>
<time>2013-05-08T07:25:29.999Z</time>
</trkpt>
<trkpt lat="43.521043" lon="3.344506">
<ele>129.6</ele>
<time>2013-05-08T07:25:30.999Z</time>
</trkpt>
<trkpt lat="43.521015" lon="3.344277">
<ele>128.6</ele>
<time>2013-05-08T07:25:31.999Z</time>
</trkpt>
<trkpt lat="43.521029" lon="3.344058">
<ele>127.7</ele>
<time>2013-05-08T07:25:32.999Z</time>
</trkpt>
<trkpt lat="43.521053" lon="3.343834">
<ele>127.4</ele>
<time>2013-05-08T07:25:33.999Z</time>
</trkpt>
<trkpt lat="43.521136" lon="3.343643">
<ele>127.2</ele>
<time>2013-05-08T07:25:34.999Z</time>
</trkpt>
<trkpt lat="43.521233" lon="3.343461">
<ele>127.1</ele>
<time>2013-05-08T07:25:35.999Z</time>
</trkpt>
<trkpt lat="43.521357" lon="3.343278">
<ele>126.9</ele>
<time>2013-05-08T07:25:36.999Z</time>
</trkpt>
<trkpt lat="43.521503" lon="3.343095">
<ele>127.1</ele>
<time>2013-05-08T07:25:37.999Z</time>
</trkpt>
<trkpt lat="43.521659" lon="3.342908">
<ele>127.5</ele>
<time>2013-05-08T07:25:38.999Z</time>
</trkpt>
<trkpt lat="43.521822" lon="3.342735">
<ele>127.8</ele>
<time>2013-05-08T07:25:39.999Z</time>
</trkpt>
<trkpt lat="43.521992" lon="3.342555">
<ele>128.3</ele>
<time>2013-05-08T07:25:40.999Z</time>
</trkpt>
<trkpt lat="43.522173" lon="3.342369">
<ele>128.8</ele>
<time>2013-05-08T07:25:41.999Z</time>
</trkpt>
<trkpt lat="43.52234" lon="3.342183">
<ele>129.3</ele>
<time>2013-05-08T07:25:42.999Z</time>
</trkpt>
<trkpt lat="43.522517" lon="3.341989">
<ele>130</ele>
<time>2013-05-08T07:25:43.999Z</time>
</trkpt>
<trkpt lat="43.522688" lon="3.341798">
<ele>130.8</ele>
<time>2013-05-08T07:25:44.999Z</time>
</trkpt>
<trkpt lat="43.522858" lon="3.34161">
<ele>131.7</ele>
<time>2013-05-08T07:25:45.999Z</time>
</trkpt>
<trkpt lat="43.523024" lon="3.341437">
<ele>132.4</ele>
<time>2013-05-08T07:25:46.999Z</time>
</trkpt>
<trkpt lat="43.523199" lon="3.341276">
<ele>133.2</ele>
<time>2013-05-08T07:25:47.999Z</time>
</trkpt>
<trkpt lat="43.523371" lon="3.341116">
<ele>134.2</ele>
<time>2013-05-08T07:25:48.999Z</time>
</trkpt>
<trkpt lat="43.523536" lon="3.34096">
<ele>135.2</ele>
<time>2013-05-08T07:25:49.999Z</time>
</trkpt>
<trkpt lat="43.523692" lon="3.34081">
<ele>136.3</ele>
<time>2013-05-08T07:25:50.999Z</time>
</trkpt>
<trkpt lat="43.523848" lon="3.340665">
<ele>137.3</ele>
<time>2013-05-08T07:25:51.999Z</time>
</trkpt>
<trkpt lat="43.524007" lon="3.340512">
<ele>137.9</ele>
<time>2013-05-08T07:25:52.999Z</time>
</trkpt>
<trkpt lat="43.524154" lon="3.34037">
<ele>138.4</ele>
<time>2013-05-08T07:25:53.999Z</time>
</trkpt>
<trkpt lat="43.524303" lon="3.340228">
<ele>138.9</ele>
<time>2013-05-08T07:25:54.999Z</time>
</trkpt>
<trkpt lat="43.52446" lon="3.340098">
<ele>139.2</ele>
<time>2013-05-08T07:25:55.999Z</time>
</trkpt>
<trkpt lat="43.524617" lon="3.339962">
<ele>139.5</ele>
<time>2013-05-08T07:25:56.999Z</time>
</trkpt>
<trkpt lat="43.524777" lon="3.339826">
<ele>139.8</ele>
<time>2013-05-08T07:25:57.999Z</time>
</trkpt>
<trkpt lat="43.524936" lon="3.339704">
<ele>140.3</ele>
<time>2013-05-08T07:25:58.999Z</time>
</trkpt>
<trkpt lat="43.5251" lon="3.339609">
<ele>140.9</ele>
<time>2013-05-08T07:25:59.999Z</time>
</trkpt>
<trkpt lat="43.525262" lon="3.339525">
<ele>141.1</ele>
<time>2013-05-08T07:26:00.999Z</time>
</trkpt>
<trkpt lat="43.525422" lon="3.339465">
<ele>140.6</ele>
<time>2013-05-08T07:26:01.999Z</time>
</trkpt>
<trkpt lat="43.525575" lon="3.339412">
<ele>140.1</ele>
<time>2013-05-08T07:26:02.999Z</time>
</trkpt>
<trkpt lat="43.525718" lon="3.339364">
<ele>139.8</ele>
<time>2013-05-08T07:26:03.999Z</time>
</trkpt>
<trkpt lat="43.525852" lon="3.339308">
<ele>139.5</ele>
<time>2013-05-08T07:26:04.999Z</time>
</trkpt>
<trkpt lat="43.525977" lon="3.339244">
<ele>139.1</ele>
<time>2013-05-08T07:26:05.999Z</time>
</trkpt>
<trkpt lat="43.526096" lon="3.339125">
<ele>139</ele>
<time>2013-05-08T07:26:06.999Z</time>
</trkpt>
<trkpt lat="43.526196" lon="3.338969">
<ele>139.1</ele>
<time>2013-05-08T07:26:07.999Z</time>
</trkpt>
<trkpt lat="43.526261" lon="3.338787">
<ele>139.4</ele>
<time>2013-05-08T07:26:08.999Z</time>
</trkpt>
<trkpt lat="43.526314" lon="3.338606">
<ele>139.7</ele>
<time>2013-05-08T07:26:09.999Z</time>
</trkpt>
<trkpt lat="43.526373" lon="3.338413">
<ele>140</ele>
<time>2013-05-08T07:26:10.999Z</time>
</trkpt>
<trkpt lat="43.52644" lon="3.338214">
<ele>139.7</ele>
<time>2013-05-08T07:26:11.999Z</time>
</trkpt>
<trkpt lat="43.526565" lon="3.338071">
<ele>139.4</ele>
<time>2013-05-08T07:26:12.999Z</time>
</trkpt>
<trkpt lat="43.52672" lon="3.337936">
<ele>139.2</ele>
<time>2013-05-08T07:26:13.999Z</time>
</trkpt>
<trkpt lat="43.526886" lon="3.337809">
<ele>139.1</ele>
<time>2013-05-08T07:26:14.999Z</time>
</trkpt>
<trkpt lat="43.52707" lon="3.337689">
<ele>138.7</ele>
<time>2013-05-08T07:26:15.999Z</time>
</trkpt>
<trkpt lat="43.527255" lon="3.337569">
<ele>138.3</ele>
<time>2013-05-08T07:26:16.999Z</time>
</trkpt>
<trkpt lat="43.527433" lon="3.337459">
<ele>137.8</ele>
<time>2013-05-08T07:26:17.999Z</time>
</trkpt>
<trkpt lat="43.527598" lon="3.337342">
<ele>137.8</ele>
<time>2013-05-08T07:26:18.999Z</time>
</trkpt>
<trkpt lat="43.527761" lon="3.337225">
<ele>137.8</ele>
<time>2013-05-08T07:26:19.999Z</time>
</trkpt>
<trkpt lat="43.527908" lon="3.337109">
<ele>138.1</ele>
<time>2013-05-08T07:26:20.999Z</time>
</trkpt>
<trkpt lat="43.528047" lon="3.336998">
<ele>138.5</ele>
<time>2013-05-08T07:26:21.999Z</time>
</trkpt>
<trkpt lat="43.52819" lon="3.336884">
<ele>138.9</ele>
<time>2013-05-08T07:26:22.999Z</time>
</trkpt>
<trkpt lat="43.528328" lon="3.336789">
<ele>139.4</ele>
<time>2013-05-08T07:26:23.999Z</time>
</trkpt>
<trkpt lat="43.528447" lon="3.336707">
<ele>139.7</ele>
<time>2013-05-08T07:26:24.999Z</time>
</trkpt>
<trkpt lat="43.528559" lon="3.336616">
<ele>140.2</ele>
<time>2013-05-08T07:26:25.999Z</time>
</trkpt>
<trkpt lat="43.528652" lon="3.336502">
<ele>140.9</ele>
<time>2013-05-08T07:26:26.999Z</time>
</trkpt>
<trkpt lat="43.528716" lon="3.336346">
<ele>141.6</ele>
<time>2013-05-08T07:26:27.999Z</time>
</trkpt>
<trkpt lat="43.528779" lon="3.336151">
<ele>142.1</ele>
<time>2013-05-08T07:26:28.999Z</time>
</trkpt>
<trkpt lat="43.528826" lon="3.33595">
<ele>142.9</ele>
<time>2013-05-08T07:26:29.999Z</time>
</trkpt>
<trkpt lat="43.528877" lon="3.335721">
<ele>143.7</ele>
<time>2013-05-08T07:26:30.999Z</time>
</trkpt>
<trkpt lat="43.528929" lon="3.335466">
<ele>144.6</ele>
<time>2013-05-08T07:26:31.999Z</time>
</trkpt>
<trkpt lat="43.528987" lon="3.335184">
<ele>145.2</ele>
<time>2013-05-08T07:26:32.999Z</time>
</trkpt>
<trkpt lat="43.529036" lon="3.334913">
<ele>145.6</ele>
<time>2013-05-08T07:26:33.999Z</time>
</trkpt>
<trkpt lat="43.529106" lon="3.334645">
<ele>145.6</ele>
<time>2013-05-08T07:26:34.999Z</time>
</trkpt>
<trkpt lat="43.52919" lon="3.33439">
<ele>145.9</ele>
<time>2013-05-08T07:26:35.999Z</time>
</trkpt>
<trkpt lat="43.529279" lon="3.334147">
<ele>146.4</ele>
<time>2013-05-08T07:26:36.999Z</time>
</trkpt>
<trkpt lat="43.529369" lon="3.333905">
<ele>147.2</ele>
<time>2013-05-08T07:26:37.999Z</time>
</trkpt>
<trkpt lat="43.529462" lon="3.333669">
<ele>148</ele>
<time>2013-05-08T07:26:38.999Z</time>
</trkpt>
<trkpt lat="43.529554" lon="3.33344">
<ele>148.8</ele>
<time>2013-05-08T07:26:39.999Z</time>
</trkpt>
<trkpt lat="43.529646" lon="3.333211">
<ele>149.7</ele>
<time>2013-05-08T07:26:40.999Z</time>
</trkpt>
<trkpt lat="43.529741" lon="3.332977">
<ele>150.5</ele>
<time>2013-05-08T07:26:41.999Z</time>
</trkpt>
<trkpt lat="43.529836" lon="3.332747">
<ele>151.3</ele>
<time>2013-05-08T07:26:42.999Z</time>
</trkpt>
<trkpt lat="43.529931" lon="3.33252">
<ele>152.1</ele>
<time>2013-05-08T07:26:43.999Z</time>
</trkpt>
<trkpt lat="43.530025" lon="3.332298">
<ele>152.7</ele>
<time>2013-05-08T07:26:44.999Z</time>
</trkpt>
<trkpt lat="43.530113" lon="3.33209">
<ele>153</ele>
<time>2013-05-08T07:26:45.999Z</time>
</trkpt>
<trkpt lat="43.530193" lon="3.33189">
<ele>153.3</ele>
<time>2013-05-08T07:26:46.999Z</time>
</trkpt>
<trkpt lat="43.530265" lon="3.331713">
<ele>153.7</ele>
<time>2013-05-08T07:26:47.999Z</time>
</trkpt>
<trkpt lat="43.530332" lon="3.331542">
<ele>153.7</ele>
<time>2013-05-08T07:26:48.999Z</time>
</trkpt>
<trkpt lat="43.530397" lon="3.33138">
<ele>153.6</ele>
<time>2013-05-08T07:26:49.999Z</time>
</trkpt>
<trkpt lat="43.530452" lon="3.33125">
<ele>154</ele>
<time>2013-05-08T07:26:50.999Z</time>
</trkpt>
<trkpt lat="43.530507" lon="3.331114">
<ele>154.8</ele>
<time>2013-05-08T07:26:51.999Z</time>
</trkpt>
<trkpt lat="43.530566" lon="3.330972">
<ele>155.6</ele>
<time>2013-05-08T07:26:52.999Z</time>
</trkpt>
<trkpt lat="43.530625" lon="3.330826">
<ele>156.3</ele>
<time>2013-05-08T07:26:53.999Z</time>
</trkpt>
<trkpt lat="43.530687" lon="3.330678">
<ele>156.8</ele>
<time>2013-05-08T07:26:54.999Z</time>
</trkpt>
<trkpt lat="43.530756" lon="3.330524">
<ele>157.3</ele>
<time>2013-05-08T07:26:55.999Z</time>
</trkpt>
<trkpt lat="43.53083" lon="3.330379">
<ele>157.6</ele>
<time>2013-05-08T07:26:56.999Z</time>
</trkpt>
<trkpt lat="43.530904" lon="3.330249">
<ele>157.9</ele>
<time>2013-05-08T07:26:57.999Z</time>
</trkpt>
<trkpt lat="43.530969" lon="3.330142">
<ele>158.5</ele>
<time>2013-05-08T07:26:58.999Z</time>
</trkpt>
<trkpt lat="43.531028" lon="3.330055">
<ele>159.5</ele>
<time>2013-05-08T07:26:59.999Z</time>
</trkpt>
<trkpt lat="43.531081" lon="3.329986">
<ele>160.2</ele>
<time>2013-05-08T07:27:00.999Z</time>
</trkpt>
<trkpt lat="43.531118" lon="3.329936">
<ele>161</ele>
<time>2013-05-08T07:27:01.999Z</time>
</trkpt>
<trkpt lat="43.531154" lon="3.329899">
<ele>160.2</ele>
<time>2013-05-08T07:27:02.999Z</time>
</trkpt>
<trkpt lat="43.531196" lon="3.329859">
<ele>159.4</ele>
<time>2013-05-08T07:27:03.999Z</time>
</trkpt>
<trkpt lat="43.53123" lon="3.329827">
<ele>159.3</ele>
<time>2013-05-08T07:27:04.999Z</time>
</trkpt>
<trkpt lat="43.531262" lon="3.3298">
<ele>159.3</ele>
<time>2013-05-08T07:27:05.999Z</time>
</trkpt>
<trkpt lat="43.531292" lon="3.329792">
<ele>159.2</ele>
<time>2013-05-08T07:27:06.999Z</time>
</trkpt>
<trkpt lat="43.531329" lon="3.329789">
<ele>159.2</ele>
<time>2013-05-08T07:27:07.999Z</time>
</trkpt>
<trkpt lat="43.531373" lon="3.329803">
<ele>158.4</ele>
<time>2013-05-08T07:27:08.999Z</time>
</trkpt>
<trkpt lat="43.531434" lon="3.329827">
<ele>158.1</ele>
<time>2013-05-08T07:27:09.999Z</time>
</trkpt>
<trkpt lat="43.531509" lon="3.329861">
<ele>157.8</ele>
<time>2013-05-08T07:27:10.999Z</time>
</trkpt>
<trkpt lat="43.531616" lon="3.329924">
<ele>157.9</ele>
<time>2013-05-08T07:27:11.999Z</time>
</trkpt>
<trkpt lat="43.531716" lon="3.329992">
<ele>158.3</ele>
<time>2013-05-08T07:27:12.999Z</time>
</trkpt>
<trkpt lat="43.531812" lon="3.330067">
<ele>158.6</ele>
<time>2013-05-08T07:27:13.999Z</time>
</trkpt>
<trkpt lat="43.531893" lon="3.330131">
<ele>159.1</ele>
<time>2013-05-08T07:27:14.999Z</time>
</trkpt>
<trkpt lat="43.531967" lon="3.330196">
<ele>160</ele>
<time>2013-05-08T07:27:15.999Z</time>
</trkpt>
<trkpt lat="43.532041" lon="3.330255">
<ele>160.5</ele>
<time>2013-05-08T07:27:16.999Z</time>
</trkpt>
<trkpt lat="43.532113" lon="3.330304">
<ele>160.8</ele>
<time>2013-05-08T07:27:17.999Z</time>
</trkpt>
<trkpt lat="43.532195" lon="3.330321">
<ele>161.2</ele>
<time>2013-05-08T07:27:18.999Z</time>
</trkpt>
<trkpt lat="43.532284" lon="3.33033">
<ele>161</ele>
<time>2013-05-08T07:27:19.999Z</time>
</trkpt>
<trkpt lat="43.532374" lon="3.330298">
<ele>160.7</ele>
<time>2013-05-08T07:27:20.999Z</time>
</trkpt>
<trkpt lat="43.53247" lon="3.330256">
<ele>160.5</ele>
<time>2013-05-08T07:27:21.999Z</time>
</trkpt>
<trkpt lat="43.532569" lon="3.330203">
<ele>160.3</ele>
<time>2013-05-08T07:27:22.999Z</time>
</trkpt>
<trkpt lat="43.532664" lon="3.33015">
<ele>160.1</ele>
<time>2013-05-08T07:27:23.999Z</time>
</trkpt>
<trkpt lat="43.532768" lon="3.330092">
<ele>159.6</ele>
<time>2013-05-08T07:27:24.999Z</time>
</trkpt>
<trkpt lat="43.532861" lon="3.330038">
<ele>159.5</ele>
<time>2013-05-08T07:27:25.999Z</time>
</trkpt>
<trkpt lat="43.532943" lon="3.329988">
<ele>159.4</ele>
<time>2013-05-08T07:27:26.999Z</time>
</trkpt>
<trkpt lat="43.533025" lon="3.329941">
<ele>159.6</ele>
<time>2013-05-08T07:27:27.999Z</time>
</trkpt>
<trkpt lat="43.533107" lon="3.32989">
<ele>159.1</ele>
<time>2013-05-08T07:27:28.999Z</time>
</trkpt>
<trkpt lat="43.53319" lon="3.329834">
<ele>158.8</ele>
<time>2013-05-08T07:27:29.999Z</time>
</trkpt>
<trkpt lat="43.53327" lon="3.32977">
<ele>158.5</ele>
<time>2013-05-08T07:27:30.999Z</time>
</trkpt>
<trkpt lat="43.53338" lon="3.329695">
<ele>158.4</ele>
<time>2013-05-08T07:27:31.999Z</time>
</trkpt>
<trkpt lat="43.533501" lon="3.329611">
<ele>158.3</ele>
<time>2013-05-08T07:27:32.999Z</time>
</trkpt>
<trkpt lat="43.533625" lon="3.32954">
<ele>158.2</ele>
<time>2013-05-08T07:27:33.999Z</time>
</trkpt>
<trkpt lat="43.533745" lon="3.329526">
<ele>158.5</ele>
<time>2013-05-08T07:27:34.999Z</time>
</trkpt>
<trkpt lat="43.533861" lon="3.329542">
<ele>158.6</ele>
<time>2013-05-08T07:27:35.999Z</time>
</trkpt>
<trkpt lat="43.533942" lon="3.329592">
<ele>158.9</ele>
<time>2013-05-08T07:27:36.999Z</time>
</trkpt>
<trkpt lat="43.534029" lon="3.32965">
<ele>159.4</ele>
<time>2013-05-08T07:27:37.999Z</time>
</trkpt>
<trkpt lat="43.534134" lon="3.329725">
<ele>160</ele>
<time>2013-05-08T07:27:38.999Z</time>
</trkpt>
<trkpt lat="43.534237" lon="3.329808">
<ele>160.8</ele>
<time>2013-05-08T07:27:39.999Z</time>
</trkpt>
<trkpt lat="43.534341" lon="3.329897">
<ele>161.6</ele>
<time>2013-05-08T07:27:40.999Z</time>
</trkpt>
<trkpt lat="43.534447" lon="3.329997">
<ele>162.4</ele>
<time>2013-05-08T07:27:41.999Z</time>
</trkpt>
<trkpt lat="43.53456" lon="3.3301">
<ele>163.4</ele>
<time>2013-05-08T07:27:42.999Z</time>
</trkpt>
<trkpt lat="43.534669" lon="3.330204">
<ele>164</ele>
<time>2013-05-08T07:27:43.999Z</time>
</trkpt>
<trkpt lat="43.534779" lon="3.330309">
<ele>164.4</ele>
<time>2013-05-08T07:27:44.999Z</time>
</trkpt>
<trkpt lat="43.534894" lon="3.33042">
<ele>164.4</ele>
<time>2013-05-08T07:27:45.999Z</time>
</trkpt>
<trkpt lat="43.535012" lon="3.330537">
<ele>164.1</ele>
<time>2013-05-08T07:27:46.999Z</time>
</trkpt>
<trkpt lat="43.535139" lon="3.330651">
<ele>163.8</ele>
<time>2013-05-08T07:27:47.999Z</time>
</trkpt>
<trkpt lat="43.535252" lon="3.330755">
<ele>163.8</ele>
<time>2013-05-08T07:27:48.999Z</time>
</trkpt>
<trkpt lat="43.535364" lon="3.330853">
<ele>163.8</ele>
<time>2013-05-08T07:27:49.999Z</time>
</trkpt>
<trkpt lat="43.535473" lon="3.330951">
<ele>163.9</ele>
<time>2013-05-08T07:27:50.999Z</time>
</trkpt>
<trkpt lat="43.535575" lon="3.331047">
<ele>164.4</ele>
<time>2013-05-08T07:27:51.999Z</time>
</trkpt>
<trkpt lat="43.535657" lon="3.331118">
<ele>164.8</ele>
<time>2013-05-08T07:27:52.999Z</time>
</trkpt>
<trkpt lat="43.535757" lon="3.331196">
<ele>165.3</ele>
<time>2013-05-08T07:27:53.999Z</time>
</trkpt>
<trkpt lat="43.535869" lon="3.331268">
<ele>165.8</ele>
<time>2013-05-08T07:27:54.999Z</time>
</trkpt>
<trkpt lat="43.535991" lon="3.331325">
<ele>166.6</ele>
<time>2013-05-08T07:27:55.999Z</time>
</trkpt>
<trkpt lat="43.536128" lon="3.33135">
<ele>167.2</ele>
<time>2013-05-08T07:27:56.999Z</time>
</trkpt>
<trkpt lat="43.536272" lon="3.331359">
<ele>167.7</ele>
<time>2013-05-08T07:27:57.999Z</time>
</trkpt>
<trkpt lat="43.536418" lon="3.331378">
<ele>167.8</ele>
<time>2013-05-08T07:27:58.999Z</time>
</trkpt>
<trkpt lat="43.536544" lon="3.331429">
<ele>168.2</ele>
<time>2013-05-08T07:27:59.999Z</time>
</trkpt>
<trkpt lat="43.536669" lon="3.331494">
<ele>168.4</ele>
<time>2013-05-08T07:28:00.999Z</time>
</trkpt>
<trkpt lat="43.536794" lon="3.331578">
<ele>168.1</ele>
<time>2013-05-08T07:28:01.999Z</time>
</trkpt>
<trkpt lat="43.536922" lon="3.331674">
<ele>167.7</ele>
<time>2013-05-08T07:28:02.999Z</time>
</trkpt>
<trkpt lat="43.537043" lon="3.331765">
<ele>167.8</ele>
<time>2013-05-08T07:28:03.999Z</time>
</trkpt>
<trkpt lat="43.537161" lon="3.331855">
<ele>168.1</ele>
<time>2013-05-08T07:28:04.999Z</time>
</trkpt>
<trkpt lat="43.537274" lon="3.331942">
<ele>168.5</ele>
<time>2013-05-08T07:28:05.999Z</time>
</trkpt>
<trkpt lat="43.537395" lon="3.332021">
<ele>169.1</ele>
<time>2013-05-08T07:28:06.999Z</time>
</trkpt>
<trkpt lat="43.537504" lon="3.332137">
<ele>170.2</ele>
<time>2013-05-08T07:28:07.999Z</time>
</trkpt>
<trkpt lat="43.537612" lon="3.332269">
<ele>171.6</ele>
<time>2013-05-08T07:28:08.999Z</time>
</trkpt>
<trkpt lat="43.537704" lon="3.332402">
<ele>173.5</ele>
<time>2013-05-08T07:28:09.999Z</time>
</trkpt>
<trkpt lat="43.537792" lon="3.332536">
<ele>175</ele>
<time>2013-05-08T07:28:10.999Z</time>
</trkpt>
<trkpt lat="43.537891" lon="3.33269">
<ele>176.2</ele>
<time>2013-05-08T07:28:11.999Z</time>
</trkpt>
<trkpt lat="43.53796" lon="3.332878">
<ele>177.5</ele>
<time>2013-05-08T07:28:12.999Z</time>
</trkpt>
<trkpt lat="43.538022" lon="3.333057">
<ele>179.1</ele>
<time>2013-05-08T07:28:13.999Z</time>
</trkpt>
<trkpt lat="43.538078" lon="3.333237">
<ele>180.1</ele>
<time>2013-05-08T07:28:14.999Z</time>
</trkpt>
<trkpt lat="43.538144" lon="3.333429">
<ele>181.3</ele>
<time>2013-05-08T07:28:15.999Z</time>
</trkpt>
<trkpt lat="43.538217" lon="3.333609">
<ele>182.5</ele>
<time>2013-05-08T07:28:16.999Z</time>
</trkpt>
<trkpt lat="43.538297" lon="3.333785">
<ele>183.7</ele>
<time>2013-05-08T07:28:17.999Z</time>
</trkpt>
<trkpt lat="43.538383" lon="3.333941">
<ele>184.7</ele>
<time>2013-05-08T07:28:18.999Z</time>
</trkpt>
<trkpt lat="43.538507" lon="3.334069">
<ele>185.5</ele>
<time>2013-05-08T07:28:19.999Z</time>
</trkpt>
<trkpt lat="43.538635" lon="3.334182">
<ele>186.2</ele>
<time>2013-05-08T07:28:20.999Z</time>
</trkpt>
<trkpt lat="43.538769" lon="3.334289">
<ele>186.8</ele>
<time>2013-05-08T07:28:21.999Z</time>
</trkpt>
<trkpt lat="43.538917" lon="3.334358">
<ele>187.1</ele>
<time>2013-05-08T07:28:22.999Z</time>
</trkpt>
<trkpt lat="43.539051" lon="3.334413">
<ele>187.4</ele>
<time>2013-05-08T07:28:23.999Z</time>
</trkpt>
<trkpt lat="43.539192" lon="3.334475">
<ele>187.6</ele>
<time>2013-05-08T07:28:24.999Z</time>
</trkpt>
<trkpt lat="43.539304" lon="3.334471">
<ele>188.2</ele>
<time>2013-05-08T07:28:25.999Z</time>
</trkpt>
<trkpt lat="43.539424" lon="3.334445">
<ele>188.7</ele>
<time>2013-05-08T07:28:26.999Z</time>
</trkpt>
<trkpt lat="43.539533" lon="3.334305">
<ele>190.2</ele>
<time>2013-05-08T07:28:27.999Z</time>
</trkpt>
<trkpt lat="43.539627" lon="3.334111">
<ele>191</ele>
<time>2013-05-08T07:28:28.999Z</time>
</trkpt>
<trkpt lat="43.53971" lon="3.333899">
<ele>191.8</ele>
<time>2013-05-08T07:28:29.999Z</time>
</trkpt>
<trkpt lat="43.539784" lon="3.333656">
<ele>192.9</ele>
<time>2013-05-08T07:28:30.999Z</time>
</trkpt>
<trkpt lat="43.539865" lon="3.333393">
<ele>194.3</ele>
<time>2013-05-08T07:28:31.999Z</time>
</trkpt>
<trkpt lat="43.539945" lon="3.333124">
<ele>195.8</ele>
<time>2013-05-08T07:28:32.999Z</time>
</trkpt>
<trkpt lat="43.540022" lon="3.332865">
<ele>197.4</ele>
<time>2013-05-08T07:28:33.999Z</time>
</trkpt>
<trkpt lat="43.540092" lon="3.332613">
<ele>198.9</ele>
<time>2013-05-08T07:28:34.999Z</time>
</trkpt>
<trkpt lat="43.540135" lon="3.332365">
<ele>200.7</ele>
<time>2013-05-08T07:28:35.999Z</time>
</trkpt>
<trkpt lat="43.540167" lon="3.33212">
<ele>202.3</ele>
<time>2013-05-08T07:28:36.999Z</time>
</trkpt>
<trkpt lat="43.540191" lon="3.331869">
<ele>203.3</ele>
<time>2013-05-08T07:28:37.999Z</time>
</trkpt>
<trkpt lat="43.540204" lon="3.331616">
<ele>204.4</ele>
<time>2013-05-08T07:28:38.999Z</time>
</trkpt>
<trkpt lat="43.54021" lon="3.33137">
<ele>205.2</ele>
<time>2013-05-08T07:28:39.999Z</time>
</trkpt>
<trkpt lat="43.540215" lon="3.331141">
<ele>205.5</ele>
<time>2013-05-08T07:28:40.999Z</time>
</trkpt>
<trkpt lat="43.540226" lon="3.330931">
<ele>205.4</ele>
<time>2013-05-08T07:28:41.999Z</time>
</trkpt>
<trkpt lat="43.540268" lon="3.330747">
<ele>204.9</ele>
<time>2013-05-08T07:28:42.999Z</time>
</trkpt>
<trkpt lat="43.540303" lon="3.330576">
<ele>204.6</ele>
<time>2013-05-08T07:28:43.999Z</time>
</trkpt>
<trkpt lat="43.540337" lon="3.330457">
<ele>204.8</ele>
<time>2013-05-08T07:28:44.999Z</time>
</trkpt>
<trkpt lat="43.540384" lon="3.330388">
<ele>205.3</ele>
<time>2013-05-08T07:28:45.999Z</time>
</trkpt>
<trkpt lat="43.540447" lon="3.330347">
<ele>206.1</ele>
<time>2013-05-08T07:28:46.999Z</time>
</trkpt>
<trkpt lat="43.540506" lon="3.330354">
<ele>207</ele>
<time>2013-05-08T07:28:47.999Z</time>
</trkpt>
<trkpt lat="43.540563" lon="3.330389">
<ele>207.7</ele>
<time>2013-05-08T07:28:48.999Z</time>
</trkpt>
<trkpt lat="43.540578" lon="3.330483">
<ele>208.1</ele>
<time>2013-05-08T07:28:49.999Z</time>
</trkpt>
<trkpt lat="43.540545" lon="3.330618">
<ele>208</ele>
<time>2013-05-08T07:28:50.999Z</time>
</trkpt>
<trkpt lat="43.540504" lon="3.330752">
<ele>208.1</ele>
<time>2013-05-08T07:28:51.999Z</time>
</trkpt>
<trkpt lat="43.540477" lon="3.330905">
<ele>208.3</ele>
<time>2013-05-08T07:28:52.999Z</time>
</trkpt>
<trkpt lat="43.540498" lon="3.33106">
<ele>208.3</ele>
<time>2013-05-08T07:28:53.999Z</time>
</trkpt>
<trkpt lat="43.540552" lon="3.331226">
<ele>208</ele>
<time>2013-05-08T07:28:54.999Z</time>
</trkpt>
<trkpt lat="43.540631" lon="3.331417">
<ele>208.4</ele>
<time>2013-05-08T07:28:55.999Z</time>
</trkpt>
<trkpt lat="43.540727" lon="3.33162">
<ele>209.2</ele>
<time>2013-05-08T07:28:56.999Z</time>
</trkpt>
<trkpt lat="43.540828" lon="3.331822">
<ele>210.5</ele>
<time>2013-05-08T07:28:57.999Z</time>
</trkpt>
<trkpt lat="43.540925" lon="3.332021">
<ele>211.7</ele>
<time>2013-05-08T07:28:58.999Z</time>
</trkpt>
<trkpt lat="43.541025" lon="3.33222">
<ele>213</ele>
<time>2013-05-08T07:28:59.999Z</time>
</trkpt>
<trkpt lat="43.541115" lon="3.332407">
<ele>214.1</ele>
<time>2013-05-08T07:29:00.999Z</time>
</trkpt>
<trkpt lat="43.541158" lon="3.332618">
<ele>215</ele>
<time>2013-05-08T07:29:01.999Z</time>
</trkpt>
<trkpt lat="43.541181" lon="3.332816">
<ele>215.7</ele>
<time>2013-05-08T07:29:02.999Z</time>
</trkpt>
<trkpt lat="43.541142" lon="3.333011">
<ele>216.9</ele>
<time>2013-05-08T07:29:03.999Z</time>
</trkpt>
<trkpt lat="43.541103" lon="3.333197">
<ele>217.7</ele>
<time>2013-05-08T07:29:04.999Z</time>
</trkpt>
<trkpt lat="43.541091" lon="3.333371">
<ele>218.5</ele>
<time>2013-05-08T07:29:05.999Z</time>
</trkpt>
<trkpt lat="43.541107" lon="3.333535">
<ele>219.4</ele>
<time>2013-05-08T07:29:06.999Z</time>
</trkpt>
<trkpt lat="43.541155" lon="3.333637">
<ele>220.8</ele>
<time>2013-05-08T07:29:07.999Z</time>
</trkpt>
<trkpt lat="43.541239" lon="3.333717">
<ele>221.8</ele>
<time>2013-05-08T07:29:08.999Z</time>
</trkpt>
<trkpt lat="43.541355" lon="3.333733">
<ele>222</ele>
<time>2013-05-08T07:29:09.999Z</time>
</trkpt>
<trkpt lat="43.541488" lon="3.333748">
<ele>222.4</ele>
<time>2013-05-08T07:29:10.999Z</time>
</trkpt>
<trkpt lat="43.541639" lon="3.333774">
<ele>223</ele>
<time>2013-05-08T07:29:11.999Z</time>
</trkpt>
<trkpt lat="43.541788" lon="3.333815">
<ele>223.7</ele>
<time>2013-05-08T07:29:12.999Z</time>
</trkpt>
<trkpt lat="43.541909" lon="3.333897">
<ele>224.6</ele>
<time>2013-05-08T07:29:13.999Z</time>
</trkpt>
<trkpt lat="43.542032" lon="3.33397">
<ele>225.3</ele>
<time>2013-05-08T07:29:14.999Z</time>
</trkpt>
<trkpt lat="43.542161" lon="3.333975">
<ele>225.9</ele>
<time>2013-05-08T07:29:15.999Z</time>
</trkpt>
<trkpt lat="43.542295" lon="3.333978">
<ele>226.5</ele>
<time>2013-05-08T07:29:16.999Z</time>
</trkpt>
<trkpt lat="43.542428" lon="3.333981">
<ele>227.2</ele>
<time>2013-05-08T07:29:17.999Z</time>
</trkpt>
<trkpt lat="43.542573" lon="3.334002">
<ele>227.9</ele>
<time>2013-05-08T07:29:18.999Z</time>
</trkpt>
<trkpt lat="43.542721" lon="3.334061">
<ele>228.8</ele>
<time>2013-05-08T07:29:19.999Z</time>
</trkpt>
<trkpt lat="43.542866" lon="3.334121">
<ele>229.7</ele>
<time>2013-05-08T07:29:20.999Z</time>
</trkpt>
<trkpt lat="43.542997" lon="3.33417">
<ele>230.5</ele>
<time>2013-05-08T07:29:21.999Z</time>
</trkpt>
<trkpt lat="43.543107" lon="3.334207">
<ele>231.4</ele>
<time>2013-05-08T07:29:22.999Z</time>
</trkpt>
<trkpt lat="43.543197" lon="3.334242">
<ele>232.5</ele>
<time>2013-05-08T07:29:23.999Z</time>
</trkpt>
<trkpt lat="43.543271" lon="3.334284">
<ele>233.5</ele>
<time>2013-05-08T07:29:24.999Z</time>
</trkpt>
<trkpt lat="43.54329" lon="3.334378">
<ele>234.6</ele>
<time>2013-05-08T07:29:25.999Z</time>
</trkpt>
<trkpt lat="43.54328" lon="3.334483">
<ele>236</ele>
<time>2013-05-08T07:29:26.999Z</time>
</trkpt>
<trkpt lat="43.543262" lon="3.334618">
<ele>237.5</ele>
<time>2013-05-08T07:29:27.999Z</time>
</trkpt>
<trkpt lat="43.543237" lon="3.334779">
<ele>238.9</ele>
<time>2013-05-08T07:29:28.999Z</time>
</trkpt>
<trkpt lat="43.543211" lon="3.334977">
<ele>240.2</ele>
<time>2013-05-08T07:29:29.999Z</time>
</trkpt>
<trkpt lat="43.543195" lon="3.335195">
<ele>241.3</ele>
<time>2013-05-08T07:29:30.999Z</time>
</trkpt>
<trkpt lat="43.543226" lon="3.335431">
<ele>242.1</ele>
<time>2013-05-08T07:29:31.999Z</time>
</trkpt>
<trkpt lat="43.543259" lon="3.335686">
<ele>242.7</ele>
<time>2013-05-08T07:29:32.999Z</time>
</trkpt>
<trkpt lat="43.543293" lon="3.335957">
<ele>243.2</ele>
<time>2013-05-08T07:29:33.999Z</time>
</trkpt>
<trkpt lat="43.543336" lon="3.336199">
<ele>243.5</ele>
<time>2013-05-08T07:29:34.999Z</time>
</trkpt>
<trkpt lat="43.54339" lon="3.336426">
<ele>244.1</ele>
<time>2013-05-08T07:29:35.999Z</time>
</trkpt>
<trkpt lat="43.543466" lon="3.336646">
<ele>244.6</ele>
<time>2013-05-08T07:29:36.999Z</time>
</trkpt>
<trkpt lat="43.543584" lon="3.336819">
<ele>245.2</ele>
<time>2013-05-08T07:29:37.999Z</time>
</trkpt>
<trkpt lat="43.543705" lon="3.336978">
<ele>245.7</ele>
<time>2013-05-08T07:29:38.999Z</time>
</trkpt>
<trkpt lat="43.5438" lon="3.337157">
<ele>246.4</ele>
<time>2013-05-08T07:29:39.999Z</time>
</trkpt>
<trkpt lat="43.543847" lon="3.337358">
<ele>247.1</ele>
<time>2013-05-08T07:29:40.999Z</time>
</trkpt>
<trkpt lat="43.543886" lon="3.337573">
<ele>247.7</ele>
<time>2013-05-08T07:29:41.999Z</time>
</trkpt>
<trkpt lat="43.543919" lon="3.337766">
<ele>248.4</ele>
<time>2013-05-08T07:29:42.999Z</time>
</trkpt>
<trkpt lat="43.543983" lon="3.337955">
<ele>249.4</ele>
<time>2013-05-08T07:29:43.999Z</time>
</trkpt>
<trkpt lat="43.544005" lon="3.338121">
<ele>250.3</ele>
<time>2013-05-08T07:29:44.999Z</time>
</trkpt>
<trkpt lat="43.544021" lon="3.338264">
<ele>251</ele>
<time>2013-05-08T07:29:45.999Z</time>
</trkpt>
<trkpt lat="43.543969" lon="3.338386">
<ele>251.5</ele>
<time>2013-05-08T07:29:46.999Z</time>
</trkpt>
<trkpt lat="43.543869" lon="3.338476">
<ele>252.6</ele>
<time>2013-05-08T07:29:47.999Z</time>
</trkpt>
<trkpt lat="43.543761" lon="3.338563">
<ele>253.5</ele>
<time>2013-05-08T07:29:48.999Z</time>
</trkpt>
<trkpt lat="43.54366" lon="3.338632">
<ele>253.7</ele>
<time>2013-05-08T07:29:49.999Z</time>
</trkpt>
<trkpt lat="43.543624" lon="3.338735">
<ele>253.8</ele>
<time>2013-05-08T07:29:50.999Z</time>
</trkpt>
<trkpt lat="43.54363" lon="3.33885">
<ele>254.2</ele>
<time>2013-05-08T07:29:51.999Z</time>
</trkpt>
<trkpt lat="43.543681" lon="3.338961">
<ele>254.7</ele>
<time>2013-05-08T07:29:52.999Z</time>
</trkpt>
<trkpt lat="43.543756" lon="3.339047">
<ele>255.1</ele>
<time>2013-05-08T07:29:53.999Z</time>
</trkpt>
<trkpt lat="43.543842" lon="3.339139">
<ele>255.4</ele>
<time>2013-05-08T07:29:54.999Z</time>
</trkpt>
<trkpt lat="43.54397" lon="3.339135">
<ele>255.3</ele>
<time>2013-05-08T07:29:55.999Z</time>
</trkpt>
<trkpt lat="43.544144" lon="3.339094">
<ele>255.6</ele>
<time>2013-05-08T07:29:56.999Z</time>
</trkpt>
<trkpt lat="43.544316" lon="3.339043">
<ele>255.7</ele>
<time>2013-05-08T07:29:57.999Z</time>
</trkpt>
<trkpt lat="43.544506" lon="3.338996">
<ele>256</ele>
<time>2013-05-08T07:29:58.999Z</time>
</trkpt>
<trkpt lat="43.544698" lon="3.338949">
<ele>256.5</ele>
<time>2013-05-08T07:29:59.999Z</time>
</trkpt>
<trkpt lat="43.544868" lon="3.338896">
<ele>257.3</ele>
<time>2013-05-08T07:30:00.999Z</time>
</trkpt>
<trkpt lat="43.545013" lon="3.338854">
<ele>257.6</ele>
<time>2013-05-08T07:30:01.999Z</time>
</trkpt>
<trkpt lat="43.545113" lon="3.338859">
<ele>258.5</ele>
<time>2013-05-08T07:30:02.999Z</time>
</trkpt>
<trkpt lat="43.545187" lon="3.338899">
<ele>259.5</ele>
<time>2013-05-08T07:30:03.999Z</time>
</trkpt>
<trkpt lat="43.545214" lon="3.338989">
<ele>260.6</ele>
<time>2013-05-08T07:30:04.999Z</time>
</trkpt>
<trkpt lat="43.545202" lon="3.339091">
<ele>261.5</ele>
<time>2013-05-08T07:30:05.999Z</time>
</trkpt>
<trkpt lat="43.545178" lon="3.339218">
<ele>262.3</ele>
<time>2013-05-08T07:30:06.999Z</time>
</trkpt>
<trkpt lat="43.545178" lon="3.339396">
<ele>263.2</ele>
<time>2013-05-08T07:30:07.999Z</time>
</trkpt>
<trkpt lat="43.545187" lon="3.339577">
<ele>264.3</ele>
<time>2013-05-08T07:30:08.999Z</time>
</trkpt>
<trkpt lat="43.545233" lon="3.339735">
<ele>265</ele>
<time>2013-05-08T07:30:09.999Z</time>
</trkpt>
<trkpt lat="43.545327" lon="3.339853">
<ele>265.5</ele>
<time>2013-05-08T07:30:10.999Z</time>
</trkpt>
<trkpt lat="43.545467" lon="3.339934">
<ele>266.6</ele>
<time>2013-05-08T07:30:11.999Z</time>
</trkpt>
<trkpt lat="43.545602" lon="3.340013">
<ele>268</ele>
<time>2013-05-08T07:30:12.999Z</time>
</trkpt>
<trkpt lat="43.545737" lon="3.340063">
<ele>269.6</ele>
<time>2013-05-08T07:30:13.999Z</time>
</trkpt>
<trkpt lat="43.54587" lon="3.340115">
<ele>271.6</ele>
<time>2013-05-08T07:30:14.999Z</time>
</trkpt>
<trkpt lat="43.545962" lon="3.340221">
<ele>273.6</ele>
<time>2013-05-08T07:30:15.999Z</time>
</trkpt>
<trkpt lat="43.545985" lon="3.340357">
<ele>275.2</ele>
<time>2013-05-08T07:30:16.999Z</time>
</trkpt>
<trkpt lat="43.545975" lon="3.340496">
<ele>276.7</ele>
<time>2013-05-08T07:30:17.999Z</time>
</trkpt>
<trkpt lat="43.545967" lon="3.340644">
<ele>277.9</ele>
<time>2013-05-08T07:30:18.999Z</time>
</trkpt>
<trkpt lat="43.546021" lon="3.340786">
<ele>278.7</ele>
<time>2013-05-08T07:30:19.999Z</time>
</trkpt>
<trkpt lat="43.546108" lon="3.340903">
<ele>279.2</ele>
<time>2013-05-08T07:30:20.999Z</time>
</trkpt>
<trkpt lat="43.546218" lon="3.341019">
<ele>279.7</ele>
<time>2013-05-08T07:30:21.999Z</time>
</trkpt>
<trkpt lat="43.546364" lon="3.341091">
<ele>280.4</ele>
<time>2013-05-08T07:30:22.999Z</time>
</trkpt>
<trkpt lat="43.546513" lon="3.341146">
<ele>281.4</ele>
<time>2013-05-08T07:30:23.999Z</time>
</trkpt>
<trkpt lat="43.546691" lon="3.341171">
<ele>282.7</ele>
<time>2013-05-08T07:30:24.999Z</time>
</trkpt>
<trkpt lat="43.546869" lon="3.341193">
<ele>283.9</ele>
<time>2013-05-08T07:30:25.999Z</time>
</trkpt>
<trkpt lat="43.547039" lon="3.341225">
<ele>285</ele>
<time>2013-05-08T07:30:26.999Z</time>
</trkpt>
<trkpt lat="43.547183" lon="3.341313">
<ele>285.9</ele>
<time>2013-05-08T07:30:27.999Z</time>
</trkpt>
<trkpt lat="43.547321" lon="3.341412">
<ele>286.8</ele>
<time>2013-05-08T07:30:28.999Z</time>
</trkpt>
<trkpt lat="43.547372" lon="3.341621">
<ele>287.1</ele>
<time>2013-05-08T07:30:29.999Z</time>
</trkpt>
<trkpt lat="43.547408" lon="3.341863">
<ele>287.1</ele>
<time>2013-05-08T07:30:30.999Z</time>
</trkpt>
<trkpt lat="43.547444" lon="3.342121">
<ele>287.2</ele>
<time>2013-05-08T07:30:31.999Z</time>
</trkpt>
<trkpt lat="43.547477" lon="3.342376">
<ele>287.3</ele>
<time>2013-05-08T07:30:32.999Z</time>
</trkpt>
<trkpt lat="43.547513" lon="3.342625">
<ele>287.7</ele>
<time>2013-05-08T07:30:33.999Z</time>
</trkpt>
<trkpt lat="43.547537" lon="3.342822">
<ele>288.1</ele>
<time>2013-05-08T07:30:34.999Z</time>
</trkpt>
<trkpt lat="43.547605" lon="3.343002">
<ele>288.2</ele>
<time>2013-05-08T07:30:35.999Z</time>
</trkpt>
<trkpt lat="43.54766" lon="3.343164">
<ele>288.7</ele>
<time>2013-05-08T07:30:36.999Z</time>
</trkpt>
<trkpt lat="43.547781" lon="3.343308">
<ele>289.2</ele>
<time>2013-05-08T07:30:37.999Z</time>
</trkpt>
<trkpt lat="43.547916" lon="3.34343">
<ele>289.8</ele>
<time>2013-05-08T07:30:38.999Z</time>
</trkpt>
<trkpt lat="43.548056" lon="3.343549">
<ele>290.3</ele>
<time>2013-05-08T07:30:39.999Z</time>
</trkpt>
<trkpt lat="43.548188" lon="3.34366">
<ele>290.8</ele>
<time>2013-05-08T07:30:40.999Z</time>
</trkpt>
<trkpt lat="43.548317" lon="3.343761">
<ele>290.9</ele>
<time>2013-05-08T07:30:41.999Z</time>
</trkpt>
<trkpt lat="43.548438" lon="3.343849">
<ele>290.9</ele>
<time>2013-05-08T07:30:42.999Z</time>
</trkpt>
<trkpt lat="43.54856" lon="3.343936">
<ele>290.9</ele>
<time>2013-05-08T07:30:43.999Z</time>
</trkpt>
<trkpt lat="43.548681" lon="3.344014">
<ele>290.7</ele>
<time>2013-05-08T07:30:44.999Z</time>
</trkpt>
<trkpt lat="43.548819" lon="3.344045">
<ele>290.1</ele>
<time>2013-05-08T07:30:45.999Z</time>
</trkpt>
<trkpt lat="43.548969" lon="3.344068">
<ele>290.1</ele>
<time>2013-05-08T07:30:46.999Z</time>
</trkpt>
<trkpt lat="43.54913" lon="3.344084">
<ele>290.2</ele>
<time>2013-05-08T07:30:47.999Z</time>
</trkpt>
<trkpt lat="43.549307" lon="3.344094">
<ele>290.4</ele>
<time>2013-05-08T07:30:48.999Z</time>
</trkpt>
<trkpt lat="43.549469" lon="3.344099">
<ele>290.3</ele>
<time>2013-05-08T07:30:49.999Z</time>
</trkpt>
<trkpt lat="43.549625" lon="3.344089">
<ele>290.3</ele>
<time>2013-05-08T07:30:50.999Z</time>
</trkpt>
<trkpt lat="43.549758" lon="3.344013">
<ele>290.5</ele>
<time>2013-05-08T07:30:51.999Z</time>
</trkpt>
<trkpt lat="43.549893" lon="3.343921">
<ele>291.1</ele>
<time>2013-05-08T07:30:52.999Z</time>
</trkpt>
<trkpt lat="43.550023" lon="3.343815">
<ele>291.9</ele>
<time>2013-05-08T07:30:53.999Z</time>
</trkpt>
<trkpt lat="43.550145" lon="3.343716">
<ele>292.6</ele>
<time>2013-05-08T07:30:54.999Z</time>
</trkpt>
<trkpt lat="43.550242" lon="3.343618">
<ele>293.7</ele>
<time>2013-05-08T07:30:55.999Z</time>
</trkpt>
<trkpt lat="43.550355" lon="3.343618">
<ele>294.5</ele>
<time>2013-05-08T07:30:56.999Z</time>
</trkpt>
<trkpt lat="43.550455" lon="3.343632">
<ele>295</ele>
<time>2013-05-08T07:30:57.999Z</time>
</trkpt>
<trkpt lat="43.550484" lon="3.343788">
<ele>295.4</ele>
<time>2013-05-08T07:30:58.999Z</time>
</trkpt>
<trkpt lat="43.550475" lon="3.343973">
<ele>295.7</ele>
<time>2013-05-08T07:30:59.999Z</time>
</trkpt>
<trkpt lat="43.550456" lon="3.344171">
<ele>296.1</ele>
<time>2013-05-08T07:31:00.999Z</time>
</trkpt>
<trkpt lat="43.550439" lon="3.344369">
<ele>296.5</ele>
<time>2013-05-08T07:31:01.999Z</time>
</trkpt>
<trkpt lat="43.550464" lon="3.344555">
<ele>296.9</ele>
<time>2013-05-08T07:31:02.999Z</time>
</trkpt>
<trkpt lat="43.550504" lon="3.344763">
<ele>297</ele>
<time>2013-05-08T07:31:03.999Z</time>
</trkpt>
<trkpt lat="43.550553" lon="3.344961">
<ele>297.1</ele>
<time>2013-05-08T07:31:04.999Z</time>
</trkpt>
<trkpt lat="43.550605" lon="3.345157">
<ele>297.3</ele>
<time>2013-05-08T07:31:05.999Z</time>
</trkpt>
<trkpt lat="43.550617" lon="3.345348">
<ele>297.1</ele>
<time>2013-05-08T07:31:06.999Z</time>
</trkpt>
<trkpt lat="43.550613" lon="3.345548">
<ele>297.4</ele>
<time>2013-05-08T07:31:07.999Z</time>
</trkpt>
<trkpt lat="43.550537" lon="3.345715">
<ele>298</ele>
<time>2013-05-08T07:31:08.999Z</time>
</trkpt>
<trkpt lat="43.550417" lon="3.345842">
<ele>298.7</ele>
<time>2013-05-08T07:31:09.999Z</time>
</trkpt>
<trkpt lat="43.550301" lon="3.345954">
<ele>299.3</ele>
<time>2013-05-08T07:31:10.999Z</time>
</trkpt>
<trkpt lat="43.550186" lon="3.346059">
<ele>299.7</ele>
<time>2013-05-08T07:31:11.999Z</time>
</trkpt>
<trkpt lat="43.550081" lon="3.346185">
<ele>300.1</ele>
<time>2013-05-08T07:31:12.999Z</time>
</trkpt>
<trkpt lat="43.550005" lon="3.346319">
<ele>300.4</ele>
<time>2013-05-08T07:31:13.999Z</time>
</trkpt>
<trkpt lat="43.54995" lon="3.346468">
<ele>300.4</ele>
<time>2013-05-08T07:31:14.999Z</time>
</trkpt>
<trkpt lat="43.549997" lon="3.34666">
<ele>300.3</ele>
<time>2013-05-08T07:31:15.999Z</time>
</trkpt>
<trkpt lat="43.550061" lon="3.346878">
<ele>299.8</ele>
<time>2013-05-08T07:31:16.999Z</time>
</trkpt>
<trkpt lat="43.550141" lon="3.347153">
<ele>299.4</ele>
<time>2013-05-08T07:31:17.999Z</time>
</trkpt>
<trkpt lat="43.550224" lon="3.347428">
<ele>299</ele>
<time>2013-05-08T07:31:18.999Z</time>
</trkpt>
<trkpt lat="43.550305" lon="3.34769">
<ele>299</ele>
<time>2013-05-08T07:31:19.999Z</time>
</trkpt>
<trkpt lat="43.550369" lon="3.347961">
<ele>299.2</ele>
<time>2013-05-08T07:31:20.999Z</time>
</trkpt>
<trkpt lat="43.55041" lon="3.348227">
<ele>299.8</ele>
<time>2013-05-08T07:31:21.999Z</time>
</trkpt>
<trkpt lat="43.550424" lon="3.348489">
<ele>300.3</ele>
<time>2013-05-08T07:31:22.999Z</time>
</trkpt>
<trkpt lat="43.550432" lon="3.348723">
<ele>301</ele>
<time>2013-05-08T07:31:23.999Z</time>
</trkpt>
<trkpt lat="43.550447" lon="3.348923">
<ele>301.4</ele>
<time>2013-05-08T07:31:24.999Z</time>
</trkpt>
<trkpt lat="43.550515" lon="3.349089">
<ele>301.6</ele>
<time>2013-05-08T07:31:25.999Z</time>
</trkpt>
<trkpt lat="43.550623" lon="3.34921">
<ele>301.7</ele>
<time>2013-05-08T07:31:26.999Z</time>
</trkpt>
<trkpt lat="43.550775" lon="3.349282">
<ele>301.9</ele>
<time>2013-05-08T07:31:27.999Z</time>
</trkpt>
<trkpt lat="43.550925" lon="3.349344">
<ele>302.1</ele>
<time>2013-05-08T07:31:28.999Z</time>
</trkpt>
<trkpt lat="43.551093" lon="3.349363">
<ele>301.8</ele>
<time>2013-05-08T07:31:29.999Z</time>
</trkpt>
<trkpt lat="43.551259" lon="3.349356">
<ele>301.3</ele>
<time>2013-05-08T07:31:30.999Z</time>
</trkpt>
<trkpt lat="43.551427" lon="3.34928">
<ele>300.5</ele>
<time>2013-05-08T07:31:31.999Z</time>
</trkpt>
<trkpt lat="43.551589" lon="3.349149">
<ele>300.2</ele>
<time>2013-05-08T07:31:32.999Z</time>
</trkpt>
<trkpt lat="43.551754" lon="3.349027">
<ele>300.7</ele>
<time>2013-05-08T07:31:33.999Z</time>
</trkpt>
<trkpt lat="43.551891" lon="3.34892">
<ele>301.5</ele>
<time>2013-05-08T07:31:34.999Z</time>
</trkpt>
<trkpt lat="43.552013" lon="3.348832">
<ele>302.1</ele>
<time>2013-05-08T07:31:35.999Z</time>
</trkpt>
<trkpt lat="43.552113" lon="3.348805">
<ele>303.2</ele>
<time>2013-05-08T07:31:36.999Z</time>
</trkpt>
<trkpt lat="43.552198" lon="3.34879">
<ele>304.5</ele>
<time>2013-05-08T07:31:37.999Z</time>
</trkpt>
<trkpt lat="43.552283" lon="3.348861">
<ele>306</ele>
<time>2013-05-08T07:31:38.999Z</time>
</trkpt>
<trkpt lat="43.552371" lon="3.34895">
<ele>307.2</ele>
<time>2013-05-08T07:31:39.999Z</time>
</trkpt>
<trkpt lat="43.552427" lon="3.34915">
<ele>308</ele>
<time>2013-05-08T07:31:40.999Z</time>
</trkpt>
<trkpt lat="43.552498" lon="3.349365">
<ele>308.5</ele>
<time>2013-05-08T07:31:41.999Z</time>
</trkpt>
<trkpt lat="43.552568" lon="3.349605">
<ele>308.6</ele>
<time>2013-05-08T07:31:42.999Z</time>
</trkpt>
<trkpt lat="43.552643" lon="3.349857">
<ele>308.7</ele>
<time>2013-05-08T07:31:43.999Z</time>
</trkpt>
<trkpt lat="43.552714" lon="3.350098">
<ele>308.7</ele>
<time>2013-05-08T07:31:44.999Z</time>
</trkpt>
<trkpt lat="43.552774" lon="3.35033">
<ele>308.7</ele>
<time>2013-05-08T07:31:45.999Z</time>
</trkpt>
<trkpt lat="43.552789" lon="3.350554">
<ele>308.2</ele>
<time>2013-05-08T07:31:46.999Z</time>
</trkpt>
<trkpt lat="43.55279" lon="3.350786">
<ele>307.8</ele>
<time>2013-05-08T07:31:47.999Z</time>
</trkpt>
<trkpt lat="43.552719" lon="3.350979">
<ele>307.2</ele>
<time>2013-05-08T07:31:48.999Z</time>
</trkpt>
<trkpt lat="43.552458" lon="3.351379">
<ele>307.4</ele>
<time>2013-05-08T07:31:50.999Z</time>
</trkpt>
<trkpt lat="43.552281" lon="3.35152">
<ele>307.8</ele>
<time>2013-05-08T07:31:51.999Z</time>
</trkpt>
<trkpt lat="43.552108" lon="3.351665">
<ele>308.3</ele>
<time>2013-05-08T07:31:52.999Z</time>
</trkpt>
<trkpt lat="43.551956" lon="3.351833">
<ele>308.8</ele>
<time>2013-05-08T07:31:53.999Z</time>
</trkpt>
<trkpt lat="43.551828" lon="3.352009">
<ele>309.2</ele>
<time>2013-05-08T07:31:54.999Z</time>
</trkpt>
<trkpt lat="43.551725" lon="3.352193">
<ele>309.3</ele>
<time>2013-05-08T07:31:55.999Z</time>
</trkpt>
<trkpt lat="43.551646" lon="3.352396">
<ele>309</ele>
<time>2013-05-08T07:31:56.999Z</time>
</trkpt>
<trkpt lat="43.551665" lon="3.352596">
<ele>307.1</ele>
<time>2013-05-08T07:31:57.999Z</time>
</trkpt>
<trkpt lat="43.551682" lon="3.352796">
<ele>305.8</ele>
<time>2013-05-08T07:31:58.999Z</time>
</trkpt>
<trkpt lat="43.551742" lon="3.352989">
<ele>304.7</ele>
<time>2013-05-08T07:31:59.999Z</time>
</trkpt>
<trkpt lat="43.551838" lon="3.353164">
<ele>303.9</ele>
<time>2013-05-08T07:32:00.999Z</time>
</trkpt>
<trkpt lat="43.551931" lon="3.353319">
<ele>303.7</ele>
<time>2013-05-08T07:32:01.999Z</time>
</trkpt>
<trkpt lat="43.552073" lon="3.353402">
<ele>303.5</ele>
<time>2013-05-08T07:32:02.999Z</time>
</trkpt>
<trkpt lat="43.552231" lon="3.353488">
<ele>302.7</ele>
<time>2013-05-08T07:32:03.999Z</time>
</trkpt>
<trkpt lat="43.552398" lon="3.353565">
<ele>302</ele>
<time>2013-05-08T07:32:04.999Z</time>
</trkpt>
<trkpt lat="43.552557" lon="3.353638">
<ele>301.3</ele>
<time>2013-05-08T07:32:05.999Z</time>
</trkpt>
<trkpt lat="43.552717" lon="3.353695">
<ele>300.8</ele>
<time>2013-05-08T07:32:06.999Z</time>
</trkpt>
<trkpt lat="43.552869" lon="3.353673">
<ele>300.4</ele>
<time>2013-05-08T07:32:07.999Z</time>
</trkpt>
<trkpt lat="43.553027" lon="3.353598">
<ele>299.6</ele>
<time>2013-05-08T07:32:08.999Z</time>
</trkpt>
<trkpt lat="43.553184" lon="3.353512">
<ele>298.8</ele>
<time>2013-05-08T07:32:09.999Z</time>
</trkpt>
<trkpt lat="43.553337" lon="3.353424">
<ele>298.5</ele>
<time>2013-05-08T07:32:10.999Z</time>
</trkpt>
<trkpt lat="43.55349" lon="3.353345">
<ele>298.2</ele>
<time>2013-05-08T07:32:11.999Z</time>
</trkpt>
<trkpt lat="43.553648" lon="3.353323">
<ele>297.8</ele>
<time>2013-05-08T07:32:12.999Z</time>
</trkpt>
<trkpt lat="43.55379" lon="3.353379">
<ele>298.1</ele>
<time>2013-05-08T07:32:13.999Z</time>
</trkpt>
<trkpt lat="43.553918" lon="3.353481">
<ele>298.5</ele>
<time>2013-05-08T07:32:14.999Z</time>
</trkpt>
<trkpt lat="43.554045" lon="3.353607">
<ele>298.9</ele>
<time>2013-05-08T07:32:15.999Z</time>
</trkpt>
<trkpt lat="43.554173" lon="3.353747">
<ele>298.6</ele>
<time>2013-05-08T07:32:16.999Z</time>
</trkpt>
<trkpt lat="43.554307" lon="3.353897">
<ele>298.4</ele>
<time>2013-05-08T07:32:17.999Z</time>
</trkpt>
<trkpt lat="43.554443" lon="3.354056">
<ele>297.9</ele>
<time>2013-05-08T07:32:18.999Z</time>
</trkpt>
<trkpt lat="43.55458" lon="3.354231">
<ele>297.6</ele>
<time>2013-05-08T07:32:19.999Z</time>
</trkpt>
<trkpt lat="43.554679" lon="3.354462">
<ele>297.5</ele>
<time>2013-05-08T07:32:20.999Z</time>
</trkpt>
<trkpt lat="43.554745" lon="3.354716">
<ele>297.4</ele>
<time>2013-05-08T07:32:21.999Z</time>
</trkpt>
<trkpt lat="43.554801" lon="3.354957">
<ele>297.1</ele>
<time>2013-05-08T07:32:22.999Z</time>
</trkpt>
<trkpt lat="43.554857" lon="3.355196">
<ele>296.4</ele>
<time>2013-05-08T07:32:23.999Z</time>
</trkpt>
<trkpt lat="43.554893" lon="3.355423">
<ele>295.8</ele>
<time>2013-05-08T07:32:24.999Z</time>
</trkpt>
<trkpt lat="43.5549" lon="3.355642">
<ele>295.1</ele>
<time>2013-05-08T07:32:25.999Z</time>
</trkpt>
<trkpt lat="43.554896" lon="3.355834">
<ele>294.2</ele>
<time>2013-05-08T07:32:26.999Z</time>
</trkpt>
<trkpt lat="43.554883" lon="3.356009">
<ele>292.9</ele>
<time>2013-05-08T07:32:27.999Z</time>
</trkpt>
<trkpt lat="43.554877" lon="3.356164">
<ele>291.5</ele>
<time>2013-05-08T07:32:28.999Z</time>
</trkpt>
<trkpt lat="43.554898" lon="3.356289">
<ele>290.4</ele>
<time>2013-05-08T07:32:29.999Z</time>
</trkpt>
<trkpt lat="43.554935" lon="3.356299">
<ele>288.6</ele>
<time>2013-05-08T07:32:30.999Z</time>
</trkpt>
<trkpt lat="43.555" lon="3.356261">
<ele>287.6</ele>
<time>2013-05-08T07:32:31.999Z</time>
</trkpt>
<trkpt lat="43.555036" lon="3.356158">
<ele>287</ele>
<time>2013-05-08T07:32:32.999Z</time>
</trkpt>
<trkpt lat="43.555048" lon="3.355986">
<ele>286.3</ele>
<time>2013-05-08T07:32:33.999Z</time>
</trkpt>
<trkpt lat="43.555063" lon="3.355775">
<ele>285.5</ele>
<time>2013-05-08T07:32:34.999Z</time>
</trkpt>
<trkpt lat="43.555088" lon="3.355525">
<ele>285</ele>
<time>2013-05-08T07:32:35.999Z</time>
</trkpt>
<trkpt lat="43.555131" lon="3.355282">
<ele>284.8</ele>
<time>2013-05-08T07:32:36.999Z</time>
</trkpt>
<trkpt lat="43.555187" lon="3.355018">
<ele>284.5</ele>
<time>2013-05-08T07:32:37.999Z</time>
</trkpt>
<trkpt lat="43.555246" lon="3.354752">
<ele>284.5</ele>
<time>2013-05-08T07:32:38.999Z</time>
</trkpt>
<trkpt lat="43.555314" lon="3.354513">
<ele>284.2</ele>
<time>2013-05-08T07:32:39.999Z</time>
</trkpt>
<trkpt lat="43.55536" lon="3.354269">
<ele>284</ele>
<time>2013-05-08T07:32:40.999Z</time>
</trkpt>
<trkpt lat="43.555384" lon="3.354015">
<ele>284</ele>
<time>2013-05-08T07:32:41.999Z</time>
</trkpt>
<trkpt lat="43.555394" lon="3.353745">
<ele>283.8</ele>
<time>2013-05-08T07:32:42.999Z</time>
</trkpt>
<trkpt lat="43.555404" lon="3.353467">
<ele>283.5</ele>
<time>2013-05-08T07:32:43.999Z</time>
</trkpt>
<trkpt lat="43.555376" lon="3.353213">
<ele>283.7</ele>
<time>2013-05-08T07:32:44.999Z</time>
</trkpt>
<trkpt lat="43.555327" lon="3.352964">
<ele>283.3</ele>
<time>2013-05-08T07:32:45.999Z</time>
</trkpt>
<trkpt lat="43.555273" lon="3.352718">
<ele>283.6</ele>
<time>2013-05-08T07:32:46.999Z</time>
</trkpt>
<trkpt lat="43.555237" lon="3.352477">
<ele>284.1</ele>
<time>2013-05-08T07:32:47.999Z</time>
</trkpt>
<trkpt lat="43.555214" lon="3.352236">
<ele>284.1</ele>
<time>2013-05-08T07:32:48.999Z</time>
</trkpt>
<trkpt lat="43.55522" lon="3.35199">
<ele>284.1</ele>
<time>2013-05-08T07:32:49.999Z</time>
</trkpt>
<trkpt lat="43.555247" lon="3.351737">
<ele>284.1</ele>
<time>2013-05-08T07:32:50.999Z</time>
</trkpt>
<trkpt lat="43.555277" lon="3.351475">
<ele>283.5</ele>
<time>2013-05-08T07:32:51.999Z</time>
</trkpt>
<trkpt lat="43.555329" lon="3.351216">
<ele>282.2</ele>
<time>2013-05-08T07:32:52.999Z</time>
</trkpt>
<trkpt lat="43.555397" lon="3.350957">
<ele>281</ele>
<time>2013-05-08T07:32:53.999Z</time>
</trkpt>
<trkpt lat="43.555469" lon="3.350697">
<ele>279.7</ele>
<time>2013-05-08T07:32:54.999Z</time>
</trkpt>
<trkpt lat="43.555555" lon="3.350441">
<ele>278.3</ele>
<time>2013-05-08T07:32:55.999Z</time>
</trkpt>
<trkpt lat="43.555655" lon="3.350202">
<ele>276.7</ele>
<time>2013-05-08T07:32:56.999Z</time>
</trkpt>
<trkpt lat="43.555771" lon="3.349973">
<ele>274.9</ele>
<time>2013-05-08T07:32:57.999Z</time>
</trkpt>
<trkpt lat="43.55588" lon="3.349754">
<ele>273.2</ele>
<time>2013-05-08T07:32:58.999Z</time>
</trkpt>
<trkpt lat="43.555993" lon="3.349534">
<ele>271.8</ele>
<time>2013-05-08T07:32:59.999Z</time>
</trkpt>
<trkpt lat="43.556105" lon="3.349329">
<ele>270.4</ele>
<time>2013-05-08T07:33:00.999Z</time>
</trkpt>
<trkpt lat="43.556219" lon="3.349138">
<ele>269.2</ele>
<time>2013-05-08T07:33:01.999Z</time>
</trkpt>
<trkpt lat="43.556334" lon="3.348977">
<ele>268.4</ele>
<time>2013-05-08T07:33:02.999Z</time>
</trkpt>
<trkpt lat="43.556438" lon="3.348833">
<ele>267.8</ele>
<time>2013-05-08T07:33:03.999Z</time>
</trkpt>
<trkpt lat="43.556534" lon="3.348709">
<ele>267.4</ele>
<time>2013-05-08T07:33:04.999Z</time>
</trkpt>
<trkpt lat="43.556608" lon="3.348608">
<ele>267</ele>
<time>2013-05-08T07:33:05.999Z</time>
</trkpt>
<trkpt lat="43.556676" lon="3.34853">
<ele>266.7</ele>
<time>2013-05-08T07:33:06.999Z</time>
</trkpt>
<trkpt lat="43.556741" lon="3.348458">
<ele>266.9</ele>
<time>2013-05-08T07:33:07.999Z</time>
</trkpt>
<trkpt lat="43.556826" lon="3.34855">
<ele>266.6</ele>
<time>2013-05-08T07:33:08.999Z</time>
</trkpt>
<trkpt lat="43.556858" lon="3.348693">
<ele>265.7</ele>
<time>2013-05-08T07:33:09.999Z</time>
</trkpt>
<trkpt lat="43.556857" lon="3.348853">
<ele>264.8</ele>
<time>2013-05-08T07:33:10.999Z</time>
</trkpt>
<trkpt lat="43.55679" lon="3.349042">
<ele>264</ele>
<time>2013-05-08T07:33:11.999Z</time>
</trkpt>
<trkpt lat="43.556707" lon="3.349251">
<ele>263.7</ele>
<time>2013-05-08T07:33:12.999Z</time>
</trkpt>
<trkpt lat="43.556626" lon="3.349476">
<ele>263.6</ele>
<time>2013-05-08T07:33:13.999Z</time>
</trkpt>
<trkpt lat="43.556543" lon="3.349717">
<ele>263.7</ele>
<time>2013-05-08T07:33:14.999Z</time>
</trkpt>
<trkpt lat="43.556472" lon="3.349954">
<ele>263.7</ele>
<time>2013-05-08T07:33:15.999Z</time>
</trkpt>
<trkpt lat="43.556404" lon="3.350212">
<ele>263.5</ele>
<time>2013-05-08T07:33:16.999Z</time>
</trkpt>
<trkpt lat="43.556396" lon="3.350471">
<ele>262.6</ele>
<time>2013-05-08T07:33:17.999Z</time>
</trkpt>
<trkpt lat="43.5564" lon="3.350714">
<ele>261.8</ele>
<time>2013-05-08T07:33:18.999Z</time>
</trkpt>
<trkpt lat="43.55642" lon="3.350943">
<ele>260.4</ele>
<time>2013-05-08T07:33:19.999Z</time>
</trkpt>
<trkpt lat="43.556454" lon="3.351163">
<ele>259.5</ele>
<time>2013-05-08T07:33:20.999Z</time>
</trkpt>
<trkpt lat="43.556561" lon="3.351307">
<ele>259.8</ele>
<time>2013-05-08T07:33:21.999Z</time>
</trkpt>
<trkpt lat="43.55668" lon="3.351441">
<ele>259.4</ele>
<time>2013-05-08T07:33:22.999Z</time>
</trkpt>
<trkpt lat="43.556827" lon="3.351615">
<ele>258.5</ele>
<time>2013-05-08T07:33:23.999Z</time>
</trkpt>
<trkpt lat="43.556923" lon="3.351834">
<ele>257.5</ele>
<time>2013-05-08T07:33:24.999Z</time>
</trkpt>
<trkpt lat="43.557017" lon="3.35209">
<ele>256</ele>
<time>2013-05-08T07:33:25.999Z</time>
</trkpt>
<trkpt lat="43.557113" lon="3.352334">
<ele>254.3</ele>
<time>2013-05-08T07:33:26.999Z</time>
</trkpt>
<trkpt lat="43.55721" lon="3.352608">
<ele>252.9</ele>
<time>2013-05-08T07:33:27.999Z</time>
</trkpt>
<trkpt lat="43.557316" lon="3.352906">
<ele>251.5</ele>
<time>2013-05-08T07:33:28.999Z</time>
</trkpt>
<trkpt lat="43.55742" lon="3.353206">
<ele>250.1</ele>
<time>2013-05-08T07:33:29.999Z</time>
</trkpt>
<trkpt lat="43.557526" lon="3.353504">
<ele>248.7</ele>
<time>2013-05-08T07:33:30.999Z</time>
</trkpt>
<trkpt lat="43.557623" lon="3.353802">
<ele>247.1</ele>
<time>2013-05-08T07:33:31.999Z</time>
</trkpt>
<trkpt lat="43.557713" lon="3.354095">
<ele>245.5</ele>
<time>2013-05-08T07:33:32.999Z</time>
</trkpt>
<trkpt lat="43.557789" lon="3.354379">
<ele>244.3</ele>
<time>2013-05-08T07:33:33.999Z</time>
</trkpt>
<trkpt lat="43.557862" lon="3.354651">
<ele>243.2</ele>
<time>2013-05-08T07:33:34.999Z</time>
</trkpt>
<trkpt lat="43.55794" lon="3.354908">
<ele>242</ele>
<time>2013-05-08T07:33:35.999Z</time>
</trkpt>
<trkpt lat="43.55803" lon="3.355149">
<ele>240.8</ele>
<time>2013-05-08T07:33:36.999Z</time>
</trkpt>
<trkpt lat="43.558121" lon="3.355374">
<ele>239.4</ele>
<time>2013-05-08T07:33:37.999Z</time>
</trkpt>
<trkpt lat="43.558206" lon="3.355586">
<ele>237.7</ele>
<time>2013-05-08T07:33:38.999Z</time>
</trkpt>
<trkpt lat="43.558293" lon="3.355806">
<ele>236.3</ele>
<time>2013-05-08T07:33:39.999Z</time>
</trkpt>
<trkpt lat="43.558366" lon="3.356002">
<ele>235</ele>
<time>2013-05-08T07:33:40.999Z</time>
</trkpt>
<trkpt lat="43.558432" lon="3.35618">
<ele>233.8</ele>
<time>2013-05-08T07:33:41.999Z</time>
</trkpt>
<trkpt lat="43.558493" lon="3.356349">
<ele>232.7</ele>
<time>2013-05-08T07:33:42.999Z</time>
</trkpt>
<trkpt lat="43.558541" lon="3.356506">
<ele>231.5</ele>
<time>2013-05-08T07:33:43.999Z</time>
</trkpt>
<trkpt lat="43.55858" lon="3.356681">
<ele>230.5</ele>
<time>2013-05-08T07:33:44.999Z</time>
</trkpt>
<trkpt lat="43.558612" lon="3.356876">
<ele>229.4</ele>
<time>2013-05-08T07:33:45.999Z</time>
</trkpt>
<trkpt lat="43.55862" lon="3.35714">
<ele>228.5</ele>
<time>2013-05-08T07:33:46.999Z</time>
</trkpt>
<trkpt lat="43.558637" lon="3.357439">
<ele>227.7</ele>
<time>2013-05-08T07:33:47.999Z</time>
</trkpt>
<trkpt lat="43.558647" lon="3.357768">
<ele>226.7</ele>
<time>2013-05-08T07:33:48.999Z</time>
</trkpt>
<trkpt lat="43.558643" lon="3.358116">
<ele>225.6</ele>
<time>2013-05-08T07:33:49.999Z</time>
</trkpt>
<trkpt lat="43.558644" lon="3.358469">
<ele>224.3</ele>
<time>2013-05-08T07:33:50.999Z</time>
</trkpt>
<trkpt lat="43.558645" lon="3.358804">
<ele>223.2</ele>
<time>2013-05-08T07:33:51.999Z</time>
</trkpt>
<trkpt lat="43.55865" lon="3.359127">
<ele>222.2</ele>
<time>2013-05-08T07:33:52.999Z</time>
</trkpt>
<trkpt lat="43.558672" lon="3.359433">
<ele>220.8</ele>
<time>2013-05-08T07:33:53.999Z</time>
</trkpt>
<trkpt lat="43.558703" lon="3.359714">
<ele>218.7</ele>
<time>2013-05-08T07:33:54.999Z</time>
</trkpt>
<trkpt lat="43.558752" lon="3.359966">
<ele>217</ele>
<time>2013-05-08T07:33:55.999Z</time>
</trkpt>
<trkpt lat="43.558811" lon="3.360189">
<ele>216</ele>
<time>2013-05-08T07:33:56.999Z</time>
</trkpt>
<trkpt lat="43.558855" lon="3.360393">
<ele>214.7</ele>
<time>2013-05-08T07:33:57.999Z</time>
</trkpt>
<trkpt lat="43.558858" lon="3.360609">
<ele>213.4</ele>
<time>2013-05-08T07:33:58.999Z</time>
</trkpt>
<trkpt lat="43.55884" lon="3.360826">
<ele>212.5</ele>
<time>2013-05-08T07:33:59.999Z</time>
</trkpt>
<trkpt lat="43.558803" lon="3.361059">
<ele>211.6</ele>
<time>2013-05-08T07:34:00.999Z</time>
</trkpt>
<trkpt lat="43.558754" lon="3.361317">
<ele>210.7</ele>
<time>2013-05-08T07:34:01.999Z</time>
</trkpt>
<trkpt lat="43.558702" lon="3.361578">
<ele>210</ele>
<time>2013-05-08T07:34:02.999Z</time>
</trkpt>
<trkpt lat="43.558654" lon="3.361827">
<ele>209.4</ele>
<time>2013-05-08T07:34:03.999Z</time>
</trkpt>
<trkpt lat="43.558614" lon="3.36208">
<ele>208.6</ele>
<time>2013-05-08T07:34:04.999Z</time>
</trkpt>
<trkpt lat="43.558586" lon="3.362291">
<ele>207.8</ele>
<time>2013-05-08T07:34:05.999Z</time>
</trkpt>
<trkpt lat="43.558566" lon="3.362464">
<ele>207.3</ele>
<time>2013-05-08T07:34:06.999Z</time>
</trkpt>
<trkpt lat="43.558553" lon="3.362598">
<ele>206.7</ele>
<time>2013-05-08T07:34:07.999Z</time>
</trkpt>
<trkpt lat="43.55854" lon="3.362729">
<ele>206</ele>
<time>2013-05-08T07:34:08.999Z</time>
</trkpt>
<trkpt lat="43.558546" lon="3.362816">
<ele>205.2</ele>
<time>2013-05-08T07:34:09.999Z</time>
</trkpt>
<trkpt lat="43.558558" lon="3.362909">
<ele>204</ele>
<time>2013-05-08T07:34:10.999Z</time>
</trkpt>
<trkpt lat="43.55858" lon="3.362971">
<ele>203</ele>
<time>2013-05-08T07:34:11.999Z</time>
</trkpt>
<trkpt lat="43.55865" lon="3.362906">
<ele>201.2</ele>
<time>2013-05-08T07:34:12.999Z</time>
</trkpt>
<trkpt lat="43.55871" lon="3.362782">
<ele>200.3</ele>
<time>2013-05-08T07:34:13.999Z</time>
</trkpt>
<trkpt lat="43.558752" lon="3.362611">
<ele>199.4</ele>
<time>2013-05-08T07:34:14.999Z</time>
</trkpt>
<trkpt lat="43.558774" lon="3.362428">
<ele>198.3</ele>
<time>2013-05-08T07:34:15.999Z</time>
</trkpt>
<trkpt lat="43.558791" lon="3.362234">
<ele>197.3</ele>
<time>2013-05-08T07:34:16.999Z</time>
</trkpt>
<trkpt lat="43.558808" lon="3.362052">
<ele>196.9</ele>
<time>2013-05-08T07:34:17.999Z</time>
</trkpt>
<trkpt lat="43.558818" lon="3.361885">
<ele>196.6</ele>
<time>2013-05-08T07:34:18.999Z</time>
</trkpt>
<trkpt lat="43.558832" lon="3.361742">
<ele>196.2</ele>
<time>2013-05-08T07:34:19.999Z</time>
</trkpt>
<trkpt lat="43.558885" lon="3.361665">
<ele>196.3</ele>
<time>2013-05-08T07:34:20.999Z</time>
</trkpt>
<trkpt lat="43.558937" lon="3.361613">
<ele>196.3</ele>
<time>2013-05-08T07:34:21.999Z</time>
</trkpt>
<trkpt lat="43.558999" lon="3.361693">
<ele>196.2</ele>
<time>2013-05-08T07:34:22.999Z</time>
</trkpt>
<trkpt lat="43.559019" lon="3.361837">
<ele>195</ele>
<time>2013-05-08T07:34:23.999Z</time>
</trkpt>
<trkpt lat="43.559029" lon="3.36203">
<ele>193.6</ele>
<time>2013-05-08T07:34:24.999Z</time>
</trkpt>
<trkpt lat="43.559027" lon="3.362256">
<ele>193.4</ele>
<time>2013-05-08T07:34:25.999Z</time>
</trkpt>
<trkpt lat="43.559026" lon="3.362471">
<ele>193.7</ele>
<time>2013-05-08T07:34:26.999Z</time>
</trkpt>
<trkpt lat="43.559028" lon="3.362687">
<ele>193.7</ele>
<time>2013-05-08T07:34:27.999Z</time>
</trkpt>
<trkpt lat="43.559067" lon="3.36291">
<ele>193.7</ele>
<time>2013-05-08T07:34:28.999Z</time>
</trkpt>
<trkpt lat="43.559118" lon="3.363142">
<ele>193.5</ele>
<time>2013-05-08T07:34:29.999Z</time>
</trkpt>
<trkpt lat="43.559178" lon="3.363369">
<ele>193.7</ele>
<time>2013-05-08T07:34:30.999Z</time>
</trkpt>
<trkpt lat="43.559244" lon="3.363589">
<ele>193.9</ele>
<time>2013-05-08T07:34:31.999Z</time>
</trkpt>
<trkpt lat="43.559313" lon="3.363799">
<ele>193.6</ele>
<time>2013-05-08T07:34:32.999Z</time>
</trkpt>
<trkpt lat="43.559374" lon="3.36399">
<ele>193.3</ele>
<time>2013-05-08T07:34:33.999Z</time>
</trkpt>
<trkpt lat="43.559429" lon="3.36419">
<ele>192.9</ele>
<time>2013-05-08T07:34:34.999Z</time>
</trkpt>
<trkpt lat="43.559486" lon="3.364405">
<ele>192.2</ele>
<time>2013-05-08T07:34:35.999Z</time>
</trkpt>
<trkpt lat="43.559551" lon="3.364627">
<ele>191.2</ele>
<time>2013-05-08T07:34:36.999Z</time>
</trkpt>
<trkpt lat="43.559628" lon="3.364846">
<ele>190.3</ele>
<time>2013-05-08T07:34:37.999Z</time>
</trkpt>
<trkpt lat="43.55971" lon="3.365055">
<ele>189.7</ele>
<time>2013-05-08T07:34:38.999Z</time>
</trkpt>
<trkpt lat="43.559801" lon="3.365265">
<ele>189.1</ele>
<time>2013-05-08T07:34:39.999Z</time>
</trkpt>
<trkpt lat="43.559874" lon="3.36549">
<ele>188.4</ele>
<time>2013-05-08T07:34:40.999Z</time>
</trkpt>
<trkpt lat="43.55993" lon="3.365726">
<ele>187.9</ele>
<time>2013-05-08T07:34:41.999Z</time>
</trkpt>
<trkpt lat="43.559988" lon="3.365963">
<ele>187.3</ele>
<time>2013-05-08T07:34:42.999Z</time>
</trkpt>
<trkpt lat="43.560056" lon="3.3662">
<ele>187.1</ele>
<time>2013-05-08T07:34:43.999Z</time>
</trkpt>
<trkpt lat="43.560132" lon="3.36643">
<ele>186.7</ele>
<time>2013-05-08T07:34:44.999Z</time>
</trkpt>
<trkpt lat="43.560184" lon="3.366634">
<ele>186.1</ele>
<time>2013-05-08T07:34:45.999Z</time>
</trkpt>
<trkpt lat="43.56023" lon="3.366847">
<ele>185.3</ele>
<time>2013-05-08T07:34:46.999Z</time>
</trkpt>
<trkpt lat="43.560233" lon="3.36708">
<ele>184.3</ele>
<time>2013-05-08T07:34:47.999Z</time>
</trkpt>
<trkpt lat="43.560245" lon="3.367311">
<ele>183.4</ele>
<time>2013-05-08T07:34:48.999Z</time>
</trkpt>
<trkpt lat="43.560288" lon="3.367545">
<ele>181.9</ele>
<time>2013-05-08T07:34:49.999Z</time>
</trkpt>
<trkpt lat="43.560339" lon="3.36778">
<ele>180</ele>
<time>2013-05-08T07:34:50.999Z</time>
</trkpt>
<trkpt lat="43.560397" lon="3.368014">
<ele>178.2</ele>
<time>2013-05-08T07:34:51.999Z</time>
</trkpt>
<trkpt lat="43.560454" lon="3.368252">
<ele>176.7</ele>
<time>2013-05-08T07:34:52.999Z</time>
</trkpt>
<trkpt lat="43.56046" lon="3.368477">
<ele>175.9</ele>
<time>2013-05-08T07:34:53.999Z</time>
</trkpt>
<trkpt lat="43.560396" lon="3.368673">
<ele>174.5</ele>
<time>2013-05-08T07:34:54.999Z</time>
</trkpt>
<trkpt lat="43.560345" lon="3.368846">
<ele>173.7</ele>
<time>2013-05-08T07:34:55.999Z</time>
</trkpt>
<trkpt lat="43.560313" lon="3.368968">
<ele>173.3</ele>
<time>2013-05-08T07:34:56.999Z</time>
</trkpt>
<trkpt lat="43.560326" lon="3.36907">
<ele>171.9</ele>
<time>2013-05-08T07:34:57.999Z</time>
</trkpt>
<trkpt lat="43.560371" lon="3.36914">
<ele>170.7</ele>
<time>2013-05-08T07:34:58.999Z</time>
</trkpt>
<trkpt lat="43.560437" lon="3.36912">
<ele>170.3</ele>
<time>2013-05-08T07:34:59.999Z</time>
</trkpt>
<trkpt lat="43.560514" lon="3.36904">
<ele>168.8</ele>
<time>2013-05-08T07:35:00.999Z</time>
</trkpt>
<trkpt lat="43.560578" lon="3.368882">
<ele>167.9</ele>
<time>2013-05-08T07:35:01.999Z</time>
</trkpt>
<trkpt lat="43.56065" lon="3.368727">
<ele>167.2</ele>
<time>2013-05-08T07:35:02.999Z</time>
</trkpt>
<trkpt lat="43.560723" lon="3.368572">
<ele>166.3</ele>
<time>2013-05-08T07:35:03.999Z</time>
</trkpt>
<trkpt lat="43.560839" lon="3.368431">
<ele>165</ele>
<time>2013-05-08T07:35:04.999Z</time>
</trkpt>
<trkpt lat="43.560955" lon="3.368294">
<ele>163.8</ele>
<time>2013-05-08T07:35:05.999Z</time>
</trkpt>
<trkpt lat="43.561066" lon="3.368162">
<ele>162.6</ele>
<time>2013-05-08T07:35:06.999Z</time>
</trkpt>
<trkpt lat="43.56117" lon="3.368044">
<ele>161.5</ele>
<time>2013-05-08T07:35:07.999Z</time>
</trkpt>
<trkpt lat="43.56127" lon="3.367931">
<ele>161.2</ele>
<time>2013-05-08T07:35:08.999Z</time>
</trkpt>
<trkpt lat="43.561376" lon="3.367809">
<ele>161.2</ele>
<time>2013-05-08T07:35:09.999Z</time>
</trkpt>
<trkpt lat="43.561487" lon="3.367696">
<ele>161.2</ele>
<time>2013-05-08T07:35:10.999Z</time>
</trkpt>
<trkpt lat="43.561601" lon="3.367578">
<ele>161.5</ele>
<time>2013-05-08T07:35:11.999Z</time>
</trkpt>
<trkpt lat="43.561719" lon="3.367455">
<ele>161.7</ele>
<time>2013-05-08T07:35:12.999Z</time>
</trkpt>
<trkpt lat="43.561831" lon="3.367341">
<ele>162</ele>
<time>2013-05-08T07:35:13.999Z</time>
</trkpt>
<trkpt lat="43.561944" lon="3.367232">
<ele>162</ele>
<time>2013-05-08T07:35:14.999Z</time>
</trkpt>
<trkpt lat="43.562068" lon="3.36712">
<ele>161.8</ele>
<time>2013-05-08T07:35:15.999Z</time>
</trkpt>
<trkpt lat="43.562199" lon="3.367008">
<ele>161.7</ele>
<time>2013-05-08T07:35:16.999Z</time>
</trkpt>
<trkpt lat="43.562337" lon="3.366901">
<ele>161.4</ele>
<time>2013-05-08T07:35:17.999Z</time>
</trkpt>
<trkpt lat="43.562484" lon="3.366791">
<ele>161.2</ele>
<time>2013-05-08T07:35:18.999Z</time>
</trkpt>
<trkpt lat="43.562624" lon="3.366687">
<ele>160.8</ele>
<time>2013-05-08T07:35:19.999Z</time>
</trkpt>
<trkpt lat="43.562763" lon="3.366589">
<ele>160.3</ele>
<time>2013-05-08T07:35:20.999Z</time>
</trkpt>
<trkpt lat="43.562903" lon="3.36649">
<ele>160.1</ele>
<time>2013-05-08T07:35:21.999Z</time>
</trkpt>
<trkpt lat="43.563044" lon="3.366394">
<ele>160</ele>
<time>2013-05-08T07:35:22.999Z</time>
</trkpt>
<trkpt lat="43.563191" lon="3.366293">
<ele>159.8</ele>
<time>2013-05-08T07:35:23.999Z</time>
</trkpt>
<trkpt lat="43.563343" lon="3.366187">
<ele>159.7</ele>
<time>2013-05-08T07:35:24.999Z</time>
</trkpt>
<trkpt lat="43.563499" lon="3.366079">
<ele>159.8</ele>
<time>2013-05-08T07:35:25.999Z</time>
</trkpt>
<trkpt lat="43.563655" lon="3.365971">
<ele>159.9</ele>
<time>2013-05-08T07:35:26.999Z</time>
</trkpt>
<trkpt lat="43.563812" lon="3.365861">
<ele>159.7</ele>
<time>2013-05-08T07:35:27.999Z</time>
</trkpt>
<trkpt lat="43.56397" lon="3.365751">
<ele>159.7</ele>
<time>2013-05-08T07:35:28.999Z</time>
</trkpt>
<trkpt lat="43.564125" lon="3.365641">
<ele>159.4</ele>
<time>2013-05-08T07:35:29.999Z</time>
</trkpt>
<trkpt lat="43.564267" lon="3.365541">
<ele>159.3</ele>
<time>2013-05-08T07:35:30.999Z</time>
</trkpt>
<trkpt lat="43.564406" lon="3.365443">
<ele>159.1</ele>
<time>2013-05-08T07:35:31.999Z</time>
</trkpt>
<trkpt lat="43.564552" lon="3.365339">
<ele>159</ele>
<time>2013-05-08T07:35:32.999Z</time>
</trkpt>
<trkpt lat="43.564693" lon="3.36524">
<ele>159.1</ele>
<time>2013-05-08T07:35:33.999Z</time>
</trkpt>
<trkpt lat="43.564831" lon="3.365142">
<ele>159.1</ele>
<time>2013-05-08T07:35:34.999Z</time>
</trkpt>
<trkpt lat="43.564969" lon="3.365044">
<ele>159</ele>
<time>2013-05-08T07:35:35.999Z</time>
</trkpt>
<trkpt lat="43.565107" lon="3.364946">
<ele>158.4</ele>
<time>2013-05-08T07:35:36.999Z</time>
</trkpt>
<trkpt lat="43.565247" lon="3.364845">
<ele>157.4</ele>
<time>2013-05-08T07:35:37.999Z</time>
</trkpt>
<trkpt lat="43.565384" lon="3.364745">
<ele>156.1</ele>
<time>2013-05-08T07:35:38.999Z</time>
</trkpt>
<trkpt lat="43.565519" lon="3.364647">
<ele>154.8</ele>
<time>2013-05-08T07:35:39.999Z</time>
</trkpt>
<trkpt lat="43.565661" lon="3.364543">
<ele>154.2</ele>
<time>2013-05-08T07:35:40.999Z</time>
</trkpt>
<trkpt lat="43.565812" lon="3.364433">
<ele>153.6</ele>
<time>2013-05-08T07:35:41.999Z</time>
</trkpt>
<trkpt lat="43.565961" lon="3.364319">
<ele>153.3</ele>
<time>2013-05-08T07:35:42.999Z</time>
</trkpt>
<trkpt lat="43.5661" lon="3.364214">
<ele>153.5</ele>
<time>2013-05-08T07:35:43.999Z</time>
</trkpt>
<trkpt lat="43.566236" lon="3.364113">
<ele>153.5</ele>
<time>2013-05-08T07:35:44.999Z</time>
</trkpt>
<trkpt lat="43.566379" lon="3.36402">
<ele>153.5</ele>
<time>2013-05-08T07:35:45.999Z</time>
</trkpt>
<trkpt lat="43.566548" lon="3.363966">
<ele>153.7</ele>
<time>2013-05-08T07:35:46.999Z</time>
</trkpt>
<trkpt lat="43.566717" lon="3.363913">
<ele>153.7</ele>
<time>2013-05-08T07:35:47.999Z</time>
</trkpt>
<trkpt lat="43.566891" lon="3.363872">
<ele>153.6</ele>
<time>2013-05-08T07:35:48.999Z</time>
</trkpt>
<trkpt lat="43.567067" lon="3.363845">
<ele>153.7</ele>
<time>2013-05-08T07:35:49.999Z</time>
</trkpt>
<trkpt lat="43.567242" lon="3.363833">
<ele>153.2</ele>
<time>2013-05-08T07:35:50.999Z</time>
</trkpt>
<trkpt lat="43.567416" lon="3.363822">
<ele>152.6</ele>
<time>2013-05-08T07:35:51.999Z</time>
</trkpt>
<trkpt lat="43.567593" lon="3.363797">
<ele>152.4</ele>
<time>2013-05-08T07:35:52.999Z</time>
</trkpt>
<trkpt lat="43.567753" lon="3.363705">
<ele>152.4</ele>
<time>2013-05-08T07:35:53.999Z</time>
</trkpt>
<trkpt lat="43.567922" lon="3.363602">
<ele>152.3</ele>
<time>2013-05-08T07:35:54.999Z</time>
</trkpt>
<trkpt lat="43.568089" lon="3.363489">
<ele>152.4</ele>
<time>2013-05-08T07:35:55.999Z</time>
</trkpt>
<trkpt lat="43.568254" lon="3.363361">
<ele>152.8</ele>
<time>2013-05-08T07:35:56.999Z</time>
</trkpt>
<trkpt lat="43.568427" lon="3.363236">
<ele>153.2</ele>
<time>2013-05-08T07:35:57.999Z</time>
</trkpt>
<trkpt lat="43.56862" lon="3.363149">
<ele>154</ele>
<time>2013-05-08T07:35:58.999Z</time>
</trkpt>
<trkpt lat="43.568818" lon="3.363094">
<ele>154.3</ele>
<time>2013-05-08T07:35:59.999Z</time>
</trkpt>
<trkpt lat="43.569016" lon="3.363046">
<ele>154.5</ele>
<time>2013-05-08T07:36:00.999Z</time>
</trkpt>
<trkpt lat="43.569215" lon="3.363003">
<ele>154.6</ele>
<time>2013-05-08T07:36:01.999Z</time>
</trkpt>
<trkpt lat="43.569416" lon="3.362958">
<ele>154.5</ele>
<time>2013-05-08T07:36:02.999Z</time>
</trkpt>
<trkpt lat="43.569611" lon="3.362916">
<ele>154.4</ele>
<time>2013-05-08T07:36:03.999Z</time>
</trkpt>
<trkpt lat="43.569799" lon="3.362882">
<ele>154.3</ele>
<time>2013-05-08T07:36:04.999Z</time>
</trkpt>
<trkpt lat="43.569987" lon="3.362863">
<ele>154.7</ele>
<time>2013-05-08T07:36:05.999Z</time>
</trkpt>
<trkpt lat="43.570169" lon="3.362872">
<ele>155.2</ele>
<time>2013-05-08T07:36:06.999Z</time>
</trkpt>
<trkpt lat="43.570347" lon="3.362893">
<ele>156.2</ele>
<time>2013-05-08T07:36:07.999Z</time>
</trkpt>
<trkpt lat="43.570524" lon="3.362923">
<ele>156.8</ele>
<time>2013-05-08T07:36:08.999Z</time>
</trkpt>
<trkpt lat="43.570697" lon="3.362954">
<ele>157.4</ele>
<time>2013-05-08T07:36:09.999Z</time>
</trkpt>
<trkpt lat="43.57085" lon="3.362989">
<ele>158</ele>
<time>2013-05-08T07:36:10.999Z</time>
</trkpt>
<trkpt lat="43.570986" lon="3.363022">
<ele>158.8</ele>
<time>2013-05-08T07:36:11.999Z</time>
</trkpt>
<trkpt lat="43.5711" lon="3.363055">
<ele>159.4</ele>
<time>2013-05-08T07:36:12.999Z</time>
</trkpt>
<trkpt lat="43.571187" lon="3.363081">
<ele>160.1</ele>
<time>2013-05-08T07:36:13.999Z</time>
</trkpt>
<trkpt lat="43.571265" lon="3.363105">
<ele>160.7</ele>
<time>2013-05-08T07:36:14.999Z</time>
</trkpt>
<trkpt lat="43.571337" lon="3.363125">
<ele>161.3</ele>
<time>2013-05-08T07:36:15.999Z</time>
</trkpt>
<trkpt lat="43.571418" lon="3.363145">
<ele>161.8</ele>
<time>2013-05-08T07:36:16.999Z</time>
</trkpt>
<trkpt lat="43.571501" lon="3.363169">
<ele>162.3</ele>
<time>2013-05-08T07:36:17.999Z</time>
</trkpt>
<trkpt lat="43.571593" lon="3.363195">
<ele>162.9</ele>
<time>2013-05-08T07:36:18.999Z</time>
</trkpt>
<trkpt lat="43.5717" lon="3.363222">
<ele>163.3</ele>
<time>2013-05-08T07:36:20.000Z</time>
</trkpt>
<trkpt lat="43.57182" lon="3.363249">
<ele>163.2</ele>
<time>2013-05-08T07:36:21.000Z</time>
</trkpt>
<trkpt lat="43.571936" lon="3.363275">
<ele>163.4</ele>
<time>2013-05-08T07:36:22.000Z</time>
</trkpt>
<trkpt lat="43.572047" lon="3.363301">
<ele>163.6</ele>
<time>2013-05-08T07:36:23.000Z</time>
</trkpt>
<trkpt lat="43.572152" lon="3.363325">
<ele>163.2</ele>
<time>2013-05-08T07:36:24.000Z</time>
</trkpt>
<trkpt lat="43.572258" lon="3.363351">
<ele>163.1</ele>
<time>2013-05-08T07:36:25.000Z</time>
</trkpt>
<trkpt lat="43.572367" lon="3.363375">
<ele>162.6</ele>
<time>2013-05-08T07:36:26.000Z</time>
</trkpt>
<trkpt lat="43.572477" lon="3.363404">
<ele>161.8</ele>
<time>2013-05-08T07:36:27.000Z</time>
</trkpt>
<trkpt lat="43.57258" lon="3.363432">
<ele>160.6</ele>
<time>2013-05-08T07:36:28.000Z</time>
</trkpt>
<trkpt lat="43.572675" lon="3.363456">
<ele>159.7</ele>
<time>2013-05-08T07:36:29.000Z</time>
</trkpt>
<trkpt lat="43.572756" lon="3.363478">
<ele>159.1</ele>
<time>2013-05-08T07:36:30.000Z</time>
</trkpt>
<trkpt lat="43.57283" lon="3.363495">
<ele>158.5</ele>
<time>2013-05-08T07:36:31.000Z</time>
</trkpt>
<trkpt lat="43.572893" lon="3.363508">
<ele>158.2</ele>
<time>2013-05-08T07:36:32.000Z</time>
</trkpt>
<trkpt lat="43.572946" lon="3.363521">
<ele>158</ele>
<time>2013-05-08T07:36:33.000Z</time>
</trkpt>
<trkpt lat="43.572986" lon="3.363531">
<ele>157.7</ele>
<time>2013-05-08T07:36:34.000Z</time>
</trkpt>
<trkpt lat="43.57303" lon="3.363544">
<ele>157.3</ele>
<time>2013-05-08T07:36:35.000Z</time>
</trkpt>
<trkpt lat="43.573077" lon="3.363558">
<ele>157.2</ele>
<time>2013-05-08T07:36:36.000Z</time>
</trkpt>
<trkpt lat="43.573123" lon="3.363567">
<ele>156.7</ele>
<time>2013-05-08T07:36:37.000Z</time>
</trkpt>
<trkpt lat="43.573173" lon="3.363576">
<ele>156.7</ele>
<time>2013-05-08T07:36:38.000Z</time>
</trkpt>
<trkpt lat="43.573243" lon="3.363588">
<ele>156.6</ele>
<time>2013-05-08T07:36:39.000Z</time>
</trkpt>
<trkpt lat="43.573325" lon="3.363605">
<ele>156.4</ele>
<time>2013-05-08T07:36:40.000Z</time>
</trkpt>
<trkpt lat="43.573415" lon="3.363624">
<ele>156.1</ele>
<time>2013-05-08T07:36:41.000Z</time>
</trkpt>
<trkpt lat="43.573499" lon="3.363644">
<ele>155.9</ele>
<time>2013-05-08T07:36:42.000Z</time>
</trkpt>
<trkpt lat="43.573591" lon="3.363668">
<ele>155.7</ele>
<time>2013-05-08T07:36:43.000Z</time>
</trkpt>
<trkpt lat="43.573686" lon="3.363682">
<ele>155.2</ele>
<time>2013-05-08T07:36:44.000Z</time>
</trkpt>
<trkpt lat="43.573788" lon="3.363691">
<ele>155.4</ele>
<time>2013-05-08T07:36:45.000Z</time>
</trkpt>
<trkpt lat="43.573896" lon="3.36366">
<ele>155.6</ele>
<time>2013-05-08T07:36:46.000Z</time>
</trkpt>
<trkpt lat="43.574014" lon="3.363622">
<ele>155.8</ele>
<time>2013-05-08T07:36:47.000Z</time>
</trkpt>
<trkpt lat="43.574127" lon="3.363583">
<ele>156</ele>
<time>2013-05-08T07:36:48.000Z</time>
</trkpt>
<trkpt lat="43.574229" lon="3.363551">
<ele>156.4</ele>
<time>2013-05-08T07:36:49.000Z</time>
</trkpt>
<trkpt lat="43.574336" lon="3.363532">
<ele>156.8</ele>
<time>2013-05-08T07:36:50.000Z</time>
</trkpt>
<trkpt lat="43.574438" lon="3.363522">
<ele>157.4</ele>
<time>2013-05-08T07:36:51.000Z</time>
</trkpt>
<trkpt lat="43.574548" lon="3.363523">
<ele>158.1</ele>
<time>2013-05-08T07:36:52.000Z</time>
</trkpt>
<trkpt lat="43.574648" lon="3.363541">
<ele>158.5</ele>
<time>2013-05-08T07:36:53.000Z</time>
</trkpt>
<trkpt lat="43.574749" lon="3.363559">
<ele>159</ele>
<time>2013-05-08T07:36:54.000Z</time>
</trkpt>
<trkpt lat="43.574843" lon="3.363578">
<ele>159.4</ele>
<time>2013-05-08T07:36:55.000Z</time>
</trkpt>
<trkpt lat="43.574936" lon="3.363597">
<ele>160</ele>
<time>2013-05-08T07:36:56.000Z</time>
</trkpt>
<trkpt lat="43.575024" lon="3.363613">
<ele>160.2</ele>
<time>2013-05-08T07:36:57.000Z</time>
</trkpt>
<trkpt lat="43.57511" lon="3.363628">
<ele>160.4</ele>
<time>2013-05-08T07:36:58.000Z</time>
</trkpt>
<trkpt lat="43.575208" lon="3.363645">
<ele>160.3</ele>
<time>2013-05-08T07:36:59.000Z</time>
</trkpt>
<trkpt lat="43.575302" lon="3.363663">
<ele>160.6</ele>
<time>2013-05-08T07:37:00.000Z</time>
</trkpt>
<trkpt lat="43.575392" lon="3.363681">
<ele>160.9</ele>
<time>2013-05-08T07:37:01.000Z</time>
</trkpt>
<trkpt lat="43.575476" lon="3.363697">
<ele>161</ele>
<time>2013-05-08T07:37:02.000Z</time>
</trkpt>
<trkpt lat="43.575558" lon="3.363712">
<ele>161.1</ele>
<time>2013-05-08T07:37:03.000Z</time>
</trkpt>
<trkpt lat="43.575635" lon="3.363726">
<ele>161.1</ele>
<time>2013-05-08T07:37:04.000Z</time>
</trkpt>
<trkpt lat="43.575717" lon="3.36374">
<ele>161.4</ele>
<time>2013-05-08T07:37:05.000Z</time>
</trkpt>
<trkpt lat="43.575807" lon="3.363754">
<ele>161.7</ele>
<time>2013-05-08T07:37:06.000Z</time>
</trkpt>
<trkpt lat="43.575907" lon="3.36377">
<ele>161.9</ele>
<time>2013-05-08T07:37:07.000Z</time>
</trkpt>
<trkpt lat="43.576012" lon="3.363785">
<ele>162.1</ele>
<time>2013-05-08T07:37:08.000Z</time>
</trkpt>
<trkpt lat="43.576123" lon="3.363802">
<ele>162.5</ele>
<time>2013-05-08T07:37:09.000Z</time>
</trkpt>
<trkpt lat="43.576223" lon="3.363822">
<ele>163.3</ele>
<time>2013-05-08T07:37:10.000Z</time>
</trkpt>
<trkpt lat="43.57632" lon="3.363842">
<ele>164.2</ele>
<time>2013-05-08T07:37:11.000Z</time>
</trkpt>
<trkpt lat="43.576415" lon="3.363861">
<ele>165</ele>
<time>2013-05-08T07:37:12.000Z</time>
</trkpt>
<trkpt lat="43.576506" lon="3.36388">
<ele>166</ele>
<time>2013-05-08T07:37:13.000Z</time>
</trkpt>
<trkpt lat="43.576602" lon="3.363899">
<ele>167.2</ele>
<time>2013-05-08T07:37:14.000Z</time>
</trkpt>
<trkpt lat="43.576696" lon="3.363917">
<ele>168.2</ele>
<time>2013-05-08T07:37:15.000Z</time>
</trkpt>
<trkpt lat="43.57678" lon="3.363935">
<ele>169.6</ele>
<time>2013-05-08T07:37:16.000Z</time>
</trkpt>
<trkpt lat="43.57686" lon="3.363952">
<ele>171</ele>
<time>2013-05-08T07:37:17.000Z</time>
</trkpt>
<trkpt lat="43.576937" lon="3.363968">
<ele>172.4</ele>
<time>2013-05-08T07:37:18.000Z</time>
</trkpt>
<trkpt lat="43.577005" lon="3.363981">
<ele>173.7</ele>
<time>2013-05-08T07:37:19.000Z</time>
</trkpt>
<trkpt lat="43.577078" lon="3.363993">
<ele>174.6</ele>
<time>2013-05-08T07:37:20.000Z</time>
</trkpt>
<trkpt lat="43.577154" lon="3.364006">
<ele>175.1</ele>
<time>2013-05-08T07:37:21.000Z</time>
</trkpt>
<trkpt lat="43.577235" lon="3.364018">
<ele>175.5</ele>
<time>2013-05-08T07:37:22.000Z</time>
</trkpt>
<trkpt lat="43.577322" lon="3.364032">
<ele>175.9</ele>
<time>2013-05-08T07:37:23.000Z</time>
</trkpt>
<trkpt lat="43.577407" lon="3.364045">
<ele>176.1</ele>
<time>2013-05-08T07:37:24.000Z</time>
</trkpt>
<trkpt lat="43.577493" lon="3.364052">
<ele>176.8</ele>
<time>2013-05-08T07:37:25.000Z</time>
</trkpt>
<trkpt lat="43.577564" lon="3.364049">
<ele>177.4</ele>
<time>2013-05-08T07:37:26.000Z</time>
</trkpt>
<trkpt lat="43.57764" lon="3.364041">
<ele>177.6</ele>
<time>2013-05-08T07:37:27.000Z</time>
</trkpt>
<trkpt lat="43.577717" lon="3.364023">
<ele>177</ele>
<time>2013-05-08T07:37:28.000Z</time>
</trkpt>
<trkpt lat="43.577816" lon="3.363997">
<ele>175.3</ele>
<time>2013-05-08T07:37:29.000Z</time>
</trkpt>
<trkpt lat="43.577923" lon="3.36397">
<ele>173.7</ele>
<time>2013-05-08T07:37:30.000Z</time>
</trkpt>
<trkpt lat="43.578034" lon="3.36394">
<ele>172.1</ele>
<time>2013-05-08T07:37:31.000Z</time>
</trkpt>
<trkpt lat="43.578149" lon="3.363907">
<ele>170.6</ele>
<time>2013-05-08T07:37:32.000Z</time>
</trkpt>
<trkpt lat="43.578265" lon="3.363878">
<ele>169.1</ele>
<time>2013-05-08T07:37:33.000Z</time>
</trkpt>
<trkpt lat="43.578384" lon="3.363848">
<ele>167.7</ele>
<time>2013-05-08T07:37:34.000Z</time>
</trkpt>
<trkpt lat="43.578502" lon="3.363821">
<ele>166.3</ele>
<time>2013-05-08T07:37:35.000Z</time>
</trkpt>
<trkpt lat="43.578622" lon="3.363799">
<ele>165.2</ele>
<time>2013-05-08T07:37:36.000Z</time>
</trkpt>
<trkpt lat="43.578745" lon="3.363775">
<ele>164.2</ele>
<time>2013-05-08T07:37:37.000Z</time>
</trkpt>
<trkpt lat="43.578872" lon="3.363748">
<ele>163.6</ele>
<time>2013-05-08T07:37:38.000Z</time>
</trkpt>
<trkpt lat="43.579009" lon="3.363712">
<ele>162.9</ele>
<time>2013-05-08T07:37:39.000Z</time>
</trkpt>
<trkpt lat="43.57915" lon="3.363677">
<ele>162.1</ele>
<time>2013-05-08T07:37:40.000Z</time>
</trkpt>
<trkpt lat="43.579301" lon="3.363643">
<ele>161.6</ele>
<time>2013-05-08T07:37:41.000Z</time>
</trkpt>
<trkpt lat="43.579459" lon="3.363609">
<ele>161.2</ele>
<time>2013-05-08T07:37:42.000Z</time>
</trkpt>
<trkpt lat="43.579628" lon="3.363571">
<ele>160.9</ele>
<time>2013-05-08T07:37:43.000Z</time>
</trkpt>
<trkpt lat="43.579794" lon="3.363533">
<ele>160.8</ele>
<time>2013-05-08T07:37:44.000Z</time>
</trkpt>
<trkpt lat="43.579955" lon="3.363497">
<ele>160.7</ele>
<time>2013-05-08T07:37:45.000Z</time>
</trkpt>
<trkpt lat="43.580114" lon="3.363463">
<ele>160.9</ele>
<time>2013-05-08T07:37:46.000Z</time>
</trkpt>
<trkpt lat="43.580269" lon="3.363429">
<ele>161.5</ele>
<time>2013-05-08T07:37:47.000Z</time>
</trkpt>
<trkpt lat="43.580419" lon="3.363385">
<ele>161.9</ele>
<time>2013-05-08T07:37:48.000Z</time>
</trkpt>
<trkpt lat="43.580577" lon="3.363325">
<ele>162.4</ele>
<time>2013-05-08T07:37:49.000Z</time>
</trkpt>
<trkpt lat="43.58074" lon="3.363252">
<ele>163</ele>
<time>2013-05-08T07:37:50.000Z</time>
</trkpt>
<trkpt lat="43.580908" lon="3.363168">
<ele>163.3</ele>
<time>2013-05-08T07:37:51.000Z</time>
</trkpt>
<trkpt lat="43.581083" lon="3.363076">
<ele>163.5</ele>
<time>2013-05-08T07:37:52.000Z</time>
</trkpt>
<trkpt lat="43.581262" lon="3.36298">
<ele>163.7</ele>
<time>2013-05-08T07:37:53.000Z</time>
</trkpt>
<trkpt lat="43.581445" lon="3.362865">
<ele>164.3</ele>
<time>2013-05-08T07:37:54.000Z</time>
</trkpt>
<trkpt lat="43.581631" lon="3.362746">
<ele>164.7</ele>
<time>2013-05-08T07:37:55.000Z</time>
</trkpt>
<trkpt lat="43.581816" lon="3.36263">
<ele>165</ele>
<time>2013-05-08T07:37:56.000Z</time>
</trkpt>
<trkpt lat="43.582005" lon="3.362516">
<ele>165.1</ele>
<time>2013-05-08T07:37:57.000Z</time>
</trkpt>
<trkpt lat="43.582194" lon="3.362405">
<ele>165.3</ele>
<time>2013-05-08T07:37:58.000Z</time>
</trkpt>
<trkpt lat="43.582373" lon="3.362302">
<ele>165.4</ele>
<time>2013-05-08T07:37:59.000Z</time>
</trkpt>
<trkpt lat="43.582547" lon="3.362213">
<ele>165.7</ele>
<time>2013-05-08T07:38:00.000Z</time>
</trkpt>
<trkpt lat="43.582716" lon="3.362181">
<ele>165.8</ele>
<time>2013-05-08T07:38:01.000Z</time>
</trkpt>
<trkpt lat="43.582885" lon="3.362188">
<ele>166</ele>
<time>2013-05-08T07:38:02.000Z</time>
</trkpt>
<trkpt lat="43.583029" lon="3.362284">
<ele>166.5</ele>
<time>2013-05-08T07:38:03.000Z</time>
</trkpt>
<trkpt lat="43.583174" lon="3.362402">
<ele>167.3</ele>
<time>2013-05-08T07:38:04.000Z</time>
</trkpt>
<trkpt lat="43.583306" lon="3.362536">
<ele>168.5</ele>
<time>2013-05-08T07:38:05.000Z</time>
</trkpt>
<trkpt lat="43.583432" lon="3.362668">
<ele>169.7</ele>
<time>2013-05-08T07:38:06.000Z</time>
</trkpt>
<trkpt lat="43.58355" lon="3.362784">
<ele>170.6</ele>
<time>2013-05-08T07:38:07.000Z</time>
</trkpt>
<trkpt lat="43.583677" lon="3.362898">
<ele>171.2</ele>
<time>2013-05-08T07:38:08.000Z</time>
</trkpt>
<trkpt lat="43.583821" lon="3.362961">
<ele>171.7</ele>
<time>2013-05-08T07:38:09.000Z</time>
</trkpt>
<trkpt lat="43.584" lon="3.362961">
<ele>172.1</ele>
<time>2013-05-08T07:38:10.000Z</time>
</trkpt>
<trkpt lat="43.584184" lon="3.362947">
<ele>172.2</ele>
<time>2013-05-08T07:38:11.000Z</time>
</trkpt>
<trkpt lat="43.584365" lon="3.362929">
<ele>172.1</ele>
<time>2013-05-08T07:38:12.000Z</time>
</trkpt>
<trkpt lat="43.584544" lon="3.362911">
<ele>172.3</ele>
<time>2013-05-08T07:38:13.000Z</time>
</trkpt>
<trkpt lat="43.584725" lon="3.362893">
<ele>172.3</ele>
<time>2013-05-08T07:38:14.000Z</time>
</trkpt>
<trkpt lat="43.584911" lon="3.362871">
<ele>172.2</ele>
<time>2013-05-08T07:38:15.000Z</time>
</trkpt>
<trkpt lat="43.585104" lon="3.362857">
<ele>171.8</ele>
<time>2013-05-08T07:38:16.000Z</time>
</trkpt>
<trkpt lat="43.585301" lon="3.362878">
<ele>171.6</ele>
<time>2013-05-08T07:38:17.000Z</time>
</trkpt>
<trkpt lat="43.585499" lon="3.362925">
<ele>171.4</ele>
<time>2013-05-08T07:38:18.000Z</time>
</trkpt>
<trkpt lat="43.585697" lon="3.362989">
<ele>171.3</ele>
<time>2013-05-08T07:38:19.000Z</time>
</trkpt>
<trkpt lat="43.585896" lon="3.363058">
<ele>171.1</ele>
<time>2013-05-08T07:38:20.000Z</time>
</trkpt>
<trkpt lat="43.586085" lon="3.363128">
<ele>171.4</ele>
<time>2013-05-08T07:38:21.000Z</time>
</trkpt>
<trkpt lat="43.586274" lon="3.363196">
<ele>172.2</ele>
<time>2013-05-08T07:38:22.000Z</time>
</trkpt>
<trkpt lat="43.586459" lon="3.363262">
<ele>173.2</ele>
<time>2013-05-08T07:38:23.000Z</time>
</trkpt>
<trkpt lat="43.586645" lon="3.363316">
<ele>174.3</ele>
<time>2013-05-08T07:38:24.000Z</time>
</trkpt>
<trkpt lat="43.586834" lon="3.363373">
<ele>174.9</ele>
<time>2013-05-08T07:38:25.000Z</time>
</trkpt>
<trkpt lat="43.58703" lon="3.363427">
<ele>175.2</ele>
<time>2013-05-08T07:38:26.000Z</time>
</trkpt>
<trkpt lat="43.587225" lon="3.363482">
<ele>175.6</ele>
<time>2013-05-08T07:38:27.000Z</time>
</trkpt>
<trkpt lat="43.587421" lon="3.363565">
<ele>175.9</ele>
<time>2013-05-08T07:38:28.000Z</time>
</trkpt>
<trkpt lat="43.587629" lon="3.363664">
<ele>176.4</ele>
<time>2013-05-08T07:38:29.000Z</time>
</trkpt>
<trkpt lat="43.587848" lon="3.363765">
<ele>176.8</ele>
<time>2013-05-08T07:38:30.000Z</time>
</trkpt>
<trkpt lat="43.588069" lon="3.36387">
<ele>177.2</ele>
<time>2013-05-08T07:38:31.000Z</time>
</trkpt>
<trkpt lat="43.58829" lon="3.363977">
<ele>177.4</ele>
<time>2013-05-08T07:38:32.000Z</time>
</trkpt>
<trkpt lat="43.58851" lon="3.364093">
<ele>177.6</ele>
<time>2013-05-08T07:38:33.000Z</time>
</trkpt>
<trkpt lat="43.588739" lon="3.364214">
<ele>177.9</ele>
<time>2013-05-08T07:38:34.000Z</time>
</trkpt>
<trkpt lat="43.58896" lon="3.36434">
<ele>178.4</ele>
<time>2013-05-08T07:38:35.000Z</time>
</trkpt>
<trkpt lat="43.589179" lon="3.36447">
<ele>178.7</ele>
<time>2013-05-08T07:38:36.000Z</time>
</trkpt>
<trkpt lat="43.58939" lon="3.364596">
<ele>179</ele>
<time>2013-05-08T07:38:37.000Z</time>
</trkpt>
<trkpt lat="43.589599" lon="3.364718">
<ele>179</ele>
<time>2013-05-08T07:38:38.000Z</time>
</trkpt>
<trkpt lat="43.589799" lon="3.364869">
<ele>178.9</ele>
<time>2013-05-08T07:38:39.000Z</time>
</trkpt>
<trkpt lat="43.589998" lon="3.365042">
<ele>179</ele>
<time>2013-05-08T07:38:40.000Z</time>
</trkpt>
<trkpt lat="43.590176" lon="3.36528">
<ele>178.9</ele>
<time>2013-05-08T07:38:41.000Z</time>
</trkpt>
<trkpt lat="43.590356" lon="3.365533">
<ele>179.2</ele>
<time>2013-05-08T07:38:42.000Z</time>
</trkpt>
<trkpt lat="43.590548" lon="3.365791">
<ele>179.3</ele>
<time>2013-05-08T07:38:43.000Z</time>
</trkpt>
<trkpt lat="43.590752" lon="3.366059">
<ele>179.8</ele>
<time>2013-05-08T07:38:44.000Z</time>
</trkpt>
<trkpt lat="43.590968" lon="3.366329">
<ele>180.4</ele>
<time>2013-05-08T07:38:45.000Z</time>
</trkpt>
<trkpt lat="43.591192" lon="3.3666">
<ele>181</ele>
<time>2013-05-08T07:38:46.000Z</time>
</trkpt>
<trkpt lat="43.591417" lon="3.366875">
<ele>181.8</ele>
<time>2013-05-08T07:38:47.000Z</time>
</trkpt>
<trkpt lat="43.591627" lon="3.367148">
<ele>182.7</ele>
<time>2013-05-08T07:38:48.000Z</time>
</trkpt>
<trkpt lat="43.591823" lon="3.367411">
<ele>183.6</ele>
<time>2013-05-08T07:38:49.000Z</time>
</trkpt>
<trkpt lat="43.591988" lon="3.367623">
<ele>184.6</ele>
<time>2013-05-08T07:38:50.000Z</time>
</trkpt>
<trkpt lat="43.592127" lon="3.36779">
<ele>185.4</ele>
<time>2013-05-08T07:38:51.000Z</time>
</trkpt>
<trkpt lat="43.592184" lon="3.36786">
<ele>186</ele>
<time>2013-05-08T07:38:52.000Z</time>
</trkpt>
<trkpt lat="43.592215" lon="3.367893">
<ele>187.1</ele>
<time>2013-05-08T07:38:54.000Z</time>
</trkpt>
<trkpt lat="43.592234" lon="3.367909">
<ele>187.2</ele>
<time>2013-05-08T07:38:55.000Z</time>
</trkpt>
<trkpt lat="43.592267" lon="3.367946">
<ele>187.3</ele>
<time>2013-05-08T07:38:57.000Z</time>
</trkpt>
<trkpt lat="43.592301" lon="3.367981">
<ele>187.7</ele>
<time>2013-05-08T07:38:58.000Z</time>
</trkpt>
<trkpt lat="43.592368" lon="3.368051">
<ele>188</ele>
<time>2013-05-08T07:38:59.000Z</time>
</trkpt>
<trkpt lat="43.59245" lon="3.368148">
<ele>188.5</ele>
<time>2013-05-08T07:39:00.000Z</time>
</trkpt>
<trkpt lat="43.592551" lon="3.36827">
<ele>189.2</ele>
<time>2013-05-08T07:39:01.000Z</time>
</trkpt>
<trkpt lat="43.592668" lon="3.368419">
<ele>189.8</ele>
<time>2013-05-08T07:39:02.000Z</time>
</trkpt>
<trkpt lat="43.592808" lon="3.368596">
<ele>190.4</ele>
<time>2013-05-08T07:39:03.000Z</time>
</trkpt>
<trkpt lat="43.592966" lon="3.368793">
<ele>190.9</ele>
<time>2013-05-08T07:39:04.000Z</time>
</trkpt>
<trkpt lat="43.593128" lon="3.368995">
<ele>191.4</ele>
<time>2013-05-08T07:39:05.000Z</time>
</trkpt>
<trkpt lat="43.593282" lon="3.369188">
<ele>192</ele>
<time>2013-05-08T07:39:06.000Z</time>
</trkpt>
<trkpt lat="43.593429" lon="3.369374">
<ele>192.5</ele>
<time>2013-05-08T07:39:07.000Z</time>
</trkpt>
<trkpt lat="43.593574" lon="3.369554">
<ele>193.2</ele>
<time>2013-05-08T07:39:08.000Z</time>
</trkpt>
<trkpt lat="43.593713" lon="3.369729">
<ele>193.8</ele>
<time>2013-05-08T07:39:09.000Z</time>
</trkpt>
<trkpt lat="43.593847" lon="3.369902">
<ele>194.5</ele>
<time>2013-05-08T07:39:10.000Z</time>
</trkpt>
<trkpt lat="43.593985" lon="3.370086">
<ele>195.1</ele>
<time>2013-05-08T07:39:11.000Z</time>
</trkpt>
<trkpt lat="43.594127" lon="3.370273">
<ele>195.6</ele>
<time>2013-05-08T07:39:12.000Z</time>
</trkpt>
<trkpt lat="43.594271" lon="3.370462">
<ele>195.8</ele>
<time>2013-05-08T07:39:13.000Z</time>
</trkpt>
<trkpt lat="43.594411" lon="3.370645">
<ele>196.1</ele>
<time>2013-05-08T07:39:14.000Z</time>
</trkpt>
<trkpt lat="43.594551" lon="3.370827">
<ele>196.6</ele>
<time>2013-05-08T07:39:15.000Z</time>
</trkpt>
<trkpt lat="43.594692" lon="3.371004">
<ele>197.1</ele>
<time>2013-05-08T07:39:16.000Z</time>
</trkpt>
<trkpt lat="43.594832" lon="3.371178">
<ele>198</ele>
<time>2013-05-08T07:39:17.000Z</time>
</trkpt>
<trkpt lat="43.594974" lon="3.371358">
<ele>198.9</ele>
<time>2013-05-08T07:39:18.000Z</time>
</trkpt>
<trkpt lat="43.595125" lon="3.371527">
<ele>199.8</ele>
<time>2013-05-08T07:39:19.000Z</time>
</trkpt>
<trkpt lat="43.595286" lon="3.371705">
<ele>200.6</ele>
<time>2013-05-08T07:39:20.000Z</time>
</trkpt>
<trkpt lat="43.595455" lon="3.371885">
<ele>201.6</ele>
<time>2013-05-08T07:39:21.000Z</time>
</trkpt>
<trkpt lat="43.595625" lon="3.372053">
<ele>202.9</ele>
<time>2013-05-08T07:39:22.000Z</time>
</trkpt>
<trkpt lat="43.595797" lon="3.372218">
<ele>204.4</ele>
<time>2013-05-08T07:39:23.000Z</time>
</trkpt>
<trkpt lat="43.595969" lon="3.372382">
<ele>206</ele>
<time>2013-05-08T07:39:24.000Z</time>
</trkpt>
<trkpt lat="43.596145" lon="3.372549">
<ele>207.3</ele>
<time>2013-05-08T07:39:25.000Z</time>
</trkpt>
<trkpt lat="43.596323" lon="3.37272">
<ele>208.4</ele>
<time>2013-05-08T07:39:26.000Z</time>
</trkpt>
<trkpt lat="43.596506" lon="3.372895">
<ele>209.3</ele>
<time>2013-05-08T07:39:27.000Z</time>
</trkpt>
<trkpt lat="43.59669" lon="3.373078">
<ele>210.1</ele>
<time>2013-05-08T07:39:28.000Z</time>
</trkpt>
<trkpt lat="43.596876" lon="3.373266">
<ele>210.8</ele>
<time>2013-05-08T07:39:29.000Z</time>
</trkpt>
<trkpt lat="43.597054" lon="3.373456">
<ele>211.4</ele>
<time>2013-05-08T07:39:30.000Z</time>
</trkpt>
<trkpt lat="43.597219" lon="3.373635">
<ele>211.5</ele>
<time>2013-05-08T07:39:31.000Z</time>
</trkpt>
<trkpt lat="43.597371" lon="3.373802">
<ele>211.6</ele>
<time>2013-05-08T07:39:32.000Z</time>
</trkpt>
<trkpt lat="43.597524" lon="3.373967">
<ele>211.6</ele>
<time>2013-05-08T07:39:33.000Z</time>
</trkpt>
<trkpt lat="43.597665" lon="3.374147">
<ele>211.8</ele>
<time>2013-05-08T07:39:34.000Z</time>
</trkpt>
<trkpt lat="43.597804" lon="3.374345">
<ele>212.2</ele>
<time>2013-05-08T07:39:35.000Z</time>
</trkpt>
<trkpt lat="43.597937" lon="3.374564">
<ele>212.5</ele>
<time>2013-05-08T07:39:36.000Z</time>
</trkpt>
<trkpt lat="43.59803" lon="3.374849">
<ele>212.4</ele>
<time>2013-05-08T07:39:37.000Z</time>
</trkpt>
<trkpt lat="43.598115" lon="3.375148">
<ele>212.3</ele>
<time>2013-05-08T07:39:38.000Z</time>
</trkpt>
<trkpt lat="43.598198" lon="3.375451">
<ele>212.3</ele>
<time>2013-05-08T07:39:39.000Z</time>
</trkpt>
<trkpt lat="43.598285" lon="3.375756">
<ele>212.3</ele>
<time>2013-05-08T07:39:40.000Z</time>
</trkpt>
<trkpt lat="43.598375" lon="3.37606">
<ele>212.2</ele>
<time>2013-05-08T07:39:41.000Z</time>
</trkpt>
<trkpt lat="43.598468" lon="3.376368">
<ele>212.1</ele>
<time>2013-05-08T07:39:42.000Z</time>
</trkpt>
<trkpt lat="43.598562" lon="3.376675">
<ele>211.7</ele>
<time>2013-05-08T07:39:43.000Z</time>
</trkpt>
<trkpt lat="43.598659" lon="3.376985">
<ele>211.4</ele>
<time>2013-05-08T07:39:44.000Z</time>
</trkpt>
<trkpt lat="43.59875" lon="3.377292">
<ele>211.3</ele>
<time>2013-05-08T07:39:45.000Z</time>
</trkpt>
<trkpt lat="43.598841" lon="3.377595">
<ele>211.3</ele>
<time>2013-05-08T07:39:46.000Z</time>
</trkpt>
<trkpt lat="43.598931" lon="3.377892">
<ele>211.3</ele>
<time>2013-05-08T07:39:47.000Z</time>
</trkpt>
<trkpt lat="43.599009" lon="3.378155">
<ele>211.9</ele>
<time>2013-05-08T07:39:48.000Z</time>
</trkpt>
<trkpt lat="43.599084" lon="3.378398">
<ele>212.9</ele>
<time>2013-05-08T07:39:49.000Z</time>
</trkpt>
<trkpt lat="43.599157" lon="3.378627">
<ele>214.2</ele>
<time>2013-05-08T07:39:50.000Z</time>
</trkpt>
<trkpt lat="43.599235" lon="3.378865">
<ele>215.6</ele>
<time>2013-05-08T07:39:51.000Z</time>
</trkpt>
<trkpt lat="43.599315" lon="3.379107">
<ele>216.7</ele>
<time>2013-05-08T07:39:52.000Z</time>
</trkpt>
<trkpt lat="43.599396" lon="3.379359">
<ele>217.7</ele>
<time>2013-05-08T07:39:53.000Z</time>
</trkpt>
<trkpt lat="43.599469" lon="3.379628">
<ele>218.6</ele>
<time>2013-05-08T07:39:54.000Z</time>
</trkpt>
<trkpt lat="43.599527" lon="3.37992">
<ele>219.4</ele>
<time>2013-05-08T07:39:55.000Z</time>
</trkpt>
<trkpt lat="43.599584" lon="3.380228">
<ele>220</ele>
<time>2013-05-08T07:39:56.000Z</time>
</trkpt>
<trkpt lat="43.599626" lon="3.380549">
<ele>220.6</ele>
<time>2013-05-08T07:39:57.000Z</time>
</trkpt>
<trkpt lat="43.599669" lon="3.380874">
<ele>221.3</ele>
<time>2013-05-08T07:39:58.000Z</time>
</trkpt>
<trkpt lat="43.599713" lon="3.381198">
<ele>222.2</ele>
<time>2013-05-08T07:39:59.000Z</time>
</trkpt>
<trkpt lat="43.59975" lon="3.381515">
<ele>223.2</ele>
<time>2013-05-08T07:40:00.000Z</time>
</trkpt>
<trkpt lat="43.599786" lon="3.381823">
<ele>224.6</ele>
<time>2013-05-08T07:40:01.000Z</time>
</trkpt>
<trkpt lat="43.599848" lon="3.382121">
<ele>226.1</ele>
<time>2013-05-08T07:40:02.000Z</time>
</trkpt>
<trkpt lat="43.599948" lon="3.38241">
<ele>227.1</ele>
<time>2013-05-08T07:40:03.000Z</time>
</trkpt>
<trkpt lat="43.600054" lon="3.382689">
<ele>227.7</ele>
<time>2013-05-08T07:40:04.000Z</time>
</trkpt>
<trkpt lat="43.600167" lon="3.38296">
<ele>228.1</ele>
<time>2013-05-08T07:40:05.000Z</time>
</trkpt>
<trkpt lat="43.600293" lon="3.383222">
<ele>228</ele>
<time>2013-05-08T07:40:06.000Z</time>
</trkpt>
<trkpt lat="43.600416" lon="3.38347">
<ele>227.5</ele>
<time>2013-05-08T07:40:07.000Z</time>
</trkpt>
<trkpt lat="43.600541" lon="3.383728">
<ele>227</ele>
<time>2013-05-08T07:40:08.000Z</time>
</trkpt>
<trkpt lat="43.600675" lon="3.383997">
<ele>226.4</ele>
<time>2013-05-08T07:40:09.000Z</time>
</trkpt>
<trkpt lat="43.600812" lon="3.384268">
<ele>226</ele>
<time>2013-05-08T07:40:10.000Z</time>
</trkpt>
<trkpt lat="43.600953" lon="3.384548">
<ele>226</ele>
<time>2013-05-08T07:40:11.000Z</time>
</trkpt>
<trkpt lat="43.601095" lon="3.384838">
<ele>226.2</ele>
<time>2013-05-08T07:40:12.000Z</time>
</trkpt>
<trkpt lat="43.601233" lon="3.385116">
<ele>226.7</ele>
<time>2013-05-08T07:40:13.000Z</time>
</trkpt>
<trkpt lat="43.601369" lon="3.38539">
<ele>227.3</ele>
<time>2013-05-08T07:40:14.000Z</time>
</trkpt>
<trkpt lat="43.601503" lon="3.385653">
<ele>227.7</ele>
<time>2013-05-08T07:40:15.000Z</time>
</trkpt>
<trkpt lat="43.601635" lon="3.385914">
<ele>227.9</ele>
<time>2013-05-08T07:40:16.000Z</time>
</trkpt>
<trkpt lat="43.601768" lon="3.38617">
<ele>227.7</ele>
<time>2013-05-08T07:40:17.000Z</time>
</trkpt>
<trkpt lat="43.601894" lon="3.386406">
<ele>227.7</ele>
<time>2013-05-08T07:40:18.000Z</time>
</trkpt>
<trkpt lat="43.602029" lon="3.386634">
<ele>227.6</ele>
<time>2013-05-08T07:40:19.000Z</time>
</trkpt>
<trkpt lat="43.602173" lon="3.386861">
<ele>227.5</ele>
<time>2013-05-08T07:40:20.000Z</time>
</trkpt>
<trkpt lat="43.602314" lon="3.387083">
<ele>227.5</ele>
<time>2013-05-08T07:40:21.000Z</time>
</trkpt>
<trkpt lat="43.602459" lon="3.387312">
<ele>227.6</ele>
<time>2013-05-08T07:40:22.000Z</time>
</trkpt>
<trkpt lat="43.602595" lon="3.387559">
<ele>228.2</ele>
<time>2013-05-08T07:40:23.000Z</time>
</trkpt>
<trkpt lat="43.602704" lon="3.387825">
<ele>228.7</ele>
<time>2013-05-08T07:40:24.000Z</time>
</trkpt>
<trkpt lat="43.602751" lon="3.388091">
<ele>228.9</ele>
<time>2013-05-08T07:40:25.000Z</time>
</trkpt>
<trkpt lat="43.60277" lon="3.388356">
<ele>229.8</ele>
<time>2013-05-08T07:40:26.000Z</time>
</trkpt>
<trkpt lat="43.602761" lon="3.388608">
<ele>230.4</ele>
<time>2013-05-08T07:40:27.000Z</time>
</trkpt>
<trkpt lat="43.602745" lon="3.38884">
<ele>231</ele>
<time>2013-05-08T07:40:28.000Z</time>
</trkpt>
<trkpt lat="43.60273" lon="3.389073">
<ele>231.3</ele>
<time>2013-05-08T07:40:29.000Z</time>
</trkpt>
<trkpt lat="43.602715" lon="3.389306">
<ele>231.2</ele>
<time>2013-05-08T07:40:30.000Z</time>
</trkpt>
<trkpt lat="43.60275" lon="3.389556">
<ele>231.2</ele>
<time>2013-05-08T07:40:31.000Z</time>
</trkpt>
<trkpt lat="43.602796" lon="3.38981">
<ele>231</ele>
<time>2013-05-08T07:40:32.000Z</time>
</trkpt>
<trkpt lat="43.602847" lon="3.39009">
<ele>231</ele>
<time>2013-05-08T07:40:33.000Z</time>
</trkpt>
<trkpt lat="43.602906" lon="3.390376">
<ele>230.7</ele>
<time>2013-05-08T07:40:34.000Z</time>
</trkpt>
<trkpt lat="43.602966" lon="3.390671">
<ele>230.4</ele>
<time>2013-05-08T07:40:35.000Z</time>
</trkpt>
<trkpt lat="43.603031" lon="3.390963">
<ele>229.8</ele>
<time>2013-05-08T07:40:36.000Z</time>
</trkpt>
<trkpt lat="43.603097" lon="3.391263">
<ele>229.3</ele>
<time>2013-05-08T07:40:37.000Z</time>
</trkpt>
<trkpt lat="43.603166" lon="3.391562">
<ele>228.8</ele>
<time>2013-05-08T07:40:38.000Z</time>
</trkpt>
<trkpt lat="43.603231" lon="3.391857">
<ele>228.4</ele>
<time>2013-05-08T07:40:39.000Z</time>
</trkpt>
<trkpt lat="43.60329" lon="3.39214">
<ele>228.2</ele>
<time>2013-05-08T07:40:40.000Z</time>
</trkpt>
<trkpt lat="43.603333" lon="3.392402">
<ele>228</ele>
<time>2013-05-08T07:40:41.000Z</time>
</trkpt>
<trkpt lat="43.603372" lon="3.392647">
<ele>227.9</ele>
<time>2013-05-08T07:40:42.000Z</time>
</trkpt>
<trkpt lat="43.603418" lon="3.392866">
<ele>228.1</ele>
<time>2013-05-08T07:40:43.000Z</time>
</trkpt>
<trkpt lat="43.603467" lon="3.393059">
<ele>228.4</ele>
<time>2013-05-08T07:40:44.000Z</time>
</trkpt>
<trkpt lat="43.603566" lon="3.393181">
<ele>228.4</ele>
<time>2013-05-08T07:40:45.000Z</time>
</trkpt>
<trkpt lat="43.603675" lon="3.393301">
<ele>228</ele>
<time>2013-05-08T07:40:46.000Z</time>
</trkpt>
<trkpt lat="43.603816" lon="3.393353">
<ele>227.8</ele>
<time>2013-05-08T07:40:47.000Z</time>
</trkpt>
<trkpt lat="43.603967" lon="3.393348">
<ele>227.5</ele>
<time>2013-05-08T07:40:48.000Z</time>
</trkpt>
<trkpt lat="43.604129" lon="3.393323">
<ele>226.5</ele>
<time>2013-05-08T07:40:49.000Z</time>
</trkpt>
<trkpt lat="43.604303" lon="3.393296">
<ele>226</ele>
<time>2013-05-08T07:40:50.000Z</time>
</trkpt>
<trkpt lat="43.604467" lon="3.393208">
<ele>225.6</ele>
<time>2013-05-08T07:40:51.000Z</time>
</trkpt>
<trkpt lat="43.604605" lon="3.393079">
<ele>224.9</ele>
<time>2013-05-08T07:40:52.000Z</time>
</trkpt>
<trkpt lat="43.604735" lon="3.392945">
<ele>223.9</ele>
<time>2013-05-08T07:40:53.000Z</time>
</trkpt>
<trkpt lat="43.604827" lon="3.392804">
<ele>222.5</ele>
<time>2013-05-08T07:40:54.000Z</time>
</trkpt>
<trkpt lat="43.604921" lon="3.392712">
<ele>221.6</ele>
<time>2013-05-08T07:40:55.000Z</time>
</trkpt>
<trkpt lat="43.605005" lon="3.392707">
<ele>221.1</ele>
<time>2013-05-08T07:40:56.000Z</time>
</trkpt>
<trkpt lat="43.605089" lon="3.392701">
<ele>220.6</ele>
<time>2013-05-08T07:40:57.000Z</time>
</trkpt>
<trkpt lat="43.605164" lon="3.392813">
<ele>221.1</ele>
<time>2013-05-08T07:40:58.000Z</time>
</trkpt>
<trkpt lat="43.605199" lon="3.392973">
<ele>221.4</ele>
<time>2013-05-08T07:40:59.000Z</time>
</trkpt>
<trkpt lat="43.605195" lon="3.393132">
<ele>222.3</ele>
<time>2013-05-08T07:41:00.000Z</time>
</trkpt>
<trkpt lat="43.605171" lon="3.393331">
<ele>222.8</ele>
<time>2013-05-08T07:41:01.000Z</time>
</trkpt>
<trkpt lat="43.60514" lon="3.393534">
<ele>222.9</ele>
<time>2013-05-08T07:41:02.000Z</time>
</trkpt>
<trkpt lat="43.605111" lon="3.393727">
<ele>222.6</ele>
<time>2013-05-08T07:41:03.000Z</time>
</trkpt>
<trkpt lat="43.605106" lon="3.393924">
<ele>222.7</ele>
<time>2013-05-08T07:41:04.000Z</time>
</trkpt>
<trkpt lat="43.605115" lon="3.394145">
<ele>222.2</ele>
<time>2013-05-08T07:41:05.000Z</time>
</trkpt>
<trkpt lat="43.605175" lon="3.394336">
<ele>221.5</ele>
<time>2013-05-08T07:41:06.000Z</time>
</trkpt>
<trkpt lat="43.605251" lon="3.394508">
<ele>220.6</ele>
<time>2013-05-08T07:41:07.000Z</time>
</trkpt>
<trkpt lat="43.605334" lon="3.394675">
<ele>219.2</ele>
<time>2013-05-08T07:41:08.000Z</time>
</trkpt>
<trkpt lat="43.605448" lon="3.394835">
<ele>218.2</ele>
<time>2013-05-08T07:41:09.000Z</time>
</trkpt>
<trkpt lat="43.605569" lon="3.394993">
<ele>217.4</ele>
<time>2013-05-08T07:41:10.000Z</time>
</trkpt>
<trkpt lat="43.605703" lon="3.395141">
<ele>217</ele>
<time>2013-05-08T07:41:11.000Z</time>
</trkpt>
<trkpt lat="43.605852" lon="3.39528">
<ele>216.7</ele>
<time>2013-05-08T07:41:12.000Z</time>
</trkpt>
<trkpt lat="43.606007" lon="3.395411">
<ele>216.7</ele>
<time>2013-05-08T07:41:13.000Z</time>
</trkpt>
<trkpt lat="43.606166" lon="3.395533">
<ele>216.9</ele>
<time>2013-05-08T07:41:14.000Z</time>
</trkpt>
<trkpt lat="43.606329" lon="3.395639">
<ele>217.5</ele>
<time>2013-05-08T07:41:15.000Z</time>
</trkpt>
<trkpt lat="43.606497" lon="3.395744">
<ele>218</ele>
<time>2013-05-08T07:41:16.000Z</time>
</trkpt>
<trkpt lat="43.606673" lon="3.395819">
<ele>217.8</ele>
<time>2013-05-08T07:41:17.000Z</time>
</trkpt>
<trkpt lat="43.606873" lon="3.395855">
<ele>217</ele>
<time>2013-05-08T07:41:18.000Z</time>
</trkpt>
<trkpt lat="43.607061" lon="3.395889">
<ele>216</ele>
<time>2013-05-08T07:41:19.000Z</time>
</trkpt>
<trkpt lat="43.607234" lon="3.395881">
<ele>214.6</ele>
<time>2013-05-08T07:41:20.000Z</time>
</trkpt>
<trkpt lat="43.607391" lon="3.395875">
<ele>212.9</ele>
<time>2013-05-08T07:41:21.000Z</time>
</trkpt>
<trkpt lat="43.607522" lon="3.395873">
<ele>211.2</ele>
<time>2013-05-08T07:41:22.000Z</time>
</trkpt>
<trkpt lat="43.607648" lon="3.395869">
<ele>209.8</ele>
<time>2013-05-08T07:41:23.000Z</time>
</trkpt>
<trkpt lat="43.607779" lon="3.395883">
<ele>208.6</ele>
<time>2013-05-08T07:41:24.000Z</time>
</trkpt>
<trkpt lat="43.607908" lon="3.395944">
<ele>207.9</ele>
<time>2013-05-08T07:41:25.000Z</time>
</trkpt>
<trkpt lat="43.608037" lon="3.39601">
<ele>207.2</ele>
<time>2013-05-08T07:41:26.000Z</time>
</trkpt>
<trkpt lat="43.608161" lon="3.396093">
<ele>206.7</ele>
<time>2013-05-08T07:41:27.000Z</time>
</trkpt>
<trkpt lat="43.608277" lon="3.396186">
<ele>206.4</ele>
<time>2013-05-08T07:41:28.000Z</time>
</trkpt>
<trkpt lat="43.608397" lon="3.396283">
<ele>206.1</ele>
<time>2013-05-08T07:41:29.000Z</time>
</trkpt>
<trkpt lat="43.608503" lon="3.396379">
<ele>205.8</ele>
<time>2013-05-08T07:41:30.000Z</time>
</trkpt>
<trkpt lat="43.608598" lon="3.396464">
<ele>205.1</ele>
<time>2013-05-08T07:41:31.000Z</time>
</trkpt>
<trkpt lat="43.608677" lon="3.396534">
<ele>204.1</ele>
<time>2013-05-08T07:41:32.000Z</time>
</trkpt>
<trkpt lat="43.60874" lon="3.396592">
<ele>203.2</ele>
<time>2013-05-08T07:41:33.000Z</time>
</trkpt>
<trkpt lat="43.60879" lon="3.39664">
<ele>202.3</ele>
<time>2013-05-08T07:41:34.000Z</time>
</trkpt>
<trkpt lat="43.608829" lon="3.396675">
<ele>201.1</ele>
<time>2013-05-08T07:41:35.000Z</time>
</trkpt>
<trkpt lat="43.608861" lon="3.396697">
<ele>201.2</ele>
<time>2013-05-08T07:42:12.000Z</time>
</trkpt>
<trkpt lat="43.60888" lon="3.396711">
<ele>201.1</ele>
<time>2013-05-08T07:42:13.000Z</time>
</trkpt>
<trkpt lat="43.608901" lon="3.396707">
<ele>201.1</ele>
<time>2013-05-08T07:42:14.000Z</time>
</trkpt>
<trkpt lat="43.60897" lon="3.396673">
<ele>200.8</ele>
<time>2013-05-08T07:42:15.000Z</time>
</trkpt>
<trkpt lat="43.609026" lon="3.396591">
<ele>200.7</ele>
<time>2013-05-08T07:42:16.000Z</time>
</trkpt>
<trkpt lat="43.609117" lon="3.396471">
<ele>200.5</ele>
<time>2013-05-08T07:42:17.000Z</time>
</trkpt>
<trkpt lat="43.609223" lon="3.396339">
<ele>200.1</ele>
<time>2013-05-08T07:42:18.000Z</time>
</trkpt>
<trkpt lat="43.609364" lon="3.396176">
<ele>199.7</ele>
<time>2013-05-08T07:42:19.000Z</time>
</trkpt>
<trkpt lat="43.609525" lon="3.396018">
<ele>199.6</ele>
<time>2013-05-08T07:42:20.000Z</time>
</trkpt>
<trkpt lat="43.609704" lon="3.395844">
<ele>199.7</ele>
<time>2013-05-08T07:42:21.000Z</time>
</trkpt>
<trkpt lat="43.609889" lon="3.395665">
<ele>199.7</ele>
<time>2013-05-08T07:42:22.000Z</time>
</trkpt>
<trkpt lat="43.610083" lon="3.395487">
<ele>200.2</ele>
<time>2013-05-08T07:42:23.000Z</time>
</trkpt>
<trkpt lat="43.610285" lon="3.395295">
<ele>201.1</ele>
<time>2013-05-08T07:42:24.000Z</time>
</trkpt>
<trkpt lat="43.610495" lon="3.395102">
<ele>201.9</ele>
<time>2013-05-08T07:42:25.000Z</time>
</trkpt>
<trkpt lat="43.610681" lon="3.394877">
<ele>203</ele>
<time>2013-05-08T07:42:26.000Z</time>
</trkpt>
<trkpt lat="43.610843" lon="3.39464">
<ele>203.4</ele>
<time>2013-05-08T07:42:27.000Z</time>
</trkpt>
<trkpt lat="43.610972" lon="3.394388">
<ele>203.3</ele>
<time>2013-05-08T07:42:28.000Z</time>
</trkpt>
<trkpt lat="43.611061" lon="3.394125">
<ele>203</ele>
<time>2013-05-08T07:42:29.000Z</time>
</trkpt>
<trkpt lat="43.611107" lon="3.393848">
<ele>203</ele>
<time>2013-05-08T07:42:30.000Z</time>
</trkpt>
<trkpt lat="43.61111" lon="3.393558">
<ele>202.5</ele>
<time>2013-05-08T07:42:31.000Z</time>
</trkpt>
<trkpt lat="43.611095" lon="3.393269">
<ele>201.9</ele>
<time>2013-05-08T07:42:32.000Z</time>
</trkpt>
<trkpt lat="43.611058" lon="3.392929">
<ele>201.5</ele>
<time>2013-05-08T07:42:33.000Z</time>
</trkpt>
<trkpt lat="43.611021" lon="3.39258">
<ele>201.2</ele>
<time>2013-05-08T07:42:34.000Z</time>
</trkpt>
<trkpt lat="43.610983" lon="3.392233">
<ele>201.2</ele>
<time>2013-05-08T07:42:35.000Z</time>
</trkpt>
<trkpt lat="43.61096" lon="3.391889">
<ele>201.4</ele>
<time>2013-05-08T07:42:36.000Z</time>
</trkpt>
<trkpt lat="43.610976" lon="3.391571">
<ele>201.9</ele>
<time>2013-05-08T07:42:37.000Z</time>
</trkpt>
<trkpt lat="43.611001" lon="3.391271">
<ele>202.2</ele>
<time>2013-05-08T07:42:38.000Z</time>
</trkpt>
<trkpt lat="43.611029" lon="3.391017">
<ele>202.2</ele>
<time>2013-05-08T07:42:39.000Z</time>
</trkpt>
<trkpt lat="43.611034" lon="3.390803">
<ele>202.1</ele>
<time>2013-05-08T07:42:40.000Z</time>
</trkpt>
<trkpt lat="43.610992" lon="3.390597">
<ele>202.1</ele>
<time>2013-05-08T07:42:41.000Z</time>
</trkpt>
<trkpt lat="43.610926" lon="3.390347">
<ele>202</ele>
<time>2013-05-08T07:42:42.000Z</time>
</trkpt>
<trkpt lat="43.610852" lon="3.390061">
<ele>202.2</ele>
<time>2013-05-08T07:42:43.000Z</time>
</trkpt>
<trkpt lat="43.610776" lon="3.389762">
<ele>202.6</ele>
<time>2013-05-08T07:42:44.000Z</time>
</trkpt>
<trkpt lat="43.610734" lon="3.389422">
<ele>202.7</ele>
<time>2013-05-08T07:42:45.000Z</time>
</trkpt>
<trkpt lat="43.610695" lon="3.389059">
<ele>202.4</ele>
<time>2013-05-08T07:42:46.000Z</time>
</trkpt>
<trkpt lat="43.610649" lon="3.388718">
<ele>202.3</ele>
<time>2013-05-08T07:42:47.000Z</time>
</trkpt>
<trkpt lat="43.610584" lon="3.388404">
<ele>202</ele>
<time>2013-05-08T07:42:48.000Z</time>
</trkpt>
<trkpt lat="43.610479" lon="3.388135">
<ele>202.3</ele>
<time>2013-05-08T07:42:49.000Z</time>
</trkpt>
<trkpt lat="43.610356" lon="3.387917">
<ele>203.2</ele>
<time>2013-05-08T07:42:50.000Z</time>
</trkpt>
<trkpt lat="43.610198" lon="3.38778">
<ele>204.2</ele>
<time>2013-05-08T07:42:51.000Z</time>
</trkpt>
<trkpt lat="43.609995" lon="3.387682">
<ele>206</ele>
<time>2013-05-08T07:42:52.000Z</time>
</trkpt>
<trkpt lat="43.609788" lon="3.387592">
<ele>207.6</ele>
<time>2013-05-08T07:42:53.000Z</time>
</trkpt>
<trkpt lat="43.609591" lon="3.387495">
<ele>208.6</ele>
<time>2013-05-08T07:42:54.000Z</time>
</trkpt>
<trkpt lat="43.609418" lon="3.387374">
<ele>209.8</ele>
<time>2013-05-08T07:42:55.000Z</time>
</trkpt>
<trkpt lat="43.609286" lon="3.387216">
<ele>210.8</ele>
<time>2013-05-08T07:42:56.000Z</time>
</trkpt>
<trkpt lat="43.609192" lon="3.386974">
<ele>212.1</ele>
<time>2013-05-08T07:42:57.000Z</time>
</trkpt>
<trkpt lat="43.609116" lon="3.386717">
<ele>212.9</ele>
<time>2013-05-08T07:42:58.000Z</time>
</trkpt>
<trkpt lat="43.609114" lon="3.386422">
<ele>213.1</ele>
<time>2013-05-08T07:42:59.000Z</time>
</trkpt>
<trkpt lat="43.609146" lon="3.386108">
<ele>213.2</ele>
<time>2013-05-08T07:43:00.000Z</time>
</trkpt>
<trkpt lat="43.609224" lon="3.385754">
<ele>213.1</ele>
<time>2013-05-08T07:43:01.000Z</time>
</trkpt>
<trkpt lat="43.609323" lon="3.3854">
<ele>213.2</ele>
<time>2013-05-08T07:43:02.000Z</time>
</trkpt>
<trkpt lat="43.609438" lon="3.385087">
<ele>213.2</ele>
<time>2013-05-08T07:43:03.000Z</time>
</trkpt>
<trkpt lat="43.609557" lon="3.384789">
<ele>213.5</ele>
<time>2013-05-08T07:43:04.000Z</time>
</trkpt>
<trkpt lat="43.609656" lon="3.384502">
<ele>214.4</ele>
<time>2013-05-08T07:43:05.000Z</time>
</trkpt>
<trkpt lat="43.609733" lon="3.38423">
<ele>215.9</ele>
<time>2013-05-08T07:43:06.000Z</time>
</trkpt>
<trkpt lat="43.60977" lon="3.383922">
<ele>216.5</ele>
<time>2013-05-08T07:43:07.000Z</time>
</trkpt>
<trkpt lat="43.609752" lon="3.38362">
<ele>216.7</ele>
<time>2013-05-08T07:43:08.000Z</time>
</trkpt>
<trkpt lat="43.609686" lon="3.383348">
<ele>217.2</ele>
<time>2013-05-08T07:43:09.000Z</time>
</trkpt>
<trkpt lat="43.609503" lon="3.383131">
<ele>218.5</ele>
<time>2013-05-08T07:43:10.000Z</time>
</trkpt>
<trkpt lat="43.609295" lon="3.38291">
<ele>219.3</ele>
<time>2013-05-08T07:43:11.000Z</time>
</trkpt>
<trkpt lat="43.609078" lon="3.38267">
<ele>220.2</ele>
<time>2013-05-08T07:43:12.000Z</time>
</trkpt>
<trkpt lat="43.608858" lon="3.382417">
<ele>221.3</ele>
<time>2013-05-08T07:43:13.000Z</time>
</trkpt>
<trkpt lat="43.608676" lon="3.382157">
<ele>222.2</ele>
<time>2013-05-08T07:43:14.000Z</time>
</trkpt>
<trkpt lat="43.608466" lon="3.381924">
<ele>222.9</ele>
<time>2013-05-08T07:43:15.000Z</time>
</trkpt>
<trkpt lat="43.608354" lon="3.381633">
<ele>222.9</ele>
<time>2013-05-08T07:43:16.000Z</time>
</trkpt>
<trkpt lat="43.608335" lon="3.3813">
<ele>223.9</ele>
<time>2013-05-08T07:43:17.000Z</time>
</trkpt>
<trkpt lat="43.608357" lon="3.380966">
<ele>224.5</ele>
<time>2013-05-08T07:43:18.000Z</time>
</trkpt>
<trkpt lat="43.608377" lon="3.380636">
<ele>225.2</ele>
<time>2013-05-08T07:43:19.000Z</time>
</trkpt>
<trkpt lat="43.608348" lon="3.380335">
<ele>225.9</ele>
<time>2013-05-08T07:43:20.000Z</time>
</trkpt>
<trkpt lat="43.608282" lon="3.380043">
<ele>226.3</ele>
<time>2013-05-08T07:43:21.000Z</time>
</trkpt>
<trkpt lat="43.608184" lon="3.379789">
<ele>226.5</ele>
<time>2013-05-08T07:43:22.000Z</time>
</trkpt>
<trkpt lat="43.608116" lon="3.379586">
<ele>226.9</ele>
<time>2013-05-08T07:43:23.000Z</time>
</trkpt>
<trkpt lat="43.60797" lon="3.379417">
<ele>228.2</ele>
<time>2013-05-08T07:43:24.000Z</time>
</trkpt>
<trkpt lat="43.607701" lon="3.379305">
<ele>230.9</ele>
<time>2013-05-08T07:43:25.000Z</time>
</trkpt>
<trkpt lat="43.607462" lon="3.379141">
<ele>233.2</ele>
<time>2013-05-08T07:43:26.000Z</time>
</trkpt>
<trkpt lat="43.60723" lon="3.379">
<ele>234.5</ele>
<time>2013-05-08T07:43:27.000Z</time>
</trkpt>
<trkpt lat="43.607035" lon="3.378832">
<ele>235.9</ele>
<time>2013-05-08T07:43:28.000Z</time>
</trkpt>
<trkpt lat="43.606909" lon="3.378588">
<ele>237.7</ele>
<time>2013-05-08T07:43:29.000Z</time>
</trkpt>
<trkpt lat="43.606855" lon="3.378285">
<ele>238.9</ele>
<time>2013-05-08T07:43:30.000Z</time>
</trkpt>
<trkpt lat="43.606815" lon="3.377976">
<ele>240</ele>
<time>2013-05-08T07:43:31.000Z</time>
</trkpt>
<trkpt lat="43.60679" lon="3.377671">
<ele>241.1</ele>
<time>2013-05-08T07:43:32.000Z</time>
</trkpt>
<trkpt lat="43.606738" lon="3.37738">
<ele>241.6</ele>
<time>2013-05-08T07:43:33.000Z</time>
</trkpt>
<trkpt lat="43.606634" lon="3.377119">
<ele>241.8</ele>
<time>2013-05-08T07:43:34.000Z</time>
</trkpt>
<trkpt lat="43.606497" lon="3.376881">
<ele>241.9</ele>
<time>2013-05-08T07:43:35.000Z</time>
</trkpt>
<trkpt lat="43.606317" lon="3.376702">
<ele>242.2</ele>
<time>2013-05-08T07:43:36.000Z</time>
</trkpt>
<trkpt lat="43.606094" lon="3.376595">
<ele>244.1</ele>
<time>2013-05-08T07:43:37.000Z</time>
</trkpt>
<trkpt lat="43.605883" lon="3.376466">
<ele>245.7</ele>
<time>2013-05-08T07:43:38.000Z</time>
</trkpt>
<trkpt lat="43.605721" lon="3.376285">
<ele>247.3</ele>
<time>2013-05-08T07:43:39.000Z</time>
</trkpt>
<trkpt lat="43.605587" lon="3.376092">
<ele>249.8</ele>
<time>2013-05-08T07:43:40.000Z</time>
</trkpt>
<trkpt lat="43.605464" lon="3.375871">
<ele>252.2</ele>
<time>2013-05-08T07:43:41.000Z</time>
</trkpt>
<trkpt lat="43.605492" lon="3.37556">
<ele>253.8</ele>
<time>2013-05-08T07:43:42.000Z</time>
</trkpt>
<trkpt lat="43.605567" lon="3.37525">
<ele>255.2</ele>
<time>2013-05-08T07:43:43.000Z</time>
</trkpt>
<trkpt lat="43.605695" lon="3.374954">
<ele>255.5</ele>
<time>2013-05-08T07:43:44.000Z</time>
</trkpt>
<trkpt lat="43.605851" lon="3.374666">
<ele>255.5</ele>
<time>2013-05-08T07:43:45.000Z</time>
</trkpt>
<trkpt lat="43.606015" lon="3.374365">
<ele>255.2</ele>
<time>2013-05-08T07:43:46.000Z</time>
</trkpt>
<trkpt lat="43.606186" lon="3.374071">
<ele>254.8</ele>
<time>2013-05-08T07:43:47.000Z</time>
</trkpt>
<trkpt lat="43.60636" lon="3.373784">
<ele>254.5</ele>
<time>2013-05-08T07:43:48.000Z</time>
</trkpt>
<trkpt lat="43.606503" lon="3.37351">
<ele>254.2</ele>
<time>2013-05-08T07:43:49.000Z</time>
</trkpt>
<trkpt lat="43.606621" lon="3.373231">
<ele>254.1</ele>
<time>2013-05-08T07:43:50.000Z</time>
</trkpt>
<trkpt lat="43.606707" lon="3.372935">
<ele>253.9</ele>
<time>2013-05-08T07:43:51.000Z</time>
</trkpt>
<trkpt lat="43.606744" lon="3.372604">
<ele>254.3</ele>
<time>2013-05-08T07:43:52.000Z</time>
</trkpt>
<trkpt lat="43.606771" lon="3.372263">
<ele>254.6</ele>
<time>2013-05-08T07:43:53.000Z</time>
</trkpt>
<trkpt lat="43.606804" lon="3.371916">
<ele>254.8</ele>
<time>2013-05-08T07:43:54.000Z</time>
</trkpt>
<trkpt lat="43.606836" lon="3.37157">
<ele>256</ele>
<time>2013-05-08T07:43:55.000Z</time>
</trkpt>
<trkpt lat="43.606828" lon="3.371238">
<ele>257.1</ele>
<time>2013-05-08T07:43:56.000Z</time>
</trkpt>
<trkpt lat="43.606798" lon="3.370923">
<ele>257.5</ele>
<time>2013-05-08T07:43:57.000Z</time>
</trkpt>
<trkpt lat="43.606763" lon="3.370633">
<ele>258</ele>
<time>2013-05-08T07:43:58.000Z</time>
</trkpt>
<trkpt lat="43.606653" lon="3.37039">
<ele>258.6</ele>
<time>2013-05-08T07:43:59.000Z</time>
</trkpt>
<trkpt lat="43.606411" lon="3.370221">
<ele>260</ele>
<time>2013-05-08T07:44:00.000Z</time>
</trkpt>
<trkpt lat="43.606182" lon="3.370053">
<ele>261.1</ele>
<time>2013-05-08T07:44:01.000Z</time>
</trkpt>
<trkpt lat="43.605974" lon="3.369877">
<ele>262.5</ele>
<time>2013-05-08T07:44:02.000Z</time>
</trkpt>
<trkpt lat="43.605771" lon="3.369705">
<ele>263.7</ele>
<time>2013-05-08T07:44:03.000Z</time>
</trkpt>
<trkpt lat="43.605631" lon="3.369495">
<ele>265.4</ele>
<time>2013-05-08T07:44:04.000Z</time>
</trkpt>
<trkpt lat="43.605595" lon="3.369189">
<ele>267.3</ele>
<time>2013-05-08T07:44:05.000Z</time>
</trkpt>
<trkpt lat="43.605664" lon="3.368806">
<ele>269.2</ele>
<time>2013-05-08T07:44:06.000Z</time>
</trkpt>
<trkpt lat="43.605738" lon="3.368446">
<ele>270</ele>
<time>2013-05-08T07:44:07.000Z</time>
</trkpt>
<trkpt lat="43.605784" lon="3.368106">
<ele>269.8</ele>
<time>2013-05-08T07:44:08.000Z</time>
</trkpt>
<trkpt lat="43.605812" lon="3.367772">
<ele>269.7</ele>
<time>2013-05-08T07:44:09.000Z</time>
</trkpt>
<trkpt lat="43.60581" lon="3.36745">
<ele>269.1</ele>
<time>2013-05-08T07:44:10.000Z</time>
</trkpt>
<trkpt lat="43.605739" lon="3.367155">
<ele>268.9</ele>
<time>2013-05-08T07:44:11.000Z</time>
</trkpt>
<trkpt lat="43.605584" lon="3.366892">
<ele>268.9</ele>
<time>2013-05-08T07:44:12.000Z</time>
</trkpt>
<trkpt lat="43.605401" lon="3.366675">
<ele>269.4</ele>
<time>2013-05-08T07:44:13.000Z</time>
</trkpt>
<trkpt lat="43.605227" lon="3.366434">
<ele>270.5</ele>
<time>2013-05-08T07:44:14.000Z</time>
</trkpt>
<trkpt lat="43.605099" lon="3.366159">
<ele>272.1</ele>
<time>2013-05-08T07:44:15.000Z</time>
</trkpt>
<trkpt lat="43.605025" lon="3.365855">
<ele>273.7</ele>
<time>2013-05-08T07:44:16.000Z</time>
</trkpt>
<trkpt lat="43.605012" lon="3.365525">
<ele>275.3</ele>
<time>2013-05-08T07:44:17.000Z</time>
</trkpt>
<trkpt lat="43.605057" lon="3.365189">
<ele>277.5</ele>
<time>2013-05-08T07:44:18.000Z</time>
</trkpt>
<trkpt lat="43.605147" lon="3.364858">
<ele>279.7</ele>
<time>2013-05-08T07:44:19.000Z</time>
</trkpt>
<trkpt lat="43.60527" lon="3.364515">
<ele>281.5</ele>
<time>2013-05-08T07:44:20.000Z</time>
</trkpt>
<trkpt lat="43.605396" lon="3.364159">
<ele>282.8</ele>
<time>2013-05-08T07:44:21.000Z</time>
</trkpt>
<trkpt lat="43.605531" lon="3.363799">
<ele>284.1</ele>
<time>2013-05-08T07:44:22.000Z</time>
</trkpt>
<trkpt lat="43.605653" lon="3.363428">
<ele>285.1</ele>
<time>2013-05-08T07:44:23.000Z</time>
</trkpt>
<trkpt lat="43.605741" lon="3.363065">
<ele>285.9</ele>
<time>2013-05-08T07:44:24.000Z</time>
</trkpt>
<trkpt lat="43.605791" lon="3.362678">
<ele>286.7</ele>
<time>2013-05-08T07:44:25.000Z</time>
</trkpt>
<trkpt lat="43.605812" lon="3.362295">
<ele>288.1</ele>
<time>2013-05-08T07:44:26.000Z</time>
</trkpt>
<trkpt lat="43.605805" lon="3.361899">
<ele>289</ele>
<time>2013-05-08T07:44:27.000Z</time>
</trkpt>
<trkpt lat="43.605818" lon="3.361518">
<ele>289.8</ele>
<time>2013-05-08T07:44:28.000Z</time>
</trkpt>
<trkpt lat="43.605745" lon="3.361078">
<ele>291.1</ele>
<time>2013-05-08T07:44:29.000Z</time>
</trkpt>
<trkpt lat="43.605685" lon="3.360636">
<ele>292.3</ele>
<time>2013-05-08T07:44:30.000Z</time>
</trkpt>
<trkpt lat="43.60559" lon="3.360196">
<ele>293.5</ele>
<time>2013-05-08T07:44:31.000Z</time>
</trkpt>
<trkpt lat="43.605509" lon="3.35978">
<ele>294.9</ele>
<time>2013-05-08T07:44:32.000Z</time>
</trkpt>
<trkpt lat="43.605448" lon="3.359417">
<ele>296</ele>
<time>2013-05-08T07:44:33.000Z</time>
</trkpt>
<trkpt lat="43.6054" lon="3.359094">
<ele>296.9</ele>
<time>2013-05-08T07:44:34.000Z</time>
</trkpt>
<trkpt lat="43.605375" lon="3.358819">
<ele>297.6</ele>
<time>2013-05-08T07:44:35.000Z</time>
</trkpt>
<trkpt lat="43.605378" lon="3.358576">
<ele>297.5</ele>
<time>2013-05-08T07:44:36.000Z</time>
</trkpt>
<trkpt lat="43.605397" lon="3.358351">
<ele>297.4</ele>
<time>2013-05-08T07:44:37.000Z</time>
</trkpt>
<trkpt lat="43.60543" lon="3.358095">
<ele>297.5</ele>
<time>2013-05-08T07:44:38.000Z</time>
</trkpt>
<trkpt lat="43.60548" lon="3.357838">
<ele>297.8</ele>
<time>2013-05-08T07:44:39.000Z</time>
</trkpt>
<trkpt lat="43.60554" lon="3.357575">
<ele>298.1</ele>
<time>2013-05-08T07:44:40.000Z</time>
</trkpt>
<trkpt lat="43.605636" lon="3.357306">
<ele>298.7</ele>
<time>2013-05-08T07:44:41.000Z</time>
</trkpt>
<trkpt lat="43.605749" lon="3.357022">
<ele>299.6</ele>
<time>2013-05-08T07:44:42.000Z</time>
</trkpt>
<trkpt lat="43.605858" lon="3.356725">
<ele>300.1</ele>
<time>2013-05-08T07:44:43.000Z</time>
</trkpt>
<trkpt lat="43.60599" lon="3.356392">
<ele>300.8</ele>
<time>2013-05-08T07:44:44.000Z</time>
</trkpt>
<trkpt lat="43.606115" lon="3.356044">
<ele>302</ele>
<time>2013-05-08T07:44:45.000Z</time>
</trkpt>
<trkpt lat="43.606238" lon="3.355691">
<ele>303.1</ele>
<time>2013-05-08T07:44:46.000Z</time>
</trkpt>
<trkpt lat="43.606342" lon="3.355337">
<ele>304</ele>
<time>2013-05-08T07:44:47.000Z</time>
</trkpt>
<trkpt lat="43.606439" lon="3.354972">
<ele>304.6</ele>
<time>2013-05-08T07:44:48.000Z</time>
</trkpt>
<trkpt lat="43.60649" lon="3.354596">
<ele>305.5</ele>
<time>2013-05-08T07:44:49.000Z</time>
</trkpt>
<trkpt lat="43.606454" lon="3.354185">
<ele>306.3</ele>
<time>2013-05-08T07:44:50.000Z</time>
</trkpt>
<trkpt lat="43.60641" lon="3.353777">
<ele>306.6</ele>
<time>2013-05-08T07:44:51.000Z</time>
</trkpt>
<trkpt lat="43.606371" lon="3.353362">
<ele>306.4</ele>
<time>2013-05-08T07:44:52.000Z</time>
</trkpt>
<trkpt lat="43.606365" lon="3.352951">
<ele>306.4</ele>
<time>2013-05-08T07:44:53.000Z</time>
</trkpt>
<trkpt lat="43.606399" lon="3.35256">
<ele>306.6</ele>
<time>2013-05-08T07:44:54.000Z</time>
</trkpt>
<trkpt lat="43.606506" lon="3.352202">
<ele>307.2</ele>
<time>2013-05-08T07:44:55.000Z</time>
</trkpt>
<trkpt lat="43.606652" lon="3.351866">
<ele>308.4</ele>
<time>2013-05-08T07:44:56.000Z</time>
</trkpt>
<trkpt lat="43.60683" lon="3.351552">
<ele>309.8</ele>
<time>2013-05-08T07:44:57.000Z</time>
</trkpt>
<trkpt lat="43.607045" lon="3.351267">
<ele>311.3</ele>
<time>2013-05-08T07:44:58.000Z</time>
</trkpt>
<trkpt lat="43.607285" lon="3.351018">
<ele>313.1</ele>
<time>2013-05-08T07:44:59.000Z</time>
</trkpt>
<trkpt lat="43.607521" lon="3.350817">
<ele>315.1</ele>
<time>2013-05-08T07:45:00.000Z</time>
</trkpt>
<trkpt lat="43.607727" lon="3.350645">
<ele>317.2</ele>
<time>2013-05-08T07:45:01.000Z</time>
</trkpt>
<trkpt lat="43.607911" lon="3.350487">
<ele>318.9</ele>
<time>2013-05-08T07:45:02.000Z</time>
</trkpt>
<trkpt lat="43.608051" lon="3.35036">
<ele>320.5</ele>
<time>2013-05-08T07:45:03.000Z</time>
</trkpt>
<trkpt lat="43.608161" lon="3.350238">
<ele>321.6</ele>
<time>2013-05-08T07:45:04.000Z</time>
</trkpt>
<trkpt lat="43.608245" lon="3.350132">
<ele>322.4</ele>
<time>2013-05-08T07:45:05.000Z</time>
</trkpt>
<trkpt lat="43.608279" lon="3.350086">
<ele>323.6</ele>
<time>2013-05-08T07:45:06.000Z</time>
</trkpt>
<trkpt lat="43.608285" lon="3.350079">
<ele>323.8</ele>
<time>2013-05-08T07:45:21.000Z</time>
</trkpt>
<trkpt lat="43.608318" lon="3.350005">
<ele>324.4</ele>
<time>2013-05-08T07:45:22.000Z</time>
</trkpt>
<trkpt lat="43.608385" lon="3.349867">
<ele>324.4</ele>
<time>2013-05-08T07:45:23.000Z</time>
</trkpt>
<trkpt lat="43.60848" lon="3.34969">
<ele>324.5</ele>
<time>2013-05-08T07:45:24.000Z</time>
</trkpt>
<trkpt lat="43.608573" lon="3.349516">
<ele>324.7</ele>
<time>2013-05-08T07:45:25.000Z</time>
</trkpt>
<trkpt lat="43.608667" lon="3.34934">
<ele>324.9</ele>
<time>2013-05-08T07:45:26.000Z</time>
</trkpt>
<trkpt lat="43.608775" lon="3.349138">
<ele>324.7</ele>
<time>2013-05-08T07:45:27.000Z</time>
</trkpt>
<trkpt lat="43.60889" lon="3.348922">
<ele>324.7</ele>
<time>2013-05-08T07:45:28.000Z</time>
</trkpt>
<trkpt lat="43.609007" lon="3.348703">
<ele>324.8</ele>
<time>2013-05-08T07:45:29.000Z</time>
</trkpt>
<trkpt lat="43.609126" lon="3.348464">
<ele>325</ele>
<time>2013-05-08T07:45:30.000Z</time>
</trkpt>
<trkpt lat="43.609226" lon="3.348197">
<ele>325.2</ele>
<time>2013-05-08T07:45:31.000Z</time>
</trkpt>
<trkpt lat="43.60932" lon="3.347909">
<ele>325.4</ele>
<time>2013-05-08T07:45:32.000Z</time>
</trkpt>
<trkpt lat="43.609408" lon="3.347596">
<ele>325.7</ele>
<time>2013-05-08T07:45:33.000Z</time>
</trkpt>
<trkpt lat="43.60948" lon="3.347264">
<ele>326</ele>
<time>2013-05-08T07:45:34.000Z</time>
</trkpt>
<trkpt lat="43.609539" lon="3.346918">
<ele>326.3</ele>
<time>2013-05-08T07:45:35.000Z</time>
</trkpt>
<trkpt lat="43.609579" lon="3.346573">
<ele>326.4</ele>
<time>2013-05-08T07:45:36.000Z</time>
</trkpt>
<trkpt lat="43.609612" lon="3.346223">
<ele>326.4</ele>
<time>2013-05-08T07:45:37.000Z</time>
</trkpt>
<trkpt lat="43.609643" lon="3.345869">
<ele>326.4</ele>
<time>2013-05-08T07:45:38.000Z</time>
</trkpt>
<trkpt lat="43.609672" lon="3.345515">
<ele>326.1</ele>
<time>2013-05-08T07:45:39.000Z</time>
</trkpt>
<trkpt lat="43.609699" lon="3.345154">
<ele>325.7</ele>
<time>2013-05-08T07:45:40.000Z</time>
</trkpt>
<trkpt lat="43.609725" lon="3.344794">
<ele>325.3</ele>
<time>2013-05-08T07:45:41.000Z</time>
</trkpt>
<trkpt lat="43.609749" lon="3.344435">
<ele>324.8</ele>
<time>2013-05-08T07:45:42.000Z</time>
</trkpt>
<trkpt lat="43.609774" lon="3.344074">
<ele>324.4</ele>
<time>2013-05-08T07:45:43.000Z</time>
</trkpt>
<trkpt lat="43.609798" lon="3.343716">
<ele>324.3</ele>
<time>2013-05-08T07:45:44.000Z</time>
</trkpt>
<trkpt lat="43.609815" lon="3.343359">
<ele>324.3</ele>
<time>2013-05-08T07:45:45.000Z</time>
</trkpt>
<trkpt lat="43.609822" lon="3.343018">
<ele>324.8</ele>
<time>2013-05-08T07:45:46.000Z</time>
</trkpt>
<trkpt lat="43.609809" lon="3.342677">
<ele>325.5</ele>
<time>2013-05-08T07:45:47.000Z</time>
</trkpt>
<trkpt lat="43.60976" lon="3.34235">
<ele>326.5</ele>
<time>2013-05-08T07:45:48.000Z</time>
</trkpt>
<trkpt lat="43.609698" lon="3.34207">
<ele>327.5</ele>
<time>2013-05-08T07:45:49.000Z</time>
</trkpt>
<trkpt lat="43.609641" lon="3.341805">
<ele>328.3</ele>
<time>2013-05-08T07:45:50.000Z</time>
</trkpt>
<trkpt lat="43.609598" lon="3.341543">
<ele>328.7</ele>
<time>2013-05-08T07:45:51.000Z</time>
</trkpt>
<trkpt lat="43.609563" lon="3.341264">
<ele>330</ele>
<time>2013-05-08T07:45:52.000Z</time>
</trkpt>
<trkpt lat="43.609543" lon="3.340989">
<ele>331.7</ele>
<time>2013-05-08T07:45:53.000Z</time>
</trkpt>
<trkpt lat="43.609536" lon="3.340714">
<ele>333.1</ele>
<time>2013-05-08T07:45:54.000Z</time>
</trkpt>
<trkpt lat="43.609541" lon="3.340424">
<ele>333.9</ele>
<time>2013-05-08T07:45:55.000Z</time>
</trkpt>
<trkpt lat="43.60955" lon="3.340101">
<ele>334.2</ele>
<time>2013-05-08T07:45:56.000Z</time>
</trkpt>
<trkpt lat="43.609573" lon="3.339768">
<ele>334.4</ele>
<time>2013-05-08T07:45:57.000Z</time>
</trkpt>
<trkpt lat="43.609613" lon="3.339397">
<ele>334.8</ele>
<time>2013-05-08T07:45:58.000Z</time>
</trkpt>
<trkpt lat="43.609649" lon="3.339006">
<ele>335.1</ele>
<time>2013-05-08T07:45:59.000Z</time>
</trkpt>
<trkpt lat="43.609667" lon="3.338598">
<ele>335.6</ele>
<time>2013-05-08T07:46:00.000Z</time>
</trkpt>
<trkpt lat="43.609646" lon="3.338173">
<ele>336.2</ele>
<time>2013-05-08T07:46:01.000Z</time>
</trkpt>
<trkpt lat="43.60959" lon="3.337734">
<ele>336.6</ele>
<time>2013-05-08T07:46:02.000Z</time>
</trkpt>
<trkpt lat="43.609543" lon="3.337281">
<ele>337.2</ele>
<time>2013-05-08T07:46:03.000Z</time>
</trkpt>
<trkpt lat="43.609525" lon="3.336814">
<ele>337.7</ele>
<time>2013-05-08T07:46:04.000Z</time>
</trkpt>
<trkpt lat="43.609517" lon="3.336328">
<ele>338.4</ele>
<time>2013-05-08T07:46:05.000Z</time>
</trkpt>
<trkpt lat="43.609503" lon="3.335847">
<ele>339</ele>
<time>2013-05-08T07:46:06.000Z</time>
</trkpt>
<trkpt lat="43.609463" lon="3.335356">
<ele>339</ele>
<time>2013-05-08T07:46:07.000Z</time>
</trkpt>
<trkpt lat="43.609379" lon="3.334875">
<ele>339.2</ele>
<time>2013-05-08T07:46:08.000Z</time>
</trkpt>
<trkpt lat="43.609258" lon="3.334398">
<ele>339.1</ele>
<time>2013-05-08T07:46:09.000Z</time>
</trkpt>
<trkpt lat="43.609119" lon="3.333933">
<ele>338.7</ele>
<time>2013-05-08T07:46:10.000Z</time>
</trkpt>
<trkpt lat="43.608977" lon="3.333469">
<ele>338.1</ele>
<time>2013-05-08T07:46:11.000Z</time>
</trkpt>
<trkpt lat="43.608826" lon="3.332992">
<ele>337.2</ele>
<time>2013-05-08T07:46:12.000Z</time>
</trkpt>
<trkpt lat="43.608672" lon="3.332514">
<ele>336.5</ele>
<time>2013-05-08T07:46:13.000Z</time>
</trkpt>
<trkpt lat="43.608521" lon="3.332041">
<ele>335.8</ele>
<time>2013-05-08T07:46:14.000Z</time>
</trkpt>
<trkpt lat="43.608369" lon="3.331568">
<ele>335.4</ele>
<time>2013-05-08T07:46:15.000Z</time>
</trkpt>
<trkpt lat="43.608219" lon="3.331101">
<ele>335.2</ele>
<time>2013-05-08T07:46:16.000Z</time>
</trkpt>
<trkpt lat="43.608073" lon="3.330648">
<ele>334.9</ele>
<time>2013-05-08T07:46:17.000Z</time>
</trkpt>
<trkpt lat="43.607935" lon="3.33021">
<ele>334.2</ele>
<time>2013-05-08T07:46:18.000Z</time>
</trkpt>
<trkpt lat="43.607798" lon="3.329775">
<ele>333.7</ele>
<time>2013-05-08T07:46:19.000Z</time>
</trkpt>
<trkpt lat="43.607661" lon="3.329353">
<ele>333.4</ele>
<time>2013-05-08T07:46:20.000Z</time>
</trkpt>
<trkpt lat="43.607519" lon="3.328933">
<ele>333.3</ele>
<time>2013-05-08T07:46:21.000Z</time>
</trkpt>
<trkpt lat="43.607379" lon="3.328515">
<ele>333.1</ele>
<time>2013-05-08T07:46:22.000Z</time>
</trkpt>
<trkpt lat="43.607242" lon="3.328097">
<ele>333</ele>
<time>2013-05-08T07:46:23.000Z</time>
</trkpt>
<trkpt lat="43.607109" lon="3.327677">
<ele>333</ele>
<time>2013-05-08T07:46:24.000Z</time>
</trkpt>
<trkpt lat="43.607003" lon="3.327259">
<ele>332.9</ele>
<time>2013-05-08T07:46:25.000Z</time>
</trkpt>
<trkpt lat="43.606939" lon="3.326834">
<ele>332.6</ele>
<time>2013-05-08T07:46:26.000Z</time>
</trkpt>
<trkpt lat="43.6069" lon="3.326411">
<ele>332.6</ele>
<time>2013-05-08T07:46:27.000Z</time>
</trkpt>
<trkpt lat="43.606899" lon="3.32599">
<ele>332.3</ele>
<time>2013-05-08T07:46:28.000Z</time>
</trkpt>
<trkpt lat="43.606932" lon="3.325575">
<ele>332</ele>
<time>2013-05-08T07:46:29.000Z</time>
</trkpt>
<trkpt lat="43.607011" lon="3.325177">
<ele>332</ele>
<time>2013-05-08T07:46:30.000Z</time>
</trkpt>
<trkpt lat="43.607123" lon="3.324786">
<ele>331.9</ele>
<time>2013-05-08T07:46:31.000Z</time>
</trkpt>
<trkpt lat="43.607264" lon="3.324409">
<ele>331.7</ele>
<time>2013-05-08T07:46:32.000Z</time>
</trkpt>
<trkpt lat="43.607442" lon="3.324048">
<ele>331.3</ele>
<time>2013-05-08T07:46:33.000Z</time>
</trkpt>
<trkpt lat="43.607645" lon="3.323704">
<ele>331</ele>
<time>2013-05-08T07:46:34.000Z</time>
</trkpt>
<trkpt lat="43.607842" lon="3.323381">
<ele>330.6</ele>
<time>2013-05-08T07:46:35.000Z</time>
</trkpt>
<trkpt lat="43.608039" lon="3.323086">
<ele>330</ele>
<time>2013-05-08T07:46:36.000Z</time>
</trkpt>
<trkpt lat="43.608239" lon="3.322815">
<ele>329.5</ele>
<time>2013-05-08T07:46:37.000Z</time>
</trkpt>
<trkpt lat="43.608455" lon="3.322594">
<ele>329.8</ele>
<time>2013-05-08T07:46:38.000Z</time>
</trkpt>
<trkpt lat="43.608675" lon="3.322428">
<ele>332.9</ele>
<time>2013-05-08T07:46:39.000Z</time>
</trkpt>
<trkpt lat="43.608939" lon="3.322373">
<ele>335.3</ele>
<time>2013-05-08T07:46:40.000Z</time>
</trkpt>
<trkpt lat="43.609211" lon="3.322361">
<ele>336.8</ele>
<time>2013-05-08T07:46:41.000Z</time>
</trkpt>
<trkpt lat="43.609482" lon="3.322406">
<ele>337.7</ele>
<time>2013-05-08T07:46:42.000Z</time>
</trkpt>
<trkpt lat="43.609754" lon="3.322486">
<ele>337.1</ele>
<time>2013-05-08T07:46:43.000Z</time>
</trkpt>
<trkpt lat="43.610005" lon="3.322553">
<ele>336.1</ele>
<time>2013-05-08T07:46:44.000Z</time>
</trkpt>
<trkpt lat="43.610238" lon="3.322588">
<ele>335.2</ele>
<time>2013-05-08T07:46:45.000Z</time>
</trkpt>
<trkpt lat="43.61046" lon="3.322583">
<ele>335.1</ele>
<time>2013-05-08T07:46:46.000Z</time>
</trkpt>
<trkpt lat="43.610652" lon="3.322535">
<ele>335.3</ele>
<time>2013-05-08T07:46:47.000Z</time>
</trkpt>
<trkpt lat="43.610832" lon="3.322481">
<ele>335.4</ele>
<time>2013-05-08T07:46:48.000Z</time>
</trkpt>
<trkpt lat="43.610974" lon="3.322419">
<ele>335.2</ele>
<time>2013-05-08T07:46:49.000Z</time>
</trkpt>
<trkpt lat="43.611106" lon="3.322352">
<ele>334.9</ele>
<time>2013-05-08T07:46:50.000Z</time>
</trkpt>
<trkpt lat="43.611223" lon="3.322302">
<ele>334.7</ele>
<time>2013-05-08T07:46:51.000Z</time>
</trkpt>
<trkpt lat="43.611303" lon="3.322318">
<ele>334.2</ele>
<time>2013-05-08T07:46:52.000Z</time>
</trkpt>
<trkpt lat="43.61137" lon="3.322339">
<ele>333.7</ele>
<time>2013-05-08T07:46:53.000Z</time>
</trkpt>
<trkpt lat="43.611435" lon="3.322358">
<ele>333.4</ele>
<time>2013-05-08T07:46:54.000Z</time>
</trkpt>
<trkpt lat="43.611486" lon="3.322377">
<ele>333.1</ele>
<time>2013-05-08T07:46:55.000Z</time>
</trkpt>
<trkpt lat="43.611518" lon="3.322391">
<ele>333.2</ele>
<time>2013-05-08T07:47:25.000Z</time>
</trkpt>
<trkpt lat="43.611536" lon="3.322434">
<ele>333.2</ele>
<time>2013-05-08T07:47:26.000Z</time>
</trkpt>
<trkpt lat="43.611602" lon="3.322462">
<ele>333.6</ele>
<time>2013-05-08T07:47:27.000Z</time>
</trkpt>
<trkpt lat="43.611669" lon="3.322489">
<ele>333.7</ele>
<time>2013-05-08T07:47:28.000Z</time>
</trkpt>
<trkpt lat="43.611753" lon="3.322487">
<ele>334</ele>
<time>2013-05-08T07:47:29.000Z</time>
</trkpt>
<trkpt lat="43.611832" lon="3.322478">
<ele>334</ele>
<time>2013-05-08T07:47:30.000Z</time>
</trkpt>
<trkpt lat="43.61191" lon="3.322463">
<ele>333.7</ele>
<time>2013-05-08T07:47:31.000Z</time>
</trkpt>
<trkpt lat="43.611984" lon="3.322439">
<ele>333.8</ele>
<time>2013-05-08T07:47:32.000Z</time>
</trkpt>
<trkpt lat="43.612059" lon="3.322374">
<ele>334.1</ele>
<time>2013-05-08T07:47:33.000Z</time>
</trkpt>
<trkpt lat="43.612135" lon="3.322303">
<ele>334.4</ele>
<time>2013-05-08T07:47:34.000Z</time>
</trkpt>
<trkpt lat="43.612201" lon="3.322187">
<ele>334.4</ele>
<time>2013-05-08T07:47:35.000Z</time>
</trkpt>
<trkpt lat="43.612265" lon="3.32206">
<ele>334.1</ele>
<time>2013-05-08T07:47:36.000Z</time>
</trkpt>
<trkpt lat="43.612301" lon="3.321896">
<ele>333.8</ele>
<time>2013-05-08T07:47:37.000Z</time>
</trkpt>
<trkpt lat="43.612327" lon="3.321726">
<ele>333.4</ele>
<time>2013-05-08T07:47:38.000Z</time>
</trkpt>
<trkpt lat="43.612347" lon="3.321533">
<ele>332.9</ele>
<time>2013-05-08T07:47:39.000Z</time>
</trkpt>
<trkpt lat="43.612355" lon="3.321345">
<ele>332.5</ele>
<time>2013-05-08T07:47:40.000Z</time>
</trkpt>
<trkpt lat="43.612359" lon="3.321151">
<ele>332.4</ele>
<time>2013-05-08T07:47:41.000Z</time>
</trkpt>
<trkpt lat="43.612364" lon="3.320946">
<ele>332.1</ele>
<time>2013-05-08T07:47:42.000Z</time>
</trkpt>
<trkpt lat="43.612364" lon="3.320741">
<ele>331.7</ele>
<time>2013-05-08T07:47:43.000Z</time>
</trkpt>
<trkpt lat="43.612365" lon="3.320539">
<ele>331.7</ele>
<time>2013-05-08T07:47:44.000Z</time>
</trkpt>
<trkpt lat="43.612366" lon="3.320361">
<ele>331.2</ele>
<time>2013-05-08T07:47:45.000Z</time>
</trkpt>
<trkpt lat="43.612378" lon="3.320186">
<ele>330.3</ele>
<time>2013-05-08T07:47:46.000Z</time>
</trkpt>
<trkpt lat="43.612427" lon="3.320029">
<ele>329.1</ele>
<time>2013-05-08T07:47:47.000Z</time>
</trkpt>
<trkpt lat="43.61247" lon="3.319894">
<ele>327.6</ele>
<time>2013-05-08T07:47:48.000Z</time>
</trkpt>
<trkpt lat="43.612508" lon="3.319756">
<ele>326.2</ele>
<time>2013-05-08T07:47:49.000Z</time>
</trkpt>
<trkpt lat="43.612532" lon="3.319605">
<ele>324.7</ele>
<time>2013-05-08T07:47:50.000Z</time>
</trkpt>
<trkpt lat="43.612536" lon="3.319461">
<ele>323.4</ele>
<time>2013-05-08T07:47:51.000Z</time>
</trkpt>
<trkpt lat="43.612535" lon="3.319316">
<ele>322.2</ele>
<time>2013-05-08T07:47:52.000Z</time>
</trkpt>
<trkpt lat="43.612535" lon="3.31916">
<ele>320.7</ele>
<time>2013-05-08T07:47:53.000Z</time>
</trkpt>
<trkpt lat="43.612536" lon="3.319036">
<ele>319.9</ele>
<time>2013-05-08T07:47:54.000Z</time>
</trkpt>
<trkpt lat="43.612533" lon="3.318895">
<ele>319.6</ele>
<time>2013-05-08T07:47:55.000Z</time>
</trkpt>
<trkpt lat="43.612524" lon="3.318755">
<ele>318.9</ele>
<time>2013-05-08T07:47:56.000Z</time>
</trkpt>
<trkpt lat="43.612497" lon="3.31863">
<ele>317.8</ele>
<time>2013-05-08T07:47:57.000Z</time>
</trkpt>
<trkpt lat="43.612477" lon="3.31853">
<ele>316</ele>
<time>2013-05-08T07:47:58.000Z</time>
</trkpt>
<trkpt lat="43.612496" lon="3.318441">
<ele>314.4</ele>
<time>2013-05-08T07:47:59.000Z</time>
</trkpt>
<trkpt lat="43.612509" lon="3.318428">
<ele>313.3</ele>
<time>2013-05-08T07:48:00.000Z</time>
</trkpt>
<trkpt lat="43.612543" lon="3.318465">
<ele>312</ele>
<time>2013-05-08T07:48:01.000Z</time>
</trkpt>
<trkpt lat="43.612573" lon="3.318565">
<ele>311.5</ele>
<time>2013-05-08T07:48:02.000Z</time>
</trkpt>
<trkpt lat="43.612606" lon="3.318704">
<ele>311</ele>
<time>2013-05-08T07:48:03.000Z</time>
</trkpt>
<trkpt lat="43.612636" lon="3.318876">
<ele>310.2</ele>
<time>2013-05-08T07:48:04.000Z</time>
</trkpt>
<trkpt lat="43.61267" lon="3.319063">
<ele>309.6</ele>
<time>2013-05-08T07:48:05.000Z</time>
</trkpt>
<trkpt lat="43.612707" lon="3.319253">
<ele>308.9</ele>
<time>2013-05-08T07:48:06.000Z</time>
</trkpt>
<trkpt lat="43.612743" lon="3.319441">
<ele>307.9</ele>
<time>2013-05-08T07:48:07.000Z</time>
</trkpt>
<trkpt lat="43.612777" lon="3.319625">
<ele>307</ele>
<time>2013-05-08T07:48:08.000Z</time>
</trkpt>
<trkpt lat="43.612803" lon="3.319805">
<ele>305.6</ele>
<time>2013-05-08T07:48:09.000Z</time>
</trkpt>
<trkpt lat="43.612786" lon="3.319991">
<ele>304.2</ele>
<time>2013-05-08T07:48:10.000Z</time>
</trkpt>
<trkpt lat="43.61277" lon="3.320164">
<ele>302.8</ele>
<time>2013-05-08T07:48:11.000Z</time>
</trkpt>
<trkpt lat="43.612753" lon="3.320348">
<ele>301.7</ele>
<time>2013-05-08T07:48:12.000Z</time>
</trkpt>
<trkpt lat="43.612763" lon="3.320519">
<ele>300.7</ele>
<time>2013-05-08T07:48:13.000Z</time>
</trkpt>
<trkpt lat="43.612779" lon="3.320683">
<ele>299.8</ele>
<time>2013-05-08T07:48:14.000Z</time>
</trkpt>
<trkpt lat="43.612802" lon="3.320849">
<ele>299.1</ele>
<time>2013-05-08T07:48:15.000Z</time>
</trkpt>
<trkpt lat="43.612835" lon="3.321021">
<ele>298.1</ele>
<time>2013-05-08T07:48:16.000Z</time>
</trkpt>
<trkpt lat="43.612878" lon="3.32118">
<ele>297.1</ele>
<time>2013-05-08T07:48:17.000Z</time>
</trkpt>
<trkpt lat="43.612918" lon="3.321319">
<ele>296</ele>
<time>2013-05-08T07:48:18.000Z</time>
</trkpt>
<trkpt lat="43.612952" lon="3.321445">
<ele>295.2</ele>
<time>2013-05-08T07:48:19.000Z</time>
</trkpt>
<trkpt lat="43.612982" lon="3.321562">
<ele>294.3</ele>
<time>2013-05-08T07:48:20.000Z</time>
</trkpt>
<trkpt lat="43.613015" lon="3.321676">
<ele>293.7</ele>
<time>2013-05-08T07:48:21.000Z</time>
</trkpt>
<trkpt lat="43.613072" lon="3.321756">
<ele>293.9</ele>
<time>2013-05-08T07:48:22.000Z</time>
</trkpt>
<trkpt lat="43.613123" lon="3.321808">
<ele>294.3</ele>
<time>2013-05-08T07:48:23.000Z</time>
</trkpt>
<trkpt lat="43.613183" lon="3.321759">
<ele>294.2</ele>
<time>2013-05-08T07:48:24.000Z</time>
</trkpt>
<trkpt lat="43.613234" lon="3.321598">
<ele>294.1</ele>
<time>2013-05-08T07:48:25.000Z</time>
</trkpt>
<trkpt lat="43.613275" lon="3.321401">
<ele>294</ele>
<time>2013-05-08T07:48:26.000Z</time>
</trkpt>
<trkpt lat="43.613308" lon="3.321181">
<ele>294.1</ele>
<time>2013-05-08T07:48:27.000Z</time>
</trkpt>
<trkpt lat="43.613335" lon="3.320971">
<ele>294.1</ele>
<time>2013-05-08T07:48:28.000Z</time>
</trkpt>
<trkpt lat="43.613362" lon="3.320762">
<ele>294.3</ele>
<time>2013-05-08T07:48:29.000Z</time>
</trkpt>
<trkpt lat="43.613387" lon="3.32056">
<ele>294.5</ele>
<time>2013-05-08T07:48:30.000Z</time>
</trkpt>
<trkpt lat="43.613412" lon="3.320362">
<ele>294.5</ele>
<time>2013-05-08T07:48:31.000Z</time>
</trkpt>
<trkpt lat="43.613436" lon="3.320166">
<ele>293.9</ele>
<time>2013-05-08T07:48:32.000Z</time>
</trkpt>
<trkpt lat="43.613463" lon="3.319968">
<ele>292.7</ele>
<time>2013-05-08T07:48:33.000Z</time>
</trkpt>
<trkpt lat="43.613527" lon="3.319794">
<ele>291.3</ele>
<time>2013-05-08T07:48:34.000Z</time>
</trkpt>
<trkpt lat="43.613611" lon="3.319617">
<ele>289.7</ele>
<time>2013-05-08T07:48:35.000Z</time>
</trkpt>
<trkpt lat="43.613708" lon="3.319442">
<ele>288.5</ele>
<time>2013-05-08T07:48:36.000Z</time>
</trkpt>
<trkpt lat="43.613824" lon="3.319256">
<ele>287.3</ele>
<time>2013-05-08T07:48:37.000Z</time>
</trkpt>
<trkpt lat="43.613941" lon="3.319095">
<ele>286.3</ele>
<time>2013-05-08T07:48:38.000Z</time>
</trkpt>
<trkpt lat="43.614069" lon="3.31892">
<ele>285.3</ele>
<time>2013-05-08T07:48:39.000Z</time>
</trkpt>
<trkpt lat="43.614196" lon="3.318753">
<ele>284.1</ele>
<time>2013-05-08T07:48:40.000Z</time>
</trkpt>
<trkpt lat="43.614326" lon="3.318592">
<ele>283.3</ele>
<time>2013-05-08T07:48:41.000Z</time>
</trkpt>
<trkpt lat="43.614452" lon="3.318425">
<ele>282.4</ele>
<time>2013-05-08T07:48:42.000Z</time>
</trkpt>
<trkpt lat="43.614571" lon="3.318274">
<ele>281.6</ele>
<time>2013-05-08T07:48:43.000Z</time>
</trkpt>
<trkpt lat="43.614688" lon="3.318124">
<ele>280.8</ele>
<time>2013-05-08T07:48:44.000Z</time>
</trkpt>
<trkpt lat="43.6148" lon="3.317974">
<ele>280</ele>
<time>2013-05-08T07:48:45.000Z</time>
</trkpt>
<trkpt lat="43.614907" lon="3.317831">
<ele>279</ele>
<time>2013-05-08T07:48:46.000Z</time>
</trkpt>
<trkpt lat="43.615007" lon="3.317688">
<ele>277.6</ele>
<time>2013-05-08T07:48:47.000Z</time>
</trkpt>
<trkpt lat="43.615067" lon="3.317523">
<ele>276.1</ele>
<time>2013-05-08T07:48:48.000Z</time>
</trkpt>
<trkpt lat="43.615116" lon="3.317376">
<ele>274.8</ele>
<time>2013-05-08T07:48:49.000Z</time>
</trkpt>
<trkpt lat="43.615166" lon="3.317232">
<ele>273.9</ele>
<time>2013-05-08T07:48:50.000Z</time>
</trkpt>
<trkpt lat="43.61525" lon="3.317091">
<ele>273.2</ele>
<time>2013-05-08T07:48:51.000Z</time>
</trkpt>
<trkpt lat="43.61538" lon="3.316992">
<ele>272.7</ele>
<time>2013-05-08T07:48:52.000Z</time>
</trkpt>
<trkpt lat="43.615514" lon="3.316898">
<ele>272.5</ele>
<time>2013-05-08T07:48:53.000Z</time>
</trkpt>
<trkpt lat="43.615657" lon="3.316816">
<ele>272.1</ele>
<time>2013-05-08T07:48:54.000Z</time>
</trkpt>
<trkpt lat="43.615796" lon="3.316746">
<ele>271.7</ele>
<time>2013-05-08T07:48:55.000Z</time>
</trkpt>
<trkpt lat="43.61593" lon="3.316679">
<ele>271.4</ele>
<time>2013-05-08T07:48:56.000Z</time>
</trkpt>
<trkpt lat="43.616067" lon="3.316625">
<ele>270.8</ele>
<time>2013-05-08T07:48:57.000Z</time>
</trkpt>
<trkpt lat="43.616203" lon="3.316585">
<ele>270.2</ele>
<time>2013-05-08T07:48:58.000Z</time>
</trkpt>
<trkpt lat="43.616342" lon="3.316589">
<ele>269.8</ele>
<time>2013-05-08T07:48:59.000Z</time>
</trkpt>
<trkpt lat="43.616478" lon="3.316608">
<ele>269.1</ele>
<time>2013-05-08T07:49:00.000Z</time>
</trkpt>
<trkpt lat="43.616612" lon="3.316637">
<ele>268.8</ele>
<time>2013-05-08T07:49:01.000Z</time>
</trkpt>
<trkpt lat="43.616747" lon="3.316678">
<ele>268.8</ele>
<time>2013-05-08T07:49:02.000Z</time>
</trkpt>
<trkpt lat="43.616883" lon="3.31672">
<ele>268.9</ele>
<time>2013-05-08T07:49:03.000Z</time>
</trkpt>
<trkpt lat="43.617007" lon="3.316762">
<ele>268.5</ele>
<time>2013-05-08T07:49:04.000Z</time>
</trkpt>
<trkpt lat="43.617137" lon="3.316807">
<ele>267.9</ele>
<time>2013-05-08T07:49:05.000Z</time>
</trkpt>
<trkpt lat="43.617259" lon="3.316851">
<ele>266.8</ele>
<time>2013-05-08T07:49:06.000Z</time>
</trkpt>
<trkpt lat="43.617378" lon="3.316893">
<ele>265.6</ele>
<time>2013-05-08T07:49:07.000Z</time>
</trkpt>
<trkpt lat="43.617481" lon="3.316923">
<ele>264.5</ele>
<time>2013-05-08T07:49:08.000Z</time>
</trkpt>
<trkpt lat="43.617582" lon="3.316942">
<ele>263.3</ele>
<time>2013-05-08T07:49:09.000Z</time>
</trkpt>
<trkpt lat="43.61769" lon="3.316953">
<ele>262.2</ele>
<time>2013-05-08T07:49:10.000Z</time>
</trkpt>
<trkpt lat="43.617806" lon="3.316956">
<ele>261.3</ele>
<time>2013-05-08T07:49:11.000Z</time>
</trkpt>
<trkpt lat="43.617912" lon="3.31695">
<ele>259.9</ele>
<time>2013-05-08T07:49:12.000Z</time>
</trkpt>
<trkpt lat="43.61801" lon="3.316935">
<ele>259.2</ele>
<time>2013-05-08T07:49:13.000Z</time>
</trkpt>
<trkpt lat="43.618103" lon="3.31691">
<ele>258.7</ele>
<time>2013-05-08T07:49:14.000Z</time>
</trkpt>
<trkpt lat="43.618191" lon="3.316886">
<ele>258.5</ele>
<time>2013-05-08T07:49:15.000Z</time>
</trkpt>
<trkpt lat="43.61827" lon="3.31686">
<ele>258.3</ele>
<time>2013-05-08T07:49:16.000Z</time>
</trkpt>
<trkpt lat="43.618348" lon="3.31683">
<ele>258.4</ele>
<time>2013-05-08T07:49:17.000Z</time>
</trkpt>
<trkpt lat="43.618434" lon="3.316795">
<ele>257.8</ele>
<time>2013-05-08T07:49:18.000Z</time>
</trkpt>
<trkpt lat="43.618529" lon="3.316751">
<ele>257.6</ele>
<time>2013-05-08T07:49:19.000Z</time>
</trkpt>
<trkpt lat="43.618633" lon="3.316691">
<ele>257.1</ele>
<time>2013-05-08T07:49:20.000Z</time>
</trkpt>
<trkpt lat="43.61875" lon="3.316611">
<ele>257</ele>
<time>2013-05-08T07:49:21.000Z</time>
</trkpt>
<trkpt lat="43.61887" lon="3.316523">
<ele>256.6</ele>
<time>2013-05-08T07:49:22.000Z</time>
</trkpt>
<trkpt lat="43.618986" lon="3.31643">
<ele>256.2</ele>
<time>2013-05-08T07:49:23.000Z</time>
</trkpt>
<trkpt lat="43.619094" lon="3.316341">
<ele>255.6</ele>
<time>2013-05-08T07:49:24.000Z</time>
</trkpt>
<trkpt lat="43.619193" lon="3.316252">
<ele>254.9</ele>
<time>2013-05-08T07:49:25.000Z</time>
</trkpt>
<trkpt lat="43.619279" lon="3.316166">
<ele>254.4</ele>
<time>2013-05-08T07:49:26.000Z</time>
</trkpt>
<trkpt lat="43.619361" lon="3.316087">
<ele>254.1</ele>
<time>2013-05-08T07:49:27.000Z</time>
</trkpt>
<trkpt lat="43.619447" lon="3.316058">
<ele>254.4</ele>
<time>2013-05-08T07:49:28.000Z</time>
</trkpt>
<trkpt lat="43.619523" lon="3.316066">
<ele>255</ele>
<time>2013-05-08T07:49:29.000Z</time>
</trkpt>
<trkpt lat="43.619593" lon="3.316076">
<ele>255.2</ele>
<time>2013-05-08T07:49:30.000Z</time>
</trkpt>
<trkpt lat="43.619662" lon="3.316083">
<ele>255.5</ele>
<time>2013-05-08T07:49:31.000Z</time>
</trkpt>
<trkpt lat="43.619727" lon="3.316098">
<ele>255.4</ele>
<time>2013-05-08T07:49:32.000Z</time>
</trkpt>
<trkpt lat="43.619774" lon="3.316144">
<ele>255.2</ele>
<time>2013-05-08T07:49:33.000Z</time>
</trkpt>
<trkpt lat="43.619809" lon="3.316186">
<ele>254.3</ele>
<time>2013-05-08T07:49:34.000Z</time>
</trkpt>
<trkpt lat="43.619859" lon="3.316227">
<ele>253.8</ele>
<time>2013-05-08T07:49:35.000Z</time>
</trkpt>
<trkpt lat="43.619906" lon="3.316245">
<ele>253.3</ele>
<time>2013-05-08T07:49:36.000Z</time>
</trkpt>
<trkpt lat="43.61996" lon="3.316221">
<ele>252.8</ele>
<time>2013-05-08T07:49:37.000Z</time>
</trkpt>
<trkpt lat="43.620018" lon="3.316161">
<ele>252.2</ele>
<time>2013-05-08T07:49:38.000Z</time>
</trkpt>
<trkpt lat="43.620074" lon="3.316065">
<ele>251.9</ele>
<time>2013-05-08T07:49:39.000Z</time>
</trkpt>
<trkpt lat="43.620132" lon="3.315958">
<ele>251.4</ele>
<time>2013-05-08T07:49:40.000Z</time>
</trkpt>
<trkpt lat="43.620193" lon="3.315842">
<ele>250.6</ele>
<time>2013-05-08T07:49:41.000Z</time>
</trkpt>
<trkpt lat="43.62025" lon="3.315745">
<ele>250</ele>
<time>2013-05-08T07:49:42.000Z</time>
</trkpt>
<trkpt lat="43.620307" lon="3.315654">
<ele>249.4</ele>
<time>2013-05-08T07:49:43.000Z</time>
</trkpt>
<trkpt lat="43.620377" lon="3.315585">
<ele>249</ele>
<time>2013-05-08T07:49:44.000Z</time>
</trkpt>
<trkpt lat="43.620448" lon="3.315528">
<ele>248.7</ele>
<time>2013-05-08T07:49:45.000Z</time>
</trkpt>
<trkpt lat="43.620523" lon="3.315506">
<ele>248.6</ele>
<time>2013-05-08T07:49:46.000Z</time>
</trkpt>
<trkpt lat="43.6206" lon="3.315506">
<ele>248.9</ele>
<time>2013-05-08T07:49:47.000Z</time>
</trkpt>
<trkpt lat="43.620677" lon="3.31553">
<ele>249</ele>
<time>2013-05-08T07:49:48.000Z</time>
</trkpt>
<trkpt lat="43.620751" lon="3.315555">
<ele>249</ele>
<time>2013-05-08T07:49:49.000Z</time>
</trkpt>
<trkpt lat="43.620831" lon="3.315584">
<ele>248.3</ele>
<time>2013-05-08T07:49:50.000Z</time>
</trkpt>
<trkpt lat="43.620914" lon="3.31561">
<ele>247.4</ele>
<time>2013-05-08T07:49:51.000Z</time>
</trkpt>
<trkpt lat="43.621009" lon="3.315589">
<ele>246.7</ele>
<time>2013-05-08T07:49:52.000Z</time>
</trkpt>
<trkpt lat="43.621125" lon="3.315559">
<ele>246</ele>
<time>2013-05-08T07:49:53.000Z</time>
</trkpt>
<trkpt lat="43.621273" lon="3.315515">
<ele>244.9</ele>
<time>2013-05-08T07:49:54.000Z</time>
</trkpt>
<trkpt lat="43.621425" lon="3.315479">
<ele>243.9</ele>
<time>2013-05-08T07:49:55.000Z</time>
</trkpt>
<trkpt lat="43.621592" lon="3.31546">
<ele>243</ele>
<time>2013-05-08T07:49:56.000Z</time>
</trkpt>
<trkpt lat="43.621758" lon="3.315458">
<ele>242.1</ele>
<time>2013-05-08T07:49:57.000Z</time>
</trkpt>
<trkpt lat="43.621927" lon="3.315467">
<ele>241.5</ele>
<time>2013-05-08T07:49:58.000Z</time>
</trkpt>
<trkpt lat="43.622099" lon="3.315481">
<ele>240.8</ele>
<time>2013-05-08T07:49:59.000Z</time>
</trkpt>
<trkpt lat="43.622271" lon="3.315495">
<ele>240.2</ele>
<time>2013-05-08T07:50:00.000Z</time>
</trkpt>
<trkpt lat="43.622437" lon="3.315513">
<ele>239.7</ele>
<time>2013-05-08T07:50:01.000Z</time>
</trkpt>
<trkpt lat="43.622608" lon="3.31553">
<ele>239.1</ele>
<time>2013-05-08T07:50:02.000Z</time>
</trkpt>
<trkpt lat="43.622774" lon="3.315553">
<ele>238.3</ele>
<time>2013-05-08T07:50:03.000Z</time>
</trkpt>
<trkpt lat="43.622929" lon="3.315581">
<ele>237.3</ele>
<time>2013-05-08T07:50:04.000Z</time>
</trkpt>
<trkpt lat="43.623079" lon="3.315612">
<ele>236.5</ele>
<time>2013-05-08T07:50:05.000Z</time>
</trkpt>
<trkpt lat="43.623237" lon="3.315642">
<ele>235.5</ele>
<time>2013-05-08T07:50:06.000Z</time>
</trkpt>
<trkpt lat="43.623399" lon="3.315678">
<ele>234.4</ele>
<time>2013-05-08T07:50:07.000Z</time>
</trkpt>
<trkpt lat="43.623563" lon="3.315714">
<ele>233.2</ele>
<time>2013-05-08T07:50:08.000Z</time>
</trkpt>
<trkpt lat="43.623727" lon="3.315745">
<ele>232.1</ele>
<time>2013-05-08T07:50:09.000Z</time>
</trkpt>
<trkpt lat="43.623908" lon="3.315774">
<ele>230.8</ele>
<time>2013-05-08T07:50:10.000Z</time>
</trkpt>
<trkpt lat="43.624098" lon="3.315805">
<ele>229.7</ele>
<time>2013-05-08T07:50:11.000Z</time>
</trkpt>
<trkpt lat="43.624285" lon="3.315836">
<ele>228.9</ele>
<time>2013-05-08T07:50:12.000Z</time>
</trkpt>
<trkpt lat="43.624472" lon="3.315863">
<ele>228.2</ele>
<time>2013-05-08T07:50:13.000Z</time>
</trkpt>
<trkpt lat="43.624658" lon="3.315877">
<ele>228</ele>
<time>2013-05-08T07:50:14.000Z</time>
</trkpt>
<trkpt lat="43.624847" lon="3.315904">
<ele>227.1</ele>
<time>2013-05-08T07:50:15.000Z</time>
</trkpt>
<trkpt lat="43.625036" lon="3.315835">
<ele>226.5</ele>
<time>2013-05-08T07:50:16.000Z</time>
</trkpt>
<trkpt lat="43.625223" lon="3.315741">
<ele>225.3</ele>
<time>2013-05-08T07:50:17.000Z</time>
</trkpt>
<trkpt lat="43.625418" lon="3.315633">
<ele>224.3</ele>
<time>2013-05-08T07:50:18.000Z</time>
</trkpt>
<trkpt lat="43.62562" lon="3.315522">
<ele>223.4</ele>
<time>2013-05-08T07:50:19.000Z</time>
</trkpt>
<trkpt lat="43.625828" lon="3.315395">
<ele>222.9</ele>
<time>2013-05-08T07:50:20.000Z</time>
</trkpt>
<trkpt lat="43.626028" lon="3.315275">
<ele>222.7</ele>
<time>2013-05-08T07:50:21.000Z</time>
</trkpt>
<trkpt lat="43.626228" lon="3.315162">
<ele>222.6</ele>
<time>2013-05-08T07:50:22.000Z</time>
</trkpt>
<trkpt lat="43.626437" lon="3.315049">
<ele>222.5</ele>
<time>2013-05-08T07:50:23.000Z</time>
</trkpt>
<trkpt lat="43.62664" lon="3.314941">
<ele>222.2</ele>
<time>2013-05-08T07:50:24.000Z</time>
</trkpt>
<trkpt lat="43.626844" lon="3.314839">
<ele>221.7</ele>
<time>2013-05-08T07:50:25.000Z</time>
</trkpt>
<trkpt lat="43.627042" lon="3.314734">
<ele>221.2</ele>
<time>2013-05-08T07:50:26.000Z</time>
</trkpt>
<trkpt lat="43.627227" lon="3.314634">
<ele>220.7</ele>
<time>2013-05-08T07:50:27.000Z</time>
</trkpt>
<trkpt lat="43.627406" lon="3.31453">
<ele>220.3</ele>
<time>2013-05-08T07:50:28.000Z</time>
</trkpt>
<trkpt lat="43.627584" lon="3.314432">
<ele>219.8</ele>
<time>2013-05-08T07:50:29.000Z</time>
</trkpt>
<trkpt lat="43.627759" lon="3.314335">
<ele>219.4</ele>
<time>2013-05-08T07:50:30.000Z</time>
</trkpt>
<trkpt lat="43.627938" lon="3.314234">
<ele>219.2</ele>
<time>2013-05-08T07:50:31.000Z</time>
</trkpt>
<trkpt lat="43.628119" lon="3.314136">
<ele>218.9</ele>
<time>2013-05-08T07:50:32.000Z</time>
</trkpt>
<trkpt lat="43.628303" lon="3.314043">
<ele>218.4</ele>
<time>2013-05-08T07:50:33.000Z</time>
</trkpt>
<trkpt lat="43.628487" lon="3.313948">
<ele>217.9</ele>
<time>2013-05-08T07:50:34.000Z</time>
</trkpt>
<trkpt lat="43.628668" lon="3.313854">
<ele>217.4</ele>
<time>2013-05-08T07:50:35.000Z</time>
</trkpt>
<trkpt lat="43.628847" lon="3.313758">
<ele>216.7</ele>
<time>2013-05-08T07:50:36.000Z</time>
</trkpt>
<trkpt lat="43.629024" lon="3.313661">
<ele>216.1</ele>
<time>2013-05-08T07:50:37.000Z</time>
</trkpt>
<trkpt lat="43.629203" lon="3.313566">
<ele>215.4</ele>
<time>2013-05-08T07:50:38.000Z</time>
</trkpt>
<trkpt lat="43.629382" lon="3.31347">
<ele>214.8</ele>
<time>2013-05-08T07:50:39.000Z</time>
</trkpt>
<trkpt lat="43.629563" lon="3.31338">
<ele>214.1</ele>
<time>2013-05-08T07:50:40.000Z</time>
</trkpt>
<trkpt lat="43.629736" lon="3.313288">
<ele>213.6</ele>
<time>2013-05-08T07:50:41.000Z</time>
</trkpt>
<trkpt lat="43.629904" lon="3.313168">
<ele>212.8</ele>
<time>2013-05-08T07:50:42.000Z</time>
</trkpt>
<trkpt lat="43.630071" lon="3.313018">
<ele>212.2</ele>
<time>2013-05-08T07:50:43.000Z</time>
</trkpt>
<trkpt lat="43.630219" lon="3.312861">
<ele>211.9</ele>
<time>2013-05-08T07:50:44.000Z</time>
</trkpt>
<trkpt lat="43.630369" lon="3.312698">
<ele>211.9</ele>
<time>2013-05-08T07:50:45.000Z</time>
</trkpt>
<trkpt lat="43.630524" lon="3.312528">
<ele>211.7</ele>
<time>2013-05-08T07:50:46.000Z</time>
</trkpt>
<trkpt lat="43.630666" lon="3.312361">
<ele>211.9</ele>
<time>2013-05-08T07:50:47.000Z</time>
</trkpt>
<trkpt lat="43.630796" lon="3.312202">
<ele>212.1</ele>
<time>2013-05-08T07:50:48.000Z</time>
</trkpt>
<trkpt lat="43.630931" lon="3.312054">
<ele>212.4</ele>
<time>2013-05-08T07:50:49.000Z</time>
</trkpt>
<trkpt lat="43.631064" lon="3.311917">
<ele>212.6</ele>
<time>2013-05-08T07:50:50.000Z</time>
</trkpt>
<trkpt lat="43.631196" lon="3.311794">
<ele>212.7</ele>
<time>2013-05-08T07:50:51.000Z</time>
</trkpt>
<trkpt lat="43.631337" lon="3.311679">
<ele>212.4</ele>
<time>2013-05-08T07:50:52.000Z</time>
</trkpt>
<trkpt lat="43.631496" lon="3.311596">
<ele>211.4</ele>
<time>2013-05-08T07:50:53.000Z</time>
</trkpt>
<trkpt lat="43.63165" lon="3.311538">
<ele>210.6</ele>
<time>2013-05-08T07:50:54.000Z</time>
</trkpt>
<trkpt lat="43.631822" lon="3.311539">
<ele>209.5</ele>
<time>2013-05-08T07:50:55.000Z</time>
</trkpt>
<trkpt lat="43.631997" lon="3.31154">
<ele>208.3</ele>
<time>2013-05-08T07:50:56.000Z</time>
</trkpt>
<trkpt lat="43.632169" lon="3.311542">
<ele>207.4</ele>
<time>2013-05-08T07:50:57.000Z</time>
</trkpt>
<trkpt lat="43.632343" lon="3.311545">
<ele>206.6</ele>
<time>2013-05-08T07:50:58.000Z</time>
</trkpt>
<trkpt lat="43.632528" lon="3.311534">
<ele>205.6</ele>
<time>2013-05-08T07:50:59.000Z</time>
</trkpt>
<trkpt lat="43.632715" lon="3.311521">
<ele>204.8</ele>
<time>2013-05-08T07:51:00.000Z</time>
</trkpt>
<trkpt lat="43.632902" lon="3.3115">
<ele>204.2</ele>
<time>2013-05-08T07:51:01.000Z</time>
</trkpt>
<trkpt lat="43.633089" lon="3.311466">
<ele>203.9</ele>
<time>2013-05-08T07:51:02.000Z</time>
</trkpt>
<trkpt lat="43.633282" lon="3.31143">
<ele>203.6</ele>
<time>2013-05-08T07:51:03.000Z</time>
</trkpt>
<trkpt lat="43.633479" lon="3.311396">
<ele>203.2</ele>
<time>2013-05-08T07:51:04.000Z</time>
</trkpt>
<trkpt lat="43.633679" lon="3.311349">
<ele>202.9</ele>
<time>2013-05-08T07:51:05.000Z</time>
</trkpt>
<trkpt lat="43.633879" lon="3.311291">
<ele>202.6</ele>
<time>2013-05-08T07:51:06.000Z</time>
</trkpt>
<trkpt lat="43.634083" lon="3.311212">
<ele>202.4</ele>
<time>2013-05-08T07:51:07.000Z</time>
</trkpt>
<trkpt lat="43.634279" lon="3.311121">
<ele>202.1</ele>
<time>2013-05-08T07:51:08.000Z</time>
</trkpt>
<trkpt lat="43.634471" lon="3.311017">
<ele>201.8</ele>
<time>2013-05-08T07:51:09.000Z</time>
</trkpt>
<trkpt lat="43.634659" lon="3.310907">
<ele>201.7</ele>
<time>2013-05-08T07:51:10.000Z</time>
</trkpt>
<trkpt lat="43.634848" lon="3.310801">
<ele>201.6</ele>
<time>2013-05-08T07:51:11.000Z</time>
</trkpt>
<trkpt lat="43.635038" lon="3.310691">
<ele>201.4</ele>
<time>2013-05-08T07:51:12.000Z</time>
</trkpt>
<trkpt lat="43.635221" lon="3.310588">
<ele>201.3</ele>
<time>2013-05-08T07:51:13.000Z</time>
</trkpt>
<trkpt lat="43.635409" lon="3.310483">
<ele>201.3</ele>
<time>2013-05-08T07:51:14.000Z</time>
</trkpt>
<trkpt lat="43.635591" lon="3.310377">
<ele>201.5</ele>
<time>2013-05-08T07:51:15.000Z</time>
</trkpt>
<trkpt lat="43.635775" lon="3.31025">
<ele>201.7</ele>
<time>2013-05-08T07:51:16.000Z</time>
</trkpt>
<trkpt lat="43.635961" lon="3.310111">
<ele>201.9</ele>
<time>2013-05-08T07:51:17.000Z</time>
</trkpt>
<trkpt lat="43.636149" lon="3.309959">
<ele>202</ele>
<time>2013-05-08T07:51:18.000Z</time>
</trkpt>
<trkpt lat="43.63635" lon="3.3098">
<ele>202.5</ele>
<time>2013-05-08T07:51:19.000Z</time>
</trkpt>
<trkpt lat="43.636546" lon="3.309647">
<ele>203</ele>
<time>2013-05-08T07:51:20.000Z</time>
</trkpt>
<trkpt lat="43.636737" lon="3.309499">
<ele>203.6</ele>
<time>2013-05-08T07:51:21.000Z</time>
</trkpt>
<trkpt lat="43.636923" lon="3.309354">
<ele>204.3</ele>
<time>2013-05-08T07:51:22.000Z</time>
</trkpt>
<trkpt lat="43.637105" lon="3.309211">
<ele>205.3</ele>
<time>2013-05-08T07:51:23.000Z</time>
</trkpt>
<trkpt lat="43.637287" lon="3.309067">
<ele>206.3</ele>
<time>2013-05-08T07:51:24.000Z</time>
</trkpt>
<trkpt lat="43.637467" lon="3.308925">
<ele>207.2</ele>
<time>2013-05-08T07:51:25.000Z</time>
</trkpt>
<trkpt lat="43.637643" lon="3.308787">
<ele>207.8</ele>
<time>2013-05-08T07:51:26.000Z</time>
</trkpt>
<trkpt lat="43.637816" lon="3.30865">
<ele>208.4</ele>
<time>2013-05-08T07:51:27.000Z</time>
</trkpt>
<trkpt lat="43.637986" lon="3.30851">
<ele>208.6</ele>
<time>2013-05-08T07:51:28.000Z</time>
</trkpt>
<trkpt lat="43.638155" lon="3.308372">
<ele>208.7</ele>
<time>2013-05-08T07:51:29.000Z</time>
</trkpt>
<trkpt lat="43.638322" lon="3.308241">
<ele>208.7</ele>
<time>2013-05-08T07:51:30.000Z</time>
</trkpt>
<trkpt lat="43.638476" lon="3.308116">
<ele>208.8</ele>
<time>2013-05-08T07:51:31.000Z</time>
</trkpt>
<trkpt lat="43.638621" lon="3.307991">
<ele>209.1</ele>
<time>2013-05-08T07:51:32.000Z</time>
</trkpt>
<trkpt lat="43.638749" lon="3.307877">
<ele>209.8</ele>
<time>2013-05-08T07:51:33.000Z</time>
</trkpt>
<trkpt lat="43.63888" lon="3.307768">
<ele>209.8</ele>
<time>2013-05-08T07:51:34.000Z</time>
</trkpt>
<trkpt lat="43.638996" lon="3.307681">
<ele>209.9</ele>
<time>2013-05-08T07:51:35.000Z</time>
</trkpt>
<trkpt lat="43.63909" lon="3.307707">
<ele>210.3</ele>
<time>2013-05-08T07:51:36.000Z</time>
</trkpt>
<trkpt lat="43.639189" lon="3.307775">
<ele>211</ele>
<time>2013-05-08T07:51:37.000Z</time>
</trkpt>
<trkpt lat="43.63929" lon="3.307851">
<ele>211.8</ele>
<time>2013-05-08T07:51:38.000Z</time>
</trkpt>
<trkpt lat="43.639403" lon="3.307922">
<ele>212.8</ele>
<time>2013-05-08T07:51:39.000Z</time>
</trkpt>
<trkpt lat="43.639534" lon="3.307982">
<ele>213.6</ele>
<time>2013-05-08T07:51:40.000Z</time>
</trkpt>
<trkpt lat="43.63968" lon="3.308036">
<ele>214.1</ele>
<time>2013-05-08T07:51:41.000Z</time>
</trkpt>
<trkpt lat="43.639838" lon="3.30808">
<ele>214.8</ele>
<time>2013-05-08T07:51:42.000Z</time>
</trkpt>
<trkpt lat="43.640011" lon="3.308122">
<ele>215.5</ele>
<time>2013-05-08T07:51:43.000Z</time>
</trkpt>
<trkpt lat="43.640187" lon="3.308162">
<ele>216.3</ele>
<time>2013-05-08T07:51:44.000Z</time>
</trkpt>
<trkpt lat="43.640364" lon="3.308195">
<ele>217.1</ele>
<time>2013-05-08T07:51:45.000Z</time>
</trkpt>
<trkpt lat="43.640535" lon="3.308229">
<ele>217.9</ele>
<time>2013-05-08T07:51:46.000Z</time>
</trkpt>
<trkpt lat="43.640715" lon="3.308262">
<ele>218.7</ele>
<time>2013-05-08T07:51:47.000Z</time>
</trkpt>
<trkpt lat="43.640895" lon="3.308299">
<ele>219.5</ele>
<time>2013-05-08T07:51:48.000Z</time>
</trkpt>
<trkpt lat="43.64108" lon="3.308333">
<ele>220.4</ele>
<time>2013-05-08T07:51:49.000Z</time>
</trkpt>
<trkpt lat="43.641269" lon="3.308364">
<ele>221.5</ele>
<time>2013-05-08T07:51:50.000Z</time>
</trkpt>
<trkpt lat="43.641452" lon="3.308395">
<ele>222.7</ele>
<time>2013-05-08T07:51:51.000Z</time>
</trkpt>
<trkpt lat="43.641617" lon="3.308422">
<ele>224</ele>
<time>2013-05-08T07:51:52.000Z</time>
</trkpt>
<trkpt lat="43.64177" lon="3.308443">
<ele>225</ele>
<time>2013-05-08T07:51:53.000Z</time>
</trkpt>
<trkpt lat="43.641902" lon="3.308392">
<ele>226</ele>
<time>2013-05-08T07:51:54.000Z</time>
</trkpt>
<trkpt lat="43.642012" lon="3.308303">
<ele>226.5</ele>
<time>2013-05-08T07:51:55.000Z</time>
</trkpt>
<trkpt lat="43.642075" lon="3.308178">
<ele>226.5</ele>
<time>2013-05-08T07:51:56.000Z</time>
</trkpt>
<trkpt lat="43.642118" lon="3.308027">
<ele>226.3</ele>
<time>2013-05-08T07:51:57.000Z</time>
</trkpt>
<trkpt lat="43.642158" lon="3.307854">
<ele>226.2</ele>
<time>2013-05-08T07:51:58.000Z</time>
</trkpt>
<trkpt lat="43.642199" lon="3.307666">
<ele>226.1</ele>
<time>2013-05-08T07:51:59.000Z</time>
</trkpt>
<trkpt lat="43.642247" lon="3.307451">
<ele>225.7</ele>
<time>2013-05-08T07:52:00.000Z</time>
</trkpt>
<trkpt lat="43.642309" lon="3.30721">
<ele>225.6</ele>
<time>2013-05-08T07:52:01.000Z</time>
</trkpt>
<trkpt lat="43.642387" lon="3.306973">
<ele>225.6</ele>
<time>2013-05-08T07:52:02.000Z</time>
</trkpt>
<trkpt lat="43.642477" lon="3.306746">
<ele>225.9</ele>
<time>2013-05-08T07:52:03.000Z</time>
</trkpt>
<trkpt lat="43.642582" lon="3.306511">
<ele>226.1</ele>
<time>2013-05-08T07:52:04.000Z</time>
</trkpt>
<trkpt lat="43.642707" lon="3.306276">
<ele>225.9</ele>
<time>2013-05-08T07:52:05.000Z</time>
</trkpt>
<trkpt lat="43.642832" lon="3.30605">
<ele>225.8</ele>
<time>2013-05-08T07:52:06.000Z</time>
</trkpt>
<trkpt lat="43.642964" lon="3.30581">
<ele>225.4</ele>
<time>2013-05-08T07:52:07.000Z</time>
</trkpt>
<trkpt lat="43.643089" lon="3.30558">
<ele>225</ele>
<time>2013-05-08T07:52:08.000Z</time>
</trkpt>
<trkpt lat="43.643214" lon="3.305354">
<ele>224.5</ele>
<time>2013-05-08T07:52:09.000Z</time>
</trkpt>
<trkpt lat="43.643332" lon="3.305145">
<ele>224.1</ele>
<time>2013-05-08T07:52:10.000Z</time>
</trkpt>
<trkpt lat="43.64344" lon="3.304947">
<ele>223.8</ele>
<time>2013-05-08T07:52:11.000Z</time>
</trkpt>
<trkpt lat="43.643544" lon="3.304764">
<ele>223.4</ele>
<time>2013-05-08T07:52:12.000Z</time>
</trkpt>
<trkpt lat="43.64365" lon="3.3046">
<ele>223.4</ele>
<time>2013-05-08T07:52:13.000Z</time>
</trkpt>
<trkpt lat="43.643781" lon="3.304482">
<ele>223.6</ele>
<time>2013-05-08T07:52:14.000Z</time>
</trkpt>
<trkpt lat="43.643915" lon="3.304384">
<ele>224</ele>
<time>2013-05-08T07:52:15.000Z</time>
</trkpt>
<trkpt lat="43.644056" lon="3.304302">
<ele>224</ele>
<time>2013-05-08T07:52:16.000Z</time>
</trkpt>
<trkpt lat="43.644217" lon="3.304264">
<ele>223.7</ele>
<time>2013-05-08T07:52:17.000Z</time>
</trkpt>
<trkpt lat="43.64438" lon="3.304228">
<ele>223.3</ele>
<time>2013-05-08T07:52:18.000Z</time>
</trkpt>
<trkpt lat="43.644548" lon="3.304189">
<ele>222.7</ele>
<time>2013-05-08T07:52:19.000Z</time>
</trkpt>
<trkpt lat="43.644719" lon="3.304151">
<ele>222.1</ele>
<time>2013-05-08T07:52:20.000Z</time>
</trkpt>
<trkpt lat="43.6449" lon="3.304111">
<ele>221.5</ele>
<time>2013-05-08T07:52:21.000Z</time>
</trkpt>
<trkpt lat="43.645091" lon="3.304064">
<ele>220.8</ele>
<time>2013-05-08T07:52:22.000Z</time>
</trkpt>
<trkpt lat="43.645279" lon="3.304022">
<ele>220.3</ele>
<time>2013-05-08T07:52:23.000Z</time>
</trkpt>
<trkpt lat="43.645475" lon="3.303982">
<ele>219.9</ele>
<time>2013-05-08T07:52:24.000Z</time>
</trkpt>
<trkpt lat="43.645683" lon="3.303937">
<ele>219.6</ele>
<time>2013-05-08T07:52:25.000Z</time>
</trkpt>
<trkpt lat="43.645898" lon="3.30388">
<ele>219.4</ele>
<time>2013-05-08T07:52:26.000Z</time>
</trkpt>
<trkpt lat="43.646117" lon="3.303823">
<ele>219.3</ele>
<time>2013-05-08T07:52:27.000Z</time>
</trkpt>
<trkpt lat="43.646339" lon="3.303767">
<ele>219.3</ele>
<time>2013-05-08T07:52:28.000Z</time>
</trkpt>
<trkpt lat="43.646564" lon="3.303711">
<ele>219.4</ele>
<time>2013-05-08T07:52:29.000Z</time>
</trkpt>
<trkpt lat="43.646785" lon="3.303655">
<ele>219.4</ele>
<time>2013-05-08T07:52:30.000Z</time>
</trkpt>
<trkpt lat="43.647004" lon="3.303598">
<ele>219.5</ele>
<time>2013-05-08T07:52:31.000Z</time>
</trkpt>
<trkpt lat="43.647212" lon="3.303542">
<ele>219.5</ele>
<time>2013-05-08T07:52:32.000Z</time>
</trkpt>
<trkpt lat="43.647402" lon="3.303471">
<ele>219.6</ele>
<time>2013-05-08T07:52:33.000Z</time>
</trkpt>
<trkpt lat="43.647585" lon="3.303429">
<ele>219.9</ele>
<time>2013-05-08T07:52:34.000Z</time>
</trkpt>
<trkpt lat="43.647762" lon="3.303421">
<ele>220.2</ele>
<time>2013-05-08T07:52:35.000Z</time>
</trkpt>
<trkpt lat="43.647937" lon="3.303429">
<ele>220.5</ele>
<time>2013-05-08T07:52:36.000Z</time>
</trkpt>
<trkpt lat="43.648114" lon="3.303449">
<ele>220.6</ele>
<time>2013-05-08T07:52:37.000Z</time>
</trkpt>
<trkpt lat="43.648285" lon="3.303459">
<ele>220.7</ele>
<time>2013-05-08T07:52:38.000Z</time>
</trkpt>
<trkpt lat="43.648456" lon="3.30346">
<ele>221.2</ele>
<time>2013-05-08T07:52:39.000Z</time>
</trkpt>
<trkpt lat="43.64864" lon="3.303462">
<ele>221.9</ele>
<time>2013-05-08T07:52:40.000Z</time>
</trkpt>
<trkpt lat="43.648815" lon="3.30346">
<ele>222.5</ele>
<time>2013-05-08T07:52:41.000Z</time>
</trkpt>
<trkpt lat="43.648996" lon="3.303452">
<ele>222.9</ele>
<time>2013-05-08T07:52:42.000Z</time>
</trkpt>
<trkpt lat="43.649167" lon="3.303443">
<ele>223.4</ele>
<time>2013-05-08T07:52:43.000Z</time>
</trkpt>
<trkpt lat="43.649343" lon="3.303437">
<ele>223.7</ele>
<time>2013-05-08T07:52:44.000Z</time>
</trkpt>
<trkpt lat="43.649518" lon="3.303421">
<ele>224.1</ele>
<time>2013-05-08T07:52:45.000Z</time>
</trkpt>
<trkpt lat="43.649688" lon="3.30339">
<ele>224.6</ele>
<time>2013-05-08T07:52:46.000Z</time>
</trkpt>
<trkpt lat="43.649843" lon="3.303343">
<ele>225</ele>
<time>2013-05-08T07:52:47.000Z</time>
</trkpt>
<trkpt lat="43.649995" lon="3.303278">
<ele>225.4</ele>
<time>2013-05-08T07:52:48.000Z</time>
</trkpt>
<trkpt lat="43.650144" lon="3.303198">
<ele>225.9</ele>
<time>2013-05-08T07:52:49.000Z</time>
</trkpt>
<trkpt lat="43.650287" lon="3.303125">
<ele>226.6</ele>
<time>2013-05-08T07:52:50.000Z</time>
</trkpt>
<trkpt lat="43.650434" lon="3.303072">
<ele>227.3</ele>
<time>2013-05-08T07:52:51.000Z</time>
</trkpt>
<trkpt lat="43.650576" lon="3.30303">
<ele>227.8</ele>
<time>2013-05-08T07:52:52.000Z</time>
</trkpt>
<trkpt lat="43.650718" lon="3.302995">
<ele>228.2</ele>
<time>2013-05-08T07:52:53.000Z</time>
</trkpt>
<trkpt lat="43.650854" lon="3.302983">
<ele>228.5</ele>
<time>2013-05-08T07:52:54.000Z</time>
</trkpt>
<trkpt lat="43.650991" lon="3.303007">
<ele>228.8</ele>
<time>2013-05-08T07:52:55.000Z</time>
</trkpt>
<trkpt lat="43.651096" lon="3.303067">
<ele>228.8</ele>
<time>2013-05-08T07:52:56.000Z</time>
</trkpt>
<trkpt lat="43.651176" lon="3.303155">
<ele>228.3</ele>
<time>2013-05-08T07:52:57.000Z</time>
</trkpt>
<trkpt lat="43.651231" lon="3.303215">
<ele>227.7</ele>
<time>2013-05-08T07:52:58.000Z</time>
</trkpt>
<trkpt lat="43.651274" lon="3.303268">
<ele>227.2</ele>
<time>2013-05-08T07:52:59.000Z</time>
</trkpt>
<trkpt lat="43.651337" lon="3.303288">
<ele>227.2</ele>
<time>2013-05-08T07:53:00.000Z</time>
</trkpt>
<trkpt lat="43.651395" lon="3.303295">
<ele>227.5</ele>
<time>2013-05-08T07:53:01.000Z</time>
</trkpt>
<trkpt lat="43.651476" lon="3.303239">
<ele>228</ele>
<time>2013-05-08T07:53:02.000Z</time>
</trkpt>
<trkpt lat="43.651569" lon="3.303174">
<ele>228.6</ele>
<time>2013-05-08T07:53:03.000Z</time>
</trkpt>
<trkpt lat="43.651674" lon="3.303097">
<ele>229.6</ele>
<time>2013-05-08T07:53:04.000Z</time>
</trkpt>
<trkpt lat="43.651778" lon="3.303013">
<ele>231.5</ele>
<time>2013-05-08T07:53:05.000Z</time>
</trkpt>
<trkpt lat="43.651877" lon="3.302941">
<ele>233.5</ele>
<time>2013-05-08T07:53:06.000Z</time>
</trkpt>
<trkpt lat="43.651975" lon="3.302906">
<ele>235.1</ele>
<time>2013-05-08T07:53:07.000Z</time>
</trkpt>
<trkpt lat="43.652067" lon="3.302881">
<ele>236.2</ele>
<time>2013-05-08T07:53:08.000Z</time>
</trkpt>
<trkpt lat="43.652159" lon="3.302857">
<ele>237.1</ele>
<time>2013-05-08T07:53:09.000Z</time>
</trkpt>
<trkpt lat="43.652264" lon="3.302824">
<ele>237.6</ele>
<time>2013-05-08T07:53:10.000Z</time>
</trkpt>
<trkpt lat="43.652368" lon="3.30279">
<ele>237.8</ele>
<time>2013-05-08T07:53:11.000Z</time>
</trkpt>
<trkpt lat="43.652468" lon="3.302751">
<ele>238</ele>
<time>2013-05-08T07:53:12.000Z</time>
</trkpt>
<trkpt lat="43.652563" lon="3.302706">
<ele>238.4</ele>
<time>2013-05-08T07:53:13.000Z</time>
</trkpt>
<trkpt lat="43.652646" lon="3.30267">
<ele>238.7</ele>
<time>2013-05-08T07:53:14.000Z</time>
</trkpt>
<trkpt lat="43.652723" lon="3.302639">
<ele>239.1</ele>
<time>2013-05-08T07:53:15.000Z</time>
</trkpt>
<trkpt lat="43.652808" lon="3.302637">
<ele>239.2</ele>
<time>2013-05-08T07:53:16.000Z</time>
</trkpt>
<trkpt lat="43.652905" lon="3.302636">
<ele>239.2</ele>
<time>2013-05-08T07:53:17.000Z</time>
</trkpt>
<trkpt lat="43.653006" lon="3.302644">
<ele>239.3</ele>
<time>2013-05-08T07:53:18.000Z</time>
</trkpt>
<trkpt lat="43.653104" lon="3.302663">
<ele>238.5</ele>
<time>2013-05-08T07:53:19.000Z</time>
</trkpt>
<trkpt lat="43.653217" lon="3.302703">
<ele>237.6</ele>
<time>2013-05-08T07:53:20.000Z</time>
</trkpt>
<trkpt lat="43.653329" lon="3.302744">
<ele>237.4</ele>
<time>2013-05-08T07:53:21.000Z</time>
</trkpt>
<trkpt lat="43.653449" lon="3.302779">
<ele>237.1</ele>
<time>2013-05-08T07:53:22.000Z</time>
</trkpt>
<trkpt lat="43.653572" lon="3.30281">
<ele>236.7</ele>
<time>2013-05-08T07:53:23.000Z</time>
</trkpt>
<trkpt lat="43.653684" lon="3.302834">
<ele>236.6</ele>
<time>2013-05-08T07:53:24.000Z</time>
</trkpt>
<trkpt lat="43.653789" lon="3.302856">
<ele>236.6</ele>
<time>2013-05-08T07:53:25.000Z</time>
</trkpt>
<trkpt lat="43.653878" lon="3.302871">
<ele>236.6</ele>
<time>2013-05-08T07:53:26.000Z</time>
</trkpt>
<trkpt lat="43.653958" lon="3.302884">
<ele>236.7</ele>
<time>2013-05-08T07:53:27.000Z</time>
</trkpt>
<trkpt lat="43.654037" lon="3.3029">
<ele>237.2</ele>
<time>2013-05-08T07:53:28.000Z</time>
</trkpt>
<trkpt lat="43.654104" lon="3.302907">
<ele>237.8</ele>
<time>2013-05-08T07:53:29.000Z</time>
</trkpt>
<trkpt lat="43.654175" lon="3.302916">
<ele>238.2</ele>
<time>2013-05-08T07:53:30.000Z</time>
</trkpt>
<trkpt lat="43.654239" lon="3.30293">
<ele>239.1</ele>
<time>2013-05-08T07:53:31.000Z</time>
</trkpt>
<trkpt lat="43.654299" lon="3.302967">
<ele>240.2</ele>
<time>2013-05-08T07:53:32.000Z</time>
</trkpt>
<trkpt lat="43.65436" lon="3.303005">
<ele>241</ele>
<time>2013-05-08T07:53:33.000Z</time>
</trkpt>
<trkpt lat="43.654413" lon="3.303038">
<ele>241.4</ele>
<time>2013-05-08T07:53:34.000Z</time>
</trkpt>
<trkpt lat="43.654464" lon="3.303052">
<ele>241.4</ele>
<time>2013-05-08T07:53:35.000Z</time>
</trkpt>
<trkpt lat="43.654511" lon="3.303068">
<ele>241.4</ele>
<time>2013-05-08T07:53:36.000Z</time>
</trkpt>
<trkpt lat="43.654549" lon="3.303079">
<ele>241</ele>
<time>2013-05-08T07:53:37.000Z</time>
</trkpt>
<trkpt lat="43.654586" lon="3.303082">
<ele>240.9</ele>
<time>2013-05-08T07:53:38.000Z</time>
</trkpt>
<trkpt lat="43.654614" lon="3.303085">
<ele>240.9</ele>
<time>2013-05-08T07:53:39.000Z</time>
</trkpt>
<trkpt lat="43.654634" lon="3.303092">
<ele>240.9</ele>
<time>2013-05-08T07:53:40.000Z</time>
</trkpt>
<trkpt lat="43.654656" lon="3.303105">
<ele>241</ele>
<time>2013-05-08T07:53:41.000Z</time>
</trkpt>
<trkpt lat="43.654689" lon="3.303125">
<ele>241.1</ele>
<time>2013-05-08T07:53:42.000Z</time>
</trkpt>
<trkpt lat="43.654721" lon="3.303147">
<ele>241.3</ele>
<time>2013-05-08T07:53:43.000Z</time>
</trkpt>
<trkpt lat="43.654763" lon="3.303159">
<ele>242.8</ele>
<time>2013-05-08T07:53:44.000Z</time>
</trkpt>
<trkpt lat="43.6548" lon="3.303158">
<ele>243</ele>
<time>2013-05-08T07:53:45.000Z</time>
</trkpt>
<trkpt lat="43.654826" lon="3.303141">
<ele>243.1</ele>
<time>2013-05-08T07:53:46.000Z</time>
</trkpt>
<trkpt lat="43.654837" lon="3.303083">
<ele>243.1</ele>
<time>2013-05-08T07:53:47.000Z</time>
</trkpt>
<trkpt lat="43.654843" lon="3.303034">
<ele>243.2</ele>
<time>2013-05-08T07:53:48.000Z</time>
</trkpt>
<trkpt lat="43.654803" lon="3.303033">
<ele>245.9</ele>
<time>2013-05-08T07:54:44.000Z</time>
</trkpt>
<trkpt lat="43.654794" lon="3.303038">
<ele>246.1</ele>
<time>2013-05-08T07:54:45.000Z</time>
</trkpt>
<trkpt lat="43.654767" lon="3.303071">
<ele>247.1</ele>
<time>2013-05-08T07:54:59.000Z</time>
</trkpt>
<trkpt lat="43.654714" lon="3.303128">
<ele>247.1</ele>
<time>2013-05-08T07:55:00.000Z</time>
</trkpt>
<trkpt lat="43.654714" lon="3.303128">
<ele>247</ele>
<time>2013-05-08T07:55:08.000Z</time>
</trkpt>
<trkpt lat="43.654664" lon="3.303137">
<ele>247.1</ele>
<time>2013-05-08T07:55:09.000Z</time>
</trkpt>
<trkpt lat="43.654629" lon="3.303173">
<ele>245.2</ele>
<time>2013-05-08T07:58:40.000Z</time>
</trkpt>
<trkpt lat="43.654626" lon="3.303175">
<ele>245.2</ele>
<time>2013-05-08T07:58:41.000Z</time>
</trkpt>
<trkpt lat="43.654619" lon="3.303235">
<ele>245.5</ele>
<time>2013-05-08T07:59:28.000Z</time>
</trkpt>
<trkpt lat="43.65462" lon="3.303237">
<ele>245.5</ele>
<time>2013-05-08T07:59:29.000Z</time>
</trkpt>
<trkpt lat="43.654585" lon="3.303198">
<ele>243.2</ele>
<time>2013-05-08T08:00:49.000Z</time>
</trkpt>
<trkpt lat="43.65458" lon="3.303196">
<ele>243.1</ele>
<time>2013-05-08T08:00:50.000Z</time>
</trkpt>
<trkpt lat="43.654619" lon="3.303225">
<ele>243</ele>
<time>2013-05-08T08:02:09.000Z</time>
</trkpt>
<trkpt lat="43.654618" lon="3.303228">
<ele>243</ele>
<time>2013-05-08T08:02:10.000Z</time>
</trkpt>
<trkpt lat="43.654605" lon="3.303169">
<ele>245.6</ele>
<time>2013-05-08T08:04:29.999Z</time>
</trkpt>
<trkpt lat="43.654606" lon="3.303168">
<ele>245.6</ele>
<time>2013-05-08T08:04:30.999Z</time>
</trkpt>
<trkpt lat="43.654616" lon="3.303226">
<ele>247.4</ele>
<time>2013-05-08T08:07:43.999Z</time>
</trkpt>
<trkpt lat="43.654616" lon="3.303229">
<ele>247.3</ele>
<time>2013-05-08T08:07:44.999Z</time>
</trkpt>
<trkpt lat="43.654658" lon="3.303218">
<ele>245.8</ele>
<time>2013-05-08T08:08:43.999Z</time>
</trkpt>
<trkpt lat="43.654661" lon="3.303218">
<ele>245.8</ele>
<time>2013-05-08T08:08:44.999Z</time>
</trkpt>
<trkpt lat="43.65466" lon="3.303168">
<ele>247.3</ele>
<time>2013-05-08T08:09:38.999Z</time>
</trkpt>
<trkpt lat="43.654666" lon="3.303151">
<ele>247.5</ele>
<time>2013-05-08T08:09:39.999Z</time>
</trkpt>
<trkpt lat="43.654666" lon="3.303094">
<ele>248.5</ele>
<time>2013-05-08T08:09:44.999Z</time>
</trkpt>
<trkpt lat="43.654661" lon="3.303081">
<ele>248.6</ele>
<time>2013-05-08T08:09:45.999Z</time>
</trkpt>
<trkpt lat="43.654696" lon="3.303118">
<ele>249.4</ele>
<time>2013-05-08T08:10:56.999Z</time>
</trkpt>
<trkpt lat="43.654702" lon="3.303118">
<ele>249.4</ele>
<time>2013-05-08T08:10:57.999Z</time>
</trkpt>
<trkpt lat="43.65466" lon="3.303094">
<ele>248.7</ele>
<time>2013-05-08T08:11:14.999Z</time>
</trkpt>
<trkpt lat="43.654659" lon="3.303091">
<ele>248.7</ele>
<time>2013-05-08T08:11:15.999Z</time>
</trkpt>
<trkpt lat="43.654669" lon="3.303149">
<ele>249.3</ele>
<time>2013-05-08T08:11:46.999Z</time>
</trkpt>
<trkpt lat="43.654672" lon="3.30315">
<ele>249.3</ele>
<time>2013-05-08T08:11:47.999Z</time>
</trkpt>
<trkpt lat="43.654629" lon="3.303149">
<ele>249.2</ele>
<time>2013-05-08T08:12:13.999Z</time>
</trkpt>
<trkpt lat="43.654627" lon="3.303154">
<ele>249.1</ele>
<time>2013-05-08T08:12:14.999Z</time>
</trkpt>
<trkpt lat="43.654638" lon="3.303213">
<ele>248.2</ele>
<time>2013-05-08T08:12:41.999Z</time>
</trkpt>
<trkpt lat="43.654638" lon="3.303214">
<ele>248.2</ele>
<time>2013-05-08T08:12:42.999Z</time>
</trkpt>
<trkpt lat="43.654642" lon="3.303154">
<ele>246.9</ele>
<time>2013-05-08T08:18:59.999Z</time>
</trkpt>
<trkpt lat="43.65464" lon="3.303149">
<ele>246.9</ele>
<time>2013-05-08T08:19:00.999Z</time>
</trkpt>
<trkpt lat="43.654681" lon="3.303169">
<ele>246</ele>
<time>2013-05-08T08:20:47.999Z</time>
</trkpt>
<trkpt lat="43.654681" lon="3.303172">
<ele>246</ele>
<time>2013-05-08T08:20:48.999Z</time>
</trkpt>
<trkpt lat="43.654713" lon="3.303213">
<ele>245.8</ele>
<time>2013-05-08T08:21:04.999Z</time>
</trkpt>
<trkpt lat="43.654715" lon="3.303214">
<ele>245.8</ele>
<time>2013-05-08T08:21:05.999Z</time>
</trkpt>
<trkpt lat="43.654677" lon="3.30318">
<ele>245.4</ele>
<time>2013-05-08T08:21:53.999Z</time>
</trkpt>
<trkpt lat="43.654675" lon="3.303182">
<ele>245.4</ele>
<time>2013-05-08T08:21:54.999Z</time>
</trkpt>
<trkpt lat="43.654631" lon="3.303177">
<ele>243.8</ele>
<time>2013-05-08T08:24:29.999Z</time>
</trkpt>
<trkpt lat="43.654629" lon="3.303176">
<ele>243.8</ele>
<time>2013-05-08T08:24:30.999Z</time>
</trkpt>
<trkpt lat="43.654654" lon="3.303125">
<ele>243.1</ele>
<time>2013-05-08T08:25:47.999Z</time>
</trkpt>
<trkpt lat="43.654655" lon="3.303125">
<ele>243.1</ele>
<time>2013-05-08T08:25:48.999Z</time>
</trkpt>
<trkpt lat="43.654666" lon="3.303183">
<ele>243.1</ele>
<time>2013-05-08T08:26:09.999Z</time>
</trkpt>
<trkpt lat="43.65467" lon="3.303189">
<ele>243.1</ele>
<time>2013-05-08T08:26:10.999Z</time>
</trkpt>
<trkpt lat="43.654695" lon="3.303233">
<ele>243.1</ele>
<time>2013-05-08T08:26:18.999Z</time>
</trkpt>
<trkpt lat="43.654697" lon="3.303238">
<ele>243.1</ele>
<time>2013-05-08T08:26:19.999Z</time>
</trkpt>
<trkpt lat="43.654715" lon="3.303293">
<ele>242.8</ele>
<time>2013-05-08T08:26:34.999Z</time>
</trkpt>
<trkpt lat="43.654714" lon="3.303297">
<ele>242.8</ele>
<time>2013-05-08T08:26:35.999Z</time>
</trkpt>
<trkpt lat="43.654711" lon="3.303236">
<ele>241.5</ele>
<time>2013-05-08T08:27:10.999Z</time>
</trkpt>
<trkpt lat="43.654712" lon="3.303232">
<ele>241.5</ele>
<time>2013-05-08T08:27:11.999Z</time>
</trkpt>
<trkpt lat="43.654741" lon="3.303188">
<ele>241.3</ele>
<time>2013-05-08T08:27:23.999Z</time>
</trkpt>
<trkpt lat="43.654743" lon="3.303187">
<ele>241.3</ele>
<time>2013-05-08T08:27:24.999Z</time>
</trkpt>
<trkpt lat="43.654711" lon="3.303225">
<ele>240.6</ele>
<time>2013-05-08T08:27:57.999Z</time>
</trkpt>
<trkpt lat="43.654703" lon="3.303224">
<ele>240.6</ele>
<time>2013-05-08T08:27:58.999Z</time>
</trkpt>
<trkpt lat="43.654661" lon="3.303242">
<ele>240.3</ele>
<time>2013-05-08T08:28:20.999Z</time>
</trkpt>
<trkpt lat="43.654659" lon="3.303244">
<ele>240.3</ele>
<time>2013-05-08T08:28:21.999Z</time>
</trkpt>
<trkpt lat="43.65466" lon="3.303185">
<ele>240.1</ele>
<time>2013-05-08T08:28:38.999Z</time>
</trkpt>
<trkpt lat="43.654659" lon="3.303179">
<ele>240.1</ele>
<time>2013-05-08T08:28:39.999Z</time>
</trkpt>
<trkpt lat="43.654684" lon="3.303128">
<ele>240.4</ele>
<time>2013-05-08T08:31:42.999Z</time>
</trkpt>
<trkpt lat="43.654684" lon="3.303124">
<ele>240.4</ele>
<time>2013-05-08T08:31:43.999Z</time>
</trkpt>
<trkpt lat="43.654724" lon="3.303141">
<ele>240.5</ele>
<time>2013-05-08T08:32:33.000Z</time>
</trkpt>
<trkpt lat="43.65473" lon="3.303147">
<ele>240.5</ele>
<time>2013-05-08T08:32:34.000Z</time>
</trkpt>
<trkpt lat="43.654761" lon="3.303188">
<ele>240.5</ele>
<time>2013-05-08T08:32:44.000Z</time>
</trkpt>
<trkpt lat="43.654763" lon="3.303188">
<ele>240.5</ele>
<time>2013-05-08T08:32:45.000Z</time>
</trkpt>
<trkpt lat="43.65477" lon="3.303127">
<ele>240</ele>
<time>2013-05-08T08:33:10.000Z</time>
</trkpt>
<trkpt lat="43.654772" lon="3.303119">
<ele>240</ele>
<time>2013-05-08T08:33:11.000Z</time>
</trkpt>
<trkpt lat="43.654786" lon="3.303065">
<ele>240</ele>
<time>2013-05-08T08:33:17.000Z</time>
</trkpt>
<trkpt lat="43.654789" lon="3.303058">
<ele>240.2</ele>
<time>2013-05-08T08:33:18.000Z</time>
</trkpt>
<trkpt lat="43.654824" lon="3.303027">
<ele>242.8</ele>
<time>2013-05-08T08:33:48.000Z</time>
</trkpt>
<trkpt lat="43.654831" lon="3.303012">
<ele>243.1</ele>
<time>2013-05-08T08:33:49.000Z</time>
</trkpt>
<trkpt lat="43.654853" lon="3.302961">
<ele>244.5</ele>
<time>2013-05-08T08:34:46.000Z</time>
</trkpt>
<trkpt lat="43.654854" lon="3.302956">
<ele>244.3</ele>
<time>2013-05-08T08:34:47.000Z</time>
</trkpt>
<trkpt lat="43.654816" lon="3.302933">
<ele>244</ele>
<time>2013-05-08T08:34:57.000Z</time>
</trkpt>
<trkpt lat="43.654803" lon="3.302923">
<ele>244</ele>
<time>2013-05-08T08:34:58.000Z</time>
</trkpt>
<trkpt lat="43.654778" lon="3.302889">
<ele>244</ele>
<time>2013-05-08T08:35:00.000Z</time>
</trkpt>
<trkpt lat="43.654764" lon="3.302879">
<ele>244.1</ele>
<time>2013-05-08T08:35:01.000Z</time>
</trkpt>
<trkpt lat="43.654733" lon="3.30286">
<ele>244.3</ele>
<time>2013-05-08T08:35:03.000Z</time>
</trkpt>
<trkpt lat="43.654718" lon="3.302858">
<ele>244.5</ele>
<time>2013-05-08T08:35:04.000Z</time>
</trkpt>
<trkpt lat="43.654676" lon="3.302867">
<ele>244.8</ele>
<time>2013-05-08T08:35:10.000Z</time>
</trkpt>
<trkpt lat="43.654672" lon="3.302868">
<ele>244.9</ele>
<time>2013-05-08T08:35:11.000Z</time>
</trkpt>
<trkpt lat="43.654634" lon="3.302882">
<ele>246.2</ele>
<time>2013-05-08T08:35:31.000Z</time>
</trkpt>
<trkpt lat="43.654624" lon="3.302892">
<ele>246.2</ele>
<time>2013-05-08T08:35:32.000Z</time>
</trkpt>
<trkpt lat="43.654592" lon="3.30293">
<ele>246.2</ele>
<time>2013-05-08T08:35:54.000Z</time>
</trkpt>
<trkpt lat="43.654587" lon="3.302933">
<ele>246.1</ele>
<time>2013-05-08T08:35:55.000Z</time>
</trkpt>
<trkpt lat="43.654573" lon="3.302991">
<ele>246.4</ele>
<time>2013-05-08T08:36:19.000Z</time>
</trkpt>
<trkpt lat="43.654545" lon="3.303013">
<ele>246.4</ele>
<time>2013-05-08T08:36:20.000Z</time>
</trkpt>
<trkpt lat="43.654504" lon="3.303025">
<ele>246</ele>
<time>2013-05-08T08:36:21.000Z</time>
</trkpt>
<trkpt lat="43.654462" lon="3.303034">
<ele>245.5</ele>
<time>2013-05-08T08:36:22.000Z</time>
</trkpt>
<trkpt lat="43.654405" lon="3.303053">
<ele>244.9</ele>
<time>2013-05-08T08:36:23.000Z</time>
</trkpt>
<trkpt lat="43.654335" lon="3.303109">
<ele>244.6</ele>
<time>2013-05-08T08:36:24.000Z</time>
</trkpt>
<trkpt lat="43.654262" lon="3.303188">
<ele>244.5</ele>
<time>2013-05-08T08:36:25.000Z</time>
</trkpt>
<trkpt lat="43.654177" lon="3.303289">
<ele>244.4</ele>
<time>2013-05-08T08:36:26.000Z</time>
</trkpt>
<trkpt lat="43.654089" lon="3.303388">
<ele>244.6</ele>
<time>2013-05-08T08:36:27.000Z</time>
</trkpt>
<trkpt lat="43.653999" lon="3.303488">
<ele>244.2</ele>
<time>2013-05-08T08:36:28.000Z</time>
</trkpt>
<trkpt lat="43.65391" lon="3.303582">
<ele>243.7</ele>
<time>2013-05-08T08:36:29.000Z</time>
</trkpt>
<trkpt lat="43.653827" lon="3.303675">
<ele>243.1</ele>
<time>2013-05-08T08:36:30.000Z</time>
</trkpt>
<trkpt lat="43.653734" lon="3.303772">
<ele>242.4</ele>
<time>2013-05-08T08:36:31.000Z</time>
</trkpt>
<trkpt lat="43.653643" lon="3.303871">
<ele>241.8</ele>
<time>2013-05-08T08:36:32.000Z</time>
</trkpt>
<trkpt lat="43.653549" lon="3.30397">
<ele>241.2</ele>
<time>2013-05-08T08:36:33.000Z</time>
</trkpt>
<trkpt lat="43.65345" lon="3.304073">
<ele>240.6</ele>
<time>2013-05-08T08:36:34.000Z</time>
</trkpt>
<trkpt lat="43.653357" lon="3.304166">
<ele>240.3</ele>
<time>2013-05-08T08:36:35.000Z</time>
</trkpt>
<trkpt lat="43.653268" lon="3.304258">
<ele>239.6</ele>
<time>2013-05-08T08:36:36.000Z</time>
</trkpt>
<trkpt lat="43.65318" lon="3.304347">
<ele>239.3</ele>
<time>2013-05-08T08:36:37.000Z</time>
</trkpt>
<trkpt lat="43.653092" lon="3.304439">
<ele>239.1</ele>
<time>2013-05-08T08:36:38.000Z</time>
</trkpt>
<trkpt lat="43.653004" lon="3.304537">
<ele>239.1</ele>
<time>2013-05-08T08:36:39.000Z</time>
</trkpt>
<trkpt lat="43.652911" lon="3.304644">
<ele>238.8</ele>
<time>2013-05-08T08:36:40.000Z</time>
</trkpt>
<trkpt lat="43.652814" lon="3.30475">
<ele>238.7</ele>
<time>2013-05-08T08:36:41.000Z</time>
</trkpt>
<trkpt lat="43.652716" lon="3.304858">
<ele>238.3</ele>
<time>2013-05-08T08:36:42.000Z</time>
</trkpt>
<trkpt lat="43.652618" lon="3.304968">
<ele>238.2</ele>
<time>2013-05-08T08:36:43.000Z</time>
</trkpt>
<trkpt lat="43.652519" lon="3.305076">
<ele>238.1</ele>
<time>2013-05-08T08:36:44.000Z</time>
</trkpt>
<trkpt lat="43.652424" lon="3.305174">
<ele>237.7</ele>
<time>2013-05-08T08:36:45.000Z</time>
</trkpt>
<trkpt lat="43.652332" lon="3.305271">
<ele>237.6</ele>
<time>2013-05-08T08:36:46.000Z</time>
</trkpt>
<trkpt lat="43.652257" lon="3.305352">
<ele>237.7</ele>
<time>2013-05-08T08:36:47.000Z</time>
</trkpt>
<trkpt lat="43.652202" lon="3.305417">
<ele>237.9</ele>
<time>2013-05-08T08:36:48.000Z</time>
</trkpt>
<trkpt lat="43.652159" lon="3.305471">
<ele>238.3</ele>
<time>2013-05-08T08:36:49.000Z</time>
</trkpt>
<trkpt lat="43.652134" lon="3.305524">
<ele>238.2</ele>
<time>2013-05-08T08:36:50.000Z</time>
</trkpt>
<trkpt lat="43.652117" lon="3.305611">
<ele>238.3</ele>
<time>2013-05-08T08:36:51.000Z</time>
</trkpt>
<trkpt lat="43.652101" lon="3.305721">
<ele>238.3</ele>
<time>2013-05-08T08:36:52.000Z</time>
</trkpt>
<trkpt lat="43.65208" lon="3.305876">
<ele>237.8</ele>
<time>2013-05-08T08:36:53.000Z</time>
</trkpt>
<trkpt lat="43.652054" lon="3.306047">
<ele>237.2</ele>
<time>2013-05-08T08:36:54.000Z</time>
</trkpt>
<trkpt lat="43.652022" lon="3.306219">
<ele>237.1</ele>
<time>2013-05-08T08:36:55.000Z</time>
</trkpt>
<trkpt lat="43.651981" lon="3.306405">
<ele>237.1</ele>
<time>2013-05-08T08:36:56.000Z</time>
</trkpt>
<trkpt lat="43.6519" lon="3.306599">
<ele>237.2</ele>
<time>2013-05-08T08:36:57.000Z</time>
</trkpt>
<trkpt lat="43.651819" lon="3.306801">
<ele>237.1</ele>
<time>2013-05-08T08:36:58.000Z</time>
</trkpt>
<trkpt lat="43.651736" lon="3.307011">
<ele>236.6</ele>
<time>2013-05-08T08:36:59.000Z</time>
</trkpt>
<trkpt lat="43.651649" lon="3.307226">
<ele>236.5</ele>
<time>2013-05-08T08:37:00.000Z</time>
</trkpt>
<trkpt lat="43.651562" lon="3.307438">
<ele>236.2</ele>
<time>2013-05-08T08:37:01.000Z</time>
</trkpt>
<trkpt lat="43.651478" lon="3.307656">
<ele>236.1</ele>
<time>2013-05-08T08:37:02.000Z</time>
</trkpt>
<trkpt lat="43.651385" lon="3.307852">
<ele>235.3</ele>
<time>2013-05-08T08:37:03.000Z</time>
</trkpt>
<trkpt lat="43.65129" lon="3.308058">
<ele>234.6</ele>
<time>2013-05-08T08:37:04.000Z</time>
</trkpt>
<trkpt lat="43.651193" lon="3.308263">
<ele>233.9</ele>
<time>2013-05-08T08:37:05.000Z</time>
</trkpt>
<trkpt lat="43.651094" lon="3.30848">
<ele>233.4</ele>
<time>2013-05-08T08:37:06.000Z</time>
</trkpt>
<trkpt lat="43.651004" lon="3.308707">
<ele>233.1</ele>
<time>2013-05-08T08:37:07.000Z</time>
</trkpt>
<trkpt lat="43.650921" lon="3.308957">
<ele>232.9</ele>
<time>2013-05-08T08:37:08.000Z</time>
</trkpt>
<trkpt lat="43.650873" lon="3.309253">
<ele>231.7</ele>
<time>2013-05-08T08:37:09.000Z</time>
</trkpt>
<trkpt lat="43.650841" lon="3.309561">
<ele>229.7</ele>
<time>2013-05-08T08:37:10.000Z</time>
</trkpt>
<trkpt lat="43.650816" lon="3.309869">
<ele>227.8</ele>
<time>2013-05-08T08:37:11.000Z</time>
</trkpt>
<trkpt lat="43.65078" lon="3.310177">
<ele>226.2</ele>
<time>2013-05-08T08:37:12.000Z</time>
</trkpt>
<trkpt lat="43.650714" lon="3.310486">
<ele>224.6</ele>
<time>2013-05-08T08:37:13.000Z</time>
</trkpt>
<trkpt lat="43.650628" lon="3.310786">
<ele>223.3</ele>
<time>2013-05-08T08:37:14.000Z</time>
</trkpt>
<trkpt lat="43.650536" lon="3.311094">
<ele>222.5</ele>
<time>2013-05-08T08:37:15.000Z</time>
</trkpt>
<trkpt lat="43.650442" lon="3.311401">
<ele>221.8</ele>
<time>2013-05-08T08:37:16.000Z</time>
</trkpt>
<trkpt lat="43.650368" lon="3.311725">
<ele>220.9</ele>
<time>2013-05-08T08:37:17.000Z</time>
</trkpt>
<trkpt lat="43.650312" lon="3.312068">
<ele>220.2</ele>
<time>2013-05-08T08:37:18.000Z</time>
</trkpt>
<trkpt lat="43.650254" lon="3.312414">
<ele>219.6</ele>
<time>2013-05-08T08:37:19.000Z</time>
</trkpt>
<trkpt lat="43.650195" lon="3.312749">
<ele>218.8</ele>
<time>2013-05-08T08:37:20.000Z</time>
</trkpt>
<trkpt lat="43.650158" lon="3.313077">
<ele>217.6</ele>
<time>2013-05-08T08:37:21.000Z</time>
</trkpt>
<trkpt lat="43.650128" lon="3.313396">
<ele>216.4</ele>
<time>2013-05-08T08:37:22.000Z</time>
</trkpt>
<trkpt lat="43.650147" lon="3.313692">
<ele>215.2</ele>
<time>2013-05-08T08:37:23.000Z</time>
</trkpt>
<trkpt lat="43.650186" lon="3.313974">
<ele>214.2</ele>
<time>2013-05-08T08:37:24.000Z</time>
</trkpt>
<trkpt lat="43.650252" lon="3.314242">
<ele>213.8</ele>
<time>2013-05-08T08:37:25.000Z</time>
</trkpt>
<trkpt lat="43.650305" lon="3.314503">
<ele>213.8</ele>
<time>2013-05-08T08:37:26.000Z</time>
</trkpt>
<trkpt lat="43.650415" lon="3.314727">
<ele>214</ele>
<time>2013-05-08T08:37:27.000Z</time>
</trkpt>
<trkpt lat="43.650543" lon="3.314942">
<ele>214.1</ele>
<time>2013-05-08T08:37:28.000Z</time>
</trkpt>
<trkpt lat="43.650683" lon="3.315146">
<ele>213.6</ele>
<time>2013-05-08T08:37:29.000Z</time>
</trkpt>
<trkpt lat="43.650819" lon="3.315354">
<ele>213.4</ele>
<time>2013-05-08T08:37:30.000Z</time>
</trkpt>
<trkpt lat="43.650944" lon="3.315578">
<ele>213.4</ele>
<time>2013-05-08T08:37:31.000Z</time>
</trkpt>
<trkpt lat="43.651058" lon="3.3158">
<ele>213.3</ele>
<time>2013-05-08T08:37:32.000Z</time>
</trkpt>
<trkpt lat="43.65116" lon="3.316015">
<ele>213.1</ele>
<time>2013-05-08T08:37:33.000Z</time>
</trkpt>
<trkpt lat="43.651271" lon="3.316212">
<ele>212.9</ele>
<time>2013-05-08T08:37:34.000Z</time>
</trkpt>
<trkpt lat="43.651397" lon="3.316369">
<ele>212.9</ele>
<time>2013-05-08T08:37:35.000Z</time>
</trkpt>
<trkpt lat="43.651519" lon="3.31654">
<ele>212.3</ele>
<time>2013-05-08T08:37:36.000Z</time>
</trkpt>
<trkpt lat="43.651651" lon="3.316696">
<ele>211.7</ele>
<time>2013-05-08T08:37:37.000Z</time>
</trkpt>
<trkpt lat="43.651793" lon="3.316847">
<ele>210.8</ele>
<time>2013-05-08T08:37:38.000Z</time>
</trkpt>
<trkpt lat="43.651945" lon="3.316984">
<ele>209.8</ele>
<time>2013-05-08T08:37:39.000Z</time>
</trkpt>
<trkpt lat="43.652095" lon="3.317117">
<ele>208.9</ele>
<time>2013-05-08T08:37:40.000Z</time>
</trkpt>
<trkpt lat="43.652244" lon="3.317262">
<ele>208.5</ele>
<time>2013-05-08T08:37:41.000Z</time>
</trkpt>
<trkpt lat="43.652396" lon="3.317425">
<ele>208.5</ele>
<time>2013-05-08T08:37:42.000Z</time>
</trkpt>
<trkpt lat="43.652555" lon="3.317587">
<ele>208.5</ele>
<time>2013-05-08T08:37:43.000Z</time>
</trkpt>
<trkpt lat="43.652727" lon="3.317754">
<ele>207.7</ele>
<time>2013-05-08T08:37:44.000Z</time>
</trkpt>
<trkpt lat="43.652931" lon="3.317913">
<ele>207.1</ele>
<time>2013-05-08T08:37:45.000Z</time>
</trkpt>
<trkpt lat="43.653175" lon="3.318082">
<ele>206.6</ele>
<time>2013-05-08T08:37:46.000Z</time>
</trkpt>
<trkpt lat="43.653405" lon="3.318243">
<ele>206.6</ele>
<time>2013-05-08T08:37:47.000Z</time>
</trkpt>
<trkpt lat="43.653621" lon="3.318411">
<ele>206.6</ele>
<time>2013-05-08T08:37:48.000Z</time>
</trkpt>
<trkpt lat="43.653839" lon="3.318582">
<ele>206.6</ele>
<time>2013-05-08T08:37:49.000Z</time>
</trkpt>
<trkpt lat="43.654046" lon="3.318764">
<ele>207.2</ele>
<time>2013-05-08T08:37:50.000Z</time>
</trkpt>
<trkpt lat="43.654256" lon="3.318957">
<ele>207.8</ele>
<time>2013-05-08T08:37:51.000Z</time>
</trkpt>
<trkpt lat="43.654418" lon="3.319216">
<ele>208.5</ele>
<time>2013-05-08T08:37:52.000Z</time>
</trkpt>
<trkpt lat="43.654587" lon="3.319462">
<ele>209</ele>
<time>2013-05-08T08:37:53.000Z</time>
</trkpt>
<trkpt lat="43.654708" lon="3.319772">
<ele>209.7</ele>
<time>2013-05-08T08:37:54.000Z</time>
</trkpt>
<trkpt lat="43.654782" lon="3.320085">
<ele>210.3</ele>
<time>2013-05-08T08:37:55.000Z</time>
</trkpt>
<trkpt lat="43.654837" lon="3.320422">
<ele>211</ele>
<time>2013-05-08T08:37:56.000Z</time>
</trkpt>
<trkpt lat="43.654845" lon="3.320764">
<ele>210.7</ele>
<time>2013-05-08T08:37:57.000Z</time>
</trkpt>
<trkpt lat="43.65484" lon="3.321109">
<ele>209.8</ele>
<time>2013-05-08T08:37:58.000Z</time>
</trkpt>
<trkpt lat="43.654848" lon="3.321437">
<ele>208.9</ele>
<time>2013-05-08T08:37:59.000Z</time>
</trkpt>
<trkpt lat="43.654852" lon="3.321767">
<ele>207.8</ele>
<time>2013-05-08T08:38:00.000Z</time>
</trkpt>
<trkpt lat="43.654851" lon="3.322115">
<ele>206.7</ele>
<time>2013-05-08T08:38:01.000Z</time>
</trkpt>
<trkpt lat="43.65485" lon="3.322472">
<ele>205.8</ele>
<time>2013-05-08T08:38:02.000Z</time>
</trkpt>
<trkpt lat="43.654846" lon="3.322827">
<ele>204.9</ele>
<time>2013-05-08T08:38:03.000Z</time>
</trkpt>
<trkpt lat="43.654844" lon="3.323184">
<ele>204.2</ele>
<time>2013-05-08T08:38:04.000Z</time>
</trkpt>
<trkpt lat="43.654843" lon="3.32354">
<ele>203.7</ele>
<time>2013-05-08T08:38:05.000Z</time>
</trkpt>
<trkpt lat="43.654843" lon="3.323897">
<ele>203.3</ele>
<time>2013-05-08T08:38:06.000Z</time>
</trkpt>
<trkpt lat="43.654849" lon="3.32425">
<ele>203</ele>
<time>2013-05-08T08:38:07.000Z</time>
</trkpt>
<trkpt lat="43.65486" lon="3.324603">
<ele>202.8</ele>
<time>2013-05-08T08:38:08.000Z</time>
</trkpt>
<trkpt lat="43.654876" lon="3.324957">
<ele>202.4</ele>
<time>2013-05-08T08:38:09.000Z</time>
</trkpt>
<trkpt lat="43.654889" lon="3.325324">
<ele>202</ele>
<time>2013-05-08T08:38:10.000Z</time>
</trkpt>
<trkpt lat="43.654889" lon="3.325704">
<ele>201.8</ele>
<time>2013-05-08T08:38:11.000Z</time>
</trkpt>
<trkpt lat="43.654887" lon="3.326083">
<ele>201.8</ele>
<time>2013-05-08T08:38:12.000Z</time>
</trkpt>
<trkpt lat="43.654878" lon="3.326452">
<ele>202.2</ele>
<time>2013-05-08T08:38:13.000Z</time>
</trkpt>
<trkpt lat="43.654858" lon="3.32681">
<ele>202.7</ele>
<time>2013-05-08T08:38:14.000Z</time>
</trkpt>
<trkpt lat="43.654837" lon="3.327147">
<ele>203.1</ele>
<time>2013-05-08T08:38:15.000Z</time>
</trkpt>
<trkpt lat="43.65482" lon="3.327464">
<ele>203.2</ele>
<time>2013-05-08T08:38:16.000Z</time>
</trkpt>
<trkpt lat="43.654818" lon="3.327782">
<ele>203.3</ele>
<time>2013-05-08T08:38:17.000Z</time>
</trkpt>
<trkpt lat="43.654849" lon="3.328102">
<ele>203.5</ele>
<time>2013-05-08T08:38:18.000Z</time>
</trkpt>
<trkpt lat="43.654902" lon="3.328428">
<ele>203.6</ele>
<time>2013-05-08T08:38:19.000Z</time>
</trkpt>
<trkpt lat="43.654975" lon="3.328753">
<ele>204.3</ele>
<time>2013-05-08T08:38:20.000Z</time>
</trkpt>
<trkpt lat="43.655077" lon="3.329076">
<ele>205.4</ele>
<time>2013-05-08T08:38:21.000Z</time>
</trkpt>
<trkpt lat="43.655203" lon="3.329385">
<ele>206.2</ele>
<time>2013-05-08T08:38:22.000Z</time>
</trkpt>
<trkpt lat="43.655328" lon="3.32968">
<ele>206.9</ele>
<time>2013-05-08T08:38:23.000Z</time>
</trkpt>
<trkpt lat="43.655454" lon="3.32996">
<ele>207.6</ele>
<time>2013-05-08T08:38:24.000Z</time>
</trkpt>
<trkpt lat="43.655583" lon="3.330217">
<ele>208</ele>
<time>2013-05-08T08:38:25.000Z</time>
</trkpt>
<trkpt lat="43.655712" lon="3.330458">
<ele>208.3</ele>
<time>2013-05-08T08:38:26.000Z</time>
</trkpt>
<trkpt lat="43.655857" lon="3.33069">
<ele>208.6</ele>
<time>2013-05-08T08:38:27.000Z</time>
</trkpt>
<trkpt lat="43.656011" lon="3.33091">
<ele>208.8</ele>
<time>2013-05-08T08:38:28.000Z</time>
</trkpt>
<trkpt lat="43.656176" lon="3.331113">
<ele>209.2</ele>
<time>2013-05-08T08:38:29.000Z</time>
</trkpt>
<trkpt lat="43.656357" lon="3.33129">
<ele>210.1</ele>
<time>2013-05-08T08:38:30.000Z</time>
</trkpt>
<trkpt lat="43.65654" lon="3.331456">
<ele>211</ele>
<time>2013-05-08T08:38:31.000Z</time>
</trkpt>
<trkpt lat="43.656714" lon="3.331612">
<ele>212.1</ele>
<time>2013-05-08T08:38:32.000Z</time>
</trkpt>
<trkpt lat="43.656891" lon="3.331767">
<ele>213.2</ele>
<time>2013-05-08T08:38:33.000Z</time>
</trkpt>
<trkpt lat="43.657071" lon="3.33192">
<ele>214</ele>
<time>2013-05-08T08:38:34.000Z</time>
</trkpt>
<trkpt lat="43.657238" lon="3.33208">
<ele>214.9</ele>
<time>2013-05-08T08:38:35.000Z</time>
</trkpt>
<trkpt lat="43.657395" lon="3.332255">
<ele>215.5</ele>
<time>2013-05-08T08:38:36.000Z</time>
</trkpt>
<trkpt lat="43.657536" lon="3.332449">
<ele>215.9</ele>
<time>2013-05-08T08:38:37.000Z</time>
</trkpt>
<trkpt lat="43.657684" lon="3.332653">
<ele>216.4</ele>
<time>2013-05-08T08:38:38.000Z</time>
</trkpt>
<trkpt lat="43.657835" lon="3.33285">
<ele>216.8</ele>
<time>2013-05-08T08:38:39.000Z</time>
</trkpt>
<trkpt lat="43.658006" lon="3.333022">
<ele>217.5</ele>
<time>2013-05-08T08:38:40.000Z</time>
</trkpt>
<trkpt lat="43.658191" lon="3.333171">
<ele>218.1</ele>
<time>2013-05-08T08:38:41.000Z</time>
</trkpt>
<trkpt lat="43.658399" lon="3.333297">
<ele>218.9</ele>
<time>2013-05-08T08:38:42.000Z</time>
</trkpt>
<trkpt lat="43.658618" lon="3.333408">
<ele>219.4</ele>
<time>2013-05-08T08:38:43.000Z</time>
</trkpt>
<trkpt lat="43.658848" lon="3.333517">
<ele>219.5</ele>
<time>2013-05-08T08:38:44.000Z</time>
</trkpt>
<trkpt lat="43.659079" lon="3.333622">
<ele>219.4</ele>
<time>2013-05-08T08:38:45.000Z</time>
</trkpt>
<trkpt lat="43.659306" lon="3.33374">
<ele>219.3</ele>
<time>2013-05-08T08:38:46.000Z</time>
</trkpt>
<trkpt lat="43.659525" lon="3.333859">
<ele>219</ele>
<time>2013-05-08T08:38:47.000Z</time>
</trkpt>
<trkpt lat="43.659739" lon="3.33398">
<ele>219</ele>
<time>2013-05-08T08:38:48.000Z</time>
</trkpt>
<trkpt lat="43.659952" lon="3.334097">
<ele>219.1</ele>
<time>2013-05-08T08:38:49.000Z</time>
</trkpt>
<trkpt lat="43.660164" lon="3.334204">
<ele>219.2</ele>
<time>2013-05-08T08:38:50.000Z</time>
</trkpt>
<trkpt lat="43.660373" lon="3.334313">
<ele>219.2</ele>
<time>2013-05-08T08:38:51.000Z</time>
</trkpt>
<trkpt lat="43.660583" lon="3.334431">
<ele>219</ele>
<time>2013-05-08T08:38:52.000Z</time>
</trkpt>
<trkpt lat="43.660793" lon="3.334551">
<ele>218.7</ele>
<time>2013-05-08T08:38:53.000Z</time>
</trkpt>
<trkpt lat="43.661008" lon="3.334672">
<ele>218.4</ele>
<time>2013-05-08T08:38:54.000Z</time>
</trkpt>
<trkpt lat="43.661221" lon="3.334788">
<ele>218.1</ele>
<time>2013-05-08T08:38:55.000Z</time>
</trkpt>
<trkpt lat="43.66143" lon="3.334908">
<ele>217.9</ele>
<time>2013-05-08T08:38:56.000Z</time>
</trkpt>
<trkpt lat="43.661643" lon="3.335027">
<ele>217.8</ele>
<time>2013-05-08T08:38:57.000Z</time>
</trkpt>
<trkpt lat="43.661859" lon="3.335139">
<ele>218.1</ele>
<time>2013-05-08T08:38:58.000Z</time>
</trkpt>
<trkpt lat="43.662078" lon="3.335252">
<ele>218.4</ele>
<time>2013-05-08T08:38:59.000Z</time>
</trkpt>
<trkpt lat="43.662305" lon="3.335345">
<ele>218.8</ele>
<time>2013-05-08T08:39:00.000Z</time>
</trkpt>
<trkpt lat="43.662537" lon="3.335409">
<ele>219.3</ele>
<time>2013-05-08T08:39:01.000Z</time>
</trkpt>
<trkpt lat="43.662774" lon="3.335451">
<ele>219.6</ele>
<time>2013-05-08T08:39:02.000Z</time>
</trkpt>
<trkpt lat="43.663011" lon="3.335464">
<ele>220</ele>
<time>2013-05-08T08:39:03.000Z</time>
</trkpt>
<trkpt lat="43.663249" lon="3.335453">
<ele>220.4</ele>
<time>2013-05-08T08:39:04.000Z</time>
</trkpt>
<trkpt lat="43.663477" lon="3.335437">
<ele>220.6</ele>
<time>2013-05-08T08:39:05.000Z</time>
</trkpt>
<trkpt lat="43.663711" lon="3.335425">
<ele>220.9</ele>
<time>2013-05-08T08:39:06.000Z</time>
</trkpt>
<trkpt lat="43.663944" lon="3.335411">
<ele>221.1</ele>
<time>2013-05-08T08:39:07.000Z</time>
</trkpt>
<trkpt lat="43.664174" lon="3.335401">
<ele>221.6</ele>
<time>2013-05-08T08:39:08.000Z</time>
</trkpt>
<trkpt lat="43.6644" lon="3.335389">
<ele>222.1</ele>
<time>2013-05-08T08:39:09.000Z</time>
</trkpt>
<trkpt lat="43.664625" lon="3.335355">
<ele>222.8</ele>
<time>2013-05-08T08:39:10.000Z</time>
</trkpt>
<trkpt lat="43.664855" lon="3.3353">
<ele>223.4</ele>
<time>2013-05-08T08:39:11.000Z</time>
</trkpt>
<trkpt lat="43.66508" lon="3.335221">
<ele>224.1</ele>
<time>2013-05-08T08:39:12.000Z</time>
</trkpt>
<trkpt lat="43.665297" lon="3.335161">
<ele>224.4</ele>
<time>2013-05-08T08:39:13.000Z</time>
</trkpt>
<trkpt lat="43.665512" lon="3.335125">
<ele>224.9</ele>
<time>2013-05-08T08:39:14.000Z</time>
</trkpt>
<trkpt lat="43.665716" lon="3.335174">
<ele>225.3</ele>
<time>2013-05-08T08:39:15.000Z</time>
</trkpt>
<trkpt lat="43.665908" lon="3.335241">
<ele>225.7</ele>
<time>2013-05-08T08:39:16.000Z</time>
</trkpt>
<trkpt lat="43.66609" lon="3.335345">
<ele>225.9</ele>
<time>2013-05-08T08:39:17.000Z</time>
</trkpt>
<trkpt lat="43.666282" lon="3.335503">
<ele>225.6</ele>
<time>2013-05-08T08:39:18.000Z</time>
</trkpt>
<trkpt lat="43.666492" lon="3.335633">
<ele>225.7</ele>
<time>2013-05-08T08:39:19.000Z</time>
</trkpt>
<trkpt lat="43.66671" lon="3.33572">
<ele>225.9</ele>
<time>2013-05-08T08:39:20.000Z</time>
</trkpt>
<trkpt lat="43.666925" lon="3.335765">
<ele>226.6</ele>
<time>2013-05-08T08:39:21.000Z</time>
</trkpt>
<trkpt lat="43.667144" lon="3.335773">
<ele>227.1</ele>
<time>2013-05-08T08:39:22.000Z</time>
</trkpt>
<trkpt lat="43.667362" lon="3.335745">
<ele>227.2</ele>
<time>2013-05-08T08:39:23.000Z</time>
</trkpt>
<trkpt lat="43.667565" lon="3.335672">
<ele>227.3</ele>
<time>2013-05-08T08:39:24.000Z</time>
</trkpt>
<trkpt lat="43.66776" lon="3.33556">
<ele>227.3</ele>
<time>2013-05-08T08:39:25.000Z</time>
</trkpt>
<trkpt lat="43.667948" lon="3.335424">
<ele>227.1</ele>
<time>2013-05-08T08:39:26.000Z</time>
</trkpt>
<trkpt lat="43.668129" lon="3.335278">
<ele>226.7</ele>
<time>2013-05-08T08:39:27.000Z</time>
</trkpt>
<trkpt lat="43.668298" lon="3.33513">
<ele>226.2</ele>
<time>2013-05-08T08:39:28.000Z</time>
</trkpt>
<trkpt lat="43.668457" lon="3.334977">
<ele>225.8</ele>
<time>2013-05-08T08:39:29.000Z</time>
</trkpt>
<trkpt lat="43.668616" lon="3.334826">
<ele>225.9</ele>
<time>2013-05-08T08:39:30.000Z</time>
</trkpt>
<trkpt lat="43.668774" lon="3.334693">
<ele>226</ele>
<time>2013-05-08T08:39:31.000Z</time>
</trkpt>
<trkpt lat="43.668942" lon="3.334574">
<ele>225.8</ele>
<time>2013-05-08T08:39:32.000Z</time>
</trkpt>
<trkpt lat="43.669119" lon="3.334461">
<ele>225.1</ele>
<time>2013-05-08T08:39:33.000Z</time>
</trkpt>
<trkpt lat="43.669307" lon="3.334351">
<ele>224.3</ele>
<time>2013-05-08T08:39:34.000Z</time>
</trkpt>
<trkpt lat="43.669494" lon="3.334241">
<ele>223.3</ele>
<time>2013-05-08T08:39:35.000Z</time>
</trkpt>
<trkpt lat="43.669679" lon="3.334135">
<ele>222.3</ele>
<time>2013-05-08T08:39:36.000Z</time>
</trkpt>
<trkpt lat="43.669861" lon="3.334035">
<ele>221.3</ele>
<time>2013-05-08T08:39:37.000Z</time>
</trkpt>
<trkpt lat="43.670038" lon="3.333945">
<ele>220</ele>
<time>2013-05-08T08:39:38.000Z</time>
</trkpt>
<trkpt lat="43.670209" lon="3.333863">
<ele>219</ele>
<time>2013-05-08T08:39:39.000Z</time>
</trkpt>
<trkpt lat="43.670387" lon="3.333826">
<ele>218.5</ele>
<time>2013-05-08T08:39:40.000Z</time>
</trkpt>
<trkpt lat="43.67056" lon="3.333816">
<ele>218.5</ele>
<time>2013-05-08T08:39:41.000Z</time>
</trkpt>
<trkpt lat="43.670738" lon="3.333834">
<ele>218.6</ele>
<time>2013-05-08T08:39:42.000Z</time>
</trkpt>
<trkpt lat="43.670926" lon="3.333866">
<ele>218.9</ele>
<time>2013-05-08T08:39:43.000Z</time>
</trkpt>
<trkpt lat="43.671123" lon="3.333907">
<ele>219.7</ele>
<time>2013-05-08T08:39:44.000Z</time>
</trkpt>
<trkpt lat="43.671327" lon="3.333956">
<ele>220.3</ele>
<time>2013-05-08T08:39:45.000Z</time>
</trkpt>
<trkpt lat="43.671525" lon="3.334015">
<ele>220.9</ele>
<time>2013-05-08T08:39:46.000Z</time>
</trkpt>
<trkpt lat="43.671721" lon="3.33407">
<ele>221.1</ele>
<time>2013-05-08T08:39:47.000Z</time>
</trkpt>
<trkpt lat="43.671916" lon="3.334118">
<ele>220.4</ele>
<time>2013-05-08T08:39:48.000Z</time>
</trkpt>
<trkpt lat="43.672117" lon="3.334166">
<ele>219.5</ele>
<time>2013-05-08T08:39:49.000Z</time>
</trkpt>
<trkpt lat="43.672322" lon="3.334213">
<ele>218.4</ele>
<time>2013-05-08T08:39:50.000Z</time>
</trkpt>
<trkpt lat="43.672533" lon="3.334258">
<ele>217.1</ele>
<time>2013-05-08T08:39:51.000Z</time>
</trkpt>
<trkpt lat="43.672757" lon="3.334299">
<ele>216</ele>
<time>2013-05-08T08:39:52.000Z</time>
</trkpt>
<trkpt lat="43.672997" lon="3.334338">
<ele>214.9</ele>
<time>2013-05-08T08:39:53.000Z</time>
</trkpt>
<trkpt lat="43.673269" lon="3.334392">
<ele>214.1</ele>
<time>2013-05-08T08:39:54.000Z</time>
</trkpt>
<trkpt lat="43.673558" lon="3.334455">
<ele>213.1</ele>
<time>2013-05-08T08:39:55.000Z</time>
</trkpt>
<trkpt lat="43.67385" lon="3.334533">
<ele>211.3</ele>
<time>2013-05-08T08:39:56.000Z</time>
</trkpt>
<trkpt lat="43.674137" lon="3.334603">
<ele>209.8</ele>
<time>2013-05-08T08:39:57.000Z</time>
</trkpt>
<trkpt lat="43.674419" lon="3.334708">
<ele>208.2</ele>
<time>2013-05-08T08:39:58.000Z</time>
</trkpt>
<trkpt lat="43.674657" lon="3.334865">
<ele>206.9</ele>
<time>2013-05-08T08:39:59.000Z</time>
</trkpt>
<trkpt lat="43.674875" lon="3.335036">
<ele>205.7</ele>
<time>2013-05-08T08:40:00.000Z</time>
</trkpt>
<trkpt lat="43.675092" lon="3.335204">
<ele>204.9</ele>
<time>2013-05-08T08:40:01.000Z</time>
</trkpt>
<trkpt lat="43.675292" lon="3.335388">
<ele>204.2</ele>
<time>2013-05-08T08:40:02.000Z</time>
</trkpt>
<trkpt lat="43.675479" lon="3.335587">
<ele>203.6</ele>
<time>2013-05-08T08:40:03.000Z</time>
</trkpt>
<trkpt lat="43.67566" lon="3.335794">
<ele>202.9</ele>
<time>2013-05-08T08:40:04.000Z</time>
</trkpt>
<trkpt lat="43.675846" lon="3.336005">
<ele>202.4</ele>
<time>2013-05-08T08:40:05.000Z</time>
</trkpt>
<trkpt lat="43.676021" lon="3.336219">
<ele>202.1</ele>
<time>2013-05-08T08:40:06.000Z</time>
</trkpt>
<trkpt lat="43.676201" lon="3.336422">
<ele>201.8</ele>
<time>2013-05-08T08:40:07.000Z</time>
</trkpt>
<trkpt lat="43.676373" lon="3.336642">
<ele>200.6</ele>
<time>2013-05-08T08:40:08.000Z</time>
</trkpt>
<trkpt lat="43.676546" lon="3.336857">
<ele>199.8</ele>
<time>2013-05-08T08:40:09.000Z</time>
</trkpt>
<trkpt lat="43.676702" lon="3.337073">
<ele>198.5</ele>
<time>2013-05-08T08:40:10.000Z</time>
</trkpt>
<trkpt lat="43.676847" lon="3.337305">
<ele>197.1</ele>
<time>2013-05-08T08:40:11.000Z</time>
</trkpt>
<trkpt lat="43.676977" lon="3.337538">
<ele>195.8</ele>
<time>2013-05-08T08:40:12.000Z</time>
</trkpt>
<trkpt lat="43.677111" lon="3.337778">
<ele>194.4</ele>
<time>2013-05-08T08:40:13.000Z</time>
</trkpt>
<trkpt lat="43.677244" lon="3.338025">
<ele>193</ele>
<time>2013-05-08T08:40:14.000Z</time>
</trkpt>
<trkpt lat="43.677377" lon="3.338265">
<ele>192.1</ele>
<time>2013-05-08T08:40:15.000Z</time>
</trkpt>
<trkpt lat="43.677505" lon="3.338509">
<ele>191.1</ele>
<time>2013-05-08T08:40:16.000Z</time>
</trkpt>
<trkpt lat="43.677639" lon="3.338758">
<ele>190.5</ele>
<time>2013-05-08T08:40:17.000Z</time>
</trkpt>
<trkpt lat="43.677778" lon="3.339012">
<ele>190</ele>
<time>2013-05-08T08:40:18.000Z</time>
</trkpt>
<trkpt lat="43.677911" lon="3.339267">
<ele>189.8</ele>
<time>2013-05-08T08:40:19.000Z</time>
</trkpt>
<trkpt lat="43.678029" lon="3.339542">
<ele>190.1</ele>
<time>2013-05-08T08:40:20.000Z</time>
</trkpt>
<trkpt lat="43.678138" lon="3.339826">
<ele>190.2</ele>
<time>2013-05-08T08:40:21.000Z</time>
</trkpt>
<trkpt lat="43.678225" lon="3.340122">
<ele>190.1</ele>
<time>2013-05-08T08:40:22.000Z</time>
</trkpt>
<trkpt lat="43.678291" lon="3.340432">
<ele>189.7</ele>
<time>2013-05-08T08:40:23.000Z</time>
</trkpt>
<trkpt lat="43.678352" lon="3.34073">
<ele>188.9</ele>
<time>2013-05-08T08:40:24.000Z</time>
</trkpt>
<trkpt lat="43.678409" lon="3.341015">
<ele>187.8</ele>
<time>2013-05-08T08:40:25.000Z</time>
</trkpt>
<trkpt lat="43.67845" lon="3.341298">
<ele>186.4</ele>
<time>2013-05-08T08:40:26.000Z</time>
</trkpt>
<trkpt lat="43.678477" lon="3.341551">
<ele>185.1</ele>
<time>2013-05-08T08:40:27.000Z</time>
</trkpt>
<trkpt lat="43.678505" lon="3.341784">
<ele>183.5</ele>
<time>2013-05-08T08:40:28.000Z</time>
</trkpt>
<trkpt lat="43.678528" lon="3.34197">
<ele>182.2</ele>
<time>2013-05-08T08:40:29.000Z</time>
</trkpt>
<trkpt lat="43.678553" lon="3.342145">
<ele>181</ele>
<time>2013-05-08T08:40:30.000Z</time>
</trkpt>
<trkpt lat="43.678579" lon="3.34232">
<ele>179.9</ele>
<time>2013-05-08T08:40:31.000Z</time>
</trkpt>
<trkpt lat="43.678598" lon="3.342493">
<ele>178.8</ele>
<time>2013-05-08T08:40:32.000Z</time>
</trkpt>
<trkpt lat="43.678611" lon="3.342666">
<ele>177.7</ele>
<time>2013-05-08T08:40:33.000Z</time>
</trkpt>
<trkpt lat="43.678619" lon="3.342845">
<ele>176.6</ele>
<time>2013-05-08T08:40:34.000Z</time>
</trkpt>
<trkpt lat="43.678627" lon="3.34303">
<ele>175.6</ele>
<time>2013-05-08T08:40:35.000Z</time>
</trkpt>
<trkpt lat="43.678624" lon="3.34321">
<ele>175.1</ele>
<time>2013-05-08T08:40:36.000Z</time>
</trkpt>
<trkpt lat="43.678604" lon="3.343401">
<ele>174.5</ele>
<time>2013-05-08T08:40:37.000Z</time>
</trkpt>
<trkpt lat="43.678589" lon="3.34359">
<ele>174.4</ele>
<time>2013-05-08T08:40:38.000Z</time>
</trkpt>
<trkpt lat="43.67857" lon="3.343799">
<ele>173.5</ele>
<time>2013-05-08T08:40:39.000Z</time>
</trkpt>
<trkpt lat="43.678559" lon="3.344022">
<ele>172.8</ele>
<time>2013-05-08T08:40:40.000Z</time>
</trkpt>
<trkpt lat="43.678532" lon="3.344298">
<ele>172.5</ele>
<time>2013-05-08T08:40:41.000Z</time>
</trkpt>
<trkpt lat="43.678513" lon="3.34458">
<ele>172.1</ele>
<time>2013-05-08T08:40:42.000Z</time>
</trkpt>
<trkpt lat="43.678441" lon="3.344916">
<ele>171.6</ele>
<time>2013-05-08T08:40:43.000Z</time>
</trkpt>
<trkpt lat="43.678373" lon="3.345313">
<ele>171.1</ele>
<time>2013-05-08T08:40:44.000Z</time>
</trkpt>
<trkpt lat="43.678321" lon="3.345711">
<ele>171.2</ele>
<time>2013-05-08T08:40:45.000Z</time>
</trkpt>
<trkpt lat="43.678267" lon="3.346124">
<ele>171</ele>
<time>2013-05-08T08:40:46.000Z</time>
</trkpt>
<trkpt lat="43.678212" lon="3.346567">
<ele>170.8</ele>
<time>2013-05-08T08:40:47.000Z</time>
</trkpt>
<trkpt lat="43.678151" lon="3.347008">
<ele>170.4</ele>
<time>2013-05-08T08:40:48.000Z</time>
</trkpt>
<trkpt lat="43.678085" lon="3.34744">
<ele>170</ele>
<time>2013-05-08T08:40:49.000Z</time>
</trkpt>
<trkpt lat="43.678018" lon="3.347868">
<ele>170.2</ele>
<time>2013-05-08T08:40:50.000Z</time>
</trkpt>
<trkpt lat="43.677946" lon="3.348299">
<ele>170.1</ele>
<time>2013-05-08T08:40:51.000Z</time>
</trkpt>
<trkpt lat="43.677875" lon="3.348722">
<ele>170.6</ele>
<time>2013-05-08T08:40:52.000Z</time>
</trkpt>
<trkpt lat="43.677805" lon="3.349129">
<ele>171.3</ele>
<time>2013-05-08T08:40:53.000Z</time>
</trkpt>
<trkpt lat="43.677737" lon="3.349535">
<ele>171.8</ele>
<time>2013-05-08T08:40:54.000Z</time>
</trkpt>
<trkpt lat="43.677669" lon="3.349936">
<ele>172.2</ele>
<time>2013-05-08T08:40:55.000Z</time>
</trkpt>
<trkpt lat="43.677611" lon="3.350324">
<ele>172.3</ele>
<time>2013-05-08T08:40:56.000Z</time>
</trkpt>
<trkpt lat="43.67757" lon="3.3507">
<ele>172.4</ele>
<time>2013-05-08T08:40:57.000Z</time>
</trkpt>
<trkpt lat="43.677544" lon="3.351064">
<ele>172.6</ele>
<time>2013-05-08T08:40:58.000Z</time>
</trkpt>
<trkpt lat="43.677523" lon="3.351417">
<ele>172.9</ele>
<time>2013-05-08T08:40:59.000Z</time>
</trkpt>
<trkpt lat="43.677532" lon="3.35174">
<ele>173.4</ele>
<time>2013-05-08T08:41:00.000Z</time>
</trkpt>
<trkpt lat="43.677562" lon="3.352013">
<ele>174.2</ele>
<time>2013-05-08T08:41:01.000Z</time>
</trkpt>
<trkpt lat="43.677631" lon="3.352247">
<ele>175.1</ele>
<time>2013-05-08T08:41:02.000Z</time>
</trkpt>
<trkpt lat="43.677736" lon="3.352466">
<ele>175.8</ele>
<time>2013-05-08T08:41:03.000Z</time>
</trkpt>
<trkpt lat="43.677881" lon="3.352679">
<ele>176.5</ele>
<time>2013-05-08T08:41:04.000Z</time>
</trkpt>
<trkpt lat="43.67803" lon="3.352907">
<ele>177.1</ele>
<time>2013-05-08T08:41:05.000Z</time>
</trkpt>
<trkpt lat="43.678186" lon="3.353127">
<ele>177.8</ele>
<time>2013-05-08T08:41:06.000Z</time>
</trkpt>
<trkpt lat="43.678342" lon="3.35335">
<ele>177.6</ele>
<time>2013-05-08T08:41:07.000Z</time>
</trkpt>
<trkpt lat="43.678508" lon="3.353589">
<ele>177.2</ele>
<time>2013-05-08T08:41:08.000Z</time>
</trkpt>
<trkpt lat="43.678668" lon="3.353831">
<ele>176.8</ele>
<time>2013-05-08T08:41:09.000Z</time>
</trkpt>
<trkpt lat="43.678828" lon="3.354072">
<ele>176.5</ele>
<time>2013-05-08T08:41:10.000Z</time>
</trkpt>
<trkpt lat="43.678987" lon="3.354316">
<ele>176.4</ele>
<time>2013-05-08T08:41:11.000Z</time>
</trkpt>
<trkpt lat="43.679141" lon="3.354568">
<ele>176.4</ele>
<time>2013-05-08T08:41:12.000Z</time>
</trkpt>
<trkpt lat="43.679296" lon="3.354822">
<ele>176.3</ele>
<time>2013-05-08T08:41:13.000Z</time>
</trkpt>
<trkpt lat="43.679461" lon="3.355082">
<ele>176</ele>
<time>2013-05-08T08:41:14.000Z</time>
</trkpt>
<trkpt lat="43.679628" lon="3.355346">
<ele>175.3</ele>
<time>2013-05-08T08:41:15.000Z</time>
</trkpt>
<trkpt lat="43.679797" lon="3.355607">
<ele>174.5</ele>
<time>2013-05-08T08:41:16.000Z</time>
</trkpt>
<trkpt lat="43.679966" lon="3.355871">
<ele>173.6</ele>
<time>2013-05-08T08:41:17.000Z</time>
</trkpt>
<trkpt lat="43.680131" lon="3.356131">
<ele>172.7</ele>
<time>2013-05-08T08:41:18.000Z</time>
</trkpt>
<trkpt lat="43.680294" lon="3.356391">
<ele>172.1</ele>
<time>2013-05-08T08:41:19.000Z</time>
</trkpt>
<trkpt lat="43.680452" lon="3.356643">
<ele>171.7</ele>
<time>2013-05-08T08:41:20.000Z</time>
</trkpt>
<trkpt lat="43.68061" lon="3.356895">
<ele>171</ele>
<time>2013-05-08T08:41:21.000Z</time>
</trkpt>
<trkpt lat="43.680776" lon="3.357151">
<ele>170.2</ele>
<time>2013-05-08T08:41:22.000Z</time>
</trkpt>
<trkpt lat="43.680934" lon="3.357395">
<ele>169.5</ele>
<time>2013-05-08T08:41:23.000Z</time>
</trkpt>
<trkpt lat="43.681087" lon="3.35763">
<ele>168.9</ele>
<time>2013-05-08T08:41:24.000Z</time>
</trkpt>
<trkpt lat="43.681232" lon="3.357853">
<ele>168</ele>
<time>2013-05-08T08:41:25.000Z</time>
</trkpt>
<trkpt lat="43.681371" lon="3.358066">
<ele>167.1</ele>
<time>2013-05-08T08:41:26.000Z</time>
</trkpt>
<trkpt lat="43.681513" lon="3.358257">
<ele>166.2</ele>
<time>2013-05-08T08:41:27.000Z</time>
</trkpt>
<trkpt lat="43.68165" lon="3.35842">
<ele>165.7</ele>
<time>2013-05-08T08:41:28.000Z</time>
</trkpt>
<trkpt lat="43.681801" lon="3.358527">
<ele>165.4</ele>
<time>2013-05-08T08:41:29.000Z</time>
</trkpt>
<trkpt lat="43.681962" lon="3.35857">
<ele>165.1</ele>
<time>2013-05-08T08:41:30.000Z</time>
</trkpt>
<trkpt lat="43.682131" lon="3.358557">
<ele>164.9</ele>
<time>2013-05-08T08:41:31.000Z</time>
</trkpt>
<trkpt lat="43.682324" lon="3.35853">
<ele>164.9</ele>
<time>2013-05-08T08:41:32.000Z</time>
</trkpt>
<trkpt lat="43.682515" lon="3.358492">
<ele>164.6</ele>
<time>2013-05-08T08:41:33.000Z</time>
</trkpt>
<trkpt lat="43.682707" lon="3.358453">
<ele>164.1</ele>
<time>2013-05-08T08:41:34.000Z</time>
</trkpt>
<trkpt lat="43.6829" lon="3.358411">
<ele>163.4</ele>
<time>2013-05-08T08:41:35.000Z</time>
</trkpt>
<trkpt lat="43.683089" lon="3.358366">
<ele>162.7</ele>
<time>2013-05-08T08:41:36.000Z</time>
</trkpt>
<trkpt lat="43.683273" lon="3.358326">
<ele>162.1</ele>
<time>2013-05-08T08:41:37.000Z</time>
</trkpt>
<trkpt lat="43.68345" lon="3.358289">
<ele>161.4</ele>
<time>2013-05-08T08:41:38.000Z</time>
</trkpt>
<trkpt lat="43.683619" lon="3.358254">
<ele>160.7</ele>
<time>2013-05-08T08:41:39.000Z</time>
</trkpt>
<trkpt lat="43.683784" lon="3.358217">
<ele>160.3</ele>
<time>2013-05-08T08:41:40.000Z</time>
</trkpt>
<trkpt lat="43.683942" lon="3.35818">
<ele>160.5</ele>
<time>2013-05-08T08:41:41.000Z</time>
</trkpt>
<trkpt lat="43.68409" lon="3.358135">
<ele>161.3</ele>
<time>2013-05-08T08:41:42.000Z</time>
</trkpt>
<trkpt lat="43.684219" lon="3.358102">
<ele>162.2</ele>
<time>2013-05-08T08:41:43.000Z</time>
</trkpt>
<trkpt lat="43.684308" lon="3.358075">
<ele>162.7</ele>
<time>2013-05-08T08:41:44.000Z</time>
</trkpt>
<trkpt lat="43.684402" lon="3.358044">
<ele>163</ele>
<time>2013-05-08T08:41:45.000Z</time>
</trkpt>
<trkpt lat="43.684476" lon="3.358015">
<ele>163.1</ele>
<time>2013-05-08T08:41:46.000Z</time>
</trkpt>
<trkpt lat="43.684551" lon="3.357986">
<ele>162.8</ele>
<time>2013-05-08T08:41:47.000Z</time>
</trkpt>
<trkpt lat="43.684627" lon="3.357962">
<ele>162.5</ele>
<time>2013-05-08T08:41:48.000Z</time>
</trkpt>
<trkpt lat="43.684697" lon="3.357911">
<ele>163.1</ele>
<time>2013-05-08T08:41:49.000Z</time>
</trkpt>
<trkpt lat="43.684758" lon="3.357828">
<ele>164</ele>
<time>2013-05-08T08:41:50.000Z</time>
</trkpt>
<trkpt lat="43.684802" lon="3.357709">
<ele>164.8</ele>
<time>2013-05-08T08:41:51.000Z</time>
</trkpt>
<trkpt lat="43.684853" lon="3.357571">
<ele>165.5</ele>
<time>2013-05-08T08:41:52.000Z</time>
</trkpt>
<trkpt lat="43.684914" lon="3.35741">
<ele>165.7</ele>
<time>2013-05-08T08:41:53.000Z</time>
</trkpt>
<trkpt lat="43.684991" lon="3.357234">
<ele>165.7</ele>
<time>2013-05-08T08:41:54.000Z</time>
</trkpt>
<trkpt lat="43.685072" lon="3.357069">
<ele>165.5</ele>
<time>2013-05-08T08:41:55.000Z</time>
</trkpt>
<trkpt lat="43.685176" lon="3.356928">
<ele>165.4</ele>
<time>2013-05-08T08:41:56.000Z</time>
</trkpt>
<trkpt lat="43.685285" lon="3.356802">
<ele>165.1</ele>
<time>2013-05-08T08:41:57.000Z</time>
</trkpt>
<trkpt lat="43.685433" lon="3.356692">
<ele>165</ele>
<time>2013-05-08T08:41:58.000Z</time>
</trkpt>
<trkpt lat="43.68559" lon="3.356584">
<ele>164.8</ele>
<time>2013-05-08T08:41:59.000Z</time>
</trkpt>
<trkpt lat="43.685759" lon="3.356481">
<ele>164.9</ele>
<time>2013-05-08T08:42:00.000Z</time>
</trkpt>
<trkpt lat="43.685929" lon="3.35639">
<ele>164.8</ele>
<time>2013-05-08T08:42:01.000Z</time>
</trkpt>
<trkpt lat="43.686107" lon="3.356297">
<ele>164.7</ele>
<time>2013-05-08T08:42:02.000Z</time>
</trkpt>
<trkpt lat="43.686289" lon="3.356173">
<ele>164.6</ele>
<time>2013-05-08T08:42:03.000Z</time>
</trkpt>
<trkpt lat="43.686468" lon="3.356026">
<ele>164.5</ele>
<time>2013-05-08T08:42:04.000Z</time>
</trkpt>
<trkpt lat="43.686642" lon="3.355852">
<ele>164</ele>
<time>2013-05-08T08:42:05.000Z</time>
</trkpt>
<trkpt lat="43.686819" lon="3.355666">
<ele>163.6</ele>
<time>2013-05-08T08:42:06.000Z</time>
</trkpt>
<trkpt lat="43.687003" lon="3.355471">
<ele>163.2</ele>
<time>2013-05-08T08:42:07.000Z</time>
</trkpt>
<trkpt lat="43.687183" lon="3.355247">
<ele>163.2</ele>
<time>2013-05-08T08:42:08.000Z</time>
</trkpt>
<trkpt lat="43.68736" lon="3.355004">
<ele>162.8</ele>
<time>2013-05-08T08:42:09.000Z</time>
</trkpt>
<trkpt lat="43.687535" lon="3.354741">
<ele>162.8</ele>
<time>2013-05-08T08:42:10.000Z</time>
</trkpt>
<trkpt lat="43.687707" lon="3.354467">
<ele>163.1</ele>
<time>2013-05-08T08:42:11.000Z</time>
</trkpt>
<trkpt lat="43.692172" lon="3.343605">
<ele>194.2</ele>
<time>2013-05-08T08:42:52.123Z</time>
</trkpt>
<trkpt lat="43.692203" lon="3.343582">
<ele>177.9</ele>
<time>2013-05-08T08:42:53.999Z</time>
</trkpt>
<trkpt lat="43.692233" lon="3.343525">
<ele>174.5</ele>
<time>2013-05-08T08:42:54.999Z</time>
</trkpt>
<trkpt lat="43.692233" lon="3.343525">
<ele>180.2</ele>
<time>2013-05-08T08:42:56.999Z</time>
</trkpt>
<trkpt lat="43.692348" lon="3.34345">
<ele>181.9</ele>
<time>2013-05-08T08:42:57.999Z</time>
</trkpt>
<trkpt lat="43.692453" lon="3.343466">
<ele>185.2</ele>
<time>2013-05-08T08:42:58.999Z</time>
</trkpt>
<trkpt lat="43.692546" lon="3.343469">
<ele>184.6</ele>
<time>2013-05-08T08:42:59.999Z</time>
</trkpt>
<trkpt lat="43.692638" lon="3.343422">
<ele>182</ele>
<time>2013-05-08T08:43:00.999Z</time>
</trkpt>
<trkpt lat="43.692703" lon="3.343341">
<ele>183.3</ele>
<time>2013-05-08T08:43:01.999Z</time>
</trkpt>
<trkpt lat="43.692744" lon="3.343216">
<ele>182.8</ele>
<time>2013-05-08T08:43:02.999Z</time>
</trkpt>
<trkpt lat="43.692781" lon="3.343082">
<ele>177.4</ele>
<time>2013-05-08T08:43:03.999Z</time>
</trkpt>
<trkpt lat="43.692801" lon="3.342968">
<ele>175</ele>
<time>2013-05-08T08:43:04.999Z</time>
</trkpt>
<trkpt lat="43.69274" lon="3.342879">
<ele>173.3</ele>
<time>2013-05-08T08:43:05.999Z</time>
</trkpt>
<trkpt lat="43.692687" lon="3.34278">
<ele>172.5</ele>
<time>2013-05-08T08:43:06.999Z</time>
</trkpt>
<trkpt lat="43.692688" lon="3.342675">
<ele>172.4</ele>
<time>2013-05-08T08:43:07.999Z</time>
</trkpt>
<trkpt lat="43.692716" lon="3.342583">
<ele>174.9</ele>
<time>2013-05-08T08:43:08.999Z</time>
</trkpt>
<trkpt lat="43.69276" lon="3.342502">
<ele>177.5</ele>
<time>2013-05-08T08:43:09.999Z</time>
</trkpt>
<trkpt lat="43.692831" lon="3.342472">
<ele>177.8</ele>
<time>2013-05-08T08:43:10.999Z</time>
</trkpt>
<trkpt lat="43.692921" lon="3.342477">
<ele>179.4</ele>
<time>2013-05-08T08:43:11.999Z</time>
</trkpt>
<trkpt lat="43.693023" lon="3.342505">
<ele>180</ele>
<time>2013-05-08T08:43:12.999Z</time>
</trkpt>
<trkpt lat="43.69315" lon="3.342553">
<ele>182.3</ele>
<time>2013-05-08T08:43:13.999Z</time>
</trkpt>
<trkpt lat="43.693295" lon="3.342603">
<ele>183.8</ele>
<time>2013-05-08T08:43:14.999Z</time>
</trkpt>
<trkpt lat="43.693454" lon="3.342654">
<ele>184.5</ele>
<time>2013-05-08T08:43:15.999Z</time>
</trkpt>
<trkpt lat="43.693611" lon="3.342686">
<ele>184.6</ele>
<time>2013-05-08T08:43:16.999Z</time>
</trkpt>
<trkpt lat="43.693764" lon="3.342703">
<ele>182.6</ele>
<time>2013-05-08T08:43:17.999Z</time>
</trkpt>
<trkpt lat="43.693924" lon="3.342708">
<ele>181.6</ele>
<time>2013-05-08T08:43:18.999Z</time>
</trkpt>
<trkpt lat="43.694112" lon="3.342665">
<ele>181.3</ele>
<time>2013-05-08T08:43:19.999Z</time>
</trkpt>
<trkpt lat="43.694303" lon="3.342606">
<ele>180.6</ele>
<time>2013-05-08T08:43:20.999Z</time>
</trkpt>
<trkpt lat="43.694497" lon="3.342551">
<ele>179.6</ele>
<time>2013-05-08T08:43:21.999Z</time>
</trkpt>
<trkpt lat="43.694689" lon="3.342497">
<ele>178.9</ele>
<time>2013-05-08T08:43:22.999Z</time>
</trkpt>
<trkpt lat="43.694883" lon="3.342433">
<ele>178.2</ele>
<time>2013-05-08T08:43:23.999Z</time>
</trkpt>
<trkpt lat="43.69507" lon="3.342371">
<ele>177</ele>
<time>2013-05-08T08:43:24.999Z</time>
</trkpt>
<trkpt lat="43.695242" lon="3.3423">
<ele>176.1</ele>
<time>2013-05-08T08:43:25.999Z</time>
</trkpt>
<trkpt lat="43.695413" lon="3.342204">
<ele>175.2</ele>
<time>2013-05-08T08:43:26.999Z</time>
</trkpt>
<trkpt lat="43.695563" lon="3.342098">
<ele>174.4</ele>
<time>2013-05-08T08:43:27.999Z</time>
</trkpt>
<trkpt lat="43.695679" lon="3.341931">
<ele>173.1</ele>
<time>2013-05-08T08:43:28.999Z</time>
</trkpt>
<trkpt lat="43.695787" lon="3.341726">
<ele>171.2</ele>
<time>2013-05-08T08:43:29.999Z</time>
</trkpt>
<trkpt lat="43.695898" lon="3.341488">
<ele>169.5</ele>
<time>2013-05-08T08:43:30.999Z</time>
</trkpt>
<trkpt lat="43.695991" lon="3.341193">
<ele>168</ele>
<time>2013-05-08T08:43:31.999Z</time>
</trkpt>
<trkpt lat="43.696114" lon="3.340911">
<ele>167.5</ele>
<time>2013-05-08T08:43:32.999Z</time>
</trkpt>
<trkpt lat="43.696242" lon="3.340637">
<ele>167.7</ele>
<time>2013-05-08T08:43:33.999Z</time>
</trkpt>
<trkpt lat="43.696384" lon="3.34036">
<ele>168.1</ele>
<time>2013-05-08T08:43:34.999Z</time>
</trkpt>
<trkpt lat="43.696527" lon="3.34008">
<ele>168.7</ele>
<time>2013-05-08T08:43:35.999Z</time>
</trkpt>
<trkpt lat="43.696672" lon="3.339806">
<ele>169.2</ele>
<time>2013-05-08T08:43:36.999Z</time>
</trkpt>
<trkpt lat="43.696822" lon="3.339529">
<ele>169.6</ele>
<time>2013-05-08T08:43:37.999Z</time>
</trkpt>
<trkpt lat="43.69697" lon="3.339257">
<ele>169.9</ele>
<time>2013-05-08T08:43:38.999Z</time>
</trkpt>
<trkpt lat="43.697119" lon="3.338988">
<ele>170.1</ele>
<time>2013-05-08T08:43:39.999Z</time>
</trkpt>
<trkpt lat="43.697274" lon="3.338722">
<ele>170.5</ele>
<time>2013-05-08T08:43:40.999Z</time>
</trkpt>
<trkpt lat="43.697418" lon="3.33847">
<ele>171.7</ele>
<time>2013-05-08T08:43:41.999Z</time>
</trkpt>
<trkpt lat="43.697565" lon="3.338215">
<ele>172.4</ele>
<time>2013-05-08T08:43:42.999Z</time>
</trkpt>
<trkpt lat="43.697689" lon="3.337961">
<ele>173.1</ele>
<time>2013-05-08T08:43:43.999Z</time>
</trkpt>
<trkpt lat="43.697799" lon="3.337692">
<ele>173.4</ele>
<time>2013-05-08T08:43:44.999Z</time>
</trkpt>
<trkpt lat="43.697911" lon="3.337401">
<ele>174.1</ele>
<time>2013-05-08T08:43:45.999Z</time>
</trkpt>
<trkpt lat="43.697988" lon="3.337085">
<ele>174.5</ele>
<time>2013-05-08T08:43:46.999Z</time>
</trkpt>
<trkpt lat="43.698041" lon="3.336765">
<ele>175.1</ele>
<time>2013-05-08T08:43:47.999Z</time>
</trkpt>
<trkpt lat="43.698045" lon="3.336429">
<ele>175.8</ele>
<time>2013-05-08T08:43:48.999Z</time>
</trkpt>
<trkpt lat="43.698049" lon="3.336142">
<ele>176.7</ele>
<time>2013-05-08T08:43:49.999Z</time>
</trkpt>
<trkpt lat="43.698022" lon="3.33586">
<ele>177.4</ele>
<time>2013-05-08T08:43:50.999Z</time>
</trkpt>
<trkpt lat="43.698023" lon="3.33558">
<ele>178.8</ele>
<time>2013-05-08T08:43:51.999Z</time>
</trkpt>
<trkpt lat="43.698022" lon="3.335292">
<ele>179.6</ele>
<time>2013-05-08T08:43:52.999Z</time>
</trkpt>
<trkpt lat="43.698021" lon="3.335002">
<ele>180.6</ele>
<time>2013-05-08T08:43:53.999Z</time>
</trkpt>
<trkpt lat="43.698023" lon="3.334716">
<ele>181</ele>
<time>2013-05-08T08:43:54.999Z</time>
</trkpt>
<trkpt lat="43.698044" lon="3.334415">
<ele>181.4</ele>
<time>2013-05-08T08:43:55.999Z</time>
</trkpt>
<trkpt lat="43.698064" lon="3.334105">
<ele>180.9</ele>
<time>2013-05-08T08:43:56.999Z</time>
</trkpt>
<trkpt lat="43.698099" lon="3.333797">
<ele>181.4</ele>
<time>2013-05-08T08:43:57.999Z</time>
</trkpt>
<trkpt lat="43.698152" lon="3.333479">
<ele>181.6</ele>
<time>2013-05-08T08:43:58.999Z</time>
</trkpt>
<trkpt lat="43.698204" lon="3.333149">
<ele>181.5</ele>
<time>2013-05-08T08:43:59.999Z</time>
</trkpt>
<trkpt lat="43.698265" lon="3.332832">
<ele>181</ele>
<time>2013-05-08T08:44:00.999Z</time>
</trkpt>
<trkpt lat="43.698343" lon="3.332516">
<ele>180.4</ele>
<time>2013-05-08T08:44:01.999Z</time>
</trkpt>
<trkpt lat="43.698438" lon="3.332211">
<ele>180</ele>
<time>2013-05-08T08:44:02.999Z</time>
</trkpt>
<trkpt lat="43.698549" lon="3.331923">
<ele>179.6</ele>
<time>2013-05-08T08:44:03.999Z</time>
</trkpt>
<trkpt lat="43.698716" lon="3.331653">
<ele>179.6</ele>
<time>2013-05-08T08:44:04.999Z</time>
</trkpt>
<trkpt lat="43.698932" lon="3.331424">
<ele>179.9</ele>
<time>2013-05-08T08:44:05.999Z</time>
</trkpt>
<trkpt lat="43.699157" lon="3.331205">
<ele>181.2</ele>
<time>2013-05-08T08:44:06.999Z</time>
</trkpt>
<trkpt lat="43.699413" lon="3.331013">
<ele>182.7</ele>
<time>2013-05-08T08:44:07.999Z</time>
</trkpt>
<trkpt lat="43.699661" lon="3.330817">
<ele>184</ele>
<time>2013-05-08T08:44:08.999Z</time>
</trkpt>
<trkpt lat="43.699901" lon="3.330629">
<ele>184.9</ele>
<time>2013-05-08T08:44:09.999Z</time>
</trkpt>
<trkpt lat="43.700172" lon="3.330461">
<ele>185.8</ele>
<time>2013-05-08T08:44:10.999Z</time>
</trkpt>
<trkpt lat="43.700462" lon="3.330337">
<ele>187.1</ele>
<time>2013-05-08T08:44:11.999Z</time>
</trkpt>
<trkpt lat="43.700751" lon="3.330219">
<ele>188.6</ele>
<time>2013-05-08T08:44:12.999Z</time>
</trkpt>
<trkpt lat="43.701027" lon="3.330098">
<ele>189.5</ele>
<time>2013-05-08T08:44:13.999Z</time>
</trkpt>
<trkpt lat="43.7013" lon="3.329962">
<ele>189.9</ele>
<time>2013-05-08T08:44:14.999Z</time>
</trkpt>
<trkpt lat="43.701557" lon="3.329821">
<ele>190.1</ele>
<time>2013-05-08T08:44:15.999Z</time>
</trkpt>
<trkpt lat="43.70181" lon="3.329689">
<ele>190</ele>
<time>2013-05-08T08:44:16.999Z</time>
</trkpt>
<trkpt lat="43.702062" lon="3.329559">
<ele>189.9</ele>
<time>2013-05-08T08:44:17.999Z</time>
</trkpt>
<trkpt lat="43.702304" lon="3.329432">
<ele>189.5</ele>
<time>2013-05-08T08:44:18.999Z</time>
</trkpt>
<trkpt lat="43.702548" lon="3.329305">
<ele>189</ele>
<time>2013-05-08T08:44:19.999Z</time>
</trkpt>
<trkpt lat="43.702798" lon="3.329178">
<ele>188</ele>
<time>2013-05-08T08:44:20.999Z</time>
</trkpt>
<trkpt lat="43.703053" lon="3.329056">
<ele>186.8</ele>
<time>2013-05-08T08:44:21.999Z</time>
</trkpt>
<trkpt lat="43.703303" lon="3.328927">
<ele>185.4</ele>
<time>2013-05-08T08:44:22.999Z</time>
</trkpt>
<trkpt lat="43.703549" lon="3.328795">
<ele>183.9</ele>
<time>2013-05-08T08:44:23.999Z</time>
</trkpt>
<trkpt lat="43.703794" lon="3.328661">
<ele>182.9</ele>
<time>2013-05-08T08:44:24.999Z</time>
</trkpt>
<trkpt lat="43.704038" lon="3.328527">
<ele>182</ele>
<time>2013-05-08T08:44:25.999Z</time>
</trkpt>
<trkpt lat="43.704279" lon="3.328399">
<ele>181.2</ele>
<time>2013-05-08T08:44:26.999Z</time>
</trkpt>
<trkpt lat="43.704516" lon="3.328275">
<ele>180.5</ele>
<time>2013-05-08T08:44:27.999Z</time>
</trkpt>
<trkpt lat="43.704755" lon="3.328149">
<ele>180.1</ele>
<time>2013-05-08T08:44:28.999Z</time>
</trkpt>
<trkpt lat="43.704995" lon="3.328026">
<ele>179.8</ele>
<time>2013-05-08T08:44:29.999Z</time>
</trkpt>
<trkpt lat="43.705226" lon="3.327906">
<ele>179</ele>
<time>2013-05-08T08:44:30.999Z</time>
</trkpt>
<trkpt lat="43.705458" lon="3.32778">
<ele>178.2</ele>
<time>2013-05-08T08:44:31.999Z</time>
</trkpt>
<trkpt lat="43.70569" lon="3.327646">
<ele>177.2</ele>
<time>2013-05-08T08:44:32.999Z</time>
</trkpt>
<trkpt lat="43.705923" lon="3.327516">
<ele>176.4</ele>
<time>2013-05-08T08:44:33.999Z</time>
</trkpt>
<trkpt lat="43.706153" lon="3.32739">
<ele>175.5</ele>
<time>2013-05-08T08:44:34.999Z</time>
</trkpt>
<trkpt lat="43.706382" lon="3.32726">
<ele>175.1</ele>
<time>2013-05-08T08:44:35.999Z</time>
</trkpt>
<trkpt lat="43.706624" lon="3.327123">
<ele>175</ele>
<time>2013-05-08T08:44:36.999Z</time>
</trkpt>
<trkpt lat="43.706873" lon="3.32699">
<ele>175.1</ele>
<time>2013-05-08T08:44:37.999Z</time>
</trkpt>
<trkpt lat="43.707119" lon="3.326856">
<ele>175.1</ele>
<time>2013-05-08T08:44:38.999Z</time>
</trkpt>
<trkpt lat="43.707364" lon="3.326722">
<ele>175</ele>
<time>2013-05-08T08:44:39.999Z</time>
</trkpt>
<trkpt lat="43.707601" lon="3.326581">
<ele>175.2</ele>
<time>2013-05-08T08:44:40.999Z</time>
</trkpt>
<trkpt lat="43.707844" lon="3.326435">
<ele>175.4</ele>
<time>2013-05-08T08:44:41.999Z</time>
</trkpt>
<trkpt lat="43.70809" lon="3.326288">
<ele>175.6</ele>
<time>2013-05-08T08:44:42.999Z</time>
</trkpt>
<trkpt lat="43.708339" lon="3.326142">
<ele>176.1</ele>
<time>2013-05-08T08:44:43.999Z</time>
</trkpt>
<trkpt lat="43.708577" lon="3.326007">
<ele>176.4</ele>
<time>2013-05-08T08:44:44.999Z</time>
</trkpt>
<trkpt lat="43.708807" lon="3.325869">
<ele>176.6</ele>
<time>2013-05-08T08:44:45.999Z</time>
</trkpt>
<trkpt lat="43.709044" lon="3.325725">
<ele>177</ele>
<time>2013-05-08T08:44:46.999Z</time>
</trkpt>
<trkpt lat="43.709264" lon="3.325588">
<ele>177.6</ele>
<time>2013-05-08T08:44:47.999Z</time>
</trkpt>
<trkpt lat="43.709478" lon="3.325457">
<ele>178.4</ele>
<time>2013-05-08T08:44:48.999Z</time>
</trkpt>
<trkpt lat="43.709698" lon="3.325327">
<ele>179</ele>
<time>2013-05-08T08:44:49.999Z</time>
</trkpt>
<trkpt lat="43.709922" lon="3.325197">
<ele>179.6</ele>
<time>2013-05-08T08:44:50.999Z</time>
</trkpt>
<trkpt lat="43.710148" lon="3.325061">
<ele>180.5</ele>
<time>2013-05-08T08:44:51.999Z</time>
</trkpt>
<trkpt lat="43.71037" lon="3.32493">
<ele>181.2</ele>
<time>2013-05-08T08:44:52.999Z</time>
</trkpt>
<trkpt lat="43.710596" lon="3.324795">
<ele>181.5</ele>
<time>2013-05-08T08:44:53.999Z</time>
</trkpt>
<trkpt lat="43.710827" lon="3.324656">
<ele>181.5</ele>
<time>2013-05-08T08:44:54.999Z</time>
</trkpt>
<trkpt lat="43.711042" lon="3.324535">
<ele>181</ele>
<time>2013-05-08T08:44:55.999Z</time>
</trkpt>
<trkpt lat="43.71127" lon="3.324412">
<ele>180.6</ele>
<time>2013-05-08T08:44:56.999Z</time>
</trkpt>
<trkpt lat="43.71151" lon="3.324291">
<ele>180.7</ele>
<time>2013-05-08T08:44:57.999Z</time>
</trkpt>
<trkpt lat="43.711752" lon="3.324177">
<ele>181.6</ele>
<time>2013-05-08T08:44:58.999Z</time>
</trkpt>
<trkpt lat="43.712001" lon="3.324099">
<ele>182.4</ele>
<time>2013-05-08T08:44:59.999Z</time>
</trkpt>
<trkpt lat="43.712255" lon="3.324073">
<ele>183.3</ele>
<time>2013-05-08T08:45:00.999Z</time>
</trkpt>
<trkpt lat="43.712499" lon="3.324059">
<ele>184</ele>
<time>2013-05-08T08:45:01.999Z</time>
</trkpt>
<trkpt lat="43.712751" lon="3.324062">
<ele>184.9</ele>
<time>2013-05-08T08:45:02.999Z</time>
</trkpt>
<trkpt lat="43.713003" lon="3.324069">
<ele>185.9</ele>
<time>2013-05-08T08:45:03.999Z</time>
</trkpt>
<trkpt lat="43.713236" lon="3.324083">
<ele>186.7</ele>
<time>2013-05-08T08:45:04.999Z</time>
</trkpt>
<trkpt lat="43.713442" lon="3.32409">
<ele>187.7</ele>
<time>2013-05-08T08:45:05.999Z</time>
</trkpt>
<trkpt lat="43.713656" lon="3.324096">
<ele>188.6</ele>
<time>2013-05-08T08:45:06.999Z</time>
</trkpt>
<trkpt lat="43.713856" lon="3.324087">
<ele>189</ele>
<time>2013-05-08T08:45:07.999Z</time>
</trkpt>
<trkpt lat="43.714038" lon="3.324071">
<ele>189.5</ele>
<time>2013-05-08T08:45:08.999Z</time>
</trkpt>
<trkpt lat="43.714211" lon="3.324062">
<ele>190.5</ele>
<time>2013-05-08T08:45:09.999Z</time>
</trkpt>
<trkpt lat="43.71436" lon="3.32405">
<ele>192.1</ele>
<time>2013-05-08T08:45:10.999Z</time>
</trkpt>
<trkpt lat="43.714504" lon="3.324052">
<ele>193.2</ele>
<time>2013-05-08T08:45:11.999Z</time>
</trkpt>
<trkpt lat="43.714664" lon="3.324058">
<ele>194.2</ele>
<time>2013-05-08T08:45:12.999Z</time>
</trkpt>
<trkpt lat="43.71482" lon="3.32407">
<ele>194.4</ele>
<time>2013-05-08T08:45:13.999Z</time>
</trkpt>
<trkpt lat="43.714987" lon="3.324081">
<ele>194.3</ele>
<time>2013-05-08T08:45:14.999Z</time>
</trkpt>
<trkpt lat="43.715159" lon="3.324094">
<ele>194.1</ele>
<time>2013-05-08T08:45:15.999Z</time>
</trkpt>
<trkpt lat="43.715338" lon="3.324106">
<ele>193.9</ele>
<time>2013-05-08T08:45:16.999Z</time>
</trkpt>
<trkpt lat="43.715535" lon="3.32412">
<ele>193.9</ele>
<time>2013-05-08T08:45:17.999Z</time>
</trkpt>
<trkpt lat="43.715741" lon="3.324123">
<ele>193.7</ele>
<time>2013-05-08T08:45:18.999Z</time>
</trkpt>
<trkpt lat="43.715963" lon="3.324136">
<ele>193.4</ele>
<time>2013-05-08T08:45:19.999Z</time>
</trkpt>
<trkpt lat="43.716196" lon="3.324146">
<ele>193.4</ele>
<time>2013-05-08T08:45:20.999Z</time>
</trkpt>
<trkpt lat="43.716437" lon="3.324153">
<ele>193.4</ele>
<time>2013-05-08T08:45:21.999Z</time>
</trkpt>
<trkpt lat="43.71667" lon="3.324159">
<ele>193.2</ele>
<time>2013-05-08T08:45:22.999Z</time>
</trkpt>
<trkpt lat="43.716898" lon="3.324164">
<ele>192.6</ele>
<time>2013-05-08T08:45:23.999Z</time>
</trkpt>
<trkpt lat="43.717126" lon="3.32417">
<ele>191.6</ele>
<time>2013-05-08T08:45:24.999Z</time>
</trkpt>
<trkpt lat="43.717349" lon="3.324178">
<ele>191.3</ele>
<time>2013-05-08T08:45:25.999Z</time>
</trkpt>
<trkpt lat="43.717565" lon="3.324188">
<ele>191.6</ele>
<time>2013-05-08T08:45:26.999Z</time>
</trkpt>
<trkpt lat="43.71778" lon="3.324193">
<ele>192</ele>
<time>2013-05-08T08:45:27.999Z</time>
</trkpt>
<trkpt lat="43.717992" lon="3.324197">
<ele>192.1</ele>
<time>2013-05-08T08:45:28.999Z</time>
</trkpt>
<trkpt lat="43.718203" lon="3.324207">
<ele>191.8</ele>
<time>2013-05-08T08:45:29.999Z</time>
</trkpt>
<trkpt lat="43.718417" lon="3.324225">
<ele>191.5</ele>
<time>2013-05-08T08:45:30.999Z</time>
</trkpt>
<trkpt lat="43.718631" lon="3.324244">
<ele>190.9</ele>
<time>2013-05-08T08:45:31.999Z</time>
</trkpt>
<trkpt lat="43.718844" lon="3.324256">
<ele>190.4</ele>
<time>2013-05-08T08:45:32.999Z</time>
</trkpt>
<trkpt lat="43.719056" lon="3.324266">
<ele>189.5</ele>
<time>2013-05-08T08:45:33.999Z</time>
</trkpt>
<trkpt lat="43.719261" lon="3.324271">
<ele>188.9</ele>
<time>2013-05-08T08:45:34.999Z</time>
</trkpt>
<trkpt lat="43.719473" lon="3.324273">
<ele>188.6</ele>
<time>2013-05-08T08:45:35.999Z</time>
</trkpt>
<trkpt lat="43.71969" lon="3.324272">
<ele>188.8</ele>
<time>2013-05-08T08:45:36.999Z</time>
</trkpt>
<trkpt lat="43.719912" lon="3.324275">
<ele>188.9</ele>
<time>2013-05-08T08:45:37.999Z</time>
</trkpt>
<trkpt lat="43.720135" lon="3.324284">
<ele>189.1</ele>
<time>2013-05-08T08:45:38.999Z</time>
</trkpt>
<trkpt lat="43.72036" lon="3.324287">
<ele>189.3</ele>
<time>2013-05-08T08:45:39.999Z</time>
</trkpt>
<trkpt lat="43.720583" lon="3.324289">
<ele>189.4</ele>
<time>2013-05-08T08:45:40.999Z</time>
</trkpt>
<trkpt lat="43.720807" lon="3.324284">
<ele>189.4</ele>
<time>2013-05-08T08:45:41.999Z</time>
</trkpt>
<trkpt lat="43.721029" lon="3.324278">
<ele>189.3</ele>
<time>2013-05-08T08:45:42.999Z</time>
</trkpt>
<trkpt lat="43.72125" lon="3.324271">
<ele>189.2</ele>
<time>2013-05-08T08:45:43.999Z</time>
</trkpt>
<trkpt lat="43.721456" lon="3.324254">
<ele>189.1</ele>
<time>2013-05-08T08:45:44.999Z</time>
</trkpt>
<trkpt lat="43.72165" lon="3.324234">
<ele>189.5</ele>
<time>2013-05-08T08:45:45.999Z</time>
</trkpt>
<trkpt lat="43.721839" lon="3.324193">
<ele>190.1</ele>
<time>2013-05-08T08:45:46.999Z</time>
</trkpt>
<trkpt lat="43.722011" lon="3.324119">
<ele>190.9</ele>
<time>2013-05-08T08:45:47.999Z</time>
</trkpt>
<trkpt lat="43.722175" lon="3.32401">
<ele>191.5</ele>
<time>2013-05-08T08:45:48.999Z</time>
</trkpt>
<trkpt lat="43.722319" lon="3.323908">
<ele>191.9</ele>
<time>2013-05-08T08:45:49.999Z</time>
</trkpt>
<trkpt lat="43.722426" lon="3.323832">
<ele>192.3</ele>
<time>2013-05-08T08:45:50.999Z</time>
</trkpt>
<trkpt lat="43.72251" lon="3.323777">
<ele>192.5</ele>
<time>2013-05-08T08:45:51.999Z</time>
</trkpt>
<trkpt lat="43.722598" lon="3.32372">
<ele>192.9</ele>
<time>2013-05-08T08:45:52.999Z</time>
</trkpt>
<trkpt lat="43.722657" lon="3.323666">
<ele>193.7</ele>
<time>2013-05-08T08:45:53.999Z</time>
</trkpt>
<trkpt lat="43.722678" lon="3.323609">
<ele>194.1</ele>
<time>2013-05-08T08:45:54.999Z</time>
</trkpt>
<trkpt lat="43.722698" lon="3.323545">
<ele>194.1</ele>
<time>2013-05-08T08:45:55.999Z</time>
</trkpt>
<trkpt lat="43.722718" lon="3.32351">
<ele>193.7</ele>
<time>2013-05-08T08:45:56.999Z</time>
</trkpt>
<trkpt lat="43.722755" lon="3.323453">
<ele>193.4</ele>
<time>2013-05-08T08:45:57.999Z</time>
</trkpt>
<trkpt lat="43.722795" lon="3.323376">
<ele>192.6</ele>
<time>2013-05-08T08:45:58.999Z</time>
</trkpt>
<trkpt lat="43.72288" lon="3.323253">
<ele>191.3</ele>
<time>2013-05-08T08:45:59.999Z</time>
</trkpt>
<trkpt lat="43.722995" lon="3.323116">
<ele>191.1</ele>
<time>2013-05-08T08:46:00.999Z</time>
</trkpt>
<trkpt lat="43.723108" lon="3.322987">
<ele>191.2</ele>
<time>2013-05-08T08:46:01.999Z</time>
</trkpt>
<trkpt lat="43.723241" lon="3.322834">
<ele>191.1</ele>
<time>2013-05-08T08:46:02.999Z</time>
</trkpt>
<trkpt lat="43.723371" lon="3.322702">
<ele>191</ele>
<time>2013-05-08T08:46:03.999Z</time>
</trkpt>
<trkpt lat="43.723497" lon="3.322576">
<ele>190.9</ele>
<time>2013-05-08T08:46:04.999Z</time>
</trkpt>
<trkpt lat="43.723612" lon="3.322453">
<ele>191.2</ele>
<time>2013-05-08T08:46:05.999Z</time>
</trkpt>
<trkpt lat="43.723717" lon="3.322327">
<ele>192</ele>
<time>2013-05-08T08:46:06.999Z</time>
</trkpt>
<trkpt lat="43.723791" lon="3.322207">
<ele>192.7</ele>
<time>2013-05-08T08:46:07.999Z</time>
</trkpt>
<trkpt lat="43.723832" lon="3.322063">
<ele>193.7</ele>
<time>2013-05-08T08:46:08.999Z</time>
</trkpt>
<trkpt lat="43.723863" lon="3.321945">
<ele>194.4</ele>
<time>2013-05-08T08:46:09.999Z</time>
</trkpt>
<trkpt lat="43.723892" lon="3.321848">
<ele>194.8</ele>
<time>2013-05-08T08:46:10.999Z</time>
</trkpt>
<trkpt lat="43.723915" lon="3.32175">
<ele>195.3</ele>
<time>2013-05-08T08:46:11.999Z</time>
</trkpt>
<trkpt lat="43.723948" lon="3.321706">
<ele>196.3</ele>
<time>2013-05-08T08:46:12.999Z</time>
</trkpt>
<trkpt lat="43.723975" lon="3.321719">
<ele>196.9</ele>
<time>2013-05-08T08:46:13.999Z</time>
</trkpt>
<trkpt lat="43.723984" lon="3.321752">
<ele>197</ele>
<time>2013-05-08T08:46:14.999Z</time>
</trkpt>
<trkpt lat="43.723993" lon="3.321786">
<ele>197.5</ele>
<time>2013-05-08T08:46:19.999Z</time>
</trkpt>
<trkpt lat="43.724021" lon="3.321876">
<ele>197.6</ele>
<time>2013-05-08T08:46:20.999Z</time>
</trkpt>
<trkpt lat="43.724077" lon="3.321836">
<ele>199.3</ele>
<time>2013-05-08T08:46:21.999Z</time>
</trkpt>
<trkpt lat="43.724158" lon="3.321778">
<ele>199.9</ele>
<time>2013-05-08T08:46:22.999Z</time>
</trkpt>
<trkpt lat="43.724262" lon="3.321709">
<ele>200</ele>
<time>2013-05-08T08:46:23.999Z</time>
</trkpt>
<trkpt lat="43.724365" lon="3.321636">
<ele>200.2</ele>
<time>2013-05-08T08:46:24.999Z</time>
</trkpt>
<trkpt lat="43.724466" lon="3.32158">
<ele>200.5</ele>
<time>2013-05-08T08:46:25.999Z</time>
</trkpt>
<trkpt lat="43.724568" lon="3.321541">
<ele>200.3</ele>
<time>2013-05-08T08:46:26.999Z</time>
</trkpt>
<trkpt lat="43.724681" lon="3.321511">
<ele>200.1</ele>
<time>2013-05-08T08:46:27.999Z</time>
</trkpt>
<trkpt lat="43.724797" lon="3.321486">
<ele>199.9</ele>
<time>2013-05-08T08:46:28.999Z</time>
</trkpt>
<trkpt lat="43.724928" lon="3.321499">
<ele>199.4</ele>
<time>2013-05-08T08:46:29.999Z</time>
</trkpt>
<trkpt lat="43.725051" lon="3.321553">
<ele>198.6</ele>
<time>2013-05-08T08:46:30.999Z</time>
</trkpt>
<trkpt lat="43.725174" lon="3.321627">
<ele>197.9</ele>
<time>2013-05-08T08:46:31.999Z</time>
</trkpt>
<trkpt lat="43.725286" lon="3.321692">
<ele>197.5</ele>
<time>2013-05-08T08:46:32.999Z</time>
</trkpt>
<trkpt lat="43.725383" lon="3.321783">
<ele>197.5</ele>
<time>2013-05-08T08:46:33.999Z</time>
</trkpt>
<trkpt lat="43.725458" lon="3.321893">
<ele>197.6</ele>
<time>2013-05-08T08:46:34.999Z</time>
</trkpt>
<trkpt lat="43.725531" lon="3.321985">
<ele>197.7</ele>
<time>2013-05-08T08:46:35.999Z</time>
</trkpt>
<trkpt lat="43.725602" lon="3.322064">
<ele>197.6</ele>
<time>2013-05-08T08:46:36.999Z</time>
</trkpt>
<trkpt lat="43.725656" lon="3.322124">
<ele>197.4</ele>
<time>2013-05-08T08:46:37.999Z</time>
</trkpt>
<trkpt lat="43.725708" lon="3.322184">
<ele>197.2</ele>
<time>2013-05-08T08:46:38.999Z</time>
</trkpt>
<trkpt lat="43.725757" lon="3.322238">
<ele>197.2</ele>
<time>2013-05-08T08:46:39.999Z</time>
</trkpt>
<trkpt lat="43.725811" lon="3.3223">
<ele>196.9</ele>
<time>2013-05-08T08:46:40.999Z</time>
</trkpt>
<trkpt lat="43.725868" lon="3.322367">
<ele>197</ele>
<time>2013-05-08T08:46:41.999Z</time>
</trkpt>
<trkpt lat="43.725931" lon="3.32244">
<ele>197.4</ele>
<time>2013-05-08T08:46:42.999Z</time>
</trkpt>
<trkpt lat="43.726001" lon="3.322514">
<ele>197.5</ele>
<time>2013-05-08T08:46:43.999Z</time>
</trkpt>
<trkpt lat="43.726072" lon="3.322591">
<ele>197.3</ele>
<time>2013-05-08T08:46:44.999Z</time>
</trkpt>
<trkpt lat="43.726143" lon="3.322674">
<ele>197.4</ele>
<time>2013-05-08T08:46:45.999Z</time>
</trkpt>
<trkpt lat="43.7262" lon="3.322786">
<ele>197.9</ele>
<time>2013-05-08T08:46:46.999Z</time>
</trkpt>
<trkpt lat="43.726249" lon="3.322891">
<ele>198.6</ele>
<time>2013-05-08T08:46:47.999Z</time>
</trkpt>
<trkpt lat="43.726304" lon="3.322993">
<ele>199.3</ele>
<time>2013-05-08T08:46:48.999Z</time>
</trkpt>
<trkpt lat="43.726364" lon="3.323086">
<ele>200.1</ele>
<time>2013-05-08T08:46:49.999Z</time>
</trkpt>
<trkpt lat="43.726436" lon="3.323155">
<ele>200.5</ele>
<time>2013-05-08T08:46:50.999Z</time>
</trkpt>
<trkpt lat="43.726513" lon="3.323226">
<ele>200.8</ele>
<time>2013-05-08T08:46:51.999Z</time>
</trkpt>
<trkpt lat="43.726598" lon="3.323298">
<ele>200.7</ele>
<time>2013-05-08T08:46:52.999Z</time>
</trkpt>
<trkpt lat="43.726686" lon="3.323375">
<ele>200.8</ele>
<time>2013-05-08T08:46:53.999Z</time>
</trkpt>
<trkpt lat="43.726775" lon="3.323447">
<ele>200.4</ele>
<time>2013-05-08T08:46:54.999Z</time>
</trkpt>
<trkpt lat="43.726856" lon="3.323516">
<ele>200</ele>
<time>2013-05-08T08:46:55.999Z</time>
</trkpt>
<trkpt lat="43.726932" lon="3.32358">
<ele>199.4</ele>
<time>2013-05-08T08:46:56.999Z</time>
</trkpt>
<trkpt lat="43.727009" lon="3.32365">
<ele>199.2</ele>
<time>2013-05-08T08:46:57.999Z</time>
</trkpt>
<trkpt lat="43.7271" lon="3.323726">
<ele>199.2</ele>
<time>2013-05-08T08:46:58.999Z</time>
</trkpt>
<trkpt lat="43.727199" lon="3.323794">
<ele>199.2</ele>
<time>2013-05-08T08:46:59.999Z</time>
</trkpt>
<trkpt lat="43.727297" lon="3.323863">
<ele>198.9</ele>
<time>2013-05-08T08:47:00.999Z</time>
</trkpt>
<trkpt lat="43.727394" lon="3.323928">
<ele>198.3</ele>
<time>2013-05-08T08:47:01.999Z</time>
</trkpt>
<trkpt lat="43.727495" lon="3.323992">
<ele>197.6</ele>
<time>2013-05-08T08:47:02.999Z</time>
</trkpt>
<trkpt lat="43.727599" lon="3.324063">
<ele>197.2</ele>
<time>2013-05-08T08:47:03.999Z</time>
</trkpt>
<trkpt lat="43.727703" lon="3.324136">
<ele>197.5</ele>
<time>2013-05-08T08:47:04.999Z</time>
</trkpt>
<trkpt lat="43.727798" lon="3.324199">
<ele>197.7</ele>
<time>2013-05-08T08:47:05.999Z</time>
</trkpt>
<trkpt lat="43.727889" lon="3.324261">
<ele>197.9</ele>
<time>2013-05-08T08:47:06.999Z</time>
</trkpt>
<trkpt lat="43.727976" lon="3.324323">
<ele>197.4</ele>
<time>2013-05-08T08:47:07.999Z</time>
</trkpt>
<trkpt lat="43.728064" lon="3.324378">
<ele>196.9</ele>
<time>2013-05-08T08:47:08.999Z</time>
</trkpt>
<trkpt lat="43.728151" lon="3.324431">
<ele>197</ele>
<time>2013-05-08T08:47:09.999Z</time>
</trkpt>
<trkpt lat="43.728237" lon="3.324486">
<ele>197.4</ele>
<time>2013-05-08T08:47:10.999Z</time>
</trkpt>
<trkpt lat="43.728322" lon="3.324542">
<ele>197.7</ele>
<time>2013-05-08T08:47:11.999Z</time>
</trkpt>
<trkpt lat="43.728405" lon="3.324599">
<ele>198.1</ele>
<time>2013-05-08T08:47:12.999Z</time>
</trkpt>
<trkpt lat="43.728493" lon="3.324661">
<ele>198.8</ele>
<time>2013-05-08T08:47:13.999Z</time>
</trkpt>
<trkpt lat="43.728581" lon="3.324728">
<ele>199.4</ele>
<time>2013-05-08T08:47:14.999Z</time>
</trkpt>
<trkpt lat="43.728673" lon="3.324795">
<ele>200.1</ele>
<time>2013-05-08T08:47:15.999Z</time>
</trkpt>
<trkpt lat="43.728767" lon="3.324864">
<ele>200.9</ele>
<time>2013-05-08T08:47:16.999Z</time>
</trkpt>
<trkpt lat="43.72886" lon="3.324932">
<ele>201.8</ele>
<time>2013-05-08T08:47:17.999Z</time>
</trkpt>
<trkpt lat="43.728954" lon="3.324988">
<ele>203.1</ele>
<time>2013-05-08T08:47:18.999Z</time>
</trkpt>
<trkpt lat="43.729064" lon="3.325038">
<ele>204.9</ele>
<time>2013-05-08T08:47:19.999Z</time>
</trkpt>
<trkpt lat="43.729181" lon="3.325054">
<ele>206.5</ele>
<time>2013-05-08T08:47:20.999Z</time>
</trkpt>
<trkpt lat="43.729315" lon="3.324981">
<ele>207.9</ele>
<time>2013-05-08T08:47:21.999Z</time>
</trkpt>
<trkpt lat="43.729444" lon="3.324866">
<ele>208.9</ele>
<time>2013-05-08T08:47:22.999Z</time>
</trkpt>
<trkpt lat="43.729562" lon="3.324756">
<ele>209.2</ele>
<time>2013-05-08T08:47:23.999Z</time>
</trkpt>
<trkpt lat="43.729671" lon="3.324649">
<ele>209</ele>
<time>2013-05-08T08:47:24.999Z</time>
</trkpt>
<trkpt lat="43.729763" lon="3.324555">
<ele>208.9</ele>
<time>2013-05-08T08:47:25.999Z</time>
</trkpt>
<trkpt lat="43.729842" lon="3.324481">
<ele>209</ele>
<time>2013-05-08T08:47:26.999Z</time>
</trkpt>
<trkpt lat="43.729913" lon="3.324412">
<ele>208.9</ele>
<time>2013-05-08T08:47:27.999Z</time>
</trkpt>
<trkpt lat="43.729973" lon="3.324355">
<ele>207.8</ele>
<time>2013-05-08T08:47:28.999Z</time>
</trkpt>
<trkpt lat="43.730043" lon="3.324288">
<ele>206.6</ele>
<time>2013-05-08T08:47:29.999Z</time>
</trkpt>
<trkpt lat="43.73012" lon="3.324221">
<ele>205.6</ele>
<time>2013-05-08T08:47:30.999Z</time>
</trkpt>
<trkpt lat="43.730201" lon="3.324159">
<ele>204.8</ele>
<time>2013-05-08T08:47:31.999Z</time>
</trkpt>
<trkpt lat="43.730284" lon="3.324104">
<ele>204.3</ele>
<time>2013-05-08T08:47:32.999Z</time>
</trkpt>
<trkpt lat="43.730368" lon="3.32406">
<ele>204.1</ele>
<time>2013-05-08T08:47:33.999Z</time>
</trkpt>
<trkpt lat="43.730449" lon="3.324034">
<ele>204.3</ele>
<time>2013-05-08T08:47:34.999Z</time>
</trkpt>
<trkpt lat="43.730527" lon="3.324031">
<ele>204.3</ele>
<time>2013-05-08T08:47:35.999Z</time>
</trkpt>
<trkpt lat="43.730604" lon="3.324027">
<ele>204.5</ele>
<time>2013-05-08T08:47:36.999Z</time>
</trkpt>
<trkpt lat="43.730671" lon="3.324021">
<ele>204.5</ele>
<time>2013-05-08T08:47:37.999Z</time>
</trkpt>
<trkpt lat="43.730734" lon="3.324013">
<ele>204.3</ele>
<time>2013-05-08T08:47:38.999Z</time>
</trkpt>
<trkpt lat="43.730791" lon="3.324009">
<ele>203.6</ele>
<time>2013-05-08T08:47:39.999Z</time>
</trkpt>
<trkpt lat="43.730836" lon="3.324007">
<ele>203</ele>
<time>2013-05-08T08:47:40.999Z</time>
</trkpt>
<trkpt lat="43.730874" lon="3.324006">
<ele>203</ele>
<time>2013-05-08T08:47:41.999Z</time>
</trkpt>
<trkpt lat="43.730907" lon="3.324005">
<ele>202.9</ele>
<time>2013-05-08T08:47:42.999Z</time>
</trkpt>
<trkpt lat="43.730937" lon="3.324008">
<ele>202.9</ele>
<time>2013-05-08T08:47:43.999Z</time>
</trkpt>
<trkpt lat="43.730969" lon="3.324017">
<ele>202.8</ele>
<time>2013-05-08T08:47:44.999Z</time>
</trkpt>
<trkpt lat="43.730998" lon="3.324028">
<ele>202.8</ele>
<time>2013-05-08T08:47:45.999Z</time>
</trkpt>
<trkpt lat="43.731036" lon="3.324039">
<ele>202.9</ele>
<time>2013-05-08T08:47:46.999Z</time>
</trkpt>
<trkpt lat="43.73109" lon="3.324041">
<ele>203.1</ele>
<time>2013-05-08T08:47:47.999Z</time>
</trkpt>
<trkpt lat="43.731158" lon="3.324041">
<ele>202.9</ele>
<time>2013-05-08T08:47:48.999Z</time>
</trkpt>
<trkpt lat="43.731229" lon="3.324033">
<ele>202.8</ele>
<time>2013-05-08T08:47:49.999Z</time>
</trkpt>
<trkpt lat="43.731302" lon="3.324017">
<ele>203</ele>
<time>2013-05-08T08:47:50.999Z</time>
</trkpt>
<trkpt lat="43.731373" lon="3.323999">
<ele>202.7</ele>
<time>2013-05-08T08:47:51.999Z</time>
</trkpt>
<trkpt lat="43.731436" lon="3.323982">
<ele>202.1</ele>
<time>2013-05-08T08:47:52.999Z</time>
</trkpt>
<trkpt lat="43.731496" lon="3.323972">
<ele>201.7</ele>
<time>2013-05-08T08:47:53.999Z</time>
</trkpt>
<trkpt lat="43.731547" lon="3.323961">
<ele>201.4</ele>
<time>2013-05-08T08:47:54.999Z</time>
</trkpt>
<trkpt lat="43.731594" lon="3.323952">
<ele>201</ele>
<time>2013-05-08T08:47:55.999Z</time>
</trkpt>
<trkpt lat="43.731635" lon="3.323945">
<ele>200.9</ele>
<time>2013-05-08T08:47:56.999Z</time>
</trkpt>
<trkpt lat="43.73167" lon="3.323934">
<ele>200.8</ele>
<time>2013-05-08T08:47:57.999Z</time>
</trkpt>
<trkpt lat="43.731702" lon="3.32393">
<ele>200.8</ele>
<time>2013-05-08T08:47:58.999Z</time>
</trkpt>
<trkpt lat="43.731734" lon="3.323925">
<ele>200.7</ele>
<time>2013-05-08T08:47:59.999Z</time>
</trkpt>
<trkpt lat="43.731762" lon="3.323921">
<ele>200.7</ele>
<time>2013-05-08T08:48:00.999Z</time>
</trkpt>
<trkpt lat="43.731793" lon="3.323912">
<ele>200.6</ele>
<time>2013-05-08T08:48:01.999Z</time>
</trkpt>
<trkpt lat="43.731826" lon="3.32391">
<ele>200.6</ele>
<time>2013-05-08T08:48:02.999Z</time>
</trkpt>
<trkpt lat="43.731865" lon="3.323915">
<ele>200.2</ele>
<time>2013-05-08T08:48:03.999Z</time>
</trkpt>
<trkpt lat="43.731908" lon="3.323914">
<ele>199.8</ele>
<time>2013-05-08T08:48:04.999Z</time>
</trkpt>
<trkpt lat="43.731944" lon="3.323908">
<ele>199.5</ele>
<time>2013-05-08T08:48:05.999Z</time>
</trkpt>
<trkpt lat="43.731972" lon="3.323901">
<ele>199.5</ele>
<time>2013-05-08T08:48:06.999Z</time>
</trkpt>
<trkpt lat="43.731997" lon="3.323896">
<ele>199.6</ele>
<time>2013-05-08T08:48:07.999Z</time>
</trkpt>
<trkpt lat="43.732022" lon="3.32389">
<ele>199.6</ele>
<time>2013-05-08T08:48:08.999Z</time>
</trkpt>
<trkpt lat="43.73205" lon="3.323891">
<ele>199.6</ele>
<time>2013-05-08T08:48:09.999Z</time>
</trkpt>
<trkpt lat="43.732074" lon="3.323889">
<ele>199.7</ele>
<time>2013-05-08T08:48:10.999Z</time>
</trkpt>
<trkpt lat="43.732115" lon="3.323882">
<ele>200.3</ele>
<time>2013-05-08T08:48:11.999Z</time>
</trkpt>
<trkpt lat="43.732167" lon="3.323869">
<ele>201</ele>
<time>2013-05-08T08:48:12.999Z</time>
</trkpt>
<trkpt lat="43.73223" lon="3.323854">
<ele>201.6</ele>
<time>2013-05-08T08:48:13.999Z</time>
</trkpt>
<trkpt lat="43.732292" lon="3.323839">
<ele>202.1</ele>
<time>2013-05-08T08:48:14.999Z</time>
</trkpt>
<trkpt lat="43.732361" lon="3.323825">
<ele>202.4</ele>
<time>2013-05-08T08:48:15.999Z</time>
</trkpt>
<trkpt lat="43.732431" lon="3.323798">
<ele>202.8</ele>
<time>2013-05-08T08:48:16.999Z</time>
</trkpt>
<trkpt lat="43.732501" lon="3.323768">
<ele>203</ele>
<time>2013-05-08T08:48:17.999Z</time>
</trkpt>
<trkpt lat="43.732566" lon="3.323746">
<ele>203</ele>
<time>2013-05-08T08:48:18.999Z</time>
</trkpt>
<trkpt lat="43.732622" lon="3.323733">
<ele>201.9</ele>
<time>2013-05-08T08:48:19.999Z</time>
</trkpt>
<trkpt lat="43.732687" lon="3.323726">
<ele>200.6</ele>
<time>2013-05-08T08:48:20.999Z</time>
</trkpt>
<trkpt lat="43.732755" lon="3.323724">
<ele>199.9</ele>
<time>2013-05-08T08:48:21.999Z</time>
</trkpt>
<trkpt lat="43.732828" lon="3.323726">
<ele>199.6</ele>
<time>2013-05-08T08:48:22.999Z</time>
</trkpt>
<trkpt lat="43.732891" lon="3.323729">
<ele>199.8</ele>
<time>2013-05-08T08:48:23.999Z</time>
</trkpt>
<trkpt lat="43.732951" lon="3.323739">
<ele>200.6</ele>
<time>2013-05-08T08:48:24.999Z</time>
</trkpt>
<trkpt lat="43.733012" lon="3.323761">
<ele>201.2</ele>
<time>2013-05-08T08:48:25.999Z</time>
</trkpt>
<trkpt lat="43.733083" lon="3.323785">
<ele>201.9</ele>
<time>2013-05-08T08:48:26.999Z</time>
</trkpt>
<trkpt lat="43.733171" lon="3.323815">
<ele>202.6</ele>
<time>2013-05-08T08:48:27.999Z</time>
</trkpt>
<trkpt lat="43.733278" lon="3.32385">
<ele>203.6</ele>
<time>2013-05-08T08:48:28.999Z</time>
</trkpt>
<trkpt lat="43.733399" lon="3.323886">
<ele>204.6</ele>
<time>2013-05-08T08:48:29.999Z</time>
</trkpt>
<trkpt lat="43.733525" lon="3.323919">
<ele>205.4</ele>
<time>2013-05-08T08:48:30.999Z</time>
</trkpt>
<trkpt lat="43.733656" lon="3.323954">
<ele>206.5</ele>
<time>2013-05-08T08:48:31.999Z</time>
</trkpt>
<trkpt lat="43.733783" lon="3.323991">
<ele>207.3</ele>
<time>2013-05-08T08:48:32.999Z</time>
</trkpt>
<trkpt lat="43.73391" lon="3.324032">
<ele>208.7</ele>
<time>2013-05-08T08:48:33.999Z</time>
</trkpt>
<trkpt lat="43.734039" lon="3.324077">
<ele>209.9</ele>
<time>2013-05-08T08:48:34.999Z</time>
</trkpt>
<trkpt lat="43.734165" lon="3.324123">
<ele>210.9</ele>
<time>2013-05-08T08:48:35.999Z</time>
</trkpt>
<trkpt lat="43.734288" lon="3.324179">
<ele>211.7</ele>
<time>2013-05-08T08:48:36.999Z</time>
</trkpt>
<trkpt lat="43.734419" lon="3.324247">
<ele>212.3</ele>
<time>2013-05-08T08:48:37.999Z</time>
</trkpt>
<trkpt lat="43.734544" lon="3.324327">
<ele>212.9</ele>
<time>2013-05-08T08:48:38.999Z</time>
</trkpt>
<trkpt lat="43.734678" lon="3.324409">
<ele>213.3</ele>
<time>2013-05-08T08:48:39.999Z</time>
</trkpt>
<trkpt lat="43.734817" lon="3.324495">
<ele>214.2</ele>
<time>2013-05-08T08:48:40.999Z</time>
</trkpt>
<trkpt lat="43.734958" lon="3.32459">
<ele>215.2</ele>
<time>2013-05-08T08:48:41.999Z</time>
</trkpt>
<trkpt lat="43.735103" lon="3.324686">
<ele>216</ele>
<time>2013-05-08T08:48:42.999Z</time>
</trkpt>
<trkpt lat="43.735244" lon="3.324772">
<ele>216.8</ele>
<time>2013-05-08T08:48:43.999Z</time>
</trkpt>
<trkpt lat="43.735385" lon="3.324859">
<ele>217.6</ele>
<time>2013-05-08T08:48:44.999Z</time>
</trkpt>
<trkpt lat="43.735528" lon="3.324943">
<ele>217.4</ele>
<time>2013-05-08T08:48:45.999Z</time>
</trkpt>
<trkpt lat="43.735675" lon="3.325029">
<ele>217.4</ele>
<time>2013-05-08T08:48:46.999Z</time>
</trkpt>
<trkpt lat="43.73582" lon="3.325113">
<ele>217.5</ele>
<time>2013-05-08T08:48:47.999Z</time>
</trkpt>
<trkpt lat="43.735965" lon="3.325199">
<ele>217.3</ele>
<time>2013-05-08T08:48:48.999Z</time>
</trkpt>
<trkpt lat="43.73611" lon="3.325287">
<ele>217.4</ele>
<time>2013-05-08T08:48:49.999Z</time>
</trkpt>
<trkpt lat="43.736257" lon="3.325374">
<ele>217.1</ele>
<time>2013-05-08T08:48:50.999Z</time>
</trkpt>
<trkpt lat="43.736398" lon="3.325457">
<ele>217.2</ele>
<time>2013-05-08T08:48:51.999Z</time>
</trkpt>
<trkpt lat="43.73654" lon="3.325541">
<ele>217.5</ele>
<time>2013-05-08T08:48:52.999Z</time>
</trkpt>
<trkpt lat="43.736683" lon="3.325628">
<ele>217.9</ele>
<time>2013-05-08T08:48:53.999Z</time>
</trkpt>
<trkpt lat="43.736826" lon="3.325714">
<ele>218.9</ele>
<time>2013-05-08T08:48:54.999Z</time>
</trkpt>
<trkpt lat="43.736972" lon="3.325801">
<ele>219.7</ele>
<time>2013-05-08T08:48:55.999Z</time>
</trkpt>
<trkpt lat="43.737112" lon="3.325886">
<ele>220.5</ele>
<time>2013-05-08T08:48:56.999Z</time>
</trkpt>
<trkpt lat="43.73725" lon="3.325966">
<ele>220.9</ele>
<time>2013-05-08T08:48:57.999Z</time>
</trkpt>
<trkpt lat="43.73739" lon="3.326044">
<ele>221.1</ele>
<time>2013-05-08T08:48:58.999Z</time>
</trkpt>
<trkpt lat="43.737526" lon="3.326119">
<ele>221.2</ele>
<time>2013-05-08T08:48:59.999Z</time>
</trkpt>
<trkpt lat="43.737639" lon="3.326185">
<ele>221.2</ele>
<time>2013-05-08T08:49:00.999Z</time>
</trkpt>
<trkpt lat="43.737736" lon="3.326239">
<ele>221</ele>
<time>2013-05-08T08:49:01.999Z</time>
</trkpt>
<trkpt lat="43.737833" lon="3.326291">
<ele>221</ele>
<time>2013-05-08T08:49:02.999Z</time>
</trkpt>
<trkpt lat="43.737926" lon="3.326344">
<ele>220.8</ele>
<time>2013-05-08T08:49:03.999Z</time>
</trkpt>
<trkpt lat="43.738027" lon="3.326403">
<ele>220.8</ele>
<time>2013-05-08T08:49:04.999Z</time>
</trkpt>
<trkpt lat="43.738139" lon="3.326463">
<ele>220.9</ele>
<time>2013-05-08T08:49:05.999Z</time>
</trkpt>
<trkpt lat="43.738258" lon="3.326533">
<ele>221.6</ele>
<time>2013-05-08T08:49:06.999Z</time>
</trkpt>
<trkpt lat="43.738371" lon="3.326597">
<ele>221.9</ele>
<time>2013-05-08T08:49:07.999Z</time>
</trkpt>
<trkpt lat="43.738476" lon="3.326687">
<ele>221.7</ele>
<time>2013-05-08T08:49:08.999Z</time>
</trkpt>
<trkpt lat="43.738583" lon="3.326807">
<ele>221.4</ele>
<time>2013-05-08T08:49:09.999Z</time>
</trkpt>
<trkpt lat="43.738682" lon="3.326952">
<ele>222</ele>
<time>2013-05-08T08:49:10.999Z</time>
</trkpt>
<trkpt lat="43.738743" lon="3.327138">
<ele>222.9</ele>
<time>2013-05-08T08:49:11.999Z</time>
</trkpt>
<trkpt lat="43.738757" lon="3.327349">
<ele>223.1</ele>
<time>2013-05-08T08:49:12.999Z</time>
</trkpt>
<trkpt lat="43.738726" lon="3.327577">
<ele>223</ele>
<time>2013-05-08T08:49:13.999Z</time>
</trkpt>
<trkpt lat="43.738654" lon="3.327789">
<ele>222.6</ele>
<time>2013-05-08T08:49:14.999Z</time>
</trkpt>
<trkpt lat="43.738583" lon="3.328004">
<ele>222.7</ele>
<time>2013-05-08T08:49:15.999Z</time>
</trkpt>
<trkpt lat="43.73852" lon="3.328224">
<ele>223.4</ele>
<time>2013-05-08T08:49:16.999Z</time>
</trkpt>
<trkpt lat="43.738471" lon="3.328441">
<ele>224.1</ele>
<time>2013-05-08T08:49:17.999Z</time>
</trkpt>
<trkpt lat="43.738474" lon="3.328656">
<ele>224.6</ele>
<time>2013-05-08T08:49:18.999Z</time>
</trkpt>
<trkpt lat="43.738493" lon="3.328863">
<ele>225.1</ele>
<time>2013-05-08T08:49:19.999Z</time>
</trkpt>
<trkpt lat="43.738562" lon="3.329053">
<ele>225.6</ele>
<time>2013-05-08T08:49:20.999Z</time>
</trkpt>
<trkpt lat="43.738686" lon="3.329236">
<ele>226.2</ele>
<time>2013-05-08T08:49:21.999Z</time>
</trkpt>
<trkpt lat="43.738832" lon="3.329407">
<ele>226.4</ele>
<time>2013-05-08T08:49:22.999Z</time>
</trkpt>
<trkpt lat="43.739012" lon="3.329561">
<ele>226.4</ele>
<time>2013-05-08T08:49:23.999Z</time>
</trkpt>
<trkpt lat="43.739207" lon="3.329694">
<ele>226.6</ele>
<time>2013-05-08T08:49:24.999Z</time>
</trkpt>
<trkpt lat="43.73941" lon="3.329823">
<ele>226.6</ele>
<time>2013-05-08T08:49:25.999Z</time>
</trkpt>
<trkpt lat="43.739629" lon="3.329943">
<ele>226.9</ele>
<time>2013-05-08T08:49:26.999Z</time>
</trkpt>
<trkpt lat="43.739862" lon="3.330041">
<ele>227.1</ele>
<time>2013-05-08T08:49:27.999Z</time>
</trkpt>
<trkpt lat="43.740093" lon="3.330114">
<ele>227.9</ele>
<time>2013-05-08T08:49:28.999Z</time>
</trkpt>
<trkpt lat="43.740317" lon="3.330171">
<ele>229</ele>
<time>2013-05-08T08:49:29.999Z</time>
</trkpt>
<trkpt lat="43.740538" lon="3.330202">
<ele>230</ele>
<time>2013-05-08T08:49:30.999Z</time>
</trkpt>
<trkpt lat="43.740741" lon="3.330213">
<ele>230.9</ele>
<time>2013-05-08T08:49:31.999Z</time>
</trkpt>
<trkpt lat="43.740932" lon="3.330192">
<ele>231</ele>
<time>2013-05-08T08:49:32.999Z</time>
</trkpt>
<trkpt lat="43.741124" lon="3.330183">
<ele>230</ele>
<time>2013-05-08T08:49:33.999Z</time>
</trkpt>
<trkpt lat="43.741305" lon="3.330166">
<ele>228.4</ele>
<time>2013-05-08T08:49:34.999Z</time>
</trkpt>
<trkpt lat="43.741491" lon="3.330146">
<ele>226.9</ele>
<time>2013-05-08T08:49:35.999Z</time>
</trkpt>
<trkpt lat="43.74167" lon="3.33015">
<ele>225.3</ele>
<time>2013-05-08T08:49:36.999Z</time>
</trkpt>
<trkpt lat="43.741856" lon="3.330157">
<ele>223.9</ele>
<time>2013-05-08T08:49:37.999Z</time>
</trkpt>
<trkpt lat="43.742043" lon="3.330174">
<ele>222.7</ele>
<time>2013-05-08T08:49:38.999Z</time>
</trkpt>
<trkpt lat="43.742231" lon="3.330192">
<ele>221.9</ele>
<time>2013-05-08T08:49:39.999Z</time>
</trkpt>
<trkpt lat="43.742414" lon="3.330222">
<ele>221.4</ele>
<time>2013-05-08T08:49:40.999Z</time>
</trkpt>
<trkpt lat="43.742594" lon="3.330249">
<ele>221.2</ele>
<time>2013-05-08T08:49:41.999Z</time>
</trkpt>
<trkpt lat="43.742767" lon="3.330276">
<ele>221.2</ele>
<time>2013-05-08T08:49:42.999Z</time>
</trkpt>
<trkpt lat="43.742923" lon="3.330304">
<ele>221</ele>
<time>2013-05-08T08:49:43.999Z</time>
</trkpt>
<trkpt lat="43.74308" lon="3.330331">
<ele>221.2</ele>
<time>2013-05-08T08:49:44.999Z</time>
</trkpt>
<trkpt lat="43.743233" lon="3.330353">
<ele>221.4</ele>
<time>2013-05-08T08:49:45.999Z</time>
</trkpt>
<trkpt lat="43.743379" lon="3.330344">
<ele>222.3</ele>
<time>2013-05-08T08:49:46.999Z</time>
</trkpt>
<trkpt lat="43.743523" lon="3.33026">
<ele>222.6</ele>
<time>2013-05-08T08:49:47.999Z</time>
</trkpt>
<trkpt lat="43.743671" lon="3.330169">
<ele>222.2</ele>
<time>2013-05-08T08:49:48.999Z</time>
</trkpt>
<trkpt lat="43.743822" lon="3.330074">
<ele>221.5</ele>
<time>2013-05-08T08:49:49.999Z</time>
</trkpt>
<trkpt lat="43.743975" lon="3.330007">
<ele>220.9</ele>
<time>2013-05-08T08:49:50.999Z</time>
</trkpt>
<trkpt lat="43.744134" lon="3.330034">
<ele>220.2</ele>
<time>2013-05-08T08:49:51.999Z</time>
</trkpt>
<trkpt lat="43.744294" lon="3.330089">
<ele>219.3</ele>
<time>2013-05-08T08:49:52.999Z</time>
</trkpt>
<trkpt lat="43.744466" lon="3.33013">
<ele>218.9</ele>
<time>2013-05-08T08:49:53.999Z</time>
</trkpt>
<trkpt lat="43.744633" lon="3.330164">
<ele>218.9</ele>
<time>2013-05-08T08:49:54.999Z</time>
</trkpt>
<trkpt lat="43.744807" lon="3.33017">
<ele>218.4</ele>
<time>2013-05-08T08:49:55.999Z</time>
</trkpt>
<trkpt lat="43.744975" lon="3.330126">
<ele>217.6</ele>
<time>2013-05-08T08:49:56.999Z</time>
</trkpt>
<trkpt lat="43.74512" lon="3.330057">
<ele>216.9</ele>
<time>2013-05-08T08:49:57.999Z</time>
</trkpt>
<trkpt lat="43.745267" lon="3.330027">
<ele>216.3</ele>
<time>2013-05-08T08:49:58.999Z</time>
</trkpt>
<trkpt lat="43.745404" lon="3.330121">
<ele>215.9</ele>
<time>2013-05-08T08:50:00.000Z</time>
</trkpt>
<trkpt lat="43.745543" lon="3.330241">
<ele>214.9</ele>
<time>2013-05-08T08:50:01.000Z</time>
</trkpt>
<trkpt lat="43.745671" lon="3.330355">
<ele>214.3</ele>
<time>2013-05-08T08:50:02.000Z</time>
</trkpt>
<trkpt lat="43.745799" lon="3.330444">
<ele>214</ele>
<time>2013-05-08T08:50:03.000Z</time>
</trkpt>
<trkpt lat="43.745933" lon="3.330516">
<ele>214.2</ele>
<time>2013-05-08T08:50:04.000Z</time>
</trkpt>
<trkpt lat="43.746071" lon="3.330586">
<ele>214.6</ele>
<time>2013-05-08T08:50:05.000Z</time>
</trkpt>
<trkpt lat="43.746193" lon="3.330692">
<ele>215.4</ele>
<time>2013-05-08T08:50:06.000Z</time>
</trkpt>
<trkpt lat="43.746309" lon="3.330808">
<ele>216.2</ele>
<time>2013-05-08T08:50:07.000Z</time>
</trkpt>
<trkpt lat="43.746406" lon="3.330932">
<ele>216.9</ele>
<time>2013-05-08T08:50:08.000Z</time>
</trkpt>
<trkpt lat="43.746504" lon="3.331059">
<ele>217.1</ele>
<time>2013-05-08T08:50:09.000Z</time>
</trkpt>
<trkpt lat="43.746607" lon="3.331207">
<ele>217.6</ele>
<time>2013-05-08T08:50:10.000Z</time>
</trkpt>
<trkpt lat="43.746729" lon="3.331366">
<ele>219.2</ele>
<time>2013-05-08T08:50:11.000Z</time>
</trkpt>
<trkpt lat="43.746862" lon="3.331467">
<ele>220.9</ele>
<time>2013-05-08T08:50:12.000Z</time>
</trkpt>
<trkpt lat="43.74699" lon="3.331561">
<ele>223.1</ele>
<time>2013-05-08T08:50:13.000Z</time>
</trkpt>
<trkpt lat="43.747184" lon="3.331531">
<ele>224.4</ele>
<time>2013-05-08T08:50:14.000Z</time>
</trkpt>
<trkpt lat="43.747378" lon="3.331418">
<ele>224.8</ele>
<time>2013-05-08T08:50:15.000Z</time>
</trkpt>
<trkpt lat="43.747599" lon="3.331312">
<ele>224.7</ele>
<time>2013-05-08T08:50:16.000Z</time>
</trkpt>
<trkpt lat="43.747809" lon="3.331221">
<ele>224</ele>
<time>2013-05-08T08:50:17.000Z</time>
</trkpt>
<trkpt lat="43.748034" lon="3.331137">
<ele>223.3</ele>
<time>2013-05-08T08:50:18.000Z</time>
</trkpt>
<trkpt lat="43.748269" lon="3.331058">
<ele>222.6</ele>
<time>2013-05-08T08:50:19.000Z</time>
</trkpt>
<trkpt lat="43.748501" lon="3.330984">
<ele>221.6</ele>
<time>2013-05-08T08:50:20.000Z</time>
</trkpt>
<trkpt lat="43.748732" lon="3.330917">
<ele>220.6</ele>
<time>2013-05-08T08:50:21.000Z</time>
</trkpt>
<trkpt lat="43.74897" lon="3.330868">
<ele>219.7</ele>
<time>2013-05-08T08:50:22.000Z</time>
</trkpt>
<trkpt lat="43.749214" lon="3.330829">
<ele>218.8</ele>
<time>2013-05-08T08:50:23.000Z</time>
</trkpt>
<trkpt lat="43.749466" lon="3.330799">
<ele>218.7</ele>
<time>2013-05-08T08:50:24.000Z</time>
</trkpt>
<trkpt lat="43.749708" lon="3.330786">
<ele>219</ele>
<time>2013-05-08T08:50:25.000Z</time>
</trkpt>
<trkpt lat="43.749943" lon="3.330765">
<ele>219.1</ele>
<time>2013-05-08T08:50:26.000Z</time>
</trkpt>
<trkpt lat="43.750181" lon="3.330739">
<ele>219.3</ele>
<time>2013-05-08T08:50:27.000Z</time>
</trkpt>
<trkpt lat="43.750413" lon="3.330703">
<ele>219.7</ele>
<time>2013-05-08T08:50:28.000Z</time>
</trkpt>
<trkpt lat="43.750642" lon="3.330641">
<ele>220.2</ele>
<time>2013-05-08T08:50:29.000Z</time>
</trkpt>
<trkpt lat="43.750871" lon="3.330556">
<ele>220.5</ele>
<time>2013-05-08T08:50:30.000Z</time>
</trkpt>
<trkpt lat="43.751097" lon="3.330453">
<ele>220.7</ele>
<time>2013-05-08T08:50:31.000Z</time>
</trkpt>
<trkpt lat="43.751324" lon="3.330351">
<ele>220.5</ele>
<time>2013-05-08T08:50:32.000Z</time>
</trkpt>
<trkpt lat="43.751555" lon="3.330243">
<ele>220.5</ele>
<time>2013-05-08T08:50:33.000Z</time>
</trkpt>
<trkpt lat="43.751782" lon="3.330143">
<ele>220.1</ele>
<time>2013-05-08T08:50:34.000Z</time>
</trkpt>
<trkpt lat="43.752012" lon="3.330044">
<ele>219.9</ele>
<time>2013-05-08T08:50:35.000Z</time>
</trkpt>
<trkpt lat="43.752239" lon="3.329948">
<ele>219.7</ele>
<time>2013-05-08T08:50:36.000Z</time>
</trkpt>
<trkpt lat="43.752467" lon="3.32985">
<ele>219.7</ele>
<time>2013-05-08T08:50:37.000Z</time>
</trkpt>
<trkpt lat="43.752686" lon="3.329755">
<ele>219.8</ele>
<time>2013-05-08T08:50:38.000Z</time>
</trkpt>
<trkpt lat="43.752887" lon="3.329673">
<ele>219.9</ele>
<time>2013-05-08T08:50:39.000Z</time>
</trkpt>
<trkpt lat="43.753075" lon="3.329608">
<ele>220</ele>
<time>2013-05-08T08:50:40.000Z</time>
</trkpt>
<trkpt lat="43.753258" lon="3.329564">
<ele>220.2</ele>
<time>2013-05-08T08:50:41.000Z</time>
</trkpt>
<trkpt lat="43.75345" lon="3.329545">
<ele>220.5</ele>
<time>2013-05-08T08:50:42.000Z</time>
</trkpt>
<trkpt lat="43.753634" lon="3.32956">
<ele>221</ele>
<time>2013-05-08T08:50:43.000Z</time>
</trkpt>
<trkpt lat="43.753821" lon="3.32962">
<ele>221.8</ele>
<time>2013-05-08T08:50:44.000Z</time>
</trkpt>
<trkpt lat="43.754007" lon="3.32969">
<ele>222.8</ele>
<time>2013-05-08T08:50:45.000Z</time>
</trkpt>
<trkpt lat="43.754201" lon="3.329767">
<ele>223.6</ele>
<time>2013-05-08T08:50:46.000Z</time>
</trkpt>
<trkpt lat="43.754393" lon="3.329841">
<ele>224.3</ele>
<time>2013-05-08T08:50:47.000Z</time>
</trkpt>
<trkpt lat="43.754576" lon="3.329909">
<ele>225</ele>
<time>2013-05-08T08:50:48.000Z</time>
</trkpt>
<trkpt lat="43.754742" lon="3.329969">
<ele>226</ele>
<time>2013-05-08T08:50:49.000Z</time>
</trkpt>
<trkpt lat="43.754896" lon="3.330019">
<ele>226.9</ele>
<time>2013-05-08T08:50:50.000Z</time>
</trkpt>
<trkpt lat="43.755031" lon="3.330063">
<ele>227.9</ele>
<time>2013-05-08T08:50:51.000Z</time>
</trkpt>
<trkpt lat="43.755161" lon="3.330109">
<ele>228.9</ele>
<time>2013-05-08T08:50:52.000Z</time>
</trkpt>
<trkpt lat="43.75527" lon="3.330156">
<ele>230</ele>
<time>2013-05-08T08:50:53.000Z</time>
</trkpt>
<trkpt lat="43.755366" lon="3.330179">
<ele>230.6</ele>
<time>2013-05-08T08:50:54.000Z</time>
</trkpt>
<trkpt lat="43.755448" lon="3.330171">
<ele>231.2</ele>
<time>2013-05-08T08:50:55.000Z</time>
</trkpt>
<trkpt lat="43.755537" lon="3.330158">
<ele>231.6</ele>
<time>2013-05-08T08:50:56.000Z</time>
</trkpt>
<trkpt lat="43.755616" lon="3.330129">
<ele>231.5</ele>
<time>2013-05-08T08:50:57.000Z</time>
</trkpt>
<trkpt lat="43.755697" lon="3.330148">
<ele>231.4</ele>
<time>2013-05-08T08:50:58.000Z</time>
</trkpt>
<trkpt lat="43.75578" lon="3.330167">
<ele>230.8</ele>
<time>2013-05-08T08:50:59.000Z</time>
</trkpt>
<trkpt lat="43.755862" lon="3.330199">
<ele>230.6</ele>
<time>2013-05-08T08:51:00.000Z</time>
</trkpt>
<trkpt lat="43.755987" lon="3.330167">
<ele>230.5</ele>
<time>2013-05-08T08:51:01.000Z</time>
</trkpt>
<trkpt lat="43.756148" lon="3.33011">
<ele>230.3</ele>
<time>2013-05-08T08:51:02.000Z</time>
</trkpt>
<trkpt lat="43.756343" lon="3.330039">
<ele>230.6</ele>
<time>2013-05-08T08:51:03.000Z</time>
</trkpt>
<trkpt lat="43.75654" lon="3.329985">
<ele>230.8</ele>
<time>2013-05-08T08:51:04.000Z</time>
</trkpt>
<trkpt lat="43.756731" lon="3.329935">
<ele>231.1</ele>
<time>2013-05-08T08:51:05.000Z</time>
</trkpt>
<trkpt lat="43.756947" lon="3.329952">
<ele>231.7</ele>
<time>2013-05-08T08:51:06.000Z</time>
</trkpt>
<trkpt lat="43.757165" lon="3.329965">
<ele>232.6</ele>
<time>2013-05-08T08:51:07.000Z</time>
</trkpt>
<trkpt lat="43.75738" lon="3.329968">
<ele>233.4</ele>
<time>2013-05-08T08:51:08.000Z</time>
</trkpt>
<trkpt lat="43.757603" lon="3.329946">
<ele>234.3</ele>
<time>2013-05-08T08:51:09.000Z</time>
</trkpt>
<trkpt lat="43.757824" lon="3.329915">
<ele>234.8</ele>
<time>2013-05-08T08:51:10.000Z</time>
</trkpt>
<trkpt lat="43.758047" lon="3.329888">
<ele>235.2</ele>
<time>2013-05-08T08:51:11.000Z</time>
</trkpt>
<trkpt lat="43.758273" lon="3.329863">
<ele>235.5</ele>
<time>2013-05-08T08:51:12.000Z</time>
</trkpt>
<trkpt lat="43.7585" lon="3.329844">
<ele>235.7</ele>
<time>2013-05-08T08:51:13.000Z</time>
</trkpt>
<trkpt lat="43.758729" lon="3.329834">
<ele>236</ele>
<time>2013-05-08T08:51:14.000Z</time>
</trkpt>
<trkpt lat="43.75896" lon="3.329847">
<ele>236.5</ele>
<time>2013-05-08T08:51:15.000Z</time>
</trkpt>
<trkpt lat="43.759186" lon="3.329873">
<ele>236.9</ele>
<time>2013-05-08T08:51:16.000Z</time>
</trkpt>
<trkpt lat="43.75941" lon="3.329916">
<ele>237.4</ele>
<time>2013-05-08T08:51:17.000Z</time>
</trkpt>
<trkpt lat="43.75963" lon="3.329971">
<ele>237.8</ele>
<time>2013-05-08T08:51:18.000Z</time>
</trkpt>
<trkpt lat="43.759855" lon="3.330035">
<ele>238.2</ele>
<time>2013-05-08T08:51:19.000Z</time>
</trkpt>
<trkpt lat="43.760071" lon="3.330133">
<ele>239</ele>
<time>2013-05-08T08:51:20.000Z</time>
</trkpt>
<trkpt lat="43.76029" lon="3.330246">
<ele>239.7</ele>
<time>2013-05-08T08:51:21.000Z</time>
</trkpt>
<trkpt lat="43.760487" lon="3.330404">
<ele>240.9</ele>
<time>2013-05-08T08:51:22.000Z</time>
</trkpt>
<trkpt lat="43.76068" lon="3.330567">
<ele>242.3</ele>
<time>2013-05-08T08:51:23.000Z</time>
</trkpt>
<trkpt lat="43.760865" lon="3.330724">
<ele>243.7</ele>
<time>2013-05-08T08:51:24.000Z</time>
</trkpt>
<trkpt lat="43.761027" lon="3.33091">
<ele>245.3</ele>
<time>2013-05-08T08:51:25.000Z</time>
</trkpt>
<trkpt lat="43.761187" lon="3.331097">
<ele>246.6</ele>
<time>2013-05-08T08:51:26.000Z</time>
</trkpt>
<trkpt lat="43.761344" lon="3.331299">
<ele>248</ele>
<time>2013-05-08T08:51:27.000Z</time>
</trkpt>
<trkpt lat="43.761501" lon="3.331506">
<ele>249.3</ele>
<time>2013-05-08T08:51:28.000Z</time>
</trkpt>
<trkpt lat="43.761661" lon="3.331708">
<ele>250.1</ele>
<time>2013-05-08T08:51:29.000Z</time>
</trkpt>
<trkpt lat="43.761829" lon="3.331901">
<ele>250.7</ele>
<time>2013-05-08T08:51:30.000Z</time>
</trkpt>
<trkpt lat="43.761999" lon="3.332088">
<ele>250.9</ele>
<time>2013-05-08T08:51:31.000Z</time>
</trkpt>
<trkpt lat="43.76218" lon="3.33226">
<ele>251.5</ele>
<time>2013-05-08T08:51:32.000Z</time>
</trkpt>
<trkpt lat="43.762388" lon="3.332394">
<ele>251.7</ele>
<time>2013-05-08T08:51:33.000Z</time>
</trkpt>
<trkpt lat="43.762602" lon="3.332528">
<ele>252.2</ele>
<time>2013-05-08T08:51:34.000Z</time>
</trkpt>
<trkpt lat="43.762812" lon="3.33264">
<ele>252.2</ele>
<time>2013-05-08T08:51:35.000Z</time>
</trkpt>
<trkpt lat="43.76301" lon="3.332739">
<ele>251.9</ele>
<time>2013-05-08T08:51:36.000Z</time>
</trkpt>
<trkpt lat="43.763194" lon="3.332844">
<ele>251.8</ele>
<time>2013-05-08T08:51:37.000Z</time>
</trkpt>
<trkpt lat="43.76337" lon="3.332939">
<ele>252.1</ele>
<time>2013-05-08T08:51:38.000Z</time>
</trkpt>
<trkpt lat="43.763537" lon="3.333038">
<ele>252.5</ele>
<time>2013-05-08T08:51:39.000Z</time>
</trkpt>
<trkpt lat="43.763685" lon="3.333156">
<ele>252.8</ele>
<time>2013-05-08T08:51:40.000Z</time>
</trkpt>
<trkpt lat="43.763825" lon="3.333292">
<ele>253.3</ele>
<time>2013-05-08T08:51:41.000Z</time>
</trkpt>
<trkpt lat="43.76394" lon="3.333505">
<ele>254</ele>
<time>2013-05-08T08:51:42.000Z</time>
</trkpt>
<trkpt lat="43.764056" lon="3.333735">
<ele>254.8</ele>
<time>2013-05-08T08:51:43.000Z</time>
</trkpt>
<trkpt lat="43.764169" lon="3.333988">
<ele>255.9</ele>
<time>2013-05-08T08:51:44.000Z</time>
</trkpt>
<trkpt lat="43.764259" lon="3.334262">
<ele>257.2</ele>
<time>2013-05-08T08:51:45.000Z</time>
</trkpt>
<trkpt lat="43.764352" lon="3.334541">
<ele>258.5</ele>
<time>2013-05-08T08:51:46.000Z</time>
</trkpt>
<trkpt lat="43.764434" lon="3.334813">
<ele>259.8</ele>
<time>2013-05-08T08:51:47.000Z</time>
</trkpt>
<trkpt lat="43.764517" lon="3.33508">
<ele>260.6</ele>
<time>2013-05-08T08:51:48.000Z</time>
</trkpt>
<trkpt lat="43.76461" lon="3.335339">
<ele>261.4</ele>
<time>2013-05-08T08:51:49.000Z</time>
</trkpt>
<trkpt lat="43.764705" lon="3.335599">
<ele>262.1</ele>
<time>2013-05-08T08:51:50.000Z</time>
</trkpt>
<trkpt lat="43.764795" lon="3.335851">
<ele>262.6</ele>
<time>2013-05-08T08:51:51.000Z</time>
</trkpt>
<trkpt lat="43.764883" lon="3.336108">
<ele>263.4</ele>
<time>2013-05-08T08:51:52.000Z</time>
</trkpt>
<trkpt lat="43.764969" lon="3.336366">
<ele>264.3</ele>
<time>2013-05-08T08:51:53.000Z</time>
</trkpt>
<trkpt lat="43.765059" lon="3.336612">
<ele>264.8</ele>
<time>2013-05-08T08:51:54.000Z</time>
</trkpt>
<trkpt lat="43.765138" lon="3.336837">
<ele>265.2</ele>
<time>2013-05-08T08:51:55.000Z</time>
</trkpt>
<trkpt lat="43.765221" lon="3.337058">
<ele>265.6</ele>
<time>2013-05-08T08:51:56.000Z</time>
</trkpt>
<trkpt lat="43.765296" lon="3.337253">
<ele>265.5</ele>
<time>2013-05-08T08:51:57.000Z</time>
</trkpt>
<trkpt lat="43.765359" lon="3.337437">
<ele>265.8</ele>
<time>2013-05-08T08:51:58.000Z</time>
</trkpt>
<trkpt lat="43.765431" lon="3.337619">
<ele>266.2</ele>
<time>2013-05-08T08:51:59.000Z</time>
</trkpt>
<trkpt lat="43.765497" lon="3.337774">
<ele>266.1</ele>
<time>2013-05-08T08:52:00.000Z</time>
</trkpt>
<trkpt lat="43.765557" lon="3.337906">
<ele>266.3</ele>
<time>2013-05-08T08:52:01.000Z</time>
</trkpt>
<trkpt lat="43.765607" lon="3.338022">
<ele>266.6</ele>
<time>2013-05-08T08:52:02.000Z</time>
</trkpt>
<trkpt lat="43.765651" lon="3.338121">
<ele>266.4</ele>
<time>2013-05-08T08:52:03.000Z</time>
</trkpt>
<trkpt lat="43.765684" lon="3.338202">
<ele>266.6</ele>
<time>2013-05-08T08:52:04.000Z</time>
</trkpt>
<trkpt lat="43.765714" lon="3.338282">
<ele>267.1</ele>
<time>2013-05-08T08:52:05.000Z</time>
</trkpt>
<trkpt lat="43.765744" lon="3.338359">
<ele>267.2</ele>
<time>2013-05-08T08:52:06.000Z</time>
</trkpt>
<trkpt lat="43.76577" lon="3.338443">
<ele>267.7</ele>
<time>2013-05-08T08:52:07.000Z</time>
</trkpt>
<trkpt lat="43.765791" lon="3.338527">
<ele>268.2</ele>
<time>2013-05-08T08:52:08.000Z</time>
</trkpt>
<trkpt lat="43.76582" lon="3.338639">
<ele>268.7</ele>
<time>2013-05-08T08:52:09.000Z</time>
</trkpt>
<trkpt lat="43.765865" lon="3.338771">
<ele>268.7</ele>
<time>2013-05-08T08:52:10.000Z</time>
</trkpt>
<trkpt lat="43.765913" lon="3.338904">
<ele>268.9</ele>
<time>2013-05-08T08:52:11.000Z</time>
</trkpt>
<trkpt lat="43.765967" lon="3.339049">
<ele>269.1</ele>
<time>2013-05-08T08:52:12.000Z</time>
</trkpt>
<trkpt lat="43.76602" lon="3.339194">
<ele>269.6</ele>
<time>2013-05-08T08:52:13.000Z</time>
</trkpt>
<trkpt lat="43.766068" lon="3.339331">
<ele>270.1</ele>
<time>2013-05-08T08:52:14.000Z</time>
</trkpt>
<trkpt lat="43.766101" lon="3.339454">
<ele>270.7</ele>
<time>2013-05-08T08:52:15.000Z</time>
</trkpt>
<trkpt lat="43.766108" lon="3.339574">
<ele>271.5</ele>
<time>2013-05-08T08:52:16.000Z</time>
</trkpt>
<trkpt lat="43.766114" lon="3.339713">
<ele>272.5</ele>
<time>2013-05-08T08:52:17.000Z</time>
</trkpt>
<trkpt lat="43.766107" lon="3.339856">
<ele>273.6</ele>
<time>2013-05-08T08:52:18.000Z</time>
</trkpt>
<trkpt lat="43.766088" lon="3.34001">
<ele>274.6</ele>
<time>2013-05-08T08:52:19.000Z</time>
</trkpt>
<trkpt lat="43.766053" lon="3.340216">
<ele>275.1</ele>
<time>2013-05-08T08:52:20.000Z</time>
</trkpt>
<trkpt lat="43.766019" lon="3.340419">
<ele>275.4</ele>
<time>2013-05-08T08:52:21.000Z</time>
</trkpt>
<trkpt lat="43.765983" lon="3.340613">
<ele>275.6</ele>
<time>2013-05-08T08:52:22.000Z</time>
</trkpt>
<trkpt lat="43.765957" lon="3.340794">
<ele>276.2</ele>
<time>2013-05-08T08:52:23.000Z</time>
</trkpt>
<trkpt lat="43.765931" lon="3.340959">
<ele>276.6</ele>
<time>2013-05-08T08:52:24.000Z</time>
</trkpt>
<trkpt lat="43.765903" lon="3.341133">
<ele>277.2</ele>
<time>2013-05-08T08:52:25.000Z</time>
</trkpt>
<trkpt lat="43.765875" lon="3.341297">
<ele>277.7</ele>
<time>2013-05-08T08:52:26.000Z</time>
</trkpt>
<trkpt lat="43.765846" lon="3.341462">
<ele>277.6</ele>
<time>2013-05-08T08:52:27.000Z</time>
</trkpt>
<trkpt lat="43.765817" lon="3.341624">
<ele>277.6</ele>
<time>2013-05-08T08:52:28.000Z</time>
</trkpt>
<trkpt lat="43.765788" lon="3.341784">
<ele>277.1</ele>
<time>2013-05-08T08:52:29.000Z</time>
</trkpt>
<trkpt lat="43.765766" lon="3.34192">
<ele>276.9</ele>
<time>2013-05-08T08:52:30.000Z</time>
</trkpt>
<trkpt lat="43.765744" lon="3.342049">
<ele>276.9</ele>
<time>2013-05-08T08:52:31.000Z</time>
</trkpt>
<trkpt lat="43.765731" lon="3.342174">
<ele>276.7</ele>
<time>2013-05-08T08:52:32.000Z</time>
</trkpt>
<trkpt lat="43.765721" lon="3.342298">
<ele>275.8</ele>
<time>2013-05-08T08:52:33.000Z</time>
</trkpt>
<trkpt lat="43.765756" lon="3.342452">
<ele>275.6</ele>
<time>2013-05-08T08:52:34.000Z</time>
</trkpt>
<trkpt lat="43.765822" lon="3.342602">
<ele>275.4</ele>
<time>2013-05-08T08:52:35.000Z</time>
</trkpt>
<trkpt lat="43.765889" lon="3.342758">
<ele>275.2</ele>
<time>2013-05-08T08:52:36.000Z</time>
</trkpt>
<trkpt lat="43.765948" lon="3.342918">
<ele>275.1</ele>
<time>2013-05-08T08:52:37.000Z</time>
</trkpt>
<trkpt lat="43.765986" lon="3.343098">
<ele>274.8</ele>
<time>2013-05-08T08:52:38.000Z</time>
</trkpt>
<trkpt lat="43.765947" lon="3.343285">
<ele>275</ele>
<time>2013-05-08T08:52:39.000Z</time>
</trkpt>
<trkpt lat="43.765904" lon="3.343437">
<ele>274.9</ele>
<time>2013-05-08T08:52:40.000Z</time>
</trkpt>
<trkpt lat="43.765866" lon="3.343577">
<ele>274.6</ele>
<time>2013-05-08T08:52:41.000Z</time>
</trkpt>
<trkpt lat="43.765823" lon="3.343708">
<ele>274.3</ele>
<time>2013-05-08T08:52:42.000Z</time>
</trkpt>
<trkpt lat="43.765781" lon="3.343846">
<ele>273.8</ele>
<time>2013-05-08T08:52:43.000Z</time>
</trkpt>
<trkpt lat="43.765742" lon="3.343998">
<ele>273.3</ele>
<time>2013-05-08T08:52:44.000Z</time>
</trkpt>
<trkpt lat="43.765716" lon="3.344135">
<ele>273.2</ele>
<time>2013-05-08T08:52:45.000Z</time>
</trkpt>
<trkpt lat="43.765703" lon="3.344271">
<ele>272.7</ele>
<time>2013-05-08T08:52:46.000Z</time>
</trkpt>
<trkpt lat="43.765711" lon="3.344418">
<ele>272.7</ele>
<time>2013-05-08T08:52:47.000Z</time>
</trkpt>
<trkpt lat="43.765736" lon="3.344569">
<ele>273.2</ele>
<time>2013-05-08T08:52:48.000Z</time>
</trkpt>
<trkpt lat="43.765758" lon="3.344721">
<ele>273.7</ele>
<time>2013-05-08T08:52:49.000Z</time>
</trkpt>
<trkpt lat="43.765786" lon="3.344876">
<ele>274.2</ele>
<time>2013-05-08T08:52:50.000Z</time>
</trkpt>
<trkpt lat="43.76581" lon="3.345045">
<ele>274.7</ele>
<time>2013-05-08T08:52:51.000Z</time>
</trkpt>
<trkpt lat="43.76582" lon="3.345192">
<ele>274.3</ele>
<time>2013-05-08T08:52:52.000Z</time>
</trkpt>
<trkpt lat="43.765828" lon="3.345325">
<ele>274.3</ele>
<time>2013-05-08T08:52:53.000Z</time>
</trkpt>
<trkpt lat="43.765834" lon="3.345463">
<ele>274</ele>
<time>2013-05-08T08:52:54.000Z</time>
</trkpt>
<trkpt lat="43.765838" lon="3.345581">
<ele>273.5</ele>
<time>2013-05-08T08:52:55.000Z</time>
</trkpt>
<trkpt lat="43.765845" lon="3.345693">
<ele>272.6</ele>
<time>2013-05-08T08:52:56.000Z</time>
</trkpt>
<trkpt lat="43.765853" lon="3.345787">
<ele>272</ele>
<time>2013-05-08T08:52:57.000Z</time>
</trkpt>
<trkpt lat="43.765859" lon="3.345883">
<ele>271.7</ele>
<time>2013-05-08T08:52:58.000Z</time>
</trkpt>
<trkpt lat="43.765862" lon="3.345968">
<ele>271.8</ele>
<time>2013-05-08T08:52:59.000Z</time>
</trkpt>
<trkpt lat="43.765867" lon="3.346054">
<ele>271.3</ele>
<time>2013-05-08T08:53:00.000Z</time>
</trkpt>
<trkpt lat="43.765868" lon="3.346149">
<ele>270.7</ele>
<time>2013-05-08T08:53:01.000Z</time>
</trkpt>
<trkpt lat="43.765868" lon="3.346248">
<ele>269.3</ele>
<time>2013-05-08T08:53:02.000Z</time>
</trkpt>
<trkpt lat="43.765868" lon="3.346376">
<ele>268.1</ele>
<time>2013-05-08T08:53:03.000Z</time>
</trkpt>
<trkpt lat="43.765872" lon="3.34652">
<ele>267.1</ele>
<time>2013-05-08T08:53:04.000Z</time>
</trkpt>
<trkpt lat="43.765883" lon="3.346661">
<ele>266.9</ele>
<time>2013-05-08T08:53:05.000Z</time>
</trkpt>
<trkpt lat="43.765887" lon="3.346805">
<ele>266.9</ele>
<time>2013-05-08T08:53:06.000Z</time>
</trkpt>
<trkpt lat="43.765887" lon="3.346936">
<ele>267.2</ele>
<time>2013-05-08T08:53:07.000Z</time>
</trkpt>
<trkpt lat="43.765884" lon="3.347036">
<ele>267.8</ele>
<time>2013-05-08T08:53:08.000Z</time>
</trkpt>
<trkpt lat="43.765881" lon="3.347123">
<ele>268.5</ele>
<time>2013-05-08T08:53:09.000Z</time>
</trkpt>
<trkpt lat="43.76588" lon="3.347195">
<ele>269.5</ele>
<time>2013-05-08T08:53:10.000Z</time>
</trkpt>
<trkpt lat="43.76588" lon="3.34725">
<ele>271.3</ele>
<time>2013-05-08T08:53:11.000Z</time>
</trkpt>
<trkpt lat="43.765874" lon="3.347302">
<ele>273</ele>
<time>2013-05-08T08:53:12.000Z</time>
</trkpt>
<trkpt lat="43.765869" lon="3.347346">
<ele>273.8</ele>
<time>2013-05-08T08:53:13.000Z</time>
</trkpt>
<trkpt lat="43.765863" lon="3.347398">
<ele>275</ele>
<time>2013-05-08T08:53:14.000Z</time>
</trkpt>
<trkpt lat="43.765859" lon="3.347459">
<ele>275.8</ele>
<time>2013-05-08T08:53:15.000Z</time>
</trkpt>
<trkpt lat="43.765854" lon="3.347536">
<ele>276.8</ele>
<time>2013-05-08T08:53:16.000Z</time>
</trkpt>
<trkpt lat="43.765849" lon="3.347622">
<ele>277.3</ele>
<time>2013-05-08T08:53:17.000Z</time>
</trkpt>
<trkpt lat="43.765842" lon="3.347717">
<ele>277.1</ele>
<time>2013-05-08T08:53:18.000Z</time>
</trkpt>
<trkpt lat="43.765833" lon="3.347836">
<ele>277.8</ele>
<time>2013-05-08T08:53:19.000Z</time>
</trkpt>
<trkpt lat="43.765822" lon="3.347959">
<ele>278.8</ele>
<time>2013-05-08T08:53:20.000Z</time>
</trkpt>
<trkpt lat="43.765808" lon="3.348092">
<ele>279.5</ele>
<time>2013-05-08T08:53:21.000Z</time>
</trkpt>
<trkpt lat="43.765799" lon="3.34821">
<ele>280</ele>
<time>2013-05-08T08:53:22.000Z</time>
</trkpt>
<trkpt lat="43.765791" lon="3.348315">
<ele>280.3</ele>
<time>2013-05-08T08:53:23.000Z</time>
</trkpt>
<trkpt lat="43.765783" lon="3.348421">
<ele>280.5</ele>
<time>2013-05-08T08:53:24.000Z</time>
</trkpt>
<trkpt lat="43.765778" lon="3.348544">
<ele>280.9</ele>
<time>2013-05-08T08:53:25.000Z</time>
</trkpt>
<trkpt lat="43.765773" lon="3.348687">
<ele>281.3</ele>
<time>2013-05-08T08:53:26.000Z</time>
</trkpt>
<trkpt lat="43.765769" lon="3.348827">
<ele>281.7</ele>
<time>2013-05-08T08:53:27.000Z</time>
</trkpt>
<trkpt lat="43.765767" lon="3.348953">
<ele>282.2</ele>
<time>2013-05-08T08:53:28.000Z</time>
</trkpt>
<trkpt lat="43.765769" lon="3.349068">
<ele>283</ele>
<time>2013-05-08T08:53:29.000Z</time>
</trkpt>
<trkpt lat="43.765773" lon="3.349157">
<ele>283.8</ele>
<time>2013-05-08T08:53:30.000Z</time>
</trkpt>
<trkpt lat="43.765775" lon="3.34924">
<ele>284.3</ele>
<time>2013-05-08T08:53:31.000Z</time>
</trkpt>
<trkpt lat="43.76578" lon="3.349313">
<ele>285</ele>
<time>2013-05-08T08:53:32.000Z</time>
</trkpt>
<trkpt lat="43.765784" lon="3.349372">
<ele>285.1</ele>
<time>2013-05-08T08:53:33.000Z</time>
</trkpt>
<trkpt lat="43.765792" lon="3.349432">
<ele>285</ele>
<time>2013-05-08T08:53:34.000Z</time>
</trkpt>
<trkpt lat="43.765801" lon="3.349496">
<ele>284.6</ele>
<time>2013-05-08T08:53:35.000Z</time>
</trkpt>
<trkpt lat="43.765808" lon="3.349568">
<ele>284.3</ele>
<time>2013-05-08T08:53:36.000Z</time>
</trkpt>
<trkpt lat="43.765817" lon="3.349659">
<ele>283.7</ele>
<time>2013-05-08T08:53:37.000Z</time>
</trkpt>
<trkpt lat="43.765839" lon="3.34979">
<ele>283</ele>
<time>2013-05-08T08:53:38.000Z</time>
</trkpt>
<trkpt lat="43.765858" lon="3.349942">
<ele>282.8</ele>
<time>2013-05-08T08:53:39.000Z</time>
</trkpt>
<trkpt lat="43.765879" lon="3.350107">
<ele>282.9</ele>
<time>2013-05-08T08:53:40.000Z</time>
</trkpt>
<trkpt lat="43.765904" lon="3.350277">
<ele>283</ele>
<time>2013-05-08T08:53:41.000Z</time>
</trkpt>
<trkpt lat="43.765928" lon="3.350445">
<ele>283.2</ele>
<time>2013-05-08T08:53:42.000Z</time>
</trkpt>
<trkpt lat="43.76595" lon="3.350623">
<ele>283.3</ele>
<time>2013-05-08T08:53:43.000Z</time>
</trkpt>
<trkpt lat="43.765973" lon="3.350783">
<ele>283.3</ele>
<time>2013-05-08T08:53:44.000Z</time>
</trkpt>
<trkpt lat="43.765997" lon="3.350928">
<ele>282.7</ele>
<time>2013-05-08T08:53:45.000Z</time>
</trkpt>
<trkpt lat="43.766021" lon="3.351071">
<ele>282.2</ele>
<time>2013-05-08T08:53:46.000Z</time>
</trkpt>
<trkpt lat="43.766044" lon="3.3512">
<ele>281.8</ele>
<time>2013-05-08T08:53:47.000Z</time>
</trkpt>
<trkpt lat="43.766065" lon="3.351333">
<ele>281.5</ele>
<time>2013-05-08T08:53:48.000Z</time>
</trkpt>
<trkpt lat="43.766086" lon="3.35147">
<ele>281.2</ele>
<time>2013-05-08T08:53:49.000Z</time>
</trkpt>
<trkpt lat="43.766107" lon="3.351612">
<ele>281</ele>
<time>2013-05-08T08:53:50.000Z</time>
</trkpt>
<trkpt lat="43.766129" lon="3.351756">
<ele>280.8</ele>
<time>2013-05-08T08:53:51.000Z</time>
</trkpt>
<trkpt lat="43.766153" lon="3.351903">
<ele>280.4</ele>
<time>2013-05-08T08:53:52.000Z</time>
</trkpt>
<trkpt lat="43.76618" lon="3.352051">
<ele>279.9</ele>
<time>2013-05-08T08:53:53.000Z</time>
</trkpt>
<trkpt lat="43.766209" lon="3.352209">
<ele>279.4</ele>
<time>2013-05-08T08:53:54.000Z</time>
</trkpt>
<trkpt lat="43.766236" lon="3.352365">
<ele>278.5</ele>
<time>2013-05-08T08:53:55.000Z</time>
</trkpt>
<trkpt lat="43.766263" lon="3.352511">
<ele>277.5</ele>
<time>2013-05-08T08:53:56.000Z</time>
</trkpt>
<trkpt lat="43.766285" lon="3.352658">
<ele>276.8</ele>
<time>2013-05-08T08:53:57.000Z</time>
</trkpt>
<trkpt lat="43.766304" lon="3.352795">
<ele>276.4</ele>
<time>2013-05-08T08:53:58.000Z</time>
</trkpt>
<trkpt lat="43.766317" lon="3.352917">
<ele>276.6</ele>
<time>2013-05-08T08:53:59.000Z</time>
</trkpt>
<trkpt lat="43.766317" lon="3.353036">
<ele>276.5</ele>
<time>2013-05-08T08:54:00.000Z</time>
</trkpt>
<trkpt lat="43.76631" lon="3.353167">
<ele>276.2</ele>
<time>2013-05-08T08:54:01.000Z</time>
</trkpt>
<trkpt lat="43.7663" lon="3.353293">
<ele>276.1</ele>
<time>2013-05-08T08:54:02.000Z</time>
</trkpt>
<trkpt lat="43.766263" lon="3.353437">
<ele>276.2</ele>
<time>2013-05-08T08:54:03.000Z</time>
</trkpt>
<trkpt lat="43.766222" lon="3.353601">
<ele>276.4</ele>
<time>2013-05-08T08:54:04.000Z</time>
</trkpt>
<trkpt lat="43.766174" lon="3.353791">
<ele>277</ele>
<time>2013-05-08T08:54:05.000Z</time>
</trkpt>
<trkpt lat="43.766116" lon="3.354002">
<ele>277.9</ele>
<time>2013-05-08T08:54:06.000Z</time>
</trkpt>
<trkpt lat="43.766056" lon="3.354219">
<ele>278.9</ele>
<time>2013-05-08T08:54:07.000Z</time>
</trkpt>
<trkpt lat="43.765983" lon="3.354452">
<ele>279.9</ele>
<time>2013-05-08T08:54:08.000Z</time>
</trkpt>
<trkpt lat="43.765906" lon="3.354706">
<ele>281</ele>
<time>2013-05-08T08:54:09.000Z</time>
</trkpt>
<trkpt lat="43.765823" lon="3.354977">
<ele>282.3</ele>
<time>2013-05-08T08:54:10.000Z</time>
</trkpt>
<trkpt lat="43.765729" lon="3.355263">
<ele>283.1</ele>
<time>2013-05-08T08:54:11.000Z</time>
</trkpt>
<trkpt lat="43.765633" lon="3.355569">
<ele>283.6</ele>
<time>2013-05-08T08:54:12.000Z</time>
</trkpt>
<trkpt lat="43.765524" lon="3.355905">
<ele>283.9</ele>
<time>2013-05-08T08:54:13.000Z</time>
</trkpt>
<trkpt lat="43.765411" lon="3.356211">
<ele>284.1</ele>
<time>2013-05-08T08:54:14.000Z</time>
</trkpt>
<trkpt lat="43.765293" lon="3.356511">
<ele>284.1</ele>
<time>2013-05-08T08:54:15.000Z</time>
</trkpt>
<trkpt lat="43.765179" lon="3.356797">
<ele>284.3</ele>
<time>2013-05-08T08:54:16.000Z</time>
</trkpt>
<trkpt lat="43.765069" lon="3.357082">
<ele>284.6</ele>
<time>2013-05-08T08:54:17.000Z</time>
</trkpt>
<trkpt lat="43.764964" lon="3.357394">
<ele>285.2</ele>
<time>2013-05-08T08:54:18.000Z</time>
</trkpt>
<trkpt lat="43.764874" lon="3.357716">
<ele>286</ele>
<time>2013-05-08T08:54:19.000Z</time>
</trkpt>
<trkpt lat="43.764769" lon="3.358067">
<ele>286.7</ele>
<time>2013-05-08T08:54:20.000Z</time>
</trkpt>
<trkpt lat="43.764645" lon="3.358433">
<ele>287.8</ele>
<time>2013-05-08T08:54:21.000Z</time>
</trkpt>
<trkpt lat="43.764515" lon="3.35881">
<ele>288.4</ele>
<time>2013-05-08T08:54:22.000Z</time>
</trkpt>
<trkpt lat="43.764384" lon="3.359199">
<ele>288.9</ele>
<time>2013-05-08T08:54:23.000Z</time>
</trkpt>
<trkpt lat="43.76425" lon="3.35958">
<ele>289.4</ele>
<time>2013-05-08T08:54:24.000Z</time>
</trkpt>
<trkpt lat="43.764116" lon="3.359953">
<ele>290.1</ele>
<time>2013-05-08T08:54:25.000Z</time>
</trkpt>
<trkpt lat="43.764004" lon="3.360321">
<ele>291</ele>
<time>2013-05-08T08:54:26.000Z</time>
</trkpt>
<trkpt lat="43.763919" lon="3.360679">
<ele>291.8</ele>
<time>2013-05-08T08:54:27.000Z</time>
</trkpt>
<trkpt lat="43.763879" lon="3.361039">
<ele>292.6</ele>
<time>2013-05-08T08:54:28.000Z</time>
</trkpt>
<trkpt lat="43.763871" lon="3.361414">
<ele>293</ele>
<time>2013-05-08T08:54:29.000Z</time>
</trkpt>
<trkpt lat="43.76391" lon="3.36178">
<ele>293.8</ele>
<time>2013-05-08T08:54:30.000Z</time>
</trkpt>
<trkpt lat="43.763999" lon="3.362122">
<ele>294.2</ele>
<time>2013-05-08T08:54:31.000Z</time>
</trkpt>
<trkpt lat="43.764144" lon="3.362429">
<ele>294.4</ele>
<time>2013-05-08T08:54:32.000Z</time>
</trkpt>
<trkpt lat="43.764292" lon="3.36274">
<ele>295.2</ele>
<time>2013-05-08T08:54:33.000Z</time>
</trkpt>
<trkpt lat="43.764443" lon="3.363061">
<ele>295.6</ele>
<time>2013-05-08T08:54:34.000Z</time>
</trkpt>
<trkpt lat="43.764593" lon="3.363389">
<ele>296.3</ele>
<time>2013-05-08T08:54:35.000Z</time>
</trkpt>
<trkpt lat="43.764743" lon="3.363705">
<ele>296.6</ele>
<time>2013-05-08T08:54:36.000Z</time>
</trkpt>
<trkpt lat="43.764885" lon="3.364021">
<ele>297.2</ele>
<time>2013-05-08T08:54:37.000Z</time>
</trkpt>
<trkpt lat="43.765026" lon="3.364337">
<ele>297.3</ele>
<time>2013-05-08T08:54:38.000Z</time>
</trkpt>
<trkpt lat="43.765162" lon="3.364653">
<ele>298</ele>
<time>2013-05-08T08:54:39.000Z</time>
</trkpt>
<trkpt lat="43.765301" lon="3.364978">
<ele>299.1</ele>
<time>2013-05-08T08:54:40.000Z</time>
</trkpt>
<trkpt lat="43.765447" lon="3.365307">
<ele>300.8</ele>
<time>2013-05-08T08:54:41.000Z</time>
</trkpt>
<trkpt lat="43.765592" lon="3.365634">
<ele>301.9</ele>
<time>2013-05-08T08:54:42.000Z</time>
</trkpt>
<trkpt lat="43.765736" lon="3.365965">
<ele>302.7</ele>
<time>2013-05-08T08:54:43.000Z</time>
</trkpt>
<trkpt lat="43.765878" lon="3.366292">
<ele>303.5</ele>
<time>2013-05-08T08:54:44.000Z</time>
</trkpt>
<trkpt lat="43.766021" lon="3.366606">
<ele>304.1</ele>
<time>2013-05-08T08:54:45.000Z</time>
</trkpt>
<trkpt lat="43.766149" lon="3.366916">
<ele>305.2</ele>
<time>2013-05-08T08:54:46.000Z</time>
</trkpt>
<trkpt lat="43.76627" lon="3.36719">
<ele>305.4</ele>
<time>2013-05-08T08:54:47.000Z</time>
</trkpt>
<trkpt lat="43.766372" lon="3.367426">
<ele>305.4</ele>
<time>2013-05-08T08:54:48.000Z</time>
</trkpt>
<trkpt lat="43.766467" lon="3.367652">
<ele>304.6</ele>
<time>2013-05-08T08:54:49.000Z</time>
</trkpt>
<trkpt lat="43.766563" lon="3.367844">
<ele>304.7</ele>
<time>2013-05-08T08:54:50.000Z</time>
</trkpt>
<trkpt lat="43.766667" lon="3.368021">
<ele>305.7</ele>
<time>2013-05-08T08:54:51.000Z</time>
</trkpt>
<trkpt lat="43.766765" lon="3.368183">
<ele>306.4</ele>
<time>2013-05-08T08:54:52.000Z</time>
</trkpt>
<trkpt lat="43.766857" lon="3.368344">
<ele>307</ele>
<time>2013-05-08T08:54:53.000Z</time>
</trkpt>
<trkpt lat="43.766947" lon="3.368505">
<ele>307.9</ele>
<time>2013-05-08T08:54:54.000Z</time>
</trkpt>
<trkpt lat="43.767008" lon="3.368597">
<ele>308</ele>
<time>2013-05-08T08:54:55.000Z</time>
</trkpt>
<trkpt lat="43.767067" lon="3.368668">
<ele>308</ele>
<time>2013-05-08T08:54:56.000Z</time>
</trkpt>
<trkpt lat="43.76712" lon="3.368737">
<ele>307.9</ele>
<time>2013-05-08T08:54:57.000Z</time>
</trkpt>
<trkpt lat="43.767183" lon="3.368814">
<ele>308.4</ele>
<time>2013-05-08T08:54:58.000Z</time>
</trkpt>
<trkpt lat="43.767259" lon="3.368914">
<ele>308.6</ele>
<time>2013-05-08T08:54:59.000Z</time>
</trkpt>
<trkpt lat="43.767359" lon="3.369061">
<ele>309.2</ele>
<time>2013-05-08T08:55:00.000Z</time>
</trkpt>
<trkpt lat="43.767462" lon="3.369225">
<ele>310.1</ele>
<time>2013-05-08T08:55:01.000Z</time>
</trkpt>
<trkpt lat="43.767563" lon="3.369395">
<ele>310.6</ele>
<time>2013-05-08T08:55:02.000Z</time>
</trkpt>
<trkpt lat="43.767655" lon="3.369563">
<ele>310.7</ele>
<time>2013-05-08T08:55:03.000Z</time>
</trkpt>
<trkpt lat="43.767743" lon="3.369726">
<ele>310.8</ele>
<time>2013-05-08T08:55:04.000Z</time>
</trkpt>
<trkpt lat="43.767824" lon="3.369877">
<ele>310.4</ele>
<time>2013-05-08T08:55:05.000Z</time>
</trkpt>
<trkpt lat="43.7679" lon="3.370018">
<ele>310.3</ele>
<time>2013-05-08T08:55:06.000Z</time>
</trkpt>
<trkpt lat="43.767988" lon="3.370176">
<ele>310.1</ele>
<time>2013-05-08T08:55:07.000Z</time>
</trkpt>
<trkpt lat="43.76809" lon="3.370348">
<ele>309.9</ele>
<time>2013-05-08T08:55:08.000Z</time>
</trkpt>
<trkpt lat="43.768206" lon="3.370521">
<ele>309.7</ele>
<time>2013-05-08T08:55:09.000Z</time>
</trkpt>
<trkpt lat="43.768326" lon="3.370688">
<ele>310.2</ele>
<time>2013-05-08T08:55:10.000Z</time>
</trkpt>
<trkpt lat="43.768448" lon="3.370848">
<ele>310.4</ele>
<time>2013-05-08T08:55:11.000Z</time>
</trkpt>
<trkpt lat="43.768564" lon="3.370991">
<ele>309.9</ele>
<time>2013-05-08T08:55:12.000Z</time>
</trkpt>
<trkpt lat="43.768674" lon="3.371136">
<ele>309.6</ele>
<time>2013-05-08T08:55:13.000Z</time>
</trkpt>
<trkpt lat="43.768774" lon="3.37128">
<ele>309.4</ele>
<time>2013-05-08T08:55:14.000Z</time>
</trkpt>
<trkpt lat="43.76886" lon="3.371425">
<ele>309.2</ele>
<time>2013-05-08T08:55:15.000Z</time>
</trkpt>
<trkpt lat="43.768934" lon="3.371572">
<ele>309.1</ele>
<time>2013-05-08T08:55:16.000Z</time>
</trkpt>
<trkpt lat="43.768997" lon="3.371715">
<ele>309</ele>
<time>2013-05-08T08:55:17.000Z</time>
</trkpt>
<trkpt lat="43.769058" lon="3.371856">
<ele>308.6</ele>
<time>2013-05-08T08:55:18.000Z</time>
</trkpt>
<trkpt lat="43.769115" lon="3.371993">
<ele>308.4</ele>
<time>2013-05-08T08:55:19.000Z</time>
</trkpt>
<trkpt lat="43.769173" lon="3.372115">
<ele>308.5</ele>
<time>2013-05-08T08:55:20.000Z</time>
</trkpt>
<trkpt lat="43.769231" lon="3.372241">
<ele>308.6</ele>
<time>2013-05-08T08:55:21.000Z</time>
</trkpt>
<trkpt lat="43.769293" lon="3.372362">
<ele>308.2</ele>
<time>2013-05-08T08:55:22.000Z</time>
</trkpt>
<trkpt lat="43.769358" lon="3.372501">
<ele>307.8</ele>
<time>2013-05-08T08:55:23.000Z</time>
</trkpt>
<trkpt lat="43.769431" lon="3.37266">
<ele>307.5</ele>
<time>2013-05-08T08:55:24.000Z</time>
</trkpt>
<trkpt lat="43.769502" lon="3.37282">
<ele>307.2</ele>
<time>2013-05-08T08:55:25.000Z</time>
</trkpt>
<trkpt lat="43.769576" lon="3.372987">
<ele>307</ele>
<time>2013-05-08T08:55:26.000Z</time>
</trkpt>
<trkpt lat="43.769656" lon="3.373154">
<ele>306.3</ele>
<time>2013-05-08T08:55:27.000Z</time>
</trkpt>
<trkpt lat="43.769734" lon="3.373321">
<ele>305.9</ele>
<time>2013-05-08T08:55:28.000Z</time>
</trkpt>
<trkpt lat="43.76981" lon="3.373485">
<ele>305.4</ele>
<time>2013-05-08T08:55:29.000Z</time>
</trkpt>
<trkpt lat="43.769888" lon="3.373665">
<ele>304.5</ele>
<time>2013-05-08T08:55:30.000Z</time>
</trkpt>
<trkpt lat="43.769965" lon="3.373848">
<ele>304.1</ele>
<time>2013-05-08T08:55:31.000Z</time>
</trkpt>
<trkpt lat="43.770049" lon="3.374032">
<ele>304.4</ele>
<time>2013-05-08T08:55:32.000Z</time>
</trkpt>
<trkpt lat="43.770126" lon="3.374216">
<ele>305.4</ele>
<time>2013-05-08T08:55:33.000Z</time>
</trkpt>
<trkpt lat="43.770209" lon="3.374405">
<ele>306.3</ele>
<time>2013-05-08T08:55:34.000Z</time>
</trkpt>
<trkpt lat="43.770281" lon="3.374584">
<ele>307.3</ele>
<time>2013-05-08T08:55:35.000Z</time>
</trkpt>
<trkpt lat="43.77035" lon="3.374753">
<ele>307.5</ele>
<time>2013-05-08T08:55:36.000Z</time>
</trkpt>
<trkpt lat="43.770345" lon="3.374925">
<ele>307.2</ele>
<time>2013-05-08T08:55:37.000Z</time>
</trkpt>
<trkpt lat="43.770328" lon="3.375095">
<ele>307</ele>
<time>2013-05-08T08:55:38.000Z</time>
</trkpt>
<trkpt lat="43.770309" lon="3.375271">
<ele>307.1</ele>
<time>2013-05-08T08:55:39.000Z</time>
</trkpt>
<trkpt lat="43.770216" lon="3.375405">
<ele>307.7</ele>
<time>2013-05-08T08:55:40.000Z</time>
</trkpt>
<trkpt lat="43.770107" lon="3.375568">
<ele>308.5</ele>
<time>2013-05-08T08:55:41.000Z</time>
</trkpt>
<trkpt lat="43.770003" lon="3.375732">
<ele>309.2</ele>
<time>2013-05-08T08:55:42.000Z</time>
</trkpt>
<trkpt lat="43.769905" lon="3.375883">
<ele>309.9</ele>
<time>2013-05-08T08:55:43.000Z</time>
</trkpt>
<trkpt lat="43.769804" lon="3.376044">
<ele>310.5</ele>
<time>2013-05-08T08:55:44.000Z</time>
</trkpt>
<trkpt lat="43.769717" lon="3.37618">
<ele>311.3</ele>
<time>2013-05-08T08:55:45.000Z</time>
</trkpt>
<trkpt lat="43.769631" lon="3.376337">
<ele>311.5</ele>
<time>2013-05-08T08:55:46.000Z</time>
</trkpt>
<trkpt lat="43.769554" lon="3.376468">
<ele>311.9</ele>
<time>2013-05-08T08:55:47.000Z</time>
</trkpt>
<trkpt lat="43.769476" lon="3.376585">
<ele>312.1</ele>
<time>2013-05-08T08:55:48.000Z</time>
</trkpt>
<trkpt lat="43.769388" lon="3.376699">
<ele>312</ele>
<time>2013-05-08T08:55:49.000Z</time>
</trkpt>
<trkpt lat="43.769306" lon="3.376808">
<ele>312.1</ele>
<time>2013-05-08T08:55:50.000Z</time>
</trkpt>
<trkpt lat="43.769228" lon="3.376925">
<ele>311.9</ele>
<time>2013-05-08T08:55:51.000Z</time>
</trkpt>
<trkpt lat="43.769166" lon="3.377053">
<ele>311.3</ele>
<time>2013-05-08T08:55:52.000Z</time>
</trkpt>
<trkpt lat="43.769121" lon="3.377193">
<ele>311.4</ele>
<time>2013-05-08T08:55:53.000Z</time>
</trkpt>
<trkpt lat="43.769078" lon="3.377333">
<ele>311.2</ele>
<time>2013-05-08T08:55:54.000Z</time>
</trkpt>
<trkpt lat="43.769039" lon="3.377467">
<ele>311.3</ele>
<time>2013-05-08T08:55:55.000Z</time>
</trkpt>
<trkpt lat="43.769017" lon="3.377589">
<ele>311.3</ele>
<time>2013-05-08T08:55:56.000Z</time>
</trkpt>
<trkpt lat="43.769001" lon="3.377699">
<ele>311.2</ele>
<time>2013-05-08T08:55:57.000Z</time>
</trkpt>
<trkpt lat="43.768989" lon="3.377805">
<ele>311.3</ele>
<time>2013-05-08T08:55:58.000Z</time>
</trkpt>
<trkpt lat="43.768986" lon="3.377901">
<ele>311.3</ele>
<time>2013-05-08T08:55:59.000Z</time>
</trkpt>
<trkpt lat="43.768987" lon="3.377994">
<ele>311.1</ele>
<time>2013-05-08T08:56:00.000Z</time>
</trkpt>
<trkpt lat="43.768988" lon="3.378059">
<ele>310.9</ele>
<time>2013-05-08T08:56:01.000Z</time>
</trkpt>
<trkpt lat="43.768987" lon="3.378118">
<ele>310.7</ele>
<time>2013-05-08T08:56:02.000Z</time>
</trkpt>
<trkpt lat="43.76898" lon="3.378181">
<ele>310.4</ele>
<time>2013-05-08T08:56:03.000Z</time>
</trkpt>
<trkpt lat="43.768979" lon="3.378235">
<ele>310.4</ele>
<time>2013-05-08T08:56:04.000Z</time>
</trkpt>
<trkpt lat="43.768994" lon="3.378278">
<ele>310.3</ele>
<time>2013-05-08T08:56:05.000Z</time>
</trkpt>
<trkpt lat="43.769002" lon="3.378301">
<ele>314.4</ele>
<time>2013-05-08T08:57:52.000Z</time>
</trkpt>
<trkpt lat="43.769059" lon="3.378291">
<ele>317.9</ele>
<time>2013-05-08T08:57:53.000Z</time>
</trkpt>
<trkpt lat="43.769071" lon="3.378379">
<ele>320.6</ele>
<time>2013-05-08T08:57:54.000Z</time>
</trkpt>
<trkpt lat="43.769093" lon="3.378527">
<ele>323.6</ele>
<time>2013-05-08T08:57:55.000Z</time>
</trkpt>
<trkpt lat="43.76911" lon="3.378711">
<ele>325.8</ele>
<time>2013-05-08T08:57:56.000Z</time>
</trkpt>
<trkpt lat="43.769127" lon="3.378905">
<ele>327.3</ele>
<time>2013-05-08T08:57:57.000Z</time>
</trkpt>
<trkpt lat="43.76914" lon="3.379144">
<ele>328.2</ele>
<time>2013-05-08T08:57:58.000Z</time>
</trkpt>
<trkpt lat="43.769154" lon="3.379434">
<ele>328.9</ele>
<time>2013-05-08T08:57:59.000Z</time>
</trkpt>
<trkpt lat="43.769167" lon="3.37974">
<ele>328.4</ele>
<time>2013-05-08T08:58:00.000Z</time>
</trkpt>
<trkpt lat="43.769203" lon="3.380073">
<ele>327.7</ele>
<time>2013-05-08T08:58:01.000Z</time>
</trkpt>
<trkpt lat="43.769255" lon="3.380477">
<ele>326.5</ele>
<time>2013-05-08T08:58:02.000Z</time>
</trkpt>
<trkpt lat="43.769362" lon="3.38086">
<ele>326.2</ele>
<time>2013-05-08T08:58:03.000Z</time>
</trkpt>
<trkpt lat="43.769499" lon="3.381251">
<ele>325.6</ele>
<time>2013-05-08T08:58:04.000Z</time>
</trkpt>
<trkpt lat="43.76962" lon="3.381608">
<ele>325.3</ele>
<time>2013-05-08T08:58:05.000Z</time>
</trkpt>
<trkpt lat="43.769768" lon="3.381949">
<ele>324.9</ele>
<time>2013-05-08T08:58:06.000Z</time>
</trkpt>
<trkpt lat="43.769988" lon="3.382273">
<ele>325.1</ele>
<time>2013-05-08T08:58:07.000Z</time>
</trkpt>
<trkpt lat="43.770212" lon="3.382598">
<ele>324.7</ele>
<time>2013-05-08T08:58:08.000Z</time>
</trkpt>
<trkpt lat="43.770448" lon="3.382945">
<ele>324.4</ele>
<time>2013-05-08T08:58:09.000Z</time>
</trkpt>
<trkpt lat="43.770686" lon="3.383272">
<ele>324.1</ele>
<time>2013-05-08T08:58:10.000Z</time>
</trkpt>
<trkpt lat="43.770923" lon="3.383601">
<ele>324.1</ele>
<time>2013-05-08T08:58:11.000Z</time>
</trkpt>
<trkpt lat="43.771179" lon="3.383917">
<ele>324</ele>
<time>2013-05-08T08:58:12.000Z</time>
</trkpt>
<trkpt lat="43.771427" lon="3.384198">
<ele>324.6</ele>
<time>2013-05-08T08:58:13.000Z</time>
</trkpt>
<trkpt lat="43.771616" lon="3.384465">
<ele>325.1</ele>
<time>2013-05-08T08:58:14.000Z</time>
</trkpt>
<trkpt lat="43.771786" lon="3.384782">
<ele>326.6</ele>
<time>2013-05-08T08:58:15.000Z</time>
</trkpt>
<trkpt lat="43.77193" lon="3.385101">
<ele>328.6</ele>
<time>2013-05-08T08:58:16.000Z</time>
</trkpt>
<trkpt lat="43.772044" lon="3.385425">
<ele>330.2</ele>
<time>2013-05-08T08:58:17.000Z</time>
</trkpt>
<trkpt lat="43.772147" lon="3.385802">
<ele>332.1</ele>
<time>2013-05-08T08:58:18.000Z</time>
</trkpt>
<trkpt lat="43.772233" lon="3.386179">
<ele>334.2</ele>
<time>2013-05-08T08:58:19.000Z</time>
</trkpt>
<trkpt lat="43.772334" lon="3.386545">
<ele>335.9</ele>
<time>2013-05-08T08:58:20.000Z</time>
</trkpt>
<trkpt lat="43.772431" lon="3.386923">
<ele>337.4</ele>
<time>2013-05-08T08:58:21.000Z</time>
</trkpt>
<trkpt lat="43.772598" lon="3.387215">
<ele>338.4</ele>
<time>2013-05-08T08:58:22.000Z</time>
</trkpt>
<trkpt lat="43.772761" lon="3.387496">
<ele>338.6</ele>
<time>2013-05-08T08:58:23.000Z</time>
</trkpt>
<trkpt lat="43.772911" lon="3.387794">
<ele>339.1</ele>
<time>2013-05-08T08:58:24.000Z</time>
</trkpt>
<trkpt lat="43.773045" lon="3.388123">
<ele>340</ele>
<time>2013-05-08T08:58:25.000Z</time>
</trkpt>
<trkpt lat="43.773175" lon="3.388488">
<ele>341</ele>
<time>2013-05-08T08:58:26.000Z</time>
</trkpt>
<trkpt lat="43.773292" lon="3.388865">
<ele>342.2</ele>
<time>2013-05-08T08:58:27.000Z</time>
</trkpt>
<trkpt lat="43.773413" lon="3.389245">
<ele>343.6</ele>
<time>2013-05-08T08:58:28.000Z</time>
</trkpt>
<trkpt lat="43.773522" lon="3.389648">
<ele>344.9</ele>
<time>2013-05-08T08:58:29.000Z</time>
</trkpt>
<trkpt lat="43.773623" lon="3.390033">
<ele>346.5</ele>
<time>2013-05-08T08:58:30.000Z</time>
</trkpt>
<trkpt lat="43.773714" lon="3.39037">
<ele>348</ele>
<time>2013-05-08T08:58:31.000Z</time>
</trkpt>
<trkpt lat="43.773798" lon="3.390643">
<ele>349.2</ele>
<time>2013-05-08T08:58:32.000Z</time>
</trkpt>
<trkpt lat="43.773882" lon="3.390874">
<ele>350.1</ele>
<time>2013-05-08T08:58:33.000Z</time>
</trkpt>
<trkpt lat="43.774033" lon="3.39101">
<ele>351.4</ele>
<time>2013-05-08T08:58:34.000Z</time>
</trkpt>
<trkpt lat="43.774207" lon="3.391096">
<ele>352.6</ele>
<time>2013-05-08T08:58:35.000Z</time>
</trkpt>
<trkpt lat="43.774372" lon="3.391159">
<ele>353.3</ele>
<time>2013-05-08T08:58:36.000Z</time>
</trkpt>
<trkpt lat="43.774525" lon="3.391177">
<ele>354.5</ele>
<time>2013-05-08T08:58:37.000Z</time>
</trkpt>
<trkpt lat="43.774662" lon="3.391209">
<ele>355.8</ele>
<time>2013-05-08T08:58:38.000Z</time>
</trkpt>
<trkpt lat="43.774745" lon="3.391287">
<ele>357.4</ele>
<time>2013-05-08T08:58:39.000Z</time>
</trkpt>
<trkpt lat="43.774787" lon="3.391394">
<ele>358.8</ele>
<time>2013-05-08T08:58:40.000Z</time>
</trkpt>
<trkpt lat="43.774815" lon="3.39149">
<ele>360.2</ele>
<time>2013-05-08T08:58:41.000Z</time>
</trkpt>
<trkpt lat="43.774738" lon="3.391618">
<ele>361.8</ele>
<time>2013-05-08T08:58:42.000Z</time>
</trkpt>
<trkpt lat="43.774624" lon="3.391829">
<ele>363.3</ele>
<time>2013-05-08T08:58:43.000Z</time>
</trkpt>
<trkpt lat="43.774509" lon="3.392056">
<ele>364.3</ele>
<time>2013-05-08T08:58:44.000Z</time>
</trkpt>
<trkpt lat="43.774446" lon="3.392324">
<ele>365.4</ele>
<time>2013-05-08T08:58:45.000Z</time>
</trkpt>
<trkpt lat="43.774354" lon="3.392696">
<ele>366</ele>
<time>2013-05-08T08:58:46.000Z</time>
</trkpt>
<trkpt lat="43.774297" lon="3.393041">
<ele>367.5</ele>
<time>2013-05-08T08:58:47.000Z</time>
</trkpt>
<trkpt lat="43.774314" lon="3.393411">
<ele>368.1</ele>
<time>2013-05-08T08:58:48.000Z</time>
</trkpt>
<trkpt lat="43.77433" lon="3.393795">
<ele>369.3</ele>
<time>2013-05-08T08:58:49.000Z</time>
</trkpt>
<trkpt lat="43.774355" lon="3.39417">
<ele>370.9</ele>
<time>2013-05-08T08:58:50.000Z</time>
</trkpt>
<trkpt lat="43.774387" lon="3.394568">
<ele>372.4</ele>
<time>2013-05-08T08:58:51.000Z</time>
</trkpt>
<trkpt lat="43.774428" lon="3.39496">
<ele>373.8</ele>
<time>2013-05-08T08:58:52.000Z</time>
</trkpt>
<trkpt lat="43.77447" lon="3.395357">
<ele>375.2</ele>
<time>2013-05-08T08:58:53.000Z</time>
</trkpt>
<trkpt lat="43.774506" lon="3.395749">
<ele>377.1</ele>
<time>2013-05-08T08:58:54.000Z</time>
</trkpt>
<trkpt lat="43.774547" lon="3.396143">
<ele>378.8</ele>
<time>2013-05-08T08:58:55.000Z</time>
</trkpt>
<trkpt lat="43.77461" lon="3.39654">
<ele>380.9</ele>
<time>2013-05-08T08:58:56.000Z</time>
</trkpt>
<trkpt lat="43.774657" lon="3.396938">
<ele>383</ele>
<time>2013-05-08T08:58:57.000Z</time>
</trkpt>
<trkpt lat="43.77471" lon="3.397336">
<ele>385</ele>
<time>2013-05-08T08:58:58.000Z</time>
</trkpt>
<trkpt lat="43.774761" lon="3.397724">
<ele>386.8</ele>
<time>2013-05-08T08:58:59.000Z</time>
</trkpt>
<trkpt lat="43.774778" lon="3.398112">
<ele>388.3</ele>
<time>2013-05-08T08:59:00.000Z</time>
</trkpt>
<trkpt lat="43.774791" lon="3.3985">
<ele>390</ele>
<time>2013-05-08T08:59:01.000Z</time>
</trkpt>
<trkpt lat="43.774801" lon="3.398888">
<ele>391.4</ele>
<time>2013-05-08T08:59:02.000Z</time>
</trkpt>
<trkpt lat="43.774871" lon="3.399224">
<ele>391.9</ele>
<time>2013-05-08T08:59:03.000Z</time>
</trkpt>
<trkpt lat="43.774931" lon="3.399544">
<ele>392.6</ele>
<time>2013-05-08T08:59:04.000Z</time>
</trkpt>
<trkpt lat="43.775" lon="3.399852">
<ele>393.7</ele>
<time>2013-05-08T08:59:05.000Z</time>
</trkpt>
<trkpt lat="43.775047" lon="3.400114">
<ele>395.5</ele>
<time>2013-05-08T08:59:06.000Z</time>
</trkpt>
<trkpt lat="43.775139" lon="3.400352">
<ele>397.7</ele>
<time>2013-05-08T08:59:07.000Z</time>
</trkpt>
<trkpt lat="43.775273" lon="3.400565">
<ele>400.2</ele>
<time>2013-05-08T08:59:08.000Z</time>
</trkpt>
<trkpt lat="43.775397" lon="3.400781">
<ele>402.4</ele>
<time>2013-05-08T08:59:09.000Z</time>
</trkpt>
<trkpt lat="43.775495" lon="3.401035">
<ele>404</ele>
<time>2013-05-08T08:59:10.000Z</time>
</trkpt>
<trkpt lat="43.77559" lon="3.401326">
<ele>406</ele>
<time>2013-05-08T08:59:11.000Z</time>
</trkpt>
<trkpt lat="43.775681" lon="3.401632">
<ele>408</ele>
<time>2013-05-08T08:59:12.000Z</time>
</trkpt>
<trkpt lat="43.775754" lon="3.401966">
<ele>409.6</ele>
<time>2013-05-08T08:59:13.000Z</time>
</trkpt>
<trkpt lat="43.775832" lon="3.402294">
<ele>410.9</ele>
<time>2013-05-08T08:59:14.000Z</time>
</trkpt>
<trkpt lat="43.77594" lon="3.402628">
<ele>412.7</ele>
<time>2013-05-08T08:59:15.000Z</time>
</trkpt>
<trkpt lat="43.776093" lon="3.402922">
<ele>414.1</ele>
<time>2013-05-08T08:59:16.000Z</time>
</trkpt>
<trkpt lat="43.776261" lon="3.403174">
<ele>415.1</ele>
<time>2013-05-08T08:59:17.000Z</time>
</trkpt>
<trkpt lat="43.776422" lon="3.403407">
<ele>416</ele>
<time>2013-05-08T08:59:18.000Z</time>
</trkpt>
<trkpt lat="43.776582" lon="3.403562">
<ele>416.5</ele>
<time>2013-05-08T08:59:19.000Z</time>
</trkpt>
<trkpt lat="43.776745" lon="3.403716">
<ele>417.4</ele>
<time>2013-05-08T08:59:20.000Z</time>
</trkpt>
<trkpt lat="43.776899" lon="3.403879">
<ele>418.5</ele>
<time>2013-05-08T08:59:21.000Z</time>
</trkpt>
<trkpt lat="43.777103" lon="3.404014">
<ele>420.1</ele>
<time>2013-05-08T08:59:22.000Z</time>
</trkpt>
<trkpt lat="43.777271" lon="3.404182">
<ele>421.9</ele>
<time>2013-05-08T08:59:23.000Z</time>
</trkpt>
<trkpt lat="43.777405" lon="3.404349">
<ele>423.5</ele>
<time>2013-05-08T08:59:24.000Z</time>
</trkpt>
<trkpt lat="43.777459" lon="3.404512">
<ele>424.6</ele>
<time>2013-05-08T08:59:25.000Z</time>
</trkpt>
<trkpt lat="43.777432" lon="3.4047">
<ele>425.5</ele>
<time>2013-05-08T08:59:26.000Z</time>
</trkpt>
<trkpt lat="43.777383" lon="3.404883">
<ele>426.5</ele>
<time>2013-05-08T08:59:27.000Z</time>
</trkpt>
<trkpt lat="43.7773" lon="3.40515">
<ele>428.1</ele>
<time>2013-05-08T08:59:28.000Z</time>
</trkpt>
<trkpt lat="43.777295" lon="3.405464">
<ele>429.8</ele>
<time>2013-05-08T08:59:29.000Z</time>
</trkpt>
<trkpt lat="43.777296" lon="3.405798">
<ele>431.2</ele>
<time>2013-05-08T08:59:30.000Z</time>
</trkpt>
<trkpt lat="43.77729" lon="3.406126">
<ele>432.7</ele>
<time>2013-05-08T08:59:31.000Z</time>
</trkpt>
<trkpt lat="43.7773" lon="3.406451">
<ele>434.5</ele>
<time>2013-05-08T08:59:32.000Z</time>
</trkpt>
<trkpt lat="43.777241" lon="3.406735">
<ele>436.7</ele>
<time>2013-05-08T08:59:33.000Z</time>
</trkpt>
<trkpt lat="43.777165" lon="3.40703">
<ele>439.1</ele>
<time>2013-05-08T08:59:34.000Z</time>
</trkpt>
<trkpt lat="43.777063" lon="3.407306">
<ele>441.2</ele>
<time>2013-05-08T08:59:35.000Z</time>
</trkpt>
<trkpt lat="43.776966" lon="3.407555">
<ele>443.7</ele>
<time>2013-05-08T08:59:36.000Z</time>
</trkpt>
<trkpt lat="43.776871" lon="3.407807">
<ele>446</ele>
<time>2013-05-08T08:59:37.000Z</time>
</trkpt>
<trkpt lat="43.776816" lon="3.40805">
<ele>446.9</ele>
<time>2013-05-08T08:59:38.000Z</time>
</trkpt>
<trkpt lat="43.776833" lon="3.408331">
<ele>448.9</ele>
<time>2013-05-08T08:59:39.000Z</time>
</trkpt>
<trkpt lat="43.77684" lon="3.408628">
<ele>451.4</ele>
<time>2013-05-08T08:59:40.000Z</time>
</trkpt>
<trkpt lat="43.776855" lon="3.408965">
<ele>453.3</ele>
<time>2013-05-08T08:59:41.000Z</time>
</trkpt>
<trkpt lat="43.77688" lon="3.409287">
<ele>455.3</ele>
<time>2013-05-08T08:59:42.000Z</time>
</trkpt>
<trkpt lat="43.776948" lon="3.409564">
<ele>456.2</ele>
<time>2013-05-08T08:59:43.000Z</time>
</trkpt>
<trkpt lat="43.777033" lon="3.409838">
<ele>456.7</ele>
<time>2013-05-08T08:59:44.000Z</time>
</trkpt>
<trkpt lat="43.777129" lon="3.410081">
<ele>457.2</ele>
<time>2013-05-08T08:59:45.000Z</time>
</trkpt>
<trkpt lat="43.777273" lon="3.410249">
<ele>456.8</ele>
<time>2013-05-08T08:59:46.000Z</time>
</trkpt>
<trkpt lat="43.777438" lon="3.410368">
<ele>459.9</ele>
<time>2013-05-08T08:59:47.000Z</time>
</trkpt>
<trkpt lat="43.777628" lon="3.410466">
<ele>462.8</ele>
<time>2013-05-08T08:59:48.000Z</time>
</trkpt>
<trkpt lat="43.77785" lon="3.410528">
<ele>465.4</ele>
<time>2013-05-08T08:59:49.000Z</time>
</trkpt>
<trkpt lat="43.778075" lon="3.41063">
<ele>467.5</ele>
<time>2013-05-08T08:59:50.000Z</time>
</trkpt>
<trkpt lat="43.77828" lon="3.410797">
<ele>469.3</ele>
<time>2013-05-08T08:59:51.000Z</time>
</trkpt>
<trkpt lat="43.778431" lon="3.411022">
<ele>471</ele>
<time>2013-05-08T08:59:52.000Z</time>
</trkpt>
<trkpt lat="43.778548" lon="3.411251">
<ele>472.9</ele>
<time>2013-05-08T08:59:53.000Z</time>
</trkpt>
<trkpt lat="43.778604" lon="3.411497">
<ele>475.4</ele>
<time>2013-05-08T08:59:54.000Z</time>
</trkpt>
<trkpt lat="43.778652" lon="3.411758">
<ele>477.3</ele>
<time>2013-05-08T08:59:55.000Z</time>
</trkpt>
<trkpt lat="43.778708" lon="3.41201">
<ele>478.9</ele>
<time>2013-05-08T08:59:56.000Z</time>
</trkpt>
<trkpt lat="43.778766" lon="3.412258">
<ele>480.3</ele>
<time>2013-05-08T08:59:57.000Z</time>
</trkpt>
<trkpt lat="43.778888" lon="3.41248">
<ele>482.5</ele>
<time>2013-05-08T08:59:58.000Z</time>
</trkpt>
<trkpt lat="43.779021" lon="3.412685">
<ele>484.5</ele>
<time>2013-05-08T08:59:59.000Z</time>
</trkpt>
<trkpt lat="43.779177" lon="3.412819">
<ele>486.3</ele>
<time>2013-05-08T09:00:00.000Z</time>
</trkpt>
<trkpt lat="43.779357" lon="3.412876">
<ele>487.5</ele>
<time>2013-05-08T09:00:01.000Z</time>
</trkpt>
<trkpt lat="43.779547" lon="3.412901">
<ele>488.2</ele>
<time>2013-05-08T09:00:02.000Z</time>
</trkpt>
<trkpt lat="43.77977" lon="3.412811">
<ele>488.4</ele>
<time>2013-05-08T09:00:03.000Z</time>
</trkpt>
<trkpt lat="43.780009" lon="3.412718">
<ele>488.5</ele>
<time>2013-05-08T09:00:04.000Z</time>
</trkpt>
<trkpt lat="43.780262" lon="3.412618">
<ele>488.9</ele>
<time>2013-05-08T09:00:05.000Z</time>
</trkpt>
<trkpt lat="43.780517" lon="3.41252">
<ele>490.2</ele>
<time>2013-05-08T09:00:06.000Z</time>
</trkpt>
<trkpt lat="43.78077" lon="3.412454">
<ele>491.8</ele>
<time>2013-05-08T09:00:07.000Z</time>
</trkpt>
<trkpt lat="43.781024" lon="3.412423">
<ele>493.6</ele>
<time>2013-05-08T09:00:08.000Z</time>
</trkpt>
<trkpt lat="43.781275" lon="3.412478">
<ele>495.3</ele>
<time>2013-05-08T09:00:09.000Z</time>
</trkpt>
<trkpt lat="43.781512" lon="3.412571">
<ele>496.9</ele>
<time>2013-05-08T09:00:10.000Z</time>
</trkpt>
<trkpt lat="43.781735" lon="3.412692">
<ele>498.3</ele>
<time>2013-05-08T09:00:11.000Z</time>
</trkpt>
<trkpt lat="43.781954" lon="3.412814">
<ele>499.7</ele>
<time>2013-05-08T09:00:12.000Z</time>
</trkpt>
<trkpt lat="43.782172" lon="3.412927">
<ele>500.8</ele>
<time>2013-05-08T09:00:13.000Z</time>
</trkpt>
<trkpt lat="43.782348" lon="3.412984">
<ele>501.9</ele>
<time>2013-05-08T09:00:14.000Z</time>
</trkpt>
<trkpt lat="43.782504" lon="3.413046">
<ele>502.8</ele>
<time>2013-05-08T09:00:15.000Z</time>
</trkpt>
<trkpt lat="43.782624" lon="3.413102">
<ele>503.7</ele>
<time>2013-05-08T09:00:16.000Z</time>
</trkpt>
<trkpt lat="43.782684" lon="3.413203">
<ele>504.6</ele>
<time>2013-05-08T09:00:17.000Z</time>
</trkpt>
<trkpt lat="43.782729" lon="3.413321">
<ele>505.4</ele>
<time>2013-05-08T09:00:18.000Z</time>
</trkpt>
<trkpt lat="43.782707" lon="3.413487">
<ele>506.5</ele>
<time>2013-05-08T09:00:19.000Z</time>
</trkpt>
<trkpt lat="43.782685" lon="3.413632">
<ele>506.5</ele>
<time>2013-05-08T09:00:20.000Z</time>
</trkpt>
<trkpt lat="43.78269" lon="3.413775">
<ele>506.6</ele>
<time>2013-05-08T09:00:21.000Z</time>
</trkpt>
<trkpt lat="43.782769" lon="3.413871">
<ele>506.3</ele>
<time>2013-05-08T09:00:22.000Z</time>
</trkpt>
<trkpt lat="43.78287" lon="3.41396">
<ele>505.7</ele>
<time>2013-05-08T09:00:23.000Z</time>
</trkpt>
<trkpt lat="43.783037" lon="3.413986">
<ele>506.1</ele>
<time>2013-05-08T09:00:24.000Z</time>
</trkpt>
<trkpt lat="43.783215" lon="3.414">
<ele>506.6</ele>
<time>2013-05-08T09:00:25.000Z</time>
</trkpt>
<trkpt lat="43.783373" lon="3.413997">
<ele>507.4</ele>
<time>2013-05-08T09:00:26.000Z</time>
</trkpt>
<trkpt lat="43.783519" lon="3.413994">
<ele>508.4</ele>
<time>2013-05-08T09:00:27.000Z</time>
</trkpt>
<trkpt lat="43.783655" lon="3.414007">
<ele>509.3</ele>
<time>2013-05-08T09:00:28.000Z</time>
</trkpt>
<trkpt lat="43.783813" lon="3.414032">
<ele>509.9</ele>
<time>2013-05-08T09:00:29.000Z</time>
</trkpt>
<trkpt lat="43.783967" lon="3.414097">
<ele>510.7</ele>
<time>2013-05-08T09:00:30.000Z</time>
</trkpt>
<trkpt lat="43.784145" lon="3.41411">
<ele>511.5</ele>
<time>2013-05-08T09:00:31.000Z</time>
</trkpt>
<trkpt lat="43.784341" lon="3.414083">
<ele>512.9</ele>
<time>2013-05-08T09:00:32.000Z</time>
</trkpt>
<trkpt lat="43.784482" lon="3.414003">
<ele>513.9</ele>
<time>2013-05-08T09:00:33.000Z</time>
</trkpt>
<trkpt lat="43.784595" lon="3.413944">
<ele>514.8</ele>
<time>2013-05-08T09:00:34.000Z</time>
</trkpt>
<trkpt lat="43.784691" lon="3.413944">
<ele>515.6</ele>
<time>2013-05-08T09:00:35.000Z</time>
</trkpt>
<trkpt lat="43.784789" lon="3.413953">
<ele>516.2</ele>
<time>2013-05-08T09:00:36.000Z</time>
</trkpt>
<trkpt lat="43.78487" lon="3.414062">
<ele>518.4</ele>
<time>2013-05-08T09:00:37.000Z</time>
</trkpt>
<trkpt lat="43.784951" lon="3.414182">
<ele>520</ele>
<time>2013-05-08T09:00:38.000Z</time>
</trkpt>
<trkpt lat="43.785067" lon="3.414366">
<ele>521.9</ele>
<time>2013-05-08T09:00:39.000Z</time>
</trkpt>
<trkpt lat="43.785165" lon="3.414561">
<ele>524.1</ele>
<time>2013-05-08T09:00:40.000Z</time>
</trkpt>
<trkpt lat="43.785231" lon="3.414861">
<ele>526.9</ele>
<time>2013-05-08T09:00:41.000Z</time>
</trkpt>
<trkpt lat="43.785276" lon="3.415184">
<ele>529.7</ele>
<time>2013-05-08T09:00:42.000Z</time>
</trkpt>
<trkpt lat="43.78533" lon="3.415481">
<ele>532.4</ele>
<time>2013-05-08T09:00:43.000Z</time>
</trkpt>
<trkpt lat="43.785405" lon="3.415748">
<ele>534.7</ele>
<time>2013-05-08T09:00:44.000Z</time>
</trkpt>
<trkpt lat="43.785475" lon="3.415964">
<ele>536.8</ele>
<time>2013-05-08T09:00:45.000Z</time>
</trkpt>
<trkpt lat="43.785602" lon="3.416144">
<ele>538.3</ele>
<time>2013-05-08T09:00:46.000Z</time>
</trkpt>
<trkpt lat="43.785751" lon="3.416308">
<ele>538.9</ele>
<time>2013-05-08T09:00:47.000Z</time>
</trkpt>
<trkpt lat="43.785975" lon="3.416382">
<ele>539.5</ele>
<time>2013-05-08T09:00:48.000Z</time>
</trkpt>
<trkpt lat="43.786212" lon="3.416422">
<ele>540.1</ele>
<time>2013-05-08T09:00:49.000Z</time>
</trkpt>
<trkpt lat="43.786464" lon="3.416468">
<ele>540.6</ele>
<time>2013-05-08T09:00:50.000Z</time>
</trkpt>
<trkpt lat="43.786699" lon="3.416431">
<ele>540.8</ele>
<time>2013-05-08T09:00:51.000Z</time>
</trkpt>
<trkpt lat="43.786962" lon="3.416269">
<ele>541</ele>
<time>2013-05-08T09:00:52.000Z</time>
</trkpt>
<trkpt lat="43.787188" lon="3.415989">
<ele>542</ele>
<time>2013-05-08T09:00:53.000Z</time>
</trkpt>
<trkpt lat="43.787403" lon="3.41567">
<ele>543</ele>
<time>2013-05-08T09:00:54.000Z</time>
</trkpt>
<trkpt lat="43.787603" lon="3.415425">
<ele>543.9</ele>
<time>2013-05-08T09:00:55.000Z</time>
</trkpt>
<trkpt lat="43.787793" lon="3.415244">
<ele>544.7</ele>
<time>2013-05-08T09:00:56.000Z</time>
</trkpt>
<trkpt lat="43.787957" lon="3.415093">
<ele>545.6</ele>
<time>2013-05-08T09:00:57.000Z</time>
</trkpt>
<trkpt lat="43.788087" lon="3.414963">
<ele>546.3</ele>
<time>2013-05-08T09:00:58.000Z</time>
</trkpt>
<trkpt lat="43.788196" lon="3.414776">
<ele>547.2</ele>
<time>2013-05-08T09:00:59.000Z</time>
</trkpt>
<trkpt lat="43.78828" lon="3.414548">
<ele>546.4</ele>
<time>2013-05-08T09:01:00.000Z</time>
</trkpt>
<trkpt lat="43.78828" lon="3.414269">
<ele>546.2</ele>
<time>2013-05-08T09:01:01.000Z</time>
</trkpt>
<trkpt lat="43.788247" lon="3.413935">
<ele>546.7</ele>
<time>2013-05-08T09:01:02.000Z</time>
</trkpt>
<trkpt lat="43.788188" lon="3.413654">
<ele>547.5</ele>
<time>2013-05-08T09:01:03.000Z</time>
</trkpt>
<trkpt lat="43.788115" lon="3.413348">
<ele>548.5</ele>
<time>2013-05-08T09:01:04.000Z</time>
</trkpt>
<trkpt lat="43.788057" lon="3.413019">
<ele>549.9</ele>
<time>2013-05-08T09:01:05.000Z</time>
</trkpt>
<trkpt lat="43.787997" lon="3.412664">
<ele>551.1</ele>
<time>2013-05-08T09:01:06.000Z</time>
</trkpt>
<trkpt lat="43.787921" lon="3.412302">
<ele>552.9</ele>
<time>2013-05-08T09:01:07.000Z</time>
</trkpt>
<trkpt lat="43.787835" lon="3.411915">
<ele>554.6</ele>
<time>2013-05-08T09:01:08.000Z</time>
</trkpt>
<trkpt lat="43.787757" lon="3.41153">
<ele>557.5</ele>
<time>2013-05-08T09:01:09.000Z</time>
</trkpt>
<trkpt lat="43.787696" lon="3.411185">
<ele>560.2</ele>
<time>2013-05-08T09:01:10.000Z</time>
</trkpt>
<trkpt lat="43.787639" lon="3.410883">
<ele>563.7</ele>
<time>2013-05-08T09:01:11.000Z</time>
</trkpt>
<trkpt lat="43.787555" lon="3.410655">
<ele>567.3</ele>
<time>2013-05-08T09:01:12.000Z</time>
</trkpt>
<trkpt lat="43.78745" lon="3.410466">
<ele>571.1</ele>
<time>2013-05-08T09:01:13.000Z</time>
</trkpt>
<trkpt lat="43.787329" lon="3.410315">
<ele>574</ele>
<time>2013-05-08T09:01:14.000Z</time>
</trkpt>
<trkpt lat="43.787223" lon="3.410169">
<ele>576.2</ele>
<time>2013-05-08T09:01:15.000Z</time>
</trkpt>
<trkpt lat="43.787121" lon="3.410044">
<ele>577.3</ele>
<time>2013-05-08T09:01:16.000Z</time>
</trkpt>
<trkpt lat="43.787062" lon="3.409955">
<ele>578.1</ele>
<time>2013-05-08T09:01:17.000Z</time>
</trkpt>
<trkpt lat="43.787051" lon="3.409848">
<ele>578.7</ele>
<time>2013-05-08T09:01:18.000Z</time>
</trkpt>
<trkpt lat="43.787105" lon="3.4097">
<ele>580</ele>
<time>2013-05-08T09:01:19.000Z</time>
</trkpt>
<trkpt lat="43.78723" lon="3.40961">
<ele>581.5</ele>
<time>2013-05-08T09:01:20.000Z</time>
</trkpt>
<trkpt lat="43.78738" lon="3.409648">
<ele>583</ele>
<time>2013-05-08T09:01:21.000Z</time>
</trkpt>
<trkpt lat="43.787532" lon="3.409722">
<ele>584.3</ele>
<time>2013-05-08T09:01:22.000Z</time>
</trkpt>
<trkpt lat="43.787679" lon="3.40987">
<ele>585.6</ele>
<time>2013-05-08T09:01:23.000Z</time>
</trkpt>
<trkpt lat="43.787816" lon="3.410013">
<ele>586.4</ele>
<time>2013-05-08T09:01:24.000Z</time>
</trkpt>
<trkpt lat="43.787965" lon="3.410063">
<ele>587.4</ele>
<time>2013-05-08T09:01:25.000Z</time>
</trkpt>
<trkpt lat="43.788127" lon="3.410012">
<ele>588</ele>
<time>2013-05-08T09:01:26.000Z</time>
</trkpt>
<trkpt lat="43.788284" lon="3.409851">
<ele>587.7</ele>
<time>2013-05-08T09:01:27.000Z</time>
</trkpt>
<trkpt lat="43.788422" lon="3.409658">
<ele>587.6</ele>
<time>2013-05-08T09:01:28.000Z</time>
</trkpt>
<trkpt lat="43.788535" lon="3.409483">
<ele>587.7</ele>
<time>2013-05-08T09:01:29.000Z</time>
</trkpt>
<trkpt lat="43.788621" lon="3.409361">
<ele>588.2</ele>
<time>2013-05-08T09:01:30.000Z</time>
</trkpt>
<trkpt lat="43.788697" lon="3.409341">
<ele>588.9</ele>
<time>2013-05-08T09:01:31.000Z</time>
</trkpt>
<trkpt lat="43.788773" lon="3.409328">
<ele>589.4</ele>
<time>2013-05-08T09:01:32.000Z</time>
</trkpt>
<trkpt lat="43.788818" lon="3.409452">
<ele>590.7</ele>
<time>2013-05-08T09:01:33.000Z</time>
</trkpt>
<trkpt lat="43.788816" lon="3.409584">
<ele>591.5</ele>
<time>2013-05-08T09:01:34.000Z</time>
</trkpt>
<trkpt lat="43.788752" lon="3.409774">
<ele>592.5</ele>
<time>2013-05-08T09:01:35.000Z</time>
</trkpt>
<trkpt lat="43.788684" lon="3.409993">
<ele>593.4</ele>
<time>2013-05-08T09:01:36.000Z</time>
</trkpt>
<trkpt lat="43.788621" lon="3.410301">
<ele>594.6</ele>
<time>2013-05-08T09:01:37.000Z</time>
</trkpt>
<trkpt lat="43.788518" lon="3.410717">
<ele>595.9</ele>
<time>2013-05-08T09:01:38.000Z</time>
</trkpt>
<trkpt lat="43.788469" lon="3.411023">
<ele>597.3</ele>
<time>2013-05-08T09:01:39.000Z</time>
</trkpt>
<trkpt lat="43.788536" lon="3.411307">
<ele>599.6</ele>
<time>2013-05-08T09:01:40.000Z</time>
</trkpt>
<trkpt lat="43.788626" lon="3.411594">
<ele>601.8</ele>
<time>2013-05-08T09:01:41.000Z</time>
</trkpt>
<trkpt lat="43.788729" lon="3.411854">
<ele>604.2</ele>
<time>2013-05-08T09:01:42.000Z</time>
</trkpt>
<trkpt lat="43.788854" lon="3.412065">
<ele>606.4</ele>
<time>2013-05-08T09:01:43.000Z</time>
</trkpt>
<trkpt lat="43.789015" lon="3.412234">
<ele>608.6</ele>
<time>2013-05-08T09:01:44.000Z</time>
</trkpt>
<trkpt lat="43.789155" lon="3.41238">
<ele>610.8</ele>
<time>2013-05-08T09:01:45.000Z</time>
</trkpt>
<trkpt lat="43.789283" lon="3.412563">
<ele>613.3</ele>
<time>2013-05-08T09:01:46.000Z</time>
</trkpt>
<trkpt lat="43.789372" lon="3.412788">
<ele>615.4</ele>
<time>2013-05-08T09:01:47.000Z</time>
</trkpt>
<trkpt lat="43.789458" lon="3.413019">
<ele>617.5</ele>
<time>2013-05-08T09:01:48.000Z</time>
</trkpt>
<trkpt lat="43.789531" lon="3.413233">
<ele>619.8</ele>
<time>2013-05-08T09:01:49.000Z</time>
</trkpt>
<trkpt lat="43.789653" lon="3.413429">
<ele>622.1</ele>
<time>2013-05-08T09:01:50.000Z</time>
</trkpt>
<trkpt lat="43.789777" lon="3.413609">
<ele>624.4</ele>
<time>2013-05-08T09:01:51.000Z</time>
</trkpt>
<trkpt lat="43.789889" lon="3.41383">
<ele>626.6</ele>
<time>2013-05-08T09:01:52.000Z</time>
</trkpt>
<trkpt lat="43.789997" lon="3.414076">
<ele>629.2</ele>
<time>2013-05-08T09:01:53.000Z</time>
</trkpt>
<trkpt lat="43.790099" lon="3.414362">
<ele>631</ele>
<time>2013-05-08T09:01:54.000Z</time>
</trkpt>
<trkpt lat="43.79022" lon="3.41465">
<ele>632.6</ele>
<time>2013-05-08T09:01:55.000Z</time>
</trkpt>
<trkpt lat="43.790342" lon="3.414986">
<ele>633.9</ele>
<time>2013-05-08T09:01:56.000Z</time>
</trkpt>
<trkpt lat="43.790457" lon="3.415361">
<ele>635</ele>
<time>2013-05-08T09:01:57.000Z</time>
</trkpt>
<trkpt lat="43.790575" lon="3.415764">
<ele>635.8</ele>
<time>2013-05-08T09:01:58.000Z</time>
</trkpt>
<trkpt lat="43.790689" lon="3.416175">
<ele>636.5</ele>
<time>2013-05-08T09:01:59.000Z</time>
</trkpt>
<trkpt lat="43.790786" lon="3.416601">
<ele>637.1</ele>
<time>2013-05-08T09:02:00.000Z</time>
</trkpt>
<trkpt lat="43.790885" lon="3.417006">
<ele>637.6</ele>
<time>2013-05-08T09:02:01.000Z</time>
</trkpt>
<trkpt lat="43.790956" lon="3.417443">
<ele>638.5</ele>
<time>2013-05-08T09:02:02.000Z</time>
</trkpt>
<trkpt lat="43.791022" lon="3.417858">
<ele>639.9</ele>
<time>2013-05-08T09:02:03.000Z</time>
</trkpt>
<trkpt lat="43.791053" lon="3.41824">
<ele>641.2</ele>
<time>2013-05-08T09:02:04.000Z</time>
</trkpt>
<trkpt lat="43.791089" lon="3.418615">
<ele>642.5</ele>
<time>2013-05-08T09:02:05.000Z</time>
</trkpt>
<trkpt lat="43.79116" lon="3.418996">
<ele>643.3</ele>
<time>2013-05-08T09:02:06.000Z</time>
</trkpt>
<trkpt lat="43.791241" lon="3.419383">
<ele>643.7</ele>
<time>2013-05-08T09:02:07.000Z</time>
</trkpt>
<trkpt lat="43.791346" lon="3.419771">
<ele>644</ele>
<time>2013-05-08T09:02:08.000Z</time>
</trkpt>
<trkpt lat="43.791489" lon="3.420161">
<ele>644.5</ele>
<time>2013-05-08T09:02:09.000Z</time>
</trkpt>
<trkpt lat="43.791664" lon="3.420544">
<ele>645.3</ele>
<time>2013-05-08T09:02:10.000Z</time>
</trkpt>
<trkpt lat="43.791831" lon="3.420918">
<ele>646.3</ele>
<time>2013-05-08T09:02:11.000Z</time>
</trkpt>
<trkpt lat="43.791981" lon="3.421312">
<ele>647.3</ele>
<time>2013-05-08T09:02:12.000Z</time>
</trkpt>
<trkpt lat="43.792116" lon="3.42172">
<ele>648.4</ele>
<time>2013-05-08T09:02:13.000Z</time>
</trkpt>
<trkpt lat="43.792214" lon="3.42213">
<ele>649.8</ele>
<time>2013-05-08T09:02:14.000Z</time>
</trkpt>
<trkpt lat="43.792298" lon="3.422526">
<ele>651.3</ele>
<time>2013-05-08T09:02:15.000Z</time>
</trkpt>
<trkpt lat="43.792364" lon="3.422868">
<ele>652.7</ele>
<time>2013-05-08T09:02:16.000Z</time>
</trkpt>
<trkpt lat="43.792405" lon="3.423202">
<ele>653.8</ele>
<time>2013-05-08T09:02:17.000Z</time>
</trkpt>
<trkpt lat="43.792436" lon="3.423405">
<ele>654.2</ele>
<time>2013-05-08T09:02:18.000Z</time>
</trkpt>
<trkpt lat="43.792476" lon="3.423566">
<ele>654.5</ele>
<time>2013-05-08T09:02:19.000Z</time>
</trkpt>
<trkpt lat="43.792512" lon="3.423686">
<ele>654.7</ele>
<time>2013-05-08T09:02:20.000Z</time>
</trkpt>
<trkpt lat="43.792545" lon="3.423781">
<ele>654.6</ele>
<time>2013-05-08T09:02:21.000Z</time>
</trkpt>
<trkpt lat="43.792563" lon="3.423842">
<ele>654.8</ele>
<time>2013-05-08T09:02:22.000Z</time>
</trkpt>
<trkpt lat="43.792584" lon="3.423899">
<ele>655.1</ele>
<time>2013-05-08T09:02:23.000Z</time>
</trkpt>
<trkpt lat="43.79261" lon="3.423942">
<ele>655.1</ele>
<time>2013-05-08T09:02:24.000Z</time>
</trkpt>
<trkpt lat="43.792648" lon="3.423968">
<ele>655</ele>
<time>2013-05-08T09:02:25.000Z</time>
</trkpt>
<trkpt lat="43.7927" lon="3.42395">
<ele>655</ele>
<time>2013-05-08T09:02:26.000Z</time>
</trkpt>
<trkpt lat="43.792765" lon="3.423939">
<ele>655.3</ele>
<time>2013-05-08T09:02:27.000Z</time>
</trkpt>
<trkpt lat="43.79284" lon="3.423884">
<ele>655.7</ele>
<time>2013-05-08T09:02:28.000Z</time>
</trkpt>
<trkpt lat="43.792913" lon="3.42382">
<ele>656.3</ele>
<time>2013-05-08T09:02:29.000Z</time>
</trkpt>
<trkpt lat="43.792992" lon="3.423757">
<ele>657.2</ele>
<time>2013-05-08T09:02:30.000Z</time>
</trkpt>
<trkpt lat="43.793073" lon="3.423732">
<ele>658.4</ele>
<time>2013-05-08T09:02:31.000Z</time>
</trkpt>
<trkpt lat="43.793159" lon="3.423735">
<ele>660.1</ele>
<time>2013-05-08T09:02:32.000Z</time>
</trkpt>
<trkpt lat="43.793245" lon="3.423746">
<ele>661.9</ele>
<time>2013-05-08T09:02:33.000Z</time>
</trkpt>
<trkpt lat="43.793333" lon="3.423764">
<ele>663.6</ele>
<time>2013-05-08T09:02:34.000Z</time>
</trkpt>
<trkpt lat="43.793421" lon="3.42379">
<ele>665.2</ele>
<time>2013-05-08T09:02:35.000Z</time>
</trkpt>
<trkpt lat="43.793495" lon="3.42382">
<ele>666.7</ele>
<time>2013-05-08T09:02:36.000Z</time>
</trkpt>
<trkpt lat="43.793562" lon="3.423856">
<ele>668.1</ele>
<time>2013-05-08T09:02:37.000Z</time>
</trkpt>
<trkpt lat="43.793606" lon="3.42388">
<ele>669</ele>
<time>2013-05-08T09:02:38.000Z</time>
</trkpt>
<trkpt lat="43.793634" lon="3.423894">
<ele>669.9</ele>
<time>2013-05-08T09:02:39.000Z</time>
</trkpt>
<trkpt lat="43.79365" lon="3.4239">
<ele>670</ele>
<time>2013-05-08T09:02:40.000Z</time>
</trkpt>
<trkpt lat="43.793665" lon="3.423906">
<ele>670.1</ele>
<time>2013-05-08T09:03:56.000Z</time>
</trkpt>
<trkpt lat="43.793718" lon="3.423942">
<ele>670.7</ele>
<time>2013-05-08T09:03:57.000Z</time>
</trkpt>
<trkpt lat="43.793823" lon="3.42397">
<ele>671.2</ele>
<time>2013-05-08T09:03:58.000Z</time>
</trkpt>
<trkpt lat="43.793934" lon="3.423998">
<ele>671.6</ele>
<time>2013-05-08T09:03:59.000Z</time>
</trkpt>
<trkpt lat="43.794043" lon="3.424021">
<ele>671.9</ele>
<time>2013-05-08T09:04:00.000Z</time>
</trkpt>
<trkpt lat="43.794145" lon="3.424042">
<ele>672</ele>
<time>2013-05-08T09:04:01.000Z</time>
</trkpt>
<trkpt lat="43.794266" lon="3.42406">
<ele>672</ele>
<time>2013-05-08T09:04:02.000Z</time>
</trkpt>
<trkpt lat="43.794406" lon="3.424067">
<ele>672.1</ele>
<time>2013-05-08T09:04:03.000Z</time>
</trkpt>
<trkpt lat="43.794566" lon="3.424062">
<ele>672.2</ele>
<time>2013-05-08T09:04:04.000Z</time>
</trkpt>
<trkpt lat="43.794751" lon="3.424039">
<ele>671.9</ele>
<time>2013-05-08T09:04:05.000Z</time>
</trkpt>
<trkpt lat="43.79493" lon="3.423998">
<ele>671.6</ele>
<time>2013-05-08T09:04:06.000Z</time>
</trkpt>
<trkpt lat="43.795132" lon="3.42393">
<ele>671.4</ele>
<time>2013-05-08T09:04:07.000Z</time>
</trkpt>
<trkpt lat="43.795343" lon="3.423841">
<ele>671.2</ele>
<time>2013-05-08T09:04:08.000Z</time>
</trkpt>
<trkpt lat="43.795515" lon="3.42373">
<ele>670.6</ele>
<time>2013-05-08T09:04:09.000Z</time>
</trkpt>
<trkpt lat="43.795699" lon="3.423523">
<ele>670</ele>
<time>2013-05-08T09:04:10.000Z</time>
</trkpt>
<trkpt lat="43.795881" lon="3.423259">
<ele>669.4</ele>
<time>2013-05-08T09:04:11.000Z</time>
</trkpt>
<trkpt lat="43.796066" lon="3.422986">
<ele>668.8</ele>
<time>2013-05-08T09:04:12.000Z</time>
</trkpt>
<trkpt lat="43.796235" lon="3.422699">
<ele>668.9</ele>
<time>2013-05-08T09:04:13.000Z</time>
</trkpt>
<trkpt lat="43.79639" lon="3.422345">
<ele>669.1</ele>
<time>2013-05-08T09:04:14.000Z</time>
</trkpt>
<trkpt lat="43.796536" lon="3.421911">
<ele>669.7</ele>
<time>2013-05-08T09:04:15.000Z</time>
</trkpt>
<trkpt lat="43.7967" lon="3.421524">
<ele>670.8</ele>
<time>2013-05-08T09:04:16.000Z</time>
</trkpt>
<trkpt lat="43.796882" lon="3.421125">
<ele>672.6</ele>
<time>2013-05-08T09:04:17.000Z</time>
</trkpt>
<trkpt lat="43.797048" lon="3.420757">
<ele>674.6</ele>
<time>2013-05-08T09:04:18.000Z</time>
</trkpt>
<trkpt lat="43.7972" lon="3.420409">
<ele>676.4</ele>
<time>2013-05-08T09:04:19.000Z</time>
</trkpt>
<trkpt lat="43.797345" lon="3.420081">
<ele>677.9</ele>
<time>2013-05-08T09:04:20.000Z</time>
</trkpt>
<trkpt lat="43.797477" lon="3.41978">
<ele>679.1</ele>
<time>2013-05-08T09:04:21.000Z</time>
</trkpt>
<trkpt lat="43.7976" lon="3.419498">
<ele>680.1</ele>
<time>2013-05-08T09:04:22.000Z</time>
</trkpt>
<trkpt lat="43.797722" lon="3.419223">
<ele>681.2</ele>
<time>2013-05-08T09:04:23.000Z</time>
</trkpt>
<trkpt lat="43.79783" lon="3.418973">
<ele>681.9</ele>
<time>2013-05-08T09:04:24.000Z</time>
</trkpt>
<trkpt lat="43.797934" lon="3.418741">
<ele>682.5</ele>
<time>2013-05-08T09:04:25.000Z</time>
</trkpt>
<trkpt lat="43.798038" lon="3.418521">
<ele>683.1</ele>
<time>2013-05-08T09:04:26.000Z</time>
</trkpt>
<trkpt lat="43.798136" lon="3.418317">
<ele>683.6</ele>
<time>2013-05-08T09:04:27.000Z</time>
</trkpt>
<trkpt lat="43.798245" lon="3.418133">
<ele>684.2</ele>
<time>2013-05-08T09:04:28.000Z</time>
</trkpt>
<trkpt lat="43.798372" lon="3.417963">
<ele>684.8</ele>
<time>2013-05-08T09:04:29.000Z</time>
</trkpt>
<trkpt lat="43.798516" lon="3.417799">
<ele>685.3</ele>
<time>2013-05-08T09:04:30.000Z</time>
</trkpt>
<trkpt lat="43.798689" lon="3.417653">
<ele>685.4</ele>
<time>2013-05-08T09:04:31.000Z</time>
</trkpt>
<trkpt lat="43.798879" lon="3.417513">
<ele>685.3</ele>
<time>2013-05-08T09:04:32.000Z</time>
</trkpt>
<trkpt lat="43.799097" lon="3.417374">
<ele>685</ele>
<time>2013-05-08T09:04:33.000Z</time>
</trkpt>
<trkpt lat="43.799338" lon="3.417224">
<ele>684.7</ele>
<time>2013-05-08T09:04:34.000Z</time>
</trkpt>
<trkpt lat="43.79959" lon="3.417053">
<ele>685.1</ele>
<time>2013-05-08T09:04:35.000Z</time>
</trkpt>
<trkpt lat="43.79984" lon="3.416885">
<ele>685.6</ele>
<time>2013-05-08T09:04:36.000Z</time>
</trkpt>
<trkpt lat="43.800334" lon="3.416568">
<ele>687.1</ele>
<time>2013-05-08T09:04:38.000Z</time>
</trkpt>
<trkpt lat="43.800577" lon="3.416421">
<ele>688.1</ele>
<time>2013-05-08T09:04:39.000Z</time>
</trkpt>
<trkpt lat="43.80082" lon="3.416274">
<ele>688.9</ele>
<time>2013-05-08T09:04:40.000Z</time>
</trkpt>
<trkpt lat="43.801065" lon="3.416128">
<ele>689.6</ele>
<time>2013-05-08T09:04:41.000Z</time>
</trkpt>
<trkpt lat="43.80131" lon="3.415984">
<ele>690.2</ele>
<time>2013-05-08T09:04:42.000Z</time>
</trkpt>
<trkpt lat="43.801548" lon="3.415838">
<ele>690.8</ele>
<time>2013-05-08T09:04:43.000Z</time>
</trkpt>
<trkpt lat="43.801763" lon="3.415675">
<ele>692.2</ele>
<time>2013-05-08T09:04:44.000Z</time>
</trkpt>
<trkpt lat="43.801967" lon="3.415492">
<ele>693.3</ele>
<time>2013-05-08T09:04:45.000Z</time>
</trkpt>
<trkpt lat="43.802148" lon="3.415253">
<ele>694</ele>
<time>2013-05-08T09:04:46.000Z</time>
</trkpt>
<trkpt lat="43.802287" lon="3.414966">
<ele>694.8</ele>
<time>2013-05-08T09:04:47.000Z</time>
</trkpt>
<trkpt lat="43.802385" lon="3.41463">
<ele>696.5</ele>
<time>2013-05-08T09:04:48.000Z</time>
</trkpt>
<trkpt lat="43.802482" lon="3.414309">
<ele>698.2</ele>
<time>2013-05-08T09:04:49.000Z</time>
</trkpt>
<trkpt lat="43.80256" lon="3.414005">
<ele>699.6</ele>
<time>2013-05-08T09:04:50.000Z</time>
</trkpt>
<trkpt lat="43.802668" lon="3.41371">
<ele>701.5</ele>
<time>2013-05-08T09:04:51.000Z</time>
</trkpt>
<trkpt lat="43.802809" lon="3.413445">
<ele>703.2</ele>
<time>2013-05-08T09:04:52.000Z</time>
</trkpt>
<trkpt lat="43.802992" lon="3.413217">
<ele>704.9</ele>
<time>2013-05-08T09:04:53.000Z</time>
</trkpt>
<trkpt lat="43.803199" lon="3.413012">
<ele>706.6</ele>
<time>2013-05-08T09:04:54.000Z</time>
</trkpt>
<trkpt lat="43.803416" lon="3.412823">
<ele>708.3</ele>
<time>2013-05-08T09:04:55.000Z</time>
</trkpt>
<trkpt lat="43.803626" lon="3.412643">
<ele>710.7</ele>
<time>2013-05-08T09:04:56.000Z</time>
</trkpt>
<trkpt lat="43.803823" lon="3.412488">
<ele>713.2</ele>
<time>2013-05-08T09:04:57.000Z</time>
</trkpt>
<trkpt lat="43.804014" lon="3.412339">
<ele>715.6</ele>
<time>2013-05-08T09:04:58.000Z</time>
</trkpt>
<trkpt lat="43.804216" lon="3.412201">
<ele>717.8</ele>
<time>2013-05-08T09:04:59.000Z</time>
</trkpt>
<trkpt lat="43.804418" lon="3.412062">
<ele>719.8</ele>
<time>2013-05-08T09:05:00.000Z</time>
</trkpt>
<trkpt lat="43.804624" lon="3.411938">
<ele>721.6</ele>
<time>2013-05-08T09:05:01.000Z</time>
</trkpt>
<trkpt lat="43.804829" lon="3.411815">
<ele>723.3</ele>
<time>2013-05-08T09:05:02.000Z</time>
</trkpt>
<trkpt lat="43.805023" lon="3.411687">
<ele>725.5</ele>
<time>2013-05-08T09:05:03.000Z</time>
</trkpt>
<trkpt lat="43.805197" lon="3.411526">
<ele>727.4</ele>
<time>2013-05-08T09:05:04.000Z</time>
</trkpt>
<trkpt lat="43.805339" lon="3.41132">
<ele>729</ele>
<time>2013-05-08T09:05:05.000Z</time>
</trkpt>
<trkpt lat="43.805474" lon="3.411093">
<ele>730.4</ele>
<time>2013-05-08T09:05:06.000Z</time>
</trkpt>
<trkpt lat="43.805601" lon="3.410876">
<ele>731.7</ele>
<time>2013-05-08T09:05:07.000Z</time>
</trkpt>
<trkpt lat="43.80575" lon="3.410682">
<ele>733.2</ele>
<time>2013-05-08T09:05:08.000Z</time>
</trkpt>
<trkpt lat="43.8059" lon="3.410511">
<ele>734.3</ele>
<time>2013-05-08T09:05:09.000Z</time>
</trkpt>
<trkpt lat="43.806084" lon="3.410378">
<ele>735.1</ele>
<time>2013-05-08T09:05:10.000Z</time>
</trkpt>
<trkpt lat="43.806279" lon="3.410258">
<ele>736</ele>
<time>2013-05-08T09:05:11.000Z</time>
</trkpt>
<trkpt lat="43.806491" lon="3.410161">
<ele>737.1</ele>
<time>2013-05-08T09:05:12.000Z</time>
</trkpt>
<trkpt lat="43.806719" lon="3.410088">
<ele>738.2</ele>
<time>2013-05-08T09:05:13.000Z</time>
</trkpt>
<trkpt lat="43.806956" lon="3.41004">
<ele>739.3</ele>
<time>2013-05-08T09:05:14.000Z</time>
</trkpt>
<trkpt lat="43.807202" lon="3.410019">
<ele>740.1</ele>
<time>2013-05-08T09:05:15.000Z</time>
</trkpt>
<trkpt lat="43.807452" lon="3.41002">
<ele>740.7</ele>
<time>2013-05-08T09:05:16.000Z</time>
</trkpt>
<trkpt lat="43.807705" lon="3.410029">
<ele>741</ele>
<time>2013-05-08T09:05:17.000Z</time>
</trkpt>
<trkpt lat="43.807952" lon="3.410031">
<ele>741.4</ele>
<time>2013-05-08T09:05:18.000Z</time>
</trkpt>
<trkpt lat="43.808193" lon="3.410048">
<ele>741.4</ele>
<time>2013-05-08T09:05:19.000Z</time>
</trkpt>
<trkpt lat="43.808427" lon="3.410067">
<ele>741.5</ele>
<time>2013-05-08T09:05:20.000Z</time>
</trkpt>
<trkpt lat="43.808654" lon="3.41008">
<ele>741.4</ele>
<time>2013-05-08T09:05:21.000Z</time>
</trkpt>
<trkpt lat="43.808872" lon="3.410077">
<ele>741.7</ele>
<time>2013-05-08T09:05:22.000Z</time>
</trkpt>
<trkpt lat="43.80907" lon="3.410028">
<ele>741.9</ele>
<time>2013-05-08T09:05:23.000Z</time>
</trkpt>
<trkpt lat="43.809244" lon="3.409948">
<ele>742.1</ele>
<time>2013-05-08T09:05:24.000Z</time>
</trkpt>
<trkpt lat="43.809384" lon="3.409819">
<ele>742.2</ele>
<time>2013-05-08T09:05:25.000Z</time>
</trkpt>
<trkpt lat="43.809517" lon="3.409637">
<ele>742.6</ele>
<time>2013-05-08T09:05:26.000Z</time>
</trkpt>
<trkpt lat="43.809638" lon="3.40942">
<ele>743.2</ele>
<time>2013-05-08T09:05:27.000Z</time>
</trkpt>
<trkpt lat="43.80972" lon="3.409137">
<ele>744.4</ele>
<time>2013-05-08T09:05:28.000Z</time>
</trkpt>
<trkpt lat="43.809787" lon="3.408863">
<ele>745.4</ele>
<time>2013-05-08T09:05:29.000Z</time>
</trkpt>
<trkpt lat="43.809849" lon="3.408591">
<ele>746.8</ele>
<time>2013-05-08T09:05:30.000Z</time>
</trkpt>
<trkpt lat="43.809913" lon="3.40832">
<ele>748</ele>
<time>2013-05-08T09:05:31.000Z</time>
</trkpt>
<trkpt lat="43.809988" lon="3.40804">
<ele>749</ele>
<time>2013-05-08T09:05:32.000Z</time>
</trkpt>
<trkpt lat="43.810079" lon="3.407745">
<ele>749.6</ele>
<time>2013-05-08T09:05:33.000Z</time>
</trkpt>
<trkpt lat="43.810199" lon="3.407452">
<ele>750</ele>
<time>2013-05-08T09:05:34.000Z</time>
</trkpt>
<trkpt lat="43.810325" lon="3.407137">
<ele>750</ele>
<time>2013-05-08T09:05:35.000Z</time>
</trkpt>
<trkpt lat="43.810456" lon="3.406823">
<ele>749.6</ele>
<time>2013-05-08T09:05:36.000Z</time>
</trkpt>
<trkpt lat="43.810602" lon="3.406496">
<ele>748.7</ele>
<time>2013-05-08T09:05:37.000Z</time>
</trkpt>
<trkpt lat="43.810754" lon="3.406162">
<ele>747.9</ele>
<time>2013-05-08T09:05:38.000Z</time>
</trkpt>
<trkpt lat="43.810906" lon="3.405829">
<ele>747.1</ele>
<time>2013-05-08T09:05:39.000Z</time>
</trkpt>
<trkpt lat="43.811057" lon="3.405498">
<ele>746.4</ele>
<time>2013-05-08T09:05:40.000Z</time>
</trkpt>
<trkpt lat="43.811207" lon="3.40517">
<ele>745.7</ele>
<time>2013-05-08T09:05:41.000Z</time>
</trkpt>
<trkpt lat="43.811352" lon="3.404857">
<ele>744.9</ele>
<time>2013-05-08T09:05:42.000Z</time>
</trkpt>
<trkpt lat="43.811497" lon="3.404572">
<ele>744</ele>
<time>2013-05-08T09:05:43.000Z</time>
</trkpt>
<trkpt lat="43.811663" lon="3.40432">
<ele>743.2</ele>
<time>2013-05-08T09:05:44.000Z</time>
</trkpt>
<trkpt lat="43.811846" lon="3.404086">
<ele>742.4</ele>
<time>2013-05-08T09:05:45.000Z</time>
</trkpt>
<trkpt lat="43.81204" lon="3.403863">
<ele>741.8</ele>
<time>2013-05-08T09:05:46.000Z</time>
</trkpt>
<trkpt lat="43.812231" lon="3.403627">
<ele>741.5</ele>
<time>2013-05-08T09:05:47.000Z</time>
</trkpt>
<trkpt lat="43.812404" lon="3.403373">
<ele>741.3</ele>
<time>2013-05-08T09:05:48.000Z</time>
</trkpt>
<trkpt lat="43.81255" lon="3.403085">
<ele>741.4</ele>
<time>2013-05-08T09:05:49.000Z</time>
</trkpt>
<trkpt lat="43.812657" lon="3.402749">
<ele>741.7</ele>
<time>2013-05-08T09:05:50.000Z</time>
</trkpt>
<trkpt lat="43.812744" lon="3.402396">
<ele>741.9</ele>
<time>2013-05-08T09:05:51.000Z</time>
</trkpt>
<trkpt lat="43.812833" lon="3.40204">
<ele>742.3</ele>
<time>2013-05-08T09:05:52.000Z</time>
</trkpt>
<trkpt lat="43.812916" lon="3.401682">
<ele>743.1</ele>
<time>2013-05-08T09:05:53.000Z</time>
</trkpt>
<trkpt lat="43.813" lon="3.401323">
<ele>744</ele>
<time>2013-05-08T09:05:54.000Z</time>
</trkpt>
<trkpt lat="43.813079" lon="3.400966">
<ele>744.9</ele>
<time>2013-05-08T09:05:55.000Z</time>
</trkpt>
<trkpt lat="43.81316" lon="3.400611">
<ele>745.6</ele>
<time>2013-05-08T09:05:56.000Z</time>
</trkpt>
<trkpt lat="43.813237" lon="3.400281">
<ele>746.3</ele>
<time>2013-05-08T09:05:57.000Z</time>
</trkpt>
<trkpt lat="43.813312" lon="3.399966">
<ele>747.1</ele>
<time>2013-05-08T09:05:58.000Z</time>
</trkpt>
<trkpt lat="43.813386" lon="3.399663">
<ele>748</ele>
<time>2013-05-08T09:05:59.000Z</time>
</trkpt>
<trkpt lat="43.81346" lon="3.399365">
<ele>749</ele>
<time>2013-05-08T09:06:00.000Z</time>
</trkpt>
<trkpt lat="43.813542" lon="3.399064">
<ele>750.2</ele>
<time>2013-05-08T09:06:01.000Z</time>
</trkpt>
<trkpt lat="43.813623" lon="3.398765">
<ele>751.4</ele>
<time>2013-05-08T09:06:02.000Z</time>
</trkpt>
<trkpt lat="43.813702" lon="3.398466">
<ele>752.6</ele>
<time>2013-05-08T09:06:03.000Z</time>
</trkpt>
<trkpt lat="43.81378" lon="3.398157">
<ele>753.8</ele>
<time>2013-05-08T09:06:04.000Z</time>
</trkpt>
<trkpt lat="43.813837" lon="3.397838">
<ele>755.1</ele>
<time>2013-05-08T09:06:05.000Z</time>
</trkpt>
<trkpt lat="43.813886" lon="3.397503">
<ele>756.1</ele>
<time>2013-05-08T09:06:06.000Z</time>
</trkpt>
<trkpt lat="43.813925" lon="3.397148">
<ele>757</ele>
<time>2013-05-08T09:06:07.000Z</time>
</trkpt>
<trkpt lat="43.813951" lon="3.396777">
<ele>758.1</ele>
<time>2013-05-08T09:06:08.000Z</time>
</trkpt>
<trkpt lat="43.813978" lon="3.396389">
<ele>759.3</ele>
<time>2013-05-08T09:06:09.000Z</time>
</trkpt>
<trkpt lat="43.814007" lon="3.395994">
<ele>760.4</ele>
<time>2013-05-08T09:06:10.000Z</time>
</trkpt>
<trkpt lat="43.814036" lon="3.395611">
<ele>761.5</ele>
<time>2013-05-08T09:06:11.000Z</time>
</trkpt>
<trkpt lat="43.814065" lon="3.395231">
<ele>762.6</ele>
<time>2013-05-08T09:06:12.000Z</time>
</trkpt>
<trkpt lat="43.814091" lon="3.394869">
<ele>763.6</ele>
<time>2013-05-08T09:06:13.000Z</time>
</trkpt>
<trkpt lat="43.814116" lon="3.394514">
<ele>764.7</ele>
<time>2013-05-08T09:06:14.000Z</time>
</trkpt>
<trkpt lat="43.814142" lon="3.394167">
<ele>765.5</ele>
<time>2013-05-08T09:06:15.000Z</time>
</trkpt>
<trkpt lat="43.814166" lon="3.393813">
<ele>766.3</ele>
<time>2013-05-08T09:06:16.000Z</time>
</trkpt>
<trkpt lat="43.814191" lon="3.393466">
<ele>767</ele>
<time>2013-05-08T09:06:17.000Z</time>
</trkpt>
<trkpt lat="43.814217" lon="3.393127">
<ele>767.7</ele>
<time>2013-05-08T09:06:18.000Z</time>
</trkpt>
<trkpt lat="43.814243" lon="3.392793">
<ele>768.3</ele>
<time>2013-05-08T09:06:19.000Z</time>
</trkpt>
<trkpt lat="43.81427" lon="3.39247">
<ele>768.7</ele>
<time>2013-05-08T09:06:20.000Z</time>
</trkpt>
<trkpt lat="43.814293" lon="3.392148">
<ele>769</ele>
<time>2013-05-08T09:06:21.000Z</time>
</trkpt>
<trkpt lat="43.814318" lon="3.391832">
<ele>769.2</ele>
<time>2013-05-08T09:06:22.000Z</time>
</trkpt>
<trkpt lat="43.814349" lon="3.391528">
<ele>769.5</ele>
<time>2013-05-08T09:06:23.000Z</time>
</trkpt>
<trkpt lat="43.814385" lon="3.391238">
<ele>769.7</ele>
<time>2013-05-08T09:06:24.000Z</time>
</trkpt>
<trkpt lat="43.814437" lon="3.390975">
<ele>769.7</ele>
<time>2013-05-08T09:06:25.000Z</time>
</trkpt>
<trkpt lat="43.814536" lon="3.390729">
<ele>769.6</ele>
<time>2013-05-08T09:06:26.000Z</time>
</trkpt>
<trkpt lat="43.814674" lon="3.390494">
<ele>769.9</ele>
<time>2013-05-08T09:06:27.000Z</time>
</trkpt>
<trkpt lat="43.814834" lon="3.390279">
<ele>770.3</ele>
<time>2013-05-08T09:06:28.000Z</time>
</trkpt>
<trkpt lat="43.815024" lon="3.390085">
<ele>770.8</ele>
<time>2013-05-08T09:06:29.000Z</time>
</trkpt>
<trkpt lat="43.815222" lon="3.389889">
<ele>771.3</ele>
<time>2013-05-08T09:06:30.000Z</time>
</trkpt>
<trkpt lat="43.815445" lon="3.389688">
<ele>771.6</ele>
<time>2013-05-08T09:06:31.000Z</time>
</trkpt>
<trkpt lat="43.815682" lon="3.389472">
<ele>772</ele>
<time>2013-05-08T09:06:32.000Z</time>
</trkpt>
<trkpt lat="43.815919" lon="3.38925">
<ele>772.2</ele>
<time>2013-05-08T09:06:33.000Z</time>
</trkpt>
<trkpt lat="43.81616" lon="3.389022">
<ele>772.4</ele>
<time>2013-05-08T09:06:34.000Z</time>
</trkpt>
<trkpt lat="43.816405" lon="3.388788">
<ele>772.7</ele>
<time>2013-05-08T09:06:35.000Z</time>
</trkpt>
<trkpt lat="43.81665" lon="3.38855">
<ele>773.1</ele>
<time>2013-05-08T09:06:36.000Z</time>
</trkpt>
<trkpt lat="43.816894" lon="3.388307">
<ele>773.8</ele>
<time>2013-05-08T09:06:37.000Z</time>
</trkpt>
<trkpt lat="43.817138" lon="3.388058">
<ele>774.5</ele>
<time>2013-05-08T09:06:38.000Z</time>
</trkpt>
<trkpt lat="43.817381" lon="3.387814">
<ele>775.4</ele>
<time>2013-05-08T09:06:39.000Z</time>
</trkpt>
<trkpt lat="43.81762" lon="3.387575">
<ele>775.7</ele>
<time>2013-05-08T09:06:40.000Z</time>
</trkpt>
<trkpt lat="43.817847" lon="3.387352">
<ele>775.9</ele>
<time>2013-05-08T09:06:41.000Z</time>
</trkpt>
<trkpt lat="43.818065" lon="3.38714">
<ele>776.1</ele>
<time>2013-05-08T09:06:42.000Z</time>
</trkpt>
<trkpt lat="43.818276" lon="3.386934">
<ele>776.3</ele>
<time>2013-05-08T09:06:43.000Z</time>
</trkpt>
<trkpt lat="43.818473" lon="3.386744">
<ele>776.8</ele>
<time>2013-05-08T09:06:44.000Z</time>
</trkpt>
<trkpt lat="43.818682" lon="3.386538">
<ele>777.3</ele>
<time>2013-05-08T09:06:45.000Z</time>
</trkpt>
<trkpt lat="43.8189" lon="3.386322">
<ele>778</ele>
<time>2013-05-08T09:06:46.000Z</time>
</trkpt>
<trkpt lat="43.819126" lon="3.386097">
<ele>779.1</ele>
<time>2013-05-08T09:06:47.000Z</time>
</trkpt>
<trkpt lat="43.819363" lon="3.385864">
<ele>779.9</ele>
<time>2013-05-08T09:06:48.000Z</time>
</trkpt>
<trkpt lat="43.819602" lon="3.385628">
<ele>780.6</ele>
<time>2013-05-08T09:06:49.000Z</time>
</trkpt>
<trkpt lat="43.819838" lon="3.385395">
<ele>781.3</ele>
<time>2013-05-08T09:06:50.000Z</time>
</trkpt>
<trkpt lat="43.820074" lon="3.385164">
<ele>782.1</ele>
<time>2013-05-08T09:06:51.000Z</time>
</trkpt>
<trkpt lat="43.820304" lon="3.384936">
<ele>782.9</ele>
<time>2013-05-08T09:06:52.000Z</time>
</trkpt>
<trkpt lat="43.820529" lon="3.384713">
<ele>783.6</ele>
<time>2013-05-08T09:06:53.000Z</time>
</trkpt>
<trkpt lat="43.820751" lon="3.384495">
<ele>784.3</ele>
<time>2013-05-08T09:06:54.000Z</time>
</trkpt>
<trkpt lat="43.820972" lon="3.384284">
<ele>785</ele>
<time>2013-05-08T09:06:55.000Z</time>
</trkpt>
<trkpt lat="43.82119" lon="3.384073">
<ele>785.8</ele>
<time>2013-05-08T09:06:56.000Z</time>
</trkpt>
<trkpt lat="43.821409" lon="3.383867">
<ele>786.2</ele>
<time>2013-05-08T09:06:57.000Z</time>
</trkpt>
<trkpt lat="43.821629" lon="3.383651">
<ele>786.9</ele>
<time>2013-05-08T09:06:58.000Z</time>
</trkpt>
<trkpt lat="43.82185" lon="3.383442">
<ele>787.4</ele>
<time>2013-05-08T09:06:59.000Z</time>
</trkpt>
<trkpt lat="43.822072" lon="3.38322">
<ele>788.4</ele>
<time>2013-05-08T09:07:00.000Z</time>
</trkpt>
<trkpt lat="43.822292" lon="3.382995">
<ele>789.6</ele>
<time>2013-05-08T09:07:01.000Z</time>
</trkpt>
<trkpt lat="43.822513" lon="3.382771">
<ele>790.9</ele>
<time>2013-05-08T09:07:02.000Z</time>
</trkpt>
<trkpt lat="43.822733" lon="3.382552">
<ele>792.3</ele>
<time>2013-05-08T09:07:03.000Z</time>
</trkpt>
<trkpt lat="43.822951" lon="3.382335">
<ele>793.7</ele>
<time>2013-05-08T09:07:04.000Z</time>
</trkpt>
<trkpt lat="43.823172" lon="3.382116">
<ele>795.1</ele>
<time>2013-05-08T09:07:05.000Z</time>
</trkpt>
<trkpt lat="43.823394" lon="3.381896">
<ele>796.5</ele>
<time>2013-05-08T09:07:06.000Z</time>
</trkpt>
<trkpt lat="43.823615" lon="3.381678">
<ele>797.8</ele>
<time>2013-05-08T09:07:07.000Z</time>
</trkpt>
<trkpt lat="43.823836" lon="3.381462">
<ele>799</ele>
<time>2013-05-08T09:07:08.000Z</time>
</trkpt>
<trkpt lat="43.824057" lon="3.381245">
<ele>800.3</ele>
<time>2013-05-08T09:07:09.000Z</time>
</trkpt>
<trkpt lat="43.824276" lon="3.381028">
<ele>801.4</ele>
<time>2013-05-08T09:07:10.000Z</time>
</trkpt>
<trkpt lat="43.824493" lon="3.380813">
<ele>802.7</ele>
<time>2013-05-08T09:07:11.000Z</time>
</trkpt>
<trkpt lat="43.824704" lon="3.380602">
<ele>803.8</ele>
<time>2013-05-08T09:07:12.000Z</time>
</trkpt>
<trkpt lat="43.824916" lon="3.380393">
<ele>805.1</ele>
<time>2013-05-08T09:07:13.000Z</time>
</trkpt>
<trkpt lat="43.825117" lon="3.380193">
<ele>806.3</ele>
<time>2013-05-08T09:07:14.000Z</time>
</trkpt>
<trkpt lat="43.825314" lon="3.379999">
<ele>807.5</ele>
<time>2013-05-08T09:07:15.000Z</time>
</trkpt>
<trkpt lat="43.82551" lon="3.379813">
<ele>808.6</ele>
<time>2013-05-08T09:07:16.000Z</time>
</trkpt>
<trkpt lat="43.825704" lon="3.379643">
<ele>809.5</ele>
<time>2013-05-08T09:07:17.000Z</time>
</trkpt>
<trkpt lat="43.825924" lon="3.379479">
<ele>810</ele>
<time>2013-05-08T09:07:18.000Z</time>
</trkpt>
<trkpt lat="43.826151" lon="3.379359">
<ele>810.6</ele>
<time>2013-05-08T09:07:19.000Z</time>
</trkpt>
<trkpt lat="43.826393" lon="3.379245">
<ele>810.9</ele>
<time>2013-05-08T09:07:20.000Z</time>
</trkpt>
<trkpt lat="43.826649" lon="3.37911">
<ele>810.9</ele>
<time>2013-05-08T09:07:21.000Z</time>
</trkpt>
<trkpt lat="43.82691" lon="3.378967">
<ele>810.8</ele>
<time>2013-05-08T09:07:22.000Z</time>
</trkpt>
<trkpt lat="43.827169" lon="3.378826">
<ele>810.5</ele>
<time>2013-05-08T09:07:23.000Z</time>
</trkpt>
<trkpt lat="43.827426" lon="3.37869">
<ele>810.1</ele>
<time>2013-05-08T09:07:24.000Z</time>
</trkpt>
<trkpt lat="43.827678" lon="3.37854">
<ele>810.5</ele>
<time>2013-05-08T09:07:25.000Z</time>
</trkpt>
<trkpt lat="43.827922" lon="3.378397">
<ele>811</ele>
<time>2013-05-08T09:07:26.000Z</time>
</trkpt>
<trkpt lat="43.828164" lon="3.378256">
<ele>811.6</ele>
<time>2013-05-08T09:07:27.000Z</time>
</trkpt>
<trkpt lat="43.828399" lon="3.378122">
<ele>812.2</ele>
<time>2013-05-08T09:07:28.000Z</time>
</trkpt>
<trkpt lat="43.828628" lon="3.377993">
<ele>812.7</ele>
<time>2013-05-08T09:07:29.000Z</time>
</trkpt>
<trkpt lat="43.828856" lon="3.377865">
<ele>813.3</ele>
<time>2013-05-08T09:07:30.000Z</time>
</trkpt>
<trkpt lat="43.829085" lon="3.377744">
<ele>813.6</ele>
<time>2013-05-08T09:07:31.000Z</time>
</trkpt>
<trkpt lat="43.829308" lon="3.377628">
<ele>813.8</ele>
<time>2013-05-08T09:07:32.000Z</time>
</trkpt>
<trkpt lat="43.829526" lon="3.377504">
<ele>813.9</ele>
<time>2013-05-08T09:07:33.000Z</time>
</trkpt>
<trkpt lat="43.829739" lon="3.377379">
<ele>813.8</ele>
<time>2013-05-08T09:07:34.000Z</time>
</trkpt>
<trkpt lat="43.82995" lon="3.377249">
<ele>813.5</ele>
<time>2013-05-08T09:07:35.000Z</time>
</trkpt>
<trkpt lat="43.830158" lon="3.377108">
<ele>813.1</ele>
<time>2013-05-08T09:07:36.000Z</time>
</trkpt>
<trkpt lat="43.830362" lon="3.376951">
<ele>812.4</ele>
<time>2013-05-08T09:07:37.000Z</time>
</trkpt>
<trkpt lat="43.830553" lon="3.376754">
<ele>811.5</ele>
<time>2013-05-08T09:07:38.000Z</time>
</trkpt>
<trkpt lat="43.830693" lon="3.376486">
<ele>810.9</ele>
<time>2013-05-08T09:07:39.000Z</time>
</trkpt>
<trkpt lat="43.830799" lon="3.376204">
<ele>810.5</ele>
<time>2013-05-08T09:07:40.000Z</time>
</trkpt>
<trkpt lat="43.830878" lon="3.3759">
<ele>810.4</ele>
<time>2013-05-08T09:07:41.000Z</time>
</trkpt>
<trkpt lat="43.830943" lon="3.375607">
<ele>810.1</ele>
<time>2013-05-08T09:07:42.000Z</time>
</trkpt>
<trkpt lat="43.831016" lon="3.375307">
<ele>809.5</ele>
<time>2013-05-08T09:07:43.000Z</time>
</trkpt>
<trkpt lat="43.831117" lon="3.375009">
<ele>808.8</ele>
<time>2013-05-08T09:07:44.000Z</time>
</trkpt>
<trkpt lat="43.831245" lon="3.37474">
<ele>808</ele>
<time>2013-05-08T09:07:45.000Z</time>
</trkpt>
<trkpt lat="43.831384" lon="3.374484">
<ele>807.4</ele>
<time>2013-05-08T09:07:46.000Z</time>
</trkpt>
<trkpt lat="43.831523" lon="3.374236">
<ele>806.8</ele>
<time>2013-05-08T09:07:47.000Z</time>
</trkpt>
<trkpt lat="43.831667" lon="3.373982">
<ele>806.3</ele>
<time>2013-05-08T09:07:48.000Z</time>
</trkpt>
<trkpt lat="43.831812" lon="3.373726">
<ele>805.8</ele>
<time>2013-05-08T09:07:49.000Z</time>
</trkpt>
<trkpt lat="43.831959" lon="3.373464">
<ele>805.2</ele>
<time>2013-05-08T09:07:50.000Z</time>
</trkpt>
<trkpt lat="43.83211" lon="3.373195">
<ele>804.4</ele>
<time>2013-05-08T09:07:51.000Z</time>
</trkpt>
<trkpt lat="43.832263" lon="3.372921">
<ele>803.4</ele>
<time>2013-05-08T09:07:52.000Z</time>
</trkpt>
<trkpt lat="43.832415" lon="3.372643">
<ele>802.4</ele>
<time>2013-05-08T09:07:53.000Z</time>
</trkpt>
<trkpt lat="43.832571" lon="3.372364">
<ele>801.3</ele>
<time>2013-05-08T09:07:54.000Z</time>
</trkpt>
<trkpt lat="43.832739" lon="3.37209">
<ele>800.5</ele>
<time>2013-05-08T09:07:55.000Z</time>
</trkpt>
<trkpt lat="43.832925" lon="3.371826">
<ele>799.8</ele>
<time>2013-05-08T09:07:56.000Z</time>
</trkpt>
<trkpt lat="43.833131" lon="3.371561">
<ele>799.1</ele>
<time>2013-05-08T09:07:57.000Z</time>
</trkpt>
<trkpt lat="43.833338" lon="3.371297">
<ele>798.5</ele>
<time>2013-05-08T09:07:58.000Z</time>
</trkpt>
<trkpt lat="43.833544" lon="3.371043">
<ele>798</ele>
<time>2013-05-08T09:07:59.000Z</time>
</trkpt>
<trkpt lat="43.833758" lon="3.370789">
<ele>797.7</ele>
<time>2013-05-08T09:08:00.000Z</time>
</trkpt>
<trkpt lat="43.83397" lon="3.370534">
<ele>797.5</ele>
<time>2013-05-08T09:08:01.000Z</time>
</trkpt>
<trkpt lat="43.834179" lon="3.370279">
<ele>797.4</ele>
<time>2013-05-08T09:08:02.000Z</time>
</trkpt>
<trkpt lat="43.834385" lon="3.370029">
<ele>797.3</ele>
<time>2013-05-08T09:08:03.000Z</time>
</trkpt>
<trkpt lat="43.834587" lon="3.369783">
<ele>797.5</ele>
<time>2013-05-08T09:08:04.000Z</time>
</trkpt>
<trkpt lat="43.834784" lon="3.369543">
<ele>797.7</ele>
<time>2013-05-08T09:08:05.000Z</time>
</trkpt>
<trkpt lat="43.834982" lon="3.369316">
<ele>797.9</ele>
<time>2013-05-08T09:08:06.000Z</time>
</trkpt>
<trkpt lat="43.835179" lon="3.369109">
<ele>798</ele>
<time>2013-05-08T09:08:07.000Z</time>
</trkpt>
<trkpt lat="43.835393" lon="3.368917">
<ele>798.1</ele>
<time>2013-05-08T09:08:08.000Z</time>
</trkpt>
<trkpt lat="43.835634" lon="3.368789">
<ele>798.4</ele>
<time>2013-05-08T09:08:09.000Z</time>
</trkpt>
<trkpt lat="43.835885" lon="3.368703">
<ele>798.5</ele>
<time>2013-05-08T09:08:10.000Z</time>
</trkpt>
<trkpt lat="43.836141" lon="3.368632">
<ele>798.3</ele>
<time>2013-05-08T09:08:11.000Z</time>
</trkpt>
<trkpt lat="43.83641" lon="3.368563">
<ele>798.4</ele>
<time>2013-05-08T09:08:12.000Z</time>
</trkpt>
<trkpt lat="43.836693" lon="3.368524">
<ele>798.7</ele>
<time>2013-05-08T09:08:13.000Z</time>
</trkpt>
<trkpt lat="43.836973" lon="3.368478">
<ele>799.1</ele>
<time>2013-05-08T09:08:14.000Z</time>
</trkpt>
<trkpt lat="43.837253" lon="3.368424">
<ele>799.5</ele>
<time>2013-05-08T09:08:15.000Z</time>
</trkpt>
<trkpt lat="43.837523" lon="3.368364">
<ele>799.8</ele>
<time>2013-05-08T09:08:16.000Z</time>
</trkpt>
<trkpt lat="43.837782" lon="3.368302">
<ele>800.2</ele>
<time>2013-05-08T09:08:17.000Z</time>
</trkpt>
<trkpt lat="43.838036" lon="3.368238">
<ele>800.6</ele>
<time>2013-05-08T09:08:18.000Z</time>
</trkpt>
<trkpt lat="43.838289" lon="3.368173">
<ele>800.9</ele>
<time>2013-05-08T09:08:19.000Z</time>
</trkpt>
<trkpt lat="43.838541" lon="3.368106">
<ele>801.3</ele>
<time>2013-05-08T09:08:20.000Z</time>
</trkpt>
<trkpt lat="43.83879" lon="3.368039">
<ele>801.4</ele>
<time>2013-05-08T09:08:21.000Z</time>
</trkpt>
<trkpt lat="43.839045" lon="3.367972">
<ele>801.4</ele>
<time>2013-05-08T09:08:22.000Z</time>
</trkpt>
<trkpt lat="43.839313" lon="3.367902">
<ele>801.1</ele>
<time>2013-05-08T09:08:23.000Z</time>
</trkpt>
<trkpt lat="43.839585" lon="3.367828">
<ele>800.8</ele>
<time>2013-05-08T09:08:24.000Z</time>
</trkpt>
<trkpt lat="43.839862" lon="3.367754">
<ele>800.5</ele>
<time>2013-05-08T09:08:25.000Z</time>
</trkpt>
<trkpt lat="43.84014" lon="3.367676">
<ele>800.3</ele>
<time>2013-05-08T09:08:26.000Z</time>
</trkpt>
<trkpt lat="43.84042" lon="3.367599">
<ele>800.1</ele>
<time>2013-05-08T09:08:27.000Z</time>
</trkpt>
<trkpt lat="43.840693" lon="3.367522">
<ele>799.9</ele>
<time>2013-05-08T09:08:28.000Z</time>
</trkpt>
<trkpt lat="43.840967" lon="3.367445">
<ele>799.7</ele>
<time>2013-05-08T09:08:29.000Z</time>
</trkpt>
<trkpt lat="43.841242" lon="3.367367">
<ele>799.9</ele>
<time>2013-05-08T09:08:30.000Z</time>
</trkpt>
<trkpt lat="43.841508" lon="3.367292">
<ele>800.1</ele>
<time>2013-05-08T09:08:31.000Z</time>
</trkpt>
<trkpt lat="43.84177" lon="3.367219">
<ele>800.4</ele>
<time>2013-05-08T09:08:32.000Z</time>
</trkpt>
<trkpt lat="43.842025" lon="3.36715">
<ele>800.5</ele>
<time>2013-05-08T09:08:33.000Z</time>
</trkpt>
<trkpt lat="43.842285" lon="3.367081">
<ele>800.6</ele>
<time>2013-05-08T09:08:34.000Z</time>
</trkpt>
<trkpt lat="43.842544" lon="3.367011">
<ele>800.8</ele>
<time>2013-05-08T09:08:35.000Z</time>
</trkpt>
<trkpt lat="43.842799" lon="3.366945">
<ele>800.8</ele>
<time>2013-05-08T09:08:36.000Z</time>
</trkpt>
<trkpt lat="43.843052" lon="3.366881">
<ele>800.6</ele>
<time>2013-05-08T09:08:37.000Z</time>
</trkpt>
<trkpt lat="43.843307" lon="3.366815">
<ele>800.4</ele>
<time>2013-05-08T09:08:38.000Z</time>
</trkpt>
<trkpt lat="43.843563" lon="3.36675">
<ele>800.1</ele>
<time>2013-05-08T09:08:39.000Z</time>
</trkpt>
<trkpt lat="43.843822" lon="3.366682">
<ele>799.8</ele>
<time>2013-05-08T09:08:40.000Z</time>
</trkpt>
<trkpt lat="43.844092" lon="3.36661">
<ele>799.6</ele>
<time>2013-05-08T09:08:41.000Z</time>
</trkpt>
<trkpt lat="43.844366" lon="3.366539">
<ele>799.1</ele>
<time>2013-05-08T09:08:42.000Z</time>
</trkpt>
<trkpt lat="43.844649" lon="3.366467">
<ele>798.8</ele>
<time>2013-05-08T09:08:43.000Z</time>
</trkpt>
<trkpt lat="43.844939" lon="3.366389">
<ele>798.6</ele>
<time>2013-05-08T09:08:44.000Z</time>
</trkpt>
<trkpt lat="43.845226" lon="3.366314">
<ele>797.9</ele>
<time>2013-05-08T09:08:45.000Z</time>
</trkpt>
<trkpt lat="43.845504" lon="3.366242">
<ele>797.2</ele>
<time>2013-05-08T09:08:46.000Z</time>
</trkpt>
<trkpt lat="43.845776" lon="3.366173">
<ele>796.6</ele>
<time>2013-05-08T09:08:47.000Z</time>
</trkpt>
<trkpt lat="43.846036" lon="3.366102">
<ele>796.4</ele>
<time>2013-05-08T09:08:48.000Z</time>
</trkpt>
<trkpt lat="43.846288" lon="3.36603">
<ele>796.1</ele>
<time>2013-05-08T09:08:49.000Z</time>
</trkpt>
<trkpt lat="43.846532" lon="3.365963">
<ele>795.7</ele>
<time>2013-05-08T09:08:50.000Z</time>
</trkpt>
<trkpt lat="43.846763" lon="3.3659">
<ele>795.7</ele>
<time>2013-05-08T09:08:51.000Z</time>
</trkpt>
<trkpt lat="43.846993" lon="3.365839">
<ele>795.8</ele>
<time>2013-05-08T09:08:52.000Z</time>
</trkpt>
<trkpt lat="43.847228" lon="3.365778">
<ele>796</ele>
<time>2013-05-08T09:08:53.000Z</time>
</trkpt>
<trkpt lat="43.847457" lon="3.365722">
<ele>796.5</ele>
<time>2013-05-08T09:08:54.000Z</time>
</trkpt>
<trkpt lat="43.847678" lon="3.365663">
<ele>797.7</ele>
<time>2013-05-08T09:08:55.000Z</time>
</trkpt>
<trkpt lat="43.847901" lon="3.365602">
<ele>799.4</ele>
<time>2013-05-08T09:08:56.000Z</time>
</trkpt>
<trkpt lat="43.848112" lon="3.365533">
<ele>800.9</ele>
<time>2013-05-08T09:08:57.000Z</time>
</trkpt>
<trkpt lat="43.848319" lon="3.365445">
<ele>802.2</ele>
<time>2013-05-08T09:08:58.000Z</time>
</trkpt>
<trkpt lat="43.848488" lon="3.36529">
<ele>803.2</ele>
<time>2013-05-08T09:08:59.000Z</time>
</trkpt>
<trkpt lat="43.848607" lon="3.365027">
<ele>803.7</ele>
<time>2013-05-08T09:09:00.000Z</time>
</trkpt>
<trkpt lat="43.848726" lon="3.364752">
<ele>805.4</ele>
<time>2013-05-08T09:09:01.000Z</time>
</trkpt>
<trkpt lat="43.848876" lon="3.364484">
<ele>807.6</ele>
<time>2013-05-08T09:09:02.000Z</time>
</trkpt>
<trkpt lat="43.849025" lon="3.364218">
<ele>809.8</ele>
<time>2013-05-08T09:09:03.000Z</time>
</trkpt>
<trkpt lat="43.849175" lon="3.363979">
<ele>811.3</ele>
<time>2013-05-08T09:09:04.000Z</time>
</trkpt>
<trkpt lat="43.849324" lon="3.363752">
<ele>812</ele>
<time>2013-05-08T09:09:05.000Z</time>
</trkpt>
<trkpt lat="43.849481" lon="3.363532">
<ele>812</ele>
<time>2013-05-08T09:09:06.000Z</time>
</trkpt>
<trkpt lat="43.849656" lon="3.363353">
<ele>811.9</ele>
<time>2013-05-08T09:09:07.000Z</time>
</trkpt>
<trkpt lat="43.849867" lon="3.363234">
<ele>812.1</ele>
<time>2013-05-08T09:09:08.000Z</time>
</trkpt>
<trkpt lat="43.850089" lon="3.363144">
<ele>812.4</ele>
<time>2013-05-08T09:09:09.000Z</time>
</trkpt>
<trkpt lat="43.850307" lon="3.36307">
<ele>812.4</ele>
<time>2013-05-08T09:09:10.000Z</time>
</trkpt>
<trkpt lat="43.850516" lon="3.363004">
<ele>812.2</ele>
<time>2013-05-08T09:09:11.000Z</time>
</trkpt>
<trkpt lat="43.850708" lon="3.362936">
<ele>811.6</ele>
<time>2013-05-08T09:09:12.000Z</time>
</trkpt>
<trkpt lat="43.850868" lon="3.362814">
<ele>810.9</ele>
<time>2013-05-08T09:09:13.000Z</time>
</trkpt>
<trkpt lat="43.851001" lon="3.362663">
<ele>810.2</ele>
<time>2013-05-08T09:09:14.000Z</time>
</trkpt>
<trkpt lat="43.851119" lon="3.362489">
<ele>809.5</ele>
<time>2013-05-08T09:09:15.000Z</time>
</trkpt>
<trkpt lat="43.851224" lon="3.362307">
<ele>808.8</ele>
<time>2013-05-08T09:09:16.000Z</time>
</trkpt>
<trkpt lat="43.851298" lon="3.362094">
<ele>808.2</ele>
<time>2013-05-08T09:09:17.000Z</time>
</trkpt>
<trkpt lat="43.851326" lon="3.361879">
<ele>807.4</ele>
<time>2013-05-08T09:09:18.000Z</time>
</trkpt>
<trkpt lat="43.851313" lon="3.361661">
<ele>806.7</ele>
<time>2013-05-08T09:09:19.000Z</time>
</trkpt>
<trkpt lat="43.851285" lon="3.361421">
<ele>805.8</ele>
<time>2013-05-08T09:09:20.000Z</time>
</trkpt>
<trkpt lat="43.851242" lon="3.36118">
<ele>804.9</ele>
<time>2013-05-08T09:09:21.000Z</time>
</trkpt>
<trkpt lat="43.851191" lon="3.360938">
<ele>803.8</ele>
<time>2013-05-08T09:09:22.000Z</time>
</trkpt>
<trkpt lat="43.851133" lon="3.360666">
<ele>802.6</ele>
<time>2013-05-08T09:09:23.000Z</time>
</trkpt>
<trkpt lat="43.851072" lon="3.360369">
<ele>801.2</ele>
<time>2013-05-08T09:09:24.000Z</time>
</trkpt>
<trkpt lat="43.850999" lon="3.36006">
<ele>799.6</ele>
<time>2013-05-08T09:09:25.000Z</time>
</trkpt>
<trkpt lat="43.850914" lon="3.359758">
<ele>798.2</ele>
<time>2013-05-08T09:09:26.000Z</time>
</trkpt>
<trkpt lat="43.850814" lon="3.359453">
<ele>796.6</ele>
<time>2013-05-08T09:09:27.000Z</time>
</trkpt>
<trkpt lat="43.850722" lon="3.359137">
<ele>795.1</ele>
<time>2013-05-08T09:09:28.000Z</time>
</trkpt>
<trkpt lat="43.850639" lon="3.358825">
<ele>793.8</ele>
<time>2013-05-08T09:09:29.000Z</time>
</trkpt>
<trkpt lat="43.850569" lon="3.358526">
<ele>792.5</ele>
<time>2013-05-08T09:09:30.000Z</time>
</trkpt>
<trkpt lat="43.850514" lon="3.358228">
<ele>791.2</ele>
<time>2013-05-08T09:09:31.000Z</time>
</trkpt>
<trkpt lat="43.850501" lon="3.357925">
<ele>789.8</ele>
<time>2013-05-08T09:09:32.000Z</time>
</trkpt>
<trkpt lat="43.850529" lon="3.357621">
<ele>788.8</ele>
<time>2013-05-08T09:09:33.000Z</time>
</trkpt>
<trkpt lat="43.850573" lon="3.357318">
<ele>788</ele>
<time>2013-05-08T09:09:34.000Z</time>
</trkpt>
<trkpt lat="43.850631" lon="3.357012">
<ele>787.2</ele>
<time>2013-05-08T09:09:35.000Z</time>
</trkpt>
<trkpt lat="43.850692" lon="3.3567">
<ele>786.2</ele>
<time>2013-05-08T09:09:36.000Z</time>
</trkpt>
<trkpt lat="43.850762" lon="3.356372">
<ele>785</ele>
<time>2013-05-08T09:09:37.000Z</time>
</trkpt>
<trkpt lat="43.850852" lon="3.356026">
<ele>784.1</ele>
<time>2013-05-08T09:09:38.000Z</time>
</trkpt>
<trkpt lat="43.850958" lon="3.355667">
<ele>783.5</ele>
<time>2013-05-08T09:09:39.000Z</time>
</trkpt>
<trkpt lat="43.851078" lon="3.355309">
<ele>782.9</ele>
<time>2013-05-08T09:09:40.000Z</time>
</trkpt>
<trkpt lat="43.851205" lon="3.354959">
<ele>782.2</ele>
<time>2013-05-08T09:09:41.000Z</time>
</trkpt>
<trkpt lat="43.851333" lon="3.354599">
<ele>781.3</ele>
<time>2013-05-08T09:09:42.000Z</time>
</trkpt>
<trkpt lat="43.851452" lon="3.354237">
<ele>780.3</ele>
<time>2013-05-08T09:09:43.000Z</time>
</trkpt>
<trkpt lat="43.851576" lon="3.353853">
<ele>779.3</ele>
<time>2013-05-08T09:09:44.000Z</time>
</trkpt>
<trkpt lat="43.8517" lon="3.353474">
<ele>778.4</ele>
<time>2013-05-08T09:09:45.000Z</time>
</trkpt>
<trkpt lat="43.851827" lon="3.353089">
<ele>777.7</ele>
<time>2013-05-08T09:09:46.000Z</time>
</trkpt>
<trkpt lat="43.851956" lon="3.352714">
<ele>777.3</ele>
<time>2013-05-08T09:09:47.000Z</time>
</trkpt>
<trkpt lat="43.852085" lon="3.35234">
<ele>776.9</ele>
<time>2013-05-08T09:09:48.000Z</time>
</trkpt>
<trkpt lat="43.852213" lon="3.351982">
<ele>776.7</ele>
<time>2013-05-08T09:09:49.000Z</time>
</trkpt>
<trkpt lat="43.852341" lon="3.35162">
<ele>776.9</ele>
<time>2013-05-08T09:09:50.000Z</time>
</trkpt>
<trkpt lat="43.852466" lon="3.351252">
<ele>777.2</ele>
<time>2013-05-08T09:09:51.000Z</time>
</trkpt>
<trkpt lat="43.852592" lon="3.350894">
<ele>777.5</ele>
<time>2013-05-08T09:09:52.000Z</time>
</trkpt>
<trkpt lat="43.852715" lon="3.350543">
<ele>777.9</ele>
<time>2013-05-08T09:09:53.000Z</time>
</trkpt>
<trkpt lat="43.852838" lon="3.350197">
<ele>778.5</ele>
<time>2013-05-08T09:09:54.000Z</time>
</trkpt>
<trkpt lat="43.852956" lon="3.349867">
<ele>779.2</ele>
<time>2013-05-08T09:09:55.000Z</time>
</trkpt>
<trkpt lat="43.85307" lon="3.349549">
<ele>780</ele>
<time>2013-05-08T09:09:56.000Z</time>
</trkpt>
<trkpt lat="43.853177" lon="3.349252">
<ele>780.8</ele>
<time>2013-05-08T09:09:57.000Z</time>
</trkpt>
<trkpt lat="43.853273" lon="3.348963">
<ele>781.7</ele>
<time>2013-05-08T09:09:58.000Z</time>
</trkpt>
<trkpt lat="43.853376" lon="3.348662">
<ele>782.4</ele>
<time>2013-05-08T09:09:59.000Z</time>
</trkpt>
<trkpt lat="43.853477" lon="3.348356">
<ele>783</ele>
<time>2013-05-08T09:10:00.000Z</time>
</trkpt>
<trkpt lat="43.853565" lon="3.348031">
<ele>783.7</ele>
<time>2013-05-08T09:10:01.000Z</time>
</trkpt>
<trkpt lat="43.853646" lon="3.347705">
<ele>784.2</ele>
<time>2013-05-08T09:10:02.000Z</time>
</trkpt>
<trkpt lat="43.853725" lon="3.347366">
<ele>784.5</ele>
<time>2013-05-08T09:10:03.000Z</time>
</trkpt>
<trkpt lat="43.853796" lon="3.347002">
<ele>784.6</ele>
<time>2013-05-08T09:10:04.000Z</time>
</trkpt>
<trkpt lat="43.853868" lon="3.34662">
<ele>784.6</ele>
<time>2013-05-08T09:10:05.000Z</time>
</trkpt>
<trkpt lat="43.853944" lon="3.346228">
<ele>784.7</ele>
<time>2013-05-08T09:10:06.000Z</time>
</trkpt>
<trkpt lat="43.854023" lon="3.345817">
<ele>785.1</ele>
<time>2013-05-08T09:10:07.000Z</time>
</trkpt>
<trkpt lat="43.854102" lon="3.345415">
<ele>785.7</ele>
<time>2013-05-08T09:10:08.000Z</time>
</trkpt>
<trkpt lat="43.85418" lon="3.345016">
<ele>786.6</ele>
<time>2013-05-08T09:10:09.000Z</time>
</trkpt>
<trkpt lat="43.854258" lon="3.344618">
<ele>787.7</ele>
<time>2013-05-08T09:10:10.000Z</time>
</trkpt>
<trkpt lat="43.854334" lon="3.344232">
<ele>788.7</ele>
<time>2013-05-08T09:10:11.000Z</time>
</trkpt>
<trkpt lat="43.854407" lon="3.343858">
<ele>789.1</ele>
<time>2013-05-08T09:10:12.000Z</time>
</trkpt>
<trkpt lat="43.854477" lon="3.34349">
<ele>789.1</ele>
<time>2013-05-08T09:10:13.000Z</time>
</trkpt>
<trkpt lat="43.85454" lon="3.343129">
<ele>789.2</ele>
<time>2013-05-08T09:10:14.000Z</time>
</trkpt>
<trkpt lat="43.854605" lon="3.342765">
<ele>789.2</ele>
<time>2013-05-08T09:10:15.000Z</time>
</trkpt>
<trkpt lat="43.854672" lon="3.342394">
<ele>789.2</ele>
<time>2013-05-08T09:10:16.000Z</time>
</trkpt>
<trkpt lat="43.854741" lon="3.342024">
<ele>789.4</ele>
<time>2013-05-08T09:10:17.000Z</time>
</trkpt>
<trkpt lat="43.854812" lon="3.341666">
<ele>789.8</ele>
<time>2013-05-08T09:10:18.000Z</time>
</trkpt>
<trkpt lat="43.854879" lon="3.341324">
<ele>790</ele>
<time>2013-05-08T09:10:19.000Z</time>
</trkpt>
<trkpt lat="43.854944" lon="3.340991">
<ele>789.9</ele>
<time>2013-05-08T09:10:20.000Z</time>
</trkpt>
<trkpt lat="43.855013" lon="3.340639">
<ele>789.7</ele>
<time>2013-05-08T09:10:21.000Z</time>
</trkpt>
<trkpt lat="43.855086" lon="3.340265">
<ele>789.5</ele>
<time>2013-05-08T09:10:22.000Z</time>
</trkpt>
<trkpt lat="43.855161" lon="3.339883">
<ele>789.4</ele>
<time>2013-05-08T09:10:23.000Z</time>
</trkpt>
<trkpt lat="43.855235" lon="3.339499">
<ele>789.2</ele>
<time>2013-05-08T09:10:24.000Z</time>
</trkpt>
<trkpt lat="43.855309" lon="3.339118">
<ele>789.1</ele>
<time>2013-05-08T09:10:25.000Z</time>
</trkpt>
<trkpt lat="43.855382" lon="3.338738">
<ele>788.9</ele>
<time>2013-05-08T09:10:26.000Z</time>
</trkpt>
<trkpt lat="43.855456" lon="3.338357">
<ele>788.9</ele>
<time>2013-05-08T09:10:27.000Z</time>
</trkpt>
<trkpt lat="43.85553" lon="3.337978">
<ele>789</ele>
<time>2013-05-08T09:10:28.000Z</time>
</trkpt>
<trkpt lat="43.855601" lon="3.337604">
<ele>789.6</ele>
<time>2013-05-08T09:10:29.000Z</time>
</trkpt>
<trkpt lat="43.855674" lon="3.337222">
<ele>789.8</ele>
<time>2013-05-08T09:10:30.000Z</time>
</trkpt>
<trkpt lat="43.855748" lon="3.336841">
<ele>789.8</ele>
<time>2013-05-08T09:10:31.000Z</time>
</trkpt>
<trkpt lat="43.85582" lon="3.336463">
<ele>789.8</ele>
<time>2013-05-08T09:10:32.000Z</time>
</trkpt>
<trkpt lat="43.855889" lon="3.336085">
<ele>789.7</ele>
<time>2013-05-08T09:10:33.000Z</time>
</trkpt>
<trkpt lat="43.85596" lon="3.335711">
<ele>789.8</ele>
<time>2013-05-08T09:10:34.000Z</time>
</trkpt>
<trkpt lat="43.856028" lon="3.335339">
<ele>789.8</ele>
<time>2013-05-08T09:10:35.000Z</time>
</trkpt>
<trkpt lat="43.8561" lon="3.334965">
<ele>789.8</ele>
<time>2013-05-08T09:10:36.000Z</time>
</trkpt>
<trkpt lat="43.856167" lon="3.334591">
<ele>789.8</ele>
<time>2013-05-08T09:10:37.000Z</time>
</trkpt>
<trkpt lat="43.856231" lon="3.334224">
<ele>789.9</ele>
<time>2013-05-08T09:10:38.000Z</time>
</trkpt>
<trkpt lat="43.856293" lon="3.333863">
<ele>790.1</ele>
<time>2013-05-08T09:10:39.000Z</time>
</trkpt>
<trkpt lat="43.856361" lon="3.333489">
<ele>790.4</ele>
<time>2013-05-08T09:10:40.000Z</time>
</trkpt>
<trkpt lat="43.856431" lon="3.333116">
<ele>790.7</ele>
<time>2013-05-08T09:10:41.000Z</time>
</trkpt>
<trkpt lat="43.856502" lon="3.332755">
<ele>791</ele>
<time>2013-05-08T09:10:42.000Z</time>
</trkpt>
<trkpt lat="43.85657" lon="3.33241">
<ele>791.4</ele>
<time>2013-05-08T09:10:43.000Z</time>
</trkpt>
<trkpt lat="43.856638" lon="3.332069">
<ele>791.8</ele>
<time>2013-05-08T09:10:44.000Z</time>
</trkpt>
<trkpt lat="43.856702" lon="3.331738">
<ele>792.3</ele>
<time>2013-05-08T09:10:45.000Z</time>
</trkpt>
<trkpt lat="43.856766" lon="3.331417">
<ele>793</ele>
<time>2013-05-08T09:10:46.000Z</time>
</trkpt>
<trkpt lat="43.856828" lon="3.331104">
<ele>793.3</ele>
<time>2013-05-08T09:10:47.000Z</time>
</trkpt>
<trkpt lat="43.856903" lon="3.330791">
<ele>793.4</ele>
<time>2013-05-08T09:10:48.000Z</time>
</trkpt>
<trkpt lat="43.85698" lon="3.330478">
<ele>793.3</ele>
<time>2013-05-08T09:10:49.000Z</time>
</trkpt>
<trkpt lat="43.857067" lon="3.330158">
<ele>793</ele>
<time>2013-05-08T09:10:50.000Z</time>
</trkpt>
<trkpt lat="43.857162" lon="3.32982">
<ele>792.9</ele>
<time>2013-05-08T09:10:51.000Z</time>
</trkpt>
<trkpt lat="43.857264" lon="3.329477">
<ele>792.7</ele>
<time>2013-05-08T09:10:52.000Z</time>
</trkpt>
<trkpt lat="43.857365" lon="3.329123">
<ele>792.5</ele>
<time>2013-05-08T09:10:53.000Z</time>
</trkpt>
<trkpt lat="43.85746" lon="3.328768">
<ele>792.3</ele>
<time>2013-05-08T09:10:54.000Z</time>
</trkpt>
<trkpt lat="43.857554" lon="3.328416">
<ele>791.9</ele>
<time>2013-05-08T09:10:55.000Z</time>
</trkpt>
<trkpt lat="43.857654" lon="3.328062">
<ele>791.6</ele>
<time>2013-05-08T09:10:56.000Z</time>
</trkpt>
<trkpt lat="43.857754" lon="3.327713">
<ele>791.3</ele>
<time>2013-05-08T09:10:57.000Z</time>
</trkpt>
<trkpt lat="43.857851" lon="3.327356">
<ele>790.9</ele>
<time>2013-05-08T09:10:58.000Z</time>
</trkpt>
<trkpt lat="43.857945" lon="3.327003">
<ele>790.2</ele>
<time>2013-05-08T09:10:59.000Z</time>
</trkpt>
<trkpt lat="43.85804" lon="3.326652">
<ele>789.2</ele>
<time>2013-05-08T09:11:00.000Z</time>
</trkpt>
<trkpt lat="43.858135" lon="3.326308">
<ele>788.4</ele>
<time>2013-05-08T09:11:01.000Z</time>
</trkpt>
<trkpt lat="43.858224" lon="3.325978">
<ele>787.6</ele>
<time>2013-05-08T09:11:02.000Z</time>
</trkpt>
<trkpt lat="43.858308" lon="3.325667">
<ele>786.6</ele>
<time>2013-05-08T09:11:03.000Z</time>
</trkpt>
<trkpt lat="43.858408" lon="3.32538">
<ele>785.6</ele>
<time>2013-05-08T09:11:04.000Z</time>
</trkpt>
<trkpt lat="43.858523" lon="3.325098">
<ele>784.8</ele>
<time>2013-05-08T09:11:05.000Z</time>
</trkpt>
<trkpt lat="43.858678" lon="3.324861">
<ele>784</ele>
<time>2013-05-08T09:11:06.000Z</time>
</trkpt>
<trkpt lat="43.858872" lon="3.324636">
<ele>783.9</ele>
<time>2013-05-08T09:11:07.000Z</time>
</trkpt>
<trkpt lat="43.859062" lon="3.324423">
<ele>783.9</ele>
<time>2013-05-08T09:11:08.000Z</time>
</trkpt>
<trkpt lat="43.859236" lon="3.324211">
<ele>783.8</ele>
<time>2013-05-08T09:11:09.000Z</time>
</trkpt>
<trkpt lat="43.859391" lon="3.324011">
<ele>783.6</ele>
<time>2013-05-08T09:11:10.000Z</time>
</trkpt>
<trkpt lat="43.859548" lon="3.323831">
<ele>783.6</ele>
<time>2013-05-08T09:11:11.000Z</time>
</trkpt>
<trkpt lat="43.859699" lon="3.323652">
<ele>783.4</ele>
<time>2013-05-08T09:11:12.000Z</time>
</trkpt>
<trkpt lat="43.859849" lon="3.323473">
<ele>782.8</ele>
<time>2013-05-08T09:11:13.000Z</time>
</trkpt>
<trkpt lat="43.860002" lon="3.323288">
<ele>782.4</ele>
<time>2013-05-08T09:11:14.000Z</time>
</trkpt>
<trkpt lat="43.860156" lon="3.323097">
<ele>781.9</ele>
<time>2013-05-08T09:11:15.000Z</time>
</trkpt>
<trkpt lat="43.860311" lon="3.322906">
<ele>781.7</ele>
<time>2013-05-08T09:11:16.000Z</time>
</trkpt>
<trkpt lat="43.860459" lon="3.322726">
<ele>781.4</ele>
<time>2013-05-08T09:11:17.000Z</time>
</trkpt>
<trkpt lat="43.860597" lon="3.32256">
<ele>781</ele>
<time>2013-05-08T09:11:18.000Z</time>
</trkpt>
<trkpt lat="43.860728" lon="3.322407">
<ele>781</ele>
<time>2013-05-08T09:11:19.000Z</time>
</trkpt>
<trkpt lat="43.860855" lon="3.322265">
<ele>781.5</ele>
<time>2013-05-08T09:11:20.000Z</time>
</trkpt>
<trkpt lat="43.860973" lon="3.32213">
<ele>782.3</ele>
<time>2013-05-08T09:11:21.000Z</time>
</trkpt>
<trkpt lat="43.861074" lon="3.322021">
<ele>783.3</ele>
<time>2013-05-08T09:11:22.000Z</time>
</trkpt>
<trkpt lat="43.86116" lon="3.321898">
<ele>783.8</ele>
<time>2013-05-08T09:11:23.000Z</time>
</trkpt>
<trkpt lat="43.861241" lon="3.321781">
<ele>784</ele>
<time>2013-05-08T09:11:24.000Z</time>
</trkpt>
<trkpt lat="43.861315" lon="3.321659">
<ele>784.5</ele>
<time>2013-05-08T09:11:25.000Z</time>
</trkpt>
<trkpt lat="43.86138" lon="3.321556">
<ele>785</ele>
<time>2013-05-08T09:11:26.000Z</time>
</trkpt>
<trkpt lat="43.861442" lon="3.321458">
<ele>785.5</ele>
<time>2013-05-08T09:11:27.000Z</time>
</trkpt>
<trkpt lat="43.861487" lon="3.321382">
<ele>785.9</ele>
<time>2013-05-08T09:11:28.000Z</time>
</trkpt>
<trkpt lat="43.861525" lon="3.321304">
<ele>786</ele>
<time>2013-05-08T09:11:29.000Z</time>
</trkpt>
<trkpt lat="43.861567" lon="3.321221">
<ele>786</ele>
<time>2013-05-08T09:11:30.000Z</time>
</trkpt>
<trkpt lat="43.861614" lon="3.321129">
<ele>785.7</ele>
<time>2013-05-08T09:11:31.000Z</time>
</trkpt>
<trkpt lat="43.861662" lon="3.321039">
<ele>785.4</ele>
<time>2013-05-08T09:11:32.000Z</time>
</trkpt>
<trkpt lat="43.861709" lon="3.320944">
<ele>785.4</ele>
<time>2013-05-08T09:11:33.000Z</time>
</trkpt>
<trkpt lat="43.861757" lon="3.320851">
<ele>785.7</ele>
<time>2013-05-08T09:11:34.000Z</time>
</trkpt>
<trkpt lat="43.861808" lon="3.320756">
<ele>786.4</ele>
<time>2013-05-08T09:11:35.000Z</time>
</trkpt>
<trkpt lat="43.861859" lon="3.32066">
<ele>786.9</ele>
<time>2013-05-08T09:11:36.000Z</time>
</trkpt>
<trkpt lat="43.86191" lon="3.320571">
<ele>787.5</ele>
<time>2013-05-08T09:11:37.000Z</time>
</trkpt>
<trkpt lat="43.861946" lon="3.320504">
<ele>787.8</ele>
<time>2013-05-08T09:11:38.000Z</time>
</trkpt>
<trkpt lat="43.861973" lon="3.320447">
<ele>787.7</ele>
<time>2013-05-08T09:11:39.000Z</time>
</trkpt>
<trkpt lat="43.862004" lon="3.320387">
<ele>787.5</ele>
<time>2013-05-08T09:11:40.000Z</time>
</trkpt>
<trkpt lat="43.862041" lon="3.320318">
<ele>787.2</ele>
<time>2013-05-08T09:11:41.000Z</time>
</trkpt>
<trkpt lat="43.86208" lon="3.320243">
<ele>786.8</ele>
<time>2013-05-08T09:11:42.000Z</time>
</trkpt>
<trkpt lat="43.86212" lon="3.320168">
<ele>786.7</ele>
<time>2013-05-08T09:11:43.000Z</time>
</trkpt>
<trkpt lat="43.862157" lon="3.32009">
<ele>786.6</ele>
<time>2013-05-08T09:11:44.000Z</time>
</trkpt>
<trkpt lat="43.8622" lon="3.320003">
<ele>786.7</ele>
<time>2013-05-08T09:11:45.000Z</time>
</trkpt>
<trkpt lat="43.862245" lon="3.31991">
<ele>786.8</ele>
<time>2013-05-08T09:11:46.000Z</time>
</trkpt>
<trkpt lat="43.862295" lon="3.319811">
<ele>786.9</ele>
<time>2013-05-08T09:11:47.000Z</time>
</trkpt>
<trkpt lat="43.862347" lon="3.319715">
<ele>786.8</ele>
<time>2013-05-08T09:11:48.000Z</time>
</trkpt>
<trkpt lat="43.862394" lon="3.319635">
<ele>786.7</ele>
<time>2013-05-08T09:11:49.000Z</time>
</trkpt>
<trkpt lat="43.862442" lon="3.319559">
<ele>786.7</ele>
<time>2013-05-08T09:11:50.000Z</time>
</trkpt>
<trkpt lat="43.862484" lon="3.319496">
<ele>787</ele>
<time>2013-05-08T09:11:51.000Z</time>
</trkpt>
<trkpt lat="43.862525" lon="3.319439">
<ele>787.3</ele>
<time>2013-05-08T09:11:52.000Z</time>
</trkpt>
<trkpt lat="43.862585" lon="3.319399">
<ele>787.4</ele>
<time>2013-05-08T09:11:53.000Z</time>
</trkpt>
<trkpt lat="43.862654" lon="3.319354">
<ele>787.4</ele>
<time>2013-05-08T09:11:54.000Z</time>
</trkpt>
<trkpt lat="43.862731" lon="3.319302">
<ele>787.4</ele>
<time>2013-05-08T09:11:55.000Z</time>
</trkpt>
<trkpt lat="43.862813" lon="3.319244">
<ele>787.4</ele>
<time>2013-05-08T09:11:56.000Z</time>
</trkpt>
<trkpt lat="43.862904" lon="3.319176">
<ele>787</ele>
<time>2013-05-08T09:11:57.000Z</time>
</trkpt>
<trkpt lat="43.863005" lon="3.319092">
<ele>786.7</ele>
<time>2013-05-08T09:11:58.000Z</time>
</trkpt>
<trkpt lat="43.863111" lon="3.319002">
<ele>786.6</ele>
<time>2013-05-08T09:11:59.000Z</time>
</trkpt>
<trkpt lat="43.863206" lon="3.318903">
<ele>787.2</ele>
<time>2013-05-08T09:12:00.000Z</time>
</trkpt>
<trkpt lat="43.863298" lon="3.318806">
<ele>787.6</ele>
<time>2013-05-08T09:12:01.000Z</time>
</trkpt>
<trkpt lat="43.863389" lon="3.318714">
<ele>788.1</ele>
<time>2013-05-08T09:12:02.000Z</time>
</trkpt>
<trkpt lat="43.863482" lon="3.318625">
<ele>788.5</ele>
<time>2013-05-08T09:12:03.000Z</time>
</trkpt>
<trkpt lat="43.863564" lon="3.318542">
<ele>788.8</ele>
<time>2013-05-08T09:12:04.000Z</time>
</trkpt>
<trkpt lat="43.863641" lon="3.318465">
<ele>789</ele>
<time>2013-05-08T09:12:05.000Z</time>
</trkpt>
<trkpt lat="43.863711" lon="3.318394">
<ele>789</ele>
<time>2013-05-08T09:12:06.000Z</time>
</trkpt>
<trkpt lat="43.863776" lon="3.318326">
<ele>789.1</ele>
<time>2013-05-08T09:12:07.000Z</time>
</trkpt>
<trkpt lat="43.863839" lon="3.318254">
<ele>789.5</ele>
<time>2013-05-08T09:12:08.000Z</time>
</trkpt>
<trkpt lat="43.863896" lon="3.318176">
<ele>790.2</ele>
<time>2013-05-08T09:12:09.000Z</time>
</trkpt>
<trkpt lat="43.863949" lon="3.318094">
<ele>791</ele>
<time>2013-05-08T09:12:10.000Z</time>
</trkpt>
<trkpt lat="43.864006" lon="3.318008">
<ele>791.5</ele>
<time>2013-05-08T09:12:11.000Z</time>
</trkpt>
<trkpt lat="43.864059" lon="3.317919">
<ele>792</ele>
<time>2013-05-08T09:12:12.000Z</time>
</trkpt>
<trkpt lat="43.864101" lon="3.317813">
<ele>792.5</ele>
<time>2013-05-08T09:12:13.000Z</time>
</trkpt>
<trkpt lat="43.864146" lon="3.3177">
<ele>792.9</ele>
<time>2013-05-08T09:12:14.000Z</time>
</trkpt>
<trkpt lat="43.864192" lon="3.317582">
<ele>793.2</ele>
<time>2013-05-08T09:12:15.000Z</time>
</trkpt>
<trkpt lat="43.864234" lon="3.317454">
<ele>793.1</ele>
<time>2013-05-08T09:12:16.000Z</time>
</trkpt>
<trkpt lat="43.864277" lon="3.317324">
<ele>793.3</ele>
<time>2013-05-08T09:12:17.000Z</time>
</trkpt>
<trkpt lat="43.86433" lon="3.317188">
<ele>793.1</ele>
<time>2013-05-08T09:12:18.000Z</time>
</trkpt>
<trkpt lat="43.864393" lon="3.31705">
<ele>792.5</ele>
<time>2013-05-08T09:12:19.000Z</time>
</trkpt>
<trkpt lat="43.864459" lon="3.316923">
<ele>791.5</ele>
<time>2013-05-08T09:12:20.000Z</time>
</trkpt>
<trkpt lat="43.864559" lon="3.316807">
<ele>791.1</ele>
<time>2013-05-08T09:12:21.000Z</time>
</trkpt>
<trkpt lat="43.864659" lon="3.316691">
<ele>791.3</ele>
<time>2013-05-08T09:12:22.000Z</time>
</trkpt>
<trkpt lat="43.864755" lon="3.316591">
<ele>791.6</ele>
<time>2013-05-08T09:12:23.000Z</time>
</trkpt>
<trkpt lat="43.864856" lon="3.316492">
<ele>791.7</ele>
<time>2013-05-08T09:12:24.000Z</time>
</trkpt>
<trkpt lat="43.864964" lon="3.316399">
<ele>791.6</ele>
<time>2013-05-08T09:12:25.000Z</time>
</trkpt>
<trkpt lat="43.865078" lon="3.316311">
<ele>791.2</ele>
<time>2013-05-08T09:12:26.000Z</time>
</trkpt>
<trkpt lat="43.865203" lon="3.316228">
<ele>790.6</ele>
<time>2013-05-08T09:12:27.000Z</time>
</trkpt>
<trkpt lat="43.865342" lon="3.316146">
<ele>789.7</ele>
<time>2013-05-08T09:12:28.000Z</time>
</trkpt>
<trkpt lat="43.865482" lon="3.316066">
<ele>788.8</ele>
<time>2013-05-08T09:12:29.000Z</time>
</trkpt>
<trkpt lat="43.865623" lon="3.315992">
<ele>788</ele>
<time>2013-05-08T09:12:30.000Z</time>
</trkpt>
<trkpt lat="43.865776" lon="3.315923">
<ele>787.6</ele>
<time>2013-05-08T09:12:31.000Z</time>
</trkpt>
<trkpt lat="43.86593" lon="3.315859">
<ele>787.2</ele>
<time>2013-05-08T09:12:32.000Z</time>
</trkpt>
<trkpt lat="43.86609" lon="3.315802">
<ele>786.7</ele>
<time>2013-05-08T09:12:33.000Z</time>
</trkpt>
<trkpt lat="43.866259" lon="3.31575">
<ele>786</ele>
<time>2013-05-08T09:12:34.000Z</time>
</trkpt>
<trkpt lat="43.866426" lon="3.315705">
<ele>785</ele>
<time>2013-05-08T09:12:35.000Z</time>
</trkpt>
<trkpt lat="43.866589" lon="3.315675">
<ele>783.9</ele>
<time>2013-05-08T09:12:36.000Z</time>
</trkpt>
<trkpt lat="43.86675" lon="3.315639">
<ele>782.6</ele>
<time>2013-05-08T09:12:37.000Z</time>
</trkpt>
<trkpt lat="43.866915" lon="3.315601">
<ele>781.6</ele>
<time>2013-05-08T09:12:38.000Z</time>
</trkpt>
<trkpt lat="43.867081" lon="3.315555">
<ele>780.6</ele>
<time>2013-05-08T09:12:39.000Z</time>
</trkpt>
<trkpt lat="43.867244" lon="3.315513">
<ele>779.7</ele>
<time>2013-05-08T09:12:40.000Z</time>
</trkpt>
<trkpt lat="43.867397" lon="3.315473">
<ele>778.9</ele>
<time>2013-05-08T09:12:41.000Z</time>
</trkpt>
<trkpt lat="43.867549" lon="3.315441">
<ele>778.5</ele>
<time>2013-05-08T09:12:42.000Z</time>
</trkpt>
<trkpt lat="43.86772" lon="3.315396">
<ele>778.2</ele>
<time>2013-05-08T09:12:43.000Z</time>
</trkpt>
<trkpt lat="43.867912" lon="3.315339">
<ele>778</ele>
<time>2013-05-08T09:12:44.000Z</time>
</trkpt>
<trkpt lat="43.868111" lon="3.31528">
<ele>777.6</ele>
<time>2013-05-08T09:12:45.000Z</time>
</trkpt>
<trkpt lat="43.868322" lon="3.315214">
<ele>777.1</ele>
<time>2013-05-08T09:12:46.000Z</time>
</trkpt>
<trkpt lat="43.868534" lon="3.31513">
<ele>776.6</ele>
<time>2013-05-08T09:12:47.000Z</time>
</trkpt>
<trkpt lat="43.868745" lon="3.315042">
<ele>776.1</ele>
<time>2013-05-08T09:12:48.000Z</time>
</trkpt>
<trkpt lat="43.868963" lon="3.314916">
<ele>775.6</ele>
<time>2013-05-08T09:12:49.000Z</time>
</trkpt>
<trkpt lat="43.869189" lon="3.314767">
<ele>775.2</ele>
<time>2013-05-08T09:12:50.000Z</time>
</trkpt>
<trkpt lat="43.869428" lon="3.3146">
<ele>775</ele>
<time>2013-05-08T09:12:51.000Z</time>
</trkpt>
<trkpt lat="43.869672" lon="3.31444">
<ele>775</ele>
<time>2013-05-08T09:12:52.000Z</time>
</trkpt>
<trkpt lat="43.869924" lon="3.314279">
<ele>775</ele>
<time>2013-05-08T09:12:53.000Z</time>
</trkpt>
<trkpt lat="43.870181" lon="3.31412">
<ele>775</ele>
<time>2013-05-08T09:12:54.000Z</time>
</trkpt>
<trkpt lat="43.87045" lon="3.313958">
<ele>774.7</ele>
<time>2013-05-08T09:12:55.000Z</time>
</trkpt>
<trkpt lat="43.870721" lon="3.313792">
<ele>774.5</ele>
<time>2013-05-08T09:12:56.000Z</time>
</trkpt>
<trkpt lat="43.870978" lon="3.313615">
<ele>774.5</ele>
<time>2013-05-08T09:12:57.000Z</time>
</trkpt>
<trkpt lat="43.87123" lon="3.313421">
<ele>774.9</ele>
<time>2013-05-08T09:12:58.000Z</time>
</trkpt>
<trkpt lat="43.871483" lon="3.313242">
<ele>775.7</ele>
<time>2013-05-08T09:12:59.000Z</time>
</trkpt>
<trkpt lat="43.871731" lon="3.313111">
<ele>776.4</ele>
<time>2013-05-08T09:13:00.000Z</time>
</trkpt>
<trkpt lat="43.871996" lon="3.313032">
<ele>776.7</ele>
<time>2013-05-08T09:13:01.000Z</time>
</trkpt>
<trkpt lat="43.872268" lon="3.313029">
<ele>777</ele>
<time>2013-05-08T09:13:02.000Z</time>
</trkpt>
<trkpt lat="43.872527" lon="3.313151">
<ele>779</ele>
<time>2013-05-08T09:13:03.000Z</time>
</trkpt>
<trkpt lat="43.872799" lon="3.313298">
<ele>781</ele>
<time>2013-05-08T09:13:04.000Z</time>
</trkpt>
<trkpt lat="43.873074" lon="3.313437">
<ele>782.7</ele>
<time>2013-05-08T09:13:05.000Z</time>
</trkpt>
<trkpt lat="43.873353" lon="3.313573">
<ele>784.2</ele>
<time>2013-05-08T09:13:06.000Z</time>
</trkpt>
<trkpt lat="43.873622" lon="3.313707">
<ele>784.8</ele>
<time>2013-05-08T09:13:07.000Z</time>
</trkpt>
<trkpt lat="43.873895" lon="3.313825">
<ele>785.4</ele>
<time>2013-05-08T09:13:08.000Z</time>
</trkpt>
<trkpt lat="43.874168" lon="3.313892">
<ele>785.9</ele>
<time>2013-05-08T09:13:09.000Z</time>
</trkpt>
<trkpt lat="43.874446" lon="3.31388">
<ele>786.5</ele>
<time>2013-05-08T09:13:10.000Z</time>
</trkpt>
<trkpt lat="43.874725" lon="3.313823">
<ele>787.6</ele>
<time>2013-05-08T09:13:11.000Z</time>
</trkpt>
<trkpt lat="43.875014" lon="3.313698">
<ele>788.2</ele>
<time>2013-05-08T09:13:12.000Z</time>
</trkpt>
<trkpt lat="43.875293" lon="3.313545">
<ele>789.5</ele>
<time>2013-05-08T09:13:13.000Z</time>
</trkpt>
<trkpt lat="43.875568" lon="3.313389">
<ele>790.8</ele>
<time>2013-05-08T09:13:14.000Z</time>
</trkpt>
<trkpt lat="43.875856" lon="3.313233">
<ele>791.8</ele>
<time>2013-05-08T09:13:15.000Z</time>
</trkpt>
<trkpt lat="43.876155" lon="3.313087">
<ele>792.7</ele>
<time>2013-05-08T09:13:16.000Z</time>
</trkpt>
<trkpt lat="43.87646" lon="3.31297">
<ele>793.7</ele>
<time>2013-05-08T09:13:17.000Z</time>
</trkpt>
<trkpt lat="43.876775" lon="3.312864">
<ele>794.7</ele>
<time>2013-05-08T09:13:18.000Z</time>
</trkpt>
<trkpt lat="43.877095" lon="3.312763">
<ele>795.5</ele>
<time>2013-05-08T09:13:19.000Z</time>
</trkpt>
<trkpt lat="43.877415" lon="3.312659">
<ele>796.2</ele>
<time>2013-05-08T09:13:20.000Z</time>
</trkpt>
<trkpt lat="43.877739" lon="3.312553">
<ele>796.9</ele>
<time>2013-05-08T09:13:21.000Z</time>
</trkpt>
<trkpt lat="43.878055" lon="3.312445">
<ele>797.6</ele>
<time>2013-05-08T09:13:22.000Z</time>
</trkpt>
<trkpt lat="43.878374" lon="3.312322">
<ele>798.1</ele>
<time>2013-05-08T09:13:23.000Z</time>
</trkpt>
<trkpt lat="43.878692" lon="3.312184">
<ele>798.4</ele>
<time>2013-05-08T09:13:24.000Z</time>
</trkpt>
<trkpt lat="43.879008" lon="3.312044">
<ele>798.6</ele>
<time>2013-05-08T09:13:25.000Z</time>
</trkpt>
<trkpt lat="43.879317" lon="3.311898">
<ele>798.9</ele>
<time>2013-05-08T09:13:26.000Z</time>
</trkpt>
<trkpt lat="43.87962" lon="3.311758">
<ele>799.1</ele>
<time>2013-05-08T09:13:27.000Z</time>
</trkpt>
<trkpt lat="43.879909" lon="3.311624">
<ele>799.2</ele>
<time>2013-05-08T09:13:28.000Z</time>
</trkpt>
<trkpt lat="43.88019" lon="3.311492">
<ele>799.4</ele>
<time>2013-05-08T09:13:29.000Z</time>
</trkpt>
<trkpt lat="43.88047" lon="3.311355">
<ele>800.1</ele>
<time>2013-05-08T09:13:30.000Z</time>
</trkpt>
<trkpt lat="43.88074" lon="3.311219">
<ele>801.1</ele>
<time>2013-05-08T09:13:31.000Z</time>
</trkpt>
<trkpt lat="43.881003" lon="3.311088">
<ele>802</ele>
<time>2013-05-08T09:13:32.000Z</time>
</trkpt>
<trkpt lat="43.881251" lon="3.310961">
<ele>803</ele>
<time>2013-05-08T09:13:33.000Z</time>
</trkpt>
<trkpt lat="43.88149" lon="3.310805">
<ele>803.7</ele>
<time>2013-05-08T09:13:34.000Z</time>
</trkpt>
<trkpt lat="43.881703" lon="3.310627">
<ele>804.4</ele>
<time>2013-05-08T09:13:35.000Z</time>
</trkpt>
<trkpt lat="43.881884" lon="3.310398">
<ele>804.3</ele>
<time>2013-05-08T09:13:36.000Z</time>
</trkpt>
<trkpt lat="43.882042" lon="3.310145">
<ele>804.5</ele>
<time>2013-05-08T09:13:37.000Z</time>
</trkpt>
<trkpt lat="43.882152" lon="3.309899">
<ele>806.4</ele>
<time>2013-05-08T09:13:38.000Z</time>
</trkpt>
<trkpt lat="43.88223" lon="3.309701">
<ele>807.8</ele>
<time>2013-05-08T09:13:39.000Z</time>
</trkpt>
<trkpt lat="43.882311" lon="3.309566">
<ele>809.4</ele>
<time>2013-05-08T09:13:40.000Z</time>
</trkpt>
<trkpt lat="43.88241" lon="3.309507">
<ele>810.7</ele>
<time>2013-05-08T09:13:41.000Z</time>
</trkpt>
<trkpt lat="43.882514" lon="3.309541">
<ele>811.5</ele>
<time>2013-05-08T09:13:42.000Z</time>
</trkpt>
<trkpt lat="43.882636" lon="3.309602">
<ele>811.9</ele>
<time>2013-05-08T09:13:43.000Z</time>
</trkpt>
<trkpt lat="43.882746" lon="3.309653">
<ele>812.4</ele>
<time>2013-05-08T09:13:44.000Z</time>
</trkpt>
<trkpt lat="43.882889" lon="3.309675">
<ele>812.8</ele>
<time>2013-05-08T09:13:45.000Z</time>
</trkpt>
<trkpt lat="43.883058" lon="3.309665">
<ele>813.2</ele>
<time>2013-05-08T09:13:46.000Z</time>
</trkpt>
<trkpt lat="43.883238" lon="3.309646">
<ele>813.3</ele>
<time>2013-05-08T09:13:47.000Z</time>
</trkpt>
<trkpt lat="43.883421" lon="3.309615">
<ele>813.1</ele>
<time>2013-05-08T09:13:48.000Z</time>
</trkpt>
<trkpt lat="43.883619" lon="3.30957">
<ele>812.9</ele>
<time>2013-05-08T09:13:49.000Z</time>
</trkpt>
<trkpt lat="43.883811" lon="3.309503">
<ele>812.6</ele>
<time>2013-05-08T09:13:50.000Z</time>
</trkpt>
<trkpt lat="43.884017" lon="3.309437">
<ele>812.3</ele>
<time>2013-05-08T09:13:51.000Z</time>
</trkpt>
<trkpt lat="43.884238" lon="3.309372">
<ele>811.9</ele>
<time>2013-05-08T09:13:52.000Z</time>
</trkpt>
<trkpt lat="43.884474" lon="3.309307">
<ele>811.4</ele>
<time>2013-05-08T09:13:53.000Z</time>
</trkpt>
<trkpt lat="43.884725" lon="3.30924">
<ele>811</ele>
<time>2013-05-08T09:13:54.000Z</time>
</trkpt>
<trkpt lat="43.884987" lon="3.309172">
<ele>810.5</ele>
<time>2013-05-08T09:13:55.000Z</time>
</trkpt>
<trkpt lat="43.885251" lon="3.309105">
<ele>810.1</ele>
<time>2013-05-08T09:13:56.000Z</time>
</trkpt>
<trkpt lat="43.885505" lon="3.309035">
<ele>809.8</ele>
<time>2013-05-08T09:13:57.000Z</time>
</trkpt>
<trkpt lat="43.885742" lon="3.308972">
<ele>809.6</ele>
<time>2013-05-08T09:13:58.000Z</time>
</trkpt>
<trkpt lat="43.885965" lon="3.308924">
<ele>809.8</ele>
<time>2013-05-08T09:13:59.000Z</time>
</trkpt>
<trkpt lat="43.886185" lon="3.30888">
<ele>810.6</ele>
<time>2013-05-08T09:14:00.000Z</time>
</trkpt>
<trkpt lat="43.8864" lon="3.308869">
<ele>811.9</ele>
<time>2013-05-08T09:14:01.000Z</time>
</trkpt>
<trkpt lat="43.886622" lon="3.308863">
<ele>812.9</ele>
<time>2013-05-08T09:14:02.000Z</time>
</trkpt>
<trkpt lat="43.886851" lon="3.308863">
<ele>813.6</ele>
<time>2013-05-08T09:14:03.000Z</time>
</trkpt>
<trkpt lat="43.887076" lon="3.308887">
<ele>814.2</ele>
<time>2013-05-08T09:14:04.000Z</time>
</trkpt>
<trkpt lat="43.887293" lon="3.308934">
<ele>815</ele>
<time>2013-05-08T09:14:05.000Z</time>
</trkpt>
<trkpt lat="43.887526" lon="3.309031">
<ele>816.3</ele>
<time>2013-05-08T09:14:06.000Z</time>
</trkpt>
<trkpt lat="43.887755" lon="3.309134">
<ele>817.7</ele>
<time>2013-05-08T09:14:07.000Z</time>
</trkpt>
<trkpt lat="43.887985" lon="3.309229">
<ele>819.1</ele>
<time>2013-05-08T09:14:08.000Z</time>
</trkpt>
<trkpt lat="43.888214" lon="3.309332">
<ele>820.3</ele>
<time>2013-05-08T09:14:09.000Z</time>
</trkpt>
<trkpt lat="43.888436" lon="3.309431">
<ele>821.4</ele>
<time>2013-05-08T09:14:10.000Z</time>
</trkpt>
<trkpt lat="43.888649" lon="3.309524">
<ele>822.2</ele>
<time>2013-05-08T09:14:11.000Z</time>
</trkpt>
<trkpt lat="43.888858" lon="3.309611">
<ele>822.8</ele>
<time>2013-05-08T09:14:12.000Z</time>
</trkpt>
<trkpt lat="43.889064" lon="3.309695">
<ele>823.3</ele>
<time>2013-05-08T09:14:13.000Z</time>
</trkpt>
<trkpt lat="43.889272" lon="3.309779">
<ele>823.9</ele>
<time>2013-05-08T09:14:14.000Z</time>
</trkpt>
<trkpt lat="43.889484" lon="3.309869">
<ele>824.3</ele>
<time>2013-05-08T09:14:15.000Z</time>
</trkpt>
<trkpt lat="43.889696" lon="3.309969">
<ele>824.4</ele>
<time>2013-05-08T09:14:16.000Z</time>
</trkpt>
<trkpt lat="43.889915" lon="3.31008">
<ele>824.4</ele>
<time>2013-05-08T09:14:17.000Z</time>
</trkpt>
<trkpt lat="43.890141" lon="3.310188">
<ele>824.7</ele>
<time>2013-05-08T09:14:18.000Z</time>
</trkpt>
<trkpt lat="43.890372" lon="3.310302">
<ele>824.9</ele>
<time>2013-05-08T09:14:19.000Z</time>
</trkpt>
<trkpt lat="43.890616" lon="3.310424">
<ele>825.2</ele>
<time>2013-05-08T09:14:20.000Z</time>
</trkpt>
<trkpt lat="43.890862" lon="3.310543">
<ele>825.4</ele>
<time>2013-05-08T09:14:21.000Z</time>
</trkpt>
<trkpt lat="43.891113" lon="3.310642">
<ele>825.5</ele>
<time>2013-05-08T09:14:22.000Z</time>
</trkpt>
<trkpt lat="43.891365" lon="3.310705">
<ele>825.9</ele>
<time>2013-05-08T09:14:23.000Z</time>
</trkpt>
<trkpt lat="43.891621" lon="3.31075">
<ele>826.6</ele>
<time>2013-05-08T09:14:24.000Z</time>
</trkpt>
<trkpt lat="43.891882" lon="3.310783">
<ele>827.4</ele>
<time>2013-05-08T09:14:25.000Z</time>
</trkpt>
<trkpt lat="43.892138" lon="3.310795">
<ele>828.4</ele>
<time>2013-05-08T09:14:26.000Z</time>
</trkpt>
<trkpt lat="43.892381" lon="3.310792">
<ele>829.4</ele>
<time>2013-05-08T09:14:27.000Z</time>
</trkpt>
<trkpt lat="43.892613" lon="3.310772">
<ele>830.9</ele>
<time>2013-05-08T09:14:28.000Z</time>
</trkpt>
<trkpt lat="43.892847" lon="3.310726">
<ele>832.4</ele>
<time>2013-05-08T09:14:29.000Z</time>
</trkpt>
<trkpt lat="43.893082" lon="3.310651">
<ele>833.8</ele>
<time>2013-05-08T09:14:30.000Z</time>
</trkpt>
<trkpt lat="43.893312" lon="3.310538">
<ele>835</ele>
<time>2013-05-08T09:14:31.000Z</time>
</trkpt>
<trkpt lat="43.893528" lon="3.310384">
<ele>836.1</ele>
<time>2013-05-08T09:14:32.000Z</time>
</trkpt>
<trkpt lat="43.893742" lon="3.310226">
<ele>837.2</ele>
<time>2013-05-08T09:14:33.000Z</time>
</trkpt>
<trkpt lat="43.893951" lon="3.310069">
<ele>838.1</ele>
<time>2013-05-08T09:14:34.000Z</time>
</trkpt>
<trkpt lat="43.894153" lon="3.309927">
<ele>839.2</ele>
<time>2013-05-08T09:14:35.000Z</time>
</trkpt>
<trkpt lat="43.894357" lon="3.30979">
<ele>840.1</ele>
<time>2013-05-08T09:14:36.000Z</time>
</trkpt>
<trkpt lat="43.89456" lon="3.309675">
<ele>840.8</ele>
<time>2013-05-08T09:14:37.000Z</time>
</trkpt>
<trkpt lat="43.894771" lon="3.309592">
<ele>842.2</ele>
<time>2013-05-08T09:14:38.000Z</time>
</trkpt>
<trkpt lat="43.89499" lon="3.309561">
<ele>843.4</ele>
<time>2013-05-08T09:14:39.000Z</time>
</trkpt>
<trkpt lat="43.895212" lon="3.309564">
<ele>844.4</ele>
<time>2013-05-08T09:14:40.000Z</time>
</trkpt>
<trkpt lat="43.895439" lon="3.309604">
<ele>845.3</ele>
<time>2013-05-08T09:14:41.000Z</time>
</trkpt>
<trkpt lat="43.895677" lon="3.309676">
<ele>846</ele>
<time>2013-05-08T09:14:42.000Z</time>
</trkpt>
<trkpt lat="43.895922" lon="3.309768">
<ele>846.5</ele>
<time>2013-05-08T09:14:43.000Z</time>
</trkpt>
<trkpt lat="43.896176" lon="3.30987">
<ele>846.5</ele>
<time>2013-05-08T09:14:44.000Z</time>
</trkpt>
<trkpt lat="43.896432" lon="3.309965">
<ele>846.2</ele>
<time>2013-05-08T09:14:45.000Z</time>
</trkpt>
<trkpt lat="43.896687" lon="3.310067">
<ele>845.6</ele>
<time>2013-05-08T09:14:46.000Z</time>
</trkpt>
<trkpt lat="43.896935" lon="3.310164">
<ele>844.8</ele>
<time>2013-05-08T09:14:47.000Z</time>
</trkpt>
<trkpt lat="43.897177" lon="3.310259">
<ele>843.8</ele>
<time>2013-05-08T09:14:48.000Z</time>
</trkpt>
<trkpt lat="43.897413" lon="3.31035">
<ele>842.8</ele>
<time>2013-05-08T09:14:49.000Z</time>
</trkpt>
<trkpt lat="43.897649" lon="3.310441">
<ele>841.5</ele>
<time>2013-05-08T09:14:50.000Z</time>
</trkpt>
<trkpt lat="43.897889" lon="3.310533">
<ele>839.9</ele>
<time>2013-05-08T09:14:51.000Z</time>
</trkpt>
<trkpt lat="43.898117" lon="3.310619">
<ele>838.6</ele>
<time>2013-05-08T09:14:52.000Z</time>
</trkpt>
<trkpt lat="43.898343" lon="3.310699">
<ele>837.4</ele>
<time>2013-05-08T09:14:53.000Z</time>
</trkpt>
<trkpt lat="43.89857" lon="3.310776">
<ele>836.3</ele>
<time>2013-05-08T09:14:54.000Z</time>
</trkpt>
<trkpt lat="43.898794" lon="3.310853">
<ele>835.4</ele>
<time>2013-05-08T09:14:55.000Z</time>
</trkpt>
<trkpt lat="43.899016" lon="3.310933">
<ele>834.7</ele>
<time>2013-05-08T09:14:56.000Z</time>
</trkpt>
<trkpt lat="43.899234" lon="3.311013">
<ele>834.3</ele>
<time>2013-05-08T09:14:57.000Z</time>
</trkpt>
<trkpt lat="43.899447" lon="3.311085">
<ele>834.2</ele>
<time>2013-05-08T09:14:58.000Z</time>
</trkpt>
<trkpt lat="43.899663" lon="3.311119">
<ele>834</ele>
<time>2013-05-08T09:14:59.000Z</time>
</trkpt>
<trkpt lat="43.899878" lon="3.31108">
<ele>833.5</ele>
<time>2013-05-08T09:15:00.000Z</time>
</trkpt>
<trkpt lat="43.900089" lon="3.311008">
<ele>833.3</ele>
<time>2013-05-08T09:15:01.000Z</time>
</trkpt>
<trkpt lat="43.90032" lon="3.31087">
<ele>833.2</ele>
<time>2013-05-08T09:15:02.000Z</time>
</trkpt>
<trkpt lat="43.90056" lon="3.310719">
<ele>833.1</ele>
<time>2013-05-08T09:15:03.000Z</time>
</trkpt>
<trkpt lat="43.900808" lon="3.31057">
<ele>833.1</ele>
<time>2013-05-08T09:15:04.000Z</time>
</trkpt>
<trkpt lat="43.90105" lon="3.310434">
<ele>833</ele>
<time>2013-05-08T09:15:05.000Z</time>
</trkpt>
<trkpt lat="43.901284" lon="3.310302">
<ele>832.8</ele>
<time>2013-05-08T09:15:06.000Z</time>
</trkpt>
<trkpt lat="43.901496" lon="3.310177">
<ele>832.5</ele>
<time>2013-05-08T09:15:07.000Z</time>
</trkpt>
<trkpt lat="43.901696" lon="3.310061">
<ele>832.4</ele>
<time>2013-05-08T09:15:08.000Z</time>
</trkpt>
<trkpt lat="43.901887" lon="3.309951">
<ele>832.4</ele>
<time>2013-05-08T09:15:09.000Z</time>
</trkpt>
<trkpt lat="43.902075" lon="3.309838">
<ele>832.5</ele>
<time>2013-05-08T09:15:10.000Z</time>
</trkpt>
<trkpt lat="43.902266" lon="3.309729">
<ele>832.5</ele>
<time>2013-05-08T09:15:11.000Z</time>
</trkpt>
<trkpt lat="43.902463" lon="3.309623">
<ele>832.4</ele>
<time>2013-05-08T09:15:12.000Z</time>
</trkpt>
<trkpt lat="43.902664" lon="3.309526">
<ele>832.5</ele>
<time>2013-05-08T09:15:13.000Z</time>
</trkpt>
<trkpt lat="43.90287" lon="3.309434">
<ele>832.6</ele>
<time>2013-05-08T09:15:14.000Z</time>
</trkpt>
<trkpt lat="43.903088" lon="3.309345">
<ele>832.9</ele>
<time>2013-05-08T09:15:15.000Z</time>
</trkpt>
<trkpt lat="43.903316" lon="3.309285">
<ele>833.1</ele>
<time>2013-05-08T09:15:16.000Z</time>
</trkpt>
<trkpt lat="43.903549" lon="3.309261">
<ele>833.6</ele>
<time>2013-05-08T09:15:17.000Z</time>
</trkpt>
<trkpt lat="43.903781" lon="3.309265">
<ele>834.1</ele>
<time>2013-05-08T09:15:18.000Z</time>
</trkpt>
<trkpt lat="43.904012" lon="3.309275">
<ele>834.6</ele>
<time>2013-05-08T09:15:19.000Z</time>
</trkpt>
<trkpt lat="43.904239" lon="3.309294">
<ele>835.2</ele>
<time>2013-05-08T09:15:20.000Z</time>
</trkpt>
<trkpt lat="43.904461" lon="3.309313">
<ele>835.8</ele>
<time>2013-05-08T09:15:21.000Z</time>
</trkpt>
<trkpt lat="43.904685" lon="3.309355">
<ele>836.4</ele>
<time>2013-05-08T09:15:22.000Z</time>
</trkpt>
<trkpt lat="43.90491" lon="3.30942">
<ele>836.7</ele>
<time>2013-05-08T09:15:23.000Z</time>
</trkpt>
<trkpt lat="43.905135" lon="3.309519">
<ele>837</ele>
<time>2013-05-08T09:15:24.000Z</time>
</trkpt>
<trkpt lat="43.905355" lon="3.309631">
<ele>837.2</ele>
<time>2013-05-08T09:15:25.000Z</time>
</trkpt>
<trkpt lat="43.905576" lon="3.309769">
<ele>837.2</ele>
<time>2013-05-08T09:15:26.000Z</time>
</trkpt>
<trkpt lat="43.905799" lon="3.30991">
<ele>837.1</ele>
<time>2013-05-08T09:15:27.000Z</time>
</trkpt>
<trkpt lat="43.906034" lon="3.31005">
<ele>836.9</ele>
<time>2013-05-08T09:15:28.000Z</time>
</trkpt>
<trkpt lat="43.90627" lon="3.310183">
<ele>836.9</ele>
<time>2013-05-08T09:15:29.000Z</time>
</trkpt>
<trkpt lat="43.906504" lon="3.310314">
<ele>836.9</ele>
<time>2013-05-08T09:15:30.000Z</time>
</trkpt>
<trkpt lat="43.906735" lon="3.31044">
<ele>836.7</ele>
<time>2013-05-08T09:15:31.000Z</time>
</trkpt>
<trkpt lat="43.906951" lon="3.310563">
<ele>836.3</ele>
<time>2013-05-08T09:15:32.000Z</time>
</trkpt>
<trkpt lat="43.907168" lon="3.310681">
<ele>836.1</ele>
<time>2013-05-08T09:15:33.000Z</time>
</trkpt>
<trkpt lat="43.907379" lon="3.3108">
<ele>835.5</ele>
<time>2013-05-08T09:15:34.000Z</time>
</trkpt>
<trkpt lat="43.907591" lon="3.310922">
<ele>834.7</ele>
<time>2013-05-08T09:15:35.000Z</time>
</trkpt>
<trkpt lat="43.907805" lon="3.311044">
<ele>834</ele>
<time>2013-05-08T09:15:36.000Z</time>
</trkpt>
<trkpt lat="43.90803" lon="3.311165">
<ele>833.4</ele>
<time>2013-05-08T09:15:37.000Z</time>
</trkpt>
<trkpt lat="43.908257" lon="3.31127">
<ele>832.8</ele>
<time>2013-05-08T09:15:38.000Z</time>
</trkpt>
<trkpt lat="43.908485" lon="3.311354">
<ele>832.3</ele>
<time>2013-05-08T09:15:39.000Z</time>
</trkpt>
<trkpt lat="43.908716" lon="3.311411">
<ele>831.5</ele>
<time>2013-05-08T09:15:40.000Z</time>
</trkpt>
<trkpt lat="43.908938" lon="3.311456">
<ele>831</ele>
<time>2013-05-08T09:15:41.000Z</time>
</trkpt>
<trkpt lat="43.909143" lon="3.311477">
<ele>830.9</ele>
<time>2013-05-08T09:15:42.000Z</time>
</trkpt>
<trkpt lat="43.909347" lon="3.311479">
<ele>830.9</ele>
<time>2013-05-08T09:15:43.000Z</time>
</trkpt>
<trkpt lat="43.909539" lon="3.311454">
<ele>831</ele>
<time>2013-05-08T09:15:44.000Z</time>
</trkpt>
<trkpt lat="43.909725" lon="3.311408">
<ele>831</ele>
<time>2013-05-08T09:15:45.000Z</time>
</trkpt>
<trkpt lat="43.909916" lon="3.311339">
<ele>831.4</ele>
<time>2013-05-08T09:15:46.000Z</time>
</trkpt>
<trkpt lat="43.910116" lon="3.311264">
<ele>831.3</ele>
<time>2013-05-08T09:15:47.000Z</time>
</trkpt>
<trkpt lat="43.910323" lon="3.311191">
<ele>831.1</ele>
<time>2013-05-08T09:15:48.000Z</time>
</trkpt>
<trkpt lat="43.910534" lon="3.31112">
<ele>830.7</ele>
<time>2013-05-08T09:15:49.000Z</time>
</trkpt>
<trkpt lat="43.910748" lon="3.311049">
<ele>830.1</ele>
<time>2013-05-08T09:15:50.000Z</time>
</trkpt>
<trkpt lat="43.910968" lon="3.310983">
<ele>829.6</ele>
<time>2013-05-08T09:15:51.000Z</time>
</trkpt>
<trkpt lat="43.911189" lon="3.310918">
<ele>829.2</ele>
<time>2013-05-08T09:15:52.000Z</time>
</trkpt>
<trkpt lat="43.911411" lon="3.310858">
<ele>828.8</ele>
<time>2013-05-08T09:15:53.000Z</time>
</trkpt>
<trkpt lat="43.911643" lon="3.310796">
<ele>828.5</ele>
<time>2013-05-08T09:15:54.000Z</time>
</trkpt>
<trkpt lat="43.911876" lon="3.310746">
<ele>828.3</ele>
<time>2013-05-08T09:15:55.000Z</time>
</trkpt>
<trkpt lat="43.912113" lon="3.31071">
<ele>828</ele>
<time>2013-05-08T09:15:56.000Z</time>
</trkpt>
<trkpt lat="43.912357" lon="3.310691">
<ele>827.8</ele>
<time>2013-05-08T09:15:57.000Z</time>
</trkpt>
<trkpt lat="43.912601" lon="3.310701">
<ele>827.4</ele>
<time>2013-05-08T09:15:58.000Z</time>
</trkpt>
<trkpt lat="43.91284" lon="3.310739">
<ele>826.8</ele>
<time>2013-05-08T09:15:59.000Z</time>
</trkpt>
<trkpt lat="43.91308" lon="3.310794">
<ele>826.6</ele>
<time>2013-05-08T09:16:00.000Z</time>
</trkpt>
<trkpt lat="43.913308" lon="3.310875">
<ele>826.4</ele>
<time>2013-05-08T09:16:01.000Z</time>
</trkpt>
<trkpt lat="43.913539" lon="3.310973">
<ele>826</ele>
<time>2013-05-08T09:16:02.000Z</time>
</trkpt>
<trkpt lat="43.913765" lon="3.311067">
<ele>825.2</ele>
<time>2013-05-08T09:16:03.000Z</time>
</trkpt>
<trkpt lat="43.913989" lon="3.311164">
<ele>824.6</ele>
<time>2013-05-08T09:16:04.000Z</time>
</trkpt>
<trkpt lat="43.914219" lon="3.311265">
<ele>824.1</ele>
<time>2013-05-08T09:16:05.000Z</time>
</trkpt>
<trkpt lat="43.914465" lon="3.311363">
<ele>823.8</ele>
<time>2013-05-08T09:16:06.000Z</time>
</trkpt>
<trkpt lat="43.914715" lon="3.311455">
<ele>823.7</ele>
<time>2013-05-08T09:16:07.000Z</time>
</trkpt>
<trkpt lat="43.914965" lon="3.311543">
<ele>823.7</ele>
<time>2013-05-08T09:16:08.000Z</time>
</trkpt>
<trkpt lat="43.915215" lon="3.311629">
<ele>823.7</ele>
<time>2013-05-08T09:16:09.000Z</time>
</trkpt>
<trkpt lat="43.915456" lon="3.311716">
<ele>823.8</ele>
<time>2013-05-08T09:16:10.000Z</time>
</trkpt>
<trkpt lat="43.915691" lon="3.311808">
<ele>823.8</ele>
<time>2013-05-08T09:16:11.000Z</time>
</trkpt>
<trkpt lat="43.915908" lon="3.311894">
<ele>823.9</ele>
<time>2013-05-08T09:16:12.000Z</time>
</trkpt>
<trkpt lat="43.916116" lon="3.311964">
<ele>824.1</ele>
<time>2013-05-08T09:16:13.000Z</time>
</trkpt>
<trkpt lat="43.916314" lon="3.312001">
<ele>824.2</ele>
<time>2013-05-08T09:16:14.000Z</time>
</trkpt>
<trkpt lat="43.916524" lon="3.311997">
<ele>824.4</ele>
<time>2013-05-08T09:16:15.000Z</time>
</trkpt>
<trkpt lat="43.916733" lon="3.31194">
<ele>824.6</ele>
<time>2013-05-08T09:16:16.000Z</time>
</trkpt>
<trkpt lat="43.916941" lon="3.31185">
<ele>824.7</ele>
<time>2013-05-08T09:16:17.000Z</time>
</trkpt>
<trkpt lat="43.917141" lon="3.311713">
<ele>824.5</ele>
<time>2013-05-08T09:16:18.000Z</time>
</trkpt>
<trkpt lat="43.917342" lon="3.311567">
<ele>824.2</ele>
<time>2013-05-08T09:16:19.000Z</time>
</trkpt>
<trkpt lat="43.917505" lon="3.311307">
<ele>824.1</ele>
<time>2013-05-08T09:16:20.000Z</time>
</trkpt>
<trkpt lat="43.917663" lon="3.31101">
<ele>824</ele>
<time>2013-05-08T09:16:21.000Z</time>
</trkpt>
<trkpt lat="43.917815" lon="3.310707">
<ele>824</ele>
<time>2013-05-08T09:16:22.000Z</time>
</trkpt>
<trkpt lat="43.917967" lon="3.310416">
<ele>824.1</ele>
<time>2013-05-08T09:16:23.000Z</time>
</trkpt>
<trkpt lat="43.918107" lon="3.310132">
<ele>824.6</ele>
<time>2013-05-08T09:16:24.000Z</time>
</trkpt>
<trkpt lat="43.918238" lon="3.309865">
<ele>825</ele>
<time>2013-05-08T09:16:25.000Z</time>
</trkpt>
<trkpt lat="43.918363" lon="3.309606">
<ele>825.6</ele>
<time>2013-05-08T09:16:26.000Z</time>
</trkpt>
<trkpt lat="43.918485" lon="3.309332">
<ele>826.7</ele>
<time>2013-05-08T09:16:27.000Z</time>
</trkpt>
<trkpt lat="43.918601" lon="3.309066">
<ele>827.9</ele>
<time>2013-05-08T09:16:28.000Z</time>
</trkpt>
<trkpt lat="43.918712" lon="3.308806">
<ele>829</ele>
<time>2013-05-08T09:16:29.000Z</time>
</trkpt>
<trkpt lat="43.918834" lon="3.308549">
<ele>830.2</ele>
<time>2013-05-08T09:16:30.000Z</time>
</trkpt>
<trkpt lat="43.918963" lon="3.308291">
<ele>831.5</ele>
<time>2013-05-08T09:16:31.000Z</time>
</trkpt>
<trkpt lat="43.919101" lon="3.308018">
<ele>832.7</ele>
<time>2013-05-08T09:16:32.000Z</time>
</trkpt>
<trkpt lat="43.919244" lon="3.307743">
<ele>833.8</ele>
<time>2013-05-08T09:16:33.000Z</time>
</trkpt>
<trkpt lat="43.919385" lon="3.307471">
<ele>834.8</ele>
<time>2013-05-08T09:16:34.000Z</time>
</trkpt>
<trkpt lat="43.919521" lon="3.307199">
<ele>835.8</ele>
<time>2013-05-08T09:16:35.000Z</time>
</trkpt>
<trkpt lat="43.919653" lon="3.306936">
<ele>836.6</ele>
<time>2013-05-08T09:16:36.000Z</time>
</trkpt>
<trkpt lat="43.919786" lon="3.306672">
<ele>837.3</ele>
<time>2013-05-08T09:16:37.000Z</time>
</trkpt>
<trkpt lat="43.919917" lon="3.306407">
<ele>837.9</ele>
<time>2013-05-08T09:16:38.000Z</time>
</trkpt>
<trkpt lat="43.920049" lon="3.306153">
<ele>838.5</ele>
<time>2013-05-08T09:16:39.000Z</time>
</trkpt>
<trkpt lat="43.920193" lon="3.30592">
<ele>839</ele>
<time>2013-05-08T09:16:40.000Z</time>
</trkpt>
<trkpt lat="43.920352" lon="3.305709">
<ele>839.5</ele>
<time>2013-05-08T09:16:41.000Z</time>
</trkpt>
<trkpt lat="43.920526" lon="3.305527">
<ele>839.9</ele>
<time>2013-05-08T09:16:42.000Z</time>
</trkpt>
<trkpt lat="43.920718" lon="3.305362">
<ele>840.4</ele>
<time>2013-05-08T09:16:43.000Z</time>
</trkpt>
<trkpt lat="43.920924" lon="3.305245">
<ele>840.9</ele>
<time>2013-05-08T09:16:44.000Z</time>
</trkpt>
<trkpt lat="43.921145" lon="3.305178">
<ele>841.5</ele>
<time>2013-05-08T09:16:45.000Z</time>
</trkpt>
<trkpt lat="43.921367" lon="3.305166">
<ele>842.2</ele>
<time>2013-05-08T09:16:46.000Z</time>
</trkpt>
<trkpt lat="43.921606" lon="3.30516">
<ele>842.7</ele>
<time>2013-05-08T09:16:47.000Z</time>
</trkpt>
<trkpt lat="43.921859" lon="3.305218">
<ele>843.4</ele>
<time>2013-05-08T09:16:48.000Z</time>
</trkpt>
<trkpt lat="43.922089" lon="3.305304">
<ele>844.2</ele>
<time>2013-05-08T09:16:49.000Z</time>
</trkpt>
<trkpt lat="43.922308" lon="3.30543">
<ele>845</ele>
<time>2013-05-08T09:16:50.000Z</time>
</trkpt>
<trkpt lat="43.922518" lon="3.30556">
<ele>845.4</ele>
<time>2013-05-08T09:16:51.000Z</time>
</trkpt>
<trkpt lat="43.92272" lon="3.305703">
<ele>845.7</ele>
<time>2013-05-08T09:16:52.000Z</time>
</trkpt>
<trkpt lat="43.922921" lon="3.305837">
<ele>846.2</ele>
<time>2013-05-08T09:16:53.000Z</time>
</trkpt>
<trkpt lat="43.923116" lon="3.305964">
<ele>846.9</ele>
<time>2013-05-08T09:16:54.000Z</time>
</trkpt>
<trkpt lat="43.923312" lon="3.306088">
<ele>847.7</ele>
<time>2013-05-08T09:16:55.000Z</time>
</trkpt>
<trkpt lat="43.923506" lon="3.3062">
<ele>848.6</ele>
<time>2013-05-08T09:16:56.000Z</time>
</trkpt>
<trkpt lat="43.923706" lon="3.306288">
<ele>849.9</ele>
<time>2013-05-08T09:16:57.000Z</time>
</trkpt>
<trkpt lat="43.923913" lon="3.306344">
<ele>851.4</ele>
<time>2013-05-08T09:16:58.000Z</time>
</trkpt>
<trkpt lat="43.92413" lon="3.306372">
<ele>852.9</ele>
<time>2013-05-08T09:16:59.000Z</time>
</trkpt>
<trkpt lat="43.924345" lon="3.306387">
<ele>854.1</ele>
<time>2013-05-08T09:17:00.000Z</time>
</trkpt>
<trkpt lat="43.924556" lon="3.306401">
<ele>855.3</ele>
<time>2013-05-08T09:17:01.000Z</time>
</trkpt>
<trkpt lat="43.924762" lon="3.306417">
<ele>856</ele>
<time>2013-05-08T09:17:02.000Z</time>
</trkpt>
<trkpt lat="43.924971" lon="3.306436">
<ele>856.7</ele>
<time>2013-05-08T09:17:03.000Z</time>
</trkpt>
<trkpt lat="43.925192" lon="3.306464">
<ele>857.6</ele>
<time>2013-05-08T09:17:04.000Z</time>
</trkpt>
<trkpt lat="43.925435" lon="3.306523">
<ele>858.4</ele>
<time>2013-05-08T09:17:05.000Z</time>
</trkpt>
<trkpt lat="43.925685" lon="3.306587">
<ele>859.4</ele>
<time>2013-05-08T09:17:06.000Z</time>
</trkpt>
<trkpt lat="43.925949" lon="3.306674">
<ele>860.4</ele>
<time>2013-05-08T09:17:07.000Z</time>
</trkpt>
<trkpt lat="43.926217" lon="3.306755">
<ele>861.3</ele>
<time>2013-05-08T09:17:08.000Z</time>
</trkpt>
<trkpt lat="43.926475" lon="3.306829">
<ele>862</ele>
<time>2013-05-08T09:17:09.000Z</time>
</trkpt>
<trkpt lat="43.926712" lon="3.306953">
<ele>862.4</ele>
<time>2013-05-08T09:17:10.000Z</time>
</trkpt>
<trkpt lat="43.926916" lon="3.307138">
<ele>862.3</ele>
<time>2013-05-08T09:17:11.000Z</time>
</trkpt>
<trkpt lat="43.92709" lon="3.307363">
<ele>862</ele>
<time>2013-05-08T09:17:12.000Z</time>
</trkpt>
<trkpt lat="43.927231" lon="3.307606">
<ele>862.4</ele>
<time>2013-05-08T09:17:13.000Z</time>
</trkpt>
<trkpt lat="43.927352" lon="3.307883">
<ele>863</ele>
<time>2013-05-08T09:17:14.000Z</time>
</trkpt>
<trkpt lat="43.92743" lon="3.308176">
<ele>863.2</ele>
<time>2013-05-08T09:17:15.000Z</time>
</trkpt>
<trkpt lat="43.927481" lon="3.308463">
<ele>863.6</ele>
<time>2013-05-08T09:17:16.000Z</time>
</trkpt>
<trkpt lat="43.92751" lon="3.308738">
<ele>863.9</ele>
<time>2013-05-08T09:17:17.000Z</time>
</trkpt>
<trkpt lat="43.927531" lon="3.308989">
<ele>863.7</ele>
<time>2013-05-08T09:17:18.000Z</time>
</trkpt>
<trkpt lat="43.927566" lon="3.309222">
<ele>863.2</ele>
<time>2013-05-08T09:17:19.000Z</time>
</trkpt>
<trkpt lat="43.92762" lon="3.309436">
<ele>862.5</ele>
<time>2013-05-08T09:17:20.000Z</time>
</trkpt>
<trkpt lat="43.927722" lon="3.3096">
<ele>861.7</ele>
<time>2013-05-08T09:17:21.000Z</time>
</trkpt>
<trkpt lat="43.927859" lon="3.309731">
<ele>860.7</ele>
<time>2013-05-08T09:17:22.000Z</time>
</trkpt>
<trkpt lat="43.928005" lon="3.309843">
<ele>859.9</ele>
<time>2013-05-08T09:17:23.000Z</time>
</trkpt>
<trkpt lat="43.928179" lon="3.309888">
<ele>859.2</ele>
<time>2013-05-08T09:17:24.000Z</time>
</trkpt>
<trkpt lat="43.928361" lon="3.309911">
<ele>858.5</ele>
<time>2013-05-08T09:17:25.000Z</time>
</trkpt>
<trkpt lat="43.928565" lon="3.309862">
<ele>858</ele>
<time>2013-05-08T09:17:26.000Z</time>
</trkpt>
<trkpt lat="43.92875" lon="3.309814">
<ele>857.1</ele>
<time>2013-05-08T09:17:27.000Z</time>
</trkpt>
<trkpt lat="43.928931" lon="3.309769">
<ele>856</ele>
<time>2013-05-08T09:17:28.000Z</time>
</trkpt>
<trkpt lat="43.929113" lon="3.309727">
<ele>854.7</ele>
<time>2013-05-08T09:17:29.000Z</time>
</trkpt>
<trkpt lat="43.929299" lon="3.309682">
<ele>853.6</ele>
<time>2013-05-08T09:17:30.000Z</time>
</trkpt>
<trkpt lat="43.929486" lon="3.309642">
<ele>852.5</ele>
<time>2013-05-08T09:17:31.000Z</time>
</trkpt>
<trkpt lat="43.929673" lon="3.309604">
<ele>851.4</ele>
<time>2013-05-08T09:17:32.000Z</time>
</trkpt>
<trkpt lat="43.929869" lon="3.309576">
<ele>850.4</ele>
<time>2013-05-08T09:17:33.000Z</time>
</trkpt>
<trkpt lat="43.930071" lon="3.309544">
<ele>850.3</ele>
<time>2013-05-08T09:17:34.000Z</time>
</trkpt>
<trkpt lat="43.93028" lon="3.309536">
<ele>850.3</ele>
<time>2013-05-08T09:17:35.000Z</time>
</trkpt>
<trkpt lat="43.930498" lon="3.309585">
<ele>850.6</ele>
<time>2013-05-08T09:17:36.000Z</time>
</trkpt>
<trkpt lat="43.930718" lon="3.309659">
<ele>850.7</ele>
<time>2013-05-08T09:17:37.000Z</time>
</trkpt>
<trkpt lat="43.930934" lon="3.309731">
<ele>850.6</ele>
<time>2013-05-08T09:17:38.000Z</time>
</trkpt>
<trkpt lat="43.931151" lon="3.309789">
<ele>850.3</ele>
<time>2013-05-08T09:17:39.000Z</time>
</trkpt>
<trkpt lat="43.931362" lon="3.309802">
<ele>849.8</ele>
<time>2013-05-08T09:17:40.000Z</time>
</trkpt>
<trkpt lat="43.931582" lon="3.309774">
<ele>848.9</ele>
<time>2013-05-08T09:17:41.000Z</time>
</trkpt>
<trkpt lat="43.931814" lon="3.309741">
<ele>847.9</ele>
<time>2013-05-08T09:17:42.000Z</time>
</trkpt>
<trkpt lat="43.932076" lon="3.309713">
<ele>847.4</ele>
<time>2013-05-08T09:17:43.000Z</time>
</trkpt>
<trkpt lat="43.93234" lon="3.309726">
<ele>846.8</ele>
<time>2013-05-08T09:17:44.000Z</time>
</trkpt>
<trkpt lat="43.932609" lon="3.309745">
<ele>846.3</ele>
<time>2013-05-08T09:17:45.000Z</time>
</trkpt>
<trkpt lat="43.932877" lon="3.309779">
<ele>845.9</ele>
<time>2013-05-08T09:17:46.000Z</time>
</trkpt>
<trkpt lat="43.933136" lon="3.309818">
<ele>845.2</ele>
<time>2013-05-08T09:17:47.000Z</time>
</trkpt>
<trkpt lat="43.933399" lon="3.309864">
<ele>844.6</ele>
<time>2013-05-08T09:17:48.000Z</time>
</trkpt>
<trkpt lat="43.933662" lon="3.309907">
<ele>843.8</ele>
<time>2013-05-08T09:17:49.000Z</time>
</trkpt>
<trkpt lat="43.933926" lon="3.309946">
<ele>842.8</ele>
<time>2013-05-08T09:17:50.000Z</time>
</trkpt>
<trkpt lat="43.934195" lon="3.309979">
<ele>841.7</ele>
<time>2013-05-08T09:17:51.000Z</time>
</trkpt>
<trkpt lat="43.934465" lon="3.310003">
<ele>840.7</ele>
<time>2013-05-08T09:17:52.000Z</time>
</trkpt>
<trkpt lat="43.934732" lon="3.31003">
<ele>839.9</ele>
<time>2013-05-08T09:17:53.000Z</time>
</trkpt>
<trkpt lat="43.934993" lon="3.310063">
<ele>839.4</ele>
<time>2013-05-08T09:17:54.000Z</time>
</trkpt>
<trkpt lat="43.935256" lon="3.310099">
<ele>838.8</ele>
<time>2013-05-08T09:17:55.000Z</time>
</trkpt>
<trkpt lat="43.935519" lon="3.310135">
<ele>837.9</ele>
<time>2013-05-08T09:17:56.000Z</time>
</trkpt>
<trkpt lat="43.935768" lon="3.310179">
<ele>837.3</ele>
<time>2013-05-08T09:17:57.000Z</time>
</trkpt>
<trkpt lat="43.936021" lon="3.310221">
<ele>836.4</ele>
<time>2013-05-08T09:17:58.000Z</time>
</trkpt>
<trkpt lat="43.936266" lon="3.310262">
<ele>835.4</ele>
<time>2013-05-08T09:17:59.000Z</time>
</trkpt>
<trkpt lat="43.936503" lon="3.310305">
<ele>834.6</ele>
<time>2013-05-08T09:18:00.000Z</time>
</trkpt>
<trkpt lat="43.936743" lon="3.310342">
<ele>833.7</ele>
<time>2013-05-08T09:18:01.000Z</time>
</trkpt>
<trkpt lat="43.936982" lon="3.31039">
<ele>832.9</ele>
<time>2013-05-08T09:18:02.000Z</time>
</trkpt>
<trkpt lat="43.937219" lon="3.310457">
<ele>832.1</ele>
<time>2013-05-08T09:18:03.000Z</time>
</trkpt>
<trkpt lat="43.937457" lon="3.310543">
<ele>831.5</ele>
<time>2013-05-08T09:18:04.000Z</time>
</trkpt>
<trkpt lat="43.937683" lon="3.310684">
<ele>830.8</ele>
<time>2013-05-08T09:18:05.000Z</time>
</trkpt>
<trkpt lat="43.937905" lon="3.310827">
<ele>829.6</ele>
<time>2013-05-08T09:18:06.000Z</time>
</trkpt>
<trkpt lat="43.938133" lon="3.310956">
<ele>828.7</ele>
<time>2013-05-08T09:18:07.000Z</time>
</trkpt>
<trkpt lat="43.93836" lon="3.311085">
<ele>827.7</ele>
<time>2013-05-08T09:18:08.000Z</time>
</trkpt>
<trkpt lat="43.938593" lon="3.311205">
<ele>826.7</ele>
<time>2013-05-08T09:18:09.000Z</time>
</trkpt>
<trkpt lat="43.938826" lon="3.311322">
<ele>825.8</ele>
<time>2013-05-08T09:18:10.000Z</time>
</trkpt>
<trkpt lat="43.939064" lon="3.311428">
<ele>824.9</ele>
<time>2013-05-08T09:18:11.000Z</time>
</trkpt>
<trkpt lat="43.939299" lon="3.31153">
<ele>823.9</ele>
<time>2013-05-08T09:18:12.000Z</time>
</trkpt>
<trkpt lat="43.939533" lon="3.311628">
<ele>822.9</ele>
<time>2013-05-08T09:18:13.000Z</time>
</trkpt>
<trkpt lat="43.939766" lon="3.311714">
<ele>822</ele>
<time>2013-05-08T09:18:14.000Z</time>
</trkpt>
<trkpt lat="43.940001" lon="3.311785">
<ele>821.4</ele>
<time>2013-05-08T09:18:15.000Z</time>
</trkpt>
<trkpt lat="43.940231" lon="3.31183">
<ele>820.6</ele>
<time>2013-05-08T09:18:16.000Z</time>
</trkpt>
<trkpt lat="43.940477" lon="3.31182">
<ele>819.5</ele>
<time>2013-05-08T09:18:17.000Z</time>
</trkpt>
<trkpt lat="43.940728" lon="3.311756">
<ele>818.4</ele>
<time>2013-05-08T09:18:18.000Z</time>
</trkpt>
<trkpt lat="43.940999" lon="3.311713">
<ele>817.6</ele>
<time>2013-05-08T09:18:19.000Z</time>
</trkpt>
<trkpt lat="43.941262" lon="3.311701">
<ele>817.1</ele>
<time>2013-05-08T09:18:20.000Z</time>
</trkpt>
<trkpt lat="43.941518" lon="3.311717">
<ele>816.6</ele>
<time>2013-05-08T09:18:21.000Z</time>
</trkpt>
<trkpt lat="43.941761" lon="3.311745">
<ele>816.4</ele>
<time>2013-05-08T09:18:22.000Z</time>
</trkpt>
<trkpt lat="43.941991" lon="3.311774">
<ele>816.4</ele>
<time>2013-05-08T09:18:23.000Z</time>
</trkpt>
<trkpt lat="43.942213" lon="3.311806">
<ele>816.5</ele>
<time>2013-05-08T09:18:24.000Z</time>
</trkpt>
<trkpt lat="43.942442" lon="3.311831">
<ele>816</ele>
<time>2013-05-08T09:18:25.000Z</time>
</trkpt>
<trkpt lat="43.942667" lon="3.311813">
<ele>815</ele>
<time>2013-05-08T09:18:26.000Z</time>
</trkpt>
<trkpt lat="43.942889" lon="3.311766">
<ele>813.8</ele>
<time>2013-05-08T09:18:27.000Z</time>
</trkpt>
<trkpt lat="43.943121" lon="3.311715">
<ele>812.7</ele>
<time>2013-05-08T09:18:28.000Z</time>
</trkpt>
<trkpt lat="43.943363" lon="3.311662">
<ele>811.5</ele>
<time>2013-05-08T09:18:29.000Z</time>
</trkpt>
<trkpt lat="43.943605" lon="3.311614">
<ele>810.5</ele>
<time>2013-05-08T09:18:30.000Z</time>
</trkpt>
<trkpt lat="43.94385" lon="3.311562">
<ele>809.8</ele>
<time>2013-05-08T09:18:31.000Z</time>
</trkpt>
<trkpt lat="43.944097" lon="3.311512">
<ele>808.8</ele>
<time>2013-05-08T09:18:32.000Z</time>
</trkpt>
<trkpt lat="43.944352" lon="3.311457">
<ele>808</ele>
<time>2013-05-08T09:18:33.000Z</time>
</trkpt>
<trkpt lat="43.94461" lon="3.311403">
<ele>807.1</ele>
<time>2013-05-08T09:18:34.000Z</time>
</trkpt>
<trkpt lat="43.944873" lon="3.311347">
<ele>806.4</ele>
<time>2013-05-08T09:18:35.000Z</time>
</trkpt>
<trkpt lat="43.945151" lon="3.311291">
<ele>805.8</ele>
<time>2013-05-08T09:18:36.000Z</time>
</trkpt>
<trkpt lat="43.945439" lon="3.311236">
<ele>805.2</ele>
<time>2013-05-08T09:18:37.000Z</time>
</trkpt>
<trkpt lat="43.945741" lon="3.311177">
<ele>804.6</ele>
<time>2013-05-08T09:18:38.000Z</time>
</trkpt>
<trkpt lat="43.946047" lon="3.311117">
<ele>804.1</ele>
<time>2013-05-08T09:18:39.000Z</time>
</trkpt>
<trkpt lat="43.946353" lon="3.311055">
<ele>803.5</ele>
<time>2013-05-08T09:18:40.000Z</time>
</trkpt>
<trkpt lat="43.946657" lon="3.310987">
<ele>803.4</ele>
<time>2013-05-08T09:18:41.000Z</time>
</trkpt>
<trkpt lat="43.946959" lon="3.310916">
<ele>803.7</ele>
<time>2013-05-08T09:18:42.000Z</time>
</trkpt>
<trkpt lat="43.947256" lon="3.310848">
<ele>804.1</ele>
<time>2013-05-08T09:18:43.000Z</time>
</trkpt>
<trkpt lat="43.947541" lon="3.310784">
<ele>804.9</ele>
<time>2013-05-08T09:18:44.000Z</time>
</trkpt>
<trkpt lat="43.947814" lon="3.310722">
<ele>805.8</ele>
<time>2013-05-08T09:18:45.000Z</time>
</trkpt>
<trkpt lat="43.948078" lon="3.310663">
<ele>806.7</ele>
<time>2013-05-08T09:18:46.000Z</time>
</trkpt>
<trkpt lat="43.948337" lon="3.310606">
<ele>807.4</ele>
<time>2013-05-08T09:18:47.000Z</time>
</trkpt>
<trkpt lat="43.948596" lon="3.31055">
<ele>808</ele>
<time>2013-05-08T09:18:48.000Z</time>
</trkpt>
<trkpt lat="43.948847" lon="3.310496">
<ele>808.7</ele>
<time>2013-05-08T09:18:49.000Z</time>
</trkpt>
<trkpt lat="43.949097" lon="3.310443">
<ele>809.4</ele>
<time>2013-05-08T09:18:50.000Z</time>
</trkpt>
<trkpt lat="43.949339" lon="3.310394">
<ele>810</ele>
<time>2013-05-08T09:18:51.000Z</time>
</trkpt>
<trkpt lat="43.949585" lon="3.310345">
<ele>810.8</ele>
<time>2013-05-08T09:18:52.000Z</time>
</trkpt>
<trkpt lat="43.949837" lon="3.310295">
<ele>811.4</ele>
<time>2013-05-08T09:18:53.000Z</time>
</trkpt>
<trkpt lat="43.950087" lon="3.310269">
<ele>811.8</ele>
<time>2013-05-08T09:18:54.000Z</time>
</trkpt>
<trkpt lat="43.950337" lon="3.310266">
<ele>812.2</ele>
<time>2013-05-08T09:18:55.000Z</time>
</trkpt>
<trkpt lat="43.950589" lon="3.310283">
<ele>812.9</ele>
<time>2013-05-08T09:18:56.000Z</time>
</trkpt>
<trkpt lat="43.950838" lon="3.310304">
<ele>813.8</ele>
<time>2013-05-08T09:18:57.000Z</time>
</trkpt>
<trkpt lat="43.951098" lon="3.310321">
<ele>814.8</ele>
<time>2013-05-08T09:18:58.000Z</time>
</trkpt>
<trkpt lat="43.951363" lon="3.310337">
<ele>815.5</ele>
<time>2013-05-08T09:18:59.000Z</time>
</trkpt>
<trkpt lat="43.951634" lon="3.310356">
<ele>816.1</ele>
<time>2013-05-08T09:19:00.000Z</time>
</trkpt>
<trkpt lat="43.95191" lon="3.310373">
<ele>816.6</ele>
<time>2013-05-08T09:19:01.000Z</time>
</trkpt>
<trkpt lat="43.952186" lon="3.31039">
<ele>816.9</ele>
<time>2013-05-08T09:19:02.000Z</time>
</trkpt>
<trkpt lat="43.952462" lon="3.310408">
<ele>817.2</ele>
<time>2013-05-08T09:19:03.000Z</time>
</trkpt>
<trkpt lat="43.952739" lon="3.310425">
<ele>817.5</ele>
<time>2013-05-08T09:19:04.000Z</time>
</trkpt>
<trkpt lat="43.95302" lon="3.31044">
<ele>817.7</ele>
<time>2013-05-08T09:19:05.000Z</time>
</trkpt>
<trkpt lat="43.953299" lon="3.310453">
<ele>817.8</ele>
<time>2013-05-08T09:19:06.000Z</time>
</trkpt>
<trkpt lat="43.953575" lon="3.310467">
<ele>817.7</ele>
<time>2013-05-08T09:19:07.000Z</time>
</trkpt>
<trkpt lat="43.953847" lon="3.310475">
<ele>817.6</ele>
<time>2013-05-08T09:19:08.000Z</time>
</trkpt>
<trkpt lat="43.954121" lon="3.31046">
<ele>817.5</ele>
<time>2013-05-08T09:19:09.000Z</time>
</trkpt>
<trkpt lat="43.954397" lon="3.310444">
<ele>817.7</ele>
<time>2013-05-08T09:19:10.000Z</time>
</trkpt>
<trkpt lat="43.954669" lon="3.310431">
<ele>818.1</ele>
<time>2013-05-08T09:19:11.000Z</time>
</trkpt>
<trkpt lat="43.954941" lon="3.310417">
<ele>818.6</ele>
<time>2013-05-08T09:19:12.000Z</time>
</trkpt>
<trkpt lat="43.955209" lon="3.310405">
<ele>819</ele>
<time>2013-05-08T09:19:13.000Z</time>
</trkpt>
<trkpt lat="43.955477" lon="3.31039">
<ele>819.5</ele>
<time>2013-05-08T09:19:14.000Z</time>
</trkpt>
<trkpt lat="43.955745" lon="3.310376">
<ele>820.1</ele>
<time>2013-05-08T09:19:15.000Z</time>
</trkpt>
<trkpt lat="43.956012" lon="3.310358">
<ele>820.8</ele>
<time>2013-05-08T09:19:16.000Z</time>
</trkpt>
<trkpt lat="43.956265" lon="3.310335">
<ele>821.7</ele>
<time>2013-05-08T09:19:17.000Z</time>
</trkpt>
<trkpt lat="43.956498" lon="3.310318">
<ele>822.5</ele>
<time>2013-05-08T09:19:18.000Z</time>
</trkpt>
<trkpt lat="43.956735" lon="3.310314">
<ele>823</ele>
<time>2013-05-08T09:19:19.000Z</time>
</trkpt>
<trkpt lat="43.956957" lon="3.310365">
<ele>823.4</ele>
<time>2013-05-08T09:19:20.000Z</time>
</trkpt>
<trkpt lat="43.957181" lon="3.310422">
<ele>823.8</ele>
<time>2013-05-08T09:19:21.000Z</time>
</trkpt>
<trkpt lat="43.957392" lon="3.310493">
<ele>823.9</ele>
<time>2013-05-08T09:19:22.000Z</time>
</trkpt>
<trkpt lat="43.957575" lon="3.310555">
<ele>823.7</ele>
<time>2013-05-08T09:19:23.000Z</time>
</trkpt>
<trkpt lat="43.957729" lon="3.310597">
<ele>823.6</ele>
<time>2013-05-08T09:19:24.000Z</time>
</trkpt>
<trkpt lat="43.957866" lon="3.310615">
<ele>823.6</ele>
<time>2013-05-08T09:19:25.000Z</time>
</trkpt>
<trkpt lat="43.957997" lon="3.310584">
<ele>823.4</ele>
<time>2013-05-08T09:19:26.000Z</time>
</trkpt>
<trkpt lat="43.958125" lon="3.310498">
<ele>823.5</ele>
<time>2013-05-08T09:19:27.000Z</time>
</trkpt>
<trkpt lat="43.958252" lon="3.310407">
<ele>823.8</ele>
<time>2013-05-08T09:19:28.000Z</time>
</trkpt>
<trkpt lat="43.958375" lon="3.310295">
<ele>824.3</ele>
<time>2013-05-08T09:19:29.000Z</time>
</trkpt>
<trkpt lat="43.958486" lon="3.310145">
<ele>825.3</ele>
<time>2013-05-08T09:19:30.000Z</time>
</trkpt>
<trkpt lat="43.958578" lon="3.30999">
<ele>826.1</ele>
<time>2013-05-08T09:19:31.000Z</time>
</trkpt>
<trkpt lat="43.958662" lon="3.309841">
<ele>826.8</ele>
<time>2013-05-08T09:19:32.000Z</time>
</trkpt>
<trkpt lat="43.95874" lon="3.309698">
<ele>827.2</ele>
<time>2013-05-08T09:19:33.000Z</time>
</trkpt>
<trkpt lat="43.958808" lon="3.309569">
<ele>827.7</ele>
<time>2013-05-08T09:19:34.000Z</time>
</trkpt>
<trkpt lat="43.958868" lon="3.309457">
<ele>828</ele>
<time>2013-05-08T09:19:35.000Z</time>
</trkpt>
<trkpt lat="43.958918" lon="3.309364">
<ele>828.2</ele>
<time>2013-05-08T09:19:36.000Z</time>
</trkpt>
<trkpt lat="43.958963" lon="3.309281">
<ele>828.5</ele>
<time>2013-05-08T09:19:37.000Z</time>
</trkpt>
<trkpt lat="43.959015" lon="3.309199">
<ele>828.9</ele>
<time>2013-05-08T09:19:38.000Z</time>
</trkpt>
<trkpt lat="43.959059" lon="3.309132">
<ele>828.9</ele>
<time>2013-05-08T09:19:39.000Z</time>
</trkpt>
<trkpt lat="43.959099" lon="3.309072">
<ele>828.8</ele>
<time>2013-05-08T09:19:40.000Z</time>
</trkpt>
<trkpt lat="43.959134" lon="3.309041">
<ele>828.5</ele>
<time>2013-05-08T09:19:41.000Z</time>
</trkpt>
<trkpt lat="43.959199" lon="3.309066">
<ele>828.3</ele>
<time>2013-05-08T09:19:42.000Z</time>
</trkpt>
<trkpt lat="43.959301" lon="3.309154">
<ele>828.2</ele>
<time>2013-05-08T09:19:43.000Z</time>
</trkpt>
<trkpt lat="43.959409" lon="3.309304">
<ele>828.5</ele>
<time>2013-05-08T09:19:44.000Z</time>
</trkpt>
<trkpt lat="43.959542" lon="3.309471">
<ele>828.7</ele>
<time>2013-05-08T09:19:45.000Z</time>
</trkpt>
<trkpt lat="43.959696" lon="3.309651">
<ele>828.9</ele>
<time>2013-05-08T09:19:46.000Z</time>
</trkpt>
<trkpt lat="43.959858" lon="3.309834">
<ele>829</ele>
<time>2013-05-08T09:19:47.000Z</time>
</trkpt>
<trkpt lat="43.96002" lon="3.310014">
<ele>829.3</ele>
<time>2013-05-08T09:19:48.000Z</time>
</trkpt>
<trkpt lat="43.960173" lon="3.310192">
<ele>829.4</ele>
<time>2013-05-08T09:19:49.000Z</time>
</trkpt>
<trkpt lat="43.96033" lon="3.310375">
<ele>829.6</ele>
<time>2013-05-08T09:19:50.000Z</time>
</trkpt>
<trkpt lat="43.960505" lon="3.310576">
<ele>830</ele>
<time>2013-05-08T09:19:51.000Z</time>
</trkpt>
<trkpt lat="43.96069" lon="3.310785">
<ele>830.7</ele>
<time>2013-05-08T09:19:52.000Z</time>
</trkpt>
<trkpt lat="43.960885" lon="3.311002">
<ele>831.4</ele>
<time>2013-05-08T09:19:53.000Z</time>
</trkpt>
<trkpt lat="43.961081" lon="3.311222">
<ele>832.2</ele>
<time>2013-05-08T09:19:54.000Z</time>
</trkpt>
<trkpt lat="43.961281" lon="3.311445">
<ele>833</ele>
<time>2013-05-08T09:19:55.000Z</time>
</trkpt>
<trkpt lat="43.961479" lon="3.311661">
<ele>833.9</ele>
<time>2013-05-08T09:19:56.000Z</time>
</trkpt>
<trkpt lat="43.961676" lon="3.311875">
<ele>834.7</ele>
<time>2013-05-08T09:19:57.000Z</time>
</trkpt>
<trkpt lat="43.961869" lon="3.312086">
<ele>835.4</ele>
<time>2013-05-08T09:19:58.000Z</time>
</trkpt>
<trkpt lat="43.962063" lon="3.312297">
<ele>836.1</ele>
<time>2013-05-08T09:19:59.000Z</time>
</trkpt>
<trkpt lat="43.962257" lon="3.312511">
<ele>836.8</ele>
<time>2013-05-08T09:20:00.000Z</time>
</trkpt>
<trkpt lat="43.962449" lon="3.312722">
<ele>837.4</ele>
<time>2013-05-08T09:20:01.000Z</time>
</trkpt>
<trkpt lat="43.962629" lon="3.312924">
<ele>837.8</ele>
<time>2013-05-08T09:20:02.000Z</time>
</trkpt>
<trkpt lat="43.962786" lon="3.313104">
<ele>838.2</ele>
<time>2013-05-08T09:20:03.000Z</time>
</trkpt>
<trkpt lat="43.962928" lon="3.313273">
<ele>838.6</ele>
<time>2013-05-08T09:20:04.000Z</time>
</trkpt>
<trkpt lat="43.963035" lon="3.313406">
<ele>838.9</ele>
<time>2013-05-08T09:20:05.000Z</time>
</trkpt>
<trkpt lat="43.963127" lon="3.313508">
<ele>839.2</ele>
<time>2013-05-08T09:20:06.000Z</time>
</trkpt>
<trkpt lat="43.963221" lon="3.313603">
<ele>839.5</ele>
<time>2013-05-08T09:20:07.000Z</time>
</trkpt>
<trkpt lat="43.963314" lon="3.313682">
<ele>839.8</ele>
<time>2013-05-08T09:20:08.000Z</time>
</trkpt>
<trkpt lat="43.963415" lon="3.313731">
<ele>839.7</ele>
<time>2013-05-08T09:20:09.000Z</time>
</trkpt>
<trkpt lat="43.963503" lon="3.313723">
<ele>839.6</ele>
<time>2013-05-08T09:20:10.000Z</time>
</trkpt>
<trkpt lat="43.963614" lon="3.313672">
<ele>839.5</ele>
<time>2013-05-08T09:20:11.000Z</time>
</trkpt>
<trkpt lat="43.963712" lon="3.313615">
<ele>839.7</ele>
<time>2013-05-08T09:20:12.000Z</time>
</trkpt>
<trkpt lat="43.963842" lon="3.313567">
<ele>840.2</ele>
<time>2013-05-08T09:20:13.000Z</time>
</trkpt>
<trkpt lat="43.963986" lon="3.313589">
<ele>840.7</ele>
<time>2013-05-08T09:20:14.000Z</time>
</trkpt>
<trkpt lat="43.964141" lon="3.313614">
<ele>841</ele>
<time>2013-05-08T09:20:15.000Z</time>
</trkpt>
<trkpt lat="43.964298" lon="3.313645">
<ele>841.4</ele>
<time>2013-05-08T09:20:16.000Z</time>
</trkpt>
<trkpt lat="43.964452" lon="3.313675">
<ele>841.8</ele>
<time>2013-05-08T09:20:17.000Z</time>
</trkpt>
<trkpt lat="43.96461" lon="3.313714">
<ele>842.3</ele>
<time>2013-05-08T09:20:18.000Z</time>
</trkpt>
<trkpt lat="43.964772" lon="3.313788">
<ele>842.7</ele>
<time>2013-05-08T09:20:19.000Z</time>
</trkpt>
<trkpt lat="43.964916" lon="3.313949">
<ele>842.9</ele>
<time>2013-05-08T09:20:20.000Z</time>
</trkpt>
<trkpt lat="43.96502" lon="3.314151">
<ele>843.7</ele>
<time>2013-05-08T09:20:21.000Z</time>
</trkpt>
<trkpt lat="43.965131" lon="3.314376">
<ele>843.5</ele>
<time>2013-05-08T09:20:22.000Z</time>
</trkpt>
<trkpt lat="43.965234" lon="3.314594">
<ele>843.8</ele>
<time>2013-05-08T09:20:23.000Z</time>
</trkpt>
<trkpt lat="43.965337" lon="3.314795">
<ele>844.2</ele>
<time>2013-05-08T09:20:24.000Z</time>
</trkpt>
<trkpt lat="43.965454" lon="3.314976">
<ele>844.2</ele>
<time>2013-05-08T09:20:25.000Z</time>
</trkpt>
<trkpt lat="43.965612" lon="3.315085">
<ele>843.9</ele>
<time>2013-05-08T09:20:26.000Z</time>
</trkpt>
<trkpt lat="43.965763" lon="3.315182">
<ele>843.7</ele>
<time>2013-05-08T09:20:27.000Z</time>
</trkpt>
<trkpt lat="43.965927" lon="3.315277">
<ele>843.6</ele>
<time>2013-05-08T09:20:28.000Z</time>
</trkpt>
<trkpt lat="43.966095" lon="3.315367">
<ele>843.5</ele>
<time>2013-05-08T09:20:29.000Z</time>
</trkpt>
<trkpt lat="43.966268" lon="3.315455">
<ele>843.1</ele>
<time>2013-05-08T09:20:30.000Z</time>
</trkpt>
<trkpt lat="43.966432" lon="3.315565">
<ele>842.7</ele>
<time>2013-05-08T09:20:31.000Z</time>
</trkpt>
<trkpt lat="43.966572" lon="3.315705">
<ele>842.8</ele>
<time>2013-05-08T09:20:32.000Z</time>
</trkpt>
<trkpt lat="43.966681" lon="3.315902">
<ele>842.6</ele>
<time>2013-05-08T09:20:33.000Z</time>
</trkpt>
<trkpt lat="43.966724" lon="3.316187">
<ele>842.2</ele>
<time>2013-05-08T09:20:34.000Z</time>
</trkpt>
<trkpt lat="43.966771" lon="3.316438">
<ele>841.8</ele>
<time>2013-05-08T09:20:35.000Z</time>
</trkpt>
<trkpt lat="43.966808" lon="3.316677">
<ele>841.7</ele>
<time>2013-05-08T09:20:36.000Z</time>
</trkpt>
<trkpt lat="43.966854" lon="3.316913">
<ele>841.7</ele>
<time>2013-05-08T09:20:37.000Z</time>
</trkpt>
<trkpt lat="43.966897" lon="3.317138">
<ele>841.5</ele>
<time>2013-05-08T09:20:38.000Z</time>
</trkpt>
<trkpt lat="43.966927" lon="3.317341">
<ele>841.2</ele>
<time>2013-05-08T09:20:39.000Z</time>
</trkpt>
<trkpt lat="43.966963" lon="3.317533">
<ele>841.2</ele>
<time>2013-05-08T09:20:40.000Z</time>
</trkpt>
<trkpt lat="43.966998" lon="3.317708">
<ele>840.8</ele>
<time>2013-05-08T09:20:41.000Z</time>
</trkpt>
<trkpt lat="43.967032" lon="3.317865">
<ele>840.5</ele>
<time>2013-05-08T09:20:42.000Z</time>
</trkpt>
<trkpt lat="43.967083" lon="3.31803">
<ele>840.3</ele>
<time>2013-05-08T09:20:43.000Z</time>
</trkpt>
<trkpt lat="43.967147" lon="3.318201">
<ele>840.1</ele>
<time>2013-05-08T09:20:44.000Z</time>
</trkpt>
<trkpt lat="43.967265" lon="3.318337">
<ele>840.5</ele>
<time>2013-05-08T09:20:45.000Z</time>
</trkpt>
<trkpt lat="43.967396" lon="3.318474">
<ele>840.4</ele>
<time>2013-05-08T09:20:46.000Z</time>
</trkpt>
<trkpt lat="43.967562" lon="3.318584">
<ele>840.5</ele>
<time>2013-05-08T09:20:47.000Z</time>
</trkpt>
<trkpt lat="43.967732" lon="3.318709">
<ele>840.9</ele>
<time>2013-05-08T09:20:48.000Z</time>
</trkpt>
<trkpt lat="43.9679" lon="3.318843">
<ele>841</ele>
<time>2013-05-08T09:20:49.000Z</time>
</trkpt>
<trkpt lat="43.968059" lon="3.318979">
<ele>841.2</ele>
<time>2013-05-08T09:20:50.000Z</time>
</trkpt>
<trkpt lat="43.968207" lon="3.31913">
<ele>840.9</ele>
<time>2013-05-08T09:20:51.000Z</time>
</trkpt>
<trkpt lat="43.968335" lon="3.319281">
<ele>839.8</ele>
<time>2013-05-08T09:20:52.000Z</time>
</trkpt>
<trkpt lat="43.96846" lon="3.31941">
<ele>838.7</ele>
<time>2013-05-08T09:20:53.000Z</time>
</trkpt>
<trkpt lat="43.968599" lon="3.319491">
<ele>837.2</ele>
<time>2013-05-08T09:20:54.000Z</time>
</trkpt>
<trkpt lat="43.968758" lon="3.319505">
<ele>835.7</ele>
<time>2013-05-08T09:20:55.000Z</time>
</trkpt>
<trkpt lat="43.968922" lon="3.319494">
<ele>834.9</ele>
<time>2013-05-08T09:20:56.000Z</time>
</trkpt>
<trkpt lat="43.969096" lon="3.319476">
<ele>834</ele>
<time>2013-05-08T09:20:57.000Z</time>
</trkpt>
<trkpt lat="43.969274" lon="3.319452">
<ele>833.3</ele>
<time>2013-05-08T09:20:58.000Z</time>
</trkpt>
<trkpt lat="43.969455" lon="3.31944">
<ele>832.7</ele>
<time>2013-05-08T09:20:59.000Z</time>
</trkpt>
<trkpt lat="43.96963" lon="3.31942">
<ele>831.9</ele>
<time>2013-05-08T09:21:00.000Z</time>
</trkpt>
<trkpt lat="43.96979" lon="3.319484">
<ele>831.1</ele>
<time>2013-05-08T09:21:01.000Z</time>
</trkpt>
<trkpt lat="43.96996" lon="3.319598">
<ele>830.7</ele>
<time>2013-05-08T09:21:02.000Z</time>
</trkpt>
<trkpt lat="43.970145" lon="3.319705">
<ele>830</ele>
<time>2013-05-08T09:21:03.000Z</time>
</trkpt>
<trkpt lat="43.970331" lon="3.319805">
<ele>829.3</ele>
<time>2013-05-08T09:21:04.000Z</time>
</trkpt>
<trkpt lat="43.970518" lon="3.319894">
<ele>828.8</ele>
<time>2013-05-08T09:21:05.000Z</time>
</trkpt>
<trkpt lat="43.970711" lon="3.319986">
<ele>828</ele>
<time>2013-05-08T09:21:06.000Z</time>
</trkpt>
<trkpt lat="43.970901" lon="3.32007">
<ele>827.4</ele>
<time>2013-05-08T09:21:07.000Z</time>
</trkpt>
<trkpt lat="43.971088" lon="3.320152">
<ele>826.9</ele>
<time>2013-05-08T09:21:08.000Z</time>
</trkpt>
<trkpt lat="43.97127" lon="3.320228">
<ele>826.2</ele>
<time>2013-05-08T09:21:09.000Z</time>
</trkpt>
<trkpt lat="43.971449" lon="3.320295">
<ele>825.4</ele>
<time>2013-05-08T09:21:10.000Z</time>
</trkpt>
<trkpt lat="43.971631" lon="3.320355">
<ele>824.4</ele>
<time>2013-05-08T09:21:11.000Z</time>
</trkpt>
<trkpt lat="43.971815" lon="3.320395">
<ele>823.4</ele>
<time>2013-05-08T09:21:12.000Z</time>
</trkpt>
<trkpt lat="43.972" lon="3.320413">
<ele>822.8</ele>
<time>2013-05-08T09:21:13.000Z</time>
</trkpt>
<trkpt lat="43.97219" lon="3.32041">
<ele>822.2</ele>
<time>2013-05-08T09:21:14.000Z</time>
</trkpt>
<trkpt lat="43.972376" lon="3.320375">
<ele>821.2</ele>
<time>2013-05-08T09:21:15.000Z</time>
</trkpt>
<trkpt lat="43.97257" lon="3.320323">
<ele>820.2</ele>
<time>2013-05-08T09:21:16.000Z</time>
</trkpt>
<trkpt lat="43.972757" lon="3.320258">
<ele>819.2</ele>
<time>2013-05-08T09:21:17.000Z</time>
</trkpt>
<trkpt lat="43.972938" lon="3.320174">
<ele>818.1</ele>
<time>2013-05-08T09:21:18.000Z</time>
</trkpt>
<trkpt lat="43.973126" lon="3.320086">
<ele>816.6</ele>
<time>2013-05-08T09:21:19.000Z</time>
</trkpt>
<trkpt lat="43.973323" lon="3.319997">
<ele>815</ele>
<time>2013-05-08T09:21:20.000Z</time>
</trkpt>
<trkpt lat="43.97353" lon="3.319924">
<ele>813.6</ele>
<time>2013-05-08T09:21:21.000Z</time>
</trkpt>
<trkpt lat="43.973728" lon="3.319894">
<ele>812.3</ele>
<time>2013-05-08T09:21:22.000Z</time>
</trkpt>
<trkpt lat="43.973921" lon="3.319903">
<ele>811.2</ele>
<time>2013-05-08T09:21:23.000Z</time>
</trkpt>
<trkpt lat="43.974098" lon="3.319931">
<ele>810.2</ele>
<time>2013-05-08T09:21:24.000Z</time>
</trkpt>
<trkpt lat="43.97426" lon="3.319974">
<ele>809.4</ele>
<time>2013-05-08T09:21:25.000Z</time>
</trkpt>
<trkpt lat="43.974427" lon="3.320016">
<ele>808.5</ele>
<time>2013-05-08T09:21:26.000Z</time>
</trkpt>
<trkpt lat="43.974584" lon="3.320038">
<ele>807.4</ele>
<time>2013-05-08T09:21:27.000Z</time>
</trkpt>
<trkpt lat="43.974733" lon="3.320017">
<ele>806.2</ele>
<time>2013-05-08T09:21:28.000Z</time>
</trkpt>
<trkpt lat="43.974891" lon="3.320009">
<ele>804.7</ele>
<time>2013-05-08T09:21:29.000Z</time>
</trkpt>
<trkpt lat="43.975029" lon="3.319875">
<ele>803.5</ele>
<time>2013-05-08T09:21:30.000Z</time>
</trkpt>
<trkpt lat="43.975158" lon="3.319686">
<ele>802.5</ele>
<time>2013-05-08T09:21:31.000Z</time>
</trkpt>
<trkpt lat="43.975289" lon="3.319515">
<ele>801.8</ele>
<time>2013-05-08T09:21:32.000Z</time>
</trkpt>
<trkpt lat="43.975427" lon="3.319355">
<ele>801.2</ele>
<time>2013-05-08T09:21:33.000Z</time>
</trkpt>
<trkpt lat="43.975588" lon="3.319235">
<ele>800.6</ele>
<time>2013-05-08T09:21:34.000Z</time>
</trkpt>
<trkpt lat="43.975762" lon="3.319135">
<ele>800</ele>
<time>2013-05-08T09:21:35.000Z</time>
</trkpt>
<trkpt lat="43.975947" lon="3.319059">
<ele>799.3</ele>
<time>2013-05-08T09:21:36.000Z</time>
</trkpt>
<trkpt lat="43.976124" lon="3.318957">
<ele>798.5</ele>
<time>2013-05-08T09:21:37.000Z</time>
</trkpt>
<trkpt lat="43.976286" lon="3.318834">
<ele>798</ele>
<time>2013-05-08T09:21:38.000Z</time>
</trkpt>
<trkpt lat="43.97645" lon="3.318654">
<ele>797.8</ele>
<time>2013-05-08T09:21:39.000Z</time>
</trkpt>
<trkpt lat="43.976616" lon="3.318465">
<ele>796.9</ele>
<time>2013-05-08T09:21:40.000Z</time>
</trkpt>
<trkpt lat="43.97678" lon="3.318273">
<ele>795.4</ele>
<time>2013-05-08T09:21:41.000Z</time>
</trkpt>
<trkpt lat="43.97695" lon="3.318075">
<ele>793.9</ele>
<time>2013-05-08T09:21:42.000Z</time>
</trkpt>
<trkpt lat="43.977122" lon="3.317882">
<ele>792.4</ele>
<time>2013-05-08T09:21:43.000Z</time>
</trkpt>
<trkpt lat="43.977287" lon="3.317694">
<ele>790.8</ele>
<time>2013-05-08T09:21:44.000Z</time>
</trkpt>
<trkpt lat="43.97745" lon="3.317503">
<ele>789.3</ele>
<time>2013-05-08T09:21:45.000Z</time>
</trkpt>
<trkpt lat="43.977612" lon="3.317317">
<ele>787.9</ele>
<time>2013-05-08T09:21:46.000Z</time>
</trkpt>
<trkpt lat="43.977769" lon="3.317134">
<ele>786.3</ele>
<time>2013-05-08T09:21:47.000Z</time>
</trkpt>
<trkpt lat="43.977926" lon="3.31695">
<ele>784.7</ele>
<time>2013-05-08T09:21:48.000Z</time>
</trkpt>
<trkpt lat="43.978089" lon="3.316761">
<ele>783</ele>
<time>2013-05-08T09:21:49.000Z</time>
</trkpt>
<trkpt lat="43.978257" lon="3.316569">
<ele>781.7</ele>
<time>2013-05-08T09:21:50.000Z</time>
</trkpt>
<trkpt lat="43.978425" lon="3.316378">
<ele>780.2</ele>
<time>2013-05-08T09:21:51.000Z</time>
</trkpt>
<trkpt lat="43.978594" lon="3.316189">
<ele>778.7</ele>
<time>2013-05-08T09:21:52.000Z</time>
</trkpt>
<trkpt lat="43.978766" lon="3.31601">
<ele>777.4</ele>
<time>2013-05-08T09:21:53.000Z</time>
</trkpt>
<trkpt lat="43.978938" lon="3.315844">
<ele>776</ele>
<time>2013-05-08T09:21:54.000Z</time>
</trkpt>
<trkpt lat="43.97911" lon="3.315672">
<ele>774.8</ele>
<time>2013-05-08T09:21:55.000Z</time>
</trkpt>
<trkpt lat="43.979291" lon="3.315552">
<ele>773.8</ele>
<time>2013-05-08T09:21:56.000Z</time>
</trkpt>
<trkpt lat="43.97947" lon="3.315482">
<ele>773.1</ele>
<time>2013-05-08T09:21:57.000Z</time>
</trkpt>
<trkpt lat="43.979663" lon="3.315454">
<ele>772.5</ele>
<time>2013-05-08T09:21:58.000Z</time>
</trkpt>
<trkpt lat="43.979864" lon="3.315443">
<ele>772</ele>
<time>2013-05-08T09:21:59.000Z</time>
</trkpt>
<trkpt lat="43.980015" lon="3.315457">
<ele>772.1</ele>
<time>2013-05-08T09:22:00.000Z</time>
</trkpt>
<trkpt lat="43.980158" lon="3.315467">
<ele>771.6</ele>
<time>2013-05-08T09:22:01.000Z</time>
</trkpt>
<trkpt lat="43.980292" lon="3.315466">
<ele>770.9</ele>
<time>2013-05-08T09:22:02.000Z</time>
</trkpt>
<trkpt lat="43.980424" lon="3.315452">
<ele>769.6</ele>
<time>2013-05-08T09:22:03.000Z</time>
</trkpt>
<trkpt lat="43.980549" lon="3.31542">
<ele>768.5</ele>
<time>2013-05-08T09:22:04.000Z</time>
</trkpt>
<trkpt lat="43.98068" lon="3.315378">
<ele>767.6</ele>
<time>2013-05-08T09:22:05.000Z</time>
</trkpt>
<trkpt lat="43.980829" lon="3.315313">
<ele>766.4</ele>
<time>2013-05-08T09:22:06.000Z</time>
</trkpt>
<trkpt lat="43.980988" lon="3.315236">
<ele>766</ele>
<time>2013-05-08T09:22:07.000Z</time>
</trkpt>
<trkpt lat="43.981154" lon="3.315152">
<ele>765.4</ele>
<time>2013-05-08T09:22:08.000Z</time>
</trkpt>
<trkpt lat="43.981328" lon="3.315062">
<ele>764.7</ele>
<time>2013-05-08T09:22:09.000Z</time>
</trkpt>
<trkpt lat="43.981499" lon="3.314974">
<ele>763.7</ele>
<time>2013-05-08T09:22:10.000Z</time>
</trkpt>
<trkpt lat="43.981668" lon="3.314892">
<ele>762.6</ele>
<time>2013-05-08T09:22:11.000Z</time>
</trkpt>
<trkpt lat="43.981826" lon="3.314802">
<ele>761.3</ele>
<time>2013-05-08T09:22:11.999Z</time>
</trkpt>
<trkpt lat="43.981975" lon="3.314691">
<ele>760.2</ele>
<time>2013-05-08T09:22:12.999Z</time>
</trkpt>
<trkpt lat="43.982123" lon="3.314514">
<ele>758.8</ele>
<time>2013-05-08T09:22:13.999Z</time>
</trkpt>
<trkpt lat="43.982259" lon="3.31432">
<ele>758</ele>
<time>2013-05-08T09:22:14.999Z</time>
</trkpt>
<trkpt lat="43.982347" lon="3.314049">
<ele>756.6</ele>
<time>2013-05-08T09:22:15.999Z</time>
</trkpt>
<trkpt lat="43.982434" lon="3.313776">
<ele>754.3</ele>
<time>2013-05-08T09:22:16.999Z</time>
</trkpt>
<trkpt lat="43.982527" lon="3.313491">
<ele>752.1</ele>
<time>2013-05-08T09:22:17.999Z</time>
</trkpt>
<trkpt lat="43.982627" lon="3.313212">
<ele>750.1</ele>
<time>2013-05-08T09:22:18.999Z</time>
</trkpt>
<trkpt lat="43.982745" lon="3.312934">
<ele>748.6</ele>
<time>2013-05-08T09:22:19.999Z</time>
</trkpt>
<trkpt lat="43.982863" lon="3.312652">
<ele>747.2</ele>
<time>2013-05-08T09:22:20.999Z</time>
</trkpt>
<trkpt lat="43.982978" lon="3.312372">
<ele>745.9</ele>
<time>2013-05-08T09:22:21.999Z</time>
</trkpt>
<trkpt lat="43.983089" lon="3.312097">
<ele>744.7</ele>
<time>2013-05-08T09:22:22.999Z</time>
</trkpt>
<trkpt lat="43.983203" lon="3.311823">
<ele>743.5</ele>
<time>2013-05-08T09:22:23.999Z</time>
</trkpt>
<trkpt lat="43.983326" lon="3.311573">
<ele>742.3</ele>
<time>2013-05-08T09:22:24.999Z</time>
</trkpt>
<trkpt lat="43.983456" lon="3.31134">
<ele>741.5</ele>
<time>2013-05-08T09:22:25.999Z</time>
</trkpt>
<trkpt lat="43.983607" lon="3.311153">
<ele>740.7</ele>
<time>2013-05-08T09:22:26.999Z</time>
</trkpt>
<trkpt lat="43.983762" lon="3.31098">
<ele>740.1</ele>
<time>2013-05-08T09:22:27.999Z</time>
</trkpt>
<trkpt lat="43.983918" lon="3.310826">
<ele>739.8</ele>
<time>2013-05-08T09:22:28.999Z</time>
</trkpt>
<trkpt lat="43.984079" lon="3.310699">
<ele>739.7</ele>
<time>2013-05-08T09:22:29.999Z</time>
</trkpt>
<trkpt lat="43.984234" lon="3.310577">
<ele>739.5</ele>
<time>2013-05-08T09:22:30.999Z</time>
</trkpt>
<trkpt lat="43.984401" lon="3.310485">
<ele>739.1</ele>
<time>2013-05-08T09:22:31.999Z</time>
</trkpt>
<trkpt lat="43.98458" lon="3.310414">
<ele>739</ele>
<time>2013-05-08T09:22:32.999Z</time>
</trkpt>
<trkpt lat="43.984768" lon="3.310343">
<ele>738.6</ele>
<time>2013-05-08T09:22:33.999Z</time>
</trkpt>
<trkpt lat="43.984992" lon="3.310302">
<ele>736.8</ele>
<time>2013-05-08T09:22:34.999Z</time>
</trkpt>
<trkpt lat="43.985195" lon="3.310252">
<ele>735.1</ele>
<time>2013-05-08T09:22:35.999Z</time>
</trkpt>
<trkpt lat="43.985416" lon="3.310208">
<ele>733.1</ele>
<time>2013-05-08T09:22:36.999Z</time>
</trkpt>
<trkpt lat="43.985619" lon="3.310153">
<ele>731</ele>
<time>2013-05-08T09:22:37.999Z</time>
</trkpt>
<trkpt lat="43.985813" lon="3.310088">
<ele>729.2</ele>
<time>2013-05-08T09:22:38.999Z</time>
</trkpt>
<trkpt lat="43.986008" lon="3.310031">
<ele>727.7</ele>
<time>2013-05-08T09:22:39.999Z</time>
</trkpt>
<trkpt lat="43.986195" lon="3.309971">
<ele>726.3</ele>
<time>2013-05-08T09:22:40.999Z</time>
</trkpt>
<trkpt lat="43.986374" lon="3.309915">
<ele>725</ele>
<time>2013-05-08T09:22:41.999Z</time>
</trkpt>
<trkpt lat="43.98654" lon="3.309867">
<ele>723.9</ele>
<time>2013-05-08T09:22:42.999Z</time>
</trkpt>
<trkpt lat="43.986694" lon="3.309818">
<ele>723</ele>
<time>2013-05-08T09:22:43.999Z</time>
</trkpt>
<trkpt lat="43.98684" lon="3.309767">
<ele>722.2</ele>
<time>2013-05-08T09:22:44.999Z</time>
</trkpt>
<trkpt lat="43.986982" lon="3.309715">
<ele>721.7</ele>
<time>2013-05-08T09:22:45.999Z</time>
</trkpt>
<trkpt lat="43.98711" lon="3.309637">
<ele>721</ele>
<time>2013-05-08T09:22:46.999Z</time>
</trkpt>
<trkpt lat="43.987232" lon="3.309486">
<ele>720.5</ele>
<time>2013-05-08T09:22:47.999Z</time>
</trkpt>
<trkpt lat="43.987353" lon="3.309332">
<ele>720.1</ele>
<time>2013-05-08T09:22:48.999Z</time>
</trkpt>
<trkpt lat="43.987473" lon="3.309176">
<ele>719.4</ele>
<time>2013-05-08T09:22:49.999Z</time>
</trkpt>
<trkpt lat="43.987591" lon="3.309031">
<ele>718.3</ele>
<time>2013-05-08T09:22:50.999Z</time>
</trkpt>
<trkpt lat="43.98773" lon="3.308934">
<ele>717.2</ele>
<time>2013-05-08T09:22:51.999Z</time>
</trkpt>
<trkpt lat="43.987876" lon="3.308852">
<ele>716</ele>
<time>2013-05-08T09:22:52.999Z</time>
</trkpt>
<trkpt lat="43.988022" lon="3.308838">
<ele>714.8</ele>
<time>2013-05-08T09:22:53.999Z</time>
</trkpt>
<trkpt lat="43.988168" lon="3.308878">
<ele>713.8</ele>
<time>2013-05-08T09:22:54.999Z</time>
</trkpt>
<trkpt lat="43.988328" lon="3.30894">
<ele>712.9</ele>
<time>2013-05-08T09:22:55.999Z</time>
</trkpt>
<trkpt lat="43.988486" lon="3.309027">
<ele>712</ele>
<time>2013-05-08T09:22:56.999Z</time>
</trkpt>
<trkpt lat="43.988647" lon="3.309122">
<ele>710.9</ele>
<time>2013-05-08T09:22:57.999Z</time>
</trkpt>
<trkpt lat="43.988811" lon="3.30922">
<ele>709.9</ele>
<time>2013-05-08T09:22:58.999Z</time>
</trkpt>
<trkpt lat="43.988983" lon="3.309329">
<ele>709.2</ele>
<time>2013-05-08T09:22:59.999Z</time>
</trkpt>
<trkpt lat="43.989157" lon="3.309431">
<ele>708.2</ele>
<time>2013-05-08T09:23:00.999Z</time>
</trkpt>
<trkpt lat="43.989336" lon="3.309533">
<ele>706.8</ele>
<time>2013-05-08T09:23:01.999Z</time>
</trkpt>
<trkpt lat="43.989513" lon="3.309621">
<ele>705.6</ele>
<time>2013-05-08T09:23:02.999Z</time>
</trkpt>
<trkpt lat="43.989695" lon="3.309688">
<ele>704.5</ele>
<time>2013-05-08T09:23:03.999Z</time>
</trkpt>
<trkpt lat="43.989879" lon="3.309739">
<ele>703.2</ele>
<time>2013-05-08T09:23:04.999Z</time>
</trkpt>
<trkpt lat="43.990065" lon="3.309784">
<ele>702</ele>
<time>2013-05-08T09:23:05.999Z</time>
</trkpt>
<trkpt lat="43.990249" lon="3.309828">
<ele>700.7</ele>
<time>2013-05-08T09:23:06.999Z</time>
</trkpt>
<trkpt lat="43.990431" lon="3.309893">
<ele>699.5</ele>
<time>2013-05-08T09:23:07.999Z</time>
</trkpt>
<trkpt lat="43.990607" lon="3.309979">
<ele>698.6</ele>
<time>2013-05-08T09:23:08.999Z</time>
</trkpt>
<trkpt lat="43.990771" lon="3.310089">
<ele>696.9</ele>
<time>2013-05-08T09:23:09.999Z</time>
</trkpt>
<trkpt lat="43.990898" lon="3.310229">
<ele>695.2</ele>
<time>2013-05-08T09:23:10.999Z</time>
</trkpt>
<trkpt lat="43.991002" lon="3.310355">
<ele>693.5</ele>
<time>2013-05-08T09:23:11.999Z</time>
</trkpt>
<trkpt lat="43.991101" lon="3.310471">
<ele>691.5</ele>
<time>2013-05-08T09:23:12.999Z</time>
</trkpt>
<trkpt lat="43.99119" lon="3.310562">
<ele>689.7</ele>
<time>2013-05-08T09:23:13.999Z</time>
</trkpt>
<trkpt lat="43.991268" lon="3.310621">
<ele>688.5</ele>
<time>2013-05-08T09:23:14.999Z</time>
</trkpt>
<trkpt lat="43.991336" lon="3.310662">
<ele>687.4</ele>
<time>2013-05-08T09:23:15.999Z</time>
</trkpt>
<trkpt lat="43.991413" lon="3.310488">
<ele>686.3</ele>
<time>2013-05-08T09:23:16.999Z</time>
</trkpt>
<trkpt lat="43.991534" lon="3.310356">
<ele>685.9</ele>
<time>2013-05-08T09:23:17.999Z</time>
</trkpt>
<trkpt lat="43.991645" lon="3.310196">
<ele>685.2</ele>
<time>2013-05-08T09:23:18.999Z</time>
</trkpt>
<trkpt lat="43.991742" lon="3.310044">
<ele>684.7</ele>
<time>2013-05-08T09:23:19.999Z</time>
</trkpt>
<trkpt lat="43.99182" lon="3.309912">
<ele>684.2</ele>
<time>2013-05-08T09:23:20.999Z</time>
</trkpt>
<trkpt lat="43.99188" lon="3.309798">
<ele>683.8</ele>
<time>2013-05-08T09:23:21.999Z</time>
</trkpt>
<trkpt lat="43.991936" lon="3.309752">
<ele>683.9</ele>
<time>2013-05-08T09:23:22.999Z</time>
</trkpt>
<trkpt lat="43.992003" lon="3.309744">
<ele>684.2</ele>
<time>2013-05-08T09:23:23.999Z</time>
</trkpt>
<trkpt lat="43.992023" lon="3.309902">
<ele>684.3</ele>
<time>2013-05-08T09:23:24.999Z</time>
</trkpt>
<trkpt lat="43.992033" lon="3.310074">
<ele>684.5</ele>
<time>2013-05-08T09:23:25.999Z</time>
</trkpt>
<trkpt lat="43.992033" lon="3.3103">
<ele>684.5</ele>
<time>2013-05-08T09:23:26.999Z</time>
</trkpt>
<trkpt lat="43.992025" lon="3.310537">
<ele>684.4</ele>
<time>2013-05-08T09:23:27.999Z</time>
</trkpt>
<trkpt lat="43.992022" lon="3.310793">
<ele>684.3</ele>
<time>2013-05-08T09:23:28.999Z</time>
</trkpt>
<trkpt lat="43.992026" lon="3.311053">
<ele>683.7</ele>
<time>2013-05-08T09:23:29.999Z</time>
</trkpt>
<trkpt lat="43.992039" lon="3.311312">
<ele>682.6</ele>
<time>2013-05-08T09:23:30.999Z</time>
</trkpt>
<trkpt lat="43.992068" lon="3.311542">
<ele>681.7</ele>
<time>2013-05-08T09:23:31.999Z</time>
</trkpt>
<trkpt lat="43.992138" lon="3.311753">
<ele>680.6</ele>
<time>2013-05-08T09:23:32.999Z</time>
</trkpt>
<trkpt lat="43.992221" lon="3.311958">
<ele>679.7</ele>
<time>2013-05-08T09:23:33.999Z</time>
</trkpt>
<trkpt lat="43.992312" lon="3.312153">
<ele>678.6</ele>
<time>2013-05-08T09:23:34.999Z</time>
</trkpt>
<trkpt lat="43.992403" lon="3.312337">
<ele>677.4</ele>
<time>2013-05-08T09:23:35.999Z</time>
</trkpt>
<trkpt lat="43.992502" lon="3.312522">
<ele>676.1</ele>
<time>2013-05-08T09:23:36.999Z</time>
</trkpt>
<trkpt lat="43.992599" lon="3.312693">
<ele>674.9</ele>
<time>2013-05-08T09:23:37.999Z</time>
</trkpt>
<trkpt lat="43.9927" lon="3.312859">
<ele>674.1</ele>
<time>2013-05-08T09:23:38.999Z</time>
</trkpt>
<trkpt lat="43.992794" lon="3.313002">
<ele>673.5</ele>
<time>2013-05-08T09:23:39.999Z</time>
</trkpt>
<trkpt lat="43.992919" lon="3.313097">
<ele>672.8</ele>
<time>2013-05-08T09:23:40.999Z</time>
</trkpt>
<trkpt lat="43.993046" lon="3.313156">
<ele>672.8</ele>
<time>2013-05-08T09:23:41.999Z</time>
</trkpt>
<trkpt lat="43.99318" lon="3.31318">
<ele>673</ele>
<time>2013-05-08T09:23:42.999Z</time>
</trkpt>
<trkpt lat="43.993328" lon="3.313162">
<ele>673</ele>
<time>2013-05-08T09:23:43.999Z</time>
</trkpt>
<trkpt lat="43.993476" lon="3.313132">
<ele>673.1</ele>
<time>2013-05-08T09:23:44.999Z</time>
</trkpt>
<trkpt lat="43.993612" lon="3.313049">
<ele>672.7</ele>
<time>2013-05-08T09:23:45.999Z</time>
</trkpt>
<trkpt lat="43.993766" lon="3.312961">
<ele>672.1</ele>
<time>2013-05-08T09:23:46.999Z</time>
</trkpt>
<trkpt lat="43.993926" lon="3.312878">
<ele>671.5</ele>
<time>2013-05-08T09:23:47.999Z</time>
</trkpt>
<trkpt lat="43.994101" lon="3.312799">
<ele>671.2</ele>
<time>2013-05-08T09:23:48.999Z</time>
</trkpt>
<trkpt lat="43.994271" lon="3.312721">
<ele>670.5</ele>
<time>2013-05-08T09:23:49.999Z</time>
</trkpt>
<trkpt lat="43.994453" lon="3.312658">
<ele>669.8</ele>
<time>2013-05-08T09:23:50.999Z</time>
</trkpt>
<trkpt lat="43.99464" lon="3.312596">
<ele>668.7</ele>
<time>2013-05-08T09:23:51.999Z</time>
</trkpt>
<trkpt lat="43.994851" lon="3.312566">
<ele>667.6</ele>
<time>2013-05-08T09:23:52.999Z</time>
</trkpt>
<trkpt lat="43.995073" lon="3.312554">
<ele>666.6</ele>
<time>2013-05-08T09:23:53.999Z</time>
</trkpt>
<trkpt lat="43.995276" lon="3.312583">
<ele>665.3</ele>
<time>2013-05-08T09:23:54.999Z</time>
</trkpt>
<trkpt lat="43.995473" lon="3.312661">
<ele>663.9</ele>
<time>2013-05-08T09:23:55.999Z</time>
</trkpt>
<trkpt lat="43.99566" lon="3.31273">
<ele>663.1</ele>
<time>2013-05-08T09:23:56.999Z</time>
</trkpt>
<trkpt lat="43.995847" lon="3.312793">
<ele>662.4</ele>
<time>2013-05-08T09:23:57.999Z</time>
</trkpt>
<trkpt lat="43.996026" lon="3.312853">
<ele>661</ele>
<time>2013-05-08T09:23:58.999Z</time>
</trkpt>
<trkpt lat="43.996209" lon="3.312922">
<ele>659.4</ele>
<time>2013-05-08T09:23:59.999Z</time>
</trkpt>
<trkpt lat="43.996381" lon="3.313024">
<ele>657.9</ele>
<time>2013-05-08T09:24:00.999Z</time>
</trkpt>
<trkpt lat="43.996551" lon="3.313138">
<ele>656.5</ele>
<time>2013-05-08T09:24:01.999Z</time>
</trkpt>
<trkpt lat="43.996711" lon="3.313257">
<ele>656.1</ele>
<time>2013-05-08T09:24:02.999Z</time>
</trkpt>
<trkpt lat="43.996869" lon="3.313378">
<ele>656</ele>
<time>2013-05-08T09:24:03.999Z</time>
</trkpt>
<trkpt lat="43.997023" lon="3.313526">
<ele>655.3</ele>
<time>2013-05-08T09:24:04.999Z</time>
</trkpt>
<trkpt lat="43.997165" lon="3.313711">
<ele>654.1</ele>
<time>2013-05-08T09:24:05.999Z</time>
</trkpt>
<trkpt lat="43.997294" lon="3.313908">
<ele>652.9</ele>
<time>2013-05-08T09:24:06.999Z</time>
</trkpt>
<trkpt lat="43.997434" lon="3.314095">
<ele>651.3</ele>
<time>2013-05-08T09:24:07.999Z</time>
</trkpt>
<trkpt lat="43.997562" lon="3.314287">
<ele>650</ele>
<time>2013-05-08T09:24:08.999Z</time>
</trkpt>
<trkpt lat="43.997689" lon="3.314461">
<ele>649</ele>
<time>2013-05-08T09:24:09.999Z</time>
</trkpt>
<trkpt lat="43.997816" lon="3.314625">
<ele>648.4</ele>
<time>2013-05-08T09:24:10.999Z</time>
</trkpt>
<trkpt lat="43.997944" lon="3.31479">
<ele>648</ele>
<time>2013-05-08T09:24:11.999Z</time>
</trkpt>
<trkpt lat="43.998113" lon="3.314904">
<ele>647.6</ele>
<time>2013-05-08T09:24:12.999Z</time>
</trkpt>
<trkpt lat="43.998281" lon="3.315015">
<ele>646.7</ele>
<time>2013-05-08T09:24:13.999Z</time>
</trkpt>
<trkpt lat="43.998449" lon="3.315122">
<ele>646.3</ele>
<time>2013-05-08T09:24:14.999Z</time>
</trkpt>
<trkpt lat="43.998612" lon="3.315215">
<ele>645.2</ele>
<time>2013-05-08T09:24:15.999Z</time>
</trkpt>
<trkpt lat="43.99878" lon="3.315305">
<ele>643.9</ele>
<time>2013-05-08T09:24:16.999Z</time>
</trkpt>
<trkpt lat="43.998946" lon="3.315395">
<ele>642.3</ele>
<time>2013-05-08T09:24:17.999Z</time>
</trkpt>
<trkpt lat="43.999115" lon="3.315461">
<ele>641.1</ele>
<time>2013-05-08T09:24:18.999Z</time>
</trkpt>
<trkpt lat="43.999288" lon="3.315473">
<ele>640</ele>
<time>2013-05-08T09:24:19.999Z</time>
</trkpt>
<trkpt lat="43.999465" lon="3.31545">
<ele>638.7</ele>
<time>2013-05-08T09:24:20.999Z</time>
</trkpt>
<trkpt lat="43.99964" lon="3.315409">
<ele>637.9</ele>
<time>2013-05-08T09:24:21.999Z</time>
</trkpt>
<trkpt lat="43.999811" lon="3.315309">
<ele>637.3</ele>
<time>2013-05-08T09:24:22.999Z</time>
</trkpt>
<trkpt lat="43.999979" lon="3.315164">
<ele>637.1</ele>
<time>2013-05-08T09:24:23.999Z</time>
</trkpt>
<trkpt lat="44.000148" lon="3.31503">
<ele>636.2</ele>
<time>2013-05-08T09:24:24.999Z</time>
</trkpt>
<trkpt lat="44.00031" lon="3.314891">
<ele>635.2</ele>
<time>2013-05-08T09:24:25.999Z</time>
</trkpt>
<trkpt lat="44.000495" lon="3.314789">
<ele>634.7</ele>
<time>2013-05-08T09:24:26.999Z</time>
</trkpt>
<trkpt lat="44.000696" lon="3.3147">
<ele>633.7</ele>
<time>2013-05-08T09:24:27.999Z</time>
</trkpt>
<trkpt lat="44.000906" lon="3.314657">
<ele>633</ele>
<time>2013-05-08T09:24:28.999Z</time>
</trkpt>
<trkpt lat="44.0011" lon="3.314662">
<ele>631.9</ele>
<time>2013-05-08T09:24:29.999Z</time>
</trkpt>
<trkpt lat="44.001284" lon="3.314704">
<ele>630.6</ele>
<time>2013-05-08T09:24:30.999Z</time>
</trkpt>
<trkpt lat="44.001455" lon="3.314765">
<ele>629</ele>
<time>2013-05-08T09:24:31.999Z</time>
</trkpt>
<trkpt lat="44.001602" lon="3.31485">
<ele>627.5</ele>
<time>2013-05-08T09:24:32.999Z</time>
</trkpt>
<trkpt lat="44.001741" lon="3.314933">
<ele>626.2</ele>
<time>2013-05-08T09:24:33.999Z</time>
</trkpt>
<trkpt lat="44.001879" lon="3.314946">
<ele>624.6</ele>
<time>2013-05-08T09:24:34.999Z</time>
</trkpt>
<trkpt lat="44.002017" lon="3.31495">
<ele>623.3</ele>
<time>2013-05-08T09:24:35.999Z</time>
</trkpt>
<trkpt lat="44.002169" lon="3.314933">
<ele>622.3</ele>
<time>2013-05-08T09:24:36.999Z</time>
</trkpt>
<trkpt lat="44.002324" lon="3.314876">
<ele>620.9</ele>
<time>2013-05-08T09:24:37.999Z</time>
</trkpt>
<trkpt lat="44.002486" lon="3.314788">
<ele>618.9</ele>
<time>2013-05-08T09:24:38.999Z</time>
</trkpt>
<trkpt lat="44.002659" lon="3.314674">
<ele>617.5</ele>
<time>2013-05-08T09:24:39.999Z</time>
</trkpt>
<trkpt lat="44.002843" lon="3.314542">
<ele>616.6</ele>
<time>2013-05-08T09:24:40.999Z</time>
</trkpt>
<trkpt lat="44.003031" lon="3.314406">
<ele>616.2</ele>
<time>2013-05-08T09:24:41.999Z</time>
</trkpt>
<trkpt lat="44.003217" lon="3.31427">
<ele>615.6</ele>
<time>2013-05-08T09:24:42.999Z</time>
</trkpt>
<trkpt lat="44.003402" lon="3.314132">
<ele>614.4</ele>
<time>2013-05-08T09:24:43.999Z</time>
</trkpt>
<trkpt lat="44.003582" lon="3.313985">
<ele>613.2</ele>
<time>2013-05-08T09:24:44.999Z</time>
</trkpt>
<trkpt lat="44.00375" lon="3.313835">
<ele>611.8</ele>
<time>2013-05-08T09:24:45.999Z</time>
</trkpt>
<trkpt lat="44.003902" lon="3.313696">
<ele>610.2</ele>
<time>2013-05-08T09:24:46.999Z</time>
</trkpt>
<trkpt lat="44.004041" lon="3.313568">
<ele>608.3</ele>
<time>2013-05-08T09:24:47.999Z</time>
</trkpt>
<trkpt lat="44.004165" lon="3.31345">
<ele>606.3</ele>
<time>2013-05-08T09:24:48.999Z</time>
</trkpt>
<trkpt lat="44.004288" lon="3.313343">
<ele>604.4</ele>
<time>2013-05-08T09:24:49.999Z</time>
</trkpt>
<trkpt lat="44.004406" lon="3.313233">
<ele>602.8</ele>
<time>2013-05-08T09:24:50.999Z</time>
</trkpt>
<trkpt lat="44.004512" lon="3.313101">
<ele>601.6</ele>
<time>2013-05-08T09:24:51.999Z</time>
</trkpt>
<trkpt lat="44.004547" lon="3.312889">
<ele>600.6</ele>
<time>2013-05-08T09:24:52.999Z</time>
</trkpt>
<trkpt lat="44.00454" lon="3.312677">
<ele>600</ele>
<time>2013-05-08T09:24:53.999Z</time>
</trkpt>
<trkpt lat="44.004499" lon="3.312406">
<ele>599.5</ele>
<time>2013-05-08T09:24:54.999Z</time>
</trkpt>
<trkpt lat="44.004449" lon="3.312137">
<ele>599.2</ele>
<time>2013-05-08T09:24:55.999Z</time>
</trkpt>
<trkpt lat="44.004381" lon="3.311894">
<ele>598.6</ele>
<time>2013-05-08T09:24:56.999Z</time>
</trkpt>
<trkpt lat="44.004313" lon="3.311653">
<ele>598.2</ele>
<time>2013-05-08T09:24:57.999Z</time>
</trkpt>
<trkpt lat="44.004238" lon="3.311435">
<ele>597.7</ele>
<time>2013-05-08T09:24:58.999Z</time>
</trkpt>
<trkpt lat="44.00418" lon="3.311234">
<ele>597.7</ele>
<time>2013-05-08T09:24:59.999Z</time>
</trkpt>
<trkpt lat="44.004134" lon="3.311084">
<ele>597.7</ele>
<time>2013-05-08T09:25:00.999Z</time>
</trkpt>
<trkpt lat="44.004085" lon="3.310927">
<ele>597.3</ele>
<time>2013-05-08T09:25:01.999Z</time>
</trkpt>
<trkpt lat="44.004068" lon="3.31079">
<ele>596.6</ele>
<time>2013-05-08T09:25:02.999Z</time>
</trkpt>
<trkpt lat="44.004158" lon="3.310683">
<ele>595.8</ele>
<time>2013-05-08T09:25:03.999Z</time>
</trkpt>
<trkpt lat="44.004255" lon="3.310576">
<ele>595.3</ele>
<time>2013-05-08T09:25:04.999Z</time>
</trkpt>
<trkpt lat="44.004393" lon="3.310497">
<ele>594.4</ele>
<time>2013-05-08T09:25:05.999Z</time>
</trkpt>
<trkpt lat="44.004542" lon="3.31051">
<ele>593.3</ele>
<time>2013-05-08T09:25:06.999Z</time>
</trkpt>
<trkpt lat="44.004704" lon="3.310554">
<ele>592.4</ele>
<time>2013-05-08T09:25:07.999Z</time>
</trkpt>
<trkpt lat="44.00484" lon="3.310669">
<ele>591.2</ele>
<time>2013-05-08T09:25:08.999Z</time>
</trkpt>
<trkpt lat="44.004979" lon="3.31082">
<ele>589.9</ele>
<time>2013-05-08T09:25:09.999Z</time>
</trkpt>
<trkpt lat="44.005109" lon="3.311016">
<ele>588.7</ele>
<time>2013-05-08T09:25:10.999Z</time>
</trkpt>
<trkpt lat="44.005243" lon="3.311203">
<ele>587.8</ele>
<time>2013-05-08T09:25:11.999Z</time>
</trkpt>
<trkpt lat="44.005382" lon="3.311355">
<ele>586.7</ele>
<time>2013-05-08T09:25:12.999Z</time>
</trkpt>
<trkpt lat="44.005521" lon="3.31149">
<ele>585.6</ele>
<time>2013-05-08T09:25:13.999Z</time>
</trkpt>
<trkpt lat="44.005674" lon="3.311509">
<ele>584.7</ele>
<time>2013-05-08T09:25:14.999Z</time>
</trkpt>
<trkpt lat="44.005844" lon="3.311505">
<ele>584.6</ele>
<time>2013-05-08T09:25:15.999Z</time>
</trkpt>
<trkpt lat="44.006018" lon="3.311498">
<ele>583.6</ele>
<time>2013-05-08T09:25:16.999Z</time>
</trkpt>
<trkpt lat="44.006189" lon="3.311499">
<ele>582.2</ele>
<time>2013-05-08T09:25:17.999Z</time>
</trkpt>
<trkpt lat="44.006357" lon="3.311525">
<ele>580.9</ele>
<time>2013-05-08T09:25:18.999Z</time>
</trkpt>
<trkpt lat="44.006523" lon="3.311569">
<ele>579.5</ele>
<time>2013-05-08T09:25:19.999Z</time>
</trkpt>
<trkpt lat="44.006686" lon="3.311614">
<ele>578.3</ele>
<time>2013-05-08T09:25:20.999Z</time>
</trkpt>
<trkpt lat="44.006852" lon="3.311653">
<ele>577.3</ele>
<time>2013-05-08T09:25:21.999Z</time>
</trkpt>
<trkpt lat="44.007009" lon="3.31163">
<ele>576.2</ele>
<time>2013-05-08T09:25:22.999Z</time>
</trkpt>
<trkpt lat="44.007165" lon="3.311558">
<ele>575.1</ele>
<time>2013-05-08T09:25:23.999Z</time>
</trkpt>
<trkpt lat="44.007347" lon="3.311455">
<ele>573.8</ele>
<time>2013-05-08T09:25:24.999Z</time>
</trkpt>
<trkpt lat="44.00753" lon="3.311334">
<ele>573</ele>
<time>2013-05-08T09:25:25.999Z</time>
</trkpt>
<trkpt lat="44.007706" lon="3.311212">
<ele>572.5</ele>
<time>2013-05-08T09:25:26.999Z</time>
</trkpt>
<trkpt lat="44.007879" lon="3.311079">
<ele>571.9</ele>
<time>2013-05-08T09:25:27.999Z</time>
</trkpt>
<trkpt lat="44.008048" lon="3.310941">
<ele>571.5</ele>
<time>2013-05-08T09:25:28.999Z</time>
</trkpt>
<trkpt lat="44.00821" lon="3.310785">
<ele>571.4</ele>
<time>2013-05-08T09:25:29.999Z</time>
</trkpt>
<trkpt lat="44.008355" lon="3.310609">
<ele>571.1</ele>
<time>2013-05-08T09:25:30.999Z</time>
</trkpt>
<trkpt lat="44.008486" lon="3.310421">
<ele>570.3</ele>
<time>2013-05-08T09:25:31.999Z</time>
</trkpt>
<trkpt lat="44.008588" lon="3.310206">
<ele>569.3</ele>
<time>2013-05-08T09:25:32.999Z</time>
</trkpt>
<trkpt lat="44.008653" lon="3.30994">
<ele>568.6</ele>
<time>2013-05-08T09:25:33.999Z</time>
</trkpt>
<trkpt lat="44.008724" lon="3.309675">
<ele>567.8</ele>
<time>2013-05-08T09:25:34.999Z</time>
</trkpt>
<trkpt lat="44.008799" lon="3.309419">
<ele>567.1</ele>
<time>2013-05-08T09:25:35.999Z</time>
</trkpt>
<trkpt lat="44.008884" lon="3.309174">
<ele>566.2</ele>
<time>2013-05-08T09:25:36.999Z</time>
</trkpt>
<trkpt lat="44.008985" lon="3.308948">
<ele>565.3</ele>
<time>2013-05-08T09:25:37.999Z</time>
</trkpt>
<trkpt lat="44.009106" lon="3.308719">
<ele>564.5</ele>
<time>2013-05-08T09:25:38.999Z</time>
</trkpt>
<trkpt lat="44.009242" lon="3.308508">
<ele>563.6</ele>
<time>2013-05-08T09:25:39.999Z</time>
</trkpt>
<trkpt lat="44.009395" lon="3.308294">
<ele>563</ele>
<time>2013-05-08T09:25:40.999Z</time>
</trkpt>
<trkpt lat="44.009563" lon="3.308074">
<ele>562.8</ele>
<time>2013-05-08T09:25:41.999Z</time>
</trkpt>
<trkpt lat="44.009727" lon="3.307846">
<ele>562.9</ele>
<time>2013-05-08T09:25:42.999Z</time>
</trkpt>
<trkpt lat="44.009887" lon="3.307626">
<ele>562.9</ele>
<time>2013-05-08T09:25:43.999Z</time>
</trkpt>
<trkpt lat="44.010053" lon="3.307406">
<ele>562.8</ele>
<time>2013-05-08T09:25:44.999Z</time>
</trkpt>
<trkpt lat="44.010211" lon="3.307193">
<ele>562.1</ele>
<time>2013-05-08T09:25:45.999Z</time>
</trkpt>
<trkpt lat="44.010363" lon="3.306997">
<ele>561.1</ele>
<time>2013-05-08T09:25:46.999Z</time>
</trkpt>
<trkpt lat="44.010514" lon="3.306814">
<ele>559.9</ele>
<time>2013-05-08T09:25:47.999Z</time>
</trkpt>
<trkpt lat="44.010665" lon="3.306653">
<ele>559</ele>
<time>2013-05-08T09:25:48.999Z</time>
</trkpt>
<trkpt lat="44.010803" lon="3.306501">
<ele>557.9</ele>
<time>2013-05-08T09:25:49.999Z</time>
</trkpt>
<trkpt lat="44.010944" lon="3.306348">
<ele>556.9</ele>
<time>2013-05-08T09:25:50.999Z</time>
</trkpt>
<trkpt lat="44.011065" lon="3.306188">
<ele>555.9</ele>
<time>2013-05-08T09:25:51.999Z</time>
</trkpt>
<trkpt lat="44.011182" lon="3.306032">
<ele>555.5</ele>
<time>2013-05-08T09:25:52.999Z</time>
</trkpt>
<trkpt lat="44.011271" lon="3.305841">
<ele>555.1</ele>
<time>2013-05-08T09:25:53.999Z</time>
</trkpt>
<trkpt lat="44.011349" lon="3.305629">
<ele>554.7</ele>
<time>2013-05-08T09:25:54.999Z</time>
</trkpt>
<trkpt lat="44.011428" lon="3.305432">
<ele>554</ele>
<time>2013-05-08T09:25:55.999Z</time>
</trkpt>
<trkpt lat="44.01153" lon="3.305246">
<ele>553.3</ele>
<time>2013-05-08T09:25:56.999Z</time>
</trkpt>
<trkpt lat="44.01164" lon="3.305083">
<ele>552.5</ele>
<time>2013-05-08T09:25:57.999Z</time>
</trkpt>
<trkpt lat="44.011776" lon="3.304973">
<ele>551.7</ele>
<time>2013-05-08T09:25:58.999Z</time>
</trkpt>
<trkpt lat="44.011921" lon="3.304868">
<ele>551.3</ele>
<time>2013-05-08T09:25:59.999Z</time>
</trkpt>
<trkpt lat="44.012079" lon="3.304781">
<ele>550.9</ele>
<time>2013-05-08T09:26:00.999Z</time>
</trkpt>
<trkpt lat="44.01224" lon="3.304709">
<ele>550.3</ele>
<time>2013-05-08T09:26:01.999Z</time>
</trkpt>
<trkpt lat="44.012387" lon="3.304664">
<ele>549.1</ele>
<time>2013-05-08T09:26:02.999Z</time>
</trkpt>
<trkpt lat="44.01253" lon="3.304641">
<ele>547.8</ele>
<time>2013-05-08T09:26:03.999Z</time>
</trkpt>
<trkpt lat="44.012678" lon="3.304631">
<ele>546.5</ele>
<time>2013-05-08T09:26:04.999Z</time>
</trkpt>
<trkpt lat="44.012799" lon="3.304636">
<ele>545.8</ele>
<time>2013-05-08T09:26:05.999Z</time>
</trkpt>
<trkpt lat="44.012901" lon="3.304639">
<ele>545.5</ele>
<time>2013-05-08T09:26:06.999Z</time>
</trkpt>
<trkpt lat="44.012992" lon="3.304648">
<ele>545.3</ele>
<time>2013-05-08T09:26:07.999Z</time>
</trkpt>
<trkpt lat="44.013061" lon="3.30466">
<ele>545.3</ele>
<time>2013-05-08T09:26:08.999Z</time>
</trkpt>
<trkpt lat="44.013127" lon="3.304673">
<ele>545.2</ele>
<time>2013-05-08T09:26:09.999Z</time>
</trkpt>
<trkpt lat="44.013187" lon="3.304686">
<ele>545</ele>
<time>2013-05-08T09:26:10.999Z</time>
</trkpt>
<trkpt lat="44.013232" lon="3.304702">
<ele>544.8</ele>
<time>2013-05-08T09:26:11.999Z</time>
</trkpt>
<trkpt lat="44.013285" lon="3.304714">
<ele>544.7</ele>
<time>2013-05-08T09:26:12.999Z</time>
</trkpt>
<trkpt lat="44.013361" lon="3.304733">
<ele>544.6</ele>
<time>2013-05-08T09:26:13.999Z</time>
</trkpt>
<trkpt lat="44.013459" lon="3.304759">
<ele>544.6</ele>
<time>2013-05-08T09:26:14.999Z</time>
</trkpt>
<trkpt lat="44.013607" lon="3.304759">
<ele>544.3</ele>
<time>2013-05-08T09:26:15.999Z</time>
</trkpt>
<trkpt lat="44.013762" lon="3.304755">
<ele>544.3</ele>
<time>2013-05-08T09:26:16.999Z</time>
</trkpt>
<trkpt lat="44.013933" lon="3.304747">
<ele>544.5</ele>
<time>2013-05-08T09:26:17.999Z</time>
</trkpt>
<trkpt lat="44.014106" lon="3.30474">
<ele>544.5</ele>
<time>2013-05-08T09:26:18.999Z</time>
</trkpt>
<trkpt lat="44.014268" lon="3.304731">
<ele>544.6</ele>
<time>2013-05-08T09:26:19.999Z</time>
</trkpt>
<trkpt lat="44.014426" lon="3.30472">
<ele>544.6</ele>
<time>2013-05-08T09:26:20.999Z</time>
</trkpt>
<trkpt lat="44.014574" lon="3.304711">
<ele>544.5</ele>
<time>2013-05-08T09:26:21.999Z</time>
</trkpt>
<trkpt lat="44.014711" lon="3.304704">
<ele>544.5</ele>
<time>2013-05-08T09:26:22.999Z</time>
</trkpt>
<trkpt lat="44.014855" lon="3.304698">
<ele>544.3</ele>
<time>2013-05-08T09:26:23.999Z</time>
</trkpt>
<trkpt lat="44.015" lon="3.304694">
<ele>544.2</ele>
<time>2013-05-08T09:26:24.999Z</time>
</trkpt>
<trkpt lat="44.015145" lon="3.304688">
<ele>544.5</ele>
<time>2013-05-08T09:26:25.999Z</time>
</trkpt>
<trkpt lat="44.015289" lon="3.304685">
<ele>544.9</ele>
<time>2013-05-08T09:26:26.999Z</time>
</trkpt>
<trkpt lat="44.015429" lon="3.304678">
<ele>545.1</ele>
<time>2013-05-08T09:26:27.999Z</time>
</trkpt>
<trkpt lat="44.015565" lon="3.304674">
<ele>545.1</ele>
<time>2013-05-08T09:26:28.999Z</time>
</trkpt>
<trkpt lat="44.0157" lon="3.304672">
<ele>545.3</ele>
<time>2013-05-08T09:26:29.999Z</time>
</trkpt>
<trkpt lat="44.015838" lon="3.304675">
<ele>545.3</ele>
<time>2013-05-08T09:26:30.999Z</time>
</trkpt>
<trkpt lat="44.015987" lon="3.304676">
<ele>545.4</ele>
<time>2013-05-08T09:26:31.999Z</time>
</trkpt>
<trkpt lat="44.016136" lon="3.304679">
<ele>545.6</ele>
<time>2013-05-08T09:26:32.999Z</time>
</trkpt>
<trkpt lat="44.016289" lon="3.304678">
<ele>545.5</ele>
<time>2013-05-08T09:26:33.999Z</time>
</trkpt>
<trkpt lat="44.016446" lon="3.304677">
<ele>545.6</ele>
<time>2013-05-08T09:26:34.999Z</time>
</trkpt>
<trkpt lat="44.016602" lon="3.304673">
<ele>545.6</ele>
<time>2013-05-08T09:26:35.999Z</time>
</trkpt>
<trkpt lat="44.016757" lon="3.304666">
<ele>545.6</ele>
<time>2013-05-08T09:26:36.999Z</time>
</trkpt>
<trkpt lat="44.016916" lon="3.30466">
<ele>545.2</ele>
<time>2013-05-08T09:26:37.999Z</time>
</trkpt>
<trkpt lat="44.01708" lon="3.304654">
<ele>545</ele>
<time>2013-05-08T09:26:38.999Z</time>
</trkpt>
<trkpt lat="44.017245" lon="3.304651">
<ele>544.5</ele>
<time>2013-05-08T09:26:39.999Z</time>
</trkpt>
<trkpt lat="44.017398" lon="3.304648">
<ele>544.3</ele>
<time>2013-05-08T09:26:40.999Z</time>
</trkpt>
<trkpt lat="44.017544" lon="3.304646">
<ele>544</ele>
<time>2013-05-08T09:26:41.999Z</time>
</trkpt>
<trkpt lat="44.017688" lon="3.30464">
<ele>543.5</ele>
<time>2013-05-08T09:26:42.999Z</time>
</trkpt>
<trkpt lat="44.017827" lon="3.304633">
<ele>542.9</ele>
<time>2013-05-08T09:26:43.999Z</time>
</trkpt>
<trkpt lat="44.01797" lon="3.304625">
<ele>542.6</ele>
<time>2013-05-08T09:26:44.999Z</time>
</trkpt>
<trkpt lat="44.01811" lon="3.30462">
<ele>542.4</ele>
<time>2013-05-08T09:26:45.999Z</time>
</trkpt>
<trkpt lat="44.018249" lon="3.304623">
<ele>542</ele>
<time>2013-05-08T09:26:46.999Z</time>
</trkpt>
<trkpt lat="44.018388" lon="3.304622">
<ele>541.7</ele>
<time>2013-05-08T09:26:47.999Z</time>
</trkpt>
<trkpt lat="44.018519" lon="3.304622">
<ele>541.3</ele>
<time>2013-05-08T09:26:48.999Z</time>
</trkpt>
<trkpt lat="44.018638" lon="3.304619">
<ele>541.3</ele>
<time>2013-05-08T09:26:49.999Z</time>
</trkpt>
<trkpt lat="44.018755" lon="3.304617">
<ele>542.2</ele>
<time>2013-05-08T09:26:50.999Z</time>
</trkpt>
<trkpt lat="44.018874" lon="3.304608">
<ele>542.8</ele>
<time>2013-05-08T09:26:51.999Z</time>
</trkpt>
<trkpt lat="44.018995" lon="3.3046">
<ele>542.5</ele>
<time>2013-05-08T09:26:52.999Z</time>
</trkpt>
<trkpt lat="44.01912" lon="3.304594">
<ele>542.1</ele>
<time>2013-05-08T09:26:53.999Z</time>
</trkpt>
<trkpt lat="44.01925" lon="3.30459">
<ele>541.4</ele>
<time>2013-05-08T09:26:54.999Z</time>
</trkpt>
<trkpt lat="44.019383" lon="3.304586">
<ele>541.1</ele>
<time>2013-05-08T09:26:55.999Z</time>
</trkpt>
<trkpt lat="44.019514" lon="3.304581">
<ele>540.8</ele>
<time>2013-05-08T09:26:56.999Z</time>
</trkpt>
<trkpt lat="44.019645" lon="3.304577">
<ele>540.8</ele>
<time>2013-05-08T09:26:57.999Z</time>
</trkpt>
<trkpt lat="44.019776" lon="3.30457">
<ele>540.6</ele>
<time>2013-05-08T09:26:58.999Z</time>
</trkpt>
<trkpt lat="44.019909" lon="3.30456">
<ele>540.6</ele>
<time>2013-05-08T09:26:59.999Z</time>
</trkpt>
<trkpt lat="44.020036" lon="3.304543">
<ele>540.2</ele>
<time>2013-05-08T09:27:00.999Z</time>
</trkpt>
<trkpt lat="44.02017" lon="3.304513">
<ele>539.8</ele>
<time>2013-05-08T09:27:01.999Z</time>
</trkpt>
<trkpt lat="44.02031" lon="3.304481">
<ele>539.2</ele>
<time>2013-05-08T09:27:02.999Z</time>
</trkpt>
<trkpt lat="44.020444" lon="3.304434">
<ele>538.9</ele>
<time>2013-05-08T09:27:03.999Z</time>
</trkpt>
<trkpt lat="44.020565" lon="3.304378">
<ele>538.3</ele>
<time>2013-05-08T09:27:04.999Z</time>
</trkpt>
<trkpt lat="44.020691" lon="3.304311">
<ele>537.6</ele>
<time>2013-05-08T09:27:05.999Z</time>
</trkpt>
<trkpt lat="44.020816" lon="3.304222">
<ele>536.7</ele>
<time>2013-05-08T09:27:06.999Z</time>
</trkpt>
<trkpt lat="44.020943" lon="3.304121">
<ele>536.3</ele>
<time>2013-05-08T09:27:07.999Z</time>
</trkpt>
<trkpt lat="44.021066" lon="3.304013">
<ele>535.6</ele>
<time>2013-05-08T09:27:08.999Z</time>
</trkpt>
<trkpt lat="44.021194" lon="3.303891">
<ele>535.5</ele>
<time>2013-05-08T09:27:09.999Z</time>
</trkpt>
<trkpt lat="44.021318" lon="3.303764">
<ele>535.4</ele>
<time>2013-05-08T09:27:10.999Z</time>
</trkpt>
<trkpt lat="44.021432" lon="3.303636">
<ele>535.2</ele>
<time>2013-05-08T09:27:11.999Z</time>
</trkpt>
<trkpt lat="44.021537" lon="3.303511">
<ele>535</ele>
<time>2013-05-08T09:27:12.999Z</time>
</trkpt>
<trkpt lat="44.021634" lon="3.303391">
<ele>535.1</ele>
<time>2013-05-08T09:27:13.999Z</time>
</trkpt>
<trkpt lat="44.021719" lon="3.303271">
<ele>536.1</ele>
<time>2013-05-08T09:27:14.999Z</time>
</trkpt>
<trkpt lat="44.021787" lon="3.303167">
<ele>537.2</ele>
<time>2013-05-08T09:27:15.999Z</time>
</trkpt>
<trkpt lat="44.021836" lon="3.303074">
<ele>538</ele>
<time>2013-05-08T09:27:16.999Z</time>
</trkpt>
<trkpt lat="44.02188" lon="3.303009">
<ele>538.3</ele>
<time>2013-05-08T09:27:17.999Z</time>
</trkpt>
<trkpt lat="44.021916" lon="3.302955">
<ele>538.4</ele>
<time>2013-05-08T09:27:18.999Z</time>
</trkpt>
<trkpt lat="44.021972" lon="3.302908">
<ele>538.3</ele>
<time>2013-05-08T09:27:19.999Z</time>
</trkpt>
<trkpt lat="44.022035" lon="3.30291">
<ele>538.3</ele>
<time>2013-05-08T09:27:20.999Z</time>
</trkpt>
<trkpt lat="44.022093" lon="3.302886">
<ele>538.5</ele>
<time>2013-05-08T09:27:21.999Z</time>
</trkpt>
<trkpt lat="44.022157" lon="3.302846">
<ele>538.9</ele>
<time>2013-05-08T09:27:22.999Z</time>
</trkpt>
<trkpt lat="44.022212" lon="3.302776">
<ele>539.3</ele>
<time>2013-05-08T09:27:23.999Z</time>
</trkpt>
<trkpt lat="44.022232" lon="3.30268">
<ele>539.5</ele>
<time>2013-05-08T09:27:24.999Z</time>
</trkpt>
<trkpt lat="44.022244" lon="3.302599">
<ele>539.6</ele>
<time>2013-05-08T09:27:25.999Z</time>
</trkpt>
<trkpt lat="44.022249" lon="3.302535">
<ele>539.9</ele>
<time>2013-05-08T09:27:26.999Z</time>
</trkpt>
<trkpt lat="44.022252" lon="3.302482">
<ele>540.3</ele>
<time>2013-05-08T09:27:27.999Z</time>
</trkpt>
<trkpt lat="44.022257" lon="3.302428">
<ele>540.7</ele>
<time>2013-05-08T09:27:28.999Z</time>
</trkpt>
<trkpt lat="44.022263" lon="3.302371">
<ele>541.2</ele>
<time>2013-05-08T09:27:29.999Z</time>
</trkpt>
<trkpt lat="44.022271" lon="3.302312">
<ele>541.3</ele>
<time>2013-05-08T09:27:30.999Z</time>
</trkpt>
<trkpt lat="44.022287" lon="3.302242">
<ele>541.8</ele>
<time>2013-05-08T09:27:31.999Z</time>
</trkpt>
<trkpt lat="44.022307" lon="3.302172">
<ele>542.2</ele>
<time>2013-05-08T09:27:32.999Z</time>
</trkpt>
<trkpt lat="44.022329" lon="3.302101">
<ele>542.9</ele>
<time>2013-05-08T09:27:33.999Z</time>
</trkpt>
<trkpt lat="44.022355" lon="3.302055">
<ele>543.6</ele>
<time>2013-05-08T09:27:34.999Z</time>
</trkpt>
<trkpt lat="44.022385" lon="3.30201">
<ele>544.5</ele>
<time>2013-05-08T09:27:35.999Z</time>
</trkpt>
<trkpt lat="44.022424" lon="3.301984">
<ele>544.8</ele>
<time>2013-05-08T09:27:38.999Z</time>
</trkpt>
<trkpt lat="44.022444" lon="3.301972">
<ele>544.9</ele>
<time>2013-05-08T09:27:39.999Z</time>
</trkpt>
<trkpt lat="44.022485" lon="3.301941">
<ele>546.1</ele>
<time>2013-05-08T09:27:40.999Z</time>
</trkpt>
<trkpt lat="44.022543" lon="3.301904">
<ele>547</ele>
<time>2013-05-08T09:27:41.999Z</time>
</trkpt>
<trkpt lat="44.02262" lon="3.30185">
<ele>548.3</ele>
<time>2013-05-08T09:27:42.999Z</time>
</trkpt>
<trkpt lat="44.022701" lon="3.301798">
<ele>549.4</ele>
<time>2013-05-08T09:27:43.999Z</time>
</trkpt>
<trkpt lat="44.02279" lon="3.301736">
<ele>549.7</ele>
<time>2013-05-08T09:27:44.999Z</time>
</trkpt>
<trkpt lat="44.022891" lon="3.301669">
<ele>549.6</ele>
<time>2013-05-08T09:27:45.999Z</time>
</trkpt>
<trkpt lat="44.023006" lon="3.301594">
<ele>549.1</ele>
<time>2013-05-08T09:27:46.999Z</time>
</trkpt>
<trkpt lat="44.023123" lon="3.301517">
<ele>548.8</ele>
<time>2013-05-08T09:27:47.999Z</time>
</trkpt>
<trkpt lat="44.023243" lon="3.301445">
<ele>548.9</ele>
<time>2013-05-08T09:27:48.999Z</time>
</trkpt>
<trkpt lat="44.023362" lon="3.301379">
<ele>548.9</ele>
<time>2013-05-08T09:27:49.999Z</time>
</trkpt>
<trkpt lat="44.023476" lon="3.301309">
<ele>548.8</ele>
<time>2013-05-08T09:27:50.999Z</time>
</trkpt>
<trkpt lat="44.023585" lon="3.301245">
<ele>549</ele>
<time>2013-05-08T09:27:51.999Z</time>
</trkpt>
<trkpt lat="44.023687" lon="3.301171">
<ele>549.1</ele>
<time>2013-05-08T09:27:52.999Z</time>
</trkpt>
<trkpt lat="44.023762" lon="3.301048">
<ele>549.4</ele>
<time>2013-05-08T09:27:53.999Z</time>
</trkpt>
<trkpt lat="44.023777" lon="3.30087">
<ele>549.4</ele>
<time>2013-05-08T09:27:54.999Z</time>
</trkpt>
<trkpt lat="44.023787" lon="3.300676">
<ele>548.7</ele>
<time>2013-05-08T09:27:55.999Z</time>
</trkpt>
<trkpt lat="44.023796" lon="3.300479">
<ele>548.3</ele>
<time>2013-05-08T09:27:56.999Z</time>
</trkpt>
<trkpt lat="44.023814" lon="3.30028">
<ele>547.6</ele>
<time>2013-05-08T09:27:57.999Z</time>
</trkpt>
<trkpt lat="44.023846" lon="3.300091">
<ele>546.4</ele>
<time>2013-05-08T09:27:58.999Z</time>
</trkpt>
<trkpt lat="44.023898" lon="3.299926">
<ele>545.1</ele>
<time>2013-05-08T09:27:59.999Z</time>
</trkpt>
<trkpt lat="44.02402" lon="3.299789">
<ele>543.8</ele>
<time>2013-05-08T09:28:00.999Z</time>
</trkpt>
<trkpt lat="44.024149" lon="3.299647">
<ele>542.9</ele>
<time>2013-05-08T09:28:01.999Z</time>
</trkpt>
<trkpt lat="44.024289" lon="3.299504">
<ele>542.3</ele>
<time>2013-05-08T09:28:02.999Z</time>
</trkpt>
<trkpt lat="44.024452" lon="3.299371">
<ele>541.8</ele>
<time>2013-05-08T09:28:03.999Z</time>
</trkpt>
<trkpt lat="44.024622" lon="3.299241">
<ele>541.4</ele>
<time>2013-05-08T09:28:04.999Z</time>
</trkpt>
<trkpt lat="44.024792" lon="3.299102">
<ele>541.2</ele>
<time>2013-05-08T09:28:05.999Z</time>
</trkpt>
<trkpt lat="44.024968" lon="3.298955">
<ele>541.4</ele>
<time>2013-05-08T09:28:06.999Z</time>
</trkpt>
<trkpt lat="44.025153" lon="3.298803">
<ele>541.6</ele>
<time>2013-05-08T09:28:07.999Z</time>
</trkpt>
<trkpt lat="44.025344" lon="3.298652">
<ele>541.8</ele>
<time>2013-05-08T09:28:08.999Z</time>
</trkpt>
<trkpt lat="44.025527" lon="3.298497">
<ele>542</ele>
<time>2013-05-08T09:28:09.999Z</time>
</trkpt>
<trkpt lat="44.02571" lon="3.298337">
<ele>542.5</ele>
<time>2013-05-08T09:28:10.999Z</time>
</trkpt>
<trkpt lat="44.025895" lon="3.298176">
<ele>543</ele>
<time>2013-05-08T09:28:11.999Z</time>
</trkpt>
<trkpt lat="44.026082" lon="3.298011">
<ele>543.2</ele>
<time>2013-05-08T09:28:12.999Z</time>
</trkpt>
<trkpt lat="44.026276" lon="3.297835">
<ele>543.1</ele>
<time>2013-05-08T09:28:13.999Z</time>
</trkpt>
<trkpt lat="44.026468" lon="3.297667">
<ele>543.2</ele>
<time>2013-05-08T09:28:14.999Z</time>
</trkpt>
<trkpt lat="44.026665" lon="3.297495">
<ele>543.4</ele>
<time>2013-05-08T09:28:15.999Z</time>
</trkpt>
<trkpt lat="44.026864" lon="3.297327">
<ele>543.5</ele>
<time>2013-05-08T09:28:16.999Z</time>
</trkpt>
<trkpt lat="44.027059" lon="3.297168">
<ele>543.5</ele>
<time>2013-05-08T09:28:17.999Z</time>
</trkpt>
<trkpt lat="44.027259" lon="3.29701">
<ele>543.3</ele>
<time>2013-05-08T09:28:18.999Z</time>
</trkpt>
<trkpt lat="44.027452" lon="3.296879">
<ele>543.4</ele>
<time>2013-05-08T09:28:19.999Z</time>
</trkpt>
<trkpt lat="44.027637" lon="3.296748">
<ele>543.5</ele>
<time>2013-05-08T09:28:20.999Z</time>
</trkpt>
<trkpt lat="44.027811" lon="3.296617">
<ele>543.9</ele>
<time>2013-05-08T09:28:21.999Z</time>
</trkpt>
<trkpt lat="44.027978" lon="3.296476">
<ele>544.4</ele>
<time>2013-05-08T09:28:22.999Z</time>
</trkpt>
<trkpt lat="44.028145" lon="3.296338">
<ele>544.8</ele>
<time>2013-05-08T09:28:23.999Z</time>
</trkpt>
<trkpt lat="44.028305" lon="3.296194">
<ele>545.3</ele>
<time>2013-05-08T09:28:24.999Z</time>
</trkpt>
<trkpt lat="44.028462" lon="3.296034">
<ele>545.5</ele>
<time>2013-05-08T09:28:25.999Z</time>
</trkpt>
<trkpt lat="44.028633" lon="3.295853">
<ele>545.2</ele>
<time>2013-05-08T09:28:26.999Z</time>
</trkpt>
<trkpt lat="44.028811" lon="3.295646">
<ele>544.6</ele>
<time>2013-05-08T09:28:27.999Z</time>
</trkpt>
<trkpt lat="44.029" lon="3.295414">
<ele>544.4</ele>
<time>2013-05-08T09:28:28.999Z</time>
</trkpt>
<trkpt lat="44.029181" lon="3.295152">
<ele>543.9</ele>
<time>2013-05-08T09:28:29.999Z</time>
</trkpt>
<trkpt lat="44.029339" lon="3.294896">
<ele>543.2</ele>
<time>2013-05-08T09:28:30.999Z</time>
</trkpt>
<trkpt lat="44.029463" lon="3.29466">
<ele>542.3</ele>
<time>2013-05-08T09:28:31.999Z</time>
</trkpt>
<trkpt lat="44.029558" lon="3.294425">
<ele>541.3</ele>
<time>2013-05-08T09:28:32.999Z</time>
</trkpt>
<trkpt lat="44.029591" lon="3.294163">
<ele>540.4</ele>
<time>2013-05-08T09:28:33.999Z</time>
</trkpt>
<trkpt lat="44.02957" lon="3.293861">
<ele>540.5</ele>
<time>2013-05-08T09:28:34.999Z</time>
</trkpt>
<trkpt lat="44.029501" lon="3.293551">
<ele>540.6</ele>
<time>2013-05-08T09:28:35.999Z</time>
</trkpt>
<trkpt lat="44.029433" lon="3.293225">
<ele>540.8</ele>
<time>2013-05-08T09:28:36.999Z</time>
</trkpt>
<trkpt lat="44.029423" lon="3.292875">
<ele>541.3</ele>
<time>2013-05-08T09:28:37.999Z</time>
</trkpt>
<trkpt lat="44.029428" lon="3.292526">
<ele>542.1</ele>
<time>2013-05-08T09:28:38.999Z</time>
</trkpt>
<trkpt lat="44.029449" lon="3.29218">
<ele>542.6</ele>
<time>2013-05-08T09:28:39.999Z</time>
</trkpt>
<trkpt lat="44.029475" lon="3.291858">
<ele>543</ele>
<time>2013-05-08T09:28:40.999Z</time>
</trkpt>
<trkpt lat="44.029502" lon="3.291555">
<ele>543.2</ele>
<time>2013-05-08T09:28:41.999Z</time>
</trkpt>
<trkpt lat="44.029532" lon="3.291267">
<ele>543.2</ele>
<time>2013-05-08T09:28:42.999Z</time>
</trkpt>
<trkpt lat="44.029564" lon="3.290979">
<ele>543.2</ele>
<time>2013-05-08T09:28:43.999Z</time>
</trkpt>
<trkpt lat="44.02962" lon="3.290695">
<ele>543.5</ele>
<time>2013-05-08T09:28:44.999Z</time>
</trkpt>
<trkpt lat="44.029684" lon="3.290406">
<ele>543.8</ele>
<time>2013-05-08T09:28:45.999Z</time>
</trkpt>
<trkpt lat="44.029788" lon="3.290127">
<ele>544.3</ele>
<time>2013-05-08T09:28:46.999Z</time>
</trkpt>
<trkpt lat="44.029906" lon="3.289858">
<ele>544.5</ele>
<time>2013-05-08T09:28:47.999Z</time>
</trkpt>
<trkpt lat="44.030052" lon="3.28963">
<ele>544.6</ele>
<time>2013-05-08T09:28:48.999Z</time>
</trkpt>
<trkpt lat="44.030196" lon="3.28941">
<ele>544.1</ele>
<time>2013-05-08T09:28:49.999Z</time>
</trkpt>
<trkpt lat="44.030359" lon="3.289248">
<ele>544.1</ele>
<time>2013-05-08T09:28:50.999Z</time>
</trkpt>
<trkpt lat="44.030518" lon="3.289099">
<ele>544.7</ele>
<time>2013-05-08T09:28:51.999Z</time>
</trkpt>
<trkpt lat="44.030675" lon="3.288953">
<ele>546.1</ele>
<time>2013-05-08T09:28:52.999Z</time>
</trkpt>
<trkpt lat="44.030828" lon="3.288786">
<ele>547.6</ele>
<time>2013-05-08T09:28:53.999Z</time>
</trkpt>
<trkpt lat="44.03098" lon="3.288607">
<ele>549.4</ele>
<time>2013-05-08T09:28:54.999Z</time>
</trkpt>
<trkpt lat="44.031126" lon="3.288409">
<ele>550.9</ele>
<time>2013-05-08T09:28:55.999Z</time>
</trkpt>
<trkpt lat="44.031259" lon="3.288201">
<ele>552.2</ele>
<time>2013-05-08T09:28:56.999Z</time>
</trkpt>
<trkpt lat="44.031391" lon="3.287997">
<ele>553.2</ele>
<time>2013-05-08T09:28:57.999Z</time>
</trkpt>
<trkpt lat="44.031519" lon="3.287798">
<ele>554</ele>
<time>2013-05-08T09:28:58.999Z</time>
</trkpt>
<trkpt lat="44.031676" lon="3.287653">
<ele>554.6</ele>
<time>2013-05-08T09:28:59.999Z</time>
</trkpt>
<trkpt lat="44.031846" lon="3.287539">
<ele>555.2</ele>
<time>2013-05-08T09:29:00.999Z</time>
</trkpt>
<trkpt lat="44.032024" lon="3.287453">
<ele>555.9</ele>
<time>2013-05-08T09:29:01.999Z</time>
</trkpt>
<trkpt lat="44.032222" lon="3.287421">
<ele>556.7</ele>
<time>2013-05-08T09:29:02.999Z</time>
</trkpt>
<trkpt lat="44.032434" lon="3.287415">
<ele>557.7</ele>
<time>2013-05-08T09:29:03.999Z</time>
</trkpt>
<trkpt lat="44.032665" lon="3.287442">
<ele>558.8</ele>
<time>2013-05-08T09:29:04.999Z</time>
</trkpt>
<trkpt lat="44.032883" lon="3.287536">
<ele>559.5</ele>
<time>2013-05-08T09:29:05.999Z</time>
</trkpt>
<trkpt lat="44.033098" lon="3.287576">
<ele>559.5</ele>
<time>2013-05-08T09:29:06.999Z</time>
</trkpt>
<trkpt lat="44.03331" lon="3.287615">
<ele>559.8</ele>
<time>2013-05-08T09:29:07.999Z</time>
</trkpt>
<trkpt lat="44.033478" lon="3.287793">
<ele>560.4</ele>
<time>2013-05-08T09:29:08.999Z</time>
</trkpt>
<trkpt lat="44.03361" lon="3.287975">
<ele>561.2</ele>
<time>2013-05-08T09:29:09.999Z</time>
</trkpt>
<trkpt lat="44.033741" lon="3.288161">
<ele>561.5</ele>
<time>2013-05-08T09:29:10.999Z</time>
</trkpt>
<trkpt lat="44.033833" lon="3.288387">
<ele>562.2</ele>
<time>2013-05-08T09:29:11.999Z</time>
</trkpt>
<trkpt lat="44.033915" lon="3.288593">
<ele>562.7</ele>
<time>2013-05-08T09:29:12.999Z</time>
</trkpt>
<trkpt lat="44.033983" lon="3.288824">
<ele>563.5</ele>
<time>2013-05-08T09:29:13.999Z</time>
</trkpt>
<trkpt lat="44.034063" lon="3.289031">
<ele>564.3</ele>
<time>2013-05-08T09:29:14.999Z</time>
</trkpt>
<trkpt lat="44.034194" lon="3.289165">
<ele>564.9</ele>
<time>2013-05-08T09:29:15.999Z</time>
</trkpt>
<trkpt lat="44.034339" lon="3.289282">
<ele>565.3</ele>
<time>2013-05-08T09:29:16.999Z</time>
</trkpt>
<trkpt lat="44.034518" lon="3.289343">
<ele>565.4</ele>
<time>2013-05-08T09:29:17.999Z</time>
</trkpt>
<trkpt lat="44.034697" lon="3.289389">
<ele>565.2</ele>
<time>2013-05-08T09:29:18.999Z</time>
</trkpt>
<trkpt lat="44.034876" lon="3.28941">
<ele>565.4</ele>
<time>2013-05-08T09:29:19.999Z</time>
</trkpt>
<trkpt lat="44.035061" lon="3.2894">
<ele>565.8</ele>
<time>2013-05-08T09:29:20.999Z</time>
</trkpt>
<trkpt lat="44.035241" lon="3.289385">
<ele>566</ele>
<time>2013-05-08T09:29:21.999Z</time>
</trkpt>
<trkpt lat="44.035416" lon="3.289377">
<ele>566.4</ele>
<time>2013-05-08T09:29:22.999Z</time>
</trkpt>
<trkpt lat="44.035593" lon="3.289377">
<ele>566.2</ele>
<time>2013-05-08T09:29:23.999Z</time>
</trkpt>
<trkpt lat="44.035767" lon="3.289396">
<ele>565.7</ele>
<time>2013-05-08T09:29:24.999Z</time>
</trkpt>
<trkpt lat="44.035935" lon="3.289445">
<ele>565.5</ele>
<time>2013-05-08T09:29:25.999Z</time>
</trkpt>
<trkpt lat="44.036082" lon="3.289551">
<ele>565.1</ele>
<time>2013-05-08T09:29:26.999Z</time>
</trkpt>
<trkpt lat="44.036232" lon="3.289643">
<ele>565.5</ele>
<time>2013-05-08T09:29:27.999Z</time>
</trkpt>
<trkpt lat="44.036384" lon="3.28973">
<ele>565.2</ele>
<time>2013-05-08T09:29:28.999Z</time>
</trkpt>
<trkpt lat="44.036533" lon="3.289825">
<ele>564.8</ele>
<time>2013-05-08T09:29:29.999Z</time>
</trkpt>
<trkpt lat="44.03667" lon="3.289918">
<ele>565.2</ele>
<time>2013-05-08T09:29:30.999Z</time>
</trkpt>
<trkpt lat="44.036802" lon="3.29003">
<ele>565.8</ele>
<time>2013-05-08T09:29:31.999Z</time>
</trkpt>
<trkpt lat="44.036933" lon="3.290169">
<ele>565.8</ele>
<time>2013-05-08T09:29:32.999Z</time>
</trkpt>
<trkpt lat="44.037051" lon="3.290325">
<ele>566.6</ele>
<time>2013-05-08T09:29:33.999Z</time>
</trkpt>
<trkpt lat="44.037157" lon="3.290506">
<ele>566.7</ele>
<time>2013-05-08T09:29:34.999Z</time>
</trkpt>
<trkpt lat="44.03726" lon="3.290693">
<ele>567</ele>
<time>2013-05-08T09:29:35.999Z</time>
</trkpt>
<trkpt lat="44.037348" lon="3.290865">
<ele>568</ele>
<time>2013-05-08T09:29:36.999Z</time>
</trkpt>
<trkpt lat="44.037414" lon="3.290999">
<ele>569.1</ele>
<time>2013-05-08T09:29:37.999Z</time>
</trkpt>
<trkpt lat="44.037499" lon="3.291066">
<ele>569.8</ele>
<time>2013-05-08T09:29:38.999Z</time>
</trkpt>
<trkpt lat="44.037583" lon="3.291062">
<ele>570.3</ele>
<time>2013-05-08T09:29:39.999Z</time>
</trkpt>
<trkpt lat="44.037663" lon="3.291001">
<ele>570.9</ele>
<time>2013-05-08T09:29:40.999Z</time>
</trkpt>
<trkpt lat="44.037751" lon="3.29089">
<ele>571.1</ele>
<time>2013-05-08T09:29:41.999Z</time>
</trkpt>
<trkpt lat="44.037833" lon="3.29073">
<ele>571.2</ele>
<time>2013-05-08T09:29:42.999Z</time>
</trkpt>
<trkpt lat="44.037911" lon="3.290557">
<ele>571.7</ele>
<time>2013-05-08T09:29:43.999Z</time>
</trkpt>
<trkpt lat="44.037982" lon="3.290375">
<ele>571.8</ele>
<time>2013-05-08T09:29:44.999Z</time>
</trkpt>
<trkpt lat="44.038051" lon="3.290194">
<ele>572</ele>
<time>2013-05-08T09:29:45.999Z</time>
</trkpt>
<trkpt lat="44.038109" lon="3.290015">
<ele>571.6</ele>
<time>2013-05-08T09:29:46.999Z</time>
</trkpt>
<trkpt lat="44.038165" lon="3.289851">
<ele>571.3</ele>
<time>2013-05-08T09:29:47.999Z</time>
</trkpt>
<trkpt lat="44.038251" lon="3.289721">
<ele>570.8</ele>
<time>2013-05-08T09:29:48.999Z</time>
</trkpt>
<trkpt lat="44.038358" lon="3.289655">
<ele>570.3</ele>
<time>2013-05-08T09:29:49.999Z</time>
</trkpt>
<trkpt lat="44.038485" lon="3.289612">
<ele>569.9</ele>
<time>2013-05-08T09:29:50.999Z</time>
</trkpt>
<trkpt lat="44.038624" lon="3.2896">
<ele>569.4</ele>
<time>2013-05-08T09:29:51.999Z</time>
</trkpt>
<trkpt lat="44.038767" lon="3.289742">
<ele>568.8</ele>
<time>2013-05-08T09:29:52.999Z</time>
</trkpt>
<trkpt lat="44.038852" lon="3.289953">
<ele>568.1</ele>
<time>2013-05-08T09:29:53.999Z</time>
</trkpt>
<trkpt lat="44.038932" lon="3.29017">
<ele>567.8</ele>
<time>2013-05-08T09:29:54.999Z</time>
</trkpt>
<trkpt lat="44.038958" lon="3.290472">
<ele>567.8</ele>
<time>2013-05-08T09:29:55.999Z</time>
</trkpt>
<trkpt lat="44.038981" lon="3.290715">
<ele>567.6</ele>
<time>2013-05-08T09:29:56.999Z</time>
</trkpt>
<trkpt lat="44.03899" lon="3.290974">
<ele>567.6</ele>
<time>2013-05-08T09:29:57.999Z</time>
</trkpt>
<trkpt lat="44.038995" lon="3.291232">
<ele>567.8</ele>
<time>2013-05-08T09:29:58.999Z</time>
</trkpt>
<trkpt lat="44.039" lon="3.291493">
<ele>568.3</ele>
<time>2013-05-08T09:29:59.999Z</time>
</trkpt>
<trkpt lat="44.039053" lon="3.291721">
<ele>568.4</ele>
<time>2013-05-08T09:30:00.999Z</time>
</trkpt>
<trkpt lat="44.039117" lon="3.291952">
<ele>568.4</ele>
<time>2013-05-08T09:30:01.999Z</time>
</trkpt>
<trkpt lat="44.039227" lon="3.292149">
<ele>567.7</ele>
<time>2013-05-08T09:30:02.999Z</time>
</trkpt>
<trkpt lat="44.039391" lon="3.292287">
<ele>567.1</ele>
<time>2013-05-08T09:30:03.999Z</time>
</trkpt>
<trkpt lat="44.039595" lon="3.292436">
<ele>566.3</ele>
<time>2013-05-08T09:30:04.999Z</time>
</trkpt>
<trkpt lat="44.039816" lon="3.292583">
<ele>565.7</ele>
<time>2013-05-08T09:30:05.999Z</time>
</trkpt>
<trkpt lat="44.040044" lon="3.292728">
<ele>565.1</ele>
<time>2013-05-08T09:30:06.999Z</time>
</trkpt>
<trkpt lat="44.040271" lon="3.292871">
<ele>564.7</ele>
<time>2013-05-08T09:30:07.999Z</time>
</trkpt>
<trkpt lat="44.040496" lon="3.293012">
<ele>564.1</ele>
<time>2013-05-08T09:30:08.999Z</time>
</trkpt>
<trkpt lat="44.040724" lon="3.293155">
<ele>563.4</ele>
<time>2013-05-08T09:30:09.999Z</time>
</trkpt>
<trkpt lat="44.040933" lon="3.293305">
<ele>562.6</ele>
<time>2013-05-08T09:30:10.999Z</time>
</trkpt>
<trkpt lat="44.041132" lon="3.29345">
<ele>561.7</ele>
<time>2013-05-08T09:30:11.999Z</time>
</trkpt>
<trkpt lat="44.041315" lon="3.293596">
<ele>561</ele>
<time>2013-05-08T09:30:12.999Z</time>
</trkpt>
<trkpt lat="44.04148" lon="3.293749">
<ele>560.1</ele>
<time>2013-05-08T09:30:13.999Z</time>
</trkpt>
<trkpt lat="44.041624" lon="3.293923">
<ele>559.4</ele>
<time>2013-05-08T09:30:14.999Z</time>
</trkpt>
<trkpt lat="44.04176" lon="3.294093">
<ele>559</ele>
<time>2013-05-08T09:30:15.999Z</time>
</trkpt>
<trkpt lat="44.041889" lon="3.294251">
<ele>558.7</ele>
<time>2013-05-08T09:30:16.999Z</time>
</trkpt>
<trkpt lat="44.042026" lon="3.294386">
<ele>558.4</ele>
<time>2013-05-08T09:30:17.999Z</time>
</trkpt>
<trkpt lat="44.042179" lon="3.294511">
<ele>558.2</ele>
<time>2013-05-08T09:30:18.999Z</time>
</trkpt>
<trkpt lat="44.042339" lon="3.294622">
<ele>557.8</ele>
<time>2013-05-08T09:30:19.999Z</time>
</trkpt>
<trkpt lat="44.042507" lon="3.294724">
<ele>557.6</ele>
<time>2013-05-08T09:30:20.999Z</time>
</trkpt>
<trkpt lat="44.042677" lon="3.294799">
<ele>557.4</ele>
<time>2013-05-08T09:30:21.999Z</time>
</trkpt>
<trkpt lat="44.042851" lon="3.294839">
<ele>557.3</ele>
<time>2013-05-08T09:30:22.999Z</time>
</trkpt>
<trkpt lat="44.043036" lon="3.294868">
<ele>557.2</ele>
<time>2013-05-08T09:30:23.999Z</time>
</trkpt>
<trkpt lat="44.043228" lon="3.294898">
<ele>557</ele>
<time>2013-05-08T09:30:24.999Z</time>
</trkpt>
<trkpt lat="44.04342" lon="3.294932">
<ele>557.3</ele>
<time>2013-05-08T09:30:25.999Z</time>
</trkpt>
<trkpt lat="44.043607" lon="3.295001">
<ele>557.5</ele>
<time>2013-05-08T09:30:26.999Z</time>
</trkpt>
<trkpt lat="44.043789" lon="3.29509">
<ele>557.4</ele>
<time>2013-05-08T09:30:27.999Z</time>
</trkpt>
<trkpt lat="44.043976" lon="3.295188">
<ele>557.4</ele>
<time>2013-05-08T09:30:28.999Z</time>
</trkpt>
<trkpt lat="44.044173" lon="3.295288">
<ele>557.4</ele>
<time>2013-05-08T09:30:29.999Z</time>
</trkpt>
<trkpt lat="44.044383" lon="3.295381">
<ele>557</ele>
<time>2013-05-08T09:30:30.999Z</time>
</trkpt>
<trkpt lat="44.044598" lon="3.295463">
<ele>556.8</ele>
<time>2013-05-08T09:30:31.999Z</time>
</trkpt>
<trkpt lat="44.044818" lon="3.295548">
<ele>556.2</ele>
<time>2013-05-08T09:30:32.999Z</time>
</trkpt>
<trkpt lat="44.045038" lon="3.295635">
<ele>555.5</ele>
<time>2013-05-08T09:30:33.999Z</time>
</trkpt>
<trkpt lat="44.045254" lon="3.295718">
<ele>554.7</ele>
<time>2013-05-08T09:30:34.999Z</time>
</trkpt>
<trkpt lat="44.045465" lon="3.295796">
<ele>554</ele>
<time>2013-05-08T09:30:35.999Z</time>
</trkpt>
<trkpt lat="44.045679" lon="3.29588">
<ele>552.9</ele>
<time>2013-05-08T09:30:36.999Z</time>
</trkpt>
<trkpt lat="44.04589" lon="3.295962">
<ele>552.1</ele>
<time>2013-05-08T09:30:37.999Z</time>
</trkpt>
<trkpt lat="44.046094" lon="3.296045">
<ele>551.3</ele>
<time>2013-05-08T09:30:38.999Z</time>
</trkpt>
<trkpt lat="44.046276" lon="3.296156">
<ele>550.1</ele>
<time>2013-05-08T09:30:39.999Z</time>
</trkpt>
<trkpt lat="44.046443" lon="3.296278">
<ele>549.2</ele>
<time>2013-05-08T09:30:40.999Z</time>
</trkpt>
<trkpt lat="44.046594" lon="3.296373">
<ele>548.2</ele>
<time>2013-05-08T09:30:41.999Z</time>
</trkpt>
<trkpt lat="44.046732" lon="3.296447">
<ele>547.9</ele>
<time>2013-05-08T09:30:42.999Z</time>
</trkpt>
<trkpt lat="44.046875" lon="3.296481">
<ele>548.1</ele>
<time>2013-05-08T09:30:43.999Z</time>
</trkpt>
<trkpt lat="44.047002" lon="3.296434">
<ele>548.6</ele>
<time>2013-05-08T09:30:44.999Z</time>
</trkpt>
<trkpt lat="44.047133" lon="3.296396">
<ele>548.6</ele>
<time>2013-05-08T09:30:45.999Z</time>
</trkpt>
<trkpt lat="44.047262" lon="3.296343">
<ele>548.6</ele>
<time>2013-05-08T09:30:46.999Z</time>
</trkpt>
<trkpt lat="44.047389" lon="3.296305">
<ele>548.3</ele>
<time>2013-05-08T09:30:47.999Z</time>
</trkpt>
<trkpt lat="44.047474" lon="3.296387">
<ele>548.5</ele>
<time>2013-05-08T09:30:48.999Z</time>
</trkpt>
<trkpt lat="44.047502" lon="3.296556">
<ele>548.6</ele>
<time>2013-05-08T09:30:49.999Z</time>
</trkpt>
<trkpt lat="44.047494" lon="3.296761">
<ele>548.6</ele>
<time>2013-05-08T09:30:50.999Z</time>
</trkpt>
<trkpt lat="44.047478" lon="3.296956">
<ele>548.3</ele>
<time>2013-05-08T09:30:51.999Z</time>
</trkpt>
<trkpt lat="44.04744" lon="3.297168">
<ele>547.8</ele>
<time>2013-05-08T09:30:52.999Z</time>
</trkpt>
<trkpt lat="44.0474" lon="3.29739">
<ele>547.2</ele>
<time>2013-05-08T09:30:53.999Z</time>
</trkpt>
<trkpt lat="44.047393" lon="3.297604">
<ele>547.3</ele>
<time>2013-05-08T09:30:54.999Z</time>
</trkpt>
<trkpt lat="44.047415" lon="3.297819">
<ele>547.2</ele>
<time>2013-05-08T09:30:55.999Z</time>
</trkpt>
<trkpt lat="44.047489" lon="3.298018">
<ele>547</ele>
<time>2013-05-08T09:30:56.999Z</time>
</trkpt>
<trkpt lat="44.047574" lon="3.298233">
<ele>546.4</ele>
<time>2013-05-08T09:30:57.999Z</time>
</trkpt>
<trkpt lat="44.047667" lon="3.298438">
<ele>546.1</ele>
<time>2013-05-08T09:30:58.999Z</time>
</trkpt>
<trkpt lat="44.047769" lon="3.298643">
<ele>545.6</ele>
<time>2013-05-08T09:30:59.999Z</time>
</trkpt>
<trkpt lat="44.047889" lon="3.298832">
<ele>545.4</ele>
<time>2013-05-08T09:31:00.999Z</time>
</trkpt>
<trkpt lat="44.048058" lon="3.298956">
<ele>544.5</ele>
<time>2013-05-08T09:31:01.999Z</time>
</trkpt>
<trkpt lat="44.048239" lon="3.299083">
<ele>543.4</ele>
<time>2013-05-08T09:31:02.999Z</time>
</trkpt>
<trkpt lat="44.048429" lon="3.299227">
<ele>542.2</ele>
<time>2013-05-08T09:31:03.999Z</time>
</trkpt>
<trkpt lat="44.04862" lon="3.299348">
<ele>541.2</ele>
<time>2013-05-08T09:31:04.999Z</time>
</trkpt>
<trkpt lat="44.048771" lon="3.299503">
<ele>540.6</ele>
<time>2013-05-08T09:31:05.999Z</time>
</trkpt>
<trkpt lat="44.048913" lon="3.299656">
<ele>539.6</ele>
<time>2013-05-08T09:31:06.999Z</time>
</trkpt>
<trkpt lat="44.049053" lon="3.299806">
<ele>539</ele>
<time>2013-05-08T09:31:07.999Z</time>
</trkpt>
<trkpt lat="44.049194" lon="3.299939">
<ele>538.6</ele>
<time>2013-05-08T09:31:08.999Z</time>
</trkpt>
<trkpt lat="44.049338" lon="3.300067">
<ele>538.7</ele>
<time>2013-05-08T09:31:09.999Z</time>
</trkpt>
<trkpt lat="44.049486" lon="3.300187">
<ele>538.7</ele>
<time>2013-05-08T09:31:10.999Z</time>
</trkpt>
<trkpt lat="44.049634" lon="3.300296">
<ele>538.7</ele>
<time>2013-05-08T09:31:11.999Z</time>
</trkpt>
<trkpt lat="44.049795" lon="3.300379">
<ele>539</ele>
<time>2013-05-08T09:31:12.999Z</time>
</trkpt>
<trkpt lat="44.049956" lon="3.30046">
<ele>539.3</ele>
<time>2013-05-08T09:31:13.999Z</time>
</trkpt>
<trkpt lat="44.050117" lon="3.300538">
<ele>539.5</ele>
<time>2013-05-08T09:31:14.999Z</time>
</trkpt>
<trkpt lat="44.050297" lon="3.300604">
<ele>539.2</ele>
<time>2013-05-08T09:31:15.999Z</time>
</trkpt>
<trkpt lat="44.05049" lon="3.300666">
<ele>538.8</ele>
<time>2013-05-08T09:31:16.999Z</time>
</trkpt>
<trkpt lat="44.050691" lon="3.300726">
<ele>538.3</ele>
<time>2013-05-08T09:31:17.999Z</time>
</trkpt>
<trkpt lat="44.050897" lon="3.300781">
<ele>537.6</ele>
<time>2013-05-08T09:31:18.999Z</time>
</trkpt>
<trkpt lat="44.05111" lon="3.300849">
<ele>536.9</ele>
<time>2013-05-08T09:31:19.999Z</time>
</trkpt>
<trkpt lat="44.051325" lon="3.30092">
<ele>536.3</ele>
<time>2013-05-08T09:31:20.999Z</time>
</trkpt>
<trkpt lat="44.051533" lon="3.300995">
<ele>535.7</ele>
<time>2013-05-08T09:31:21.999Z</time>
</trkpt>
<trkpt lat="44.051744" lon="3.301042">
<ele>535.3</ele>
<time>2013-05-08T09:31:22.999Z</time>
</trkpt>
<trkpt lat="44.051955" lon="3.301065">
<ele>534.8</ele>
<time>2013-05-08T09:31:23.999Z</time>
</trkpt>
<trkpt lat="44.052177" lon="3.30106">
<ele>534.1</ele>
<time>2013-05-08T09:31:24.999Z</time>
</trkpt>
<trkpt lat="44.052405" lon="3.301054">
<ele>533.5</ele>
<time>2013-05-08T09:31:25.999Z</time>
</trkpt>
<trkpt lat="44.05262" lon="3.30105">
<ele>532.8</ele>
<time>2013-05-08T09:31:26.999Z</time>
</trkpt>
<trkpt lat="44.052826" lon="3.30104">
<ele>532.3</ele>
<time>2013-05-08T09:31:27.999Z</time>
</trkpt>
<trkpt lat="44.053011" lon="3.301064">
<ele>531.7</ele>
<time>2013-05-08T09:31:28.999Z</time>
</trkpt>
<trkpt lat="44.053202" lon="3.301104">
<ele>531.2</ele>
<time>2013-05-08T09:31:29.999Z</time>
</trkpt>
<trkpt lat="44.053382" lon="3.301173">
<ele>531</ele>
<time>2013-05-08T09:31:30.999Z</time>
</trkpt>
<trkpt lat="44.05356" lon="3.301276">
<ele>530.9</ele>
<time>2013-05-08T09:31:31.999Z</time>
</trkpt>
<trkpt lat="44.053726" lon="3.301375">
<ele>530.6</ele>
<time>2013-05-08T09:31:32.999Z</time>
</trkpt>
<trkpt lat="44.053873" lon="3.30149">
<ele>530.5</ele>
<time>2013-05-08T09:31:33.999Z</time>
</trkpt>
<trkpt lat="44.053991" lon="3.301666">
<ele>530.4</ele>
<time>2013-05-08T09:31:34.999Z</time>
</trkpt>
<trkpt lat="44.054112" lon="3.30182">
<ele>530.5</ele>
<time>2013-05-08T09:31:35.999Z</time>
</trkpt>
<trkpt lat="44.054228" lon="3.301972">
<ele>530.6</ele>
<time>2013-05-08T09:31:36.999Z</time>
</trkpt>
<trkpt lat="44.054323" lon="3.302131">
<ele>531.1</ele>
<time>2013-05-08T09:31:37.999Z</time>
</trkpt>
<trkpt lat="44.054432" lon="3.302265">
<ele>531.5</ele>
<time>2013-05-08T09:31:38.999Z</time>
</trkpt>
<trkpt lat="44.054533" lon="3.302365">
<ele>531.6</ele>
<time>2013-05-08T09:31:39.999Z</time>
</trkpt>
<trkpt lat="44.05462" lon="3.302418">
<ele>531.5</ele>
<time>2013-05-08T09:31:40.999Z</time>
</trkpt>
<trkpt lat="44.054686" lon="3.302447">
<ele>531</ele>
<time>2013-05-08T09:31:41.999Z</time>
</trkpt>
<trkpt lat="44.054739" lon="3.302455">
<ele>530.4</ele>
<time>2013-05-08T09:31:42.999Z</time>
</trkpt>
<trkpt lat="44.054779" lon="3.302461">
<ele>529.7</ele>
<time>2013-05-08T09:31:43.999Z</time>
</trkpt>
<trkpt lat="44.054811" lon="3.302466">
<ele>528.9</ele>
<time>2013-05-08T09:31:44.999Z</time>
</trkpt>
<trkpt lat="44.054848" lon="3.302495">
<ele>528.7</ele>
<time>2013-05-08T09:31:46.999Z</time>
</trkpt>
<trkpt lat="44.054864" lon="3.302509">
<ele>528.6</ele>
<time>2013-05-08T09:31:47.999Z</time>
</trkpt>
<trkpt lat="44.054899" lon="3.302509">
<ele>528.4</ele>
<time>2013-05-08T09:31:50.999Z</time>
</trkpt>
<trkpt lat="44.054911" lon="3.302505">
<ele>528.4</ele>
<time>2013-05-08T09:31:51.999Z</time>
</trkpt>
<trkpt lat="44.054911" lon="3.302505">
<ele>529.1</ele>
<time>2013-05-08T09:34:23.999Z</time>
</trkpt>
<trkpt lat="44.054872" lon="3.302471">
<ele>529.2</ele>
<time>2013-05-08T09:34:24.999Z</time>
</trkpt>
<trkpt lat="44.054914" lon="3.302488">
<ele>528.1</ele>
<time>2013-05-08T09:40:55.999Z</time>
</trkpt>
<trkpt lat="44.054915" lon="3.30249">
<ele>528</ele>
<time>2013-05-08T09:40:56.999Z</time>
</trkpt>
<trkpt lat="44.054873" lon="3.302473">
<ele>527.6</ele>
<time>2013-05-08T09:41:42.999Z</time>
</trkpt>
<trkpt lat="44.05487" lon="3.302474">
<ele>527.6</ele>
<time>2013-05-08T09:41:43.999Z</time>
</trkpt>
<trkpt lat="44.054881" lon="3.302427">
<ele>527.6</ele>
<time>2013-05-08T09:42:22.999Z</time>
</trkpt>
<trkpt lat="44.054888" lon="3.302366">
<ele>527.7</ele>
<time>2013-05-08T09:42:23.999Z</time>
</trkpt>
<trkpt lat="44.05495" lon="3.302324">
<ele>528.5</ele>
<time>2013-05-08T09:42:24.999Z</time>
</trkpt>
<trkpt lat="44.055025" lon="3.302296">
<ele>528.5</ele>
<time>2013-05-08T09:42:25.999Z</time>
</trkpt>
<trkpt lat="44.055117" lon="3.302234">
<ele>528.5</ele>
<time>2013-05-08T09:42:26.999Z</time>
</trkpt>
<trkpt lat="44.055231" lon="3.30212">
<ele>528.7</ele>
<time>2013-05-08T09:42:27.999Z</time>
</trkpt>
<trkpt lat="44.05537" lon="3.301959">
<ele>528.7</ele>
<time>2013-05-08T09:42:28.999Z</time>
</trkpt>
<trkpt lat="44.055539" lon="3.301735">
<ele>528.2</ele>
<time>2013-05-08T09:42:29.999Z</time>
</trkpt>
<trkpt lat="44.055701" lon="3.301503">
<ele>527.8</ele>
<time>2013-05-08T09:42:30.999Z</time>
</trkpt>
<trkpt lat="44.055853" lon="3.301266">
<ele>527.8</ele>
<time>2013-05-08T09:42:31.999Z</time>
</trkpt>
<trkpt lat="44.056" lon="3.301043">
<ele>527.9</ele>
<time>2013-05-08T09:42:32.999Z</time>
</trkpt>
<trkpt lat="44.05616" lon="3.300838">
<ele>527.9</ele>
<time>2013-05-08T09:42:33.999Z</time>
</trkpt>
<trkpt lat="44.056324" lon="3.300641">
<ele>527.5</ele>
<time>2013-05-08T09:42:34.999Z</time>
</trkpt>
<trkpt lat="44.056496" lon="3.300457">
<ele>527</ele>
<time>2013-05-08T09:42:35.999Z</time>
</trkpt>
<trkpt lat="44.056679" lon="3.300281">
<ele>526.2</ele>
<time>2013-05-08T09:42:36.999Z</time>
</trkpt>
<trkpt lat="44.056877" lon="3.300123">
<ele>524.9</ele>
<time>2013-05-08T09:42:37.999Z</time>
</trkpt>
<trkpt lat="44.057096" lon="3.29999">
<ele>524</ele>
<time>2013-05-08T09:42:38.999Z</time>
</trkpt>
<trkpt lat="44.057331" lon="3.299892">
<ele>523.7</ele>
<time>2013-05-08T09:42:39.999Z</time>
</trkpt>
<trkpt lat="44.057563" lon="3.2998">
<ele>523.7</ele>
<time>2013-05-08T09:42:40.999Z</time>
</trkpt>
<trkpt lat="44.057802" lon="3.299726">
<ele>524.1</ele>
<time>2013-05-08T09:42:41.999Z</time>
</trkpt>
<trkpt lat="44.058045" lon="3.299696">
<ele>524.6</ele>
<time>2013-05-08T09:42:42.999Z</time>
</trkpt>
<trkpt lat="44.058277" lon="3.299701">
<ele>524.5</ele>
<time>2013-05-08T09:42:43.999Z</time>
</trkpt>
<trkpt lat="44.058508" lon="3.299726">
<ele>524.3</ele>
<time>2013-05-08T09:42:44.999Z</time>
</trkpt>
<trkpt lat="44.058738" lon="3.299776">
<ele>524.1</ele>
<time>2013-05-08T09:42:45.999Z</time>
</trkpt>
<trkpt lat="44.058968" lon="3.299851">
<ele>523.8</ele>
<time>2013-05-08T09:42:46.999Z</time>
</trkpt>
<trkpt lat="44.059202" lon="3.299934">
<ele>523</ele>
<time>2013-05-08T09:42:47.999Z</time>
</trkpt>
<trkpt lat="44.059433" lon="3.300046">
<ele>522.1</ele>
<time>2013-05-08T09:42:48.999Z</time>
</trkpt>
<trkpt lat="44.059667" lon="3.30017">
<ele>521.2</ele>
<time>2013-05-08T09:42:49.999Z</time>
</trkpt>
<trkpt lat="44.059895" lon="3.300292">
<ele>520.2</ele>
<time>2013-05-08T09:42:50.999Z</time>
</trkpt>
<trkpt lat="44.06011" lon="3.300411">
<ele>519.3</ele>
<time>2013-05-08T09:42:51.999Z</time>
</trkpt>
<trkpt lat="44.060332" lon="3.300475">
<ele>518.3</ele>
<time>2013-05-08T09:42:52.999Z</time>
</trkpt>
<trkpt lat="44.060561" lon="3.300522">
<ele>517.4</ele>
<time>2013-05-08T09:42:53.999Z</time>
</trkpt>
<trkpt lat="44.060781" lon="3.300555">
<ele>517.1</ele>
<time>2013-05-08T09:42:54.999Z</time>
</trkpt>
<trkpt lat="44.061026" lon="3.300577">
<ele>517.1</ele>
<time>2013-05-08T09:42:55.999Z</time>
</trkpt>
<trkpt lat="44.061293" lon="3.300509">
<ele>516.6</ele>
<time>2013-05-08T09:42:56.999Z</time>
</trkpt>
<trkpt lat="44.061556" lon="3.300454">
<ele>515.8</ele>
<time>2013-05-08T09:42:57.999Z</time>
</trkpt>
<trkpt lat="44.061818" lon="3.300397">
<ele>514.9</ele>
<time>2013-05-08T09:42:58.999Z</time>
</trkpt>
<trkpt lat="44.062087" lon="3.300335">
<ele>514.1</ele>
<time>2013-05-08T09:42:59.999Z</time>
</trkpt>
<trkpt lat="44.062356" lon="3.300271">
<ele>513.7</ele>
<time>2013-05-08T09:43:00.999Z</time>
</trkpt>
<trkpt lat="44.062618" lon="3.30024">
<ele>513.5</ele>
<time>2013-05-08T09:43:01.999Z</time>
</trkpt>
<trkpt lat="44.062864" lon="3.300214">
<ele>512.7</ele>
<time>2013-05-08T09:43:02.999Z</time>
</trkpt>
<trkpt lat="44.063106" lon="3.300185">
<ele>512</ele>
<time>2013-05-08T09:43:03.999Z</time>
</trkpt>
<trkpt lat="44.063333" lon="3.300134">
<ele>511.5</ele>
<time>2013-05-08T09:43:04.999Z</time>
</trkpt>
<trkpt lat="44.063565" lon="3.30004">
<ele>511</ele>
<time>2013-05-08T09:43:05.999Z</time>
</trkpt>
<trkpt lat="44.063795" lon="3.299912">
<ele>510.1</ele>
<time>2013-05-08T09:43:06.999Z</time>
</trkpt>
<trkpt lat="44.064027" lon="3.29978">
<ele>509.1</ele>
<time>2013-05-08T09:43:07.999Z</time>
</trkpt>
<trkpt lat="44.064258" lon="3.299649">
<ele>508.3</ele>
<time>2013-05-08T09:43:08.999Z</time>
</trkpt>
<trkpt lat="44.064487" lon="3.299515">
<ele>508</ele>
<time>2013-05-08T09:43:09.999Z</time>
</trkpt>
<trkpt lat="44.064704" lon="3.299389">
<ele>507.6</ele>
<time>2013-05-08T09:43:10.999Z</time>
</trkpt>
<trkpt lat="44.064905" lon="3.299261">
<ele>506.9</ele>
<time>2013-05-08T09:43:11.999Z</time>
</trkpt>
<trkpt lat="44.065086" lon="3.299105">
<ele>506.7</ele>
<time>2013-05-08T09:43:12.999Z</time>
</trkpt>
<trkpt lat="44.065228" lon="3.298903">
<ele>507.4</ele>
<time>2013-05-08T09:43:13.999Z</time>
</trkpt>
<trkpt lat="44.065365" lon="3.298657">
<ele>507.8</ele>
<time>2013-05-08T09:43:14.999Z</time>
</trkpt>
<trkpt lat="44.065499" lon="3.29843">
<ele>508.4</ele>
<time>2013-05-08T09:43:15.999Z</time>
</trkpt>
<trkpt lat="44.065633" lon="3.298218">
<ele>508.7</ele>
<time>2013-05-08T09:43:16.999Z</time>
</trkpt>
<trkpt lat="44.065762" lon="3.298015">
<ele>508.9</ele>
<time>2013-05-08T09:43:17.999Z</time>
</trkpt>
<trkpt lat="44.065875" lon="3.297829">
<ele>508.9</ele>
<time>2013-05-08T09:43:18.999Z</time>
</trkpt>
<trkpt lat="44.065976" lon="3.297633">
<ele>509.2</ele>
<time>2013-05-08T09:43:19.999Z</time>
</trkpt>
<trkpt lat="44.066071" lon="3.297425">
<ele>509.5</ele>
<time>2013-05-08T09:43:20.999Z</time>
</trkpt>
<trkpt lat="44.066167" lon="3.297198">
<ele>510.4</ele>
<time>2013-05-08T09:43:21.999Z</time>
</trkpt>
<trkpt lat="44.066246" lon="3.29691">
<ele>512</ele>
<time>2013-05-08T09:43:22.999Z</time>
</trkpt>
<trkpt lat="44.066308" lon="3.296584">
<ele>513.6</ele>
<time>2013-05-08T09:43:23.999Z</time>
</trkpt>
<trkpt lat="44.066379" lon="3.296229">
<ele>515.4</ele>
<time>2013-05-08T09:43:24.999Z</time>
</trkpt>
<trkpt lat="44.066448" lon="3.295873">
<ele>517.2</ele>
<time>2013-05-08T09:43:25.999Z</time>
</trkpt>
<trkpt lat="44.066504" lon="3.295517">
<ele>518.6</ele>
<time>2013-05-08T09:43:26.999Z</time>
</trkpt>
<trkpt lat="44.066565" lon="3.295162">
<ele>519.7</ele>
<time>2013-05-08T09:43:27.999Z</time>
</trkpt>
<trkpt lat="44.066638" lon="3.294822">
<ele>520.8</ele>
<time>2013-05-08T09:43:28.999Z</time>
</trkpt>
<trkpt lat="44.066722" lon="3.294512">
<ele>522.2</ele>
<time>2013-05-08T09:43:29.999Z</time>
</trkpt>
<trkpt lat="44.066796" lon="3.29422">
<ele>523.6</ele>
<time>2013-05-08T09:43:30.999Z</time>
</trkpt>
<trkpt lat="44.066872" lon="3.293935">
<ele>524.9</ele>
<time>2013-05-08T09:43:31.999Z</time>
</trkpt>
<trkpt lat="44.066961" lon="3.293665">
<ele>526</ele>
<time>2013-05-08T09:43:32.999Z</time>
</trkpt>
<trkpt lat="44.06707" lon="3.2934">
<ele>527.1</ele>
<time>2013-05-08T09:43:33.999Z</time>
</trkpt>
<trkpt lat="44.067194" lon="3.293144">
<ele>528.2</ele>
<time>2013-05-08T09:43:34.999Z</time>
</trkpt>
<trkpt lat="44.067328" lon="3.292917">
<ele>529.2</ele>
<time>2013-05-08T09:43:35.999Z</time>
</trkpt>
<trkpt lat="44.067466" lon="3.292729">
<ele>529.7</ele>
<time>2013-05-08T09:43:36.999Z</time>
</trkpt>
<trkpt lat="44.067618" lon="3.292552">
<ele>530.1</ele>
<time>2013-05-08T09:43:37.999Z</time>
</trkpt>
<trkpt lat="44.067777" lon="3.292504">
<ele>530.5</ele>
<time>2013-05-08T09:43:38.999Z</time>
</trkpt>
<trkpt lat="44.067934" lon="3.292534">
<ele>530.3</ele>
<time>2013-05-08T09:43:39.999Z</time>
</trkpt>
<trkpt lat="44.068092" lon="3.292566">
<ele>530.2</ele>
<time>2013-05-08T09:43:40.999Z</time>
</trkpt>
<trkpt lat="44.068235" lon="3.292544">
<ele>530.2</ele>
<time>2013-05-08T09:43:41.999Z</time>
</trkpt>
<trkpt lat="44.068368" lon="3.292485">
<ele>530.6</ele>
<time>2013-05-08T09:43:42.999Z</time>
</trkpt>
<trkpt lat="44.068508" lon="3.292427">
<ele>530.9</ele>
<time>2013-05-08T09:43:43.999Z</time>
</trkpt>
<trkpt lat="44.06864" lon="3.29236">
<ele>531.2</ele>
<time>2013-05-08T09:43:44.999Z</time>
</trkpt>
<trkpt lat="44.068791" lon="3.29234">
<ele>530.9</ele>
<time>2013-05-08T09:43:45.999Z</time>
</trkpt>
<trkpt lat="44.068944" lon="3.292313">
<ele>530</ele>
<time>2013-05-08T09:43:46.999Z</time>
</trkpt>
<trkpt lat="44.06911" lon="3.292322">
<ele>529.3</ele>
<time>2013-05-08T09:43:47.999Z</time>
</trkpt>
<trkpt lat="44.069288" lon="3.292367">
<ele>528.3</ele>
<time>2013-05-08T09:43:48.999Z</time>
</trkpt>
<trkpt lat="44.069487" lon="3.292418">
<ele>527.4</ele>
<time>2013-05-08T09:43:49.999Z</time>
</trkpt>
<trkpt lat="44.069713" lon="3.292485">
<ele>526.7</ele>
<time>2013-05-08T09:43:50.999Z</time>
</trkpt>
<trkpt lat="44.069939" lon="3.292585">
<ele>525.9</ele>
<time>2013-05-08T09:43:51.999Z</time>
</trkpt>
<trkpt lat="44.070159" lon="3.292694">
<ele>524.8</ele>
<time>2013-05-08T09:43:52.999Z</time>
</trkpt>
<trkpt lat="44.070357" lon="3.292837">
<ele>523.4</ele>
<time>2013-05-08T09:43:53.999Z</time>
</trkpt>
<trkpt lat="44.070535" lon="3.292989">
<ele>522.1</ele>
<time>2013-05-08T09:43:54.999Z</time>
</trkpt>
<trkpt lat="44.070683" lon="3.293134">
<ele>521.6</ele>
<time>2013-05-08T09:43:55.999Z</time>
</trkpt>
<trkpt lat="44.07081" lon="3.293238">
<ele>521.7</ele>
<time>2013-05-08T09:43:56.999Z</time>
</trkpt>
<trkpt lat="44.070924" lon="3.293324">
<ele>521.5</ele>
<time>2013-05-08T09:43:57.999Z</time>
</trkpt>
<trkpt lat="44.07102" lon="3.29336">
<ele>521.9</ele>
<time>2013-05-08T09:43:58.999Z</time>
</trkpt>
<trkpt lat="44.071126" lon="3.293279">
<ele>522.5</ele>
<time>2013-05-08T09:43:59.999Z</time>
</trkpt>
<trkpt lat="44.071242" lon="3.293172">
<ele>523.2</ele>
<time>2013-05-08T09:44:00.999Z</time>
</trkpt>
<trkpt lat="44.071301" lon="3.292953">
<ele>524.1</ele>
<time>2013-05-08T09:44:01.999Z</time>
</trkpt>
<trkpt lat="44.071354" lon="3.292727">
<ele>524.6</ele>
<time>2013-05-08T09:44:02.999Z</time>
</trkpt>
<trkpt lat="44.071374" lon="3.292487">
<ele>525</ele>
<time>2013-05-08T09:44:03.999Z</time>
</trkpt>
<trkpt lat="44.071389" lon="3.29225">
<ele>525.5</ele>
<time>2013-05-08T09:44:04.999Z</time>
</trkpt>
<trkpt lat="44.071364" lon="3.292005">
<ele>526.2</ele>
<time>2013-05-08T09:44:05.999Z</time>
</trkpt>
<trkpt lat="44.071319" lon="3.291729">
<ele>527.2</ele>
<time>2013-05-08T09:44:06.999Z</time>
</trkpt>
<trkpt lat="44.071273" lon="3.291452">
<ele>527.6</ele>
<time>2013-05-08T09:44:07.999Z</time>
</trkpt>
<trkpt lat="44.071223" lon="3.29118">
<ele>528.4</ele>
<time>2013-05-08T09:44:08.999Z</time>
</trkpt>
<trkpt lat="44.071159" lon="3.290911">
<ele>529.1</ele>
<time>2013-05-08T09:44:09.999Z</time>
</trkpt>
<trkpt lat="44.071104" lon="3.290625">
<ele>529.5</ele>
<time>2013-05-08T09:44:10.999Z</time>
</trkpt>
<trkpt lat="44.071074" lon="3.290336">
<ele>529.7</ele>
<time>2013-05-08T09:44:11.999Z</time>
</trkpt>
<trkpt lat="44.071066" lon="3.290063">
<ele>529.8</ele>
<time>2013-05-08T09:44:12.999Z</time>
</trkpt>
<trkpt lat="44.071076" lon="3.289796">
<ele>529.7</ele>
<time>2013-05-08T09:44:13.999Z</time>
</trkpt>
<trkpt lat="44.071136" lon="3.289562">
<ele>529.3</ele>
<time>2013-05-08T09:44:14.999Z</time>
</trkpt>
<trkpt lat="44.07122" lon="3.289337">
<ele>528.8</ele>
<time>2013-05-08T09:44:15.999Z</time>
</trkpt>
<trkpt lat="44.071328" lon="3.289116">
<ele>528.6</ele>
<time>2013-05-08T09:44:16.999Z</time>
</trkpt>
<trkpt lat="44.071439" lon="3.288895">
<ele>528</ele>
<time>2013-05-08T09:44:17.999Z</time>
</trkpt>
<trkpt lat="44.07156" lon="3.288696">
<ele>527.6</ele>
<time>2013-05-08T09:44:18.999Z</time>
</trkpt>
<trkpt lat="44.071688" lon="3.28853">
<ele>527.3</ele>
<time>2013-05-08T09:44:19.999Z</time>
</trkpt>
<trkpt lat="44.07181" lon="3.288386">
<ele>527</ele>
<time>2013-05-08T09:44:20.999Z</time>
</trkpt>
<trkpt lat="44.07194" lon="3.288252">
<ele>526.6</ele>
<time>2013-05-08T09:44:21.999Z</time>
</trkpt>
<trkpt lat="44.072067" lon="3.288115">
<ele>525.8</ele>
<time>2013-05-08T09:44:22.999Z</time>
</trkpt>
<trkpt lat="44.072202" lon="3.287978">
<ele>525.2</ele>
<time>2013-05-08T09:44:23.999Z</time>
</trkpt>
<trkpt lat="44.072342" lon="3.287834">
<ele>524.6</ele>
<time>2013-05-08T09:44:24.999Z</time>
</trkpt>
<trkpt lat="44.072485" lon="3.28767">
<ele>524.4</ele>
<time>2013-05-08T09:44:25.999Z</time>
</trkpt>
<trkpt lat="44.072633" lon="3.287485">
<ele>523.9</ele>
<time>2013-05-08T09:44:26.999Z</time>
</trkpt>
<trkpt lat="44.072789" lon="3.287289">
<ele>523.5</ele>
<time>2013-05-08T09:44:27.999Z</time>
</trkpt>
<trkpt lat="44.072939" lon="3.287083">
<ele>522.9</ele>
<time>2013-05-08T09:44:28.999Z</time>
</trkpt>
<trkpt lat="44.073085" lon="3.286867">
<ele>522.2</ele>
<time>2013-05-08T09:44:29.999Z</time>
</trkpt>
<trkpt lat="44.073218" lon="3.28664">
<ele>521.6</ele>
<time>2013-05-08T09:44:30.999Z</time>
</trkpt>
<trkpt lat="44.073341" lon="3.286401">
<ele>521</ele>
<time>2013-05-08T09:44:31.999Z</time>
</trkpt>
<trkpt lat="44.073458" lon="3.28616">
<ele>520</ele>
<time>2013-05-08T09:44:32.999Z</time>
</trkpt>
<trkpt lat="44.073571" lon="3.285914">
<ele>519</ele>
<time>2013-05-08T09:44:33.999Z</time>
</trkpt>
<trkpt lat="44.073682" lon="3.285681">
<ele>518</ele>
<time>2013-05-08T09:44:34.999Z</time>
</trkpt>
<trkpt lat="44.073796" lon="3.28547">
<ele>517.2</ele>
<time>2013-05-08T09:44:35.999Z</time>
</trkpt>
<trkpt lat="44.073922" lon="3.285286">
<ele>516.7</ele>
<time>2013-05-08T09:44:36.999Z</time>
</trkpt>
<trkpt lat="44.074071" lon="3.285143">
<ele>516.2</ele>
<time>2013-05-08T09:44:37.999Z</time>
</trkpt>
<trkpt lat="44.074228" lon="3.285036">
<ele>515.4</ele>
<time>2013-05-08T09:44:38.999Z</time>
</trkpt>
<trkpt lat="44.074372" lon="3.284939">
<ele>514.5</ele>
<time>2013-05-08T09:44:39.999Z</time>
</trkpt>
<trkpt lat="44.074541" lon="3.284971">
<ele>513.6</ele>
<time>2013-05-08T09:44:40.999Z</time>
</trkpt>
<trkpt lat="44.074711" lon="3.285031">
<ele>512.4</ele>
<time>2013-05-08T09:44:41.999Z</time>
</trkpt>
<trkpt lat="44.074876" lon="3.28509">
<ele>511.9</ele>
<time>2013-05-08T09:44:42.999Z</time>
</trkpt>
<trkpt lat="44.075031" lon="3.285136">
<ele>511</ele>
<time>2013-05-08T09:44:43.999Z</time>
</trkpt>
<trkpt lat="44.075192" lon="3.28513">
<ele>510.1</ele>
<time>2013-05-08T09:44:44.999Z</time>
</trkpt>
<trkpt lat="44.075365" lon="3.28498">
<ele>509.5</ele>
<time>2013-05-08T09:44:45.999Z</time>
</trkpt>
<trkpt lat="44.075541" lon="3.284831">
<ele>509.3</ele>
<time>2013-05-08T09:44:46.999Z</time>
</trkpt>
<trkpt lat="44.07574" lon="3.284665">
<ele>509.2</ele>
<time>2013-05-08T09:44:47.999Z</time>
</trkpt>
<trkpt lat="44.075957" lon="3.284468">
<ele>508.8</ele>
<time>2013-05-08T09:44:48.999Z</time>
</trkpt>
<trkpt lat="44.076156" lon="3.284245">
<ele>508.6</ele>
<time>2013-05-08T09:44:49.999Z</time>
</trkpt>
<trkpt lat="44.076336" lon="3.284023">
<ele>508.6</ele>
<time>2013-05-08T09:44:50.999Z</time>
</trkpt>
<trkpt lat="44.076487" lon="3.283781">
<ele>508.6</ele>
<time>2013-05-08T09:44:51.999Z</time>
</trkpt>
<trkpt lat="44.076611" lon="3.283526">
<ele>508.5</ele>
<time>2013-05-08T09:44:52.999Z</time>
</trkpt>
<trkpt lat="44.076716" lon="3.283259">
<ele>509.1</ele>
<time>2013-05-08T09:44:53.999Z</time>
</trkpt>
<trkpt lat="44.076808" lon="3.282977">
<ele>509.3</ele>
<time>2013-05-08T09:44:54.999Z</time>
</trkpt>
<trkpt lat="44.076883" lon="3.282667">
<ele>509.7</ele>
<time>2013-05-08T09:44:55.999Z</time>
</trkpt>
<trkpt lat="44.076943" lon="3.282347">
<ele>509.9</ele>
<time>2013-05-08T09:44:56.999Z</time>
</trkpt>
<trkpt lat="44.077" lon="3.282039">
<ele>509.1</ele>
<time>2013-05-08T09:44:57.999Z</time>
</trkpt>
<trkpt lat="44.077062" lon="3.281745">
<ele>507.9</ele>
<time>2013-05-08T09:44:58.999Z</time>
</trkpt>
<trkpt lat="44.077146" lon="3.281468">
<ele>506.8</ele>
<time>2013-05-08T09:44:59.999Z</time>
</trkpt>
<trkpt lat="44.077262" lon="3.281219">
<ele>505.7</ele>
<time>2013-05-08T09:45:00.999Z</time>
</trkpt>
<trkpt lat="44.077394" lon="3.280989">
<ele>504.6</ele>
<time>2013-05-08T09:45:01.999Z</time>
</trkpt>
<trkpt lat="44.077533" lon="3.280769">
<ele>503.6</ele>
<time>2013-05-08T09:45:02.999Z</time>
</trkpt>
<trkpt lat="44.077698" lon="3.280579">
<ele>502.7</ele>
<time>2013-05-08T09:45:03.999Z</time>
</trkpt>
<trkpt lat="44.077868" lon="3.2804">
<ele>502.1</ele>
<time>2013-05-08T09:45:04.999Z</time>
</trkpt>
<trkpt lat="44.078047" lon="3.280252">
<ele>501.9</ele>
<time>2013-05-08T09:45:05.999Z</time>
</trkpt>
<trkpt lat="44.078228" lon="3.280161">
<ele>501.3</ele>
<time>2013-05-08T09:45:06.999Z</time>
</trkpt>
<trkpt lat="44.078421" lon="3.280126">
<ele>500.5</ele>
<time>2013-05-08T09:45:07.999Z</time>
</trkpt>
<trkpt lat="44.078608" lon="3.28009">
<ele>499.5</ele>
<time>2013-05-08T09:45:08.999Z</time>
</trkpt>
<trkpt lat="44.078802" lon="3.280031">
<ele>499</ele>
<time>2013-05-08T09:45:09.999Z</time>
</trkpt>
<trkpt lat="44.079003" lon="3.279969">
<ele>498.8</ele>
<time>2013-05-08T09:45:10.999Z</time>
</trkpt>
<trkpt lat="44.079207" lon="3.279915">
<ele>499.2</ele>
<time>2013-05-08T09:45:11.999Z</time>
</trkpt>
<trkpt lat="44.079412" lon="3.279847">
<ele>500</ele>
<time>2013-05-08T09:45:12.999Z</time>
</trkpt>
<trkpt lat="44.079615" lon="3.279763">
<ele>500.8</ele>
<time>2013-05-08T09:45:13.999Z</time>
</trkpt>
<trkpt lat="44.079803" lon="3.279674">
<ele>501.3</ele>
<time>2013-05-08T09:45:14.999Z</time>
</trkpt>
<trkpt lat="44.079984" lon="3.279577">
<ele>501.6</ele>
<time>2013-05-08T09:45:15.999Z</time>
</trkpt>
<trkpt lat="44.080153" lon="3.279481">
<ele>501.7</ele>
<time>2013-05-08T09:45:16.999Z</time>
</trkpt>
<trkpt lat="44.080314" lon="3.279387">
<ele>501.6</ele>
<time>2013-05-08T09:45:17.999Z</time>
</trkpt>
<trkpt lat="44.080473" lon="3.279283">
<ele>501.7</ele>
<time>2013-05-08T09:45:18.999Z</time>
</trkpt>
<trkpt lat="44.080637" lon="3.279163">
<ele>501.7</ele>
<time>2013-05-08T09:45:19.999Z</time>
</trkpt>
<trkpt lat="44.0808" lon="3.279032">
<ele>502</ele>
<time>2013-05-08T09:45:20.999Z</time>
</trkpt>
<trkpt lat="44.080953" lon="3.278871">
<ele>502.6</ele>
<time>2013-05-08T09:45:21.999Z</time>
</trkpt>
<trkpt lat="44.081104" lon="3.278709">
<ele>503.2</ele>
<time>2013-05-08T09:45:22.999Z</time>
</trkpt>
<trkpt lat="44.08126" lon="3.278538">
<ele>503.9</ele>
<time>2013-05-08T09:45:23.999Z</time>
</trkpt>
<trkpt lat="44.081412" lon="3.278364">
<ele>504.6</ele>
<time>2013-05-08T09:45:24.999Z</time>
</trkpt>
<trkpt lat="44.081557" lon="3.27818">
<ele>505.6</ele>
<time>2013-05-08T09:45:25.999Z</time>
</trkpt>
<trkpt lat="44.081675" lon="3.277978">
<ele>506.1</ele>
<time>2013-05-08T09:45:26.999Z</time>
</trkpt>
<trkpt lat="44.081779" lon="3.277753">
<ele>506.4</ele>
<time>2013-05-08T09:45:27.999Z</time>
</trkpt>
<trkpt lat="44.081882" lon="3.277534">
<ele>506.7</ele>
<time>2013-05-08T09:45:28.999Z</time>
</trkpt>
<trkpt lat="44.081953" lon="3.277279">
<ele>506.6</ele>
<time>2013-05-08T09:45:29.999Z</time>
</trkpt>
<trkpt lat="44.082026" lon="3.277">
<ele>506.6</ele>
<time>2013-05-08T09:45:30.999Z</time>
</trkpt>
<trkpt lat="44.082111" lon="3.276731">
<ele>506.3</ele>
<time>2013-05-08T09:45:31.999Z</time>
</trkpt>
<trkpt lat="44.082195" lon="3.276487">
<ele>505.7</ele>
<time>2013-05-08T09:45:32.999Z</time>
</trkpt>
<trkpt lat="44.082275" lon="3.276258">
<ele>505</ele>
<time>2013-05-08T09:45:33.999Z</time>
</trkpt>
<trkpt lat="44.082362" lon="3.276039">
<ele>504.6</ele>
<time>2013-05-08T09:45:34.999Z</time>
</trkpt>
<trkpt lat="44.08247" lon="3.275833">
<ele>504.4</ele>
<time>2013-05-08T09:45:35.999Z</time>
</trkpt>
<trkpt lat="44.082603" lon="3.275655">
<ele>504.4</ele>
<time>2013-05-08T09:45:36.999Z</time>
</trkpt>
<trkpt lat="44.082743" lon="3.275494">
<ele>504.5</ele>
<time>2013-05-08T09:45:37.999Z</time>
</trkpt>
<trkpt lat="44.082906" lon="3.275347">
<ele>504.5</ele>
<time>2013-05-08T09:45:38.999Z</time>
</trkpt>
<trkpt lat="44.083075" lon="3.275215">
<ele>504.1</ele>
<time>2013-05-08T09:45:39.999Z</time>
</trkpt>
<trkpt lat="44.083252" lon="3.275105">
<ele>503.6</ele>
<time>2013-05-08T09:45:40.999Z</time>
</trkpt>
<trkpt lat="44.083434" lon="3.275003">
<ele>503.2</ele>
<time>2013-05-08T09:45:41.999Z</time>
</trkpt>
<trkpt lat="44.083623" lon="3.274909">
<ele>502.6</ele>
<time>2013-05-08T09:45:42.999Z</time>
</trkpt>
<trkpt lat="44.083819" lon="3.274828">
<ele>502.2</ele>
<time>2013-05-08T09:45:43.999Z</time>
</trkpt>
<trkpt lat="44.084015" lon="3.274751">
<ele>501.6</ele>
<time>2013-05-08T09:45:44.999Z</time>
</trkpt>
<trkpt lat="44.08421" lon="3.2747">
<ele>501.1</ele>
<time>2013-05-08T09:45:45.999Z</time>
</trkpt>
<trkpt lat="44.084405" lon="3.27468">
<ele>500.4</ele>
<time>2013-05-08T09:45:46.999Z</time>
</trkpt>
<trkpt lat="44.084602" lon="3.274674">
<ele>499.7</ele>
<time>2013-05-08T09:45:47.999Z</time>
</trkpt>
<trkpt lat="44.084795" lon="3.274686">
<ele>498.9</ele>
<time>2013-05-08T09:45:48.999Z</time>
</trkpt>
<trkpt lat="44.084971" lon="3.274735">
<ele>498.3</ele>
<time>2013-05-08T09:45:49.999Z</time>
</trkpt>
<trkpt lat="44.08514" lon="3.274815">
<ele>497.5</ele>
<time>2013-05-08T09:45:50.999Z</time>
</trkpt>
<trkpt lat="44.085308" lon="3.274907">
<ele>496.9</ele>
<time>2013-05-08T09:45:51.999Z</time>
</trkpt>
<trkpt lat="44.085476" lon="3.275012">
<ele>496.2</ele>
<time>2013-05-08T09:45:52.999Z</time>
</trkpt>
<trkpt lat="44.085638" lon="3.275124">
<ele>495.4</ele>
<time>2013-05-08T09:45:53.999Z</time>
</trkpt>
<trkpt lat="44.085793" lon="3.275243">
<ele>494.7</ele>
<time>2013-05-08T09:45:54.999Z</time>
</trkpt>
<trkpt lat="44.085927" lon="3.275408">
<ele>494.1</ele>
<time>2013-05-08T09:45:55.999Z</time>
</trkpt>
<trkpt lat="44.086055" lon="3.275576">
<ele>493.9</ele>
<time>2013-05-08T09:45:56.999Z</time>
</trkpt>
<trkpt lat="44.086187" lon="3.27574">
<ele>494</ele>
<time>2013-05-08T09:45:57.999Z</time>
</trkpt>
<trkpt lat="44.086311" lon="3.27591">
<ele>493.9</ele>
<time>2013-05-08T09:45:58.999Z</time>
</trkpt>
<trkpt lat="44.086431" lon="3.276073">
<ele>493.7</ele>
<time>2013-05-08T09:45:59.999Z</time>
</trkpt>
<trkpt lat="44.086539" lon="3.276224">
<ele>493.6</ele>
<time>2013-05-08T09:46:00.999Z</time>
</trkpt>
<trkpt lat="44.086635" lon="3.276359">
<ele>493.8</ele>
<time>2013-05-08T09:46:01.999Z</time>
</trkpt>
<trkpt lat="44.08673" lon="3.276452">
<ele>494.4</ele>
<time>2013-05-08T09:46:02.999Z</time>
</trkpt>
<trkpt lat="44.086826" lon="3.276498">
<ele>494.7</ele>
<time>2013-05-08T09:46:03.999Z</time>
</trkpt>
<trkpt lat="44.086927" lon="3.276475">
<ele>495.8</ele>
<time>2013-05-08T09:46:04.999Z</time>
</trkpt>
<trkpt lat="44.087018" lon="3.276394">
<ele>496.8</ele>
<time>2013-05-08T09:46:05.999Z</time>
</trkpt>
<trkpt lat="44.087102" lon="3.27631">
<ele>497.9</ele>
<time>2013-05-08T09:46:06.999Z</time>
</trkpt>
<trkpt lat="44.08719" lon="3.276178">
<ele>499</ele>
<time>2013-05-08T09:46:07.999Z</time>
</trkpt>
<trkpt lat="44.087266" lon="3.275957">
<ele>500.1</ele>
<time>2013-05-08T09:46:08.999Z</time>
</trkpt>
<trkpt lat="44.087344" lon="3.275735">
<ele>501.2</ele>
<time>2013-05-08T09:46:09.999Z</time>
</trkpt>
<trkpt lat="44.087419" lon="3.275511">
<ele>502.2</ele>
<time>2013-05-08T09:46:10.999Z</time>
</trkpt>
<trkpt lat="44.087491" lon="3.275279">
<ele>502.9</ele>
<time>2013-05-08T09:46:11.999Z</time>
</trkpt>
<trkpt lat="44.087552" lon="3.275045">
<ele>502.9</ele>
<time>2013-05-08T09:46:12.999Z</time>
</trkpt>
<trkpt lat="44.087579" lon="3.274776">
<ele>503</ele>
<time>2013-05-08T09:46:13.999Z</time>
</trkpt>
<trkpt lat="44.087593" lon="3.274501">
<ele>502.9</ele>
<time>2013-05-08T09:46:14.999Z</time>
</trkpt>
<trkpt lat="44.087596" lon="3.274226">
<ele>502.4</ele>
<time>2013-05-08T09:46:15.999Z</time>
</trkpt>
<trkpt lat="44.087592" lon="3.273949">
<ele>501.8</ele>
<time>2013-05-08T09:46:16.999Z</time>
</trkpt>
<trkpt lat="44.087579" lon="3.273668">
<ele>500.8</ele>
<time>2013-05-08T09:46:17.999Z</time>
</trkpt>
<trkpt lat="44.087554" lon="3.273391">
<ele>500</ele>
<time>2013-05-08T09:46:18.999Z</time>
</trkpt>
<trkpt lat="44.087516" lon="3.273114">
<ele>499</ele>
<time>2013-05-08T09:46:19.999Z</time>
</trkpt>
<trkpt lat="44.087475" lon="3.272835">
<ele>498.2</ele>
<time>2013-05-08T09:46:20.999Z</time>
</trkpt>
<trkpt lat="44.087437" lon="3.272557">
<ele>497.7</ele>
<time>2013-05-08T09:46:21.999Z</time>
</trkpt>
<trkpt lat="44.087396" lon="3.272288">
<ele>497.2</ele>
<time>2013-05-08T09:46:22.999Z</time>
</trkpt>
<trkpt lat="44.087351" lon="3.272032">
<ele>496.5</ele>
<time>2013-05-08T09:46:23.999Z</time>
</trkpt>
<trkpt lat="44.087313" lon="3.271775">
<ele>495.8</ele>
<time>2013-05-08T09:46:24.999Z</time>
</trkpt>
<trkpt lat="44.087275" lon="3.271515">
<ele>495.1</ele>
<time>2013-05-08T09:46:25.999Z</time>
</trkpt>
<trkpt lat="44.087246" lon="3.271258">
<ele>494.8</ele>
<time>2013-05-08T09:46:26.999Z</time>
</trkpt>
<trkpt lat="44.087222" lon="3.271008">
<ele>494.2</ele>
<time>2013-05-08T09:46:27.999Z</time>
</trkpt>
<trkpt lat="44.087218" lon="3.270757">
<ele>493.4</ele>
<time>2013-05-08T09:46:28.999Z</time>
</trkpt>
<trkpt lat="44.087238" lon="3.270506">
<ele>492.6</ele>
<time>2013-05-08T09:46:29.999Z</time>
</trkpt>
<trkpt lat="44.087275" lon="3.270245">
<ele>491.7</ele>
<time>2013-05-08T09:46:30.999Z</time>
</trkpt>
<trkpt lat="44.08731" lon="3.269973">
<ele>491.1</ele>
<time>2013-05-08T09:46:31.999Z</time>
</trkpt>
<trkpt lat="44.087342" lon="3.269693">
<ele>490.4</ele>
<time>2013-05-08T09:46:32.999Z</time>
</trkpt>
<trkpt lat="44.087378" lon="3.269407">
<ele>489.4</ele>
<time>2013-05-08T09:46:33.999Z</time>
</trkpt>
<trkpt lat="44.087429" lon="3.269128">
<ele>488.4</ele>
<time>2013-05-08T09:46:34.999Z</time>
</trkpt>
<trkpt lat="44.087501" lon="3.268856">
<ele>488.1</ele>
<time>2013-05-08T09:46:35.999Z</time>
</trkpt>
<trkpt lat="44.087579" lon="3.268597">
<ele>487.7</ele>
<time>2013-05-08T09:46:36.999Z</time>
</trkpt>
<trkpt lat="44.087681" lon="3.268353">
<ele>487.3</ele>
<time>2013-05-08T09:46:37.999Z</time>
</trkpt>
<trkpt lat="44.087789" lon="3.268101">
<ele>487.5</ele>
<time>2013-05-08T09:46:38.999Z</time>
</trkpt>
<trkpt lat="44.087895" lon="3.267846">
<ele>487.8</ele>
<time>2013-05-08T09:46:39.999Z</time>
</trkpt>
<trkpt lat="44.088007" lon="3.267591">
<ele>488</ele>
<time>2013-05-08T09:46:40.999Z</time>
</trkpt>
<trkpt lat="44.088129" lon="3.267335">
<ele>487.9</ele>
<time>2013-05-08T09:46:41.999Z</time>
</trkpt>
<trkpt lat="44.088265" lon="3.267083">
<ele>488.3</ele>
<time>2013-05-08T09:46:42.999Z</time>
</trkpt>
<trkpt lat="44.088397" lon="3.266833">
<ele>488.6</ele>
<time>2013-05-08T09:46:43.999Z</time>
</trkpt>
<trkpt lat="44.088536" lon="3.2666">
<ele>489</ele>
<time>2013-05-08T09:46:44.999Z</time>
</trkpt>
<trkpt lat="44.088676" lon="3.266386">
<ele>489.7</ele>
<time>2013-05-08T09:46:45.999Z</time>
</trkpt>
<trkpt lat="44.088816" lon="3.266188">
<ele>490.3</ele>
<time>2013-05-08T09:46:46.999Z</time>
</trkpt>
<trkpt lat="44.08896" lon="3.266015">
<ele>490.9</ele>
<time>2013-05-08T09:46:47.999Z</time>
</trkpt>
<trkpt lat="44.089105" lon="3.265853">
<ele>491.5</ele>
<time>2013-05-08T09:46:48.999Z</time>
</trkpt>
<trkpt lat="44.089252" lon="3.265689">
<ele>492</ele>
<time>2013-05-08T09:46:49.999Z</time>
</trkpt>
<trkpt lat="44.089401" lon="3.265528">
<ele>492.1</ele>
<time>2013-05-08T09:46:50.999Z</time>
</trkpt>
<trkpt lat="44.08955" lon="3.265369">
<ele>491.7</ele>
<time>2013-05-08T09:46:51.999Z</time>
</trkpt>
<trkpt lat="44.089704" lon="3.265215">
<ele>490.8</ele>
<time>2013-05-08T09:46:52.999Z</time>
</trkpt>
<trkpt lat="44.089854" lon="3.265063">
<ele>489.6</ele>
<time>2013-05-08T09:46:53.999Z</time>
</trkpt>
<trkpt lat="44.090001" lon="3.264911">
<ele>488.7</ele>
<time>2013-05-08T09:46:54.999Z</time>
</trkpt>
<trkpt lat="44.090145" lon="3.264766">
<ele>487.9</ele>
<time>2013-05-08T09:46:55.999Z</time>
</trkpt>
<trkpt lat="44.090285" lon="3.264625">
<ele>487</ele>
<time>2013-05-08T09:46:56.999Z</time>
</trkpt>
<trkpt lat="44.090426" lon="3.264485">
<ele>486.2</ele>
<time>2013-05-08T09:46:57.999Z</time>
</trkpt>
<trkpt lat="44.090569" lon="3.264343">
<ele>485.7</ele>
<time>2013-05-08T09:46:58.999Z</time>
</trkpt>
<trkpt lat="44.09071" lon="3.264195">
<ele>485.6</ele>
<time>2013-05-08T09:46:59.999Z</time>
</trkpt>
<trkpt lat="44.090849" lon="3.264032">
<ele>485.6</ele>
<time>2013-05-08T09:47:00.999Z</time>
</trkpt>
<trkpt lat="44.09099" lon="3.263855">
<ele>485.8</ele>
<time>2013-05-08T09:47:01.999Z</time>
</trkpt>
<trkpt lat="44.091121" lon="3.263678">
<ele>486</ele>
<time>2013-05-08T09:47:02.999Z</time>
</trkpt>
<trkpt lat="44.09126" lon="3.263523">
<ele>486.2</ele>
<time>2013-05-08T09:47:03.999Z</time>
</trkpt>
<trkpt lat="44.091406" lon="3.263393">
<ele>486.2</ele>
<time>2013-05-08T09:47:04.999Z</time>
</trkpt>
<trkpt lat="44.091547" lon="3.263262">
<ele>486.5</ele>
<time>2013-05-08T09:47:05.999Z</time>
</trkpt>
<trkpt lat="44.091688" lon="3.263124">
<ele>486.9</ele>
<time>2013-05-08T09:47:06.999Z</time>
</trkpt>
<trkpt lat="44.091801" lon="3.262934">
<ele>487</ele>
<time>2013-05-08T09:47:07.999Z</time>
</trkpt>
<trkpt lat="44.091924" lon="3.262736">
<ele>486.9</ele>
<time>2013-05-08T09:47:08.999Z</time>
</trkpt>
<trkpt lat="44.092054" lon="3.262545">
<ele>486.6</ele>
<time>2013-05-08T09:47:09.999Z</time>
</trkpt>
<trkpt lat="44.092211" lon="3.262372">
<ele>486.6</ele>
<time>2013-05-08T09:47:10.999Z</time>
</trkpt>
<trkpt lat="44.092367" lon="3.262201">
<ele>486.9</ele>
<time>2013-05-08T09:47:11.999Z</time>
</trkpt>
<trkpt lat="44.092528" lon="3.262031">
<ele>487.3</ele>
<time>2013-05-08T09:47:12.999Z</time>
</trkpt>
<trkpt lat="44.092685" lon="3.261865">
<ele>487.6</ele>
<time>2013-05-08T09:47:13.999Z</time>
</trkpt>
<trkpt lat="44.092831" lon="3.261701">
<ele>487.6</ele>
<time>2013-05-08T09:47:14.999Z</time>
</trkpt>
<trkpt lat="44.092968" lon="3.261548">
<ele>487.5</ele>
<time>2013-05-08T09:47:15.999Z</time>
</trkpt>
<trkpt lat="44.093108" lon="3.261429">
<ele>487.5</ele>
<time>2013-05-08T09:47:16.999Z</time>
</trkpt>
<trkpt lat="44.093252" lon="3.261336">
<ele>487.3</ele>
<time>2013-05-08T09:47:17.999Z</time>
</trkpt>
<trkpt lat="44.093412" lon="3.261321">
<ele>486.9</ele>
<time>2013-05-08T09:47:18.999Z</time>
</trkpt>
<trkpt lat="44.093574" lon="3.26133">
<ele>486.4</ele>
<time>2013-05-08T09:47:19.999Z</time>
</trkpt>
<trkpt lat="44.093739" lon="3.261412">
<ele>486</ele>
<time>2013-05-08T09:47:20.999Z</time>
</trkpt>
<trkpt lat="44.093905" lon="3.261511">
<ele>485.4</ele>
<time>2013-05-08T09:47:21.999Z</time>
</trkpt>
<trkpt lat="44.09407" lon="3.261629">
<ele>484.8</ele>
<time>2013-05-08T09:47:22.999Z</time>
</trkpt>
<trkpt lat="44.094216" lon="3.261779">
<ele>484.5</ele>
<time>2013-05-08T09:47:23.999Z</time>
</trkpt>
<trkpt lat="44.094345" lon="3.261927">
<ele>484.3</ele>
<time>2013-05-08T09:47:24.999Z</time>
</trkpt>
<trkpt lat="44.09447" lon="3.262098">
<ele>484.2</ele>
<time>2013-05-08T09:47:25.999Z</time>
</trkpt>
<trkpt lat="44.09456" lon="3.262339">
<ele>484</ele>
<time>2013-05-08T09:47:26.999Z</time>
</trkpt>
<trkpt lat="44.094649" lon="3.262609">
<ele>483.8</ele>
<time>2013-05-08T09:47:27.999Z</time>
</trkpt>
<trkpt lat="44.094726" lon="3.262908">
<ele>483.3</ele>
<time>2013-05-08T09:47:28.999Z</time>
</trkpt>
<trkpt lat="44.094785" lon="3.263214">
<ele>483.2</ele>
<time>2013-05-08T09:47:29.999Z</time>
</trkpt>
<trkpt lat="44.094834" lon="3.263519">
<ele>483.3</ele>
<time>2013-05-08T09:47:30.999Z</time>
</trkpt>
<trkpt lat="44.094893" lon="3.263825">
<ele>484</ele>
<time>2013-05-08T09:47:31.999Z</time>
</trkpt>
<trkpt lat="44.09494" lon="3.264127">
<ele>484.6</ele>
<time>2013-05-08T09:47:32.999Z</time>
</trkpt>
<trkpt lat="44.094992" lon="3.264432">
<ele>485</ele>
<time>2013-05-08T09:47:33.999Z</time>
</trkpt>
<trkpt lat="44.095049" lon="3.264744">
<ele>485.2</ele>
<time>2013-05-08T09:47:34.999Z</time>
</trkpt>
<trkpt lat="44.095104" lon="3.265075">
<ele>485.2</ele>
<time>2013-05-08T09:47:35.999Z</time>
</trkpt>
<trkpt lat="44.095147" lon="3.265423">
<ele>485.2</ele>
<time>2013-05-08T09:47:36.999Z</time>
</trkpt>
<trkpt lat="44.095194" lon="3.265765">
<ele>485.2</ele>
<time>2013-05-08T09:47:37.999Z</time>
</trkpt>
<trkpt lat="44.095249" lon="3.266096">
<ele>485.2</ele>
<time>2013-05-08T09:47:38.999Z</time>
</trkpt>
<trkpt lat="44.095309" lon="3.266407">
<ele>485.1</ele>
<time>2013-05-08T09:47:39.999Z</time>
</trkpt>
<trkpt lat="44.095354" lon="3.266712">
<ele>485.2</ele>
<time>2013-05-08T09:47:40.999Z</time>
</trkpt>
<trkpt lat="44.095386" lon="3.267002">
<ele>485.1</ele>
<time>2013-05-08T09:47:41.999Z</time>
</trkpt>
<trkpt lat="44.09541" lon="3.267279">
<ele>485</ele>
<time>2013-05-08T09:47:42.999Z</time>
</trkpt>
<trkpt lat="44.095433" lon="3.267547">
<ele>484.8</ele>
<time>2013-05-08T09:47:43.999Z</time>
</trkpt>
<trkpt lat="44.095465" lon="3.267813">
<ele>484.6</ele>
<time>2013-05-08T09:47:44.999Z</time>
</trkpt>
<trkpt lat="44.095532" lon="3.268082">
<ele>483.8</ele>
<time>2013-05-08T09:47:45.999Z</time>
</trkpt>
<trkpt lat="44.095603" lon="3.268334">
<ele>482.9</ele>
<time>2013-05-08T09:47:46.999Z</time>
</trkpt>
<trkpt lat="44.095738" lon="3.26856">
<ele>482.1</ele>
<time>2013-05-08T09:47:47.999Z</time>
</trkpt>
<trkpt lat="44.095903" lon="3.268755">
<ele>481.4</ele>
<time>2013-05-08T09:47:48.999Z</time>
</trkpt>
<trkpt lat="44.096086" lon="3.26892">
<ele>481.1</ele>
<time>2013-05-08T09:47:49.999Z</time>
</trkpt>
<trkpt lat="44.096286" lon="3.269058">
<ele>480.6</ele>
<time>2013-05-08T09:47:50.999Z</time>
</trkpt>
<trkpt lat="44.096513" lon="3.269169">
<ele>480.6</ele>
<time>2013-05-08T09:47:51.999Z</time>
</trkpt>
<trkpt lat="44.096739" lon="3.269263">
<ele>480.9</ele>
<time>2013-05-08T09:47:52.999Z</time>
</trkpt>
<trkpt lat="44.096954" lon="3.269317">
<ele>481.7</ele>
<time>2013-05-08T09:47:53.999Z</time>
</trkpt>
<trkpt lat="44.097146" lon="3.269321">
<ele>482.8</ele>
<time>2013-05-08T09:47:54.999Z</time>
</trkpt>
<trkpt lat="44.097323" lon="3.269265">
<ele>483.6</ele>
<time>2013-05-08T09:47:55.999Z</time>
</trkpt>
<trkpt lat="44.097503" lon="3.269176">
<ele>484.2</ele>
<time>2013-05-08T09:47:56.999Z</time>
</trkpt>
<trkpt lat="44.097685" lon="3.269069">
<ele>484.5</ele>
<time>2013-05-08T09:47:57.999Z</time>
</trkpt>
<trkpt lat="44.097876" lon="3.268955">
<ele>484.1</ele>
<time>2013-05-08T09:47:58.999Z</time>
</trkpt>
<trkpt lat="44.098065" lon="3.268842">
<ele>483.9</ele>
<time>2013-05-08T09:47:59.999Z</time>
</trkpt>
<trkpt lat="44.098247" lon="3.268714">
<ele>483.6</ele>
<time>2013-05-08T09:48:00.999Z</time>
</trkpt>
<trkpt lat="44.098421" lon="3.26855">
<ele>483.4</ele>
<time>2013-05-08T09:48:01.999Z</time>
</trkpt>
<trkpt lat="44.098581" lon="3.268361">
<ele>483.1</ele>
<time>2013-05-08T09:48:02.999Z</time>
</trkpt>
<trkpt lat="44.098734" lon="3.268137">
<ele>482.7</ele>
<time>2013-05-08T09:48:03.999Z</time>
</trkpt>
<trkpt lat="44.098883" lon="3.267886">
<ele>482.4</ele>
<time>2013-05-08T09:48:04.999Z</time>
</trkpt>
<trkpt lat="44.099023" lon="3.267614">
<ele>482.1</ele>
<time>2013-05-08T09:48:05.999Z</time>
</trkpt>
<trkpt lat="44.099155" lon="3.267335">
<ele>482.1</ele>
<time>2013-05-08T09:48:06.999Z</time>
</trkpt>
<trkpt lat="44.099286" lon="3.26706">
<ele>482.4</ele>
<time>2013-05-08T09:48:07.999Z</time>
</trkpt>
<trkpt lat="44.099412" lon="3.266801">
<ele>482.8</ele>
<time>2013-05-08T09:48:08.999Z</time>
</trkpt>
<trkpt lat="44.099532" lon="3.266537">
<ele>482.9</ele>
<time>2013-05-08T09:48:09.999Z</time>
</trkpt>
<trkpt lat="44.099632" lon="3.266267">
<ele>483.2</ele>
<time>2013-05-08T09:48:10.999Z</time>
</trkpt>
<trkpt lat="44.099711" lon="3.265985">
<ele>483.3</ele>
<time>2013-05-08T09:48:11.999Z</time>
</trkpt>
<trkpt lat="44.09979" lon="3.265686">
<ele>483.8</ele>
<time>2013-05-08T09:48:12.999Z</time>
</trkpt>
<trkpt lat="44.099863" lon="3.265378">
<ele>484.5</ele>
<time>2013-05-08T09:48:13.999Z</time>
</trkpt>
<trkpt lat="44.099932" lon="3.265066">
<ele>485.2</ele>
<time>2013-05-08T09:48:14.999Z</time>
</trkpt>
<trkpt lat="44.099994" lon="3.264752">
<ele>485.5</ele>
<time>2013-05-08T09:48:15.999Z</time>
</trkpt>
<trkpt lat="44.100056" lon="3.264444">
<ele>485.4</ele>
<time>2013-05-08T09:48:16.999Z</time>
</trkpt>
<trkpt lat="44.100115" lon="3.264144">
<ele>485</ele>
<time>2013-05-08T09:48:17.999Z</time>
</trkpt>
<trkpt lat="44.10018" lon="3.263845">
<ele>484.2</ele>
<time>2013-05-08T09:48:18.999Z</time>
</trkpt>
<trkpt lat="44.100266" lon="3.263558">
<ele>483.2</ele>
<time>2013-05-08T09:48:19.999Z</time>
</trkpt>
<trkpt lat="44.100374" lon="3.263291">
<ele>482.4</ele>
<time>2013-05-08T09:48:20.999Z</time>
</trkpt>
<trkpt lat="44.100478" lon="3.263034">
<ele>481.7</ele>
<time>2013-05-08T09:48:21.999Z</time>
</trkpt>
<trkpt lat="44.100583" lon="3.262789">
<ele>481.1</ele>
<time>2013-05-08T09:48:22.999Z</time>
</trkpt>
<trkpt lat="44.100683" lon="3.26257">
<ele>480.7</ele>
<time>2013-05-08T09:48:23.999Z</time>
</trkpt>
<trkpt lat="44.100794" lon="3.262387">
<ele>480.5</ele>
<time>2013-05-08T09:48:24.999Z</time>
</trkpt>
<trkpt lat="44.10091" lon="3.262244">
<ele>480.6</ele>
<time>2013-05-08T09:48:25.999Z</time>
</trkpt>
<trkpt lat="44.101037" lon="3.262117">
<ele>480.4</ele>
<time>2013-05-08T09:48:26.999Z</time>
</trkpt>
<trkpt lat="44.101186" lon="3.262005">
<ele>479.8</ele>
<time>2013-05-08T09:48:27.999Z</time>
</trkpt>
<trkpt lat="44.10134" lon="3.261896">
<ele>479.2</ele>
<time>2013-05-08T09:48:28.999Z</time>
</trkpt>
<trkpt lat="44.101499" lon="3.261795">
<ele>478.5</ele>
<time>2013-05-08T09:48:29.999Z</time>
</trkpt>
<trkpt lat="44.101658" lon="3.261712">
<ele>477.5</ele>
<time>2013-05-08T09:48:30.999Z</time>
</trkpt>
<trkpt lat="44.101828" lon="3.261678">
<ele>476.9</ele>
<time>2013-05-08T09:48:31.999Z</time>
</trkpt>
<trkpt lat="44.101998" lon="3.261649">
<ele>476.3</ele>
<time>2013-05-08T09:48:32.999Z</time>
</trkpt>
<trkpt lat="44.102171" lon="3.261627">
<ele>475.7</ele>
<time>2013-05-08T09:48:33.999Z</time>
</trkpt>
<trkpt lat="44.102348" lon="3.26161">
<ele>475.5</ele>
<time>2013-05-08T09:48:34.999Z</time>
</trkpt>
<trkpt lat="44.102524" lon="3.261603">
<ele>475.3</ele>
<time>2013-05-08T09:48:35.999Z</time>
</trkpt>
<trkpt lat="44.102696" lon="3.261605">
<ele>475</ele>
<time>2013-05-08T09:48:36.999Z</time>
</trkpt>
<trkpt lat="44.102865" lon="3.261614">
<ele>474.8</ele>
<time>2013-05-08T09:48:37.999Z</time>
</trkpt>
<trkpt lat="44.103039" lon="3.261627">
<ele>474.5</ele>
<time>2013-05-08T09:48:38.999Z</time>
</trkpt>
<trkpt lat="44.103218" lon="3.261648">
<ele>474</ele>
<time>2013-05-08T09:48:39.999Z</time>
</trkpt>
<trkpt lat="44.103402" lon="3.261681">
<ele>473.7</ele>
<time>2013-05-08T09:48:40.999Z</time>
</trkpt>
<trkpt lat="44.103583" lon="3.261727">
<ele>473.4</ele>
<time>2013-05-08T09:48:41.999Z</time>
</trkpt>
<trkpt lat="44.103759" lon="3.261782">
<ele>473.2</ele>
<time>2013-05-08T09:48:42.999Z</time>
</trkpt>
<trkpt lat="44.103925" lon="3.261863">
<ele>473</ele>
<time>2013-05-08T09:48:43.999Z</time>
</trkpt>
<trkpt lat="44.104097" lon="3.261953">
<ele>472.8</ele>
<time>2013-05-08T09:48:44.999Z</time>
</trkpt>
<trkpt lat="44.104257" lon="3.262076">
<ele>472.4</ele>
<time>2013-05-08T09:48:45.999Z</time>
</trkpt>
<trkpt lat="44.104401" lon="3.262215">
<ele>472.1</ele>
<time>2013-05-08T09:48:46.999Z</time>
</trkpt>
<trkpt lat="44.104528" lon="3.262381">
<ele>471.7</ele>
<time>2013-05-08T09:48:47.999Z</time>
</trkpt>
<trkpt lat="44.104652" lon="3.26255">
<ele>471</ele>
<time>2013-05-08T09:48:48.999Z</time>
</trkpt>
<trkpt lat="44.104775" lon="3.262712">
<ele>470.3</ele>
<time>2013-05-08T09:48:49.999Z</time>
</trkpt>
<trkpt lat="44.104889" lon="3.262867">
<ele>469.8</ele>
<time>2013-05-08T09:48:50.999Z</time>
</trkpt>
<trkpt lat="44.104995" lon="3.263011">
<ele>469.4</ele>
<time>2013-05-08T09:48:51.999Z</time>
</trkpt>
<trkpt lat="44.105095" lon="3.263128">
<ele>469.4</ele>
<time>2013-05-08T09:48:52.999Z</time>
</trkpt>
<trkpt lat="44.105206" lon="3.263199">
<ele>469.9</ele>
<time>2013-05-08T09:48:53.999Z</time>
</trkpt>
<trkpt lat="44.105321" lon="3.263214">
<ele>470.1</ele>
<time>2013-05-08T09:48:54.999Z</time>
</trkpt>
<trkpt lat="44.105429" lon="3.263159">
<ele>470.5</ele>
<time>2013-05-08T09:48:55.999Z</time>
</trkpt>
<trkpt lat="44.105526" lon="3.263104">
<ele>471.7</ele>
<time>2013-05-08T09:48:56.999Z</time>
</trkpt>
<trkpt lat="44.105621" lon="3.262967">
<ele>473.3</ele>
<time>2013-05-08T09:48:57.999Z</time>
</trkpt>
<trkpt lat="44.105739" lon="3.262807">
<ele>474.6</ele>
<time>2013-05-08T09:48:58.999Z</time>
</trkpt>
<trkpt lat="44.105862" lon="3.262638">
<ele>475.9</ele>
<time>2013-05-08T09:48:59.999Z</time>
</trkpt>
<trkpt lat="44.105986" lon="3.262477">
<ele>476.9</ele>
<time>2013-05-08T09:49:00.999Z</time>
</trkpt>
<trkpt lat="44.106097" lon="3.262313">
<ele>477.8</ele>
<time>2013-05-08T09:49:01.999Z</time>
</trkpt>
<trkpt lat="44.106181" lon="3.262119">
<ele>478.9</ele>
<time>2013-05-08T09:49:02.999Z</time>
</trkpt>
<trkpt lat="44.106264" lon="3.26193">
<ele>480</ele>
<time>2013-05-08T09:49:03.999Z</time>
</trkpt>
<trkpt lat="44.106344" lon="3.261741">
<ele>480.9</ele>
<time>2013-05-08T09:49:04.999Z</time>
</trkpt>
<trkpt lat="44.106425" lon="3.261567">
<ele>481.6</ele>
<time>2013-05-08T09:49:05.999Z</time>
</trkpt>
<trkpt lat="44.106507" lon="3.26141">
<ele>482</ele>
<time>2013-05-08T09:49:06.999Z</time>
</trkpt>
<trkpt lat="44.106589" lon="3.261254">
<ele>482.5</ele>
<time>2013-05-08T09:49:07.999Z</time>
</trkpt>
<trkpt lat="44.10667" lon="3.261081">
<ele>483</ele>
<time>2013-05-08T09:49:08.999Z</time>
</trkpt>
<trkpt lat="44.106754" lon="3.26089">
<ele>483.3</ele>
<time>2013-05-08T09:49:09.999Z</time>
</trkpt>
<trkpt lat="44.10684" lon="3.260696">
<ele>483.4</ele>
<time>2013-05-08T09:49:10.999Z</time>
</trkpt>
<trkpt lat="44.106925" lon="3.260502">
<ele>483.5</ele>
<time>2013-05-08T09:49:11.999Z</time>
</trkpt>
<trkpt lat="44.107022" lon="3.260315">
<ele>483.4</ele>
<time>2013-05-08T09:49:12.999Z</time>
</trkpt>
<trkpt lat="44.107124" lon="3.260136">
<ele>483.5</ele>
<time>2013-05-08T09:49:13.999Z</time>
</trkpt>
<trkpt lat="44.107227" lon="3.259953">
<ele>483.6</ele>
<time>2013-05-08T09:49:14.999Z</time>
</trkpt>
<trkpt lat="44.107327" lon="3.259759">
<ele>483.5</ele>
<time>2013-05-08T09:49:15.999Z</time>
</trkpt>
<trkpt lat="44.107427" lon="3.259555">
<ele>483.5</ele>
<time>2013-05-08T09:49:16.999Z</time>
</trkpt>
<trkpt lat="44.107535" lon="3.259342">
<ele>483.8</ele>
<time>2013-05-08T09:49:17.999Z</time>
</trkpt>
<trkpt lat="44.107662" lon="3.259153">
<ele>484</ele>
<time>2013-05-08T09:49:18.999Z</time>
</trkpt>
<trkpt lat="44.107806" lon="3.258979">
<ele>484.1</ele>
<time>2013-05-08T09:49:19.999Z</time>
</trkpt>
<trkpt lat="44.107959" lon="3.25882">
<ele>484.1</ele>
<time>2013-05-08T09:49:20.999Z</time>
</trkpt>
<trkpt lat="44.108121" lon="3.25868">
<ele>483.9</ele>
<time>2013-05-08T09:49:21.999Z</time>
</trkpt>
<trkpt lat="44.108283" lon="3.258554">
<ele>483.4</ele>
<time>2013-05-08T09:49:22.999Z</time>
</trkpt>
<trkpt lat="44.108455" lon="3.258445">
<ele>482.8</ele>
<time>2013-05-08T09:49:23.999Z</time>
</trkpt>
<trkpt lat="44.108629" lon="3.258361">
<ele>482.3</ele>
<time>2013-05-08T09:49:24.999Z</time>
</trkpt>
<trkpt lat="44.108805" lon="3.258273">
<ele>481.6</ele>
<time>2013-05-08T09:49:25.999Z</time>
</trkpt>
<trkpt lat="44.10898" lon="3.25819">
<ele>480.8</ele>
<time>2013-05-08T09:49:26.999Z</time>
</trkpt>
<trkpt lat="44.10916" lon="3.258117">
<ele>480</ele>
<time>2013-05-08T09:49:27.999Z</time>
</trkpt>
<trkpt lat="44.109342" lon="3.258054">
<ele>479</ele>
<time>2013-05-08T09:49:28.999Z</time>
</trkpt>
<trkpt lat="44.109529" lon="3.257995">
<ele>478.1</ele>
<time>2013-05-08T09:49:29.999Z</time>
</trkpt>
<trkpt lat="44.109709" lon="3.257937">
<ele>477.2</ele>
<time>2013-05-08T09:49:30.999Z</time>
</trkpt>
<trkpt lat="44.109884" lon="3.257863">
<ele>476.4</ele>
<time>2013-05-08T09:49:31.999Z</time>
</trkpt>
<trkpt lat="44.110052" lon="3.257781">
<ele>475.7</ele>
<time>2013-05-08T09:49:32.999Z</time>
</trkpt>
<trkpt lat="44.110219" lon="3.257698">
<ele>475.1</ele>
<time>2013-05-08T09:49:33.999Z</time>
</trkpt>
<trkpt lat="44.110382" lon="3.257614">
<ele>474.1</ele>
<time>2013-05-08T09:49:34.999Z</time>
</trkpt>
<trkpt lat="44.110542" lon="3.257526">
<ele>473.1</ele>
<time>2013-05-08T09:49:35.999Z</time>
</trkpt>
<trkpt lat="44.110687" lon="3.257433">
<ele>473</ele>
<time>2013-05-08T09:49:36.999Z</time>
</trkpt>
<trkpt lat="44.110803" lon="3.257275">
<ele>473</ele>
<time>2013-05-08T09:49:37.999Z</time>
</trkpt>
<trkpt lat="44.110916" lon="3.257095">
<ele>472.8</ele>
<time>2013-05-08T09:49:38.999Z</time>
</trkpt>
<trkpt lat="44.111018" lon="3.256902">
<ele>472.8</ele>
<time>2013-05-08T09:49:39.999Z</time>
</trkpt>
<trkpt lat="44.111105" lon="3.256681">
<ele>473</ele>
<time>2013-05-08T09:49:40.999Z</time>
</trkpt>
<trkpt lat="44.11117" lon="3.256457">
<ele>473.2</ele>
<time>2013-05-08T09:49:41.999Z</time>
</trkpt>
<trkpt lat="44.111203" lon="3.256192">
<ele>473.1</ele>
<time>2013-05-08T09:49:42.999Z</time>
</trkpt>
<trkpt lat="44.111233" lon="3.255911">
<ele>472.8</ele>
<time>2013-05-08T09:49:43.999Z</time>
</trkpt>
<trkpt lat="44.111251" lon="3.255652">
<ele>472.1</ele>
<time>2013-05-08T09:49:44.999Z</time>
</trkpt>
<trkpt lat="44.111258" lon="3.255388">
<ele>471.4</ele>
<time>2013-05-08T09:49:45.999Z</time>
</trkpt>
<trkpt lat="44.111269" lon="3.255112">
<ele>470.5</ele>
<time>2013-05-08T09:49:46.999Z</time>
</trkpt>
<trkpt lat="44.111352" lon="3.254878">
<ele>469.7</ele>
<time>2013-05-08T09:49:47.999Z</time>
</trkpt>
<trkpt lat="44.111449" lon="3.254655">
<ele>469.1</ele>
<time>2013-05-08T09:49:48.999Z</time>
</trkpt>
<trkpt lat="44.111548" lon="3.254433">
<ele>468.5</ele>
<time>2013-05-08T09:49:49.999Z</time>
</trkpt>
<trkpt lat="44.111657" lon="3.25423">
<ele>468.2</ele>
<time>2013-05-08T09:49:50.999Z</time>
</trkpt>
<trkpt lat="44.111769" lon="3.254044">
<ele>468</ele>
<time>2013-05-08T09:49:51.999Z</time>
</trkpt>
<trkpt lat="44.111872" lon="3.25387">
<ele>467.5</ele>
<time>2013-05-08T09:49:52.999Z</time>
</trkpt>
<trkpt lat="44.111937" lon="3.253682">
<ele>466.8</ele>
<time>2013-05-08T09:49:53.999Z</time>
</trkpt>
<trkpt lat="44.111996" lon="3.253489">
<ele>466.1</ele>
<time>2013-05-08T09:49:54.999Z</time>
</trkpt>
<trkpt lat="44.112047" lon="3.253287">
<ele>465.5</ele>
<time>2013-05-08T09:49:55.999Z</time>
</trkpt>
<trkpt lat="44.112091" lon="3.253078">
<ele>464.7</ele>
<time>2013-05-08T09:49:56.999Z</time>
</trkpt>
<trkpt lat="44.1121" lon="3.252876">
<ele>464.7</ele>
<time>2013-05-08T09:49:57.999Z</time>
</trkpt>
<trkpt lat="44.112105" lon="3.252686">
<ele>464.8</ele>
<time>2013-05-08T09:49:58.999Z</time>
</trkpt>
<trkpt lat="44.112065" lon="3.252524">
<ele>464.9</ele>
<time>2013-05-08T09:49:59.999Z</time>
</trkpt>
<trkpt lat="44.11201" lon="3.252353">
<ele>465.1</ele>
<time>2013-05-08T09:50:00.999Z</time>
</trkpt>
<trkpt lat="44.111925" lon="3.252216">
<ele>465.3</ele>
<time>2013-05-08T09:50:01.999Z</time>
</trkpt>
<trkpt lat="44.11183" lon="3.252073">
<ele>465.3</ele>
<time>2013-05-08T09:50:02.999Z</time>
</trkpt>
<trkpt lat="44.11173" lon="3.251933">
<ele>464.8</ele>
<time>2013-05-08T09:50:03.999Z</time>
</trkpt>
<trkpt lat="44.111629" lon="3.251789">
<ele>464.3</ele>
<time>2013-05-08T09:50:04.999Z</time>
</trkpt>
<trkpt lat="44.111535" lon="3.251651">
<ele>464.1</ele>
<time>2013-05-08T09:50:05.999Z</time>
</trkpt>
<trkpt lat="44.111459" lon="3.251516">
<ele>464</ele>
<time>2013-05-08T09:50:06.999Z</time>
</trkpt>
<trkpt lat="44.111394" lon="3.251391">
<ele>463.8</ele>
<time>2013-05-08T09:50:07.999Z</time>
</trkpt>
<trkpt lat="44.111389" lon="3.251276">
<ele>463.8</ele>
<time>2013-05-08T09:50:08.999Z</time>
</trkpt>
<trkpt lat="44.111411" lon="3.25122">
<ele>463.7</ele>
<time>2013-05-08T09:50:09.999Z</time>
</trkpt>
<trkpt lat="44.111436" lon="3.251192">
<ele>463.7</ele>
<time>2013-05-08T09:50:10.999Z</time>
</trkpt>
<trkpt lat="44.111456" lon="3.251167">
<ele>463.7</ele>
<time>2013-05-08T09:50:11.999Z</time>
</trkpt>
<trkpt lat="44.111485" lon="3.251125">
<ele>462.1</ele>
<time>2013-05-08T09:52:00.999Z</time>
</trkpt>
<trkpt lat="44.111499" lon="3.251091">
<ele>462.6</ele>
<time>2013-05-08T09:52:01.999Z</time>
</trkpt>
<trkpt lat="44.111516" lon="3.251062">
<ele>463</ele>
<time>2013-05-08T09:52:02.999Z</time>
</trkpt>
<trkpt lat="44.111545" lon="3.251015">
<ele>463.4</ele>
<time>2013-05-08T09:52:03.999Z</time>
</trkpt>
<trkpt lat="44.111579" lon="3.250962">
<ele>467.3</ele>
<time>2013-05-08T09:52:04.999Z</time>
</trkpt>
<trkpt lat="44.111619" lon="3.250903">
<ele>470</ele>
<time>2013-05-08T09:52:05.999Z</time>
</trkpt>
<trkpt lat="44.111655" lon="3.250853">
<ele>472.1</ele>
<time>2013-05-08T09:52:06.999Z</time>
</trkpt>
<trkpt lat="44.111697" lon="3.250795">
<ele>473.6</ele>
<time>2013-05-08T09:52:07.999Z</time>
</trkpt>
<trkpt lat="44.111737" lon="3.250741">
<ele>475.2</ele>
<time>2013-05-08T09:52:08.999Z</time>
</trkpt>
<trkpt lat="44.111766" lon="3.250681">
<ele>476.3</ele>
<time>2013-05-08T09:52:09.999Z</time>
</trkpt>
<trkpt lat="44.111792" lon="3.250619">
<ele>477</ele>
<time>2013-05-08T09:52:10.999Z</time>
</trkpt>
<trkpt lat="44.111803" lon="3.250544">
<ele>477.1</ele>
<time>2013-05-08T09:52:11.999Z</time>
</trkpt>
<trkpt lat="44.111813" lon="3.250474">
<ele>476.9</ele>
<time>2013-05-08T09:52:12.999Z</time>
</trkpt>
<trkpt lat="44.111825" lon="3.250392">
<ele>476.3</ele>
<time>2013-05-08T09:52:13.999Z</time>
</trkpt>
<trkpt lat="44.111839" lon="3.250309">
<ele>475.7</ele>
<time>2013-05-08T09:52:14.999Z</time>
</trkpt>
<trkpt lat="44.111858" lon="3.25022">
<ele>475</ele>
<time>2013-05-08T09:52:15.999Z</time>
</trkpt>
<trkpt lat="44.111892" lon="3.250117">
<ele>474.1</ele>
<time>2013-05-08T09:52:16.999Z</time>
</trkpt>
<trkpt lat="44.111928" lon="3.250018">
<ele>473.1</ele>
<time>2013-05-08T09:52:17.999Z</time>
</trkpt>
<trkpt lat="44.111979" lon="3.249935">
<ele>472.3</ele>
<time>2013-05-08T09:52:18.999Z</time>
</trkpt>
<trkpt lat="44.112035" lon="3.249857">
<ele>471.4</ele>
<time>2013-05-08T09:52:19.999Z</time>
</trkpt>
<trkpt lat="44.112107" lon="3.249793">
<ele>470.8</ele>
<time>2013-05-08T09:52:20.999Z</time>
</trkpt>
<trkpt lat="44.112179" lon="3.249738">
<ele>470.4</ele>
<time>2013-05-08T09:52:21.999Z</time>
</trkpt>
<trkpt lat="44.112265" lon="3.249706">
<ele>470.1</ele>
<time>2013-05-08T09:52:22.999Z</time>
</trkpt>
<trkpt lat="44.112363" lon="3.249669">
<ele>470.2</ele>
<time>2013-05-08T09:52:23.999Z</time>
</trkpt>
<trkpt lat="44.112476" lon="3.249637">
<ele>470.4</ele>
<time>2013-05-08T09:52:24.999Z</time>
</trkpt>
<trkpt lat="44.112588" lon="3.249608">
<ele>470.6</ele>
<time>2013-05-08T09:52:25.999Z</time>
</trkpt>
<trkpt lat="44.112714" lon="3.249585">
<ele>470.8</ele>
<time>2013-05-08T09:52:26.999Z</time>
</trkpt>
<trkpt lat="44.112858" lon="3.249573">
<ele>470.5</ele>
<time>2013-05-08T09:52:27.999Z</time>
</trkpt>
<trkpt lat="44.113003" lon="3.249566">
<ele>470</ele>
<time>2013-05-08T09:52:28.999Z</time>
</trkpt>
<trkpt lat="44.113141" lon="3.249561">
<ele>469.8</ele>
<time>2013-05-08T09:52:29.999Z</time>
</trkpt>
<trkpt lat="44.113282" lon="3.249557">
<ele>469.5</ele>
<time>2013-05-08T09:52:30.999Z</time>
</trkpt>
<trkpt lat="44.113424" lon="3.249559">
<ele>469.3</ele>
<time>2013-05-08T09:52:31.999Z</time>
</trkpt>
<trkpt lat="44.113568" lon="3.24956">
<ele>468.8</ele>
<time>2013-05-08T09:52:32.999Z</time>
</trkpt>
<trkpt lat="44.113716" lon="3.249565">
<ele>468.6</ele>
<time>2013-05-08T09:52:33.999Z</time>
</trkpt>
<trkpt lat="44.113865" lon="3.24957">
<ele>468.6</ele>
<time>2013-05-08T09:52:34.999Z</time>
</trkpt>
<trkpt lat="44.114009" lon="3.249575">
<ele>468.8</ele>
<time>2013-05-08T09:52:35.999Z</time>
</trkpt>
<trkpt lat="44.114148" lon="3.249577">
<ele>468.8</ele>
<time>2013-05-08T09:52:36.999Z</time>
</trkpt>
<trkpt lat="44.114287" lon="3.249577">
<ele>468.9</ele>
<time>2013-05-08T09:52:37.999Z</time>
</trkpt>
<trkpt lat="44.114427" lon="3.249577">
<ele>469</ele>
<time>2013-05-08T09:52:38.999Z</time>
</trkpt>
<trkpt lat="44.114564" lon="3.249571">
<ele>469</ele>
<time>2013-05-08T09:52:39.999Z</time>
</trkpt>
<trkpt lat="44.114701" lon="3.249549">
<ele>468.9</ele>
<time>2013-05-08T09:52:40.999Z</time>
</trkpt>
<trkpt lat="44.114826" lon="3.249473">
<ele>469</ele>
<time>2013-05-08T09:52:41.999Z</time>
</trkpt>
<trkpt lat="44.114951" lon="3.249383">
<ele>469.2</ele>
<time>2013-05-08T09:52:42.999Z</time>
</trkpt>
<trkpt lat="44.115072" lon="3.249234">
<ele>469.4</ele>
<time>2013-05-08T09:52:43.999Z</time>
</trkpt>
<trkpt lat="44.115204" lon="3.249063">
<ele>469.9</ele>
<time>2013-05-08T09:52:44.999Z</time>
</trkpt>
<trkpt lat="44.115338" lon="3.24888">
<ele>470.4</ele>
<time>2013-05-08T09:52:45.999Z</time>
</trkpt>
<trkpt lat="44.115472" lon="3.248696">
<ele>470.8</ele>
<time>2013-05-08T09:52:46.999Z</time>
</trkpt>
<trkpt lat="44.115607" lon="3.248495">
<ele>471.2</ele>
<time>2013-05-08T09:52:47.999Z</time>
</trkpt>
<trkpt lat="44.115749" lon="3.248299">
<ele>471.5</ele>
<time>2013-05-08T09:52:48.999Z</time>
</trkpt>
<trkpt lat="44.115895" lon="3.248106">
<ele>471.7</ele>
<time>2013-05-08T09:52:49.999Z</time>
</trkpt>
<trkpt lat="44.116038" lon="3.247906">
<ele>471.9</ele>
<time>2013-05-08T09:52:50.999Z</time>
</trkpt>
<trkpt lat="44.116182" lon="3.247701">
<ele>472.2</ele>
<time>2013-05-08T09:52:51.999Z</time>
</trkpt>
<trkpt lat="44.116329" lon="3.247498">
<ele>472.6</ele>
<time>2013-05-08T09:52:52.999Z</time>
</trkpt>
<trkpt lat="44.116478" lon="3.247304">
<ele>473.1</ele>
<time>2013-05-08T09:52:53.999Z</time>
</trkpt>
<trkpt lat="44.116631" lon="3.247109">
<ele>473</ele>
<time>2013-05-08T09:52:54.999Z</time>
</trkpt>
<trkpt lat="44.116789" lon="3.246931">
<ele>473.2</ele>
<time>2013-05-08T09:52:55.999Z</time>
</trkpt>
<trkpt lat="44.116957" lon="3.246774">
<ele>473.3</ele>
<time>2013-05-08T09:52:56.999Z</time>
</trkpt>
<trkpt lat="44.117126" lon="3.246624">
<ele>473.2</ele>
<time>2013-05-08T09:52:57.999Z</time>
</trkpt>
<trkpt lat="44.117299" lon="3.246483">
<ele>473.2</ele>
<time>2013-05-08T09:52:58.999Z</time>
</trkpt>
<trkpt lat="44.117469" lon="3.246356">
<ele>473.1</ele>
<time>2013-05-08T09:52:59.999Z</time>
</trkpt>
<trkpt lat="44.117644" lon="3.246256">
<ele>473.1</ele>
<time>2013-05-08T09:53:00.999Z</time>
</trkpt>
<trkpt lat="44.117821" lon="3.246189">
<ele>472.9</ele>
<time>2013-05-08T09:53:01.999Z</time>
</trkpt>
<trkpt lat="44.117999" lon="3.246146">
<ele>473.1</ele>
<time>2013-05-08T09:53:02.999Z</time>
</trkpt>
<trkpt lat="44.118171" lon="3.24612">
<ele>473.2</ele>
<time>2013-05-08T09:53:03.999Z</time>
</trkpt>
<trkpt lat="44.118335" lon="3.246103">
<ele>473</ele>
<time>2013-05-08T09:53:04.999Z</time>
</trkpt>
<trkpt lat="44.118498" lon="3.246086">
<ele>473.1</ele>
<time>2013-05-08T09:53:05.999Z</time>
</trkpt>
<trkpt lat="44.118656" lon="3.246063">
<ele>473.1</ele>
<time>2013-05-08T09:53:06.999Z</time>
</trkpt>
<trkpt lat="44.118811" lon="3.246031">
<ele>473</ele>
<time>2013-05-08T09:53:07.999Z</time>
</trkpt>
<trkpt lat="44.118976" lon="3.245986">
<ele>472.9</ele>
<time>2013-05-08T09:53:08.999Z</time>
</trkpt>
<trkpt lat="44.119139" lon="3.245932">
<ele>473</ele>
<time>2013-05-08T09:53:09.999Z</time>
</trkpt>
<trkpt lat="44.119292" lon="3.245873">
<ele>473.1</ele>
<time>2013-05-08T09:53:10.999Z</time>
</trkpt>
<trkpt lat="44.119427" lon="3.245804">
<ele>473.2</ele>
<time>2013-05-08T09:53:11.999Z</time>
</trkpt>
<trkpt lat="44.119545" lon="3.245673">
<ele>473.2</ele>
<time>2013-05-08T09:53:12.999Z</time>
</trkpt>
<trkpt lat="44.119643" lon="3.245506">
<ele>473.2</ele>
<time>2013-05-08T09:53:13.999Z</time>
</trkpt>
<trkpt lat="44.119741" lon="3.245318">
<ele>473.2</ele>
<time>2013-05-08T09:53:14.999Z</time>
</trkpt>
<trkpt lat="44.119809" lon="3.245095">
<ele>473.4</ele>
<time>2013-05-08T09:53:15.999Z</time>
</trkpt>
<trkpt lat="44.119872" lon="3.244874">
<ele>473.5</ele>
<time>2013-05-08T09:53:16.999Z</time>
</trkpt>
<trkpt lat="44.119939" lon="3.244644">
<ele>473.8</ele>
<time>2013-05-08T09:53:17.999Z</time>
</trkpt>
<trkpt lat="44.120002" lon="3.24441">
<ele>474</ele>
<time>2013-05-08T09:53:18.999Z</time>
</trkpt>
<trkpt lat="44.120058" lon="3.24417">
<ele>474.3</ele>
<time>2013-05-08T09:53:19.999Z</time>
</trkpt>
<trkpt lat="44.12007" lon="3.24393">
<ele>474.5</ele>
<time>2013-05-08T09:53:20.999Z</time>
</trkpt>
<trkpt lat="44.120041" lon="3.24366">
<ele>474.3</ele>
<time>2013-05-08T09:53:21.999Z</time>
</trkpt>
<trkpt lat="44.120006" lon="3.243385">
<ele>474.3</ele>
<time>2013-05-08T09:53:22.999Z</time>
</trkpt>
<trkpt lat="44.119963" lon="3.243103">
<ele>474.3</ele>
<time>2013-05-08T09:53:23.999Z</time>
</trkpt>
<trkpt lat="44.119893" lon="3.242822">
<ele>474.1</ele>
<time>2013-05-08T09:53:24.999Z</time>
</trkpt>
<trkpt lat="44.119806" lon="3.242532">
<ele>473.7</ele>
<time>2013-05-08T09:53:25.999Z</time>
</trkpt>
<trkpt lat="44.119706" lon="3.242246">
<ele>473.3</ele>
<time>2013-05-08T09:53:26.999Z</time>
</trkpt>
<trkpt lat="44.119592" lon="3.241973">
<ele>473.2</ele>
<time>2013-05-08T09:53:27.999Z</time>
</trkpt>
<trkpt lat="44.119462" lon="3.24172">
<ele>473.1</ele>
<time>2013-05-08T09:53:28.999Z</time>
</trkpt>
<trkpt lat="44.119312" lon="3.241501">
<ele>472.7</ele>
<time>2013-05-08T09:53:29.999Z</time>
</trkpt>
<trkpt lat="44.119157" lon="3.241274">
<ele>471.4</ele>
<time>2013-05-08T09:53:30.999Z</time>
</trkpt>
<trkpt lat="44.119003" lon="3.241051">
<ele>469.7</ele>
<time>2013-05-08T09:53:31.999Z</time>
</trkpt>
<trkpt lat="44.118854" lon="3.240839">
<ele>467.9</ele>
<time>2013-05-08T09:53:32.999Z</time>
</trkpt>
<trkpt lat="44.118699" lon="3.24063">
<ele>466.4</ele>
<time>2013-05-08T09:53:33.999Z</time>
</trkpt>
<trkpt lat="44.118545" lon="3.240424">
<ele>465.2</ele>
<time>2013-05-08T09:53:34.999Z</time>
</trkpt>
<trkpt lat="44.118401" lon="3.240206">
<ele>464.2</ele>
<time>2013-05-08T09:53:35.999Z</time>
</trkpt>
<trkpt lat="44.118274" lon="3.239975">
<ele>463.2</ele>
<time>2013-05-08T09:53:36.999Z</time>
</trkpt>
<trkpt lat="44.118167" lon="3.23974">
<ele>462.2</ele>
<time>2013-05-08T09:53:37.999Z</time>
</trkpt>
<trkpt lat="44.11806" lon="3.239519">
<ele>462</ele>
<time>2013-05-08T09:53:38.999Z</time>
</trkpt>
<trkpt lat="44.11797" lon="3.239305">
<ele>462</ele>
<time>2013-05-08T09:53:39.999Z</time>
</trkpt>
<trkpt lat="44.117924" lon="3.239083">
<ele>462.2</ele>
<time>2013-05-08T09:53:40.999Z</time>
</trkpt>
<trkpt lat="44.117928" lon="3.238867">
<ele>462.6</ele>
<time>2013-05-08T09:53:41.999Z</time>
</trkpt>
<trkpt lat="44.117936" lon="3.23868">
<ele>462.5</ele>
<time>2013-05-08T09:53:42.999Z</time>
</trkpt>
<trkpt lat="44.118004" lon="3.238476">
<ele>462.4</ele>
<time>2013-05-08T09:53:43.999Z</time>
</trkpt>
<trkpt lat="44.118094" lon="3.238256">
<ele>462.4</ele>
<time>2013-05-08T09:53:44.999Z</time>
</trkpt>
<trkpt lat="44.118207" lon="3.238019">
<ele>462.7</ele>
<time>2013-05-08T09:53:45.999Z</time>
</trkpt>
<trkpt lat="44.11833" lon="3.237789">
<ele>462.9</ele>
<time>2013-05-08T09:53:46.999Z</time>
</trkpt>
<trkpt lat="44.118474" lon="3.237584">
<ele>463</ele>
<time>2013-05-08T09:53:47.999Z</time>
</trkpt>
<trkpt lat="44.118619" lon="3.237384">
<ele>463.2</ele>
<time>2013-05-08T09:53:48.999Z</time>
</trkpt>
<trkpt lat="44.11876" lon="3.237177">
<ele>463.4</ele>
<time>2013-05-08T09:53:49.999Z</time>
</trkpt>
<trkpt lat="44.118885" lon="3.236958">
<ele>463.9</ele>
<time>2013-05-08T09:53:50.999Z</time>
</trkpt>
<trkpt lat="44.118991" lon="3.236729">
<ele>464.5</ele>
<time>2013-05-08T09:53:51.999Z</time>
</trkpt>
<trkpt lat="44.119086" lon="3.236487">
<ele>465.7</ele>
<time>2013-05-08T09:53:52.999Z</time>
</trkpt>
<trkpt lat="44.119189" lon="3.236249">
<ele>466.7</ele>
<time>2013-05-08T09:53:53.999Z</time>
</trkpt>
<trkpt lat="44.119302" lon="3.236004">
<ele>467.2</ele>
<time>2013-05-08T09:53:54.999Z</time>
</trkpt>
<trkpt lat="44.119401" lon="3.235746">
<ele>467.7</ele>
<time>2013-05-08T09:53:55.999Z</time>
</trkpt>
<trkpt lat="44.119471" lon="3.235459">
<ele>467.9</ele>
<time>2013-05-08T09:53:56.999Z</time>
</trkpt>
<trkpt lat="44.119531" lon="3.235165">
<ele>467.8</ele>
<time>2013-05-08T09:53:57.999Z</time>
</trkpt>
<trkpt lat="44.119585" lon="3.234869">
<ele>467.5</ele>
<time>2013-05-08T09:53:58.999Z</time>
</trkpt>
<trkpt lat="44.11964" lon="3.234572">
<ele>467.1</ele>
<time>2013-05-08T09:53:59.999Z</time>
</trkpt>
<trkpt lat="44.119687" lon="3.234271">
<ele>466.5</ele>
<time>2013-05-08T09:54:00.999Z</time>
</trkpt>
<trkpt lat="44.119732" lon="3.233977">
<ele>465.6</ele>
<time>2013-05-08T09:54:01.999Z</time>
</trkpt>
<trkpt lat="44.119768" lon="3.233687">
<ele>465.1</ele>
<time>2013-05-08T09:54:02.999Z</time>
</trkpt>
<trkpt lat="44.119801" lon="3.233399">
<ele>464.9</ele>
<time>2013-05-08T09:54:03.999Z</time>
</trkpt>
<trkpt lat="44.119844" lon="3.233115">
<ele>464.8</ele>
<time>2013-05-08T09:54:04.999Z</time>
</trkpt>
<trkpt lat="44.119903" lon="3.23284">
<ele>464.7</ele>
<time>2013-05-08T09:54:05.999Z</time>
</trkpt>
<trkpt lat="44.119974" lon="3.232566">
<ele>464.7</ele>
<time>2013-05-08T09:54:06.999Z</time>
</trkpt>
<trkpt lat="44.120066" lon="3.232302">
<ele>464.8</ele>
<time>2013-05-08T09:54:07.999Z</time>
</trkpt>
<trkpt lat="44.120187" lon="3.232057">
<ele>465.1</ele>
<time>2013-05-08T09:54:08.999Z</time>
</trkpt>
<trkpt lat="44.120331" lon="3.231847">
<ele>465.7</ele>
<time>2013-05-08T09:54:09.999Z</time>
</trkpt>
<trkpt lat="44.120493" lon="3.231663">
<ele>465.8</ele>
<time>2013-05-08T09:54:10.999Z</time>
</trkpt>
<trkpt lat="44.120654" lon="3.231481">
<ele>466.1</ele>
<time>2013-05-08T09:54:11.999Z</time>
</trkpt>
<trkpt lat="44.120808" lon="3.231306">
<ele>466.1</ele>
<time>2013-05-08T09:54:12.999Z</time>
</trkpt>
<trkpt lat="44.120956" lon="3.231135">
<ele>466.1</ele>
<time>2013-05-08T09:54:13.999Z</time>
</trkpt>
<trkpt lat="44.121112" lon="3.230995">
<ele>466.1</ele>
<time>2013-05-08T09:54:14.999Z</time>
</trkpt>
<trkpt lat="44.121267" lon="3.230875">
<ele>466.1</ele>
<time>2013-05-08T09:54:15.999Z</time>
</trkpt>
<trkpt lat="44.121428" lon="3.230755">
<ele>466.4</ele>
<time>2013-05-08T09:54:16.999Z</time>
</trkpt>
<trkpt lat="44.121593" lon="3.230633">
<ele>466.4</ele>
<time>2013-05-08T09:54:17.999Z</time>
</trkpt>
<trkpt lat="44.121762" lon="3.230522">
<ele>465.9</ele>
<time>2013-05-08T09:54:18.999Z</time>
</trkpt>
<trkpt lat="44.121941" lon="3.230425">
<ele>465.5</ele>
<time>2013-05-08T09:54:19.999Z</time>
</trkpt>
<trkpt lat="44.122121" lon="3.230318">
<ele>464.8</ele>
<time>2013-05-08T09:54:20.999Z</time>
</trkpt>
<trkpt lat="44.122305" lon="3.230222">
<ele>464.5</ele>
<time>2013-05-08T09:54:21.999Z</time>
</trkpt>
<trkpt lat="44.122498" lon="3.230131">
<ele>464.2</ele>
<time>2013-05-08T09:54:22.999Z</time>
</trkpt>
<trkpt lat="44.122691" lon="3.230044">
<ele>464.2</ele>
<time>2013-05-08T09:54:23.999Z</time>
</trkpt>
<trkpt lat="44.122886" lon="3.229935">
<ele>464.5</ele>
<time>2013-05-08T09:54:24.999Z</time>
</trkpt>
<trkpt lat="44.123078" lon="3.22981">
<ele>465</ele>
<time>2013-05-08T09:54:25.999Z</time>
</trkpt>
<trkpt lat="44.123265" lon="3.229685">
<ele>465.3</ele>
<time>2013-05-08T09:54:26.999Z</time>
</trkpt>
<trkpt lat="44.123449" lon="3.229556">
<ele>465.5</ele>
<time>2013-05-08T09:54:27.999Z</time>
</trkpt>
<trkpt lat="44.123635" lon="3.22943">
<ele>465.8</ele>
<time>2013-05-08T09:54:28.999Z</time>
</trkpt>
<trkpt lat="44.123811" lon="3.229278">
<ele>466.1</ele>
<time>2013-05-08T09:54:29.999Z</time>
</trkpt>
<trkpt lat="44.12398" lon="3.229105">
<ele>466.3</ele>
<time>2013-05-08T09:54:30.999Z</time>
</trkpt>
<trkpt lat="44.124146" lon="3.228929">
<ele>466.4</ele>
<time>2013-05-08T09:54:31.999Z</time>
</trkpt>
<trkpt lat="44.124306" lon="3.228755">
<ele>466.4</ele>
<time>2013-05-08T09:54:32.999Z</time>
</trkpt>
<trkpt lat="44.124459" lon="3.22859">
<ele>466.2</ele>
<time>2013-05-08T09:54:33.999Z</time>
</trkpt>
<trkpt lat="44.124603" lon="3.228427">
<ele>465.9</ele>
<time>2013-05-08T09:54:34.999Z</time>
</trkpt>
<trkpt lat="44.124729" lon="3.228252">
<ele>465.8</ele>
<time>2013-05-08T09:54:35.999Z</time>
</trkpt>
<trkpt lat="44.124827" lon="3.228054">
<ele>465.6</ele>
<time>2013-05-08T09:54:36.999Z</time>
</trkpt>
<trkpt lat="44.12492" lon="3.227855">
<ele>465.4</ele>
<time>2013-05-08T09:54:37.999Z</time>
</trkpt>
<trkpt lat="44.125004" lon="3.227652">
<ele>465.1</ele>
<time>2013-05-08T09:54:38.999Z</time>
</trkpt>
<trkpt lat="44.125076" lon="3.227448">
<ele>464.7</ele>
<time>2013-05-08T09:54:39.999Z</time>
</trkpt>
<trkpt lat="44.125131" lon="3.227256">
<ele>464.2</ele>
<time>2013-05-08T09:54:40.999Z</time>
</trkpt>
<trkpt lat="44.125175" lon="3.227092">
<ele>464.6</ele>
<time>2013-05-08T09:54:41.999Z</time>
</trkpt>
<trkpt lat="44.125209" lon="3.226966">
<ele>465.5</ele>
<time>2013-05-08T09:54:42.999Z</time>
</trkpt>
<trkpt lat="44.125233" lon="3.226872">
<ele>466.2</ele>
<time>2013-05-08T09:54:43.999Z</time>
</trkpt>
<trkpt lat="44.125252" lon="3.22679">
<ele>466.3</ele>
<time>2013-05-08T09:54:44.999Z</time>
</trkpt>
<trkpt lat="44.125265" lon="3.226716">
<ele>466.5</ele>
<time>2013-05-08T09:54:45.999Z</time>
</trkpt>
<trkpt lat="44.125274" lon="3.226639">
<ele>466.9</ele>
<time>2013-05-08T09:54:46.999Z</time>
</trkpt>
<trkpt lat="44.125269" lon="3.226552">
<ele>467.2</ele>
<time>2013-05-08T09:54:47.999Z</time>
</trkpt>
<trkpt lat="44.125262" lon="3.226437">
<ele>467.2</ele>
<time>2013-05-08T09:54:48.999Z</time>
</trkpt>
<trkpt lat="44.125254" lon="3.226293">
<ele>467.1</ele>
<time>2013-05-08T09:54:49.999Z</time>
</trkpt>
<trkpt lat="44.125248" lon="3.22614">
<ele>467</ele>
<time>2013-05-08T09:54:50.999Z</time>
</trkpt>
<trkpt lat="44.125239" lon="3.225981">
<ele>466.7</ele>
<time>2013-05-08T09:54:51.999Z</time>
</trkpt>
<trkpt lat="44.125228" lon="3.225814">
<ele>466.3</ele>
<time>2013-05-08T09:54:52.999Z</time>
</trkpt>
<trkpt lat="44.125216" lon="3.225648">
<ele>465.9</ele>
<time>2013-05-08T09:54:53.999Z</time>
</trkpt>
<trkpt lat="44.125205" lon="3.2255">
<ele>465.7</ele>
<time>2013-05-08T09:54:54.999Z</time>
</trkpt>
<trkpt lat="44.125196" lon="3.225378">
<ele>465.2</ele>
<time>2013-05-08T09:54:55.999Z</time>
</trkpt>
<trkpt lat="44.12519" lon="3.225281">
<ele>464.8</ele>
<time>2013-05-08T09:54:56.999Z</time>
</trkpt>
<trkpt lat="44.125185" lon="3.225199">
<ele>464.3</ele>
<time>2013-05-08T09:54:57.999Z</time>
</trkpt>
<trkpt lat="44.12518" lon="3.225112">
<ele>463.9</ele>
<time>2013-05-08T09:54:58.999Z</time>
</trkpt>
<trkpt lat="44.125175" lon="3.225018">
<ele>463.6</ele>
<time>2013-05-08T09:54:59.999Z</time>
</trkpt>
<trkpt lat="44.12517" lon="3.224912">
<ele>463.2</ele>
<time>2013-05-08T09:55:00.999Z</time>
</trkpt>
<trkpt lat="44.125164" lon="3.224804">
<ele>463.2</ele>
<time>2013-05-08T09:55:01.999Z</time>
</trkpt>
<trkpt lat="44.125158" lon="3.224697">
<ele>462.9</ele>
<time>2013-05-08T09:55:02.999Z</time>
</trkpt>
<trkpt lat="44.125151" lon="3.224591">
<ele>462.6</ele>
<time>2013-05-08T09:55:03.999Z</time>
</trkpt>
<trkpt lat="44.125143" lon="3.224477">
<ele>462.2</ele>
<time>2013-05-08T09:55:04.999Z</time>
</trkpt>
<trkpt lat="44.125135" lon="3.224364">
<ele>461.8</ele>
<time>2013-05-08T09:55:05.999Z</time>
</trkpt>
<trkpt lat="44.125126" lon="3.224248">
<ele>461.1</ele>
<time>2013-05-08T09:55:06.999Z</time>
</trkpt>
<trkpt lat="44.125112" lon="3.224126">
<ele>460.3</ele>
<time>2013-05-08T09:55:07.999Z</time>
</trkpt>
<trkpt lat="44.125087" lon="3.223996">
<ele>459.8</ele>
<time>2013-05-08T09:55:08.999Z</time>
</trkpt>
<trkpt lat="44.12504" lon="3.223874">
<ele>459.3</ele>
<time>2013-05-08T09:55:09.999Z</time>
</trkpt>
<trkpt lat="44.124992" lon="3.22375">
<ele>458.7</ele>
<time>2013-05-08T09:55:10.999Z</time>
</trkpt>
<trkpt lat="44.124939" lon="3.223632">
<ele>458.4</ele>
<time>2013-05-08T09:55:11.999Z</time>
</trkpt>
<trkpt lat="44.124881" lon="3.22352">
<ele>458</ele>
<time>2013-05-08T09:55:12.999Z</time>
</trkpt>
<trkpt lat="44.124817" lon="3.223411">
<ele>457.9</ele>
<time>2013-05-08T09:55:13.999Z</time>
</trkpt>
<trkpt lat="44.124748" lon="3.223308">
<ele>457.8</ele>
<time>2013-05-08T09:55:14.999Z</time>
</trkpt>
<trkpt lat="44.124679" lon="3.223207">
<ele>457.6</ele>
<time>2013-05-08T09:55:15.999Z</time>
</trkpt>
<trkpt lat="44.124612" lon="3.22311">
<ele>457.4</ele>
<time>2013-05-08T09:55:16.999Z</time>
</trkpt>
<trkpt lat="44.124548" lon="3.223006">
<ele>457</ele>
<time>2013-05-08T09:55:17.999Z</time>
</trkpt>
<trkpt lat="44.124492" lon="3.222897">
<ele>456.5</ele>
<time>2013-05-08T09:55:18.999Z</time>
</trkpt>
<trkpt lat="44.124443" lon="3.22279">
<ele>455.9</ele>
<time>2013-05-08T09:55:19.999Z</time>
</trkpt>
<trkpt lat="44.124394" lon="3.222683">
<ele>455.3</ele>
<time>2013-05-08T09:55:20.999Z</time>
</trkpt>
<trkpt lat="44.124333" lon="3.2226">
<ele>454.9</ele>
<time>2013-05-08T09:55:21.999Z</time>
</trkpt>
<trkpt lat="44.124267" lon="3.222551">
<ele>454.2</ele>
<time>2013-05-08T09:55:22.999Z</time>
</trkpt>
<trkpt lat="44.124179" lon="3.22252">
<ele>454</ele>
<time>2013-05-08T09:55:23.999Z</time>
</trkpt>
<trkpt lat="44.124088" lon="3.222493">
<ele>454.1</ele>
<time>2013-05-08T09:55:24.999Z</time>
</trkpt>
<trkpt lat="44.123983" lon="3.222468">
<ele>454</ele>
<time>2013-05-08T09:55:25.999Z</time>
</trkpt>
<trkpt lat="44.123879" lon="3.222443">
<ele>453.7</ele>
<time>2013-05-08T09:55:26.999Z</time>
</trkpt>
<trkpt lat="44.123781" lon="3.222416">
<ele>453</ele>
<time>2013-05-08T09:55:27.999Z</time>
</trkpt>
<trkpt lat="44.123705" lon="3.222366">
<ele>452.6</ele>
<time>2013-05-08T09:55:28.999Z</time>
</trkpt>
<trkpt lat="44.12362" lon="3.222295">
<ele>452.5</ele>
<time>2013-05-08T09:55:29.999Z</time>
</trkpt>
<trkpt lat="44.123549" lon="3.222185">
<ele>452.5</ele>
<time>2013-05-08T09:55:30.999Z</time>
</trkpt>
<trkpt lat="44.123491" lon="3.222085">
<ele>452.6</ele>
<time>2013-05-08T09:55:31.999Z</time>
</trkpt>
<trkpt lat="44.123448" lon="3.221997">
<ele>452.9</ele>
<time>2013-05-08T09:55:32.999Z</time>
</trkpt>
<trkpt lat="44.12342" lon="3.221929">
<ele>453.1</ele>
<time>2013-05-08T09:55:33.999Z</time>
</trkpt>
<trkpt lat="44.123394" lon="3.221861">
<ele>452.7</ele>
<time>2013-05-08T09:55:34.999Z</time>
</trkpt>
<trkpt lat="44.12337" lon="3.221799">
<ele>452.2</ele>
<time>2013-05-08T09:55:35.999Z</time>
</trkpt>
<trkpt lat="44.123349" lon="3.221745">
<ele>452</ele>
<time>2013-05-08T09:55:36.999Z</time>
</trkpt>
<trkpt lat="44.12333" lon="3.221679">
<ele>452.1</ele>
<time>2013-05-08T09:55:37.999Z</time>
</trkpt>
<trkpt lat="44.123308" lon="3.221599">
<ele>452.4</ele>
<time>2013-05-08T09:55:38.999Z</time>
</trkpt>
<trkpt lat="44.123278" lon="3.221501">
<ele>452.4</ele>
<time>2013-05-08T09:55:39.999Z</time>
</trkpt>
<trkpt lat="44.123241" lon="3.221382">
<ele>452.2</ele>
<time>2013-05-08T09:55:40.999Z</time>
</trkpt>
<trkpt lat="44.1232" lon="3.221249">
<ele>452.1</ele>
<time>2013-05-08T09:55:41.999Z</time>
</trkpt>
<trkpt lat="44.12316" lon="3.221096">
<ele>451.9</ele>
<time>2013-05-08T09:55:42.999Z</time>
</trkpt>
<trkpt lat="44.123124" lon="3.22095">
<ele>451.9</ele>
<time>2013-05-08T09:55:43.999Z</time>
</trkpt>
<trkpt lat="44.123096" lon="3.220804">
<ele>451.8</ele>
<time>2013-05-08T09:55:44.999Z</time>
</trkpt>
<trkpt lat="44.123069" lon="3.220645">
<ele>452</ele>
<time>2013-05-08T09:55:45.999Z</time>
</trkpt>
<trkpt lat="44.123043" lon="3.220486">
<ele>452.3</ele>
<time>2013-05-08T09:55:46.999Z</time>
</trkpt>
<trkpt lat="44.123019" lon="3.220322">
<ele>452.5</ele>
<time>2013-05-08T09:55:47.999Z</time>
</trkpt>
<trkpt lat="44.122994" lon="3.220147">
<ele>452.8</ele>
<time>2013-05-08T09:55:48.999Z</time>
</trkpt>
<trkpt lat="44.12297" lon="3.219983">
<ele>453.1</ele>
<time>2013-05-08T09:55:49.999Z</time>
</trkpt>
<trkpt lat="44.122944" lon="3.219819">
<ele>453.5</ele>
<time>2013-05-08T09:55:50.999Z</time>
</trkpt>
<trkpt lat="44.122919" lon="3.219655">
<ele>453.7</ele>
<time>2013-05-08T09:55:51.999Z</time>
</trkpt>
<trkpt lat="44.122887" lon="3.21949">
<ele>454.1</ele>
<time>2013-05-08T09:55:52.999Z</time>
</trkpt>
<trkpt lat="44.12283" lon="3.219344">
<ele>454.4</ele>
<time>2013-05-08T09:55:53.999Z</time>
</trkpt>
<trkpt lat="44.122775" lon="3.219214">
<ele>454.6</ele>
<time>2013-05-08T09:55:54.999Z</time>
</trkpt>
<trkpt lat="44.122713" lon="3.219087">
<ele>454.7</ele>
<time>2013-05-08T09:55:55.999Z</time>
</trkpt>
<trkpt lat="44.122648" lon="3.218953">
<ele>454.6</ele>
<time>2013-05-08T09:55:56.999Z</time>
</trkpt>
<trkpt lat="44.122575" lon="3.218812">
<ele>454.5</ele>
<time>2013-05-08T09:55:57.999Z</time>
</trkpt>
<trkpt lat="44.122503" lon="3.218661">
<ele>454.2</ele>
<time>2013-05-08T09:55:58.999Z</time>
</trkpt>
<trkpt lat="44.122434" lon="3.218511">
<ele>453.7</ele>
<time>2013-05-08T09:55:59.999Z</time>
</trkpt>
<trkpt lat="44.122367" lon="3.218349">
<ele>452.9</ele>
<time>2013-05-08T09:56:00.999Z</time>
</trkpt>
<trkpt lat="44.122299" lon="3.21819">
<ele>452.3</ele>
<time>2013-05-08T09:56:01.999Z</time>
</trkpt>
<trkpt lat="44.122235" lon="3.218026">
<ele>452</ele>
<time>2013-05-08T09:56:02.999Z</time>
</trkpt>
<trkpt lat="44.122172" lon="3.217863">
<ele>452</ele>
<time>2013-05-08T09:56:03.999Z</time>
</trkpt>
<trkpt lat="44.122105" lon="3.217693">
<ele>452.2</ele>
<time>2013-05-08T09:56:04.999Z</time>
</trkpt>
<trkpt lat="44.122038" lon="3.217536">
<ele>452.3</ele>
<time>2013-05-08T09:56:05.999Z</time>
</trkpt>
<trkpt lat="44.121965" lon="3.217382">
<ele>452.7</ele>
<time>2013-05-08T09:56:06.999Z</time>
</trkpt>
<trkpt lat="44.121882" lon="3.217234">
<ele>453</ele>
<time>2013-05-08T09:56:07.999Z</time>
</trkpt>
<trkpt lat="44.12179" lon="3.217096">
<ele>453</ele>
<time>2013-05-08T09:56:08.999Z</time>
</trkpt>
<trkpt lat="44.121688" lon="3.216955">
<ele>452.8</ele>
<time>2013-05-08T09:56:09.999Z</time>
</trkpt>
<trkpt lat="44.121581" lon="3.216819">
<ele>452.3</ele>
<time>2013-05-08T09:56:10.999Z</time>
</trkpt>
<trkpt lat="44.121474" lon="3.216692">
<ele>451.9</ele>
<time>2013-05-08T09:56:11.999Z</time>
</trkpt>
<trkpt lat="44.12137" lon="3.216562">
<ele>451.2</ele>
<time>2013-05-08T09:56:12.999Z</time>
</trkpt>
<trkpt lat="44.121274" lon="3.216439">
<ele>450.5</ele>
<time>2013-05-08T09:56:13.999Z</time>
</trkpt>
<trkpt lat="44.121177" lon="3.216321">
<ele>450</ele>
<time>2013-05-08T09:56:14.999Z</time>
</trkpt>
<trkpt lat="44.121068" lon="3.216194">
<ele>449.7</ele>
<time>2013-05-08T09:56:15.999Z</time>
</trkpt>
<trkpt lat="44.12095" lon="3.21606">
<ele>449.5</ele>
<time>2013-05-08T09:56:16.999Z</time>
</trkpt>
<trkpt lat="44.120838" lon="3.215922">
<ele>449.3</ele>
<time>2013-05-08T09:56:17.999Z</time>
</trkpt>
<trkpt lat="44.120725" lon="3.215784">
<ele>448.9</ele>
<time>2013-05-08T09:56:18.999Z</time>
</trkpt>
<trkpt lat="44.120615" lon="3.215639">
<ele>448.6</ele>
<time>2013-05-08T09:56:19.999Z</time>
</trkpt>
<trkpt lat="44.120508" lon="3.215488">
<ele>448.3</ele>
<time>2013-05-08T09:56:20.999Z</time>
</trkpt>
<trkpt lat="44.120402" lon="3.215332">
<ele>448.2</ele>
<time>2013-05-08T09:56:21.999Z</time>
</trkpt>
<trkpt lat="44.120294" lon="3.21517">
<ele>448</ele>
<time>2013-05-08T09:56:22.999Z</time>
</trkpt>
<trkpt lat="44.120189" lon="3.215">
<ele>447.9</ele>
<time>2013-05-08T09:56:24.000Z</time>
</trkpt>
<trkpt lat="44.120087" lon="3.214827">
<ele>447.8</ele>
<time>2013-05-08T09:56:25.000Z</time>
</trkpt>
<trkpt lat="44.11999" lon="3.214653">
<ele>447.7</ele>
<time>2013-05-08T09:56:26.000Z</time>
</trkpt>
<trkpt lat="44.119902" lon="3.214478">
<ele>447.6</ele>
<time>2013-05-08T09:56:27.000Z</time>
</trkpt>
<trkpt lat="44.119823" lon="3.214299">
<ele>447.4</ele>
<time>2013-05-08T09:56:28.000Z</time>
</trkpt>
<trkpt lat="44.119788" lon="3.214094">
<ele>447.2</ele>
<time>2013-05-08T09:56:29.000Z</time>
</trkpt>
<trkpt lat="44.119763" lon="3.213886">
<ele>447.1</ele>
<time>2013-05-08T09:56:30.000Z</time>
</trkpt>
<trkpt lat="44.119778" lon="3.213664">
<ele>446.8</ele>
<time>2013-05-08T09:56:31.000Z</time>
</trkpt>
<trkpt lat="44.119806" lon="3.213457">
<ele>446.4</ele>
<time>2013-05-08T09:56:32.000Z</time>
</trkpt>
<trkpt lat="44.119891" lon="3.213252">
<ele>446.2</ele>
<time>2013-05-08T09:56:33.000Z</time>
</trkpt>
<trkpt lat="44.12001" lon="3.213067">
<ele>446.3</ele>
<time>2013-05-08T09:56:34.000Z</time>
</trkpt>
<trkpt lat="44.120133" lon="3.21289">
<ele>446.4</ele>
<time>2013-05-08T09:56:35.000Z</time>
</trkpt>
<trkpt lat="44.120283" lon="3.212741">
<ele>446.9</ele>
<time>2013-05-08T09:56:36.000Z</time>
</trkpt>
<trkpt lat="44.120434" lon="3.212604">
<ele>447.5</ele>
<time>2013-05-08T09:56:37.000Z</time>
</trkpt>
<trkpt lat="44.120595" lon="3.212477">
<ele>448.3</ele>
<time>2013-05-08T09:56:38.000Z</time>
</trkpt>
<trkpt lat="44.120766" lon="3.21238">
<ele>449.1</ele>
<time>2013-05-08T09:56:39.000Z</time>
</trkpt>
<trkpt lat="44.120936" lon="3.212284">
<ele>449.8</ele>
<time>2013-05-08T09:56:40.000Z</time>
</trkpt>
<trkpt lat="44.121102" lon="3.212187">
<ele>450.4</ele>
<time>2013-05-08T09:56:41.000Z</time>
</trkpt>
<trkpt lat="44.121267" lon="3.212089">
<ele>450.8</ele>
<time>2013-05-08T09:56:42.000Z</time>
</trkpt>
<trkpt lat="44.121426" lon="3.211992">
<ele>451.3</ele>
<time>2013-05-08T09:56:43.000Z</time>
</trkpt>
<trkpt lat="44.121575" lon="3.211878">
<ele>451.8</ele>
<time>2013-05-08T09:56:44.000Z</time>
</trkpt>
<trkpt lat="44.121721" lon="3.211753">
<ele>452.2</ele>
<time>2013-05-08T09:56:45.000Z</time>
</trkpt>
<trkpt lat="44.121838" lon="3.211587">
<ele>452.4</ele>
<time>2013-05-08T09:56:46.000Z</time>
</trkpt>
<trkpt lat="44.121946" lon="3.211409">
<ele>452.3</ele>
<time>2013-05-08T09:56:47.000Z</time>
</trkpt>
<trkpt lat="44.122023" lon="3.211205">
<ele>452.3</ele>
<time>2013-05-08T09:56:48.000Z</time>
</trkpt>
<trkpt lat="44.12209" lon="3.210999">
<ele>452.1</ele>
<time>2013-05-08T09:56:49.000Z</time>
</trkpt>
<trkpt lat="44.122143" lon="3.210792">
<ele>452.1</ele>
<time>2013-05-08T09:56:50.000Z</time>
</trkpt>
<trkpt lat="44.12215" lon="3.210573">
<ele>451.8</ele>
<time>2013-05-08T09:56:51.000Z</time>
</trkpt>
<trkpt lat="44.122151" lon="3.210362">
<ele>450.9</ele>
<time>2013-05-08T09:56:52.000Z</time>
</trkpt>
<trkpt lat="44.122146" lon="3.21016">
<ele>450.5</ele>
<time>2013-05-08T09:56:53.000Z</time>
</trkpt>
<trkpt lat="44.122137" lon="3.20997">
<ele>450.7</ele>
<time>2013-05-08T09:56:54.000Z</time>
</trkpt>
<trkpt lat="44.122128" lon="3.209779">
<ele>450.8</ele>
<time>2013-05-08T09:56:55.000Z</time>
</trkpt>
<trkpt lat="44.122114" lon="3.209582">
<ele>450.9</ele>
<time>2013-05-08T09:56:56.000Z</time>
</trkpt>
<trkpt lat="44.122097" lon="3.209369">
<ele>451</ele>
<time>2013-05-08T09:56:57.000Z</time>
</trkpt>
<trkpt lat="44.122079" lon="3.209166">
<ele>451.2</ele>
<time>2013-05-08T09:56:58.000Z</time>
</trkpt>
<trkpt lat="44.122055" lon="3.208966">
<ele>451.3</ele>
<time>2013-05-08T09:56:59.000Z</time>
</trkpt>
<trkpt lat="44.122028" lon="3.208779">
<ele>451.6</ele>
<time>2013-05-08T09:57:00.000Z</time>
</trkpt>
<trkpt lat="44.121996" lon="3.208594">
<ele>451.9</ele>
<time>2013-05-08T09:57:01.000Z</time>
</trkpt>
<trkpt lat="44.121962" lon="3.208407">
<ele>452.5</ele>
<time>2013-05-08T09:57:02.000Z</time>
</trkpt>
<trkpt lat="44.121925" lon="3.208229">
<ele>452.6</ele>
<time>2013-05-08T09:57:03.000Z</time>
</trkpt>
<trkpt lat="44.121888" lon="3.208057">
<ele>452.5</ele>
<time>2013-05-08T09:57:04.000Z</time>
</trkpt>
<trkpt lat="44.12185" lon="3.207893">
<ele>452</ele>
<time>2013-05-08T09:57:05.000Z</time>
</trkpt>
<trkpt lat="44.121811" lon="3.207727">
<ele>451.1</ele>
<time>2013-05-08T09:57:06.000Z</time>
</trkpt>
<trkpt lat="44.121766" lon="3.207544">
<ele>450.5</ele>
<time>2013-05-08T09:57:07.000Z</time>
</trkpt>
<trkpt lat="44.121723" lon="3.207382">
<ele>449.9</ele>
<time>2013-05-08T09:57:08.000Z</time>
</trkpt>
<trkpt lat="44.121679" lon="3.20722">
<ele>449.3</ele>
<time>2013-05-08T09:57:09.000Z</time>
</trkpt>
<trkpt lat="44.121627" lon="3.207054">
<ele>448.8</ele>
<time>2013-05-08T09:57:10.000Z</time>
</trkpt>
<trkpt lat="44.121577" lon="3.206887">
<ele>448.4</ele>
<time>2013-05-08T09:57:11.000Z</time>
</trkpt>
<trkpt lat="44.121534" lon="3.206718">
<ele>448.4</ele>
<time>2013-05-08T09:57:12.000Z</time>
</trkpt>
<trkpt lat="44.121495" lon="3.206557">
<ele>448.2</ele>
<time>2013-05-08T09:57:13.000Z</time>
</trkpt>
<trkpt lat="44.121461" lon="3.206395">
<ele>448.1</ele>
<time>2013-05-08T09:57:14.000Z</time>
</trkpt>
<trkpt lat="44.121434" lon="3.206227">
<ele>447.9</ele>
<time>2013-05-08T09:57:15.000Z</time>
</trkpt>
<trkpt lat="44.121416" lon="3.206066">
<ele>448</ele>
<time>2013-05-08T09:57:16.000Z</time>
</trkpt>
<trkpt lat="44.121404" lon="3.205903">
<ele>448.1</ele>
<time>2013-05-08T09:57:17.000Z</time>
</trkpt>
<trkpt lat="44.121401" lon="3.205738">
<ele>448.2</ele>
<time>2013-05-08T09:57:18.000Z</time>
</trkpt>
<trkpt lat="44.121424" lon="3.205577">
<ele>448.5</ele>
<time>2013-05-08T09:57:19.000Z</time>
</trkpt>
<trkpt lat="44.121455" lon="3.205417">
<ele>448.6</ele>
<time>2013-05-08T09:57:20.000Z</time>
</trkpt>
<trkpt lat="44.121495" lon="3.205254">
<ele>448.7</ele>
<time>2013-05-08T09:57:21.000Z</time>
</trkpt>
<trkpt lat="44.121543" lon="3.205092">
<ele>448.7</ele>
<time>2013-05-08T09:57:22.000Z</time>
</trkpt>
<trkpt lat="44.121599" lon="3.204913">
<ele>448.7</ele>
<time>2013-05-08T09:57:23.000Z</time>
</trkpt>
<trkpt lat="44.121663" lon="3.204734">
<ele>448.5</ele>
<time>2013-05-08T09:57:24.000Z</time>
</trkpt>
<trkpt lat="44.121726" lon="3.204552">
<ele>448.1</ele>
<time>2013-05-08T09:57:25.000Z</time>
</trkpt>
<trkpt lat="44.121788" lon="3.204373">
<ele>447.9</ele>
<time>2013-05-08T09:57:26.000Z</time>
</trkpt>
<trkpt lat="44.121848" lon="3.204201">
<ele>447.8</ele>
<time>2013-05-08T09:57:27.000Z</time>
</trkpt>
<trkpt lat="44.121909" lon="3.204028">
<ele>447.7</ele>
<time>2013-05-08T09:57:28.000Z</time>
</trkpt>
<trkpt lat="44.121971" lon="3.203861">
<ele>447.7</ele>
<time>2013-05-08T09:57:29.000Z</time>
</trkpt>
<trkpt lat="44.122033" lon="3.203695">
<ele>447.7</ele>
<time>2013-05-08T09:57:30.000Z</time>
</trkpt>
<trkpt lat="44.122094" lon="3.203527">
<ele>447.5</ele>
<time>2013-05-08T09:57:31.000Z</time>
</trkpt>
<trkpt lat="44.122154" lon="3.203363">
<ele>447.5</ele>
<time>2013-05-08T09:57:32.000Z</time>
</trkpt>
<trkpt lat="44.122214" lon="3.203196">
<ele>447.5</ele>
<time>2013-05-08T09:57:33.000Z</time>
</trkpt>
<trkpt lat="44.122272" lon="3.203033">
<ele>447.5</ele>
<time>2013-05-08T09:57:34.000Z</time>
</trkpt>
<trkpt lat="44.122324" lon="3.202866">
<ele>447.6</ele>
<time>2013-05-08T09:57:35.000Z</time>
</trkpt>
<trkpt lat="44.122369" lon="3.202697">
<ele>447.7</ele>
<time>2013-05-08T09:57:36.000Z</time>
</trkpt>
<trkpt lat="44.122406" lon="3.202526">
<ele>447.7</ele>
<time>2013-05-08T09:57:37.000Z</time>
</trkpt>
<trkpt lat="44.122432" lon="3.20236">
<ele>447.6</ele>
<time>2013-05-08T09:57:38.000Z</time>
</trkpt>
<trkpt lat="44.12245" lon="3.202187">
<ele>447.7</ele>
<time>2013-05-08T09:57:39.000Z</time>
</trkpt>
<trkpt lat="44.122462" lon="3.202009">
<ele>447.8</ele>
<time>2013-05-08T09:57:40.000Z</time>
</trkpt>
<trkpt lat="44.12247" lon="3.201826">
<ele>447.8</ele>
<time>2013-05-08T09:57:41.000Z</time>
</trkpt>
<trkpt lat="44.122476" lon="3.201645">
<ele>447.8</ele>
<time>2013-05-08T09:57:42.000Z</time>
</trkpt>
<trkpt lat="44.122478" lon="3.201465">
<ele>447.8</ele>
<time>2013-05-08T09:57:43.000Z</time>
</trkpt>
<trkpt lat="44.122482" lon="3.201286">
<ele>447.8</ele>
<time>2013-05-08T09:57:44.000Z</time>
</trkpt>
<trkpt lat="44.122482" lon="3.201104">
<ele>447.9</ele>
<time>2013-05-08T09:57:45.000Z</time>
</trkpt>
<trkpt lat="44.122483" lon="3.200921">
<ele>448</ele>
<time>2013-05-08T09:57:46.000Z</time>
</trkpt>
<trkpt lat="44.122485" lon="3.200741">
<ele>448.2</ele>
<time>2013-05-08T09:57:47.000Z</time>
</trkpt>
<trkpt lat="44.122487" lon="3.200567">
<ele>448.5</ele>
<time>2013-05-08T09:57:48.000Z</time>
</trkpt>
<trkpt lat="44.122493" lon="3.200384">
<ele>449</ele>
<time>2013-05-08T09:57:49.000Z</time>
</trkpt>
<trkpt lat="44.122499" lon="3.200204">
<ele>449.4</ele>
<time>2013-05-08T09:57:50.000Z</time>
</trkpt>
<trkpt lat="44.122509" lon="3.200023">
<ele>449.8</ele>
<time>2013-05-08T09:57:51.000Z</time>
</trkpt>
<trkpt lat="44.122521" lon="3.199845">
<ele>449.8</ele>
<time>2013-05-08T09:57:52.000Z</time>
</trkpt>
<trkpt lat="44.122531" lon="3.199661">
<ele>449.8</ele>
<time>2013-05-08T09:57:53.000Z</time>
</trkpt>
<trkpt lat="44.122542" lon="3.199473">
<ele>449.6</ele>
<time>2013-05-08T09:57:54.000Z</time>
</trkpt>
<trkpt lat="44.122554" lon="3.199291">
<ele>449.3</ele>
<time>2013-05-08T09:57:55.000Z</time>
</trkpt>
<trkpt lat="44.122568" lon="3.199107">
<ele>449.1</ele>
<time>2013-05-08T09:57:56.000Z</time>
</trkpt>
<trkpt lat="44.122585" lon="3.198929">
<ele>448.9</ele>
<time>2013-05-08T09:57:57.000Z</time>
</trkpt>
<trkpt lat="44.122605" lon="3.198749">
<ele>448.9</ele>
<time>2013-05-08T09:57:58.000Z</time>
</trkpt>
<trkpt lat="44.122624" lon="3.198563">
<ele>449</ele>
<time>2013-05-08T09:57:59.000Z</time>
</trkpt>
<trkpt lat="44.122643" lon="3.19838">
<ele>449.3</ele>
<time>2013-05-08T09:58:00.000Z</time>
</trkpt>
<trkpt lat="44.122661" lon="3.198195">
<ele>449.6</ele>
<time>2013-05-08T09:58:01.000Z</time>
</trkpt>
<trkpt lat="44.122685" lon="3.198015">
<ele>449.9</ele>
<time>2013-05-08T09:58:02.000Z</time>
</trkpt>
<trkpt lat="44.122711" lon="3.197836">
<ele>450.2</ele>
<time>2013-05-08T09:58:03.000Z</time>
</trkpt>
<trkpt lat="44.12274" lon="3.19766">
<ele>450.3</ele>
<time>2013-05-08T09:58:04.000Z</time>
</trkpt>
<trkpt lat="44.12277" lon="3.197477">
<ele>450.3</ele>
<time>2013-05-08T09:58:05.000Z</time>
</trkpt>
<trkpt lat="44.1228" lon="3.197298">
<ele>450.3</ele>
<time>2013-05-08T09:58:06.000Z</time>
</trkpt>
<trkpt lat="44.122824" lon="3.197115">
<ele>450.3</ele>
<time>2013-05-08T09:58:07.000Z</time>
</trkpt>
<trkpt lat="44.122838" lon="3.196918">
<ele>450.3</ele>
<time>2013-05-08T09:58:08.000Z</time>
</trkpt>
<trkpt lat="44.122843" lon="3.19672">
<ele>450.1</ele>
<time>2013-05-08T09:58:09.000Z</time>
</trkpt>
<trkpt lat="44.122838" lon="3.196526">
<ele>449.7</ele>
<time>2013-05-08T09:58:10.000Z</time>
</trkpt>
<trkpt lat="44.122829" lon="3.196336">
<ele>449.2</ele>
<time>2013-05-08T09:58:11.000Z</time>
</trkpt>
<trkpt lat="44.122815" lon="3.196142">
<ele>449</ele>
<time>2013-05-08T09:58:12.000Z</time>
</trkpt>
<trkpt lat="44.122799" lon="3.195961">
<ele>448.8</ele>
<time>2013-05-08T09:58:13.000Z</time>
</trkpt>
<trkpt lat="44.122777" lon="3.195777">
<ele>448.9</ele>
<time>2013-05-08T09:58:14.000Z</time>
</trkpt>
<trkpt lat="44.122748" lon="3.195599">
<ele>448.9</ele>
<time>2013-05-08T09:58:15.000Z</time>
</trkpt>
<trkpt lat="44.122708" lon="3.19543">
<ele>449.1</ele>
<time>2013-05-08T09:58:16.000Z</time>
</trkpt>
<trkpt lat="44.122659" lon="3.195249">
<ele>449.3</ele>
<time>2013-05-08T09:58:17.000Z</time>
</trkpt>
<trkpt lat="44.122601" lon="3.195061">
<ele>449</ele>
<time>2013-05-08T09:58:18.000Z</time>
</trkpt>
<trkpt lat="44.122543" lon="3.194881">
<ele>448.7</ele>
<time>2013-05-08T09:58:19.000Z</time>
</trkpt>
<trkpt lat="44.122484" lon="3.194708">
<ele>448.2</ele>
<time>2013-05-08T09:58:20.000Z</time>
</trkpt>
<trkpt lat="44.122423" lon="3.194538">
<ele>447.4</ele>
<time>2013-05-08T09:58:21.000Z</time>
</trkpt>
<trkpt lat="44.122355" lon="3.194366">
<ele>446.6</ele>
<time>2013-05-08T09:58:22.000Z</time>
</trkpt>
<trkpt lat="44.122283" lon="3.194196">
<ele>445.8</ele>
<time>2013-05-08T09:58:23.000Z</time>
</trkpt>
<trkpt lat="44.122205" lon="3.194016">
<ele>445</ele>
<time>2013-05-08T09:58:24.000Z</time>
</trkpt>
<trkpt lat="44.122122" lon="3.193837">
<ele>444.3</ele>
<time>2013-05-08T09:58:25.000Z</time>
</trkpt>
<trkpt lat="44.122039" lon="3.193669">
<ele>443.6</ele>
<time>2013-05-08T09:58:26.000Z</time>
</trkpt>
<trkpt lat="44.12195" lon="3.1935">
<ele>442.9</ele>
<time>2013-05-08T09:58:27.000Z</time>
</trkpt>
<trkpt lat="44.12186" lon="3.193338">
<ele>442.1</ele>
<time>2013-05-08T09:58:28.000Z</time>
</trkpt>
<trkpt lat="44.121767" lon="3.193176">
<ele>441.2</ele>
<time>2013-05-08T09:58:29.000Z</time>
</trkpt>
<trkpt lat="44.121678" lon="3.193011">
<ele>440.2</ele>
<time>2013-05-08T09:58:30.000Z</time>
</trkpt>
<trkpt lat="44.121584" lon="3.192852">
<ele>439.3</ele>
<time>2013-05-08T09:58:31.000Z</time>
</trkpt>
<trkpt lat="44.12149" lon="3.192694">
<ele>438.8</ele>
<time>2013-05-08T09:58:32.000Z</time>
</trkpt>
<trkpt lat="44.121388" lon="3.192541">
<ele>438.4</ele>
<time>2013-05-08T09:58:33.000Z</time>
</trkpt>
<trkpt lat="44.121283" lon="3.19239">
<ele>438.2</ele>
<time>2013-05-08T09:58:34.000Z</time>
</trkpt>
<trkpt lat="44.121176" lon="3.192237">
<ele>438.1</ele>
<time>2013-05-08T09:58:35.000Z</time>
</trkpt>
<trkpt lat="44.121071" lon="3.19208">
<ele>437.9</ele>
<time>2013-05-08T09:58:36.000Z</time>
</trkpt>
<trkpt lat="44.120981" lon="3.191919">
<ele>437.7</ele>
<time>2013-05-08T09:58:37.000Z</time>
</trkpt>
<trkpt lat="44.120931" lon="3.191728">
<ele>437.4</ele>
<time>2013-05-08T09:58:38.000Z</time>
</trkpt>
<trkpt lat="44.120888" lon="3.191533">
<ele>437.5</ele>
<time>2013-05-08T09:58:39.000Z</time>
</trkpt>
<trkpt lat="44.12089" lon="3.19134">
<ele>437.7</ele>
<time>2013-05-08T09:58:40.000Z</time>
</trkpt>
<trkpt lat="44.1209" lon="3.191157">
<ele>438</ele>
<time>2013-05-08T09:58:41.000Z</time>
</trkpt>
<trkpt lat="44.120947" lon="3.19099">
<ele>438.4</ele>
<time>2013-05-08T09:58:42.000Z</time>
</trkpt>
<trkpt lat="44.121001" lon="3.19081">
<ele>438.9</ele>
<time>2013-05-08T09:58:43.000Z</time>
</trkpt>
<trkpt lat="44.121055" lon="3.190633">
<ele>439.4</ele>
<time>2013-05-08T09:58:44.000Z</time>
</trkpt>
<trkpt lat="44.121116" lon="3.190456">
<ele>439.9</ele>
<time>2013-05-08T09:58:45.000Z</time>
</trkpt>
<trkpt lat="44.12118" lon="3.190271">
<ele>440.4</ele>
<time>2013-05-08T09:58:46.000Z</time>
</trkpt>
<trkpt lat="44.121247" lon="3.190073">
<ele>440.9</ele>
<time>2013-05-08T09:58:47.000Z</time>
</trkpt>
<trkpt lat="44.121313" lon="3.189866">
<ele>441.3</ele>
<time>2013-05-08T09:58:48.000Z</time>
</trkpt>
<trkpt lat="44.121374" lon="3.189641">
<ele>441.7</ele>
<time>2013-05-08T09:58:49.000Z</time>
</trkpt>
<trkpt lat="44.121425" lon="3.189404">
<ele>441.9</ele>
<time>2013-05-08T09:58:50.000Z</time>
</trkpt>
<trkpt lat="44.121423" lon="3.189137">
<ele>442.1</ele>
<time>2013-05-08T09:58:51.000Z</time>
</trkpt>
<trkpt lat="44.121404" lon="3.188865">
<ele>442.1</ele>
<time>2013-05-08T09:58:52.000Z</time>
</trkpt>
<trkpt lat="44.121364" lon="3.188582">
<ele>441.9</ele>
<time>2013-05-08T09:58:53.000Z</time>
</trkpt>
<trkpt lat="44.121305" lon="3.188289">
<ele>441.3</ele>
<time>2013-05-08T09:58:54.000Z</time>
</trkpt>
<trkpt lat="44.121221" lon="3.187978">
<ele>441.3</ele>
<time>2013-05-08T09:58:55.000Z</time>
</trkpt>
<trkpt lat="44.121107" lon="3.187674">
<ele>441.3</ele>
<time>2013-05-08T09:58:56.000Z</time>
</trkpt>
<trkpt lat="44.120985" lon="3.187385">
<ele>441.2</ele>
<time>2013-05-08T09:58:57.000Z</time>
</trkpt>
<trkpt lat="44.120852" lon="3.1871">
<ele>440.9</ele>
<time>2013-05-08T09:58:58.000Z</time>
</trkpt>
<trkpt lat="44.120717" lon="3.186815">
<ele>440.5</ele>
<time>2013-05-08T09:58:59.000Z</time>
</trkpt>
<trkpt lat="44.120588" lon="3.186525">
<ele>440</ele>
<time>2013-05-08T09:59:00.000Z</time>
</trkpt>
<trkpt lat="44.120472" lon="3.186226">
<ele>439.4</ele>
<time>2013-05-08T09:59:01.000Z</time>
</trkpt>
<trkpt lat="44.120371" lon="3.185916">
<ele>439.1</ele>
<time>2013-05-08T09:59:02.000Z</time>
</trkpt>
<trkpt lat="44.120291" lon="3.185595">
<ele>438.6</ele>
<time>2013-05-08T09:59:03.000Z</time>
</trkpt>
<trkpt lat="44.120212" lon="3.185275">
<ele>438.4</ele>
<time>2013-05-08T09:59:04.000Z</time>
</trkpt>
<trkpt lat="44.120144" lon="3.184956">
<ele>438.1</ele>
<time>2013-05-08T09:59:05.000Z</time>
</trkpt>
<trkpt lat="44.120097" lon="3.184635">
<ele>438.5</ele>
<time>2013-05-08T09:59:06.000Z</time>
</trkpt>
<trkpt lat="44.120014" lon="3.18433">
<ele>439</ele>
<time>2013-05-08T09:59:07.000Z</time>
</trkpt>
<trkpt lat="44.119912" lon="3.184057">
<ele>440.3</ele>
<time>2013-05-08T09:59:08.000Z</time>
</trkpt>
<trkpt lat="44.119792" lon="3.183775">
<ele>441.4</ele>
<time>2013-05-08T09:59:09.000Z</time>
</trkpt>
<trkpt lat="44.119666" lon="3.183481">
<ele>442.1</ele>
<time>2013-05-08T09:59:10.000Z</time>
</trkpt>
<trkpt lat="44.11954" lon="3.183174">
<ele>441.8</ele>
<time>2013-05-08T09:59:11.000Z</time>
</trkpt>
<trkpt lat="44.11941" lon="3.182874">
<ele>441</ele>
<time>2013-05-08T09:59:12.000Z</time>
</trkpt>
<trkpt lat="44.119269" lon="3.182585">
<ele>440.2</ele>
<time>2013-05-08T09:59:13.000Z</time>
</trkpt>
<trkpt lat="44.119109" lon="3.182314">
<ele>439.4</ele>
<time>2013-05-08T09:59:14.000Z</time>
</trkpt>
<trkpt lat="44.118935" lon="3.182059">
<ele>438.4</ele>
<time>2013-05-08T09:59:15.000Z</time>
</trkpt>
<trkpt lat="44.118759" lon="3.181794">
<ele>437.7</ele>
<time>2013-05-08T09:59:16.000Z</time>
</trkpt>
<trkpt lat="44.118582" lon="3.181528">
<ele>436.7</ele>
<time>2013-05-08T09:59:17.000Z</time>
</trkpt>
<trkpt lat="44.11841" lon="3.181259">
<ele>435.8</ele>
<time>2013-05-08T09:59:18.000Z</time>
</trkpt>
<trkpt lat="44.118248" lon="3.180984">
<ele>435</ele>
<time>2013-05-08T09:59:19.000Z</time>
</trkpt>
<trkpt lat="44.11811" lon="3.180693">
<ele>434.4</ele>
<time>2013-05-08T09:59:20.000Z</time>
</trkpt>
<trkpt lat="44.117993" lon="3.180394">
<ele>433.8</ele>
<time>2013-05-08T09:59:21.000Z</time>
</trkpt>
<trkpt lat="44.117878" lon="3.180094">
<ele>433.4</ele>
<time>2013-05-08T09:59:22.000Z</time>
</trkpt>
<trkpt lat="44.117756" lon="3.179807">
<ele>432.8</ele>
<time>2013-05-08T09:59:23.000Z</time>
</trkpt>
<trkpt lat="44.117621" lon="3.179526">
<ele>432.1</ele>
<time>2013-05-08T09:59:24.000Z</time>
</trkpt>
<trkpt lat="44.117482" lon="3.179258">
<ele>431.5</ele>
<time>2013-05-08T09:59:25.000Z</time>
</trkpt>
<trkpt lat="44.117323" lon="3.179021">
<ele>430.9</ele>
<time>2013-05-08T09:59:26.000Z</time>
</trkpt>
<trkpt lat="44.117154" lon="3.178817">
<ele>430.6</ele>
<time>2013-05-08T09:59:27.000Z</time>
</trkpt>
<trkpt lat="44.116961" lon="3.178639">
<ele>430</ele>
<time>2013-05-08T09:59:28.000Z</time>
</trkpt>
<trkpt lat="44.116774" lon="3.178454">
<ele>429.3</ele>
<time>2013-05-08T09:59:29.000Z</time>
</trkpt>
<trkpt lat="44.116595" lon="3.17825">
<ele>428.5</ele>
<time>2013-05-08T09:59:30.000Z</time>
</trkpt>
<trkpt lat="44.116431" lon="3.178021">
<ele>428.1</ele>
<time>2013-05-08T09:59:31.000Z</time>
</trkpt>
<trkpt lat="44.116288" lon="3.177758">
<ele>428.1</ele>
<time>2013-05-08T09:59:32.000Z</time>
</trkpt>
<trkpt lat="44.116152" lon="3.177482">
<ele>428.4</ele>
<time>2013-05-08T09:59:33.000Z</time>
</trkpt>
<trkpt lat="44.116016" lon="3.177201">
<ele>429</ele>
<time>2013-05-08T09:59:34.000Z</time>
</trkpt>
<trkpt lat="44.115873" lon="3.176915">
<ele>429.5</ele>
<time>2013-05-08T09:59:35.000Z</time>
</trkpt>
<trkpt lat="44.11573" lon="3.176628">
<ele>430</ele>
<time>2013-05-08T09:59:36.000Z</time>
</trkpt>
<trkpt lat="44.115591" lon="3.17635">
<ele>430.4</ele>
<time>2013-05-08T09:59:37.000Z</time>
</trkpt>
<trkpt lat="44.115467" lon="3.176065">
<ele>430.7</ele>
<time>2013-05-08T09:59:38.000Z</time>
</trkpt>
<trkpt lat="44.115344" lon="3.175782">
<ele>430.7</ele>
<time>2013-05-08T09:59:39.000Z</time>
</trkpt>
<trkpt lat="44.115223" lon="3.175487">
<ele>431.2</ele>
<time>2013-05-08T09:59:40.000Z</time>
</trkpt>
<trkpt lat="44.115104" lon="3.175198">
<ele>431.8</ele>
<time>2013-05-08T09:59:41.000Z</time>
</trkpt>
<trkpt lat="44.114989" lon="3.174919">
<ele>432.4</ele>
<time>2013-05-08T09:59:42.000Z</time>
</trkpt>
<trkpt lat="44.114891" lon="3.174656">
<ele>433.2</ele>
<time>2013-05-08T09:59:43.000Z</time>
</trkpt>
<trkpt lat="44.114807" lon="3.174428">
<ele>434.2</ele>
<time>2013-05-08T09:59:44.000Z</time>
</trkpt>
<trkpt lat="44.114748" lon="3.174214">
<ele>435.5</ele>
<time>2013-05-08T09:59:45.000Z</time>
</trkpt>
<trkpt lat="44.114696" lon="3.174019">
<ele>436.5</ele>
<time>2013-05-08T09:59:46.000Z</time>
</trkpt>
<trkpt lat="44.114652" lon="3.173815">
<ele>437</ele>
<time>2013-05-08T09:59:47.000Z</time>
</trkpt>
<trkpt lat="44.114616" lon="3.173593">
<ele>437.6</ele>
<time>2013-05-08T09:59:48.000Z</time>
</trkpt>
<trkpt lat="44.114583" lon="3.173354">
<ele>438.1</ele>
<time>2013-05-08T09:59:49.000Z</time>
</trkpt>
<trkpt lat="44.114544" lon="3.173094">
<ele>438.6</ele>
<time>2013-05-08T09:59:50.000Z</time>
</trkpt>
<trkpt lat="44.114498" lon="3.172809">
<ele>438.8</ele>
<time>2013-05-08T09:59:51.000Z</time>
</trkpt>
<trkpt lat="44.114453" lon="3.172497">
<ele>438.9</ele>
<time>2013-05-08T09:59:52.000Z</time>
</trkpt>
<trkpt lat="44.11445" lon="3.172179">
<ele>439.5</ele>
<time>2013-05-08T09:59:53.000Z</time>
</trkpt>
<trkpt lat="44.114452" lon="3.171853">
<ele>440.4</ele>
<time>2013-05-08T09:59:54.000Z</time>
</trkpt>
<trkpt lat="44.114449" lon="3.171513">
<ele>440.9</ele>
<time>2013-05-08T09:59:55.000Z</time>
</trkpt>
<trkpt lat="44.114436" lon="3.171165">
<ele>441.5</ele>
<time>2013-05-08T09:59:56.000Z</time>
</trkpt>
<trkpt lat="44.114422" lon="3.170813">
<ele>442.2</ele>
<time>2013-05-08T09:59:57.000Z</time>
</trkpt>
<trkpt lat="44.114408" lon="3.170474">
<ele>443</ele>
<time>2013-05-08T09:59:58.000Z</time>
</trkpt>
<trkpt lat="44.1144" lon="3.170144">
<ele>443.4</ele>
<time>2013-05-08T09:59:59.000Z</time>
</trkpt>
<trkpt lat="44.114366" lon="3.16982">
<ele>443.8</ele>
<time>2013-05-08T10:00:00.000Z</time>
</trkpt>
<trkpt lat="44.114304" lon="3.1695">
<ele>443.8</ele>
<time>2013-05-08T10:00:01.000Z</time>
</trkpt>
<trkpt lat="44.11423" lon="3.169196">
<ele>443.9</ele>
<time>2013-05-08T10:00:02.000Z</time>
</trkpt>
<trkpt lat="44.114154" lon="3.168899">
<ele>444</ele>
<time>2013-05-08T10:00:03.000Z</time>
</trkpt>
<trkpt lat="44.114077" lon="3.168604">
<ele>444.1</ele>
<time>2013-05-08T10:00:04.000Z</time>
</trkpt>
<trkpt lat="44.113996" lon="3.168324">
<ele>444.2</ele>
<time>2013-05-08T10:00:05.000Z</time>
</trkpt>
<trkpt lat="44.113902" lon="3.168066">
<ele>444.2</ele>
<time>2013-05-08T10:00:06.000Z</time>
</trkpt>
<trkpt lat="44.113792" lon="3.167809">
<ele>444.5</ele>
<time>2013-05-08T10:00:07.000Z</time>
</trkpt>
<trkpt lat="44.11366" lon="3.167579">
<ele>444.8</ele>
<time>2013-05-08T10:00:08.000Z</time>
</trkpt>
<trkpt lat="44.113516" lon="3.167369">
<ele>444.7</ele>
<time>2013-05-08T10:00:09.000Z</time>
</trkpt>
<trkpt lat="44.113366" lon="3.167206">
<ele>444.3</ele>
<time>2013-05-08T10:00:10.000Z</time>
</trkpt>
<trkpt lat="44.113194" lon="3.167109">
<ele>444.1</ele>
<time>2013-05-08T10:00:11.000Z</time>
</trkpt>
<trkpt lat="44.113018" lon="3.167039">
<ele>443.7</ele>
<time>2013-05-08T10:00:12.000Z</time>
</trkpt>
<trkpt lat="44.112823" lon="3.166993">
<ele>443.4</ele>
<time>2013-05-08T10:00:13.000Z</time>
</trkpt>
<trkpt lat="44.112626" lon="3.166908">
<ele>442.8</ele>
<time>2013-05-08T10:00:14.000Z</time>
</trkpt>
<trkpt lat="44.11243" lon="3.166804">
<ele>442</ele>
<time>2013-05-08T10:00:15.000Z</time>
</trkpt>
<trkpt lat="44.112231" lon="3.166692">
<ele>441.2</ele>
<time>2013-05-08T10:00:16.000Z</time>
</trkpt>
<trkpt lat="44.112036" lon="3.166561">
<ele>440.6</ele>
<time>2013-05-08T10:00:17.000Z</time>
</trkpt>
<trkpt lat="44.111857" lon="3.166393">
<ele>440.1</ele>
<time>2013-05-08T10:00:18.000Z</time>
</trkpt>
<trkpt lat="44.1117" lon="3.166192">
<ele>439.7</ele>
<time>2013-05-08T10:00:19.000Z</time>
</trkpt>
<trkpt lat="44.111554" lon="3.165962">
<ele>439.4</ele>
<time>2013-05-08T10:00:20.000Z</time>
</trkpt>
<trkpt lat="44.111408" lon="3.165732">
<ele>439.5</ele>
<time>2013-05-08T10:00:21.000Z</time>
</trkpt>
<trkpt lat="44.111238" lon="3.165525">
<ele>439.4</ele>
<time>2013-05-08T10:00:22.000Z</time>
</trkpt>
<trkpt lat="44.111065" lon="3.165314">
<ele>439.2</ele>
<time>2013-05-08T10:00:23.000Z</time>
</trkpt>
<trkpt lat="44.110908" lon="3.165069">
<ele>439</ele>
<time>2013-05-08T10:00:24.000Z</time>
</trkpt>
<trkpt lat="44.11076" lon="3.164812">
<ele>438.6</ele>
<time>2013-05-08T10:00:25.000Z</time>
</trkpt>
<trkpt lat="44.110615" lon="3.164544">
<ele>438.2</ele>
<time>2013-05-08T10:00:26.000Z</time>
</trkpt>
<trkpt lat="44.110477" lon="3.164266">
<ele>437.8</ele>
<time>2013-05-08T10:00:27.000Z</time>
</trkpt>
<trkpt lat="44.110355" lon="3.163971">
<ele>437.4</ele>
<time>2013-05-08T10:00:28.000Z</time>
</trkpt>
<trkpt lat="44.110239" lon="3.163675">
<ele>436.9</ele>
<time>2013-05-08T10:00:29.000Z</time>
</trkpt>
<trkpt lat="44.110126" lon="3.163389">
<ele>436.3</ele>
<time>2013-05-08T10:00:30.000Z</time>
</trkpt>
<trkpt lat="44.110005" lon="3.16312">
<ele>436</ele>
<time>2013-05-08T10:00:31.000Z</time>
</trkpt>
<trkpt lat="44.109879" lon="3.162859">
<ele>436</ele>
<time>2013-05-08T10:00:32.000Z</time>
</trkpt>
<trkpt lat="44.109749" lon="3.162602">
<ele>436</ele>
<time>2013-05-08T10:00:33.000Z</time>
</trkpt>
<trkpt lat="44.109607" lon="3.162358">
<ele>436.1</ele>
<time>2013-05-08T10:00:34.000Z</time>
</trkpt>
<trkpt lat="44.109451" lon="3.162131">
<ele>436.2</ele>
<time>2013-05-08T10:00:35.000Z</time>
</trkpt>
<trkpt lat="44.109285" lon="3.161915">
<ele>436.6</ele>
<time>2013-05-08T10:00:36.000Z</time>
</trkpt>
<trkpt lat="44.109109" lon="3.161708">
<ele>436.9</ele>
<time>2013-05-08T10:00:37.000Z</time>
</trkpt>
<trkpt lat="44.108943" lon="3.161476">
<ele>436.9</ele>
<time>2013-05-08T10:00:38.000Z</time>
</trkpt>
<trkpt lat="44.108792" lon="3.161232">
<ele>436.5</ele>
<time>2013-05-08T10:00:39.000Z</time>
</trkpt>
<trkpt lat="44.108648" lon="3.160981">
<ele>436.2</ele>
<time>2013-05-08T10:00:40.000Z</time>
</trkpt>
<trkpt lat="44.108508" lon="3.160729">
<ele>436</ele>
<time>2013-05-08T10:00:41.000Z</time>
</trkpt>
<trkpt lat="44.108378" lon="3.160461">
<ele>435.8</ele>
<time>2013-05-08T10:00:42.000Z</time>
</trkpt>
<trkpt lat="44.10826" lon="3.160191">
<ele>435.7</ele>
<time>2013-05-08T10:00:43.000Z</time>
</trkpt>
<trkpt lat="44.108156" lon="3.159923">
<ele>435.9</ele>
<time>2013-05-08T10:00:44.000Z</time>
</trkpt>
<trkpt lat="44.108071" lon="3.159666">
<ele>436.1</ele>
<time>2013-05-08T10:00:45.000Z</time>
</trkpt>
<trkpt lat="44.108019" lon="3.159436">
<ele>436.4</ele>
<time>2013-05-08T10:00:46.000Z</time>
</trkpt>
<trkpt lat="44.108004" lon="3.159222">
<ele>436.7</ele>
<time>2013-05-08T10:00:47.000Z</time>
</trkpt>
<trkpt lat="44.10803" lon="3.159035">
<ele>436.9</ele>
<time>2013-05-08T10:00:48.000Z</time>
</trkpt>
<trkpt lat="44.108074" lon="3.158853">
<ele>437</ele>
<time>2013-05-08T10:00:49.000Z</time>
</trkpt>
<trkpt lat="44.108147" lon="3.158682">
<ele>437.2</ele>
<time>2013-05-08T10:00:50.000Z</time>
</trkpt>
<trkpt lat="44.108221" lon="3.158509">
<ele>437.4</ele>
<time>2013-05-08T10:00:51.000Z</time>
</trkpt>
<trkpt lat="44.108288" lon="3.158341">
<ele>437.8</ele>
<time>2013-05-08T10:00:52.000Z</time>
</trkpt>
<trkpt lat="44.108344" lon="3.158169">
<ele>438.3</ele>
<time>2013-05-08T10:00:53.000Z</time>
</trkpt>
<trkpt lat="44.108388" lon="3.157994">
<ele>438.9</ele>
<time>2013-05-08T10:00:54.000Z</time>
</trkpt>
<trkpt lat="44.108421" lon="3.157817">
<ele>439.5</ele>
<time>2013-05-08T10:00:55.000Z</time>
</trkpt>
<trkpt lat="44.108447" lon="3.157634">
<ele>440.1</ele>
<time>2013-05-08T10:00:56.000Z</time>
</trkpt>
<trkpt lat="44.108466" lon="3.157445">
<ele>440.7</ele>
<time>2013-05-08T10:00:57.000Z</time>
</trkpt>
<trkpt lat="44.108477" lon="3.157249">
<ele>441.1</ele>
<time>2013-05-08T10:00:58.000Z</time>
</trkpt>
<trkpt lat="44.108481" lon="3.157027">
<ele>441.1</ele>
<time>2013-05-08T10:00:59.000Z</time>
</trkpt>
<trkpt lat="44.108476" lon="3.156807">
<ele>440.8</ele>
<time>2013-05-08T10:01:00.000Z</time>
</trkpt>
<trkpt lat="44.108462" lon="3.156583">
<ele>440.5</ele>
<time>2013-05-08T10:01:01.000Z</time>
</trkpt>
<trkpt lat="44.108445" lon="3.156371">
<ele>440.1</ele>
<time>2013-05-08T10:01:02.000Z</time>
</trkpt>
<trkpt lat="44.108417" lon="3.156162">
<ele>440</ele>
<time>2013-05-08T10:01:03.000Z</time>
</trkpt>
<trkpt lat="44.108344" lon="3.155965">
<ele>439.4</ele>
<time>2013-05-08T10:01:04.000Z</time>
</trkpt>
<trkpt lat="44.108264" lon="3.155763">
<ele>438.7</ele>
<time>2013-05-08T10:01:05.000Z</time>
</trkpt>
<trkpt lat="44.108165" lon="3.155545">
<ele>438</ele>
<time>2013-05-08T10:01:06.000Z</time>
</trkpt>
<trkpt lat="44.108056" lon="3.155337">
<ele>437.5</ele>
<time>2013-05-08T10:01:07.000Z</time>
</trkpt>
<trkpt lat="44.107945" lon="3.155133">
<ele>437.1</ele>
<time>2013-05-08T10:01:08.000Z</time>
</trkpt>
<trkpt lat="44.107828" lon="3.154929">
<ele>436.8</ele>
<time>2013-05-08T10:01:09.000Z</time>
</trkpt>
<trkpt lat="44.107709" lon="3.154716">
<ele>436.4</ele>
<time>2013-05-08T10:01:10.000Z</time>
</trkpt>
<trkpt lat="44.107594" lon="3.15451">
<ele>436.1</ele>
<time>2013-05-08T10:01:11.000Z</time>
</trkpt>
<trkpt lat="44.107482" lon="3.154312">
<ele>435.9</ele>
<time>2013-05-08T10:01:12.000Z</time>
</trkpt>
<trkpt lat="44.107373" lon="3.154109">
<ele>435.6</ele>
<time>2013-05-08T10:01:13.000Z</time>
</trkpt>
<trkpt lat="44.107268" lon="3.153909">
<ele>435.3</ele>
<time>2013-05-08T10:01:14.000Z</time>
</trkpt>
<trkpt lat="44.107175" lon="3.153708">
<ele>434.8</ele>
<time>2013-05-08T10:01:15.000Z</time>
</trkpt>
<trkpt lat="44.107086" lon="3.153505">
<ele>434.4</ele>
<time>2013-05-08T10:01:16.000Z</time>
</trkpt>
<trkpt lat="44.107003" lon="3.1533">
<ele>433.9</ele>
<time>2013-05-08T10:01:17.000Z</time>
</trkpt>
<trkpt lat="44.106921" lon="3.153095">
<ele>433.3</ele>
<time>2013-05-08T10:01:18.000Z</time>
</trkpt>
<trkpt lat="44.10684" lon="3.152893">
<ele>432.9</ele>
<time>2013-05-08T10:01:19.000Z</time>
</trkpt>
<trkpt lat="44.106759" lon="3.152688">
<ele>432.5</ele>
<time>2013-05-08T10:01:20.000Z</time>
</trkpt>
<trkpt lat="44.106679" lon="3.152483">
<ele>432.2</ele>
<time>2013-05-08T10:01:21.000Z</time>
</trkpt>
<trkpt lat="44.106601" lon="3.152281">
<ele>432</ele>
<time>2013-05-08T10:01:22.000Z</time>
</trkpt>
<trkpt lat="44.106521" lon="3.152077">
<ele>431.8</ele>
<time>2013-05-08T10:01:23.000Z</time>
</trkpt>
<trkpt lat="44.106444" lon="3.151869">
<ele>431.7</ele>
<time>2013-05-08T10:01:24.000Z</time>
</trkpt>
<trkpt lat="44.106368" lon="3.151661">
<ele>431.6</ele>
<time>2013-05-08T10:01:25.000Z</time>
</trkpt>
<trkpt lat="44.106291" lon="3.151452">
<ele>431.6</ele>
<time>2013-05-08T10:01:26.000Z</time>
</trkpt>
<trkpt lat="44.106221" lon="3.151243">
<ele>431.4</ele>
<time>2013-05-08T10:01:27.000Z</time>
</trkpt>
<trkpt lat="44.106158" lon="3.151036">
<ele>431.5</ele>
<time>2013-05-08T10:01:28.000Z</time>
</trkpt>
<trkpt lat="44.106096" lon="3.15081">
<ele>431.5</ele>
<time>2013-05-08T10:01:29.000Z</time>
</trkpt>
<trkpt lat="44.106039" lon="3.150574">
<ele>431.7</ele>
<time>2013-05-08T10:01:30.000Z</time>
</trkpt>
<trkpt lat="44.105987" lon="3.150312">
<ele>431.9</ele>
<time>2013-05-08T10:01:31.000Z</time>
</trkpt>
<trkpt lat="44.105941" lon="3.150039">
<ele>432.3</ele>
<time>2013-05-08T10:01:32.000Z</time>
</trkpt>
<trkpt lat="44.105916" lon="3.149746">
<ele>432.6</ele>
<time>2013-05-08T10:01:33.000Z</time>
</trkpt>
<trkpt lat="44.105907" lon="3.149438">
<ele>433</ele>
<time>2013-05-08T10:01:34.000Z</time>
</trkpt>
<trkpt lat="44.10591" lon="3.149127">
<ele>433.6</ele>
<time>2013-05-08T10:01:35.000Z</time>
</trkpt>
<trkpt lat="44.105935" lon="3.148812">
<ele>434.1</ele>
<time>2013-05-08T10:01:36.000Z</time>
</trkpt>
<trkpt lat="44.105975" lon="3.148506">
<ele>434.9</ele>
<time>2013-05-08T10:01:37.000Z</time>
</trkpt>
<trkpt lat="44.106028" lon="3.148218">
<ele>436.1</ele>
<time>2013-05-08T10:01:38.000Z</time>
</trkpt>
<trkpt lat="44.106088" lon="3.147934">
<ele>437.1</ele>
<time>2013-05-08T10:01:39.000Z</time>
</trkpt>
<trkpt lat="44.106161" lon="3.147661">
<ele>437.9</ele>
<time>2013-05-08T10:01:40.000Z</time>
</trkpt>
<trkpt lat="44.106233" lon="3.147397">
<ele>438.5</ele>
<time>2013-05-08T10:01:41.000Z</time>
</trkpt>
<trkpt lat="44.10631" lon="3.147141">
<ele>439.1</ele>
<time>2013-05-08T10:01:42.000Z</time>
</trkpt>
<trkpt lat="44.106378" lon="3.146884">
<ele>439.4</ele>
<time>2013-05-08T10:01:43.000Z</time>
</trkpt>
<trkpt lat="44.106443" lon="3.146632">
<ele>439.9</ele>
<time>2013-05-08T10:01:44.000Z</time>
</trkpt>
<trkpt lat="44.106508" lon="3.146394">
<ele>440.2</ele>
<time>2013-05-08T10:01:45.000Z</time>
</trkpt>
<trkpt lat="44.106574" lon="3.146166">
<ele>440.4</ele>
<time>2013-05-08T10:01:46.000Z</time>
</trkpt>
<trkpt lat="44.106651" lon="3.145947">
<ele>440.4</ele>
<time>2013-05-08T10:01:47.000Z</time>
</trkpt>
<trkpt lat="44.106733" lon="3.145732">
<ele>440.6</ele>
<time>2013-05-08T10:01:48.000Z</time>
</trkpt>
<trkpt lat="44.10682" lon="3.145527">
<ele>440.7</ele>
<time>2013-05-08T10:01:49.000Z</time>
</trkpt>
<trkpt lat="44.106912" lon="3.145329">
<ele>440.9</ele>
<time>2013-05-08T10:01:50.000Z</time>
</trkpt>
<trkpt lat="44.107003" lon="3.145147">
<ele>441.1</ele>
<time>2013-05-08T10:01:51.000Z</time>
</trkpt>
<trkpt lat="44.107089" lon="3.144968">
<ele>441</ele>
<time>2013-05-08T10:01:52.000Z</time>
</trkpt>
<trkpt lat="44.107172" lon="3.144791">
<ele>441.1</ele>
<time>2013-05-08T10:01:53.000Z</time>
</trkpt>
<trkpt lat="44.107253" lon="3.14462">
<ele>441.3</ele>
<time>2013-05-08T10:01:54.000Z</time>
</trkpt>
<trkpt lat="44.107334" lon="3.144458">
<ele>441.6</ele>
<time>2013-05-08T10:01:55.000Z</time>
</trkpt>
<trkpt lat="44.107414" lon="3.144303">
<ele>441.7</ele>
<time>2013-05-08T10:01:56.000Z</time>
</trkpt>
<trkpt lat="44.107494" lon="3.144144">
<ele>441.6</ele>
<time>2013-05-08T10:01:57.000Z</time>
</trkpt>
<trkpt lat="44.107576" lon="3.143985">
<ele>441.5</ele>
<time>2013-05-08T10:01:58.000Z</time>
</trkpt>
<trkpt lat="44.107657" lon="3.143827">
<ele>441.4</ele>
<time>2013-05-08T10:01:59.000Z</time>
</trkpt>
<trkpt lat="44.107736" lon="3.143667">
<ele>441.3</ele>
<time>2013-05-08T10:02:00.000Z</time>
</trkpt>
<trkpt lat="44.107815" lon="3.143506">
<ele>441.3</ele>
<time>2013-05-08T10:02:01.000Z</time>
</trkpt>
<trkpt lat="44.107893" lon="3.143345">
<ele>441.3</ele>
<time>2013-05-08T10:02:02.000Z</time>
</trkpt>
<trkpt lat="44.107972" lon="3.143184">
<ele>441.3</ele>
<time>2013-05-08T10:02:03.000Z</time>
</trkpt>
<trkpt lat="44.108053" lon="3.143025">
<ele>441.2</ele>
<time>2013-05-08T10:02:04.000Z</time>
</trkpt>
<trkpt lat="44.108134" lon="3.14287">
<ele>441.2</ele>
<time>2013-05-08T10:02:05.000Z</time>
</trkpt>
<trkpt lat="44.108217" lon="3.142719">
<ele>441.2</ele>
<time>2013-05-08T10:02:06.000Z</time>
</trkpt>
<trkpt lat="44.108299" lon="3.142569">
<ele>441.1</ele>
<time>2013-05-08T10:02:07.000Z</time>
</trkpt>
<trkpt lat="44.108383" lon="3.14242">
<ele>440.9</ele>
<time>2013-05-08T10:02:08.000Z</time>
</trkpt>
<trkpt lat="44.108467" lon="3.142268">
<ele>440.6</ele>
<time>2013-05-08T10:02:09.000Z</time>
</trkpt>
<trkpt lat="44.10855" lon="3.142119">
<ele>440.4</ele>
<time>2013-05-08T10:02:10.000Z</time>
</trkpt>
<trkpt lat="44.108631" lon="3.141972">
<ele>440.4</ele>
<time>2013-05-08T10:02:11.000Z</time>
</trkpt>
<trkpt lat="44.108711" lon="3.141829">
<ele>440.5</ele>
<time>2013-05-08T10:02:12.000Z</time>
</trkpt>
<trkpt lat="44.108792" lon="3.141686">
<ele>440.6</ele>
<time>2013-05-08T10:02:13.000Z</time>
</trkpt>
<trkpt lat="44.108874" lon="3.141545">
<ele>440.6</ele>
<time>2013-05-08T10:02:14.000Z</time>
</trkpt>
<trkpt lat="44.108956" lon="3.141405">
<ele>440.6</ele>
<time>2013-05-08T10:02:15.000Z</time>
</trkpt>
<trkpt lat="44.109036" lon="3.141268">
<ele>440.6</ele>
<time>2013-05-08T10:02:16.000Z</time>
</trkpt>
<trkpt lat="44.109114" lon="3.141127">
<ele>440.5</ele>
<time>2013-05-08T10:02:17.000Z</time>
</trkpt>
<trkpt lat="44.109192" lon="3.140986">
<ele>440.4</ele>
<time>2013-05-08T10:02:18.000Z</time>
</trkpt>
<trkpt lat="44.10927" lon="3.140844">
<ele>440.2</ele>
<time>2013-05-08T10:02:19.000Z</time>
</trkpt>
<trkpt lat="44.109339" lon="3.140703">
<ele>440</ele>
<time>2013-05-08T10:02:20.000Z</time>
</trkpt>
<trkpt lat="44.109402" lon="3.140551">
<ele>440.1</ele>
<time>2013-05-08T10:02:21.000Z</time>
</trkpt>
<trkpt lat="44.109413" lon="3.140367">
<ele>440.6</ele>
<time>2013-05-08T10:02:22.000Z</time>
</trkpt>
<trkpt lat="44.109395" lon="3.140182">
<ele>441.4</ele>
<time>2013-05-08T10:02:23.000Z</time>
</trkpt>
<trkpt lat="44.109373" lon="3.140018">
<ele>442.2</ele>
<time>2013-05-08T10:02:24.000Z</time>
</trkpt>
<trkpt lat="44.109323" lon="3.139862">
<ele>442.5</ele>
<time>2013-05-08T10:02:25.000Z</time>
</trkpt>
<trkpt lat="44.109272" lon="3.139706">
<ele>442.5</ele>
<time>2013-05-08T10:02:26.000Z</time>
</trkpt>
<trkpt lat="44.109252" lon="3.139536">
<ele>442.5</ele>
<time>2013-05-08T10:02:27.000Z</time>
</trkpt>
<trkpt lat="44.109234" lon="3.139376">
<ele>442.9</ele>
<time>2013-05-08T10:02:28.000Z</time>
</trkpt>
<trkpt lat="44.109217" lon="3.139202">
<ele>442.9</ele>
<time>2013-05-08T10:02:29.000Z</time>
</trkpt>
<trkpt lat="44.109199" lon="3.139022">
<ele>442.7</ele>
<time>2013-05-08T10:02:30.000Z</time>
</trkpt>
<trkpt lat="44.109175" lon="3.138848">
<ele>442.5</ele>
<time>2013-05-08T10:02:31.000Z</time>
</trkpt>
<trkpt lat="44.109147" lon="3.13868">
<ele>441.9</ele>
<time>2013-05-08T10:02:32.000Z</time>
</trkpt>
<trkpt lat="44.109116" lon="3.138541">
<ele>441.5</ele>
<time>2013-05-08T10:02:33.000Z</time>
</trkpt>
<trkpt lat="44.109047" lon="3.138416">
<ele>441.1</ele>
<time>2013-05-08T10:02:34.000Z</time>
</trkpt>
<trkpt lat="44.108967" lon="3.138293">
<ele>440.8</ele>
<time>2013-05-08T10:02:35.000Z</time>
</trkpt>
<trkpt lat="44.108862" lon="3.138205">
<ele>439.7</ele>
<time>2013-05-08T10:02:36.000Z</time>
</trkpt>
<trkpt lat="44.108761" lon="3.138146">
<ele>439.3</ele>
<time>2013-05-08T10:02:37.000Z</time>
</trkpt>
<trkpt lat="44.108648" lon="3.13812">
<ele>438.9</ele>
<time>2013-05-08T10:02:38.000Z</time>
</trkpt>
<trkpt lat="44.108533" lon="3.138094">
<ele>438.3</ele>
<time>2013-05-08T10:02:39.000Z</time>
</trkpt>
<trkpt lat="44.108416" lon="3.138072">
<ele>438</ele>
<time>2013-05-08T10:02:40.000Z</time>
</trkpt>
<trkpt lat="44.108291" lon="3.138043">
<ele>437.2</ele>
<time>2013-05-08T10:02:41.000Z</time>
</trkpt>
<trkpt lat="44.108183" lon="3.137979">
<ele>436.6</ele>
<time>2013-05-08T10:02:42.000Z</time>
</trkpt>
<trkpt lat="44.108085" lon="3.137873">
<ele>435.8</ele>
<time>2013-05-08T10:02:43.000Z</time>
</trkpt>
<trkpt lat="44.10801" lon="3.137738">
<ele>435.4</ele>
<time>2013-05-08T10:02:44.000Z</time>
</trkpt>
<trkpt lat="44.107947" lon="3.137595">
<ele>435.2</ele>
<time>2013-05-08T10:02:45.000Z</time>
</trkpt>
<trkpt lat="44.10795" lon="3.137439">
<ele>435</ele>
<time>2013-05-08T10:02:46.000Z</time>
</trkpt>
<trkpt lat="44.107992" lon="3.137285">
<ele>435.1</ele>
<time>2013-05-08T10:02:47.000Z</time>
</trkpt>
<trkpt lat="44.108052" lon="3.137114">
<ele>435</ele>
<time>2013-05-08T10:02:48.000Z</time>
</trkpt>
<trkpt lat="44.108127" lon="3.136937">
<ele>434.7</ele>
<time>2013-05-08T10:02:49.000Z</time>
</trkpt>
<trkpt lat="44.10821" lon="3.136763">
<ele>434.3</ele>
<time>2013-05-08T10:02:50.000Z</time>
</trkpt>
<trkpt lat="44.108296" lon="3.136602">
<ele>434</ele>
<time>2013-05-08T10:02:51.000Z</time>
</trkpt>
<trkpt lat="44.108382" lon="3.13645">
<ele>433.4</ele>
<time>2013-05-08T10:02:52.000Z</time>
</trkpt>
<trkpt lat="44.108465" lon="3.136298">
<ele>432.9</ele>
<time>2013-05-08T10:02:53.000Z</time>
</trkpt>
<trkpt lat="44.10855" lon="3.136153">
<ele>432.4</ele>
<time>2013-05-08T10:02:54.000Z</time>
</trkpt>
<trkpt lat="44.108633" lon="3.13601">
<ele>432</ele>
<time>2013-05-08T10:02:55.000Z</time>
</trkpt>
<trkpt lat="44.108715" lon="3.135868">
<ele>431.8</ele>
<time>2013-05-08T10:02:56.000Z</time>
</trkpt>
<trkpt lat="44.108794" lon="3.135723">
<ele>431.8</ele>
<time>2013-05-08T10:02:57.000Z</time>
</trkpt>
<trkpt lat="44.108867" lon="3.135578">
<ele>432</ele>
<time>2013-05-08T10:02:58.000Z</time>
</trkpt>
<trkpt lat="44.108935" lon="3.135431">
<ele>431.9</ele>
<time>2013-05-08T10:02:59.000Z</time>
</trkpt>
<trkpt lat="44.108997" lon="3.135282">
<ele>431.7</ele>
<time>2013-05-08T10:03:00.000Z</time>
</trkpt>
<trkpt lat="44.109056" lon="3.13514">
<ele>431.6</ele>
<time>2013-05-08T10:03:01.000Z</time>
</trkpt>
<trkpt lat="44.109112" lon="3.134998">
<ele>431.6</ele>
<time>2013-05-08T10:03:02.000Z</time>
</trkpt>
<trkpt lat="44.109165" lon="3.134857">
<ele>431.7</ele>
<time>2013-05-08T10:03:03.000Z</time>
</trkpt>
<trkpt lat="44.109221" lon="3.134715">
<ele>431.8</ele>
<time>2013-05-08T10:03:04.000Z</time>
</trkpt>
<trkpt lat="44.109277" lon="3.134572">
<ele>432</ele>
<time>2013-05-08T10:03:05.000Z</time>
</trkpt>
<trkpt lat="44.109333" lon="3.134427">
<ele>432.2</ele>
<time>2013-05-08T10:03:06.000Z</time>
</trkpt>
<trkpt lat="44.109389" lon="3.134284">
<ele>432.1</ele>
<time>2013-05-08T10:03:07.000Z</time>
</trkpt>
<trkpt lat="44.109445" lon="3.134143">
<ele>432</ele>
<time>2013-05-08T10:03:08.000Z</time>
</trkpt>
<trkpt lat="44.109503" lon="3.134009">
<ele>432.2</ele>
<time>2013-05-08T10:03:09.000Z</time>
</trkpt>
<trkpt lat="44.109562" lon="3.133872">
<ele>432.4</ele>
<time>2013-05-08T10:03:10.000Z</time>
</trkpt>
<trkpt lat="44.109617" lon="3.133736">
<ele>432.3</ele>
<time>2013-05-08T10:03:11.000Z</time>
</trkpt>
<trkpt lat="44.109668" lon="3.133598">
<ele>432.2</ele>
<time>2013-05-08T10:03:12.000Z</time>
</trkpt>
<trkpt lat="44.109713" lon="3.133449">
<ele>432</ele>
<time>2013-05-08T10:03:13.000Z</time>
</trkpt>
<trkpt lat="44.10975" lon="3.133301">
<ele>431.9</ele>
<time>2013-05-08T10:03:14.000Z</time>
</trkpt>
<trkpt lat="44.109757" lon="3.133139">
<ele>431.7</ele>
<time>2013-05-08T10:03:15.000Z</time>
</trkpt>
<trkpt lat="44.109758" lon="3.132975">
<ele>431.2</ele>
<time>2013-05-08T10:03:16.000Z</time>
</trkpt>
<trkpt lat="44.10975" lon="3.132809">
<ele>430.3</ele>
<time>2013-05-08T10:03:17.000Z</time>
</trkpt>
<trkpt lat="44.109735" lon="3.132634">
<ele>429.6</ele>
<time>2013-05-08T10:03:18.000Z</time>
</trkpt>
<trkpt lat="44.109715" lon="3.132448">
<ele>429.3</ele>
<time>2013-05-08T10:03:19.000Z</time>
</trkpt>
<trkpt lat="44.109695" lon="3.132267">
<ele>429</ele>
<time>2013-05-08T10:03:20.000Z</time>
</trkpt>
<trkpt lat="44.109673" lon="3.132091">
<ele>428.7</ele>
<time>2013-05-08T10:03:21.000Z</time>
</trkpt>
<trkpt lat="44.109651" lon="3.131922">
<ele>428.7</ele>
<time>2013-05-08T10:03:22.000Z</time>
</trkpt>
<trkpt lat="44.109624" lon="3.131757">
<ele>429</ele>
<time>2013-05-08T10:03:23.000Z</time>
</trkpt>
<trkpt lat="44.109599" lon="3.131593">
<ele>429.2</ele>
<time>2013-05-08T10:03:24.000Z</time>
</trkpt>
<trkpt lat="44.109574" lon="3.131439">
<ele>429.5</ele>
<time>2013-05-08T10:03:25.000Z</time>
</trkpt>
<trkpt lat="44.109547" lon="3.131286">
<ele>429.6</ele>
<time>2013-05-08T10:03:26.000Z</time>
</trkpt>
<trkpt lat="44.109518" lon="3.131135">
<ele>429.8</ele>
<time>2013-05-08T10:03:27.000Z</time>
</trkpt>
<trkpt lat="44.109489" lon="3.130983">
<ele>430</ele>
<time>2013-05-08T10:03:28.000Z</time>
</trkpt>
<trkpt lat="44.109455" lon="3.130827">
<ele>430.5</ele>
<time>2013-05-08T10:03:29.000Z</time>
</trkpt>
<trkpt lat="44.109412" lon="3.130661">
<ele>430.8</ele>
<time>2013-05-08T10:03:30.000Z</time>
</trkpt>
<trkpt lat="44.10936" lon="3.130478">
<ele>431.1</ele>
<time>2013-05-08T10:03:31.000Z</time>
</trkpt>
<trkpt lat="44.109304" lon="3.130295">
<ele>431.5</ele>
<time>2013-05-08T10:03:32.000Z</time>
</trkpt>
<trkpt lat="44.109243" lon="3.130117">
<ele>431.8</ele>
<time>2013-05-08T10:03:33.000Z</time>
</trkpt>
<trkpt lat="44.109172" lon="3.129935">
<ele>432.2</ele>
<time>2013-05-08T10:03:34.000Z</time>
</trkpt>
<trkpt lat="44.109098" lon="3.129761">
<ele>432.2</ele>
<time>2013-05-08T10:03:35.000Z</time>
</trkpt>
<trkpt lat="44.109023" lon="3.129607">
<ele>431.9</ele>
<time>2013-05-08T10:03:36.000Z</time>
</trkpt>
<trkpt lat="44.108946" lon="3.129462">
<ele>431.6</ele>
<time>2013-05-08T10:03:37.000Z</time>
</trkpt>
<trkpt lat="44.108864" lon="3.129323">
<ele>431.2</ele>
<time>2013-05-08T10:03:38.000Z</time>
</trkpt>
<trkpt lat="44.108778" lon="3.12918">
<ele>430.6</ele>
<time>2013-05-08T10:03:39.000Z</time>
</trkpt>
<trkpt lat="44.10869" lon="3.129039">
<ele>429.9</ele>
<time>2013-05-08T10:03:40.000Z</time>
</trkpt>
<trkpt lat="44.108599" lon="3.128905">
<ele>429.2</ele>
<time>2013-05-08T10:03:41.000Z</time>
</trkpt>
<trkpt lat="44.108508" lon="3.128779">
<ele>428.6</ele>
<time>2013-05-08T10:03:42.000Z</time>
</trkpt>
<trkpt lat="44.108414" lon="3.128665">
<ele>428</ele>
<time>2013-05-08T10:03:43.000Z</time>
</trkpt>
<trkpt lat="44.108295" lon="3.128583">
<ele>427.5</ele>
<time>2013-05-08T10:03:44.000Z</time>
</trkpt>
<trkpt lat="44.10817" lon="3.128507">
<ele>427.1</ele>
<time>2013-05-08T10:03:45.000Z</time>
</trkpt>
<trkpt lat="44.108038" lon="3.128443">
<ele>426.7</ele>
<time>2013-05-08T10:03:46.000Z</time>
</trkpt>
<trkpt lat="44.107894" lon="3.128387">
<ele>426.4</ele>
<time>2013-05-08T10:03:47.000Z</time>
</trkpt>
<trkpt lat="44.107751" lon="3.128345">
<ele>426</ele>
<time>2013-05-08T10:03:48.000Z</time>
</trkpt>
<trkpt lat="44.107608" lon="3.128313">
<ele>425.7</ele>
<time>2013-05-08T10:03:49.000Z</time>
</trkpt>
<trkpt lat="44.107466" lon="3.128284">
<ele>425.4</ele>
<time>2013-05-08T10:03:50.000Z</time>
</trkpt>
<trkpt lat="44.10733" lon="3.128263">
<ele>424.9</ele>
<time>2013-05-08T10:03:51.000Z</time>
</trkpt>
<trkpt lat="44.107191" lon="3.128254">
<ele>424.7</ele>
<time>2013-05-08T10:03:52.000Z</time>
</trkpt>
<trkpt lat="44.107055" lon="3.12825">
<ele>424.4</ele>
<time>2013-05-08T10:03:53.000Z</time>
</trkpt>
<trkpt lat="44.106918" lon="3.128251">
<ele>424.1</ele>
<time>2013-05-08T10:03:54.000Z</time>
</trkpt>
<trkpt lat="44.106784" lon="3.128256">
<ele>423.7</ele>
<time>2013-05-08T10:03:55.000Z</time>
</trkpt>
<trkpt lat="44.106652" lon="3.128266">
<ele>423.2</ele>
<time>2013-05-08T10:03:56.000Z</time>
</trkpt>
<trkpt lat="44.106516" lon="3.12828">
<ele>422.9</ele>
<time>2013-05-08T10:03:57.000Z</time>
</trkpt>
<trkpt lat="44.106381" lon="3.128297">
<ele>422.5</ele>
<time>2013-05-08T10:03:58.000Z</time>
</trkpt>
<trkpt lat="44.106249" lon="3.128316">
<ele>422</ele>
<time>2013-05-08T10:03:59.000Z</time>
</trkpt>
<trkpt lat="44.106121" lon="3.128336">
<ele>421.6</ele>
<time>2013-05-08T10:04:00.000Z</time>
</trkpt>
<trkpt lat="44.105985" lon="3.128362">
<ele>421.2</ele>
<time>2013-05-08T10:04:01.000Z</time>
</trkpt>
<trkpt lat="44.105855" lon="3.128387">
<ele>420.9</ele>
<time>2013-05-08T10:04:02.000Z</time>
</trkpt>
<trkpt lat="44.105727" lon="3.128416">
<ele>420.7</ele>
<time>2013-05-08T10:04:03.000Z</time>
</trkpt>
<trkpt lat="44.105604" lon="3.128448">
<ele>420.7</ele>
<time>2013-05-08T10:04:04.000Z</time>
</trkpt>
<trkpt lat="44.105478" lon="3.128485">
<ele>420.7</ele>
<time>2013-05-08T10:04:05.000Z</time>
</trkpt>
<trkpt lat="44.105342" lon="3.128529">
<ele>420.6</ele>
<time>2013-05-08T10:04:06.000Z</time>
</trkpt>
<trkpt lat="44.105212" lon="3.128574">
<ele>420.5</ele>
<time>2013-05-08T10:04:07.000Z</time>
</trkpt>
<trkpt lat="44.105089" lon="3.128624">
<ele>420.4</ele>
<time>2013-05-08T10:04:08.000Z</time>
</trkpt>
<trkpt lat="44.104964" lon="3.128686">
<ele>420.4</ele>
<time>2013-05-08T10:04:09.000Z</time>
</trkpt>
<trkpt lat="44.10485" lon="3.128765">
<ele>420.3</ele>
<time>2013-05-08T10:04:10.000Z</time>
</trkpt>
<trkpt lat="44.104735" lon="3.128838">
<ele>420.3</ele>
<time>2013-05-08T10:04:11.000Z</time>
</trkpt>
<trkpt lat="44.104612" lon="3.128909">
<ele>420.2</ele>
<time>2013-05-08T10:04:12.000Z</time>
</trkpt>
<trkpt lat="44.10448" lon="3.12898">
<ele>420.4</ele>
<time>2013-05-08T10:04:13.000Z</time>
</trkpt>
<trkpt lat="44.104364" lon="3.129053">
<ele>420.8</ele>
<time>2013-05-08T10:04:14.000Z</time>
</trkpt>
<trkpt lat="44.104225" lon="3.129144">
<ele>421.2</ele>
<time>2013-05-08T10:04:15.000Z</time>
</trkpt>
<trkpt lat="44.104082" lon="3.129236">
<ele>421.8</ele>
<time>2013-05-08T10:04:16.000Z</time>
</trkpt>
<trkpt lat="44.10396" lon="3.12934">
<ele>421.9</ele>
<time>2013-05-08T10:04:17.000Z</time>
</trkpt>
<trkpt lat="44.103841" lon="3.129439">
<ele>422</ele>
<time>2013-05-08T10:04:18.000Z</time>
</trkpt>
<trkpt lat="44.103718" lon="3.129528">
<ele>422.3</ele>
<time>2013-05-08T10:04:19.000Z</time>
</trkpt>
<trkpt lat="44.103601" lon="3.129616">
<ele>422.4</ele>
<time>2013-05-08T10:04:20.000Z</time>
</trkpt>
<trkpt lat="44.103478" lon="3.129671">
<ele>422.8</ele>
<time>2013-05-08T10:04:21.000Z</time>
</trkpt>
<trkpt lat="44.103354" lon="3.129723">
<ele>423</ele>
<time>2013-05-08T10:04:22.000Z</time>
</trkpt>
<trkpt lat="44.103237" lon="3.129735">
<ele>422.8</ele>
<time>2013-05-08T10:04:23.000Z</time>
</trkpt>
<trkpt lat="44.103125" lon="3.129715">
<ele>422.3</ele>
<time>2013-05-08T10:04:24.000Z</time>
</trkpt>
<trkpt lat="44.103013" lon="3.12968">
<ele>421.8</ele>
<time>2013-05-08T10:04:25.000Z</time>
</trkpt>
<trkpt lat="44.102902" lon="3.129635">
<ele>421.3</ele>
<time>2013-05-08T10:04:26.000Z</time>
</trkpt>
<trkpt lat="44.102789" lon="3.12958">
<ele>420.5</ele>
<time>2013-05-08T10:04:27.000Z</time>
</trkpt>
<trkpt lat="44.102667" lon="3.129514">
<ele>419.8</ele>
<time>2013-05-08T10:04:28.000Z</time>
</trkpt>
<trkpt lat="44.102555" lon="3.12944">
<ele>419</ele>
<time>2013-05-08T10:04:29.000Z</time>
</trkpt>
<trkpt lat="44.102455" lon="3.129336">
<ele>418.1</ele>
<time>2013-05-08T10:04:30.000Z</time>
</trkpt>
<trkpt lat="44.102358" lon="3.129227">
<ele>417.5</ele>
<time>2013-05-08T10:04:31.000Z</time>
</trkpt>
<trkpt lat="44.102266" lon="3.129112">
<ele>417.1</ele>
<time>2013-05-08T10:04:32.000Z</time>
</trkpt>
<trkpt lat="44.102201" lon="3.128978">
<ele>416.7</ele>
<time>2013-05-08T10:04:33.000Z</time>
</trkpt>
<trkpt lat="44.102142" lon="3.128846">
<ele>416.3</ele>
<time>2013-05-08T10:04:34.000Z</time>
</trkpt>
<trkpt lat="44.102087" lon="3.12871">
<ele>415.8</ele>
<time>2013-05-08T10:04:35.000Z</time>
</trkpt>
<trkpt lat="44.102038" lon="3.12857">
<ele>415.2</ele>
<time>2013-05-08T10:04:36.000Z</time>
</trkpt>
<trkpt lat="44.101991" lon="3.128429">
<ele>414.7</ele>
<time>2013-05-08T10:04:37.000Z</time>
</trkpt>
<trkpt lat="44.10195" lon="3.12829">
<ele>414.3</ele>
<time>2013-05-08T10:04:38.000Z</time>
</trkpt>
<trkpt lat="44.101913" lon="3.128144">
<ele>414</ele>
<time>2013-05-08T10:04:39.000Z</time>
</trkpt>
<trkpt lat="44.101879" lon="3.128005">
<ele>414</ele>
<time>2013-05-08T10:04:40.000Z</time>
</trkpt>
<trkpt lat="44.101846" lon="3.127852">
<ele>414.2</ele>
<time>2013-05-08T10:04:41.000Z</time>
</trkpt>
<trkpt lat="44.101818" lon="3.127693">
<ele>414.6</ele>
<time>2013-05-08T10:04:42.000Z</time>
</trkpt>
<trkpt lat="44.101797" lon="3.127541">
<ele>414.8</ele>
<time>2013-05-08T10:04:43.000Z</time>
</trkpt>
<trkpt lat="44.101777" lon="3.127386">
<ele>415</ele>
<time>2013-05-08T10:04:44.000Z</time>
</trkpt>
<trkpt lat="44.101755" lon="3.12722">
<ele>415.4</ele>
<time>2013-05-08T10:04:45.000Z</time>
</trkpt>
<trkpt lat="44.101739" lon="3.127039">
<ele>415.9</ele>
<time>2013-05-08T10:04:46.000Z</time>
</trkpt>
<trkpt lat="44.101716" lon="3.126864">
<ele>416.6</ele>
<time>2013-05-08T10:04:47.000Z</time>
</trkpt>
<trkpt lat="44.10169" lon="3.126684">
<ele>417.3</ele>
<time>2013-05-08T10:04:48.000Z</time>
</trkpt>
<trkpt lat="44.101666" lon="3.126511">
<ele>417.7</ele>
<time>2013-05-08T10:04:49.000Z</time>
</trkpt>
<trkpt lat="44.101642" lon="3.126334">
<ele>417.8</ele>
<time>2013-05-08T10:04:50.000Z</time>
</trkpt>
<trkpt lat="44.101622" lon="3.126155">
<ele>418</ele>
<time>2013-05-08T10:04:51.000Z</time>
</trkpt>
<trkpt lat="44.101598" lon="3.125971">
<ele>418.2</ele>
<time>2013-05-08T10:04:52.000Z</time>
</trkpt>
<trkpt lat="44.10157" lon="3.125776">
<ele>418.5</ele>
<time>2013-05-08T10:04:53.000Z</time>
</trkpt>
<trkpt lat="44.101543" lon="3.125586">
<ele>418.4</ele>
<time>2013-05-08T10:04:54.000Z</time>
</trkpt>
<trkpt lat="44.101518" lon="3.125405">
<ele>417.9</ele>
<time>2013-05-08T10:04:55.000Z</time>
</trkpt>
<trkpt lat="44.101494" lon="3.125233">
<ele>417.6</ele>
<time>2013-05-08T10:04:56.000Z</time>
</trkpt>
<trkpt lat="44.10147" lon="3.12505">
<ele>417.3</ele>
<time>2013-05-08T10:04:57.000Z</time>
</trkpt>
<trkpt lat="44.101444" lon="3.124866">
<ele>417.2</ele>
<time>2013-05-08T10:04:58.000Z</time>
</trkpt>
<trkpt lat="44.101418" lon="3.124691">
<ele>417.1</ele>
<time>2013-05-08T10:04:59.000Z</time>
</trkpt>
<trkpt lat="44.101394" lon="3.124522">
<ele>416.7</ele>
<time>2013-05-08T10:05:00.000Z</time>
</trkpt>
<trkpt lat="44.10137" lon="3.12435">
<ele>416.4</ele>
<time>2013-05-08T10:05:01.000Z</time>
</trkpt>
<trkpt lat="44.101345" lon="3.124172">
<ele>416.1</ele>
<time>2013-05-08T10:05:02.000Z</time>
</trkpt>
<trkpt lat="44.101314" lon="3.123992">
<ele>416.3</ele>
<time>2013-05-08T10:05:03.000Z</time>
</trkpt>
<trkpt lat="44.101281" lon="3.123806">
<ele>416.6</ele>
<time>2013-05-08T10:05:04.000Z</time>
</trkpt>
<trkpt lat="44.101244" lon="3.123616">
<ele>417.2</ele>
<time>2013-05-08T10:05:05.000Z</time>
</trkpt>
<trkpt lat="44.101213" lon="3.123437">
<ele>417.7</ele>
<time>2013-05-08T10:05:06.000Z</time>
</trkpt>
<trkpt lat="44.101189" lon="3.123252">
<ele>418</ele>
<time>2013-05-08T10:05:07.000Z</time>
</trkpt>
<trkpt lat="44.101193" lon="3.12307">
<ele>418.2</ele>
<time>2013-05-08T10:05:08.000Z</time>
</trkpt>
<trkpt lat="44.101198" lon="3.122892">
<ele>418.1</ele>
<time>2013-05-08T10:05:09.000Z</time>
</trkpt>
<trkpt lat="44.101204" lon="3.122706">
<ele>417.9</ele>
<time>2013-05-08T10:05:10.000Z</time>
</trkpt>
<trkpt lat="44.101209" lon="3.122512">
<ele>417.5</ele>
<time>2013-05-08T10:05:11.000Z</time>
</trkpt>
<trkpt lat="44.101211" lon="3.122324">
<ele>417.8</ele>
<time>2013-05-08T10:05:12.000Z</time>
</trkpt>
<trkpt lat="44.101211" lon="3.122133">
<ele>417.8</ele>
<time>2013-05-08T10:05:13.000Z</time>
</trkpt>
<trkpt lat="44.10121" lon="3.121952">
<ele>417.9</ele>
<time>2013-05-08T10:05:14.000Z</time>
</trkpt>
<trkpt lat="44.101205" lon="3.121768">
<ele>417.9</ele>
<time>2013-05-08T10:05:15.000Z</time>
</trkpt>
<trkpt lat="44.101199" lon="3.121581">
<ele>417.8</ele>
<time>2013-05-08T10:05:16.000Z</time>
</trkpt>
<trkpt lat="44.101194" lon="3.121402">
<ele>418</ele>
<time>2013-05-08T10:05:17.000Z</time>
</trkpt>
<trkpt lat="44.101187" lon="3.121206">
<ele>418.2</ele>
<time>2013-05-08T10:05:18.000Z</time>
</trkpt>
<trkpt lat="44.101179" lon="3.121008">
<ele>418.4</ele>
<time>2013-05-08T10:05:19.000Z</time>
</trkpt>
<trkpt lat="44.101175" lon="3.120806">
<ele>418.6</ele>
<time>2013-05-08T10:05:20.000Z</time>
</trkpt>
<trkpt lat="44.101172" lon="3.120612">
<ele>418.8</ele>
<time>2013-05-08T10:05:21.000Z</time>
</trkpt>
<trkpt lat="44.101177" lon="3.120447">
<ele>419.4</ele>
<time>2013-05-08T10:05:22.000Z</time>
</trkpt>
<trkpt lat="44.101185" lon="3.120273">
<ele>419.7</ele>
<time>2013-05-08T10:05:23.000Z</time>
</trkpt>
<trkpt lat="44.101195" lon="3.120085">
<ele>419.5</ele>
<time>2013-05-08T10:05:24.000Z</time>
</trkpt>
<trkpt lat="44.101203" lon="3.119892">
<ele>419.4</ele>
<time>2013-05-08T10:05:25.000Z</time>
</trkpt>
<trkpt lat="44.10121" lon="3.119694">
<ele>419.5</ele>
<time>2013-05-08T10:05:26.000Z</time>
</trkpt>
<trkpt lat="44.101217" lon="3.119501">
<ele>419.9</ele>
<time>2013-05-08T10:05:27.000Z</time>
</trkpt>
<trkpt lat="44.101224" lon="3.119309">
<ele>420.6</ele>
<time>2013-05-08T10:05:28.000Z</time>
</trkpt>
<trkpt lat="44.101233" lon="3.119118">
<ele>421.2</ele>
<time>2013-05-08T10:05:29.000Z</time>
</trkpt>
<trkpt lat="44.10124" lon="3.118928">
<ele>421.4</ele>
<time>2013-05-08T10:05:30.000Z</time>
</trkpt>
<trkpt lat="44.101249" lon="3.118735">
<ele>421.3</ele>
<time>2013-05-08T10:05:31.000Z</time>
</trkpt>
<trkpt lat="44.101262" lon="3.118538">
<ele>421.2</ele>
<time>2013-05-08T10:05:32.000Z</time>
</trkpt>
<trkpt lat="44.101274" lon="3.118358">
<ele>420.9</ele>
<time>2013-05-08T10:05:33.000Z</time>
</trkpt>
<trkpt lat="44.101286" lon="3.118184">
<ele>420.5</ele>
<time>2013-05-08T10:05:34.000Z</time>
</trkpt>
<trkpt lat="44.101297" lon="3.11801">
<ele>420.2</ele>
<time>2013-05-08T10:05:35.000Z</time>
</trkpt>
<trkpt lat="44.10131" lon="3.117831">
<ele>420</ele>
<time>2013-05-08T10:05:36.000Z</time>
</trkpt>
<trkpt lat="44.101325" lon="3.117646">
<ele>420.2</ele>
<time>2013-05-08T10:05:37.000Z</time>
</trkpt>
<trkpt lat="44.101339" lon="3.117462">
<ele>420.1</ele>
<time>2013-05-08T10:05:38.000Z</time>
</trkpt>
<trkpt lat="44.101358" lon="3.11728">
<ele>419.9</ele>
<time>2013-05-08T10:05:39.000Z</time>
</trkpt>
<trkpt lat="44.101382" lon="3.1171">
<ele>419.7</ele>
<time>2013-05-08T10:05:40.000Z</time>
</trkpt>
<trkpt lat="44.101412" lon="3.116925">
<ele>419.5</ele>
<time>2013-05-08T10:05:41.000Z</time>
</trkpt>
<trkpt lat="44.101449" lon="3.116762">
<ele>419.4</ele>
<time>2013-05-08T10:05:42.000Z</time>
</trkpt>
<trkpt lat="44.10149" lon="3.116606">
<ele>419.6</ele>
<time>2013-05-08T10:05:43.000Z</time>
</trkpt>
<trkpt lat="44.101531" lon="3.116446">
<ele>419.9</ele>
<time>2013-05-08T10:05:44.000Z</time>
</trkpt>
<trkpt lat="44.101567" lon="3.116282">
<ele>420.5</ele>
<time>2013-05-08T10:05:45.000Z</time>
</trkpt>
<trkpt lat="44.101576" lon="3.116117">
<ele>421</ele>
<time>2013-05-08T10:05:46.000Z</time>
</trkpt>
<trkpt lat="44.101557" lon="3.115954">
<ele>421.5</ele>
<time>2013-05-08T10:05:47.000Z</time>
</trkpt>
<trkpt lat="44.101528" lon="3.115798">
<ele>421.9</ele>
<time>2013-05-08T10:05:48.000Z</time>
</trkpt>
<trkpt lat="44.101463" lon="3.115648">
<ele>422.1</ele>
<time>2013-05-08T10:05:49.000Z</time>
</trkpt>
<trkpt lat="44.101397" lon="3.115498">
<ele>421.8</ele>
<time>2013-05-08T10:05:50.000Z</time>
</trkpt>
<trkpt lat="44.101326" lon="3.115349">
<ele>421.2</ele>
<time>2013-05-08T10:05:51.000Z</time>
</trkpt>
<trkpt lat="44.101256" lon="3.115199">
<ele>420.4</ele>
<time>2013-05-08T10:05:52.000Z</time>
</trkpt>
<trkpt lat="44.101182" lon="3.115057">
<ele>419.4</ele>
<time>2013-05-08T10:05:53.000Z</time>
</trkpt>
<trkpt lat="44.101104" lon="3.114924">
<ele>418.6</ele>
<time>2013-05-08T10:05:54.000Z</time>
</trkpt>
<trkpt lat="44.101018" lon="3.114794">
<ele>418.1</ele>
<time>2013-05-08T10:05:55.000Z</time>
</trkpt>
<trkpt lat="44.100926" lon="3.114664">
<ele>417.5</ele>
<time>2013-05-08T10:05:56.000Z</time>
</trkpt>
<trkpt lat="44.100827" lon="3.114541">
<ele>416.9</ele>
<time>2013-05-08T10:05:57.000Z</time>
</trkpt>
<trkpt lat="44.100722" lon="3.114421">
<ele>416.4</ele>
<time>2013-05-08T10:05:58.000Z</time>
</trkpt>
<trkpt lat="44.100617" lon="3.114312">
<ele>416</ele>
<time>2013-05-08T10:05:59.000Z</time>
</trkpt>
<trkpt lat="44.100525" lon="3.114218">
<ele>416</ele>
<time>2013-05-08T10:06:00.000Z</time>
</trkpt>
<trkpt lat="44.100437" lon="3.114124">
<ele>416.3</ele>
<time>2013-05-08T10:06:01.000Z</time>
</trkpt>
<trkpt lat="44.100355" lon="3.114021">
<ele>416.7</ele>
<time>2013-05-08T10:06:02.000Z</time>
</trkpt>
<trkpt lat="44.100302" lon="3.113878">
<ele>417.1</ele>
<time>2013-05-08T10:06:03.000Z</time>
</trkpt>
<trkpt lat="44.10025" lon="3.113722">
<ele>417.3</ele>
<time>2013-05-08T10:06:04.000Z</time>
</trkpt>
<trkpt lat="44.100203" lon="3.113558">
<ele>417.4</ele>
<time>2013-05-08T10:06:05.000Z</time>
</trkpt>
<trkpt lat="44.100163" lon="3.1134">
<ele>417</ele>
<time>2013-05-08T10:06:06.000Z</time>
</trkpt>
<trkpt lat="44.100122" lon="3.113247">
<ele>416.6</ele>
<time>2013-05-08T10:06:07.000Z</time>
</trkpt>
<trkpt lat="44.100082" lon="3.113081">
<ele>416.3</ele>
<time>2013-05-08T10:06:08.000Z</time>
</trkpt>
<trkpt lat="44.100045" lon="3.112914">
<ele>415.9</ele>
<time>2013-05-08T10:06:09.000Z</time>
</trkpt>
<trkpt lat="44.100012" lon="3.112742">
<ele>415.7</ele>
<time>2013-05-08T10:06:10.000Z</time>
</trkpt>
<trkpt lat="44.099987" lon="3.112568">
<ele>415.5</ele>
<time>2013-05-08T10:06:11.000Z</time>
</trkpt>
<trkpt lat="44.099973" lon="3.112392">
<ele>415.2</ele>
<time>2013-05-08T10:06:12.000Z</time>
</trkpt>
<trkpt lat="44.099969" lon="3.112209">
<ele>415</ele>
<time>2013-05-08T10:06:13.000Z</time>
</trkpt>
<trkpt lat="44.099994" lon="3.112042">
<ele>414.9</ele>
<time>2013-05-08T10:06:14.000Z</time>
</trkpt>
<trkpt lat="44.10002" lon="3.111875">
<ele>415.2</ele>
<time>2013-05-08T10:06:15.000Z</time>
</trkpt>
<trkpt lat="44.100046" lon="3.111707">
<ele>415.5</ele>
<time>2013-05-08T10:06:16.000Z</time>
</trkpt>
<trkpt lat="44.100077" lon="3.111535">
<ele>415.5</ele>
<time>2013-05-08T10:06:17.000Z</time>
</trkpt>
<trkpt lat="44.100109" lon="3.111368">
<ele>415.5</ele>
<time>2013-05-08T10:06:18.000Z</time>
</trkpt>
<trkpt lat="44.100143" lon="3.111202">
<ele>415.6</ele>
<time>2013-05-08T10:06:19.000Z</time>
</trkpt>
<trkpt lat="44.100176" lon="3.111045">
<ele>415.5</ele>
<time>2013-05-08T10:06:20.000Z</time>
</trkpt>
<trkpt lat="44.100205" lon="3.110898">
<ele>415.9</ele>
<time>2013-05-08T10:06:21.000Z</time>
</trkpt>
<trkpt lat="44.100228" lon="3.110745">
<ele>416.2</ele>
<time>2013-05-08T10:06:22.000Z</time>
</trkpt>
<trkpt lat="44.100247" lon="3.110582">
<ele>416.2</ele>
<time>2013-05-08T10:06:23.000Z</time>
</trkpt>
<trkpt lat="44.100264" lon="3.11042">
<ele>416</ele>
<time>2013-05-08T10:06:24.000Z</time>
</trkpt>
<trkpt lat="44.100282" lon="3.110252">
<ele>416</ele>
<time>2013-05-08T10:06:25.000Z</time>
</trkpt>
<trkpt lat="44.100296" lon="3.110084">
<ele>416</ele>
<time>2013-05-08T10:06:26.000Z</time>
</trkpt>
<trkpt lat="44.100311" lon="3.109918">
<ele>416.1</ele>
<time>2013-05-08T10:06:27.000Z</time>
</trkpt>
<trkpt lat="44.100327" lon="3.109752">
<ele>416.3</ele>
<time>2013-05-08T10:06:28.000Z</time>
</trkpt>
<trkpt lat="44.100342" lon="3.109585">
<ele>416.9</ele>
<time>2013-05-08T10:06:29.000Z</time>
</trkpt>
<trkpt lat="44.100356" lon="3.109413">
<ele>417.3</ele>
<time>2013-05-08T10:06:30.000Z</time>
</trkpt>
<trkpt lat="44.100369" lon="3.109245">
<ele>417.7</ele>
<time>2013-05-08T10:06:31.000Z</time>
</trkpt>
<trkpt lat="44.100381" lon="3.109077">
<ele>418.1</ele>
<time>2013-05-08T10:06:32.000Z</time>
</trkpt>
<trkpt lat="44.100395" lon="3.108898">
<ele>418</ele>
<time>2013-05-08T10:06:33.000Z</time>
</trkpt>
<trkpt lat="44.100407" lon="3.108727">
<ele>418.3</ele>
<time>2013-05-08T10:06:34.000Z</time>
</trkpt>
<trkpt lat="44.10042" lon="3.108555">
<ele>418.5</ele>
<time>2013-05-08T10:06:35.000Z</time>
</trkpt>
<trkpt lat="44.100434" lon="3.108373">
<ele>418.6</ele>
<time>2013-05-08T10:06:36.000Z</time>
</trkpt>
<trkpt lat="44.100446" lon="3.108192">
<ele>418.3</ele>
<time>2013-05-08T10:06:37.000Z</time>
</trkpt>
<trkpt lat="44.100457" lon="3.108014">
<ele>418</ele>
<time>2013-05-08T10:06:38.000Z</time>
</trkpt>
<trkpt lat="44.100472" lon="3.107837">
<ele>417.5</ele>
<time>2013-05-08T10:06:39.000Z</time>
</trkpt>
<trkpt lat="44.100487" lon="3.107672">
<ele>417.4</ele>
<time>2013-05-08T10:06:40.000Z</time>
</trkpt>
<trkpt lat="44.100503" lon="3.107503">
<ele>417.1</ele>
<time>2013-05-08T10:06:41.000Z</time>
</trkpt>
<trkpt lat="44.100519" lon="3.107335">
<ele>416.8</ele>
<time>2013-05-08T10:06:42.000Z</time>
</trkpt>
<trkpt lat="44.100533" lon="3.10716">
<ele>416.4</ele>
<time>2013-05-08T10:06:43.000Z</time>
</trkpt>
<trkpt lat="44.100545" lon="3.106981">
<ele>416.4</ele>
<time>2013-05-08T10:06:44.000Z</time>
</trkpt>
<trkpt lat="44.100554" lon="3.106801">
<ele>416.4</ele>
<time>2013-05-08T10:06:45.000Z</time>
</trkpt>
<trkpt lat="44.100563" lon="3.106624">
<ele>416.5</ele>
<time>2013-05-08T10:06:46.000Z</time>
</trkpt>
<trkpt lat="44.100575" lon="3.106453">
<ele>416.5</ele>
<time>2013-05-08T10:06:47.000Z</time>
</trkpt>
<trkpt lat="44.100587" lon="3.10629">
<ele>416.8</ele>
<time>2013-05-08T10:06:48.000Z</time>
</trkpt>
<trkpt lat="44.100598" lon="3.106127">
<ele>417.1</ele>
<time>2013-05-08T10:06:49.000Z</time>
</trkpt>
<trkpt lat="44.100608" lon="3.105969">
<ele>417.6</ele>
<time>2013-05-08T10:06:50.000Z</time>
</trkpt>
<trkpt lat="44.100616" lon="3.105807">
<ele>417.9</ele>
<time>2013-05-08T10:06:51.000Z</time>
</trkpt>
<trkpt lat="44.100623" lon="3.105644">
<ele>418.1</ele>
<time>2013-05-08T10:06:52.000Z</time>
</trkpt>
<trkpt lat="44.100631" lon="3.105479">
<ele>418.4</ele>
<time>2013-05-08T10:06:53.000Z</time>
</trkpt>
<trkpt lat="44.100637" lon="3.105314">
<ele>418.7</ele>
<time>2013-05-08T10:06:54.000Z</time>
</trkpt>
<trkpt lat="44.100644" lon="3.10515">
<ele>418.7</ele>
<time>2013-05-08T10:06:55.000Z</time>
</trkpt>
<trkpt lat="44.100651" lon="3.104988">
<ele>418.8</ele>
<time>2013-05-08T10:06:56.000Z</time>
</trkpt>
<trkpt lat="44.100656" lon="3.10481">
<ele>418.7</ele>
<time>2013-05-08T10:06:57.000Z</time>
</trkpt>
<trkpt lat="44.10066" lon="3.104631">
<ele>418.5</ele>
<time>2013-05-08T10:06:58.000Z</time>
</trkpt>
<trkpt lat="44.100669" lon="3.104467">
<ele>418.6</ele>
<time>2013-05-08T10:06:59.000Z</time>
</trkpt>
<trkpt lat="44.10068" lon="3.1043">
<ele>418.5</ele>
<time>2013-05-08T10:07:00.000Z</time>
</trkpt>
<trkpt lat="44.100695" lon="3.104132">
<ele>418.3</ele>
<time>2013-05-08T10:07:01.000Z</time>
</trkpt>
<trkpt lat="44.100713" lon="3.103967">
<ele>418.2</ele>
<time>2013-05-08T10:07:02.000Z</time>
</trkpt>
<trkpt lat="44.100731" lon="3.103801">
<ele>418</ele>
<time>2013-05-08T10:07:03.000Z</time>
</trkpt>
<trkpt lat="44.100744" lon="3.103633">
<ele>418.2</ele>
<time>2013-05-08T10:07:04.000Z</time>
</trkpt>
<trkpt lat="44.100758" lon="3.103468">
<ele>418.4</ele>
<time>2013-05-08T10:07:05.000Z</time>
</trkpt>
<trkpt lat="44.100773" lon="3.103304">
<ele>418.4</ele>
<time>2013-05-08T10:07:06.000Z</time>
</trkpt>
<trkpt lat="44.100786" lon="3.103139">
<ele>418.4</ele>
<time>2013-05-08T10:07:07.000Z</time>
</trkpt>
<trkpt lat="44.1008" lon="3.102976">
<ele>418.2</ele>
<time>2013-05-08T10:07:08.000Z</time>
</trkpt>
<trkpt lat="44.100812" lon="3.102805">
<ele>417.8</ele>
<time>2013-05-08T10:07:09.000Z</time>
</trkpt>
<trkpt lat="44.100823" lon="3.102633">
<ele>417.3</ele>
<time>2013-05-08T10:07:10.000Z</time>
</trkpt>
<trkpt lat="44.100833" lon="3.102455">
<ele>416.4</ele>
<time>2013-05-08T10:07:11.000Z</time>
</trkpt>
<trkpt lat="44.100844" lon="3.102289">
<ele>415.8</ele>
<time>2013-05-08T10:07:12.000Z</time>
</trkpt>
<trkpt lat="44.100857" lon="3.102147">
<ele>415.6</ele>
<time>2013-05-08T10:07:13.000Z</time>
</trkpt>
<trkpt lat="44.100869" lon="3.101997">
<ele>415.7</ele>
<time>2013-05-08T10:07:14.000Z</time>
</trkpt>
<trkpt lat="44.10088" lon="3.10184">
<ele>415.7</ele>
<time>2013-05-08T10:07:15.000Z</time>
</trkpt>
<trkpt lat="44.100891" lon="3.101671">
<ele>415.7</ele>
<time>2013-05-08T10:07:16.000Z</time>
</trkpt>
<trkpt lat="44.100903" lon="3.101503">
<ele>415.6</ele>
<time>2013-05-08T10:07:17.000Z</time>
</trkpt>
<trkpt lat="44.100916" lon="3.101339">
<ele>415.7</ele>
<time>2013-05-08T10:07:18.000Z</time>
</trkpt>
<trkpt lat="44.100929" lon="3.101177">
<ele>416</ele>
<time>2013-05-08T10:07:19.000Z</time>
</trkpt>
<trkpt lat="44.100942" lon="3.10101">
<ele>416.2</ele>
<time>2013-05-08T10:07:20.000Z</time>
</trkpt>
<trkpt lat="44.100953" lon="3.100841">
<ele>416.3</ele>
<time>2013-05-08T10:07:21.000Z</time>
</trkpt>
<trkpt lat="44.100961" lon="3.100666">
<ele>416.4</ele>
<time>2013-05-08T10:07:22.000Z</time>
</trkpt>
<trkpt lat="44.100969" lon="3.10049">
<ele>416.7</ele>
<time>2013-05-08T10:07:23.000Z</time>
</trkpt>
<trkpt lat="44.100978" lon="3.100323">
<ele>416.9</ele>
<time>2013-05-08T10:07:24.000Z</time>
</trkpt>
<trkpt lat="44.100988" lon="3.10015">
<ele>417</ele>
<time>2013-05-08T10:07:25.000Z</time>
</trkpt>
<trkpt lat="44.100998" lon="3.099977">
<ele>416.6</ele>
<time>2013-05-08T10:07:26.000Z</time>
</trkpt>
<trkpt lat="44.101009" lon="3.0998">
<ele>416.1</ele>
<time>2013-05-08T10:07:27.000Z</time>
</trkpt>
<trkpt lat="44.101021" lon="3.099626">
<ele>415.6</ele>
<time>2013-05-08T10:07:28.000Z</time>
</trkpt>
<trkpt lat="44.101031" lon="3.099453">
<ele>415.3</ele>
<time>2013-05-08T10:07:29.000Z</time>
</trkpt>
<trkpt lat="44.101042" lon="3.099285">
<ele>415.1</ele>
<time>2013-05-08T10:07:30.000Z</time>
</trkpt>
<trkpt lat="44.101051" lon="3.099115">
<ele>415.1</ele>
<time>2013-05-08T10:07:31.000Z</time>
</trkpt>
<trkpt lat="44.101061" lon="3.098945">
<ele>414.8</ele>
<time>2013-05-08T10:07:32.000Z</time>
</trkpt>
<trkpt lat="44.101071" lon="3.098778">
<ele>414.6</ele>
<time>2013-05-08T10:07:33.000Z</time>
</trkpt>
<trkpt lat="44.10108" lon="3.098617">
<ele>414.5</ele>
<time>2013-05-08T10:07:34.000Z</time>
</trkpt>
<trkpt lat="44.101089" lon="3.098455">
<ele>414.5</ele>
<time>2013-05-08T10:07:35.000Z</time>
</trkpt>
<trkpt lat="44.101097" lon="3.098302">
<ele>414.7</ele>
<time>2013-05-08T10:07:36.000Z</time>
</trkpt>
<trkpt lat="44.101106" lon="3.098146">
<ele>415</ele>
<time>2013-05-08T10:07:37.000Z</time>
</trkpt>
<trkpt lat="44.101116" lon="3.097991">
<ele>414.9</ele>
<time>2013-05-08T10:07:38.000Z</time>
</trkpt>
<trkpt lat="44.101127" lon="3.097836">
<ele>414.8</ele>
<time>2013-05-08T10:07:39.000Z</time>
</trkpt>
<trkpt lat="44.101143" lon="3.097682">
<ele>414.5</ele>
<time>2013-05-08T10:07:40.000Z</time>
</trkpt>
<trkpt lat="44.101161" lon="3.097527">
<ele>414.4</ele>
<time>2013-05-08T10:07:41.000Z</time>
</trkpt>
<trkpt lat="44.101185" lon="3.097372">
<ele>414.3</ele>
<time>2013-05-08T10:07:42.000Z</time>
</trkpt>
<trkpt lat="44.101215" lon="3.097224">
<ele>414.3</ele>
<time>2013-05-08T10:07:43.000Z</time>
</trkpt>
<trkpt lat="44.101249" lon="3.097071">
<ele>414.2</ele>
<time>2013-05-08T10:07:44.000Z</time>
</trkpt>
<trkpt lat="44.101286" lon="3.096921">
<ele>414.4</ele>
<time>2013-05-08T10:07:45.000Z</time>
</trkpt>
<trkpt lat="44.101325" lon="3.096774">
<ele>414.5</ele>
<time>2013-05-08T10:07:46.000Z</time>
</trkpt>
<trkpt lat="44.101367" lon="3.096634">
<ele>414.7</ele>
<time>2013-05-08T10:07:47.000Z</time>
</trkpt>
<trkpt lat="44.101409" lon="3.096493">
<ele>414.8</ele>
<time>2013-05-08T10:07:48.000Z</time>
</trkpt>
<trkpt lat="44.101447" lon="3.096364">
<ele>414.7</ele>
<time>2013-05-08T10:07:49.000Z</time>
</trkpt>
<trkpt lat="44.101483" lon="3.096233">
<ele>414.3</ele>
<time>2013-05-08T10:07:50.000Z</time>
</trkpt>
<trkpt lat="44.101525" lon="3.096106">
<ele>414.2</ele>
<time>2013-05-08T10:07:51.000Z</time>
</trkpt>
<trkpt lat="44.101565" lon="3.095974">
<ele>414.4</ele>
<time>2013-05-08T10:07:52.000Z</time>
</trkpt>
<trkpt lat="44.101608" lon="3.095844">
<ele>414.8</ele>
<time>2013-05-08T10:07:53.000Z</time>
</trkpt>
<trkpt lat="44.101652" lon="3.095712">
<ele>415</ele>
<time>2013-05-08T10:07:54.000Z</time>
</trkpt>
<trkpt lat="44.101697" lon="3.09558">
<ele>415.1</ele>
<time>2013-05-08T10:07:55.000Z</time>
</trkpt>
<trkpt lat="44.101739" lon="3.095445">
<ele>415.2</ele>
<time>2013-05-08T10:07:56.000Z</time>
</trkpt>
<trkpt lat="44.101784" lon="3.095309">
<ele>415.2</ele>
<time>2013-05-08T10:07:57.000Z</time>
</trkpt>
<trkpt lat="44.101827" lon="3.095171">
<ele>415.1</ele>
<time>2013-05-08T10:07:58.000Z</time>
</trkpt>
<trkpt lat="44.101866" lon="3.095029">
<ele>415.2</ele>
<time>2013-05-08T10:07:59.000Z</time>
</trkpt>
<trkpt lat="44.101902" lon="3.09488">
<ele>415.2</ele>
<time>2013-05-08T10:08:00.000Z</time>
</trkpt>
<trkpt lat="44.101934" lon="3.094736">
<ele>415.2</ele>
<time>2013-05-08T10:08:01.000Z</time>
</trkpt>
<trkpt lat="44.101961" lon="3.094585">
<ele>415.2</ele>
<time>2013-05-08T10:08:02.000Z</time>
</trkpt>
<trkpt lat="44.101983" lon="3.094436">
<ele>415.5</ele>
<time>2013-05-08T10:08:03.000Z</time>
</trkpt>
<trkpt lat="44.102002" lon="3.094271">
<ele>415.7</ele>
<time>2013-05-08T10:08:04.000Z</time>
</trkpt>
<trkpt lat="44.102018" lon="3.094097">
<ele>415.5</ele>
<time>2013-05-08T10:08:05.000Z</time>
</trkpt>
<trkpt lat="44.102032" lon="3.093926">
<ele>415.4</ele>
<time>2013-05-08T10:08:06.000Z</time>
</trkpt>
<trkpt lat="44.102044" lon="3.093752">
<ele>415.1</ele>
<time>2013-05-08T10:08:07.000Z</time>
</trkpt>
<trkpt lat="44.102055" lon="3.093585">
<ele>414.6</ele>
<time>2013-05-08T10:08:08.000Z</time>
</trkpt>
<trkpt lat="44.102066" lon="3.093416">
<ele>414.4</ele>
<time>2013-05-08T10:08:09.000Z</time>
</trkpt>
<trkpt lat="44.102077" lon="3.093245">
<ele>414.2</ele>
<time>2013-05-08T10:08:10.000Z</time>
</trkpt>
<trkpt lat="44.102087" lon="3.093078">
<ele>414.2</ele>
<time>2013-05-08T10:08:11.000Z</time>
</trkpt>
<trkpt lat="44.102099" lon="3.092906">
<ele>414</ele>
<time>2013-05-08T10:08:12.000Z</time>
</trkpt>
<trkpt lat="44.102113" lon="3.092735">
<ele>413.4</ele>
<time>2013-05-08T10:08:13.000Z</time>
</trkpt>
<trkpt lat="44.102126" lon="3.092566">
<ele>412.7</ele>
<time>2013-05-08T10:08:14.000Z</time>
</trkpt>
<trkpt lat="44.102147" lon="3.092402">
<ele>412</ele>
<time>2013-05-08T10:08:15.000Z</time>
</trkpt>
<trkpt lat="44.102203" lon="3.092266">
<ele>411.8</ele>
<time>2013-05-08T10:08:16.000Z</time>
</trkpt>
<trkpt lat="44.102286" lon="3.092149">
<ele>411.8</ele>
<time>2013-05-08T10:08:17.000Z</time>
</trkpt>
<trkpt lat="44.102369" lon="3.092038">
<ele>412.3</ele>
<time>2013-05-08T10:08:18.000Z</time>
</trkpt>
<trkpt lat="44.102457" lon="3.091923">
<ele>412.5</ele>
<time>2013-05-08T10:08:19.000Z</time>
</trkpt>
<trkpt lat="44.102544" lon="3.091806">
<ele>413.1</ele>
<time>2013-05-08T10:08:20.000Z</time>
</trkpt>
<trkpt lat="44.102628" lon="3.091673">
<ele>413.7</ele>
<time>2013-05-08T10:08:21.000Z</time>
</trkpt>
<trkpt lat="44.102707" lon="3.091534">
<ele>414.2</ele>
<time>2013-05-08T10:08:22.000Z</time>
</trkpt>
<trkpt lat="44.102782" lon="3.091387">
<ele>414.5</ele>
<time>2013-05-08T10:08:23.000Z</time>
</trkpt>
<trkpt lat="44.102859" lon="3.091229">
<ele>414.4</ele>
<time>2013-05-08T10:08:24.000Z</time>
</trkpt>
<trkpt lat="44.102933" lon="3.091074">
<ele>414.1</ele>
<time>2013-05-08T10:08:25.000Z</time>
</trkpt>
<trkpt lat="44.103004" lon="3.090923">
<ele>413.8</ele>
<time>2013-05-08T10:08:26.000Z</time>
</trkpt>
<trkpt lat="44.103077" lon="3.090767">
<ele>413.5</ele>
<time>2013-05-08T10:08:27.000Z</time>
</trkpt>
<trkpt lat="44.10315" lon="3.090605">
<ele>413.1</ele>
<time>2013-05-08T10:08:28.000Z</time>
</trkpt>
<trkpt lat="44.103221" lon="3.090448">
<ele>412.8</ele>
<time>2013-05-08T10:08:29.000Z</time>
</trkpt>
<trkpt lat="44.103282" lon="3.090292">
<ele>412.8</ele>
<time>2013-05-08T10:08:30.000Z</time>
</trkpt>
<trkpt lat="44.103336" lon="3.090132">
<ele>412.4</ele>
<time>2013-05-08T10:08:31.000Z</time>
</trkpt>
<trkpt lat="44.103352" lon="3.089969">
<ele>411.9</ele>
<time>2013-05-08T10:08:32.000Z</time>
</trkpt>
<trkpt lat="44.103358" lon="3.089813">
<ele>411.7</ele>
<time>2013-05-08T10:08:33.000Z</time>
</trkpt>
<trkpt lat="44.103339" lon="3.089644">
<ele>411.4</ele>
<time>2013-05-08T10:08:34.000Z</time>
</trkpt>
<trkpt lat="44.103325" lon="3.089505">
<ele>411.2</ele>
<time>2013-05-08T10:08:35.000Z</time>
</trkpt>
<trkpt lat="44.103311" lon="3.089387">
<ele>411</ele>
<time>2013-05-08T10:08:36.000Z</time>
</trkpt>
<trkpt lat="44.10332" lon="3.089282">
<ele>410.9</ele>
<time>2013-05-08T10:08:37.000Z</time>
</trkpt>
<trkpt lat="44.103342" lon="3.089224">
<ele>411.1</ele>
<time>2013-05-08T10:08:38.000Z</time>
</trkpt>
<trkpt lat="44.103387" lon="3.089182">
<ele>411.2</ele>
<time>2013-05-08T10:08:39.000Z</time>
</trkpt>
<trkpt lat="44.103442" lon="3.089126">
<ele>411.3</ele>
<time>2013-05-08T10:08:40.000Z</time>
</trkpt>
<trkpt lat="44.103494" lon="3.089052">
<ele>411.5</ele>
<time>2013-05-08T10:08:41.000Z</time>
</trkpt>
<trkpt lat="44.103532" lon="3.088948">
<ele>411.8</ele>
<time>2013-05-08T10:08:42.000Z</time>
</trkpt>
<trkpt lat="44.103547" lon="3.088852">
<ele>412.2</ele>
<time>2013-05-08T10:08:43.000Z</time>
</trkpt>
<trkpt lat="44.103536" lon="3.088761">
<ele>412.7</ele>
<time>2013-05-08T10:08:44.000Z</time>
</trkpt>
<trkpt lat="44.103515" lon="3.088683">
<ele>412.8</ele>
<time>2013-05-08T10:08:45.000Z</time>
</trkpt>
<trkpt lat="44.103471" lon="3.088622">
<ele>412.6</ele>
<time>2013-05-08T10:08:46.000Z</time>
</trkpt>
<trkpt lat="44.103433" lon="3.088572">
<ele>412.1</ele>
<time>2013-05-08T10:08:47.000Z</time>
</trkpt>
<trkpt lat="44.103399" lon="3.088547">
<ele>412.1</ele>
<time>2013-05-08T10:08:48.000Z</time>
</trkpt>
<trkpt lat="44.103373" lon="3.088539">
<ele>412.1</ele>
<time>2013-05-08T10:08:49.000Z</time>
</trkpt>
<trkpt lat="44.10333" lon="3.088549">
<ele>411.7</ele>
<time>2013-05-08T10:08:55.000Z</time>
</trkpt>
<trkpt lat="44.10331" lon="3.088562">
<ele>411.6</ele>
<time>2013-05-08T10:08:56.000Z</time>
</trkpt>
<trkpt lat="44.10326" lon="3.088568">
<ele>410.6</ele>
<time>2013-05-08T10:08:57.000Z</time>
</trkpt>
<trkpt lat="44.103197" lon="3.088569">
<ele>409.9</ele>
<time>2013-05-08T10:08:58.000Z</time>
</trkpt>
<trkpt lat="44.103134" lon="3.088524">
<ele>409.4</ele>
<time>2013-05-08T10:08:59.000Z</time>
</trkpt>
<trkpt lat="44.103071" lon="3.08847">
<ele>409.1</ele>
<time>2013-05-08T10:09:00.000Z</time>
</trkpt>
<trkpt lat="44.103016" lon="3.08838">
<ele>409</ele>
<time>2013-05-08T10:09:01.000Z</time>
</trkpt>
<trkpt lat="44.102957" lon="3.08828">
<ele>408.6</ele>
<time>2013-05-08T10:09:02.000Z</time>
</trkpt>
<trkpt lat="44.102898" lon="3.088175">
<ele>408.4</ele>
<time>2013-05-08T10:09:03.000Z</time>
</trkpt>
<trkpt lat="44.102834" lon="3.088062">
<ele>408.4</ele>
<time>2013-05-08T10:09:04.000Z</time>
</trkpt>
<trkpt lat="44.102768" lon="3.08794">
<ele>408.5</ele>
<time>2013-05-08T10:09:05.000Z</time>
</trkpt>
<trkpt lat="44.102702" lon="3.087817">
<ele>408.6</ele>
<time>2013-05-08T10:09:06.000Z</time>
</trkpt>
<trkpt lat="44.102639" lon="3.087703">
<ele>408.8</ele>
<time>2013-05-08T10:09:07.000Z</time>
</trkpt>
<trkpt lat="44.102573" lon="3.087593">
<ele>409</ele>
<time>2013-05-08T10:09:08.000Z</time>
</trkpt>
<trkpt lat="44.102489" lon="3.087518">
<ele>409.3</ele>
<time>2013-05-08T10:09:09.000Z</time>
</trkpt>
<trkpt lat="44.102401" lon="3.087441">
<ele>409.6</ele>
<time>2013-05-08T10:09:10.000Z</time>
</trkpt>
<trkpt lat="44.102315" lon="3.087365">
<ele>409.9</ele>
<time>2013-05-08T10:09:11.000Z</time>
</trkpt>
<trkpt lat="44.102221" lon="3.087284">
<ele>410.4</ele>
<time>2013-05-08T10:09:12.000Z</time>
</trkpt>
<trkpt lat="44.102129" lon="3.087195">
<ele>410.6</ele>
<time>2013-05-08T10:09:13.000Z</time>
</trkpt>
<trkpt lat="44.102066" lon="3.087079">
<ele>410.8</ele>
<time>2013-05-08T10:09:14.000Z</time>
</trkpt>
<trkpt lat="44.102012" lon="3.086964">
<ele>411.2</ele>
<time>2013-05-08T10:09:15.000Z</time>
</trkpt>
<trkpt lat="44.101986" lon="3.086839">
<ele>411.8</ele>
<time>2013-05-08T10:09:16.000Z</time>
</trkpt>
<trkpt lat="44.10197" lon="3.08672">
<ele>412.4</ele>
<time>2013-05-08T10:09:17.000Z</time>
</trkpt>
<trkpt lat="44.101961" lon="3.086607">
<ele>413.1</ele>
<time>2013-05-08T10:09:18.000Z</time>
</trkpt>
<trkpt lat="44.101955" lon="3.086505">
<ele>413.8</ele>
<time>2013-05-08T10:09:19.000Z</time>
</trkpt>
<trkpt lat="44.10195" lon="3.086403">
<ele>414.3</ele>
<time>2013-05-08T10:09:20.000Z</time>
</trkpt>
<trkpt lat="44.101945" lon="3.086299">
<ele>414.8</ele>
<time>2013-05-08T10:09:21.000Z</time>
</trkpt>
<trkpt lat="44.101939" lon="3.086212">
<ele>415.3</ele>
<time>2013-05-08T10:09:22.000Z</time>
</trkpt>
<trkpt lat="44.101923" lon="3.086149">
<ele>415.7</ele>
<time>2013-05-08T10:09:23.000Z</time>
</trkpt>
<trkpt lat="44.101908" lon="3.086088">
<ele>416.1</ele>
<time>2013-05-08T10:09:24.000Z</time>
</trkpt>
<trkpt lat="44.101899" lon="3.086044">
<ele>416.1</ele>
<time>2013-05-08T10:09:25.000Z</time>
</trkpt>
<trkpt lat="44.101893" lon="3.08601">
<ele>416.1</ele>
<time>2013-05-08T10:09:26.000Z</time>
</trkpt>
<trkpt lat="44.10189" lon="3.085974">
<ele>416.2</ele>
<time>2013-05-08T10:09:42.000Z</time>
</trkpt>
<trkpt lat="44.10189" lon="3.085947">
<ele>416.2</ele>
<time>2013-05-08T10:09:43.000Z</time>
</trkpt>
<trkpt lat="44.101888" lon="3.085904">
<ele>416.2</ele>
<time>2013-05-08T10:09:44.000Z</time>
</trkpt>
<trkpt lat="44.101888" lon="3.085858">
<ele>416.1</ele>
<time>2013-05-08T10:09:45.000Z</time>
</trkpt>
<trkpt lat="44.101896" lon="3.085817">
<ele>416.1</ele>
<time>2013-05-08T10:09:46.000Z</time>
</trkpt>
<trkpt lat="44.101905" lon="3.085771">
<ele>416</ele>
<time>2013-05-08T10:09:47.000Z</time>
</trkpt>
<trkpt lat="44.101914" lon="3.085731">
<ele>415.9</ele>
<time>2013-05-08T10:09:48.000Z</time>
</trkpt>
<trkpt lat="44.101916" lon="3.085686">
<ele>415.9</ele>
<time>2013-05-08T10:09:49.000Z</time>
</trkpt>
<trkpt lat="44.101916" lon="3.085636">
<ele>415.8</ele>
<time>2013-05-08T10:09:50.000Z</time>
</trkpt>
<trkpt lat="44.101902" lon="3.085583">
<ele>414.8</ele>
<time>2013-05-08T10:09:51.000Z</time>
</trkpt>
<trkpt lat="44.101886" lon="3.085538">
<ele>414.7</ele>
<time>2013-05-08T10:09:52.000Z</time>
</trkpt>
<trkpt lat="44.101872" lon="3.0855">
<ele>414.6</ele>
<time>2013-05-08T10:09:53.000Z</time>
</trkpt>
<trkpt lat="44.101857" lon="3.085455">
<ele>414.6</ele>
<time>2013-05-08T10:09:54.000Z</time>
</trkpt>
<trkpt lat="44.101845" lon="3.085416">
<ele>414.6</ele>
<time>2013-05-08T10:09:55.000Z</time>
</trkpt>
<trkpt lat="44.101833" lon="3.085375">
<ele>414.5</ele>
<time>2013-05-08T10:09:56.000Z</time>
</trkpt>
<trkpt lat="44.101829" lon="3.085328">
<ele>414.4</ele>
<time>2013-05-08T10:09:57.000Z</time>
</trkpt>
<trkpt lat="44.101825" lon="3.085268">
<ele>414.4</ele>
<time>2013-05-08T10:09:58.000Z</time>
</trkpt>
<trkpt lat="44.101821" lon="3.085208">
<ele>414.7</ele>
<time>2013-05-08T10:09:59.000Z</time>
</trkpt>
<trkpt lat="44.101819" lon="3.085148">
<ele>415.5</ele>
<time>2013-05-08T10:10:00.000Z</time>
</trkpt>
<trkpt lat="44.10182" lon="3.085092">
<ele>415.6</ele>
<time>2013-05-08T10:10:01.000Z</time>
</trkpt>
<trkpt lat="44.101818" lon="3.085028">
<ele>415.6</ele>
<time>2013-05-08T10:10:02.000Z</time>
</trkpt>
<trkpt lat="44.101814" lon="3.084967">
<ele>415.4</ele>
<time>2013-05-08T10:10:03.000Z</time>
</trkpt>
<trkpt lat="44.101808" lon="3.084896">
<ele>415.2</ele>
<time>2013-05-08T10:10:04.000Z</time>
</trkpt>
<trkpt lat="44.101803" lon="3.084821">
<ele>415.2</ele>
<time>2013-05-08T10:10:05.000Z</time>
</trkpt>
<trkpt lat="44.101799" lon="3.084751">
<ele>415.6</ele>
<time>2013-05-08T10:10:06.000Z</time>
</trkpt>
<trkpt lat="44.101797" lon="3.084685">
<ele>416.6</ele>
<time>2013-05-08T10:10:07.000Z</time>
</trkpt>
<trkpt lat="44.101794" lon="3.084612">
<ele>417.4</ele>
<time>2013-05-08T10:10:08.000Z</time>
</trkpt>
<trkpt lat="44.101793" lon="3.084542">
<ele>418.7</ele>
<time>2013-05-08T10:10:09.000Z</time>
</trkpt>
<trkpt lat="44.101788" lon="3.084453">
<ele>419.7</ele>
<time>2013-05-08T10:10:10.000Z</time>
</trkpt>
<trkpt lat="44.101781" lon="3.084353">
<ele>420.6</ele>
<time>2013-05-08T10:10:11.000Z</time>
</trkpt>
<trkpt lat="44.101773" lon="3.08426">
<ele>421.6</ele>
<time>2013-05-08T10:10:12.000Z</time>
</trkpt>
<trkpt lat="44.101764" lon="3.084168">
<ele>421.8</ele>
<time>2013-05-08T10:10:13.000Z</time>
</trkpt>
<trkpt lat="44.101754" lon="3.084064">
<ele>422.2</ele>
<time>2013-05-08T10:10:14.000Z</time>
</trkpt>
<trkpt lat="44.101747" lon="3.083949">
<ele>423.2</ele>
<time>2013-05-08T10:10:15.000Z</time>
</trkpt>
<trkpt lat="44.101741" lon="3.083819">
<ele>424.2</ele>
<time>2013-05-08T10:10:16.000Z</time>
</trkpt>
<trkpt lat="44.101734" lon="3.083675">
<ele>425.2</ele>
<time>2013-05-08T10:10:17.000Z</time>
</trkpt>
<trkpt lat="44.10173" lon="3.083537">
<ele>426.3</ele>
<time>2013-05-08T10:10:18.000Z</time>
</trkpt>
<trkpt lat="44.101724" lon="3.083398">
<ele>427.1</ele>
<time>2013-05-08T10:10:19.000Z</time>
</trkpt>
<trkpt lat="44.10171" lon="3.083261">
<ele>426.7</ele>
<time>2013-05-08T10:10:20.000Z</time>
</trkpt>
<trkpt lat="44.101692" lon="3.083124">
<ele>425.8</ele>
<time>2013-05-08T10:10:21.000Z</time>
</trkpt>
<trkpt lat="44.101674" lon="3.082992">
<ele>425.4</ele>
<time>2013-05-08T10:10:22.000Z</time>
</trkpt>
<trkpt lat="44.10166" lon="3.082865">
<ele>425.1</ele>
<time>2013-05-08T10:10:23.000Z</time>
</trkpt>
<trkpt lat="44.101642" lon="3.082747">
<ele>425</ele>
<time>2013-05-08T10:10:24.000Z</time>
</trkpt>
<trkpt lat="44.101622" lon="3.082632">
<ele>424.7</ele>
<time>2013-05-08T10:10:25.000Z</time>
</trkpt>
<trkpt lat="44.101614" lon="3.082538">
<ele>425.1</ele>
<time>2013-05-08T10:10:26.000Z</time>
</trkpt>
<trkpt lat="44.101616" lon="3.082451">
<ele>425.1</ele>
<time>2013-05-08T10:10:27.000Z</time>
</trkpt>
<trkpt lat="44.101613" lon="3.082348">
<ele>424.9</ele>
<time>2013-05-08T10:10:28.000Z</time>
</trkpt>
<trkpt lat="44.101605" lon="3.082261">
<ele>424.2</ele>
<time>2013-05-08T10:10:29.000Z</time>
</trkpt>
<trkpt lat="44.10158" lon="3.082154">
<ele>423.4</ele>
<time>2013-05-08T10:10:30.000Z</time>
</trkpt>
<trkpt lat="44.101544" lon="3.082038">
<ele>422.6</ele>
<time>2013-05-08T10:10:31.000Z</time>
</trkpt>
<trkpt lat="44.101504" lon="3.081926">
<ele>422.1</ele>
<time>2013-05-08T10:10:32.000Z</time>
</trkpt>
<trkpt lat="44.101448" lon="3.081813">
<ele>421.8</ele>
<time>2013-05-08T10:10:33.000Z</time>
</trkpt>
<trkpt lat="44.101396" lon="3.081706">
<ele>422</ele>
<time>2013-05-08T10:10:34.000Z</time>
</trkpt>
<trkpt lat="44.101347" lon="3.081612">
<ele>421.8</ele>
<time>2013-05-08T10:10:35.000Z</time>
</trkpt>
<trkpt lat="44.101293" lon="3.081522">
<ele>421.7</ele>
<time>2013-05-08T10:10:36.000Z</time>
</trkpt>
<trkpt lat="44.101238" lon="3.081439">
<ele>422</ele>
<time>2013-05-08T10:10:37.000Z</time>
</trkpt>
<trkpt lat="44.10118" lon="3.081376">
<ele>422</ele>
<time>2013-05-08T10:10:38.000Z</time>
</trkpt>
<trkpt lat="44.101102" lon="3.081334">
<ele>422.1</ele>
<time>2013-05-08T10:10:39.000Z</time>
</trkpt>
<trkpt lat="44.101019" lon="3.081285">
<ele>422.2</ele>
<time>2013-05-08T10:10:40.000Z</time>
</trkpt>
<trkpt lat="44.10094" lon="3.081244">
<ele>422</ele>
<time>2013-05-08T10:10:41.000Z</time>
</trkpt>
<trkpt lat="44.10088" lon="3.081217">
<ele>421.9</ele>
<time>2013-05-08T10:10:42.000Z</time>
</trkpt>
<trkpt lat="44.100817" lon="3.081184">
<ele>422.1</ele>
<time>2013-05-08T10:10:43.000Z</time>
</trkpt>
<trkpt lat="44.100754" lon="3.081162">
<ele>422.3</ele>
<time>2013-05-08T10:10:44.000Z</time>
</trkpt>
<trkpt lat="44.100696" lon="3.081155">
<ele>422.3</ele>
<time>2013-05-08T10:10:45.000Z</time>
</trkpt>
<trkpt lat="44.100642" lon="3.081148">
<ele>422.7</ele>
<time>2013-05-08T10:10:46.000Z</time>
</trkpt>
<trkpt lat="44.100578" lon="3.081144">
<ele>422.9</ele>
<time>2013-05-08T10:10:47.000Z</time>
</trkpt>
<trkpt lat="44.100518" lon="3.081141">
<ele>423.2</ele>
<time>2013-05-08T10:10:48.000Z</time>
</trkpt>
<trkpt lat="44.100463" lon="3.081134">
<ele>423.3</ele>
<time>2013-05-08T10:10:49.000Z</time>
</trkpt>
<trkpt lat="44.100408" lon="3.081108">
<ele>423</ele>
<time>2013-05-08T10:10:50.000Z</time>
</trkpt>
<trkpt lat="44.100351" lon="3.081081">
<ele>422.5</ele>
<time>2013-05-08T10:10:51.000Z</time>
</trkpt>
<trkpt lat="44.100294" lon="3.081074">
<ele>422.2</ele>
<time>2013-05-08T10:10:52.000Z</time>
</trkpt>
<trkpt lat="44.100234" lon="3.081066">
<ele>421.7</ele>
<time>2013-05-08T10:10:53.000Z</time>
</trkpt>
<trkpt lat="44.100175" lon="3.081063">
<ele>421</ele>
<time>2013-05-08T10:10:54.000Z</time>
</trkpt>
<trkpt lat="44.100119" lon="3.081056">
<ele>420.4</ele>
<time>2013-05-08T10:10:55.000Z</time>
</trkpt>
<trkpt lat="44.100061" lon="3.081045">
<ele>419.9</ele>
<time>2013-05-08T10:10:56.000Z</time>
</trkpt>
<trkpt lat="44.100008" lon="3.081032">
<ele>419.5</ele>
<time>2013-05-08T10:10:57.000Z</time>
</trkpt>
<trkpt lat="44.099964" lon="3.08104">
<ele>419.1</ele>
<time>2013-05-08T10:10:58.000Z</time>
</trkpt>
<trkpt lat="44.099937" lon="3.081066">
<ele>419.1</ele>
<time>2013-05-08T10:10:59.000Z</time>
</trkpt>
<trkpt lat="44.099922" lon="3.081101">
<ele>419.1</ele>
<time>2013-05-08T10:11:00.000Z</time>
</trkpt>
<trkpt lat="44.099919" lon="3.081141">
<ele>419.1</ele>
<time>2013-05-08T10:11:01.000Z</time>
</trkpt>
<trkpt lat="44.099928" lon="3.081183">
<ele>419.1</ele>
<time>2013-05-08T10:11:02.000Z</time>
</trkpt>
<trkpt lat="44.09995" lon="3.081221">
<ele>419.3</ele>
<time>2013-05-08T10:11:03.000Z</time>
</trkpt>
<trkpt lat="44.09999" lon="3.081234">
<ele>419.5</ele>
<time>2013-05-08T10:11:04.000Z</time>
</trkpt>
<trkpt lat="44.100041" lon="3.081235">
<ele>419.4</ele>
<time>2013-05-08T10:11:05.000Z</time>
</trkpt>
<trkpt lat="44.100098" lon="3.081229">
<ele>419.6</ele>
<time>2013-05-08T10:11:06.000Z</time>
</trkpt>
<trkpt lat="44.100168" lon="3.081214">
<ele>420.1</ele>
<time>2013-05-08T10:11:07.000Z</time>
</trkpt>
<trkpt lat="44.100237" lon="3.081199">
<ele>421</ele>
<time>2013-05-08T10:11:08.000Z</time>
</trkpt>
<trkpt lat="44.100309" lon="3.08119">
<ele>422.1</ele>
<time>2013-05-08T10:11:09.000Z</time>
</trkpt>
<trkpt lat="44.100382" lon="3.081191">
<ele>423.3</ele>
<time>2013-05-08T10:11:10.000Z</time>
</trkpt>
<trkpt lat="44.100451" lon="3.081204">
<ele>424</ele>
<time>2013-05-08T10:11:11.000Z</time>
</trkpt>
<trkpt lat="44.100526" lon="3.081218">
<ele>424.8</ele>
<time>2013-05-08T10:11:12.000Z</time>
</trkpt>
<trkpt lat="44.100595" lon="3.081228">
<ele>425.5</ele>
<time>2013-05-08T10:11:13.000Z</time>
</trkpt>
<trkpt lat="44.100673" lon="3.081237">
<ele>425.9</ele>
<time>2013-05-08T10:11:14.000Z</time>
</trkpt>
<trkpt lat="44.100756" lon="3.08125">
<ele>426.3</ele>
<time>2013-05-08T10:11:15.000Z</time>
</trkpt>
<trkpt lat="44.100832" lon="3.081261">
<ele>426.4</ele>
<time>2013-05-08T10:11:16.000Z</time>
</trkpt>
<trkpt lat="44.10091" lon="3.081282">
<ele>426.5</ele>
<time>2013-05-08T10:11:17.000Z</time>
</trkpt>
<trkpt lat="44.10099" lon="3.081313">
<ele>426.6</ele>
<time>2013-05-08T10:11:18.000Z</time>
</trkpt>
<trkpt lat="44.101059" lon="3.081345">
<ele>426.8</ele>
<time>2013-05-08T10:11:19.000Z</time>
</trkpt>
<trkpt lat="44.101128" lon="3.081384">
<ele>426.7</ele>
<time>2013-05-08T10:11:20.000Z</time>
</trkpt>
<trkpt lat="44.101211" lon="3.081444">
<ele>427.2</ele>
<time>2013-05-08T10:11:21.000Z</time>
</trkpt>
<trkpt lat="44.10129" lon="3.081513">
<ele>427.1</ele>
<time>2013-05-08T10:11:22.000Z</time>
</trkpt>
<trkpt lat="44.101344" lon="3.081597">
<ele>426.9</ele>
<time>2013-05-08T10:11:23.000Z</time>
</trkpt>
<trkpt lat="44.101398" lon="3.081684">
<ele>426.5</ele>
<time>2013-05-08T10:11:24.000Z</time>
</trkpt>
<trkpt lat="44.101447" lon="3.081783">
<ele>426.1</ele>
<time>2013-05-08T10:11:25.000Z</time>
</trkpt>
<trkpt lat="44.101485" lon="3.081902">
<ele>425.5</ele>
<time>2013-05-08T10:11:26.000Z</time>
</trkpt>
<trkpt lat="44.101523" lon="3.082032">
<ele>424.7</ele>
<time>2013-05-08T10:11:27.000Z</time>
</trkpt>
<trkpt lat="44.101539" lon="3.08219">
<ele>424.2</ele>
<time>2013-05-08T10:11:28.000Z</time>
</trkpt>
<trkpt lat="44.101558" lon="3.082348">
<ele>423.7</ele>
<time>2013-05-08T10:11:29.000Z</time>
</trkpt>
<trkpt lat="44.101575" lon="3.082503">
<ele>423.2</ele>
<time>2013-05-08T10:11:30.000Z</time>
</trkpt>
<trkpt lat="44.10159" lon="3.082653">
<ele>422.7</ele>
<time>2013-05-08T10:11:31.000Z</time>
</trkpt>
<trkpt lat="44.101606" lon="3.082814">
<ele>423</ele>
<time>2013-05-08T10:11:32.000Z</time>
</trkpt>
<trkpt lat="44.101617" lon="3.082962">
<ele>423.3</ele>
<time>2013-05-08T10:11:33.000Z</time>
</trkpt>
<trkpt lat="44.101627" lon="3.083089">
<ele>423.6</ele>
<time>2013-05-08T10:11:34.000Z</time>
</trkpt>
<trkpt lat="44.101636" lon="3.083219">
<ele>423.6</ele>
<time>2013-05-08T10:11:35.000Z</time>
</trkpt>
<trkpt lat="44.101643" lon="3.083334">
<ele>422.4</ele>
<time>2013-05-08T10:11:36.000Z</time>
</trkpt>
<trkpt lat="44.101654" lon="3.083468">
<ele>422.1</ele>
<time>2013-05-08T10:11:37.000Z</time>
</trkpt>
<trkpt lat="44.101663" lon="3.083586">
<ele>421.7</ele>
<time>2013-05-08T10:11:38.000Z</time>
</trkpt>
<trkpt lat="44.101669" lon="3.083699">
<ele>421.3</ele>
<time>2013-05-08T10:11:39.000Z</time>
</trkpt>
<trkpt lat="44.101679" lon="3.083834">
<ele>421.3</ele>
<time>2013-05-08T10:11:40.000Z</time>
</trkpt>
<trkpt lat="44.101688" lon="3.083966">
<ele>420.9</ele>
<time>2013-05-08T10:11:41.000Z</time>
</trkpt>
<trkpt lat="44.101695" lon="3.084118">
<ele>421</ele>
<time>2013-05-08T10:11:42.000Z</time>
</trkpt>
<trkpt lat="44.101703" lon="3.084267">
<ele>421</ele>
<time>2013-05-08T10:11:43.000Z</time>
</trkpt>
<trkpt lat="44.10171" lon="3.0844">
<ele>420.9</ele>
<time>2013-05-08T10:11:44.000Z</time>
</trkpt>
<trkpt lat="44.101716" lon="3.084532">
<ele>420.8</ele>
<time>2013-05-08T10:11:45.000Z</time>
</trkpt>
<trkpt lat="44.101725" lon="3.084665">
<ele>420.7</ele>
<time>2013-05-08T10:11:46.000Z</time>
</trkpt>
<trkpt lat="44.101736" lon="3.084789">
<ele>420.5</ele>
<time>2013-05-08T10:11:47.000Z</time>
</trkpt>
<trkpt lat="44.101751" lon="3.084906">
<ele>420.2</ele>
<time>2013-05-08T10:11:48.000Z</time>
</trkpt>
<trkpt lat="44.101766" lon="3.085003">
<ele>420</ele>
<time>2013-05-08T10:11:49.000Z</time>
</trkpt>
<trkpt lat="44.101776" lon="3.085103">
<ele>419.4</ele>
<time>2013-05-08T10:11:50.000Z</time>
</trkpt>
<trkpt lat="44.101786" lon="3.0852">
<ele>418.5</ele>
<time>2013-05-08T10:11:51.000Z</time>
</trkpt>
<trkpt lat="44.101791" lon="3.085288">
<ele>418.3</ele>
<time>2013-05-08T10:11:52.000Z</time>
</trkpt>
<trkpt lat="44.101785" lon="3.085376">
<ele>417.9</ele>
<time>2013-05-08T10:11:53.000Z</time>
</trkpt>
<trkpt lat="44.101765" lon="3.085454">
<ele>416.9</ele>
<time>2013-05-08T10:11:54.000Z</time>
</trkpt>
<trkpt lat="44.101736" lon="3.085511">
<ele>415.6</ele>
<time>2013-05-08T10:11:55.000Z</time>
</trkpt>
<trkpt lat="44.101701" lon="3.085544">
<ele>415.5</ele>
<time>2013-05-08T10:11:56.000Z</time>
</trkpt>
<trkpt lat="44.101664" lon="3.085579">
<ele>415.5</ele>
<time>2013-05-08T10:11:57.000Z</time>
</trkpt>
<trkpt lat="44.101634" lon="3.085623">
<ele>415.1</ele>
<time>2013-05-08T10:11:58.000Z</time>
</trkpt>
<trkpt lat="44.101613" lon="3.085664">
<ele>415.2</ele>
<time>2013-05-08T10:11:59.000Z</time>
</trkpt>
<trkpt lat="44.101597" lon="3.085706">
<ele>415.4</ele>
<time>2013-05-08T10:12:00.000Z</time>
</trkpt>
<trkpt lat="44.101584" lon="3.085747">
<ele>415.4</ele>
<time>2013-05-08T10:12:01.000Z</time>
</trkpt>
<trkpt lat="44.101572" lon="3.08579">
<ele>415.4</ele>
<time>2013-05-08T10:12:02.000Z</time>
</trkpt>
<trkpt lat="44.101556" lon="3.085844">
<ele>415.4</ele>
<time>2013-05-08T10:12:03.000Z</time>
</trkpt>
<trkpt lat="44.101543" lon="3.085884">
<ele>415.3</ele>
<time>2013-05-08T10:12:04.000Z</time>
</trkpt>
<trkpt lat="44.101532" lon="3.085911">
<ele>415.2</ele>
<time>2013-05-08T10:12:05.000Z</time>
</trkpt>
<trkpt lat="44.101493" lon="3.085943">
<ele>415.1</ele>
<time>2013-05-08T10:12:08.000Z</time>
</trkpt>
<trkpt lat="44.101478" lon="3.085952">
<ele>415.2</ele>
<time>2013-05-08T10:12:09.000Z</time>
</trkpt>
<trkpt lat="44.101443" lon="3.085977">
<ele>415.2</ele>
<time>2013-05-08T10:12:11.000Z</time>
</trkpt>
<trkpt lat="44.101424" lon="3.085989">
<ele>415.2</ele>
<time>2013-05-08T10:12:12.000Z</time>
</trkpt>
<trkpt lat="44.101392" lon="3.086013">
<ele>415.1</ele>
<time>2013-05-08T10:12:14.000Z</time>
</trkpt>
<trkpt lat="44.10137" lon="3.086031">
<ele>415.1</ele>
<time>2013-05-08T10:12:15.000Z</time>
</trkpt>
<trkpt lat="44.101343" lon="3.086052">
<ele>415.1</ele>
<time>2013-05-08T10:12:16.000Z</time>
</trkpt>
<trkpt lat="44.101309" lon="3.086073">
<ele>415</ele>
<time>2013-05-08T10:12:17.000Z</time>
</trkpt>
<trkpt lat="44.101268" lon="3.086081">
<ele>414.5</ele>
<time>2013-05-08T10:12:18.000Z</time>
</trkpt>
<trkpt lat="44.101224" lon="3.086089">
<ele>413.9</ele>
<time>2013-05-08T10:12:19.000Z</time>
</trkpt>
<trkpt lat="44.101157" lon="3.08611">
<ele>413.4</ele>
<time>2013-05-08T10:12:20.000Z</time>
</trkpt>
<trkpt lat="44.10109" lon="3.086135">
<ele>413.2</ele>
<time>2013-05-08T10:12:21.000Z</time>
</trkpt>
<trkpt lat="44.101033" lon="3.08616">
<ele>413.2</ele>
<time>2013-05-08T10:12:22.000Z</time>
</trkpt>
<trkpt lat="44.100979" lon="3.086188">
<ele>413.5</ele>
<time>2013-05-08T10:12:23.000Z</time>
</trkpt>
<trkpt lat="44.100923" lon="3.086216">
<ele>413.4</ele>
<time>2013-05-08T10:12:24.000Z</time>
</trkpt>
<trkpt lat="44.100858" lon="3.086247">
<ele>413.2</ele>
<time>2013-05-08T10:12:25.000Z</time>
</trkpt>
<trkpt lat="44.100787" lon="3.086282">
<ele>413.1</ele>
<time>2013-05-08T10:12:26.000Z</time>
</trkpt>
<trkpt lat="44.100709" lon="3.086323">
<ele>413.1</ele>
<time>2013-05-08T10:12:27.000Z</time>
</trkpt>
<trkpt lat="44.100626" lon="3.086372">
<ele>413.2</ele>
<time>2013-05-08T10:12:28.000Z</time>
</trkpt>
<trkpt lat="44.100532" lon="3.086427">
<ele>413.5</ele>
<time>2013-05-08T10:12:29.000Z</time>
</trkpt>
<trkpt lat="44.100439" lon="3.086485">
<ele>413.6</ele>
<time>2013-05-08T10:12:30.000Z</time>
</trkpt>
<trkpt lat="44.100346" lon="3.086543">
<ele>413.6</ele>
<time>2013-05-08T10:12:31.000Z</time>
</trkpt>
<trkpt lat="44.10025" lon="3.086603">
<ele>413.5</ele>
<time>2013-05-08T10:12:32.000Z</time>
</trkpt>
<trkpt lat="44.100148" lon="3.086665">
<ele>413.5</ele>
<time>2013-05-08T10:12:33.000Z</time>
</trkpt>
<trkpt lat="44.100043" lon="3.086731">
<ele>413.6</ele>
<time>2013-05-08T10:12:34.000Z</time>
</trkpt>
<trkpt lat="44.099919" lon="3.086809">
<ele>414.4</ele>
<time>2013-05-08T10:12:35.000Z</time>
</trkpt>
<trkpt lat="44.099803" lon="3.086882">
<ele>414.9</ele>
<time>2013-05-08T10:12:36.000Z</time>
</trkpt>
<trkpt lat="44.099685" lon="3.086955">
<ele>415.4</ele>
<time>2013-05-08T10:12:37.000Z</time>
</trkpt>
<trkpt lat="44.099563" lon="3.087026">
<ele>415.7</ele>
<time>2013-05-08T10:12:38.000Z</time>
</trkpt>
<trkpt lat="44.099439" lon="3.087092">
<ele>415.9</ele>
<time>2013-05-08T10:12:39.000Z</time>
</trkpt>
<trkpt lat="44.099312" lon="3.087155">
<ele>416.1</ele>
<time>2013-05-08T10:12:40.000Z</time>
</trkpt>
<trkpt lat="44.099182" lon="3.087218">
<ele>415.4</ele>
<time>2013-05-08T10:12:41.000Z</time>
</trkpt>
<trkpt lat="44.099044" lon="3.087276">
<ele>414.8</ele>
<time>2013-05-08T10:12:42.000Z</time>
</trkpt>
<trkpt lat="44.098894" lon="3.08733">
<ele>414.1</ele>
<time>2013-05-08T10:12:43.000Z</time>
</trkpt>
<trkpt lat="44.098736" lon="3.087383">
<ele>413.6</ele>
<time>2013-05-08T10:12:44.000Z</time>
</trkpt>
<trkpt lat="44.098569" lon="3.087431">
<ele>412.8</ele>
<time>2013-05-08T10:12:45.000Z</time>
</trkpt>
<trkpt lat="44.098389" lon="3.087477">
<ele>411.9</ele>
<time>2013-05-08T10:12:46.000Z</time>
</trkpt>
<trkpt lat="44.098194" lon="3.08752">
<ele>411.2</ele>
<time>2013-05-08T10:12:47.000Z</time>
</trkpt>
<trkpt lat="44.097997" lon="3.087558">
<ele>410.7</ele>
<time>2013-05-08T10:12:48.000Z</time>
</trkpt>
<trkpt lat="44.097816" lon="3.087545">
<ele>410.1</ele>
<time>2013-05-08T10:12:49.000Z</time>
</trkpt>
<trkpt lat="44.097627" lon="3.087534">
<ele>409.5</ele>
<time>2013-05-08T10:12:50.000Z</time>
</trkpt>
<trkpt lat="44.097434" lon="3.087521">
<ele>409.2</ele>
<time>2013-05-08T10:12:51.000Z</time>
</trkpt>
<trkpt lat="44.09724" lon="3.0875">
<ele>409</ele>
<time>2013-05-08T10:12:52.000Z</time>
</trkpt>
<trkpt lat="44.09705" lon="3.087468">
<ele>409</ele>
<time>2013-05-08T10:12:53.000Z</time>
</trkpt>
<trkpt lat="44.096864" lon="3.087432">
<ele>409</ele>
<time>2013-05-08T10:12:54.000Z</time>
</trkpt>
<trkpt lat="44.096687" lon="3.087375">
<ele>409</ele>
<time>2013-05-08T10:12:55.000Z</time>
</trkpt>
<trkpt lat="44.096516" lon="3.087303">
<ele>408.9</ele>
<time>2013-05-08T10:12:56.000Z</time>
</trkpt>
<trkpt lat="44.09635" lon="3.087212">
<ele>408.7</ele>
<time>2013-05-08T10:12:57.000Z</time>
</trkpt>
<trkpt lat="44.096185" lon="3.087111">
<ele>408.5</ele>
<time>2013-05-08T10:12:58.000Z</time>
</trkpt>
<trkpt lat="44.096035" lon="3.08699">
<ele>408.2</ele>
<time>2013-05-08T10:12:59.000Z</time>
</trkpt>
<trkpt lat="44.095885" lon="3.086863">
<ele>408.4</ele>
<time>2013-05-08T10:13:00.000Z</time>
</trkpt>
<trkpt lat="44.095738" lon="3.086718">
<ele>408.6</ele>
<time>2013-05-08T10:13:01.000Z</time>
</trkpt>
<trkpt lat="44.095593" lon="3.086554">
<ele>409.1</ele>
<time>2013-05-08T10:13:02.000Z</time>
</trkpt>
<trkpt lat="44.095466" lon="3.086373">
<ele>409.6</ele>
<time>2013-05-08T10:13:03.000Z</time>
</trkpt>
<trkpt lat="44.095355" lon="3.086165">
<ele>410.1</ele>
<time>2013-05-08T10:13:04.000Z</time>
</trkpt>
<trkpt lat="44.095258" lon="3.085942">
<ele>410.3</ele>
<time>2013-05-08T10:13:05.000Z</time>
</trkpt>
<trkpt lat="44.095169" lon="3.085716">
<ele>410.4</ele>
<time>2013-05-08T10:13:06.000Z</time>
</trkpt>
<trkpt lat="44.095085" lon="3.085475">
<ele>410.5</ele>
<time>2013-05-08T10:13:07.000Z</time>
</trkpt>
<trkpt lat="44.095009" lon="3.085224">
<ele>410.9</ele>
<time>2013-05-08T10:13:08.000Z</time>
</trkpt>
<trkpt lat="44.094936" lon="3.084962">
<ele>411.5</ele>
<time>2013-05-08T10:13:09.000Z</time>
</trkpt>
<trkpt lat="44.094871" lon="3.084698">
<ele>412</ele>
<time>2013-05-08T10:13:10.000Z</time>
</trkpt>
<trkpt lat="44.094809" lon="3.084451">
<ele>412.5</ele>
<time>2013-05-08T10:13:11.000Z</time>
</trkpt>
<trkpt lat="44.094756" lon="3.084223">
<ele>413</ele>
<time>2013-05-08T10:13:12.000Z</time>
</trkpt>
<trkpt lat="44.094706" lon="3.084008">
<ele>413.5</ele>
<time>2013-05-08T10:13:13.000Z</time>
</trkpt>
<trkpt lat="44.094657" lon="3.083815">
<ele>413.5</ele>
<time>2013-05-08T10:13:14.000Z</time>
</trkpt>
<trkpt lat="44.094604" lon="3.083627">
<ele>413.4</ele>
<time>2013-05-08T10:13:15.000Z</time>
</trkpt>
<trkpt lat="44.094563" lon="3.083476">
<ele>413.6</ele>
<time>2013-05-08T10:13:16.000Z</time>
</trkpt>
<trkpt lat="44.094525" lon="3.083332">
<ele>413.9</ele>
<time>2013-05-08T10:13:17.000Z</time>
</trkpt>
<trkpt lat="44.094485" lon="3.083193">
<ele>414.1</ele>
<time>2013-05-08T10:13:18.000Z</time>
</trkpt>
<trkpt lat="44.094443" lon="3.083054">
<ele>414.3</ele>
<time>2013-05-08T10:13:19.000Z</time>
</trkpt>
<trkpt lat="44.094393" lon="3.082913">
<ele>414.4</ele>
<time>2013-05-08T10:13:20.000Z</time>
</trkpt>
<trkpt lat="44.094343" lon="3.082774">
<ele>414.5</ele>
<time>2013-05-08T10:13:21.000Z</time>
</trkpt>
<trkpt lat="44.09429" lon="3.082638">
<ele>414.8</ele>
<time>2013-05-08T10:13:22.000Z</time>
</trkpt>
<trkpt lat="44.094241" lon="3.082511">
<ele>415.1</ele>
<time>2013-05-08T10:13:23.000Z</time>
</trkpt>
<trkpt lat="44.094192" lon="3.08239">
<ele>415.3</ele>
<time>2013-05-08T10:13:24.000Z</time>
</trkpt>
<trkpt lat="44.09414" lon="3.082274">
<ele>415.4</ele>
<time>2013-05-08T10:13:25.000Z</time>
</trkpt>
<trkpt lat="44.094076" lon="3.082141">
<ele>415.8</ele>
<time>2013-05-08T10:13:26.000Z</time>
</trkpt>
<trkpt lat="44.094006" lon="3.082">
<ele>416.1</ele>
<time>2013-05-08T10:13:27.000Z</time>
</trkpt>
<trkpt lat="44.093925" lon="3.081844">
<ele>416.5</ele>
<time>2013-05-08T10:13:28.000Z</time>
</trkpt>
<trkpt lat="44.093836" lon="3.081685">
<ele>417</ele>
<time>2013-05-08T10:13:29.000Z</time>
</trkpt>
<trkpt lat="44.09374" lon="3.081528">
<ele>417.3</ele>
<time>2013-05-08T10:13:30.000Z</time>
</trkpt>
<trkpt lat="44.09364" lon="3.081383">
<ele>417.4</ele>
<time>2013-05-08T10:13:31.000Z</time>
</trkpt>
<trkpt lat="44.093532" lon="3.081236">
<ele>417.3</ele>
<time>2013-05-08T10:13:32.000Z</time>
</trkpt>
<trkpt lat="44.093426" lon="3.081106">
<ele>417.3</ele>
<time>2013-05-08T10:13:33.000Z</time>
</trkpt>
<trkpt lat="44.093317" lon="3.080979">
<ele>417.5</ele>
<time>2013-05-08T10:13:34.000Z</time>
</trkpt>
<trkpt lat="44.0932" lon="3.080855">
<ele>417.5</ele>
<time>2013-05-08T10:13:35.000Z</time>
</trkpt>
<trkpt lat="44.093084" lon="3.080744">
<ele>417.2</ele>
<time>2013-05-08T10:13:36.000Z</time>
</trkpt>
<trkpt lat="44.092962" lon="3.080639">
<ele>416.9</ele>
<time>2013-05-08T10:13:37.000Z</time>
</trkpt>
<trkpt lat="44.092847" lon="3.080544">
<ele>416.7</ele>
<time>2013-05-08T10:13:38.000Z</time>
</trkpt>
<trkpt lat="44.092719" lon="3.080447">
<ele>416.5</ele>
<time>2013-05-08T10:13:39.000Z</time>
</trkpt>
<trkpt lat="44.092571" lon="3.080389">
<ele>416.3</ele>
<time>2013-05-08T10:13:40.000Z</time>
</trkpt>
<trkpt lat="44.092415" lon="3.080343">
<ele>416.3</ele>
<time>2013-05-08T10:13:41.000Z</time>
</trkpt>
<trkpt lat="44.092253" lon="3.08036">
<ele>416.3</ele>
<time>2013-05-08T10:13:42.000Z</time>
</trkpt>
<trkpt lat="44.092101" lon="3.080388">
<ele>416.1</ele>
<time>2013-05-08T10:13:43.000Z</time>
</trkpt>
<trkpt lat="44.091964" lon="3.080431">
<ele>416.2</ele>
<time>2013-05-08T10:13:44.000Z</time>
</trkpt>
<trkpt lat="44.091833" lon="3.080486">
<ele>416.4</ele>
<time>2013-05-08T10:13:45.000Z</time>
</trkpt>
<trkpt lat="44.09171" lon="3.080548">
<ele>416.7</ele>
<time>2013-05-08T10:13:46.000Z</time>
</trkpt>
<trkpt lat="44.091609" lon="3.08061">
<ele>417.1</ele>
<time>2013-05-08T10:13:47.000Z</time>
</trkpt>
<trkpt lat="44.091533" lon="3.080664">
<ele>417.6</ele>
<time>2013-05-08T10:13:48.000Z</time>
</trkpt>
<trkpt lat="44.091463" lon="3.080711">
<ele>418.3</ele>
<time>2013-05-08T10:13:49.000Z</time>
</trkpt>
<trkpt lat="44.091406" lon="3.080752">
<ele>418.9</ele>
<time>2013-05-08T10:13:50.000Z</time>
</trkpt>
<trkpt lat="44.091363" lon="3.080781">
<ele>419.4</ele>
<time>2013-05-08T10:13:51.000Z</time>
</trkpt>
<trkpt lat="44.091314" lon="3.080809">
<ele>420.1</ele>
<time>2013-05-08T10:13:52.000Z</time>
</trkpt>
<trkpt lat="44.091276" lon="3.080803">
<ele>420.7</ele>
<time>2013-05-08T10:13:53.000Z</time>
</trkpt>
<trkpt lat="44.091236" lon="3.080794">
<ele>421.2</ele>
<time>2013-05-08T10:13:54.000Z</time>
</trkpt>
<trkpt lat="44.091185" lon="3.080784">
<ele>421.7</ele>
<time>2013-05-08T10:13:55.000Z</time>
</trkpt>
<trkpt lat="44.091124" lon="3.0808">
<ele>422.2</ele>
<time>2013-05-08T10:13:56.000Z</time>
</trkpt>
<trkpt lat="44.091072" lon="3.080838">
<ele>422.4</ele>
<time>2013-05-08T10:13:57.000Z</time>
</trkpt>
<trkpt lat="44.091027" lon="3.080893">
<ele>422.3</ele>
<time>2013-05-08T10:13:58.000Z</time>
</trkpt>
<trkpt lat="44.090994" lon="3.080968">
<ele>422.1</ele>
<time>2013-05-08T10:13:59.000Z</time>
</trkpt>
<trkpt lat="44.090974" lon="3.081052">
<ele>422</ele>
<time>2013-05-08T10:14:00.000Z</time>
</trkpt>
<trkpt lat="44.090958" lon="3.081133">
<ele>422</ele>
<time>2013-05-08T10:14:01.000Z</time>
</trkpt>
<trkpt lat="44.090959" lon="3.081187">
<ele>422.1</ele>
<time>2013-05-08T10:14:02.000Z</time>
</trkpt>
<trkpt lat="44.090959" lon="3.081232">
<ele>422.1</ele>
<time>2013-05-08T10:14:03.000Z</time>
</trkpt>
<trkpt lat="44.090955" lon="3.081278">
<ele>422.1</ele>
<time>2013-05-08T10:14:04.000Z</time>
</trkpt>
<trkpt lat="44.090951" lon="3.081321">
<ele>422.2</ele>
<time>2013-05-08T10:14:05.000Z</time>
</trkpt>
<trkpt lat="44.090948" lon="3.081363">
<ele>422.2</ele>
<time>2013-05-08T10:14:06.000Z</time>
</trkpt>
<trkpt lat="44.090954" lon="3.081401">
<ele>422.3</ele>
<time>2013-05-08T10:14:07.000Z</time>
</trkpt>
<trkpt lat="44.090974" lon="3.081454">
<ele>422.3</ele>
<time>2013-05-08T10:14:19.000Z</time>
</trkpt>
<trkpt lat="44.090987" lon="3.081474">
<ele>422.3</ele>
<time>2013-05-08T10:14:20.000Z</time>
</trkpt>
<trkpt lat="44.091009" lon="3.081514">
<ele>422.3</ele>
<time>2013-05-08T10:14:21.000Z</time>
</trkpt>
<trkpt lat="44.091036" lon="3.08157">
<ele>422.4</ele>
<time>2013-05-08T10:14:22.000Z</time>
</trkpt>
<trkpt lat="44.091062" lon="3.081635">
<ele>422.6</ele>
<time>2013-05-08T10:14:23.000Z</time>
</trkpt>
<trkpt lat="44.091087" lon="3.08171">
<ele>422.7</ele>
<time>2013-05-08T10:14:24.000Z</time>
</trkpt>
<trkpt lat="44.09111" lon="3.081793">
<ele>422.9</ele>
<time>2013-05-08T10:14:25.000Z</time>
</trkpt>
<trkpt lat="44.091129" lon="3.081886">
<ele>423.2</ele>
<time>2013-05-08T10:14:26.000Z</time>
</trkpt>
<trkpt lat="44.091142" lon="3.08197">
<ele>423.8</ele>
<time>2013-05-08T10:14:27.000Z</time>
</trkpt>
<trkpt lat="44.091151" lon="3.082045">
<ele>424.4</ele>
<time>2013-05-08T10:14:28.000Z</time>
</trkpt>
<trkpt lat="44.09116" lon="3.082112">
<ele>425</ele>
<time>2013-05-08T10:14:29.000Z</time>
</trkpt>
<trkpt lat="44.091168" lon="3.082168">
<ele>425.1</ele>
<time>2013-05-08T10:14:30.000Z</time>
</trkpt>
<trkpt lat="44.091171" lon="3.082208">
<ele>425.1</ele>
<time>2013-05-08T10:14:31.000Z</time>
</trkpt>
<trkpt lat="44.091169" lon="3.082266">
<ele>425.2</ele>
<time>2013-05-08T10:14:33.000Z</time>
</trkpt>
<trkpt lat="44.091173" lon="3.082275">
<ele>425.3</ele>
<time>2013-05-08T10:14:34.000Z</time>
</trkpt>
<trkpt lat="44.091202" lon="3.082227">
<ele>425.6</ele>
<time>2013-05-08T10:14:38.000Z</time>
</trkpt>
<trkpt lat="44.091195" lon="3.082193">
<ele>425.7</ele>
<time>2013-05-08T10:14:39.000Z</time>
</trkpt>
<trkpt lat="44.091184" lon="3.082148">
<ele>425.8</ele>
<time>2013-05-08T10:14:40.000Z</time>
</trkpt>
<trkpt lat="44.091166" lon="3.08208">
<ele>427.1</ele>
<time>2013-05-08T10:14:41.000Z</time>
</trkpt>
<trkpt lat="44.091149" lon="3.082006">
<ele>428.4</ele>
<time>2013-05-08T10:14:42.000Z</time>
</trkpt>
<trkpt lat="44.091135" lon="3.081931">
<ele>429.5</ele>
<time>2013-05-08T10:14:43.000Z</time>
</trkpt>
<trkpt lat="44.091125" lon="3.081866">
<ele>430.3</ele>
<time>2013-05-08T10:14:44.000Z</time>
</trkpt>
<trkpt lat="44.091116" lon="3.081807">
<ele>430.8</ele>
<time>2013-05-08T10:14:45.000Z</time>
</trkpt>
<trkpt lat="44.091108" lon="3.081757">
<ele>430.8</ele>
<time>2013-05-08T10:14:46.000Z</time>
</trkpt>
<trkpt lat="44.091098" lon="3.08171">
<ele>430.8</ele>
<time>2013-05-08T10:14:47.000Z</time>
</trkpt>
<trkpt lat="44.091089" lon="3.081669">
<ele>430.8</ele>
<time>2013-05-08T10:14:48.000Z</time>
</trkpt>
<trkpt lat="44.091079" lon="3.081631">
<ele>430.8</ele>
<time>2013-05-08T10:14:49.000Z</time>
</trkpt>
<trkpt lat="44.091063" lon="3.081593">
<ele>430.8</ele>
<time>2013-05-08T10:14:50.000Z</time>
</trkpt>
<trkpt lat="44.091046" lon="3.081556">
<ele>430.8</ele>
<time>2013-05-08T10:14:51.000Z</time>
</trkpt>
<trkpt lat="44.091027" lon="3.081523">
<ele>430.9</ele>
<time>2013-05-08T10:14:52.000Z</time>
</trkpt>
<trkpt lat="44.091009" lon="3.081491">
<ele>430.9</ele>
<time>2013-05-08T10:14:53.000Z</time>
</trkpt>
<trkpt lat="44.09099" lon="3.081462">
<ele>431</ele>
<time>2013-05-08T10:14:54.000Z</time>
</trkpt>
<trkpt lat="44.090969" lon="3.081428">
<ele>429</ele>
<time>2013-05-08T10:18:53.000Z</time>
</trkpt>
<trkpt lat="44.091004" lon="3.081389">
<ele>429</ele>
<time>2013-05-08T10:18:54.000Z</time>
</trkpt>
<trkpt lat="44.091041" lon="3.081378">
<ele>429</ele>
<time>2013-05-08T10:18:55.000Z</time>
</trkpt>
<trkpt lat="44.091071" lon="3.081386">
<ele>429</ele>
<time>2013-05-08T10:18:56.000Z</time>
</trkpt>
<trkpt lat="44.091113" lon="3.081398">
<ele>429.2</ele>
<time>2013-05-08T10:18:57.000Z</time>
</trkpt>
<trkpt lat="44.091169" lon="3.081415">
<ele>429.3</ele>
<time>2013-05-08T10:18:58.000Z</time>
</trkpt>
<trkpt lat="44.091231" lon="3.081417">
<ele>429.8</ele>
<time>2013-05-08T10:18:59.000Z</time>
</trkpt>
<trkpt lat="44.091285" lon="3.081401">
<ele>430.2</ele>
<time>2013-05-08T10:19:00.000Z</time>
</trkpt>
<trkpt lat="44.091333" lon="3.081316">
<ele>430.4</ele>
<time>2013-05-08T10:19:01.000Z</time>
</trkpt>
<trkpt lat="44.091371" lon="3.081233">
<ele>430.2</ele>
<time>2013-05-08T10:19:02.000Z</time>
</trkpt>
<trkpt lat="44.091404" lon="3.081138">
<ele>429.8</ele>
<time>2013-05-08T10:19:03.000Z</time>
</trkpt>
<trkpt lat="44.091442" lon="3.08104">
<ele>429.4</ele>
<time>2013-05-08T10:19:04.000Z</time>
</trkpt>
<trkpt lat="44.091487" lon="3.080943">
<ele>429.2</ele>
<time>2013-05-08T10:19:05.000Z</time>
</trkpt>
<trkpt lat="44.091549" lon="3.080867">
<ele>429</ele>
<time>2013-05-08T10:19:06.000Z</time>
</trkpt>
<trkpt lat="44.091616" lon="3.0808">
<ele>428.7</ele>
<time>2013-05-08T10:19:07.000Z</time>
</trkpt>
<trkpt lat="44.091699" lon="3.080749">
<ele>428.1</ele>
<time>2013-05-08T10:19:08.000Z</time>
</trkpt>
<trkpt lat="44.091783" lon="3.0807">
<ele>427.8</ele>
<time>2013-05-08T10:19:09.000Z</time>
</trkpt>
<trkpt lat="44.091871" lon="3.080647">
<ele>427.2</ele>
<time>2013-05-08T10:19:10.000Z</time>
</trkpt>
<trkpt lat="44.091966" lon="3.080593">
<ele>426.9</ele>
<time>2013-05-08T10:19:11.000Z</time>
</trkpt>
<trkpt lat="44.092058" lon="3.080546">
<ele>426.6</ele>
<time>2013-05-08T10:19:12.000Z</time>
</trkpt>
<trkpt lat="44.092159" lon="3.080504">
<ele>426.5</ele>
<time>2013-05-08T10:19:13.000Z</time>
</trkpt>
<trkpt lat="44.092259" lon="3.080475">
<ele>426.3</ele>
<time>2013-05-08T10:19:14.000Z</time>
</trkpt>
<trkpt lat="44.092361" lon="3.080455">
<ele>426.1</ele>
<time>2013-05-08T10:19:15.000Z</time>
</trkpt>
<trkpt lat="44.092464" lon="3.080444">
<ele>426</ele>
<time>2013-05-08T10:19:16.000Z</time>
</trkpt>
<trkpt lat="44.092563" lon="3.080472">
<ele>425.9</ele>
<time>2013-05-08T10:19:17.000Z</time>
</trkpt>
<trkpt lat="44.092661" lon="3.080507">
<ele>425.6</ele>
<time>2013-05-08T10:19:18.000Z</time>
</trkpt>
<trkpt lat="44.092756" lon="3.08055">
<ele>425.1</ele>
<time>2013-05-08T10:19:19.000Z</time>
</trkpt>
<trkpt lat="44.092856" lon="3.080605">
<ele>424.5</ele>
<time>2013-05-08T10:19:20.000Z</time>
</trkpt>
<trkpt lat="44.092956" lon="3.080671">
<ele>424</ele>
<time>2013-05-08T10:19:21.000Z</time>
</trkpt>
<trkpt lat="44.093067" lon="3.080754">
<ele>423.5</ele>
<time>2013-05-08T10:19:22.000Z</time>
</trkpt>
<trkpt lat="44.093186" lon="3.080849">
<ele>422.8</ele>
<time>2013-05-08T10:19:23.000Z</time>
</trkpt>
<trkpt lat="44.093312" lon="3.080958">
<ele>422.2</ele>
<time>2013-05-08T10:19:24.000Z</time>
</trkpt>
<trkpt lat="44.093437" lon="3.081082">
<ele>421.7</ele>
<time>2013-05-08T10:19:25.000Z</time>
</trkpt>
<trkpt lat="44.093561" lon="3.081218">
<ele>421.3</ele>
<time>2013-05-08T10:19:26.000Z</time>
</trkpt>
<trkpt lat="44.09368" lon="3.081361">
<ele>421</ele>
<time>2013-05-08T10:19:27.000Z</time>
</trkpt>
<trkpt lat="44.093784" lon="3.081509">
<ele>420.7</ele>
<time>2013-05-08T10:19:28.000Z</time>
</trkpt>
<trkpt lat="44.093888" lon="3.08167">
<ele>420.4</ele>
<time>2013-05-08T10:19:29.000Z</time>
</trkpt>
<trkpt lat="44.093992" lon="3.081848">
<ele>420</ele>
<time>2013-05-08T10:19:30.000Z</time>
</trkpt>
<trkpt lat="44.0941" lon="3.082039">
<ele>419.4</ele>
<time>2013-05-08T10:19:31.000Z</time>
</trkpt>
<trkpt lat="44.094213" lon="3.082254">
<ele>419.4</ele>
<time>2013-05-08T10:19:32.000Z</time>
</trkpt>
<trkpt lat="44.094322" lon="3.082486">
<ele>419.3</ele>
<time>2013-05-08T10:19:33.000Z</time>
</trkpt>
<trkpt lat="44.09443" lon="3.082739">
<ele>419.1</ele>
<time>2013-05-08T10:19:34.000Z</time>
</trkpt>
<trkpt lat="44.094513" lon="3.083031">
<ele>418.9</ele>
<time>2013-05-08T10:19:35.000Z</time>
</trkpt>
<trkpt lat="44.09458" lon="3.083327">
<ele>418.9</ele>
<time>2013-05-08T10:19:36.000Z</time>
</trkpt>
<trkpt lat="44.094641" lon="3.083621">
<ele>418.8</ele>
<time>2013-05-08T10:19:37.000Z</time>
</trkpt>
<trkpt lat="44.094697" lon="3.083903">
<ele>418.3</ele>
<time>2013-05-08T10:19:38.000Z</time>
</trkpt>
<trkpt lat="44.094756" lon="3.084168">
<ele>417.9</ele>
<time>2013-05-08T10:19:39.000Z</time>
</trkpt>
<trkpt lat="44.094824" lon="3.084436">
<ele>417.7</ele>
<time>2013-05-08T10:19:40.000Z</time>
</trkpt>
<trkpt lat="44.094893" lon="3.084689">
<ele>417.6</ele>
<time>2013-05-08T10:19:41.000Z</time>
</trkpt>
<trkpt lat="44.094955" lon="3.084944">
<ele>417.6</ele>
<time>2013-05-08T10:19:42.000Z</time>
</trkpt>
<trkpt lat="44.095016" lon="3.085186">
<ele>417.1</ele>
<time>2013-05-08T10:19:43.000Z</time>
</trkpt>
<trkpt lat="44.095087" lon="3.085414">
<ele>416.8</ele>
<time>2013-05-08T10:19:44.000Z</time>
</trkpt>
<trkpt lat="44.095167" lon="3.085648">
<ele>416.5</ele>
<time>2013-05-08T10:19:45.000Z</time>
</trkpt>
<trkpt lat="44.095258" lon="3.085885">
<ele>416.2</ele>
<time>2013-05-08T10:19:46.000Z</time>
</trkpt>
<trkpt lat="44.095365" lon="3.086114">
<ele>416</ele>
<time>2013-05-08T10:19:47.000Z</time>
</trkpt>
<trkpt lat="44.095486" lon="3.086327">
<ele>416.3</ele>
<time>2013-05-08T10:19:48.000Z</time>
</trkpt>
<trkpt lat="44.095614" lon="3.086527">
<ele>416.5</ele>
<time>2013-05-08T10:19:49.000Z</time>
</trkpt>
<trkpt lat="44.095745" lon="3.086714">
<ele>416.9</ele>
<time>2013-05-08T10:19:50.000Z</time>
</trkpt>
<trkpt lat="44.09588" lon="3.086881">
<ele>417.1</ele>
<time>2013-05-08T10:19:51.000Z</time>
</trkpt>
<trkpt lat="44.096014" lon="3.08704">
<ele>417.3</ele>
<time>2013-05-08T10:19:52.000Z</time>
</trkpt>
<trkpt lat="44.096167" lon="3.087175">
<ele>417.6</ele>
<time>2013-05-08T10:19:53.000Z</time>
</trkpt>
<trkpt lat="44.096329" lon="3.087291">
<ele>417.4</ele>
<time>2013-05-08T10:19:54.000Z</time>
</trkpt>
<trkpt lat="44.096509" lon="3.0874">
<ele>417.2</ele>
<time>2013-05-08T10:19:55.000Z</time>
</trkpt>
<trkpt lat="44.0967" lon="3.08747">
<ele>417</ele>
<time>2013-05-08T10:19:56.000Z</time>
</trkpt>
<trkpt lat="44.096892" lon="3.087525">
<ele>416.6</ele>
<time>2013-05-08T10:19:57.000Z</time>
</trkpt>
<trkpt lat="44.097084" lon="3.087567">
<ele>416.4</ele>
<time>2013-05-08T10:19:58.000Z</time>
</trkpt>
<trkpt lat="44.097271" lon="3.087588">
<ele>416.2</ele>
<time>2013-05-08T10:19:59.000Z</time>
</trkpt>
<trkpt lat="44.097459" lon="3.087598">
<ele>416.4</ele>
<time>2013-05-08T10:20:00.000Z</time>
</trkpt>
<trkpt lat="44.097645" lon="3.087598">
<ele>416.5</ele>
<time>2013-05-08T10:20:01.000Z</time>
</trkpt>
<trkpt lat="44.097832" lon="3.087581">
<ele>416.6</ele>
<time>2013-05-08T10:20:02.000Z</time>
</trkpt>
<trkpt lat="44.098016" lon="3.087558">
<ele>416.7</ele>
<time>2013-05-08T10:20:03.000Z</time>
</trkpt>
<trkpt lat="44.098199" lon="3.087535">
<ele>416.9</ele>
<time>2013-05-08T10:20:04.000Z</time>
</trkpt>
<trkpt lat="44.098386" lon="3.087506">
<ele>417.3</ele>
<time>2013-05-08T10:20:05.000Z</time>
</trkpt>
<trkpt lat="44.09857" lon="3.087469">
<ele>417.8</ele>
<time>2013-05-08T10:20:06.000Z</time>
</trkpt>
<trkpt lat="44.098755" lon="3.087423">
<ele>418.8</ele>
<time>2013-05-08T10:20:07.000Z</time>
</trkpt>
<trkpt lat="44.098941" lon="3.087373">
<ele>420.4</ele>
<time>2013-05-08T10:20:08.000Z</time>
</trkpt>
<trkpt lat="44.09913" lon="3.087318">
<ele>421.4</ele>
<time>2013-05-08T10:20:09.000Z</time>
</trkpt>
<trkpt lat="44.099311" lon="3.087256">
<ele>421.9</ele>
<time>2013-05-08T10:20:10.000Z</time>
</trkpt>
<trkpt lat="44.099484" lon="3.087177">
<ele>421.6</ele>
<time>2013-05-08T10:20:11.000Z</time>
</trkpt>
<trkpt lat="44.099649" lon="3.087098">
<ele>421</ele>
<time>2013-05-08T10:20:12.000Z</time>
</trkpt>
<trkpt lat="44.099813" lon="3.087008">
<ele>420.3</ele>
<time>2013-05-08T10:20:13.000Z</time>
</trkpt>
<trkpt lat="44.099978" lon="3.086913">
<ele>419.5</ele>
<time>2013-05-08T10:20:14.000Z</time>
</trkpt>
<trkpt lat="44.100136" lon="3.086816">
<ele>418.9</ele>
<time>2013-05-08T10:20:15.000Z</time>
</trkpt>
<trkpt lat="44.100286" lon="3.086725">
<ele>418.7</ele>
<time>2013-05-08T10:20:16.000Z</time>
</trkpt>
<trkpt lat="44.100431" lon="3.086639">
<ele>418.4</ele>
<time>2013-05-08T10:20:17.000Z</time>
</trkpt>
<trkpt lat="44.100569" lon="3.086555">
<ele>418.3</ele>
<time>2013-05-08T10:20:18.000Z</time>
</trkpt>
<trkpt lat="44.100703" lon="3.086481">
<ele>418.1</ele>
<time>2013-05-08T10:20:19.000Z</time>
</trkpt>
<trkpt lat="44.100823" lon="3.086414">
<ele>418</ele>
<time>2013-05-08T10:20:20.000Z</time>
</trkpt>
<trkpt lat="44.100944" lon="3.086356">
<ele>417.8</ele>
<time>2013-05-08T10:20:21.000Z</time>
</trkpt>
<trkpt lat="44.101068" lon="3.086294">
<ele>417.6</ele>
<time>2013-05-08T10:20:22.000Z</time>
</trkpt>
<trkpt lat="44.101195" lon="3.086229">
<ele>416.8</ele>
<time>2013-05-08T10:20:23.000Z</time>
</trkpt>
<trkpt lat="44.101309" lon="3.08617">
<ele>416.1</ele>
<time>2013-05-08T10:20:24.000Z</time>
</trkpt>
<trkpt lat="44.101417" lon="3.086115">
<ele>415.8</ele>
<time>2013-05-08T10:20:25.000Z</time>
</trkpt>
<trkpt lat="44.10151" lon="3.086064">
<ele>415.3</ele>
<time>2013-05-08T10:20:26.000Z</time>
</trkpt>
<trkpt lat="44.101578" lon="3.086023">
<ele>415.2</ele>
<time>2013-05-08T10:20:27.000Z</time>
</trkpt>
<trkpt lat="44.101639" lon="3.085977">
<ele>415.3</ele>
<time>2013-05-08T10:20:28.000Z</time>
</trkpt>
<trkpt lat="44.101704" lon="3.085932">
<ele>415.1</ele>
<time>2013-05-08T10:20:29.000Z</time>
</trkpt>
<trkpt lat="44.101766" lon="3.085912">
<ele>414.9</ele>
<time>2013-05-08T10:20:30.000Z</time>
</trkpt>
<trkpt lat="44.101835" lon="3.085888">
<ele>414.9</ele>
<time>2013-05-08T10:20:31.000Z</time>
</trkpt>
<trkpt lat="44.101908" lon="3.085836">
<ele>415</ele>
<time>2013-05-08T10:20:32.000Z</time>
</trkpt>
<trkpt lat="44.101992" lon="3.08578">
<ele>414.9</ele>
<time>2013-05-08T10:20:33.000Z</time>
</trkpt>
<trkpt lat="44.102095" lon="3.085717">
<ele>414.8</ele>
<time>2013-05-08T10:20:34.000Z</time>
</trkpt>
<trkpt lat="44.102202" lon="3.085658">
<ele>414.8</ele>
<time>2013-05-08T10:20:35.000Z</time>
</trkpt>
<trkpt lat="44.102312" lon="3.08559">
<ele>414.8</ele>
<time>2013-05-08T10:20:36.000Z</time>
</trkpt>
<trkpt lat="44.102431" lon="3.085508">
<ele>414.7</ele>
<time>2013-05-08T10:20:37.000Z</time>
</trkpt>
<trkpt lat="44.102549" lon="3.08542">
<ele>414.8</ele>
<time>2013-05-08T10:20:38.000Z</time>
</trkpt>
<trkpt lat="44.102668" lon="3.085325">
<ele>414.7</ele>
<time>2013-05-08T10:20:39.000Z</time>
</trkpt>
<trkpt lat="44.102793" lon="3.085226">
<ele>414.9</ele>
<time>2013-05-08T10:20:40.000Z</time>
</trkpt>
<trkpt lat="44.102916" lon="3.085129">
<ele>414.7</ele>
<time>2013-05-08T10:20:41.000Z</time>
</trkpt>
<trkpt lat="44.103029" lon="3.085041">
<ele>414.6</ele>
<time>2013-05-08T10:20:42.000Z</time>
</trkpt>
<trkpt lat="44.103141" lon="3.08496">
<ele>414.6</ele>
<time>2013-05-08T10:20:43.000Z</time>
</trkpt>
<trkpt lat="44.10325" lon="3.084884">
<ele>414.4</ele>
<time>2013-05-08T10:20:44.000Z</time>
</trkpt>
<trkpt lat="44.103355" lon="3.084824">
<ele>414.2</ele>
<time>2013-05-08T10:20:45.000Z</time>
</trkpt>
<trkpt lat="44.103462" lon="3.084765">
<ele>414.1</ele>
<time>2013-05-08T10:20:46.000Z</time>
</trkpt>
<trkpt lat="44.103568" lon="3.084711">
<ele>414.3</ele>
<time>2013-05-08T10:20:47.000Z</time>
</trkpt>
<trkpt lat="44.103668" lon="3.084663">
<ele>414.7</ele>
<time>2013-05-08T10:20:48.000Z</time>
</trkpt>
<trkpt lat="44.103761" lon="3.084624">
<ele>415.3</ele>
<time>2013-05-08T10:20:49.000Z</time>
</trkpt>
<trkpt lat="44.103861" lon="3.084587">
<ele>415.7</ele>
<time>2013-05-08T10:20:50.000Z</time>
</trkpt>
<trkpt lat="44.103959" lon="3.084554">
<ele>416.2</ele>
<time>2013-05-08T10:20:51.000Z</time>
</trkpt>
<trkpt lat="44.104067" lon="3.084525">
<ele>416.4</ele>
<time>2013-05-08T10:20:52.000Z</time>
</trkpt>
<trkpt lat="44.104179" lon="3.084498">
<ele>416.4</ele>
<time>2013-05-08T10:20:53.000Z</time>
</trkpt>
<trkpt lat="44.10429" lon="3.084471">
<ele>416.3</ele>
<time>2013-05-08T10:20:54.000Z</time>
</trkpt>
<trkpt lat="44.104408" lon="3.084439">
<ele>416.1</ele>
<time>2013-05-08T10:20:55.000Z</time>
</trkpt>
<trkpt lat="44.104534" lon="3.084405">
<ele>415.6</ele>
<time>2013-05-08T10:20:56.000Z</time>
</trkpt>
<trkpt lat="44.104659" lon="3.084371">
<ele>415.1</ele>
<time>2013-05-08T10:20:57.000Z</time>
</trkpt>
<trkpt lat="44.104786" lon="3.084338">
<ele>414.8</ele>
<time>2013-05-08T10:20:58.000Z</time>
</trkpt>
<trkpt lat="44.104916" lon="3.084308">
<ele>414.3</ele>
<time>2013-05-08T10:20:59.000Z</time>
</trkpt>
<trkpt lat="44.105039" lon="3.084278">
<ele>414</ele>
<time>2013-05-08T10:21:00.000Z</time>
</trkpt>
<trkpt lat="44.105164" lon="3.084252">
<ele>413.9</ele>
<time>2013-05-08T10:21:01.000Z</time>
</trkpt>
<trkpt lat="44.105298" lon="3.084222">
<ele>413.9</ele>
<time>2013-05-08T10:21:02.000Z</time>
</trkpt>
<trkpt lat="44.105436" lon="3.084192">
<ele>414</ele>
<time>2013-05-08T10:21:03.000Z</time>
</trkpt>
<trkpt lat="44.105587" lon="3.08417">
<ele>414.2</ele>
<time>2013-05-08T10:21:04.000Z</time>
</trkpt>
<trkpt lat="44.105748" lon="3.08416">
<ele>414.9</ele>
<time>2013-05-08T10:21:05.000Z</time>
</trkpt>
<trkpt lat="44.10591" lon="3.084166">
<ele>415.7</ele>
<time>2013-05-08T10:21:06.000Z</time>
</trkpt>
<trkpt lat="44.106065" lon="3.084179">
<ele>416.1</ele>
<time>2013-05-08T10:21:07.000Z</time>
</trkpt>
<trkpt lat="44.106205" lon="3.084199">
<ele>416.2</ele>
<time>2013-05-08T10:21:08.000Z</time>
</trkpt>
<trkpt lat="44.106323" lon="3.084219">
<ele>416.2</ele>
<time>2013-05-08T10:21:09.000Z</time>
</trkpt>
<trkpt lat="44.106437" lon="3.084238">
<ele>417</ele>
<time>2013-05-08T10:21:10.000Z</time>
</trkpt>
<trkpt lat="44.106546" lon="3.08422">
<ele>418</ele>
<time>2013-05-08T10:21:11.000Z</time>
</trkpt>
<trkpt lat="44.106651" lon="3.084195">
<ele>418.9</ele>
<time>2013-05-08T10:21:12.000Z</time>
</trkpt>
<trkpt lat="44.106755" lon="3.084158">
<ele>419.8</ele>
<time>2013-05-08T10:21:13.000Z</time>
</trkpt>
<trkpt lat="44.106822" lon="3.084086">
<ele>420.2</ele>
<time>2013-05-08T10:21:14.000Z</time>
</trkpt>
<trkpt lat="44.106872" lon="3.08402">
<ele>420</ele>
<time>2013-05-08T10:21:15.000Z</time>
</trkpt>
<trkpt lat="44.106917" lon="3.083929">
<ele>419.4</ele>
<time>2013-05-08T10:21:16.000Z</time>
</trkpt>
<trkpt lat="44.106966" lon="3.083823">
<ele>418.6</ele>
<time>2013-05-08T10:21:17.000Z</time>
</trkpt>
<trkpt lat="44.106995" lon="3.083704">
<ele>418.1</ele>
<time>2013-05-08T10:21:18.000Z</time>
</trkpt>
<trkpt lat="44.107024" lon="3.083574">
<ele>417.6</ele>
<time>2013-05-08T10:21:19.000Z</time>
</trkpt>
<trkpt lat="44.107051" lon="3.083434">
<ele>417.3</ele>
<time>2013-05-08T10:21:20.000Z</time>
</trkpt>
<trkpt lat="44.107073" lon="3.083284">
<ele>416.9</ele>
<time>2013-05-08T10:21:21.000Z</time>
</trkpt>
<trkpt lat="44.107089" lon="3.083141">
<ele>416.5</ele>
<time>2013-05-08T10:21:22.000Z</time>
</trkpt>
<trkpt lat="44.107104" lon="3.083001">
<ele>416</ele>
<time>2013-05-08T10:21:23.000Z</time>
</trkpt>
<trkpt lat="44.107115" lon="3.082865">
<ele>415.3</ele>
<time>2013-05-08T10:21:24.000Z</time>
</trkpt>
<trkpt lat="44.107125" lon="3.082748">
<ele>414.5</ele>
<time>2013-05-08T10:21:25.000Z</time>
</trkpt>
<trkpt lat="44.107135" lon="3.082639">
<ele>413.9</ele>
<time>2013-05-08T10:21:26.000Z</time>
</trkpt>
<trkpt lat="44.10714" lon="3.082552">
<ele>413.6</ele>
<time>2013-05-08T10:21:27.000Z</time>
</trkpt>
<trkpt lat="44.107134" lon="3.082474">
<ele>413.6</ele>
<time>2013-05-08T10:21:28.000Z</time>
</trkpt>
<trkpt lat="44.1071" lon="3.082398">
<ele>413.3</ele>
<time>2013-05-08T10:21:29.000Z</time>
</trkpt>
<trkpt lat="44.107055" lon="3.082336">
<ele>413.3</ele>
<time>2013-05-08T10:21:30.000Z</time>
</trkpt>
<trkpt lat="44.107018" lon="3.082292">
<ele>413.3</ele>
<time>2013-05-08T10:21:31.000Z</time>
</trkpt>
<trkpt lat="44.106983" lon="3.082269">
<ele>413.3</ele>
<time>2013-05-08T10:21:32.000Z</time>
</trkpt>
<trkpt lat="44.106954" lon="3.082268">
<ele>413.4</ele>
<time>2013-05-08T10:21:33.000Z</time>
</trkpt>
<trkpt lat="44.106929" lon="3.08227">
<ele>413.4</ele>
<time>2013-05-08T10:21:34.000Z</time>
</trkpt>
<trkpt lat="44.106901" lon="3.082276">
<ele>413.4</ele>
<time>2013-05-08T10:21:35.000Z</time>
</trkpt>
<trkpt lat="44.106876" lon="3.082286">
<ele>413.4</ele>
<time>2013-05-08T10:21:36.000Z</time>
</trkpt>
<trkpt lat="44.106854" lon="3.082308">
<ele>413.3</ele>
<time>2013-05-08T10:21:37.000Z</time>
</trkpt>
<trkpt lat="44.10684" lon="3.082335">
<ele>413.2</ele>
<time>2013-05-08T10:21:48.000Z</time>
</trkpt>
<trkpt lat="44.106828" lon="3.082397">
<ele>413.1</ele>
<time>2013-05-08T10:21:49.000Z</time>
</trkpt>
<trkpt lat="44.106824" lon="3.08242">
<ele>408</ele>
<time>2013-05-08T10:25:40.000Z</time>
</trkpt>
<trkpt lat="44.106817" lon="3.0825">
<ele>408</ele>
<time>2013-05-08T10:25:41.000Z</time>
</trkpt>
<trkpt lat="44.106804" lon="3.082441">
<ele>406.2</ele>
<time>2013-05-08T10:26:54.000Z</time>
</trkpt>
<trkpt lat="44.106803" lon="3.082439">
<ele>406.2</ele>
<time>2013-05-08T10:26:55.000Z</time>
</trkpt>
<trkpt lat="44.1068" lon="3.082476">
<ele>406.4</ele>
<time>2013-05-08T10:26:59.000Z</time>
</trkpt>
<trkpt lat="44.106799" lon="3.082501">
<ele>406.5</ele>
<time>2013-05-08T10:27:00.000Z</time>
</trkpt>
<trkpt lat="44.106805" lon="3.082552">
<ele>406.7</ele>
<time>2013-05-08T10:27:01.000Z</time>
</trkpt>
<trkpt lat="44.106809" lon="3.082597">
<ele>406.9</ele>
<time>2013-05-08T10:27:02.000Z</time>
</trkpt>
<trkpt lat="44.106812" lon="3.082651">
<ele>407.1</ele>
<time>2013-05-08T10:27:03.000Z</time>
</trkpt>
<trkpt lat="44.106827" lon="3.082688">
<ele>407.2</ele>
<time>2013-05-08T10:27:04.000Z</time>
</trkpt>
<trkpt lat="44.106845" lon="3.082716">
<ele>407.3</ele>
<time>2013-05-08T10:27:05.000Z</time>
</trkpt>
<trkpt lat="44.106864" lon="3.082739">
<ele>407.5</ele>
<time>2013-05-08T10:27:06.000Z</time>
</trkpt>
<trkpt lat="44.106906" lon="3.08275">
<ele>407.9</ele>
<time>2013-05-08T10:27:09.000Z</time>
</trkpt>
<trkpt lat="44.106919" lon="3.082748">
<ele>408</ele>
<time>2013-05-08T10:27:10.000Z</time>
</trkpt>
<trkpt lat="44.106954" lon="3.082722">
<ele>408.1</ele>
<time>2013-05-08T10:27:12.000Z</time>
</trkpt>
<trkpt lat="44.106971" lon="3.082697">
<ele>408.2</ele>
<time>2013-05-08T10:27:13.000Z</time>
</trkpt>
<trkpt lat="44.10699" lon="3.082655">
<ele>408.2</ele>
<time>2013-05-08T10:27:15.000Z</time>
</trkpt>
<trkpt lat="44.106995" lon="3.082639">
<ele>408.2</ele>
<time>2013-05-08T10:27:16.000Z</time>
</trkpt>
<trkpt lat="44.107018" lon="3.082587">
<ele>408.9</ele>
<time>2013-05-08T10:27:32.000Z</time>
</trkpt>
<trkpt lat="44.107019" lon="3.082557">
<ele>409.1</ele>
<time>2013-05-08T10:27:33.000Z</time>
</trkpt>
<trkpt lat="44.107052" lon="3.08254">
<ele>409.4</ele>
<time>2013-05-08T10:27:35.000Z</time>
</trkpt>
<trkpt lat="44.107088" lon="3.082521">
<ele>409.4</ele>
<time>2013-05-08T10:27:36.000Z</time>
</trkpt>
<trkpt lat="44.107135" lon="3.082468">
<ele>409.7</ele>
<time>2013-05-08T10:27:37.000Z</time>
</trkpt>
<trkpt lat="44.107178" lon="3.082371">
<ele>410.2</ele>
<time>2013-05-08T10:27:38.000Z</time>
</trkpt>
<trkpt lat="44.107204" lon="3.082253">
<ele>410.8</ele>
<time>2013-05-08T10:27:39.000Z</time>
</trkpt>
<trkpt lat="44.107223" lon="3.082142">
<ele>411.8</ele>
<time>2013-05-08T10:27:40.000Z</time>
</trkpt>
<trkpt lat="44.10724" lon="3.082035">
<ele>412.7</ele>
<time>2013-05-08T10:27:41.000Z</time>
</trkpt>
<trkpt lat="44.107256" lon="3.081922">
<ele>413.5</ele>
<time>2013-05-08T10:27:42.000Z</time>
</trkpt>
<trkpt lat="44.107274" lon="3.081788">
<ele>414.1</ele>
<time>2013-05-08T10:27:43.000Z</time>
</trkpt>
<trkpt lat="44.107295" lon="3.081645">
<ele>414.7</ele>
<time>2013-05-08T10:27:44.000Z</time>
</trkpt>
<trkpt lat="44.107314" lon="3.08151">
<ele>415.2</ele>
<time>2013-05-08T10:27:45.000Z</time>
</trkpt>
<trkpt lat="44.107335" lon="3.08137">
<ele>415.5</ele>
<time>2013-05-08T10:27:46.000Z</time>
</trkpt>
<trkpt lat="44.107392" lon="3.081254">
<ele>415.6</ele>
<time>2013-05-08T10:27:47.000Z</time>
</trkpt>
<trkpt lat="44.107465" lon="3.08117">
<ele>415.8</ele>
<time>2013-05-08T10:27:48.000Z</time>
</trkpt>
<trkpt lat="44.107534" lon="3.081093">
<ele>415.9</ele>
<time>2013-05-08T10:27:49.000Z</time>
</trkpt>
<trkpt lat="44.107606" lon="3.081041">
<ele>416</ele>
<time>2013-05-08T10:27:50.000Z</time>
</trkpt>
<trkpt lat="44.107681" lon="3.081016">
<ele>416.1</ele>
<time>2013-05-08T10:27:51.000Z</time>
</trkpt>
<trkpt lat="44.107762" lon="3.080998">
<ele>416.4</ele>
<time>2013-05-08T10:27:52.000Z</time>
</trkpt>
<trkpt lat="44.107842" lon="3.081009">
<ele>416.7</ele>
<time>2013-05-08T10:27:53.000Z</time>
</trkpt>
<trkpt lat="44.107923" lon="3.081021">
<ele>417</ele>
<time>2013-05-08T10:27:54.000Z</time>
</trkpt>
<trkpt lat="44.10801" lon="3.081045">
<ele>417.4</ele>
<time>2013-05-08T10:27:55.000Z</time>
</trkpt>
<trkpt lat="44.108099" lon="3.081084">
<ele>417.6</ele>
<time>2013-05-08T10:27:56.000Z</time>
</trkpt>
<trkpt lat="44.108185" lon="3.081117">
<ele>417.4</ele>
<time>2013-05-08T10:27:57.000Z</time>
</trkpt>
<trkpt lat="44.108284" lon="3.081144">
<ele>417.7</ele>
<time>2013-05-08T10:27:58.000Z</time>
</trkpt>
<trkpt lat="44.108385" lon="3.081172">
<ele>418.1</ele>
<time>2013-05-08T10:27:59.000Z</time>
</trkpt>
<trkpt lat="44.108485" lon="3.081199">
<ele>418.3</ele>
<time>2013-05-08T10:28:00.000Z</time>
</trkpt>
<trkpt lat="44.108586" lon="3.08123">
<ele>418.7</ele>
<time>2013-05-08T10:28:01.000Z</time>
</trkpt>
<trkpt lat="44.108681" lon="3.081262">
<ele>418.9</ele>
<time>2013-05-08T10:28:02.000Z</time>
</trkpt>
<trkpt lat="44.10878" lon="3.081294">
<ele>419.1</ele>
<time>2013-05-08T10:28:03.000Z</time>
</trkpt>
<trkpt lat="44.108882" lon="3.081323">
<ele>419.3</ele>
<time>2013-05-08T10:28:04.000Z</time>
</trkpt>
<trkpt lat="44.108983" lon="3.081354">
<ele>419.4</ele>
<time>2013-05-08T10:28:05.000Z</time>
</trkpt>
<trkpt lat="44.10909" lon="3.081384">
<ele>419.2</ele>
<time>2013-05-08T10:28:06.000Z</time>
</trkpt>
<trkpt lat="44.109199" lon="3.081419">
<ele>419.1</ele>
<time>2013-05-08T10:28:07.000Z</time>
</trkpt>
<trkpt lat="44.109296" lon="3.081454">
<ele>418.9</ele>
<time>2013-05-08T10:28:08.000Z</time>
</trkpt>
<trkpt lat="44.109405" lon="3.081482">
<ele>418.6</ele>
<time>2013-05-08T10:28:09.000Z</time>
</trkpt>
<trkpt lat="44.10952" lon="3.081507">
<ele>418.5</ele>
<time>2013-05-08T10:28:10.000Z</time>
</trkpt>
<trkpt lat="44.109639" lon="3.081534">
<ele>418.4</ele>
<time>2013-05-08T10:28:11.000Z</time>
</trkpt>
<trkpt lat="44.109751" lon="3.081565">
<ele>418.2</ele>
<time>2013-05-08T10:28:12.000Z</time>
</trkpt>
<trkpt lat="44.109861" lon="3.081594">
<ele>418.2</ele>
<time>2013-05-08T10:28:13.000Z</time>
</trkpt>
<trkpt lat="44.109968" lon="3.081629">
<ele>419.1</ele>
<time>2013-05-08T10:28:14.000Z</time>
</trkpt>
<trkpt lat="44.110064" lon="3.081667">
<ele>419.7</ele>
<time>2013-05-08T10:28:15.000Z</time>
</trkpt>
<trkpt lat="44.110151" lon="3.081706">
<ele>420.3</ele>
<time>2013-05-08T10:28:16.000Z</time>
</trkpt>
<trkpt lat="44.110229" lon="3.081734">
<ele>420.9</ele>
<time>2013-05-08T10:28:17.000Z</time>
</trkpt>
<trkpt lat="44.110317" lon="3.081759">
<ele>421.2</ele>
<time>2013-05-08T10:28:18.000Z</time>
</trkpt>
<trkpt lat="44.110409" lon="3.081783">
<ele>421.7</ele>
<time>2013-05-08T10:28:19.000Z</time>
</trkpt>
<trkpt lat="44.110501" lon="3.081804">
<ele>422.4</ele>
<time>2013-05-08T10:28:20.000Z</time>
</trkpt>
<trkpt lat="44.110588" lon="3.081825">
<ele>423.1</ele>
<time>2013-05-08T10:28:21.000Z</time>
</trkpt>
<trkpt lat="44.110669" lon="3.081844">
<ele>423.4</ele>
<time>2013-05-08T10:28:22.000Z</time>
</trkpt>
<trkpt lat="44.110747" lon="3.081864">
<ele>423.7</ele>
<time>2013-05-08T10:28:23.000Z</time>
</trkpt>
<trkpt lat="44.110819" lon="3.081882">
<ele>423.8</ele>
<time>2013-05-08T10:28:24.000Z</time>
</trkpt>
<trkpt lat="44.110893" lon="3.081901">
<ele>423.9</ele>
<time>2013-05-08T10:28:25.000Z</time>
</trkpt>
<trkpt lat="44.110967" lon="3.08192">
<ele>424</ele>
<time>2013-05-08T10:28:26.000Z</time>
</trkpt>
<trkpt lat="44.111039" lon="3.081938">
<ele>423.9</ele>
<time>2013-05-08T10:28:27.000Z</time>
</trkpt>
<trkpt lat="44.111107" lon="3.081956">
<ele>423.7</ele>
<time>2013-05-08T10:28:28.000Z</time>
</trkpt>
<trkpt lat="44.11117" lon="3.081972">
<ele>423.2</ele>
<time>2013-05-08T10:28:29.000Z</time>
</trkpt>
<trkpt lat="44.111236" lon="3.081992">
<ele>422.8</ele>
<time>2013-05-08T10:28:30.000Z</time>
</trkpt>
<trkpt lat="44.111295" lon="3.08201">
<ele>422.3</ele>
<time>2013-05-08T10:28:31.000Z</time>
</trkpt>
<trkpt lat="44.111351" lon="3.082028">
<ele>422</ele>
<time>2013-05-08T10:28:32.000Z</time>
</trkpt>
<trkpt lat="44.111405" lon="3.082045">
<ele>421.7</ele>
<time>2013-05-08T10:28:33.000Z</time>
</trkpt>
<trkpt lat="44.111457" lon="3.082062">
<ele>421.3</ele>
<time>2013-05-08T10:28:34.000Z</time>
</trkpt>
<trkpt lat="44.111509" lon="3.082081">
<ele>421</ele>
<time>2013-05-08T10:28:35.000Z</time>
</trkpt>
<trkpt lat="44.111562" lon="3.0821">
<ele>420.8</ele>
<time>2013-05-08T10:28:36.000Z</time>
</trkpt>
<trkpt lat="44.111621" lon="3.082123">
<ele>420.6</ele>
<time>2013-05-08T10:28:37.000Z</time>
</trkpt>
<trkpt lat="44.111694" lon="3.082149">
<ele>420.6</ele>
<time>2013-05-08T10:28:38.000Z</time>
</trkpt>
<trkpt lat="44.111763" lon="3.082171">
<ele>420.7</ele>
<time>2013-05-08T10:28:39.000Z</time>
</trkpt>
<trkpt lat="44.111836" lon="3.082191">
<ele>421</ele>
<time>2013-05-08T10:28:40.000Z</time>
</trkpt>
<trkpt lat="44.111905" lon="3.082211">
<ele>421.4</ele>
<time>2013-05-08T10:28:41.000Z</time>
</trkpt>
<trkpt lat="44.111979" lon="3.08223">
<ele>421.6</ele>
<time>2013-05-08T10:28:42.000Z</time>
</trkpt>
<trkpt lat="44.11205" lon="3.082251">
<ele>421.6</ele>
<time>2013-05-08T10:28:43.000Z</time>
</trkpt>
<trkpt lat="44.11212" lon="3.082268">
<ele>421.7</ele>
<time>2013-05-08T10:28:44.000Z</time>
</trkpt>
<trkpt lat="44.112188" lon="3.082284">
<ele>421.7</ele>
<time>2013-05-08T10:28:45.000Z</time>
</trkpt>
<trkpt lat="44.112258" lon="3.082298">
<ele>421.6</ele>
<time>2013-05-08T10:28:46.000Z</time>
</trkpt>
<trkpt lat="44.112334" lon="3.082315">
<ele>421.8</ele>
<time>2013-05-08T10:28:47.000Z</time>
</trkpt>
<trkpt lat="44.112422" lon="3.082335">
<ele>422.6</ele>
<time>2013-05-08T10:28:48.000Z</time>
</trkpt>
<trkpt lat="44.112516" lon="3.082355">
<ele>422.6</ele>
<time>2013-05-08T10:28:49.000Z</time>
</trkpt>
<trkpt lat="44.112643" lon="3.082395">
<ele>423.1</ele>
<time>2013-05-08T10:28:50.000Z</time>
</trkpt>
<trkpt lat="44.112787" lon="3.082444">
<ele>423.6</ele>
<time>2013-05-08T10:28:51.000Z</time>
</trkpt>
<trkpt lat="44.11293" lon="3.082498">
<ele>423.6</ele>
<time>2013-05-08T10:28:52.000Z</time>
</trkpt>
<trkpt lat="44.113062" lon="3.082548">
<ele>423.5</ele>
<time>2013-05-08T10:28:53.000Z</time>
</trkpt>
<trkpt lat="44.113189" lon="3.082595">
<ele>423.6</ele>
<time>2013-05-08T10:28:54.000Z</time>
</trkpt>
<trkpt lat="44.113309" lon="3.082635">
<ele>423.7</ele>
<time>2013-05-08T10:28:55.000Z</time>
</trkpt>
<trkpt lat="44.113425" lon="3.082661">
<ele>423.7</ele>
<time>2013-05-08T10:28:56.000Z</time>
</trkpt>
<trkpt lat="44.113534" lon="3.082684">
<ele>423.6</ele>
<time>2013-05-08T10:28:57.000Z</time>
</trkpt>
<trkpt lat="44.113648" lon="3.082712">
<ele>423.4</ele>
<time>2013-05-08T10:28:58.000Z</time>
</trkpt>
<trkpt lat="44.113762" lon="3.08274">
<ele>423.1</ele>
<time>2013-05-08T10:28:59.000Z</time>
</trkpt>
<trkpt lat="44.113881" lon="3.082781">
<ele>422.8</ele>
<time>2013-05-08T10:29:00.000Z</time>
</trkpt>
<trkpt lat="44.114007" lon="3.082834">
<ele>422.3</ele>
<time>2013-05-08T10:29:01.000Z</time>
</trkpt>
<trkpt lat="44.114131" lon="3.08289">
<ele>421.8</ele>
<time>2013-05-08T10:29:02.000Z</time>
</trkpt>
<trkpt lat="44.114243" lon="3.082959">
<ele>421.6</ele>
<time>2013-05-08T10:29:03.000Z</time>
</trkpt>
<trkpt lat="44.114352" lon="3.083034">
<ele>421.6</ele>
<time>2013-05-08T10:29:04.000Z</time>
</trkpt>
<trkpt lat="44.114455" lon="3.083114">
<ele>421.4</ele>
<time>2013-05-08T10:29:05.000Z</time>
</trkpt>
<trkpt lat="44.114554" lon="3.083193">
<ele>421.2</ele>
<time>2013-05-08T10:29:06.000Z</time>
</trkpt>
<trkpt lat="44.114651" lon="3.083272">
<ele>421.1</ele>
<time>2013-05-08T10:29:07.000Z</time>
</trkpt>
<trkpt lat="44.114748" lon="3.083351">
<ele>421</ele>
<time>2013-05-08T10:29:08.000Z</time>
</trkpt>
<trkpt lat="44.114844" lon="3.083439">
<ele>421.2</ele>
<time>2013-05-08T10:29:09.000Z</time>
</trkpt>
<trkpt lat="44.114948" lon="3.083527">
<ele>421.3</ele>
<time>2013-05-08T10:29:10.000Z</time>
</trkpt>
<trkpt lat="44.115046" lon="3.083614">
<ele>421.3</ele>
<time>2013-05-08T10:29:11.000Z</time>
</trkpt>
<trkpt lat="44.115146" lon="3.083703">
<ele>421.5</ele>
<time>2013-05-08T10:29:12.000Z</time>
</trkpt>
<trkpt lat="44.115248" lon="3.083791">
<ele>421.3</ele>
<time>2013-05-08T10:29:13.000Z</time>
</trkpt>
<trkpt lat="44.115342" lon="3.083874">
<ele>421.1</ele>
<time>2013-05-08T10:29:14.000Z</time>
</trkpt>
<trkpt lat="44.11544" lon="3.083962">
<ele>421.1</ele>
<time>2013-05-08T10:29:15.000Z</time>
</trkpt>
<trkpt lat="44.115534" lon="3.084043">
<ele>420.9</ele>
<time>2013-05-08T10:29:16.000Z</time>
</trkpt>
<trkpt lat="44.115624" lon="3.084118">
<ele>420.7</ele>
<time>2013-05-08T10:29:17.000Z</time>
</trkpt>
<trkpt lat="44.115708" lon="3.084194">
<ele>420.7</ele>
<time>2013-05-08T10:29:18.000Z</time>
</trkpt>
<trkpt lat="44.115786" lon="3.084266">
<ele>420.6</ele>
<time>2013-05-08T10:29:19.000Z</time>
</trkpt>
<trkpt lat="44.115853" lon="3.084327">
<ele>421</ele>
<time>2013-05-08T10:29:20.000Z</time>
</trkpt>
<trkpt lat="44.115917" lon="3.084389">
<ele>421.7</ele>
<time>2013-05-08T10:29:21.000Z</time>
</trkpt>
<trkpt lat="44.115969" lon="3.084462">
<ele>422.3</ele>
<time>2013-05-08T10:29:22.000Z</time>
</trkpt>
<trkpt lat="44.116019" lon="3.084537">
<ele>422.6</ele>
<time>2013-05-08T10:29:23.000Z</time>
</trkpt>
<trkpt lat="44.116072" lon="3.084628">
<ele>422.7</ele>
<time>2013-05-08T10:29:24.000Z</time>
</trkpt>
<trkpt lat="44.116124" lon="3.084711">
<ele>422.9</ele>
<time>2013-05-08T10:29:25.000Z</time>
</trkpt>
<trkpt lat="44.116193" lon="3.084737">
<ele>423.2</ele>
<time>2013-05-08T10:29:26.000Z</time>
</trkpt>
<trkpt lat="44.116267" lon="3.084729">
<ele>423.3</ele>
<time>2013-05-08T10:29:27.000Z</time>
</trkpt>
<trkpt lat="44.116342" lon="3.084709">
<ele>423</ele>
<time>2013-05-08T10:29:28.000Z</time>
</trkpt>
<trkpt lat="44.116386" lon="3.084632">
<ele>423</ele>
<time>2013-05-08T10:29:29.000Z</time>
</trkpt>
<trkpt lat="44.116402" lon="3.084523">
<ele>422.6</ele>
<time>2013-05-08T10:29:30.000Z</time>
</trkpt>
<trkpt lat="44.116418" lon="3.0844">
<ele>422.2</ele>
<time>2013-05-08T10:29:31.000Z</time>
</trkpt>
<trkpt lat="44.116438" lon="3.084265">
<ele>421.7</ele>
<time>2013-05-08T10:29:32.000Z</time>
</trkpt>
<trkpt lat="44.116458" lon="3.084123">
<ele>421.6</ele>
<time>2013-05-08T10:29:33.000Z</time>
</trkpt>
<trkpt lat="44.116479" lon="3.083979">
<ele>421.8</ele>
<time>2013-05-08T10:29:34.000Z</time>
</trkpt>
<trkpt lat="44.116465" lon="3.083826">
<ele>421.6</ele>
<time>2013-05-08T10:29:35.000Z</time>
</trkpt>
<trkpt lat="44.116446" lon="3.083684">
<ele>421.9</ele>
<time>2013-05-08T10:29:36.000Z</time>
</trkpt>
<trkpt lat="44.116407" lon="3.083537">
<ele>422.5</ele>
<time>2013-05-08T10:29:37.000Z</time>
</trkpt>
<trkpt lat="44.11637" lon="3.083396">
<ele>423.1</ele>
<time>2013-05-08T10:29:38.000Z</time>
</trkpt>
<trkpt lat="44.116329" lon="3.08325">
<ele>423.6</ele>
<time>2013-05-08T10:29:39.000Z</time>
</trkpt>
<trkpt lat="44.116286" lon="3.083099">
<ele>424.2</ele>
<time>2013-05-08T10:29:40.000Z</time>
</trkpt>
<trkpt lat="44.116242" lon="3.082948">
<ele>425</ele>
<time>2013-05-08T10:29:41.000Z</time>
</trkpt>
<trkpt lat="44.116193" lon="3.082795">
<ele>425.7</ele>
<time>2013-05-08T10:29:42.000Z</time>
</trkpt>
<trkpt lat="44.116141" lon="3.082635">
<ele>426.3</ele>
<time>2013-05-08T10:29:43.000Z</time>
</trkpt>
<trkpt lat="44.116076" lon="3.08247">
<ele>427</ele>
<time>2013-05-08T10:29:44.000Z</time>
</trkpt>
<trkpt lat="44.116002" lon="3.082298">
<ele>427.6</ele>
<time>2013-05-08T10:29:45.000Z</time>
</trkpt>
<trkpt lat="44.115916" lon="3.082122">
<ele>427.7</ele>
<time>2013-05-08T10:29:46.000Z</time>
</trkpt>
<trkpt lat="44.115825" lon="3.081952">
<ele>427.8</ele>
<time>2013-05-08T10:29:47.000Z</time>
</trkpt>
<trkpt lat="44.11573" lon="3.081785">
<ele>427.9</ele>
<time>2013-05-08T10:29:48.000Z</time>
</trkpt>
<trkpt lat="44.115633" lon="3.081625">
<ele>428.1</ele>
<time>2013-05-08T10:29:49.000Z</time>
</trkpt>
<trkpt lat="44.115538" lon="3.081471">
<ele>428.6</ele>
<time>2013-05-08T10:29:50.000Z</time>
</trkpt>
<trkpt lat="44.11544" lon="3.081322">
<ele>429</ele>
<time>2013-05-08T10:29:51.000Z</time>
</trkpt>
<trkpt lat="44.115342" lon="3.081178">
<ele>429.6</ele>
<time>2013-05-08T10:29:52.000Z</time>
</trkpt>
<trkpt lat="44.115241" lon="3.081029">
<ele>430.4</ele>
<time>2013-05-08T10:29:53.000Z</time>
</trkpt>
<trkpt lat="44.11514" lon="3.080888">
<ele>431.3</ele>
<time>2013-05-08T10:29:54.000Z</time>
</trkpt>
<trkpt lat="44.115041" lon="3.080754">
<ele>432.2</ele>
<time>2013-05-08T10:29:55.000Z</time>
</trkpt>
<trkpt lat="44.11494" lon="3.080623">
<ele>433</ele>
<time>2013-05-08T10:29:56.000Z</time>
</trkpt>
<trkpt lat="44.11484" lon="3.080489">
<ele>433.8</ele>
<time>2013-05-08T10:29:57.000Z</time>
</trkpt>
<trkpt lat="44.114745" lon="3.080365">
<ele>434.7</ele>
<time>2013-05-08T10:29:58.000Z</time>
</trkpt>
<trkpt lat="44.114649" lon="3.080237">
<ele>435.5</ele>
<time>2013-05-08T10:29:59.000Z</time>
</trkpt>
<trkpt lat="44.114551" lon="3.080107">
<ele>436.3</ele>
<time>2013-05-08T10:30:00.000Z</time>
</trkpt>
<trkpt lat="44.114454" lon="3.079976">
<ele>437.1</ele>
<time>2013-05-08T10:30:01.000Z</time>
</trkpt>
<trkpt lat="44.114351" lon="3.079847">
<ele>437.9</ele>
<time>2013-05-08T10:30:02.000Z</time>
</trkpt>
<trkpt lat="44.114244" lon="3.079711">
<ele>438.6</ele>
<time>2013-05-08T10:30:03.000Z</time>
</trkpt>
<trkpt lat="44.114133" lon="3.079566">
<ele>439.3</ele>
<time>2013-05-08T10:30:04.000Z</time>
</trkpt>
<trkpt lat="44.114023" lon="3.079413">
<ele>439.9</ele>
<time>2013-05-08T10:30:05.000Z</time>
</trkpt>
<trkpt lat="44.113916" lon="3.079252">
<ele>440.6</ele>
<time>2013-05-08T10:30:06.000Z</time>
</trkpt>
<trkpt lat="44.113814" lon="3.079082">
<ele>441.2</ele>
<time>2013-05-08T10:30:07.000Z</time>
</trkpt>
<trkpt lat="44.11372" lon="3.0789">
<ele>441.5</ele>
<time>2013-05-08T10:30:08.000Z</time>
</trkpt>
<trkpt lat="44.113638" lon="3.078707">
<ele>441.5</ele>
<time>2013-05-08T10:30:09.000Z</time>
</trkpt>
<trkpt lat="44.113593" lon="3.07849">
<ele>441.6</ele>
<time>2013-05-08T10:30:10.000Z</time>
</trkpt>
<trkpt lat="44.113554" lon="3.07827">
<ele>441.9</ele>
<time>2013-05-08T10:30:11.000Z</time>
</trkpt>
<trkpt lat="44.113523" lon="3.078052">
<ele>442.8</ele>
<time>2013-05-08T10:30:12.000Z</time>
</trkpt>
<trkpt lat="44.113506" lon="3.077849">
<ele>444</ele>
<time>2013-05-08T10:30:13.000Z</time>
</trkpt>
<trkpt lat="44.113498" lon="3.077632">
<ele>445.2</ele>
<time>2013-05-08T10:30:14.000Z</time>
</trkpt>
<trkpt lat="44.113493" lon="3.077405">
<ele>446</ele>
<time>2013-05-08T10:30:15.000Z</time>
</trkpt>
<trkpt lat="44.113487" lon="3.077162">
<ele>447</ele>
<time>2013-05-08T10:30:16.000Z</time>
</trkpt>
<trkpt lat="44.113485" lon="3.076879">
<ele>448.2</ele>
<time>2013-05-08T10:30:17.000Z</time>
</trkpt>
<trkpt lat="44.113493" lon="3.076618">
<ele>449.3</ele>
<time>2013-05-08T10:30:18.000Z</time>
</trkpt>
<trkpt lat="44.113554" lon="3.076368">
<ele>450.7</ele>
<time>2013-05-08T10:30:19.000Z</time>
</trkpt>
<trkpt lat="44.113641" lon="3.076111">
<ele>452.4</ele>
<time>2013-05-08T10:30:20.000Z</time>
</trkpt>
<trkpt lat="44.113739" lon="3.075863">
<ele>454.3</ele>
<time>2013-05-08T10:30:21.000Z</time>
</trkpt>
<trkpt lat="44.113846" lon="3.075649">
<ele>456.1</ele>
<time>2013-05-08T10:30:22.000Z</time>
</trkpt>
<trkpt lat="44.113953" lon="3.075454">
<ele>457.6</ele>
<time>2013-05-08T10:30:23.000Z</time>
</trkpt>
<trkpt lat="44.114067" lon="3.075287">
<ele>458.9</ele>
<time>2013-05-08T10:30:24.000Z</time>
</trkpt>
<trkpt lat="44.114193" lon="3.075132">
<ele>460.1</ele>
<time>2013-05-08T10:30:25.000Z</time>
</trkpt>
<trkpt lat="44.114355" lon="3.075008">
<ele>461.2</ele>
<time>2013-05-08T10:30:26.000Z</time>
</trkpt>
<trkpt lat="44.114512" lon="3.074884">
<ele>462.1</ele>
<time>2013-05-08T10:30:27.000Z</time>
</trkpt>
<trkpt lat="44.11469" lon="3.074759">
<ele>463.1</ele>
<time>2013-05-08T10:30:28.000Z</time>
</trkpt>
<trkpt lat="44.114887" lon="3.074666">
<ele>464</ele>
<time>2013-05-08T10:30:29.000Z</time>
</trkpt>
<trkpt lat="44.115092" lon="3.074562">
<ele>464.4</ele>
<time>2013-05-08T10:30:30.000Z</time>
</trkpt>
<trkpt lat="44.115304" lon="3.074468">
<ele>465.5</ele>
<time>2013-05-08T10:30:31.000Z</time>
</trkpt>
<trkpt lat="44.115519" lon="3.074386">
<ele>466.5</ele>
<time>2013-05-08T10:30:32.000Z</time>
</trkpt>
<trkpt lat="44.115717" lon="3.074286">
<ele>467.7</ele>
<time>2013-05-08T10:30:33.000Z</time>
</trkpt>
<trkpt lat="44.115908" lon="3.074182">
<ele>468.6</ele>
<time>2013-05-08T10:30:34.000Z</time>
</trkpt>
<trkpt lat="44.116067" lon="3.074059">
<ele>469.3</ele>
<time>2013-05-08T10:30:35.000Z</time>
</trkpt>
<trkpt lat="44.1162" lon="3.073914">
<ele>469.7</ele>
<time>2013-05-08T10:30:36.000Z</time>
</trkpt>
<trkpt lat="44.116321" lon="3.073741">
<ele>470.1</ele>
<time>2013-05-08T10:30:37.000Z</time>
</trkpt>
<trkpt lat="44.116449" lon="3.073562">
<ele>470.9</ele>
<time>2013-05-08T10:30:38.000Z</time>
</trkpt>
<trkpt lat="44.116562" lon="3.073378">
<ele>471.6</ele>
<time>2013-05-08T10:30:39.000Z</time>
</trkpt>
<trkpt lat="44.116648" lon="3.073185">
<ele>472.6</ele>
<time>2013-05-08T10:30:40.000Z</time>
</trkpt>
<trkpt lat="44.116703" lon="3.072963">
<ele>473.5</ele>
<time>2013-05-08T10:30:40.999Z</time>
</trkpt>
<trkpt lat="44.11676" lon="3.072734">
<ele>474.4</ele>
<time>2013-05-08T10:30:41.999Z</time>
</trkpt>
<trkpt lat="44.116817" lon="3.072493">
<ele>475.2</ele>
<time>2013-05-08T10:30:42.999Z</time>
</trkpt>
<trkpt lat="44.116875" lon="3.072258">
<ele>476.2</ele>
<time>2013-05-08T10:30:43.999Z</time>
</trkpt>
<trkpt lat="44.11693" lon="3.072031">
<ele>477.5</ele>
<time>2013-05-08T10:30:44.999Z</time>
</trkpt>
<trkpt lat="44.116987" lon="3.071826">
<ele>479</ele>
<time>2013-05-08T10:30:45.999Z</time>
</trkpt>
<trkpt lat="44.117077" lon="3.071649">
<ele>480.1</ele>
<time>2013-05-08T10:30:46.999Z</time>
</trkpt>
<trkpt lat="44.11717" lon="3.071481">
<ele>481.1</ele>
<time>2013-05-08T10:30:47.999Z</time>
</trkpt>
<trkpt lat="44.117266" lon="3.071334">
<ele>482.5</ele>
<time>2013-05-08T10:30:48.999Z</time>
</trkpt>
<trkpt lat="44.11737" lon="3.07119">
<ele>483.8</ele>
<time>2013-05-08T10:30:49.999Z</time>
</trkpt>
<trkpt lat="44.117465" lon="3.071077">
<ele>485.1</ele>
<time>2013-05-08T10:30:50.999Z</time>
</trkpt>
<trkpt lat="44.117558" lon="3.070978">
<ele>486.4</ele>
<time>2013-05-08T10:30:51.999Z</time>
</trkpt>
<trkpt lat="44.117655" lon="3.070875">
<ele>487.6</ele>
<time>2013-05-08T10:30:52.999Z</time>
</trkpt>
<trkpt lat="44.117748" lon="3.070779">
<ele>488.7</ele>
<time>2013-05-08T10:30:53.999Z</time>
</trkpt>
<trkpt lat="44.117836" lon="3.070694">
<ele>489.9</ele>
<time>2013-05-08T10:30:54.999Z</time>
</trkpt>
<trkpt lat="44.117919" lon="3.070615">
<ele>491.1</ele>
<time>2013-05-08T10:30:55.999Z</time>
</trkpt>
<trkpt lat="44.117992" lon="3.07055">
<ele>492.2</ele>
<time>2013-05-08T10:30:56.999Z</time>
</trkpt>
<trkpt lat="44.118061" lon="3.070487">
<ele>493</ele>
<time>2013-05-08T10:30:57.999Z</time>
</trkpt>
<trkpt lat="44.118126" lon="3.070432">
<ele>493.7</ele>
<time>2013-05-08T10:30:58.999Z</time>
</trkpt>
<trkpt lat="44.118195" lon="3.070377">
<ele>494.3</ele>
<time>2013-05-08T10:30:59.999Z</time>
</trkpt>
<trkpt lat="44.118277" lon="3.070358">
<ele>495.1</ele>
<time>2013-05-08T10:31:00.999Z</time>
</trkpt>
<trkpt lat="44.118362" lon="3.070335">
<ele>496.1</ele>
<time>2013-05-08T10:31:01.999Z</time>
</trkpt>
<trkpt lat="44.118437" lon="3.070274">
<ele>496.6</ele>
<time>2013-05-08T10:31:02.999Z</time>
</trkpt>
<trkpt lat="44.118493" lon="3.070187">
<ele>496.9</ele>
<time>2013-05-08T10:31:03.999Z</time>
</trkpt>
<trkpt lat="44.118523" lon="3.070047">
<ele>497.1</ele>
<time>2013-05-08T10:31:04.999Z</time>
</trkpt>
<trkpt lat="44.118561" lon="3.069872">
<ele>497.3</ele>
<time>2013-05-08T10:31:05.999Z</time>
</trkpt>
<trkpt lat="44.118612" lon="3.069674">
<ele>497.5</ele>
<time>2013-05-08T10:31:06.999Z</time>
</trkpt>
<trkpt lat="44.11867" lon="3.069456">
<ele>497.6</ele>
<time>2013-05-08T10:31:07.999Z</time>
</trkpt>
<trkpt lat="44.118727" lon="3.069239">
<ele>498</ele>
<time>2013-05-08T10:31:08.999Z</time>
</trkpt>
<trkpt lat="44.118772" lon="3.069009">
<ele>498.3</ele>
<time>2013-05-08T10:31:09.999Z</time>
</trkpt>
<trkpt lat="44.118755" lon="3.068755">
<ele>499.1</ele>
<time>2013-05-08T10:31:10.999Z</time>
</trkpt>
<trkpt lat="44.118725" lon="3.068515">
<ele>499.9</ele>
<time>2013-05-08T10:31:11.999Z</time>
</trkpt>
<trkpt lat="44.118656" lon="3.068295">
<ele>500.4</ele>
<time>2013-05-08T10:31:12.999Z</time>
</trkpt>
<trkpt lat="44.11858" lon="3.068066">
<ele>500.9</ele>
<time>2013-05-08T10:31:13.999Z</time>
</trkpt>
<trkpt lat="44.118456" lon="3.067882">
<ele>501.4</ele>
<time>2013-05-08T10:31:14.999Z</time>
</trkpt>
<trkpt lat="44.118318" lon="3.067729">
<ele>501.9</ele>
<time>2013-05-08T10:31:15.999Z</time>
</trkpt>
<trkpt lat="44.118173" lon="3.067592">
<ele>502.2</ele>
<time>2013-05-08T10:31:16.999Z</time>
</trkpt>
<trkpt lat="44.118028" lon="3.067474">
<ele>502.6</ele>
<time>2013-05-08T10:31:17.999Z</time>
</trkpt>
<trkpt lat="44.117889" lon="3.06737">
<ele>503.1</ele>
<time>2013-05-08T10:31:18.999Z</time>
</trkpt>
<trkpt lat="44.117753" lon="3.06727">
<ele>503.9</ele>
<time>2013-05-08T10:31:19.999Z</time>
</trkpt>
<trkpt lat="44.117626" lon="3.067185">
<ele>504.6</ele>
<time>2013-05-08T10:31:20.999Z</time>
</trkpt>
<trkpt lat="44.117502" lon="3.067109">
<ele>505.4</ele>
<time>2013-05-08T10:31:21.999Z</time>
</trkpt>
<trkpt lat="44.11738" lon="3.067038">
<ele>506.2</ele>
<time>2013-05-08T10:31:22.999Z</time>
</trkpt>
<trkpt lat="44.117276" lon="3.066984">
<ele>507.2</ele>
<time>2013-05-08T10:31:23.999Z</time>
</trkpt>
<trkpt lat="44.117186" lon="3.066943">
<ele>507.8</ele>
<time>2013-05-08T10:31:24.999Z</time>
</trkpt>
<trkpt lat="44.117103" lon="3.066909">
<ele>508.2</ele>
<time>2013-05-08T10:31:25.999Z</time>
</trkpt>
<trkpt lat="44.117023" lon="3.066879">
<ele>508.8</ele>
<time>2013-05-08T10:31:26.999Z</time>
</trkpt>
<trkpt lat="44.116946" lon="3.066852">
<ele>509.6</ele>
<time>2013-05-08T10:31:27.999Z</time>
</trkpt>
<trkpt lat="44.11688" lon="3.066803">
<ele>510.3</ele>
<time>2013-05-08T10:31:28.999Z</time>
</trkpt>
<trkpt lat="44.116849" lon="3.066733">
<ele>511.3</ele>
<time>2013-05-08T10:31:29.999Z</time>
</trkpt>
<trkpt lat="44.116817" lon="3.066644">
<ele>512.2</ele>
<time>2013-05-08T10:31:30.999Z</time>
</trkpt>
<trkpt lat="44.1168" lon="3.066512">
<ele>513.1</ele>
<time>2013-05-08T10:31:31.999Z</time>
</trkpt>
<trkpt lat="44.116789" lon="3.066362">
<ele>513.9</ele>
<time>2013-05-08T10:31:32.999Z</time>
</trkpt>
<trkpt lat="44.116827" lon="3.066183">
<ele>515.2</ele>
<time>2013-05-08T10:31:33.999Z</time>
</trkpt>
<trkpt lat="44.116861" lon="3.065993">
<ele>516.6</ele>
<time>2013-05-08T10:31:34.999Z</time>
</trkpt>
<trkpt lat="44.116897" lon="3.065809">
<ele>517.8</ele>
<time>2013-05-08T10:31:35.999Z</time>
</trkpt>
<trkpt lat="44.116931" lon="3.065634">
<ele>518.9</ele>
<time>2013-05-08T10:31:36.999Z</time>
</trkpt>
<trkpt lat="44.116963" lon="3.065477">
<ele>519.8</ele>
<time>2013-05-08T10:31:37.999Z</time>
</trkpt>
<trkpt lat="44.116997" lon="3.065339">
<ele>520.6</ele>
<time>2013-05-08T10:31:38.999Z</time>
</trkpt>
<trkpt lat="44.117031" lon="3.065204">
<ele>521.4</ele>
<time>2013-05-08T10:31:39.999Z</time>
</trkpt>
<trkpt lat="44.117069" lon="3.065069">
<ele>522.3</ele>
<time>2013-05-08T10:31:40.999Z</time>
</trkpt>
<trkpt lat="44.117114" lon="3.064927">
<ele>523.2</ele>
<time>2013-05-08T10:31:41.999Z</time>
</trkpt>
<trkpt lat="44.117172" lon="3.06477">
<ele>524.1</ele>
<time>2013-05-08T10:31:42.999Z</time>
</trkpt>
<trkpt lat="44.11725" lon="3.064582">
<ele>525.2</ele>
<time>2013-05-08T10:31:43.999Z</time>
</trkpt>
<trkpt lat="44.117349" lon="3.064366">
<ele>526.4</ele>
<time>2013-05-08T10:31:44.999Z</time>
</trkpt>
<trkpt lat="44.117465" lon="3.064123">
<ele>527.5</ele>
<time>2013-05-08T10:31:45.999Z</time>
</trkpt>
<trkpt lat="44.117628" lon="3.063908">
<ele>528.6</ele>
<time>2013-05-08T10:31:46.999Z</time>
</trkpt>
<trkpt lat="44.117828" lon="3.063721">
<ele>529.8</ele>
<time>2013-05-08T10:31:47.999Z</time>
</trkpt>
<trkpt lat="44.118038" lon="3.063546">
<ele>531.3</ele>
<time>2013-05-08T10:31:48.999Z</time>
</trkpt>
<trkpt lat="44.118264" lon="3.063398">
<ele>532.7</ele>
<time>2013-05-08T10:31:49.999Z</time>
</trkpt>
<trkpt lat="44.118489" lon="3.063276">
<ele>534</ele>
<time>2013-05-08T10:31:50.999Z</time>
</trkpt>
<trkpt lat="44.118722" lon="3.063183">
<ele>535.2</ele>
<time>2013-05-08T10:31:51.999Z</time>
</trkpt>
<trkpt lat="44.118957" lon="3.063113">
<ele>536.2</ele>
<time>2013-05-08T10:31:52.999Z</time>
</trkpt>
<trkpt lat="44.119195" lon="3.063077">
<ele>537.2</ele>
<time>2013-05-08T10:31:53.999Z</time>
</trkpt>
<trkpt lat="44.119431" lon="3.063049">
<ele>538.3</ele>
<time>2013-05-08T10:31:54.999Z</time>
</trkpt>
<trkpt lat="44.119669" lon="3.063029">
<ele>539.5</ele>
<time>2013-05-08T10:31:55.999Z</time>
</trkpt>
<trkpt lat="44.119915" lon="3.06302">
<ele>541.1</ele>
<time>2013-05-08T10:31:56.999Z</time>
</trkpt>
<trkpt lat="44.120156" lon="3.063015">
<ele>542.6</ele>
<time>2013-05-08T10:31:57.999Z</time>
</trkpt>
<trkpt lat="44.120395" lon="3.063012">
<ele>544.1</ele>
<time>2013-05-08T10:31:58.999Z</time>
</trkpt>
<trkpt lat="44.120618" lon="3.063007">
<ele>545.8</ele>
<time>2013-05-08T10:31:59.999Z</time>
</trkpt>
<trkpt lat="44.120828" lon="3.062968">
<ele>547.5</ele>
<time>2013-05-08T10:32:00.999Z</time>
</trkpt>
<trkpt lat="44.121027" lon="3.062869">
<ele>548.4</ele>
<time>2013-05-08T10:32:01.999Z</time>
</trkpt>
<trkpt lat="44.121213" lon="3.062727">
<ele>549.4</ele>
<time>2013-05-08T10:32:02.999Z</time>
</trkpt>
<trkpt lat="44.121339" lon="3.062526">
<ele>550.3</ele>
<time>2013-05-08T10:32:03.999Z</time>
</trkpt>
<trkpt lat="44.121434" lon="3.062311">
<ele>551.1</ele>
<time>2013-05-08T10:32:04.999Z</time>
</trkpt>
<trkpt lat="44.121501" lon="3.06207">
<ele>551.6</ele>
<time>2013-05-08T10:32:05.999Z</time>
</trkpt>
<trkpt lat="44.121536" lon="3.061807">
<ele>551.9</ele>
<time>2013-05-08T10:32:06.999Z</time>
</trkpt>
<trkpt lat="44.121535" lon="3.061514">
<ele>552.2</ele>
<time>2013-05-08T10:32:07.999Z</time>
</trkpt>
<trkpt lat="44.121507" lon="3.061202">
<ele>552.6</ele>
<time>2013-05-08T10:32:08.999Z</time>
</trkpt>
<trkpt lat="44.121471" lon="3.06088">
<ele>553.5</ele>
<time>2013-05-08T10:32:09.999Z</time>
</trkpt>
<trkpt lat="44.121437" lon="3.060553">
<ele>554.7</ele>
<time>2013-05-08T10:32:10.999Z</time>
</trkpt>
<trkpt lat="44.121409" lon="3.060221">
<ele>556.1</ele>
<time>2013-05-08T10:32:11.999Z</time>
</trkpt>
<trkpt lat="44.121416" lon="3.059873">
<ele>557.6</ele>
<time>2013-05-08T10:32:12.999Z</time>
</trkpt>
<trkpt lat="44.121458" lon="3.059533">
<ele>559.4</ele>
<time>2013-05-08T10:32:13.999Z</time>
</trkpt>
<trkpt lat="44.121526" lon="3.059213">
<ele>561.3</ele>
<time>2013-05-08T10:32:14.999Z</time>
</trkpt>
<trkpt lat="44.121602" lon="3.058903">
<ele>563.5</ele>
<time>2013-05-08T10:32:15.999Z</time>
</trkpt>
<trkpt lat="44.121688" lon="3.058608">
<ele>565.5</ele>
<time>2013-05-08T10:32:16.999Z</time>
</trkpt>
<trkpt lat="44.121771" lon="3.058329">
<ele>567.5</ele>
<time>2013-05-08T10:32:17.999Z</time>
</trkpt>
<trkpt lat="44.12185" lon="3.058063">
<ele>569.6</ele>
<time>2013-05-08T10:32:18.999Z</time>
</trkpt>
<trkpt lat="44.121923" lon="3.05781">
<ele>571.6</ele>
<time>2013-05-08T10:32:19.999Z</time>
</trkpt>
<trkpt lat="44.121994" lon="3.057565">
<ele>573.5</ele>
<time>2013-05-08T10:32:20.999Z</time>
</trkpt>
<trkpt lat="44.12206" lon="3.057322">
<ele>575.3</ele>
<time>2013-05-08T10:32:21.999Z</time>
</trkpt>
<trkpt lat="44.122124" lon="3.057079">
<ele>577</ele>
<time>2013-05-08T10:32:22.999Z</time>
</trkpt>
<trkpt lat="44.122189" lon="3.056843">
<ele>578.8</ele>
<time>2013-05-08T10:32:23.999Z</time>
</trkpt>
<trkpt lat="44.12227" lon="3.056631">
<ele>580.4</ele>
<time>2013-05-08T10:32:24.999Z</time>
</trkpt>
<trkpt lat="44.122366" lon="3.05645">
<ele>581.9</ele>
<time>2013-05-08T10:32:25.999Z</time>
</trkpt>
<trkpt lat="44.122471" lon="3.05628">
<ele>583.2</ele>
<time>2013-05-08T10:32:26.999Z</time>
</trkpt>
<trkpt lat="44.122612" lon="3.056167">
<ele>584.4</ele>
<time>2013-05-08T10:32:27.999Z</time>
</trkpt>
<trkpt lat="44.122759" lon="3.056073">
<ele>585.5</ele>
<time>2013-05-08T10:32:28.999Z</time>
</trkpt>
<trkpt lat="44.122933" lon="3.056046">
<ele>586.4</ele>
<time>2013-05-08T10:32:29.999Z</time>
</trkpt>
<trkpt lat="44.123115" lon="3.056031">
<ele>587.3</ele>
<time>2013-05-08T10:32:30.999Z</time>
</trkpt>
<trkpt lat="44.1233" lon="3.05603">
<ele>587.9</ele>
<time>2013-05-08T10:32:31.999Z</time>
</trkpt>
<trkpt lat="44.123496" lon="3.056068">
<ele>588.8</ele>
<time>2013-05-08T10:32:32.999Z</time>
</trkpt>
<trkpt lat="44.123701" lon="3.056117">
<ele>589.8</ele>
<time>2013-05-08T10:32:33.999Z</time>
</trkpt>
<trkpt lat="44.123907" lon="3.056173">
<ele>591.5</ele>
<time>2013-05-08T10:32:34.999Z</time>
</trkpt>
<trkpt lat="44.124116" lon="3.056215">
<ele>592.9</ele>
<time>2013-05-08T10:32:35.999Z</time>
</trkpt>
<trkpt lat="44.12433" lon="3.056262">
<ele>594.1</ele>
<time>2013-05-08T10:32:36.999Z</time>
</trkpt>
<trkpt lat="44.124539" lon="3.056301">
<ele>595</ele>
<time>2013-05-08T10:32:37.999Z</time>
</trkpt>
<trkpt lat="44.124748" lon="3.056338">
<ele>595.8</ele>
<time>2013-05-08T10:32:38.999Z</time>
</trkpt>
<trkpt lat="44.124961" lon="3.056378">
<ele>596.8</ele>
<time>2013-05-08T10:32:39.999Z</time>
</trkpt>
<trkpt lat="44.12518" lon="3.056422">
<ele>597.9</ele>
<time>2013-05-08T10:32:40.999Z</time>
</trkpt>
<trkpt lat="44.125401" lon="3.056455">
<ele>598.9</ele>
<time>2013-05-08T10:32:41.999Z</time>
</trkpt>
<trkpt lat="44.12563" lon="3.056472">
<ele>600.1</ele>
<time>2013-05-08T10:32:42.999Z</time>
</trkpt>
<trkpt lat="44.12585" lon="3.05646">
<ele>601.1</ele>
<time>2013-05-08T10:32:43.999Z</time>
</trkpt>
<trkpt lat="44.126063" lon="3.056415">
<ele>602.1</ele>
<time>2013-05-08T10:32:44.999Z</time>
</trkpt>
<trkpt lat="44.126264" lon="3.056336">
<ele>603.3</ele>
<time>2013-05-08T10:32:45.999Z</time>
</trkpt>
<trkpt lat="44.126451" lon="3.056219">
<ele>604.8</ele>
<time>2013-05-08T10:32:46.999Z</time>
</trkpt>
<trkpt lat="44.126624" lon="3.056076">
<ele>606.2</ele>
<time>2013-05-08T10:32:47.999Z</time>
</trkpt>
<trkpt lat="44.126794" lon="3.055893">
<ele>607.5</ele>
<time>2013-05-08T10:32:48.999Z</time>
</trkpt>
<trkpt lat="44.126954" lon="3.055655">
<ele>608.5</ele>
<time>2013-05-08T10:32:49.999Z</time>
</trkpt>
<trkpt lat="44.127116" lon="3.055388">
<ele>609.5</ele>
<time>2013-05-08T10:32:50.999Z</time>
</trkpt>
<trkpt lat="44.127258" lon="3.055112">
<ele>610.7</ele>
<time>2013-05-08T10:32:51.999Z</time>
</trkpt>
<trkpt lat="44.127397" lon="3.054841">
<ele>611.9</ele>
<time>2013-05-08T10:32:52.999Z</time>
</trkpt>
<trkpt lat="44.127528" lon="3.054557">
<ele>613.5</ele>
<time>2013-05-08T10:32:53.999Z</time>
</trkpt>
<trkpt lat="44.127657" lon="3.054258">
<ele>615</ele>
<time>2013-05-08T10:32:54.999Z</time>
</trkpt>
<trkpt lat="44.127776" lon="3.05394">
<ele>616.6</ele>
<time>2013-05-08T10:32:55.999Z</time>
</trkpt>
<trkpt lat="44.127895" lon="3.053621">
<ele>618.2</ele>
<time>2013-05-08T10:32:56.999Z</time>
</trkpt>
<trkpt lat="44.128015" lon="3.053306">
<ele>619.8</ele>
<time>2013-05-08T10:32:57.999Z</time>
</trkpt>
<trkpt lat="44.128137" lon="3.052994">
<ele>621.3</ele>
<time>2013-05-08T10:32:58.999Z</time>
</trkpt>
<trkpt lat="44.128264" lon="3.052681">
<ele>622.8</ele>
<time>2013-05-08T10:32:59.999Z</time>
</trkpt>
<trkpt lat="44.128395" lon="3.052365">
<ele>624.1</ele>
<time>2013-05-08T10:33:00.999Z</time>
</trkpt>
<trkpt lat="44.128528" lon="3.052048">
<ele>625.2</ele>
<time>2013-05-08T10:33:01.999Z</time>
</trkpt>
<trkpt lat="44.128653" lon="3.051727">
<ele>626.3</ele>
<time>2013-05-08T10:33:02.999Z</time>
</trkpt>
<trkpt lat="44.128759" lon="3.051394">
<ele>627.4</ele>
<time>2013-05-08T10:33:03.999Z</time>
</trkpt>
<trkpt lat="44.128837" lon="3.051052">
<ele>628.3</ele>
<time>2013-05-08T10:33:04.999Z</time>
</trkpt>
<trkpt lat="44.128894" lon="3.050704">
<ele>629.2</ele>
<time>2013-05-08T10:33:05.999Z</time>
</trkpt>
<trkpt lat="44.12891" lon="3.05035">
<ele>630</ele>
<time>2013-05-08T10:33:06.999Z</time>
</trkpt>
<trkpt lat="44.128914" lon="3.050018">
<ele>630.8</ele>
<time>2013-05-08T10:33:07.999Z</time>
</trkpt>
<trkpt lat="44.128904" lon="3.049712">
<ele>631.9</ele>
<time>2013-05-08T10:33:08.999Z</time>
</trkpt>
<trkpt lat="44.128881" lon="3.049438">
<ele>633.1</ele>
<time>2013-05-08T10:33:09.999Z</time>
</trkpt>
<trkpt lat="44.128861" lon="3.049195">
<ele>634.3</ele>
<time>2013-05-08T10:33:10.999Z</time>
</trkpt>
<trkpt lat="44.128836" lon="3.048957">
<ele>634.7</ele>
<time>2013-05-08T10:33:11.999Z</time>
</trkpt>
<trkpt lat="44.12881" lon="3.048718">
<ele>634.7</ele>
<time>2013-05-08T10:33:12.999Z</time>
</trkpt>
<trkpt lat="44.128783" lon="3.048464">
<ele>634.6</ele>
<time>2013-05-08T10:33:13.999Z</time>
</trkpt>
<trkpt lat="44.128757" lon="3.04821">
<ele>634.5</ele>
<time>2013-05-08T10:33:14.999Z</time>
</trkpt>
<trkpt lat="44.128734" lon="3.04795">
<ele>634.6</ele>
<time>2013-05-08T10:33:15.999Z</time>
</trkpt>
<trkpt lat="44.128716" lon="3.047689">
<ele>634.9</ele>
<time>2013-05-08T10:33:16.999Z</time>
</trkpt>
<trkpt lat="44.12871" lon="3.047438">
<ele>635.1</ele>
<time>2013-05-08T10:33:17.999Z</time>
</trkpt>
<trkpt lat="44.128725" lon="3.047198">
<ele>635.2</ele>
<time>2013-05-08T10:33:18.999Z</time>
</trkpt>
<trkpt lat="44.128762" lon="3.046957">
<ele>635.5</ele>
<time>2013-05-08T10:33:19.999Z</time>
</trkpt>
<trkpt lat="44.128818" lon="3.046721">
<ele>636</ele>
<time>2013-05-08T10:33:20.999Z</time>
</trkpt>
<trkpt lat="44.128891" lon="3.0465">
<ele>636.6</ele>
<time>2013-05-08T10:33:21.999Z</time>
</trkpt>
<trkpt lat="44.128983" lon="3.046288">
<ele>637.2</ele>
<time>2013-05-08T10:33:22.999Z</time>
</trkpt>
<trkpt lat="44.129087" lon="3.046074">
<ele>637.9</ele>
<time>2013-05-08T10:33:23.999Z</time>
</trkpt>
<trkpt lat="44.129206" lon="3.045873">
<ele>638.7</ele>
<time>2013-05-08T10:33:24.999Z</time>
</trkpt>
<trkpt lat="44.129338" lon="3.045685">
<ele>639.7</ele>
<time>2013-05-08T10:33:25.999Z</time>
</trkpt>
<trkpt lat="44.129481" lon="3.045511">
<ele>640.9</ele>
<time>2013-05-08T10:33:26.999Z</time>
</trkpt>
<trkpt lat="44.129624" lon="3.045345">
<ele>642.1</ele>
<time>2013-05-08T10:33:27.999Z</time>
</trkpt>
<trkpt lat="44.129769" lon="3.045183">
<ele>643.3</ele>
<time>2013-05-08T10:33:28.999Z</time>
</trkpt>
<trkpt lat="44.129919" lon="3.045023">
<ele>644.3</ele>
<time>2013-05-08T10:33:29.999Z</time>
</trkpt>
<trkpt lat="44.130062" lon="3.04487">
<ele>645.1</ele>
<time>2013-05-08T10:33:30.999Z</time>
</trkpt>
<trkpt lat="44.1302" lon="3.044722">
<ele>645.8</ele>
<time>2013-05-08T10:33:31.999Z</time>
</trkpt>
<trkpt lat="44.130334" lon="3.04458">
<ele>646.5</ele>
<time>2013-05-08T10:33:32.999Z</time>
</trkpt>
<trkpt lat="44.130469" lon="3.044444">
<ele>646.8</ele>
<time>2013-05-08T10:33:33.999Z</time>
</trkpt>
<trkpt lat="44.130604" lon="3.044303">
<ele>646.9</ele>
<time>2013-05-08T10:33:34.999Z</time>
</trkpt>
<trkpt lat="44.130735" lon="3.044164">
<ele>646.7</ele>
<time>2013-05-08T10:33:35.999Z</time>
</trkpt>
<trkpt lat="44.130872" lon="3.044015">
<ele>646.7</ele>
<time>2013-05-08T10:33:36.999Z</time>
</trkpt>
<trkpt lat="44.131011" lon="3.043869">
<ele>647</ele>
<time>2013-05-08T10:33:37.999Z</time>
</trkpt>
<trkpt lat="44.131156" lon="3.043717">
<ele>647.3</ele>
<time>2013-05-08T10:33:38.999Z</time>
</trkpt>
<trkpt lat="44.131298" lon="3.043566">
<ele>647.6</ele>
<time>2013-05-08T10:33:39.999Z</time>
</trkpt>
<trkpt lat="44.131437" lon="3.043421">
<ele>648.3</ele>
<time>2013-05-08T10:33:40.999Z</time>
</trkpt>
<trkpt lat="44.131576" lon="3.043275">
<ele>649.2</ele>
<time>2013-05-08T10:33:41.999Z</time>
</trkpt>
<trkpt lat="44.131718" lon="3.043127">
<ele>650.1</ele>
<time>2013-05-08T10:33:42.999Z</time>
</trkpt>
<trkpt lat="44.13186" lon="3.042982">
<ele>651.2</ele>
<time>2013-05-08T10:33:43.999Z</time>
</trkpt>
<trkpt lat="44.132008" lon="3.042846">
<ele>652.2</ele>
<time>2013-05-08T10:33:44.999Z</time>
</trkpt>
<trkpt lat="44.132162" lon="3.042722">
<ele>653.1</ele>
<time>2013-05-08T10:33:45.999Z</time>
</trkpt>
<trkpt lat="44.132317" lon="3.042611">
<ele>653.8</ele>
<time>2013-05-08T10:33:46.999Z</time>
</trkpt>
<trkpt lat="44.132477" lon="3.042494">
<ele>654.5</ele>
<time>2013-05-08T10:33:47.999Z</time>
</trkpt>
<trkpt lat="44.132644" lon="3.042371">
<ele>654.9</ele>
<time>2013-05-08T10:33:48.999Z</time>
</trkpt>
<trkpt lat="44.132816" lon="3.042248">
<ele>655.4</ele>
<time>2013-05-08T10:33:49.999Z</time>
</trkpt>
<trkpt lat="44.132991" lon="3.042125">
<ele>655.8</ele>
<time>2013-05-08T10:33:50.999Z</time>
</trkpt>
<trkpt lat="44.133159" lon="3.04199">
<ele>656.2</ele>
<time>2013-05-08T10:33:51.999Z</time>
</trkpt>
<trkpt lat="44.133314" lon="3.041849">
<ele>656.8</ele>
<time>2013-05-08T10:33:52.999Z</time>
</trkpt>
<trkpt lat="44.133467" lon="3.041709">
<ele>657.5</ele>
<time>2013-05-08T10:33:53.999Z</time>
</trkpt>
<trkpt lat="44.133604" lon="3.04154">
<ele>658.5</ele>
<time>2013-05-08T10:33:54.999Z</time>
</trkpt>
<trkpt lat="44.133738" lon="3.041353">
<ele>659.8</ele>
<time>2013-05-08T10:33:55.999Z</time>
</trkpt>
<trkpt lat="44.133855" lon="3.041151">
<ele>661.1</ele>
<time>2013-05-08T10:33:56.999Z</time>
</trkpt>
<trkpt lat="44.133963" lon="3.040934">
<ele>662.1</ele>
<time>2013-05-08T10:33:57.999Z</time>
</trkpt>
<trkpt lat="44.134058" lon="3.040712">
<ele>662.9</ele>
<time>2013-05-08T10:33:58.999Z</time>
</trkpt>
<trkpt lat="44.134136" lon="3.040476">
<ele>663.2</ele>
<time>2013-05-08T10:33:59.999Z</time>
</trkpt>
<trkpt lat="44.134198" lon="3.040225">
<ele>663.7</ele>
<time>2013-05-08T10:34:00.999Z</time>
</trkpt>
<trkpt lat="44.134246" lon="3.039971">
<ele>664.2</ele>
<time>2013-05-08T10:34:01.999Z</time>
</trkpt>
<trkpt lat="44.134281" lon="3.039703">
<ele>664.8</ele>
<time>2013-05-08T10:34:02.999Z</time>
</trkpt>
<trkpt lat="44.134293" lon="3.03943">
<ele>665.3</ele>
<time>2013-05-08T10:34:03.999Z</time>
</trkpt>
<trkpt lat="44.134293" lon="3.03916">
<ele>665.5</ele>
<time>2013-05-08T10:34:04.999Z</time>
</trkpt>
<trkpt lat="44.134275" lon="3.038889">
<ele>665.7</ele>
<time>2013-05-08T10:34:05.999Z</time>
</trkpt>
<trkpt lat="44.134229" lon="3.038607">
<ele>666.2</ele>
<time>2013-05-08T10:34:06.999Z</time>
</trkpt>
<trkpt lat="44.134168" lon="3.038333">
<ele>666.5</ele>
<time>2013-05-08T10:34:07.999Z</time>
</trkpt>
<trkpt lat="44.134078" lon="3.038062">
<ele>667</ele>
<time>2013-05-08T10:34:08.999Z</time>
</trkpt>
<trkpt lat="44.133968" lon="3.037797">
<ele>668.1</ele>
<time>2013-05-08T10:34:09.999Z</time>
</trkpt>
<trkpt lat="44.133851" lon="3.037516">
<ele>669</ele>
<time>2013-05-08T10:34:10.999Z</time>
</trkpt>
<trkpt lat="44.133727" lon="3.037221">
<ele>669.9</ele>
<time>2013-05-08T10:34:11.999Z</time>
</trkpt>
<trkpt lat="44.133596" lon="3.036891">
<ele>670.8</ele>
<time>2013-05-08T10:34:12.999Z</time>
</trkpt>
<trkpt lat="44.133464" lon="3.036547">
<ele>672</ele>
<time>2013-05-08T10:34:13.999Z</time>
</trkpt>
<trkpt lat="44.133334" lon="3.0362">
<ele>672.9</ele>
<time>2013-05-08T10:34:14.999Z</time>
</trkpt>
<trkpt lat="44.133205" lon="3.035845">
<ele>673.8</ele>
<time>2013-05-08T10:34:15.999Z</time>
</trkpt>
<trkpt lat="44.133093" lon="3.035496">
<ele>674.8</ele>
<time>2013-05-08T10:34:16.999Z</time>
</trkpt>
<trkpt lat="44.13301" lon="3.035135">
<ele>675.9</ele>
<time>2013-05-08T10:34:17.999Z</time>
</trkpt>
<trkpt lat="44.132955" lon="3.034768">
<ele>677.2</ele>
<time>2013-05-08T10:34:18.999Z</time>
</trkpt>
<trkpt lat="44.132946" lon="3.034381">
<ele>678.6</ele>
<time>2013-05-08T10:34:19.999Z</time>
</trkpt>
<trkpt lat="44.132958" lon="3.034008">
<ele>680.6</ele>
<time>2013-05-08T10:34:20.999Z</time>
</trkpt>
<trkpt lat="44.133006" lon="3.03365">
<ele>682.7</ele>
<time>2013-05-08T10:34:21.999Z</time>
</trkpt>
<trkpt lat="44.133065" lon="3.033304">
<ele>685</ele>
<time>2013-05-08T10:34:22.999Z</time>
</trkpt>
<trkpt lat="44.133133" lon="3.032991">
<ele>686.9</ele>
<time>2013-05-08T10:34:23.999Z</time>
</trkpt>
<trkpt lat="44.133192" lon="3.032707">
<ele>688.9</ele>
<time>2013-05-08T10:34:24.999Z</time>
</trkpt>
<trkpt lat="44.133242" lon="3.032455">
<ele>689.9</ele>
<time>2013-05-08T10:34:25.999Z</time>
</trkpt>
<trkpt lat="44.133288" lon="3.032274">
<ele>691.1</ele>
<time>2013-05-08T10:34:26.999Z</time>
</trkpt>
<trkpt lat="44.133332" lon="3.032115">
<ele>692.4</ele>
<time>2013-05-08T10:34:27.999Z</time>
</trkpt>
<trkpt lat="44.133377" lon="3.031973">
<ele>693.7</ele>
<time>2013-05-08T10:34:28.999Z</time>
</trkpt>
<trkpt lat="44.133446" lon="3.031853">
<ele>694.8</ele>
<time>2013-05-08T10:34:29.999Z</time>
</trkpt>
<trkpt lat="44.133523" lon="3.031736">
<ele>696</ele>
<time>2013-05-08T10:34:30.999Z</time>
</trkpt>
<trkpt lat="44.133604" lon="3.031608">
<ele>697</ele>
<time>2013-05-08T10:34:31.999Z</time>
</trkpt>
<trkpt lat="44.133692" lon="3.03148">
<ele>697.7</ele>
<time>2013-05-08T10:34:32.999Z</time>
</trkpt>
<trkpt lat="44.133806" lon="3.031353">
<ele>698.4</ele>
<time>2013-05-08T10:34:33.999Z</time>
</trkpt>
<trkpt lat="44.133938" lon="3.031218">
<ele>698.6</ele>
<time>2013-05-08T10:34:34.999Z</time>
</trkpt>
<trkpt lat="44.134068" lon="3.031104">
<ele>698.8</ele>
<time>2013-05-08T10:34:35.999Z</time>
</trkpt>
<trkpt lat="44.134204" lon="3.031002">
<ele>699.1</ele>
<time>2013-05-08T10:34:36.999Z</time>
</trkpt>
<trkpt lat="44.134338" lon="3.030912">
<ele>699.5</ele>
<time>2013-05-08T10:34:37.999Z</time>
</trkpt>
<trkpt lat="44.134466" lon="3.030833">
<ele>699.9</ele>
<time>2013-05-08T10:34:38.999Z</time>
</trkpt>
<trkpt lat="44.134591" lon="3.030758">
<ele>700.4</ele>
<time>2013-05-08T10:34:39.999Z</time>
</trkpt>
<trkpt lat="44.134718" lon="3.030686">
<ele>701.2</ele>
<time>2013-05-08T10:34:40.999Z</time>
</trkpt>
<trkpt lat="44.134848" lon="3.030613">
<ele>702.3</ele>
<time>2013-05-08T10:34:41.999Z</time>
</trkpt>
<trkpt lat="44.134981" lon="3.030541">
<ele>703.1</ele>
<time>2013-05-08T10:34:42.999Z</time>
</trkpt>
<trkpt lat="44.135117" lon="3.030466">
<ele>703.8</ele>
<time>2013-05-08T10:34:43.999Z</time>
</trkpt>
<trkpt lat="44.135256" lon="3.030391">
<ele>704.8</ele>
<time>2013-05-08T10:34:44.999Z</time>
</trkpt>
<trkpt lat="44.135402" lon="3.030311">
<ele>705.9</ele>
<time>2013-05-08T10:34:45.999Z</time>
</trkpt>
<trkpt lat="44.135557" lon="3.030221">
<ele>706.9</ele>
<time>2013-05-08T10:34:46.999Z</time>
</trkpt>
<trkpt lat="44.135703" lon="3.030137">
<ele>708.1</ele>
<time>2013-05-08T10:34:47.999Z</time>
</trkpt>
<trkpt lat="44.135837" lon="3.030054">
<ele>708.7</ele>
<time>2013-05-08T10:34:48.999Z</time>
</trkpt>
<trkpt lat="44.135962" lon="3.029967">
<ele>709.1</ele>
<time>2013-05-08T10:34:49.999Z</time>
</trkpt>
<trkpt lat="44.136065" lon="3.02988">
<ele>709.4</ele>
<time>2013-05-08T10:34:50.999Z</time>
</trkpt>
<trkpt lat="44.136166" lon="3.029785">
<ele>709.8</ele>
<time>2013-05-08T10:34:51.999Z</time>
</trkpt>
<trkpt lat="44.136281" lon="3.029665">
<ele>709.9</ele>
<time>2013-05-08T10:34:52.999Z</time>
</trkpt>
<trkpt lat="44.136401" lon="3.029527">
<ele>710</ele>
<time>2013-05-08T10:34:53.999Z</time>
</trkpt>
<trkpt lat="44.136517" lon="3.029385">
<ele>710.1</ele>
<time>2013-05-08T10:34:54.999Z</time>
</trkpt>
<trkpt lat="44.136628" lon="3.029239">
<ele>710.4</ele>
<time>2013-05-08T10:34:55.999Z</time>
</trkpt>
<trkpt lat="44.136735" lon="3.029088">
<ele>710.5</ele>
<time>2013-05-08T10:34:56.999Z</time>
</trkpt>
<trkpt lat="44.136838" lon="3.028931">
<ele>710.6</ele>
<time>2013-05-08T10:34:57.999Z</time>
</trkpt>
<trkpt lat="44.136933" lon="3.028772">
<ele>710.8</ele>
<time>2013-05-08T10:34:58.999Z</time>
</trkpt>
<trkpt lat="44.137033" lon="3.028599">
<ele>711.1</ele>
<time>2013-05-08T10:34:59.999Z</time>
</trkpt>
<trkpt lat="44.137136" lon="3.028403">
<ele>711.3</ele>
<time>2013-05-08T10:35:00.999Z</time>
</trkpt>
<trkpt lat="44.137245" lon="3.028199">
<ele>711.5</ele>
<time>2013-05-08T10:35:01.999Z</time>
</trkpt>
<trkpt lat="44.137365" lon="3.027982">
<ele>711.7</ele>
<time>2013-05-08T10:35:02.999Z</time>
</trkpt>
<trkpt lat="44.13749" lon="3.027752">
<ele>711.7</ele>
<time>2013-05-08T10:35:03.999Z</time>
</trkpt>
<trkpt lat="44.137614" lon="3.027506">
<ele>711.6</ele>
<time>2013-05-08T10:35:04.999Z</time>
</trkpt>
<trkpt lat="44.137745" lon="3.027245">
<ele>711.4</ele>
<time>2013-05-08T10:35:05.999Z</time>
</trkpt>
<trkpt lat="44.13788" lon="3.026982">
<ele>711.2</ele>
<time>2013-05-08T10:35:06.999Z</time>
</trkpt>
<trkpt lat="44.138025" lon="3.026718">
<ele>711</ele>
<time>2013-05-08T10:35:07.999Z</time>
</trkpt>
<trkpt lat="44.138175" lon="3.026451">
<ele>710.7</ele>
<time>2013-05-08T10:35:08.999Z</time>
</trkpt>
<trkpt lat="44.138323" lon="3.026193">
<ele>710.3</ele>
<time>2013-05-08T10:35:09.999Z</time>
</trkpt>
<trkpt lat="44.138468" lon="3.025934">
<ele>709.8</ele>
<time>2013-05-08T10:35:10.999Z</time>
</trkpt>
<trkpt lat="44.138613" lon="3.025673">
<ele>709.3</ele>
<time>2013-05-08T10:35:11.999Z</time>
</trkpt>
<trkpt lat="44.138756" lon="3.025415">
<ele>708.8</ele>
<time>2013-05-08T10:35:12.999Z</time>
</trkpt>
<trkpt lat="44.138902" lon="3.025153">
<ele>708.1</ele>
<time>2013-05-08T10:35:13.999Z</time>
</trkpt>
<trkpt lat="44.139048" lon="3.024894">
<ele>707.6</ele>
<time>2013-05-08T10:35:14.999Z</time>
</trkpt>
<trkpt lat="44.139197" lon="3.024634">
<ele>706.9</ele>
<time>2013-05-08T10:35:15.999Z</time>
</trkpt>
<trkpt lat="44.139344" lon="3.024365">
<ele>706.6</ele>
<time>2013-05-08T10:35:16.999Z</time>
</trkpt>
<trkpt lat="44.139495" lon="3.024088">
<ele>706.4</ele>
<time>2013-05-08T10:35:17.999Z</time>
</trkpt>
<trkpt lat="44.13965" lon="3.023806">
<ele>706.3</ele>
<time>2013-05-08T10:35:18.999Z</time>
</trkpt>
<trkpt lat="44.139809" lon="3.023519">
<ele>706.2</ele>
<time>2013-05-08T10:35:19.999Z</time>
</trkpt>
<trkpt lat="44.139974" lon="3.023217">
<ele>706.2</ele>
<time>2013-05-08T10:35:20.999Z</time>
</trkpt>
<trkpt lat="44.14014" lon="3.022905">
<ele>706.3</ele>
<time>2013-05-08T10:35:21.999Z</time>
</trkpt>
<trkpt lat="44.140304" lon="3.022602">
<ele>706.3</ele>
<time>2013-05-08T10:35:22.999Z</time>
</trkpt>
<trkpt lat="44.140469" lon="3.022297">
<ele>706.3</ele>
<time>2013-05-08T10:35:23.999Z</time>
</trkpt>
<trkpt lat="44.140626" lon="3.022004">
<ele>706.4</ele>
<time>2013-05-08T10:35:24.999Z</time>
</trkpt>
<trkpt lat="44.140782" lon="3.021715">
<ele>706.5</ele>
<time>2013-05-08T10:35:25.999Z</time>
</trkpt>
<trkpt lat="44.140935" lon="3.021434">
<ele>706.6</ele>
<time>2013-05-08T10:35:26.999Z</time>
</trkpt>
<trkpt lat="44.141088" lon="3.021159">
<ele>706.8</ele>
<time>2013-05-08T10:35:27.999Z</time>
</trkpt>
<trkpt lat="44.14124" lon="3.020888">
<ele>707</ele>
<time>2013-05-08T10:35:28.999Z</time>
</trkpt>
<trkpt lat="44.141393" lon="3.020615">
<ele>707.3</ele>
<time>2013-05-08T10:35:29.999Z</time>
</trkpt>
<trkpt lat="44.141546" lon="3.020341">
<ele>707.8</ele>
<time>2013-05-08T10:35:30.999Z</time>
</trkpt>
<trkpt lat="44.141701" lon="3.020068">
<ele>708.2</ele>
<time>2013-05-08T10:35:31.999Z</time>
</trkpt>
<trkpt lat="44.141856" lon="3.019798">
<ele>708.9</ele>
<time>2013-05-08T10:35:32.999Z</time>
</trkpt>
<trkpt lat="44.14201" lon="3.01953">
<ele>709.5</ele>
<time>2013-05-08T10:35:33.999Z</time>
</trkpt>
<trkpt lat="44.142162" lon="3.019265">
<ele>710.3</ele>
<time>2013-05-08T10:35:34.999Z</time>
</trkpt>
<trkpt lat="44.14231" lon="3.019004">
<ele>711.3</ele>
<time>2013-05-08T10:35:35.999Z</time>
</trkpt>
<trkpt lat="44.142455" lon="3.018747">
<ele>712.2</ele>
<time>2013-05-08T10:35:36.999Z</time>
</trkpt>
<trkpt lat="44.142598" lon="3.018494">
<ele>713.3</ele>
<time>2013-05-08T10:35:37.999Z</time>
</trkpt>
<trkpt lat="44.142737" lon="3.018239">
<ele>714.6</ele>
<time>2013-05-08T10:35:38.999Z</time>
</trkpt>
<trkpt lat="44.142876" lon="3.017984">
<ele>716</ele>
<time>2013-05-08T10:35:39.999Z</time>
</trkpt>
<trkpt lat="44.143016" lon="3.017725">
<ele>717.6</ele>
<time>2013-05-08T10:35:40.999Z</time>
</trkpt>
<trkpt lat="44.143161" lon="3.017457">
<ele>719</ele>
<time>2013-05-08T10:35:41.999Z</time>
</trkpt>
<trkpt lat="44.14331" lon="3.017183">
<ele>720.4</ele>
<time>2013-05-08T10:35:42.999Z</time>
</trkpt>
<trkpt lat="44.143461" lon="3.016907">
<ele>721.8</ele>
<time>2013-05-08T10:35:43.999Z</time>
</trkpt>
<trkpt lat="44.143611" lon="3.016627">
<ele>723.1</ele>
<time>2013-05-08T10:35:44.999Z</time>
</trkpt>
<trkpt lat="44.143764" lon="3.016344">
<ele>724.4</ele>
<time>2013-05-08T10:35:45.999Z</time>
</trkpt>
<trkpt lat="44.143917" lon="3.016063">
<ele>725.9</ele>
<time>2013-05-08T10:35:46.999Z</time>
</trkpt>
<trkpt lat="44.14407" lon="3.015783">
<ele>727.2</ele>
<time>2013-05-08T10:35:47.999Z</time>
</trkpt>
<trkpt lat="44.144227" lon="3.015508">
<ele>728.6</ele>
<time>2013-05-08T10:35:48.999Z</time>
</trkpt>
<trkpt lat="44.14438" lon="3.015237">
<ele>729.9</ele>
<time>2013-05-08T10:35:49.999Z</time>
</trkpt>
<trkpt lat="44.144534" lon="3.014962">
<ele>731.3</ele>
<time>2013-05-08T10:35:50.999Z</time>
</trkpt>
<trkpt lat="44.144691" lon="3.014683">
<ele>732.5</ele>
<time>2013-05-08T10:35:51.999Z</time>
</trkpt>
<trkpt lat="44.144851" lon="3.014397">
<ele>733.8</ele>
<time>2013-05-08T10:35:52.999Z</time>
</trkpt>
<trkpt lat="44.145016" lon="3.014105">
<ele>734.9</ele>
<time>2013-05-08T10:35:53.999Z</time>
</trkpt>
<trkpt lat="44.145181" lon="3.013813">
<ele>736</ele>
<time>2013-05-08T10:35:54.999Z</time>
</trkpt>
<trkpt lat="44.145344" lon="3.013521">
<ele>737.3</ele>
<time>2013-05-08T10:35:55.999Z</time>
</trkpt>
<trkpt lat="44.145504" lon="3.013234">
<ele>738.6</ele>
<time>2013-05-08T10:35:56.999Z</time>
</trkpt>
<trkpt lat="44.145661" lon="3.01295">
<ele>740.1</ele>
<time>2013-05-08T10:35:57.999Z</time>
</trkpt>
<trkpt lat="44.145816" lon="3.012672">
<ele>741.4</ele>
<time>2013-05-08T10:35:58.999Z</time>
</trkpt>
<trkpt lat="44.145971" lon="3.012391">
<ele>742.8</ele>
<time>2013-05-08T10:35:59.999Z</time>
</trkpt>
<trkpt lat="44.146125" lon="3.012117">
<ele>744.3</ele>
<time>2013-05-08T10:36:00.999Z</time>
</trkpt>
<trkpt lat="44.14629" lon="3.011854">
<ele>745.7</ele>
<time>2013-05-08T10:36:01.999Z</time>
</trkpt>
<trkpt lat="44.146465" lon="3.011597">
<ele>747.1</ele>
<time>2013-05-08T10:36:02.999Z</time>
</trkpt>
<trkpt lat="44.146645" lon="3.011357">
<ele>748.5</ele>
<time>2013-05-08T10:36:03.999Z</time>
</trkpt>
<trkpt lat="44.146838" lon="3.011139">
<ele>749.8</ele>
<time>2013-05-08T10:36:04.999Z</time>
</trkpt>
<trkpt lat="44.147038" lon="3.010943">
<ele>751.1</ele>
<time>2013-05-08T10:36:05.999Z</time>
</trkpt>
<trkpt lat="44.147248" lon="3.010771">
<ele>752.3</ele>
<time>2013-05-08T10:36:06.999Z</time>
</trkpt>
<trkpt lat="44.147472" lon="3.010612">
<ele>753.5</ele>
<time>2013-05-08T10:36:07.999Z</time>
</trkpt>
<trkpt lat="44.147703" lon="3.010465">
<ele>754.5</ele>
<time>2013-05-08T10:36:08.999Z</time>
</trkpt>
<trkpt lat="44.147943" lon="3.010328">
<ele>755.4</ele>
<time>2013-05-08T10:36:09.999Z</time>
</trkpt>
<trkpt lat="44.148187" lon="3.010187">
<ele>756.1</ele>
<time>2013-05-08T10:36:10.999Z</time>
</trkpt>
<trkpt lat="44.148431" lon="3.010044">
<ele>756.7</ele>
<time>2013-05-08T10:36:11.999Z</time>
</trkpt>
<trkpt lat="44.148678" lon="3.009901">
<ele>757.4</ele>
<time>2013-05-08T10:36:12.999Z</time>
</trkpt>
<trkpt lat="44.148923" lon="3.009748">
<ele>758.1</ele>
<time>2013-05-08T10:36:13.999Z</time>
</trkpt>
<trkpt lat="44.149167" lon="3.009597">
<ele>758.9</ele>
<time>2013-05-08T10:36:14.999Z</time>
</trkpt>
<trkpt lat="44.14941" lon="3.009444">
<ele>759.8</ele>
<time>2013-05-08T10:36:15.999Z</time>
</trkpt>
<trkpt lat="44.14965" lon="3.009294">
<ele>760.8</ele>
<time>2013-05-08T10:36:16.999Z</time>
</trkpt>
<trkpt lat="44.149891" lon="3.009145">
<ele>761.6</ele>
<time>2013-05-08T10:36:17.999Z</time>
</trkpt>
<trkpt lat="44.150135" lon="3.008999">
<ele>762.4</ele>
<time>2013-05-08T10:36:18.999Z</time>
</trkpt>
<trkpt lat="44.15038" lon="3.008849">
<ele>763.1</ele>
<time>2013-05-08T10:36:19.999Z</time>
</trkpt>
<trkpt lat="44.150624" lon="3.008702">
<ele>763.7</ele>
<time>2013-05-08T10:36:20.999Z</time>
</trkpt>
<trkpt lat="44.150866" lon="3.008561">
<ele>764.3</ele>
<time>2013-05-08T10:36:21.999Z</time>
</trkpt>
<trkpt lat="44.151104" lon="3.008416">
<ele>765.2</ele>
<time>2013-05-08T10:36:22.999Z</time>
</trkpt>
<trkpt lat="44.151333" lon="3.008275">
<ele>766.1</ele>
<time>2013-05-08T10:36:23.999Z</time>
</trkpt>
<trkpt lat="44.151555" lon="3.008137">
<ele>767.2</ele>
<time>2013-05-08T10:36:24.999Z</time>
</trkpt>
<trkpt lat="44.151764" lon="3.007995">
<ele>768.2</ele>
<time>2013-05-08T10:36:25.999Z</time>
</trkpt>
<trkpt lat="44.151966" lon="3.007867">
<ele>769.1</ele>
<time>2013-05-08T10:36:26.999Z</time>
</trkpt>
<trkpt lat="44.152166" lon="3.00774">
<ele>769.8</ele>
<time>2013-05-08T10:36:27.999Z</time>
</trkpt>
<trkpt lat="44.152348" lon="3.007629">
<ele>770.3</ele>
<time>2013-05-08T10:36:28.999Z</time>
</trkpt>
<trkpt lat="44.152497" lon="3.007557">
<ele>771.4</ele>
<time>2013-05-08T10:36:29.999Z</time>
</trkpt>
<trkpt lat="44.152639" lon="3.007494">
<ele>771.9</ele>
<time>2013-05-08T10:36:30.999Z</time>
</trkpt>
<trkpt lat="44.15276" lon="3.007448">
<ele>772.4</ele>
<time>2013-05-08T10:36:31.999Z</time>
</trkpt>
<trkpt lat="44.152872" lon="3.007408">
<ele>773.1</ele>
<time>2013-05-08T10:36:32.999Z</time>
</trkpt>
<trkpt lat="44.152969" lon="3.007374">
<ele>773.6</ele>
<time>2013-05-08T10:36:33.999Z</time>
</trkpt>
<trkpt lat="44.153054" lon="3.00734">
<ele>774.4</ele>
<time>2013-05-08T10:36:34.999Z</time>
</trkpt>
<trkpt lat="44.153109" lon="3.007261">
<ele>775.3</ele>
<time>2013-05-08T10:36:35.999Z</time>
</trkpt>
<trkpt lat="44.153141" lon="3.007131">
<ele>776.2</ele>
<time>2013-05-08T10:36:36.999Z</time>
</trkpt>
<trkpt lat="44.153167" lon="3.006975">
<ele>776.8</ele>
<time>2013-05-08T10:36:37.999Z</time>
</trkpt>
<trkpt lat="44.153192" lon="3.006785">
<ele>777.3</ele>
<time>2013-05-08T10:36:38.999Z</time>
</trkpt>
<trkpt lat="44.153218" lon="3.00657">
<ele>777.9</ele>
<time>2013-05-08T10:36:39.999Z</time>
</trkpt>
<trkpt lat="44.153245" lon="3.006341">
<ele>778.6</ele>
<time>2013-05-08T10:36:40.999Z</time>
</trkpt>
<trkpt lat="44.15327" lon="3.006102">
<ele>779.2</ele>
<time>2013-05-08T10:36:41.999Z</time>
</trkpt>
<trkpt lat="44.153296" lon="3.005865">
<ele>779.7</ele>
<time>2013-05-08T10:36:42.999Z</time>
</trkpt>
<trkpt lat="44.153318" lon="3.005633">
<ele>780.2</ele>
<time>2013-05-08T10:36:43.999Z</time>
</trkpt>
<trkpt lat="44.153331" lon="3.005413">
<ele>780.8</ele>
<time>2013-05-08T10:36:44.999Z</time>
</trkpt>
<trkpt lat="44.153331" lon="3.0052">
<ele>781.4</ele>
<time>2013-05-08T10:36:45.999Z</time>
</trkpt>
<trkpt lat="44.153283" lon="3.004982">
<ele>781.9</ele>
<time>2013-05-08T10:36:46.999Z</time>
</trkpt>
<trkpt lat="44.153226" lon="3.004766">
<ele>782.5</ele>
<time>2013-05-08T10:36:47.999Z</time>
</trkpt>
<trkpt lat="44.153155" lon="3.00455">
<ele>783.4</ele>
<time>2013-05-08T10:36:48.999Z</time>
</trkpt>
<trkpt lat="44.153074" lon="3.004328">
<ele>784.2</ele>
<time>2013-05-08T10:36:49.999Z</time>
</trkpt>
<trkpt lat="44.152981" lon="3.004088">
<ele>784.6</ele>
<time>2013-05-08T10:36:50.999Z</time>
</trkpt>
<trkpt lat="44.152866" lon="3.003845">
<ele>784.8</ele>
<time>2013-05-08T10:36:51.999Z</time>
</trkpt>
<trkpt lat="44.152745" lon="3.003594">
<ele>784.9</ele>
<time>2013-05-08T10:36:52.999Z</time>
</trkpt>
<trkpt lat="44.152628" lon="3.003332">
<ele>785.2</ele>
<time>2013-05-08T10:36:53.999Z</time>
</trkpt>
<trkpt lat="44.152515" lon="3.003068">
<ele>785.5</ele>
<time>2013-05-08T10:36:54.999Z</time>
</trkpt>
<trkpt lat="44.152406" lon="3.002805">
<ele>785.8</ele>
<time>2013-05-08T10:36:55.999Z</time>
</trkpt>
<trkpt lat="44.152302" lon="3.002547">
<ele>786.2</ele>
<time>2013-05-08T10:36:56.999Z</time>
</trkpt>
<trkpt lat="44.152215" lon="3.002287">
<ele>786.5</ele>
<time>2013-05-08T10:36:57.999Z</time>
</trkpt>
<trkpt lat="44.152157" lon="3.002017">
<ele>786.8</ele>
<time>2013-05-08T10:36:58.999Z</time>
</trkpt>
<trkpt lat="44.152124" lon="3.001747">
<ele>787.3</ele>
<time>2013-05-08T10:36:59.999Z</time>
</trkpt>
<trkpt lat="44.152134" lon="3.001466">
<ele>788</ele>
<time>2013-05-08T10:37:00.999Z</time>
</trkpt>
<trkpt lat="44.152185" lon="3.001186">
<ele>788.3</ele>
<time>2013-05-08T10:37:01.999Z</time>
</trkpt>
<trkpt lat="44.152273" lon="3.000938">
<ele>788.9</ele>
<time>2013-05-08T10:37:02.999Z</time>
</trkpt>
<trkpt lat="44.152353" lon="3.000682">
<ele>789.3</ele>
<time>2013-05-08T10:37:03.999Z</time>
</trkpt>
<trkpt lat="44.152415" lon="3.000416">
<ele>790</ele>
<time>2013-05-08T10:37:04.999Z</time>
</trkpt>
<trkpt lat="44.152444" lon="3.00015">
<ele>790.7</ele>
<time>2013-05-08T10:37:05.999Z</time>
</trkpt>
<trkpt lat="44.152462" lon="2.999885">
<ele>791.7</ele>
<time>2013-05-08T10:37:06.999Z</time>
</trkpt>
<trkpt lat="44.152468" lon="2.999599">
<ele>792.5</ele>
<time>2013-05-08T10:37:07.999Z</time>
</trkpt>
<trkpt lat="44.15247" lon="2.999302">
<ele>793.5</ele>
<time>2013-05-08T10:37:08.999Z</time>
</trkpt>
<trkpt lat="44.152469" lon="2.998995">
<ele>794.4</ele>
<time>2013-05-08T10:37:09.999Z</time>
</trkpt>
<trkpt lat="44.152454" lon="2.998669">
<ele>794.6</ele>
<time>2013-05-08T10:37:10.999Z</time>
</trkpt>
<trkpt lat="44.152423" lon="2.998362">
<ele>795.1</ele>
<time>2013-05-08T10:37:11.999Z</time>
</trkpt>
<trkpt lat="44.152393" lon="2.998059">
<ele>795.3</ele>
<time>2013-05-08T10:37:12.999Z</time>
</trkpt>
<trkpt lat="44.152363" lon="2.99776">
<ele>795.4</ele>
<time>2013-05-08T10:37:13.999Z</time>
</trkpt>
<trkpt lat="44.152337" lon="2.997468">
<ele>795.6</ele>
<time>2013-05-08T10:37:14.999Z</time>
</trkpt>
<trkpt lat="44.152323" lon="2.997174">
<ele>795.4</ele>
<time>2013-05-08T10:37:15.999Z</time>
</trkpt>
<trkpt lat="44.152317" lon="2.996876">
<ele>795.3</ele>
<time>2013-05-08T10:37:16.999Z</time>
</trkpt>
<trkpt lat="44.152314" lon="2.996579">
<ele>795.4</ele>
<time>2013-05-08T10:37:17.999Z</time>
</trkpt>
<trkpt lat="44.152312" lon="2.99627">
<ele>795.7</ele>
<time>2013-05-08T10:37:18.999Z</time>
</trkpt>
<trkpt lat="44.15231" lon="2.995949">
<ele>796.5</ele>
<time>2013-05-08T10:37:19.999Z</time>
</trkpt>
<trkpt lat="44.152306" lon="2.995611">
<ele>797.2</ele>
<time>2013-05-08T10:37:20.999Z</time>
</trkpt>
<trkpt lat="44.152301" lon="2.995271">
<ele>798</ele>
<time>2013-05-08T10:37:21.999Z</time>
</trkpt>
<trkpt lat="44.152296" lon="2.994934">
<ele>798.9</ele>
<time>2013-05-08T10:37:22.999Z</time>
</trkpt>
<trkpt lat="44.152292" lon="2.994602">
<ele>800</ele>
<time>2013-05-08T10:37:23.999Z</time>
</trkpt>
<trkpt lat="44.152287" lon="2.994271">
<ele>801.4</ele>
<time>2013-05-08T10:37:24.999Z</time>
</trkpt>
<trkpt lat="44.152282" lon="2.993944">
<ele>802.6</ele>
<time>2013-05-08T10:37:25.999Z</time>
</trkpt>
<trkpt lat="44.152277" lon="2.993616">
<ele>803.8</ele>
<time>2013-05-08T10:37:26.999Z</time>
</trkpt>
<trkpt lat="44.152272" lon="2.993303">
<ele>805</ele>
<time>2013-05-08T10:37:27.999Z</time>
</trkpt>
<trkpt lat="44.152271" lon="2.992995">
<ele>806</ele>
<time>2013-05-08T10:37:28.999Z</time>
</trkpt>
<trkpt lat="44.152268" lon="2.992709">
<ele>806.9</ele>
<time>2013-05-08T10:37:29.999Z</time>
</trkpt>
<trkpt lat="44.152266" lon="2.99245">
<ele>807.5</ele>
<time>2013-05-08T10:37:30.999Z</time>
</trkpt>
<trkpt lat="44.152259" lon="2.992194">
<ele>808.2</ele>
<time>2013-05-08T10:37:31.999Z</time>
</trkpt>
<trkpt lat="44.152244" lon="2.991944">
<ele>808.6</ele>
<time>2013-05-08T10:37:32.999Z</time>
</trkpt>
<trkpt lat="44.152233" lon="2.991704">
<ele>809</ele>
<time>2013-05-08T10:37:33.999Z</time>
</trkpt>
<trkpt lat="44.152212" lon="2.991461">
<ele>809</ele>
<time>2013-05-08T10:37:34.999Z</time>
</trkpt>
<trkpt lat="44.152187" lon="2.991223">
<ele>808.7</ele>
<time>2013-05-08T10:37:35.999Z</time>
</trkpt>
<trkpt lat="44.152153" lon="2.990995">
<ele>808.4</ele>
<time>2013-05-08T10:37:36.999Z</time>
</trkpt>
<trkpt lat="44.152117" lon="2.990785">
<ele>807.9</ele>
<time>2013-05-08T10:37:37.999Z</time>
</trkpt>
<trkpt lat="44.152081" lon="2.990585">
<ele>807.9</ele>
<time>2013-05-08T10:37:38.999Z</time>
</trkpt>
<trkpt lat="44.152049" lon="2.990397">
<ele>808.4</ele>
<time>2013-05-08T10:37:39.999Z</time>
</trkpt>
<trkpt lat="44.152008" lon="2.990214">
<ele>809.1</ele>
<time>2013-05-08T10:37:40.999Z</time>
</trkpt>
<trkpt lat="44.151935" lon="2.990057">
<ele>809.8</ele>
<time>2013-05-08T10:37:41.999Z</time>
</trkpt>
<trkpt lat="44.151858" lon="2.989915">
<ele>810.7</ele>
<time>2013-05-08T10:37:42.999Z</time>
</trkpt>
<trkpt lat="44.151782" lon="2.98978">
<ele>810.5</ele>
<time>2013-05-08T10:37:43.999Z</time>
</trkpt>
<trkpt lat="44.151718" lon="2.989674">
<ele>810.3</ele>
<time>2013-05-08T10:37:44.999Z</time>
</trkpt>
<trkpt lat="44.151666" lon="2.989571">
<ele>810.5</ele>
<time>2013-05-08T10:37:45.999Z</time>
</trkpt>
<trkpt lat="44.151646" lon="2.989464">
<ele>810.8</ele>
<time>2013-05-08T10:37:46.999Z</time>
</trkpt>
<trkpt lat="44.15163" lon="2.989363">
<ele>811.2</ele>
<time>2013-05-08T10:37:47.999Z</time>
</trkpt>
<trkpt lat="44.151633" lon="2.989266">
<ele>812.2</ele>
<time>2013-05-08T10:37:48.999Z</time>
</trkpt>
<trkpt lat="44.151635" lon="2.989159">
<ele>812.9</ele>
<time>2013-05-08T10:37:49.999Z</time>
</trkpt>
<trkpt lat="44.151637" lon="2.98904">
<ele>813.5</ele>
<time>2013-05-08T10:37:50.999Z</time>
</trkpt>
<trkpt lat="44.151638" lon="2.988923">
<ele>813.6</ele>
<time>2013-05-08T10:37:51.999Z</time>
</trkpt>
<trkpt lat="44.151638" lon="2.988802">
<ele>812.7</ele>
<time>2013-05-08T10:37:52.999Z</time>
</trkpt>
<trkpt lat="44.151635" lon="2.988665">
<ele>812.9</ele>
<time>2013-05-08T10:37:53.999Z</time>
</trkpt>
<trkpt lat="44.151636" lon="2.988512">
<ele>813.6</ele>
<time>2013-05-08T10:37:54.999Z</time>
</trkpt>
<trkpt lat="44.151638" lon="2.98836">
<ele>814.2</ele>
<time>2013-05-08T10:37:55.999Z</time>
</trkpt>
<trkpt lat="44.151647" lon="2.988202">
<ele>814.9</ele>
<time>2013-05-08T10:37:56.999Z</time>
</trkpt>
<trkpt lat="44.151663" lon="2.988033">
<ele>815.8</ele>
<time>2013-05-08T10:37:57.999Z</time>
</trkpt>
<trkpt lat="44.151688" lon="2.987853">
<ele>816.5</ele>
<time>2013-05-08T10:37:58.999Z</time>
</trkpt>
<trkpt lat="44.151724" lon="2.987669">
<ele>816.9</ele>
<time>2013-05-08T10:37:59.999Z</time>
</trkpt>
<trkpt lat="44.151771" lon="2.987472">
<ele>817.1</ele>
<time>2013-05-08T10:38:00.999Z</time>
</trkpt>
<trkpt lat="44.151833" lon="2.987261">
<ele>817.3</ele>
<time>2013-05-08T10:38:01.999Z</time>
</trkpt>
<trkpt lat="44.151904" lon="2.987048">
<ele>817.3</ele>
<time>2013-05-08T10:38:02.999Z</time>
</trkpt>
<trkpt lat="44.151987" lon="2.986836">
<ele>817.5</ele>
<time>2013-05-08T10:38:03.999Z</time>
</trkpt>
<trkpt lat="44.152081" lon="2.986626">
<ele>817.4</ele>
<time>2013-05-08T10:38:04.999Z</time>
</trkpt>
<trkpt lat="44.152171" lon="2.986423">
<ele>817.3</ele>
<time>2013-05-08T10:38:05.999Z</time>
</trkpt>
<trkpt lat="44.152261" lon="2.986231">
<ele>817.1</ele>
<time>2013-05-08T10:38:06.999Z</time>
</trkpt>
<trkpt lat="44.152354" lon="2.986038">
<ele>816.9</ele>
<time>2013-05-08T10:38:07.999Z</time>
</trkpt>
<trkpt lat="44.152456" lon="2.985836">
<ele>816.8</ele>
<time>2013-05-08T10:38:08.999Z</time>
</trkpt>
<trkpt lat="44.152572" lon="2.985634">
<ele>816.6</ele>
<time>2013-05-08T10:38:09.999Z</time>
</trkpt>
<trkpt lat="44.152705" lon="2.98543">
<ele>816.9</ele>
<time>2013-05-08T10:38:10.999Z</time>
</trkpt>
<trkpt lat="44.152875" lon="2.985259">
<ele>817.2</ele>
<time>2013-05-08T10:38:11.999Z</time>
</trkpt>
<trkpt lat="44.153048" lon="2.985093">
<ele>817.4</ele>
<time>2013-05-08T10:38:12.999Z</time>
</trkpt>
<trkpt lat="44.153228" lon="2.984921">
<ele>817.6</ele>
<time>2013-05-08T10:38:13.999Z</time>
</trkpt>
<trkpt lat="44.153403" lon="2.984744">
<ele>817.6</ele>
<time>2013-05-08T10:38:14.999Z</time>
</trkpt>
<trkpt lat="44.153559" lon="2.98455">
<ele>817.5</ele>
<time>2013-05-08T10:38:15.999Z</time>
</trkpt>
<trkpt lat="44.153677" lon="2.984311">
<ele>817.4</ele>
<time>2013-05-08T10:38:16.999Z</time>
</trkpt>
<trkpt lat="44.153778" lon="2.984052">
<ele>817.3</ele>
<time>2013-05-08T10:38:17.999Z</time>
</trkpt>
<trkpt lat="44.153878" lon="2.98379">
<ele>817.2</ele>
<time>2013-05-08T10:38:18.999Z</time>
</trkpt>
<trkpt lat="44.153982" lon="2.983524">
<ele>817.1</ele>
<time>2013-05-08T10:38:19.999Z</time>
</trkpt>
<trkpt lat="44.154107" lon="2.983287">
<ele>816.9</ele>
<time>2013-05-08T10:38:20.999Z</time>
</trkpt>
<trkpt lat="44.154253" lon="2.983075">
<ele>816.7</ele>
<time>2013-05-08T10:38:21.999Z</time>
</trkpt>
<trkpt lat="44.154404" lon="2.982869">
<ele>816.1</ele>
<time>2013-05-08T10:38:22.999Z</time>
</trkpt>
<trkpt lat="44.154571" lon="2.98271">
<ele>815.6</ele>
<time>2013-05-08T10:38:23.999Z</time>
</trkpt>
<trkpt lat="44.15475" lon="2.982575">
<ele>815.3</ele>
<time>2013-05-08T10:38:24.999Z</time>
</trkpt>
<trkpt lat="44.154938" lon="2.982462">
<ele>814.9</ele>
<time>2013-05-08T10:38:25.999Z</time>
</trkpt>
<trkpt lat="44.155143" lon="2.982374">
<ele>814.6</ele>
<time>2013-05-08T10:38:26.999Z</time>
</trkpt>
<trkpt lat="44.155361" lon="2.982315">
<ele>814.5</ele>
<time>2013-05-08T10:38:27.999Z</time>
</trkpt>
<trkpt lat="44.155586" lon="2.98227">
<ele>814.7</ele>
<time>2013-05-08T10:38:28.999Z</time>
</trkpt>
<trkpt lat="44.155819" lon="2.982252">
<ele>815</ele>
<time>2013-05-08T10:38:29.999Z</time>
</trkpt>
<trkpt lat="44.156048" lon="2.982224">
<ele>815</ele>
<time>2013-05-08T10:38:30.999Z</time>
</trkpt>
<trkpt lat="44.156279" lon="2.982202">
<ele>814.9</ele>
<time>2013-05-08T10:38:31.999Z</time>
</trkpt>
<trkpt lat="44.15651" lon="2.982175">
<ele>814.4</ele>
<time>2013-05-08T10:38:32.999Z</time>
</trkpt>
<trkpt lat="44.156742" lon="2.982129">
<ele>814</ele>
<time>2013-05-08T10:38:33.999Z</time>
</trkpt>
<trkpt lat="44.156975" lon="2.982059">
<ele>813.7</ele>
<time>2013-05-08T10:38:34.999Z</time>
</trkpt>
<trkpt lat="44.157206" lon="2.981982">
<ele>813.4</ele>
<time>2013-05-08T10:38:35.999Z</time>
</trkpt>
<trkpt lat="44.157436" lon="2.981898">
<ele>812.9</ele>
<time>2013-05-08T10:38:36.999Z</time>
</trkpt>
<trkpt lat="44.157672" lon="2.98181">
<ele>812.2</ele>
<time>2013-05-08T10:38:37.999Z</time>
</trkpt>
<trkpt lat="44.157917" lon="2.981734">
<ele>811.7</ele>
<time>2013-05-08T10:38:38.999Z</time>
</trkpt>
<trkpt lat="44.158165" lon="2.981657">
<ele>811.4</ele>
<time>2013-05-08T10:38:39.999Z</time>
</trkpt>
<trkpt lat="44.158415" lon="2.981584">
<ele>811.1</ele>
<time>2013-05-08T10:38:40.999Z</time>
</trkpt>
<trkpt lat="44.158659" lon="2.98153">
<ele>810.7</ele>
<time>2013-05-08T10:38:41.999Z</time>
</trkpt>
<trkpt lat="44.158899" lon="2.981486">
<ele>810.7</ele>
<time>2013-05-08T10:38:42.999Z</time>
</trkpt>
<trkpt lat="44.159132" lon="2.981448">
<ele>810.9</ele>
<time>2013-05-08T10:38:43.999Z</time>
</trkpt>
<trkpt lat="44.159357" lon="2.981421">
<ele>811.1</ele>
<time>2013-05-08T10:38:44.999Z</time>
</trkpt>
<trkpt lat="44.159561" lon="2.981391">
<ele>811.6</ele>
<time>2013-05-08T10:38:45.999Z</time>
</trkpt>
<trkpt lat="44.159753" lon="2.981344">
<ele>812.1</ele>
<time>2013-05-08T10:38:46.999Z</time>
</trkpt>
<trkpt lat="44.159926" lon="2.981261">
<ele>812.5</ele>
<time>2013-05-08T10:38:47.999Z</time>
</trkpt>
<trkpt lat="44.160083" lon="2.981147">
<ele>812.8</ele>
<time>2013-05-08T10:38:48.999Z</time>
</trkpt>
<trkpt lat="44.160193" lon="2.980977">
<ele>812.6</ele>
<time>2013-05-08T10:38:49.999Z</time>
</trkpt>
<trkpt lat="44.160269" lon="2.980772">
<ele>812.5</ele>
<time>2013-05-08T10:38:50.999Z</time>
</trkpt>
<trkpt lat="44.160299" lon="2.980528">
<ele>812.7</ele>
<time>2013-05-08T10:38:51.999Z</time>
</trkpt>
<trkpt lat="44.160289" lon="2.980264">
<ele>813</ele>
<time>2013-05-08T10:38:52.999Z</time>
</trkpt>
<trkpt lat="44.160267" lon="2.980008">
<ele>813.7</ele>
<time>2013-05-08T10:38:53.999Z</time>
</trkpt>
<trkpt lat="44.160242" lon="2.979774">
<ele>814.5</ele>
<time>2013-05-08T10:38:54.999Z</time>
</trkpt>
<trkpt lat="44.160217" lon="2.979526">
<ele>814.7</ele>
<time>2013-05-08T10:38:55.999Z</time>
</trkpt>
<trkpt lat="44.160214" lon="2.979269">
<ele>813.8</ele>
<time>2013-05-08T10:38:56.999Z</time>
</trkpt>
<trkpt lat="44.160229" lon="2.978999">
<ele>812.5</ele>
<time>2013-05-08T10:38:57.999Z</time>
</trkpt>
<trkpt lat="44.160255" lon="2.978719">
<ele>810.9</ele>
<time>2013-05-08T10:38:58.999Z</time>
</trkpt>
<trkpt lat="44.16029" lon="2.978415">
<ele>809.4</ele>
<time>2013-05-08T10:38:59.999Z</time>
</trkpt>
<trkpt lat="44.160333" lon="2.978089">
<ele>808.2</ele>
<time>2013-05-08T10:39:00.999Z</time>
</trkpt>
<trkpt lat="44.160376" lon="2.977767">
<ele>807.5</ele>
<time>2013-05-08T10:39:01.999Z</time>
</trkpt>
<trkpt lat="44.160418" lon="2.977454">
<ele>807</ele>
<time>2013-05-08T10:39:02.999Z</time>
</trkpt>
<trkpt lat="44.16046" lon="2.977152">
<ele>806.9</ele>
<time>2013-05-08T10:39:03.999Z</time>
</trkpt>
<trkpt lat="44.1605" lon="2.976862">
<ele>806.8</ele>
<time>2013-05-08T10:39:04.999Z</time>
</trkpt>
<trkpt lat="44.160539" lon="2.976581">
<ele>806.8</ele>
<time>2013-05-08T10:39:05.999Z</time>
</trkpt>
<trkpt lat="44.160577" lon="2.976305">
<ele>806.8</ele>
<time>2013-05-08T10:39:06.999Z</time>
</trkpt>
<trkpt lat="44.160615" lon="2.976029">
<ele>806.8</ele>
<time>2013-05-08T10:39:07.999Z</time>
</trkpt>
<trkpt lat="44.16065" lon="2.975752">
<ele>806.8</ele>
<time>2013-05-08T10:39:08.999Z</time>
</trkpt>
<trkpt lat="44.160684" lon="2.975478">
<ele>806.6</ele>
<time>2013-05-08T10:39:09.999Z</time>
</trkpt>
<trkpt lat="44.16071" lon="2.97521">
<ele>806.4</ele>
<time>2013-05-08T10:39:10.999Z</time>
</trkpt>
<trkpt lat="44.160727" lon="2.974944">
<ele>806.1</ele>
<time>2013-05-08T10:39:11.999Z</time>
</trkpt>
<trkpt lat="44.160736" lon="2.974673">
<ele>805.6</ele>
<time>2013-05-08T10:39:12.999Z</time>
</trkpt>
<trkpt lat="44.160744" lon="2.9744">
<ele>804.9</ele>
<time>2013-05-08T10:39:13.999Z</time>
</trkpt>
<trkpt lat="44.160745" lon="2.974123">
<ele>804.2</ele>
<time>2013-05-08T10:39:14.999Z</time>
</trkpt>
<trkpt lat="44.160741" lon="2.973853">
<ele>803.6</ele>
<time>2013-05-08T10:39:15.999Z</time>
</trkpt>
<trkpt lat="44.16073" lon="2.973578">
<ele>802.8</ele>
<time>2013-05-08T10:39:16.999Z</time>
</trkpt>
<trkpt lat="44.160718" lon="2.973308">
<ele>801.4</ele>
<time>2013-05-08T10:39:17.999Z</time>
</trkpt>
<trkpt lat="44.160713" lon="2.97305">
<ele>799.9</ele>
<time>2013-05-08T10:39:18.999Z</time>
</trkpt>
<trkpt lat="44.160726" lon="2.972796">
<ele>798.3</ele>
<time>2013-05-08T10:39:19.999Z</time>
</trkpt>
<trkpt lat="44.160759" lon="2.972533">
<ele>796.6</ele>
<time>2013-05-08T10:39:20.999Z</time>
</trkpt>
<trkpt lat="44.160811" lon="2.972272">
<ele>794.6</ele>
<time>2013-05-08T10:39:21.999Z</time>
</trkpt>
<trkpt lat="44.160885" lon="2.972027">
<ele>792.5</ele>
<time>2013-05-08T10:39:22.999Z</time>
</trkpt>
<trkpt lat="44.160974" lon="2.971784">
<ele>790.4</ele>
<time>2013-05-08T10:39:23.999Z</time>
</trkpt>
<trkpt lat="44.161074" lon="2.971568">
<ele>788.6</ele>
<time>2013-05-08T10:39:24.999Z</time>
</trkpt>
<trkpt lat="44.161183" lon="2.971395">
<ele>787.3</ele>
<time>2013-05-08T10:39:25.999Z</time>
</trkpt>
<trkpt lat="44.161301" lon="2.971284">
<ele>786</ele>
<time>2013-05-08T10:39:26.999Z</time>
</trkpt>
<trkpt lat="44.161435" lon="2.971249">
<ele>784.7</ele>
<time>2013-05-08T10:39:27.999Z</time>
</trkpt>
<trkpt lat="44.161563" lon="2.971252">
<ele>783.3</ele>
<time>2013-05-08T10:39:28.999Z</time>
</trkpt>
<trkpt lat="44.161695" lon="2.971337">
<ele>782.1</ele>
<time>2013-05-08T10:39:29.999Z</time>
</trkpt>
<trkpt lat="44.16181" lon="2.971492">
<ele>781</ele>
<time>2013-05-08T10:39:30.999Z</time>
</trkpt>
<trkpt lat="44.161917" lon="2.971663">
<ele>779.8</ele>
<time>2013-05-08T10:39:31.999Z</time>
</trkpt>
<trkpt lat="44.161987" lon="2.971875">
<ele>778.2</ele>
<time>2013-05-08T10:39:32.999Z</time>
</trkpt>
<trkpt lat="44.162054" lon="2.972103">
<ele>776.9</ele>
<time>2013-05-08T10:39:33.999Z</time>
</trkpt>
<trkpt lat="44.162121" lon="2.972343">
<ele>775.2</ele>
<time>2013-05-08T10:39:34.999Z</time>
</trkpt>
<trkpt lat="44.162182" lon="2.972584">
<ele>773.7</ele>
<time>2013-05-08T10:39:35.999Z</time>
</trkpt>
<trkpt lat="44.162243" lon="2.97281">
<ele>771.9</ele>
<time>2013-05-08T10:39:36.999Z</time>
</trkpt>
<trkpt lat="44.162301" lon="2.973032">
<ele>770.4</ele>
<time>2013-05-08T10:39:37.999Z</time>
</trkpt>
<trkpt lat="44.162354" lon="2.973232">
<ele>769.1</ele>
<time>2013-05-08T10:39:38.999Z</time>
</trkpt>
<trkpt lat="44.162407" lon="2.973425">
<ele>768.2</ele>
<time>2013-05-08T10:39:39.999Z</time>
</trkpt>
<trkpt lat="44.16246" lon="2.973604">
<ele>767.3</ele>
<time>2013-05-08T10:39:40.999Z</time>
</trkpt>
<trkpt lat="44.16251" lon="2.973757">
<ele>766.6</ele>
<time>2013-05-08T10:39:41.999Z</time>
</trkpt>
<trkpt lat="44.162567" lon="2.973911">
<ele>765.8</ele>
<time>2013-05-08T10:39:42.999Z</time>
</trkpt>
<trkpt lat="44.162654" lon="2.974009">
<ele>765.1</ele>
<time>2013-05-08T10:39:43.999Z</time>
</trkpt>
<trkpt lat="44.162744" lon="2.974045">
<ele>765</ele>
<time>2013-05-08T10:39:44.999Z</time>
</trkpt>
<trkpt lat="44.162857" lon="2.974024">
<ele>764.7</ele>
<time>2013-05-08T10:39:45.999Z</time>
</trkpt>
<trkpt lat="44.162957" lon="2.973954">
<ele>764.6</ele>
<time>2013-05-08T10:39:46.999Z</time>
</trkpt>
<trkpt lat="44.163022" lon="2.973816">
<ele>764.5</ele>
<time>2013-05-08T10:39:47.999Z</time>
</trkpt>
<trkpt lat="44.163037" lon="2.973635">
<ele>764</ele>
<time>2013-05-08T10:39:48.999Z</time>
</trkpt>
<trkpt lat="44.163011" lon="2.973426">
<ele>763.4</ele>
<time>2013-05-08T10:39:49.999Z</time>
</trkpt>
<trkpt lat="44.162974" lon="2.973193">
<ele>763.1</ele>
<time>2013-05-08T10:39:50.999Z</time>
</trkpt>
<trkpt lat="44.162939" lon="2.972965">
<ele>762.7</ele>
<time>2013-05-08T10:39:51.999Z</time>
</trkpt>
<trkpt lat="44.162909" lon="2.972722">
<ele>762.3</ele>
<time>2013-05-08T10:39:52.999Z</time>
</trkpt>
<trkpt lat="44.16289" lon="2.972466">
<ele>761.7</ele>
<time>2013-05-08T10:39:53.999Z</time>
</trkpt>
<trkpt lat="44.162886" lon="2.972207">
<ele>761</ele>
<time>2013-05-08T10:39:54.999Z</time>
</trkpt>
<trkpt lat="44.162925" lon="2.971926">
<ele>759.3</ele>
<time>2013-05-08T10:39:55.999Z</time>
</trkpt>
<trkpt lat="44.162984" lon="2.971663">
<ele>757.9</ele>
<time>2013-05-08T10:39:56.999Z</time>
</trkpt>
<trkpt lat="44.16306" lon="2.971405">
<ele>756.2</ele>
<time>2013-05-08T10:39:57.999Z</time>
</trkpt>
<trkpt lat="44.163152" lon="2.971145">
<ele>754.5</ele>
<time>2013-05-08T10:39:58.999Z</time>
</trkpt>
<trkpt lat="44.163245" lon="2.970889">
<ele>752.8</ele>
<time>2013-05-08T10:39:59.999Z</time>
</trkpt>
<trkpt lat="44.163342" lon="2.970635">
<ele>751.1</ele>
<time>2013-05-08T10:40:00.999Z</time>
</trkpt>
<trkpt lat="44.163444" lon="2.970385">
<ele>749.7</ele>
<time>2013-05-08T10:40:01.999Z</time>
</trkpt>
<trkpt lat="44.163552" lon="2.970137">
<ele>748.2</ele>
<time>2013-05-08T10:40:02.999Z</time>
</trkpt>
<trkpt lat="44.163663" lon="2.969894">
<ele>747.2</ele>
<time>2013-05-08T10:40:03.999Z</time>
</trkpt>
<trkpt lat="44.163771" lon="2.96966">
<ele>746.1</ele>
<time>2013-05-08T10:40:04.999Z</time>
</trkpt>
<trkpt lat="44.163875" lon="2.969431">
<ele>745</ele>
<time>2013-05-08T10:40:05.999Z</time>
</trkpt>
<trkpt lat="44.163976" lon="2.9692">
<ele>743.9</ele>
<time>2013-05-08T10:40:06.999Z</time>
</trkpt>
<trkpt lat="44.164077" lon="2.968976">
<ele>742.7</ele>
<time>2013-05-08T10:40:07.999Z</time>
</trkpt>
<trkpt lat="44.164178" lon="2.96875">
<ele>741.6</ele>
<time>2013-05-08T10:40:08.999Z</time>
</trkpt>
<trkpt lat="44.164271" lon="2.968512">
<ele>740.4</ele>
<time>2013-05-08T10:40:09.999Z</time>
</trkpt>
<trkpt lat="44.164341" lon="2.968262">
<ele>739.5</ele>
<time>2013-05-08T10:40:10.999Z</time>
</trkpt>
<trkpt lat="44.164394" lon="2.968013">
<ele>738.5</ele>
<time>2013-05-08T10:40:11.999Z</time>
</trkpt>
<trkpt lat="44.164433" lon="2.967769">
<ele>737.7</ele>
<time>2013-05-08T10:40:12.999Z</time>
</trkpt>
<trkpt lat="44.164464" lon="2.967518">
<ele>736.8</ele>
<time>2013-05-08T10:40:13.999Z</time>
</trkpt>
<trkpt lat="44.164492" lon="2.967269">
<ele>735.9</ele>
<time>2013-05-08T10:40:14.999Z</time>
</trkpt>
<trkpt lat="44.164524" lon="2.967031">
<ele>735.1</ele>
<time>2013-05-08T10:40:15.999Z</time>
</trkpt>
<trkpt lat="44.164537" lon="2.9668">
<ele>734</ele>
<time>2013-05-08T10:40:16.999Z</time>
</trkpt>
<trkpt lat="44.164507" lon="2.966569">
<ele>732.7</ele>
<time>2013-05-08T10:40:17.999Z</time>
</trkpt>
<trkpt lat="44.164473" lon="2.966354">
<ele>731.7</ele>
<time>2013-05-08T10:40:18.999Z</time>
</trkpt>
<trkpt lat="44.164437" lon="2.96614">
<ele>730.9</ele>
<time>2013-05-08T10:40:19.999Z</time>
</trkpt>
<trkpt lat="44.16444" lon="2.965928">
<ele>730.4</ele>
<time>2013-05-08T10:40:20.999Z</time>
</trkpt>
<trkpt lat="44.164456" lon="2.965704">
<ele>729.4</ele>
<time>2013-05-08T10:40:21.999Z</time>
</trkpt>
<trkpt lat="44.164513" lon="2.96549">
<ele>728.1</ele>
<time>2013-05-08T10:40:22.999Z</time>
</trkpt>
<trkpt lat="44.164587" lon="2.965263">
<ele>726.9</ele>
<time>2013-05-08T10:40:23.999Z</time>
</trkpt>
<trkpt lat="44.164677" lon="2.965024">
<ele>725.8</ele>
<time>2013-05-08T10:40:24.999Z</time>
</trkpt>
<trkpt lat="44.164781" lon="2.964782">
<ele>724.5</ele>
<time>2013-05-08T10:40:25.999Z</time>
</trkpt>
<trkpt lat="44.164909" lon="2.964561">
<ele>723.3</ele>
<time>2013-05-08T10:40:26.999Z</time>
</trkpt>
<trkpt lat="44.165031" lon="2.96435">
<ele>722</ele>
<time>2013-05-08T10:40:27.999Z</time>
</trkpt>
<trkpt lat="44.165151" lon="2.964143">
<ele>720.7</ele>
<time>2013-05-08T10:40:28.999Z</time>
</trkpt>
<trkpt lat="44.165267" lon="2.963937">
<ele>719.4</ele>
<time>2013-05-08T10:40:29.999Z</time>
</trkpt>
<trkpt lat="44.165377" lon="2.963741">
<ele>718.1</ele>
<time>2013-05-08T10:40:30.999Z</time>
</trkpt>
<trkpt lat="44.165481" lon="2.963562">
<ele>716.8</ele>
<time>2013-05-08T10:40:31.999Z</time>
</trkpt>
<trkpt lat="44.165587" lon="2.963395">
<ele>715.4</ele>
<time>2013-05-08T10:40:32.999Z</time>
</trkpt>
<trkpt lat="44.165725" lon="2.963259">
<ele>714</ele>
<time>2013-05-08T10:40:33.999Z</time>
</trkpt>
<trkpt lat="44.165873" lon="2.963135">
<ele>712.5</ele>
<time>2013-05-08T10:40:34.999Z</time>
</trkpt>
<trkpt lat="44.166041" lon="2.963059">
<ele>711</ele>
<time>2013-05-08T10:40:35.999Z</time>
</trkpt>
<trkpt lat="44.166211" lon="2.962988">
<ele>709.8</ele>
<time>2013-05-08T10:40:36.999Z</time>
</trkpt>
<trkpt lat="44.166396" lon="2.962978">
<ele>708.8</ele>
<time>2013-05-08T10:40:37.999Z</time>
</trkpt>
<trkpt lat="44.166574" lon="2.962976">
<ele>708</ele>
<time>2013-05-08T10:40:38.999Z</time>
</trkpt>
<trkpt lat="44.166748" lon="2.963032">
<ele>707.3</ele>
<time>2013-05-08T10:40:39.999Z</time>
</trkpt>
<trkpt lat="44.166921" lon="2.963094">
<ele>706.9</ele>
<time>2013-05-08T10:40:40.999Z</time>
</trkpt>
<trkpt lat="44.167098" lon="2.963172">
<ele>706.4</ele>
<time>2013-05-08T10:40:41.999Z</time>
</trkpt>
<trkpt lat="44.167271" lon="2.963265">
<ele>705.7</ele>
<time>2013-05-08T10:40:42.999Z</time>
</trkpt>
<trkpt lat="44.167436" lon="2.963412">
<ele>704.7</ele>
<time>2013-05-08T10:40:43.999Z</time>
</trkpt>
<trkpt lat="44.167576" lon="2.963597">
<ele>703.5</ele>
<time>2013-05-08T10:40:44.999Z</time>
</trkpt>
<trkpt lat="44.167698" lon="2.963783">
<ele>702</ele>
<time>2013-05-08T10:40:45.999Z</time>
</trkpt>
<trkpt lat="44.16781" lon="2.963979">
<ele>700.3</ele>
<time>2013-05-08T10:40:46.999Z</time>
</trkpt>
<trkpt lat="44.167913" lon="2.964169">
<ele>698.7</ele>
<time>2013-05-08T10:40:47.999Z</time>
</trkpt>
<trkpt lat="44.168017" lon="2.964342">
<ele>697.2</ele>
<time>2013-05-08T10:40:48.999Z</time>
</trkpt>
<trkpt lat="44.168141" lon="2.964467">
<ele>696.2</ele>
<time>2013-05-08T10:40:49.999Z</time>
</trkpt>
<trkpt lat="44.168263" lon="2.964571">
<ele>695.3</ele>
<time>2013-05-08T10:40:50.999Z</time>
</trkpt>
<trkpt lat="44.168403" lon="2.964614">
<ele>694.9</ele>
<time>2013-05-08T10:40:51.999Z</time>
</trkpt>
<trkpt lat="44.168558" lon="2.964627">
<ele>694.6</ele>
<time>2013-05-08T10:40:52.999Z</time>
</trkpt>
<trkpt lat="44.168727" lon="2.964578">
<ele>694.1</ele>
<time>2013-05-08T10:40:53.999Z</time>
</trkpt>
<trkpt lat="44.168898" lon="2.964525">
<ele>693.2</ele>
<time>2013-05-08T10:40:54.999Z</time>
</trkpt>
<trkpt lat="44.169075" lon="2.964472">
<ele>692.1</ele>
<time>2013-05-08T10:40:55.999Z</time>
</trkpt>
<trkpt lat="44.169256" lon="2.964436">
<ele>690.8</ele>
<time>2013-05-08T10:40:56.999Z</time>
</trkpt>
<trkpt lat="44.169438" lon="2.964416">
<ele>689.7</ele>
<time>2013-05-08T10:40:57.999Z</time>
</trkpt>
<trkpt lat="44.169632" lon="2.96443">
<ele>688.8</ele>
<time>2013-05-08T10:40:58.999Z</time>
</trkpt>
<trkpt lat="44.169829" lon="2.964464">
<ele>687.8</ele>
<time>2013-05-08T10:40:59.999Z</time>
</trkpt>
<trkpt lat="44.170025" lon="2.9645">
<ele>686.6</ele>
<time>2013-05-08T10:41:00.999Z</time>
</trkpt>
<trkpt lat="44.170211" lon="2.964538">
<ele>685.3</ele>
<time>2013-05-08T10:41:01.999Z</time>
</trkpt>
<trkpt lat="44.170397" lon="2.964576">
<ele>683.8</ele>
<time>2013-05-08T10:41:02.999Z</time>
</trkpt>
<trkpt lat="44.170586" lon="2.964626">
<ele>682.2</ele>
<time>2013-05-08T10:41:03.999Z</time>
</trkpt>
<trkpt lat="44.170776" lon="2.964687">
<ele>680.6</ele>
<time>2013-05-08T10:41:04.999Z</time>
</trkpt>
<trkpt lat="44.170969" lon="2.964788">
<ele>679.2</ele>
<time>2013-05-08T10:41:05.999Z</time>
</trkpt>
<trkpt lat="44.171165" lon="2.964934">
<ele>677.9</ele>
<time>2013-05-08T10:41:06.999Z</time>
</trkpt>
<trkpt lat="44.171352" lon="2.965096">
<ele>676.8</ele>
<time>2013-05-08T10:41:07.999Z</time>
</trkpt>
<trkpt lat="44.171521" lon="2.965292">
<ele>675.7</ele>
<time>2013-05-08T10:41:08.999Z</time>
</trkpt>
<trkpt lat="44.171657" lon="2.965486">
<ele>674.1</ele>
<time>2013-05-08T10:41:09.999Z</time>
</trkpt>
<trkpt lat="44.171772" lon="2.965648">
<ele>672</ele>
<time>2013-05-08T10:41:10.999Z</time>
</trkpt>
<trkpt lat="44.171871" lon="2.965773">
<ele>669.8</ele>
<time>2013-05-08T10:41:11.999Z</time>
</trkpt>
<trkpt lat="44.171976" lon="2.965823">
<ele>669.3</ele>
<time>2013-05-08T10:41:12.999Z</time>
</trkpt>
<trkpt lat="44.172096" lon="2.965792">
<ele>668.5</ele>
<time>2013-05-08T10:41:13.999Z</time>
</trkpt>
<trkpt lat="44.172207" lon="2.965721">
<ele>667.8</ele>
<time>2013-05-08T10:41:14.999Z</time>
</trkpt>
<trkpt lat="44.172289" lon="2.965602">
<ele>667.4</ele>
<time>2013-05-08T10:41:15.999Z</time>
</trkpt>
<trkpt lat="44.172346" lon="2.965443">
<ele>666.7</ele>
<time>2013-05-08T10:41:16.999Z</time>
</trkpt>
<trkpt lat="44.172391" lon="2.965281">
<ele>666.1</ele>
<time>2013-05-08T10:41:17.999Z</time>
</trkpt>
<trkpt lat="44.172402" lon="2.965073">
<ele>665.8</ele>
<time>2013-05-08T10:41:18.999Z</time>
</trkpt>
<trkpt lat="44.1724" lon="2.964873">
<ele>665.6</ele>
<time>2013-05-08T10:41:19.999Z</time>
</trkpt>
<trkpt lat="44.172341" lon="2.964659">
<ele>665.5</ele>
<time>2013-05-08T10:41:20.999Z</time>
</trkpt>
<trkpt lat="44.172271" lon="2.964449">
<ele>665.3</ele>
<time>2013-05-08T10:41:21.999Z</time>
</trkpt>
<trkpt lat="44.17219" lon="2.964236">
<ele>665.1</ele>
<time>2013-05-08T10:41:22.999Z</time>
</trkpt>
<trkpt lat="44.1721" lon="2.964023">
<ele>664.4</ele>
<time>2013-05-08T10:41:23.999Z</time>
</trkpt>
<trkpt lat="44.172001" lon="2.963786">
<ele>663.4</ele>
<time>2013-05-08T10:41:24.999Z</time>
</trkpt>
<trkpt lat="44.171888" lon="2.963548">
<ele>662.3</ele>
<time>2013-05-08T10:41:25.999Z</time>
</trkpt>
<trkpt lat="44.171771" lon="2.963307">
<ele>661.8</ele>
<time>2013-05-08T10:41:26.999Z</time>
</trkpt>
<trkpt lat="44.171656" lon="2.963084">
<ele>661.9</ele>
<time>2013-05-08T10:41:27.999Z</time>
</trkpt>
<trkpt lat="44.171513" lon="2.962905">
<ele>661.4</ele>
<time>2013-05-08T10:41:28.999Z</time>
</trkpt>
<trkpt lat="44.171362" lon="2.962738">
<ele>661.3</ele>
<time>2013-05-08T10:41:29.999Z</time>
</trkpt>
<trkpt lat="44.171199" lon="2.962589">
<ele>661</ele>
<time>2013-05-08T10:41:30.999Z</time>
</trkpt>
<trkpt lat="44.171032" lon="2.96247">
<ele>660.5</ele>
<time>2013-05-08T10:41:31.999Z</time>
</trkpt>
<trkpt lat="44.170858" lon="2.962371">
<ele>660.1</ele>
<time>2013-05-08T10:41:32.999Z</time>
</trkpt>
<trkpt lat="44.170685" lon="2.962273">
<ele>659.8</ele>
<time>2013-05-08T10:41:33.999Z</time>
</trkpt>
<trkpt lat="44.170509" lon="2.962164">
<ele>659.5</ele>
<time>2013-05-08T10:41:34.999Z</time>
</trkpt>
<trkpt lat="44.170328" lon="2.962036">
<ele>659</ele>
<time>2013-05-08T10:41:35.999Z</time>
</trkpt>
<trkpt lat="44.170152" lon="2.961898">
<ele>658.5</ele>
<time>2013-05-08T10:41:36.999Z</time>
</trkpt>
<trkpt lat="44.169985" lon="2.961759">
<ele>658.1</ele>
<time>2013-05-08T10:41:37.999Z</time>
</trkpt>
<trkpt lat="44.169833" lon="2.961621">
<ele>657.8</ele>
<time>2013-05-08T10:41:38.999Z</time>
</trkpt>
<trkpt lat="44.169676" lon="2.9615">
<ele>657.3</ele>
<time>2013-05-08T10:41:39.999Z</time>
</trkpt>
<trkpt lat="44.16951" lon="2.961404">
<ele>656.6</ele>
<time>2013-05-08T10:41:40.999Z</time>
</trkpt>
<trkpt lat="44.169342" lon="2.96134">
<ele>656</ele>
<time>2013-05-08T10:41:41.999Z</time>
</trkpt>
<trkpt lat="44.169173" lon="2.961286">
<ele>655.3</ele>
<time>2013-05-08T10:41:42.999Z</time>
</trkpt>
<trkpt lat="44.169012" lon="2.961232">
<ele>654.5</ele>
<time>2013-05-08T10:41:43.999Z</time>
</trkpt>
<trkpt lat="44.16886" lon="2.961181">
<ele>653.8</ele>
<time>2013-05-08T10:41:44.999Z</time>
</trkpt>
<trkpt lat="44.168715" lon="2.961136">
<ele>653.4</ele>
<time>2013-05-08T10:41:45.999Z</time>
</trkpt>
<trkpt lat="44.168582" lon="2.961087">
<ele>652.9</ele>
<time>2013-05-08T10:41:46.999Z</time>
</trkpt>
<trkpt lat="44.168453" lon="2.96103">
<ele>652.6</ele>
<time>2013-05-08T10:41:47.999Z</time>
</trkpt>
<trkpt lat="44.168346" lon="2.960929">
<ele>652.1</ele>
<time>2013-05-08T10:41:48.999Z</time>
</trkpt>
<trkpt lat="44.168237" lon="2.960816">
<ele>651.6</ele>
<time>2013-05-08T10:41:49.999Z</time>
</trkpt>
<trkpt lat="44.168127" lon="2.960696">
<ele>651.5</ele>
<time>2013-05-08T10:41:50.999Z</time>
</trkpt>
<trkpt lat="44.168019" lon="2.960567">
<ele>651.4</ele>
<time>2013-05-08T10:41:51.999Z</time>
</trkpt>
<trkpt lat="44.167918" lon="2.960442">
<ele>651.6</ele>
<time>2013-05-08T10:41:52.999Z</time>
</trkpt>
<trkpt lat="44.167823" lon="2.960314">
<ele>651.5</ele>
<time>2013-05-08T10:41:53.999Z</time>
</trkpt>
<trkpt lat="44.167738" lon="2.96019">
<ele>651.5</ele>
<time>2013-05-08T10:41:54.999Z</time>
</trkpt>
<trkpt lat="44.167675" lon="2.960052">
<ele>651.7</ele>
<time>2013-05-08T10:41:55.999Z</time>
</trkpt>
<trkpt lat="44.16762" lon="2.959922">
<ele>651.7</ele>
<time>2013-05-08T10:41:56.999Z</time>
</trkpt>
<trkpt lat="44.167564" lon="2.959794">
<ele>651.6</ele>
<time>2013-05-08T10:41:57.999Z</time>
</trkpt>
<trkpt lat="44.167509" lon="2.959663">
<ele>651.7</ele>
<time>2013-05-08T10:41:58.999Z</time>
</trkpt>
<trkpt lat="44.167455" lon="2.959533">
<ele>651.8</ele>
<time>2013-05-08T10:41:59.999Z</time>
</trkpt>
<trkpt lat="44.1674" lon="2.959399">
<ele>652.1</ele>
<time>2013-05-08T10:42:00.999Z</time>
</trkpt>
<trkpt lat="44.167344" lon="2.959254">
<ele>653.1</ele>
<time>2013-05-08T10:42:01.999Z</time>
</trkpt>
<trkpt lat="44.167285" lon="2.9591">
<ele>654</ele>
<time>2013-05-08T10:42:02.999Z</time>
</trkpt>
<trkpt lat="44.167222" lon="2.958937">
<ele>654.9</ele>
<time>2013-05-08T10:42:03.999Z</time>
</trkpt>
<trkpt lat="44.167145" lon="2.958773">
<ele>656</ele>
<time>2013-05-08T10:42:04.999Z</time>
</trkpt>
<trkpt lat="44.167038" lon="2.958643">
<ele>657.2</ele>
<time>2013-05-08T10:42:05.999Z</time>
</trkpt>
<trkpt lat="44.166914" lon="2.958503">
<ele>658.7</ele>
<time>2013-05-08T10:42:06.999Z</time>
</trkpt>
<trkpt lat="44.166767" lon="2.958402">
<ele>659.7</ele>
<time>2013-05-08T10:42:07.999Z</time>
</trkpt>
<trkpt lat="44.166612" lon="2.958307">
<ele>660.4</ele>
<time>2013-05-08T10:42:08.999Z</time>
</trkpt>
<trkpt lat="44.166445" lon="2.958231">
<ele>661.1</ele>
<time>2013-05-08T10:42:09.999Z</time>
</trkpt>
<trkpt lat="44.166256" lon="2.958228">
<ele>661.7</ele>
<time>2013-05-08T10:42:10.999Z</time>
</trkpt>
<trkpt lat="44.166059" lon="2.958227">
<ele>662.3</ele>
<time>2013-05-08T10:42:11.999Z</time>
</trkpt>
<trkpt lat="44.165856" lon="2.958245">
<ele>662.7</ele>
<time>2013-05-08T10:42:12.999Z</time>
</trkpt>
<trkpt lat="44.165669" lon="2.958266">
<ele>663.3</ele>
<time>2013-05-08T10:42:13.999Z</time>
</trkpt>
<trkpt lat="44.165484" lon="2.958301">
<ele>663.9</ele>
<time>2013-05-08T10:42:14.999Z</time>
</trkpt>
<trkpt lat="44.165299" lon="2.958355">
<ele>664.1</ele>
<time>2013-05-08T10:42:15.999Z</time>
</trkpt>
<trkpt lat="44.165113" lon="2.958423">
<ele>665.1</ele>
<time>2013-05-08T10:42:16.999Z</time>
</trkpt>
<trkpt lat="44.164936" lon="2.958498">
<ele>666</ele>
<time>2013-05-08T10:42:17.999Z</time>
</trkpt>
<trkpt lat="44.164764" lon="2.958577">
<ele>666.8</ele>
<time>2013-05-08T10:42:18.999Z</time>
</trkpt>
<trkpt lat="44.164602" lon="2.958656">
<ele>667.4</ele>
<time>2013-05-08T10:42:19.999Z</time>
</trkpt>
<trkpt lat="44.16445" lon="2.958713">
<ele>667.7</ele>
<time>2013-05-08T10:42:20.999Z</time>
</trkpt>
<trkpt lat="44.164299" lon="2.958715">
<ele>668.2</ele>
<time>2013-05-08T10:42:21.999Z</time>
</trkpt>
<trkpt lat="44.164153" lon="2.958657">
<ele>668.9</ele>
<time>2013-05-08T10:42:22.999Z</time>
</trkpt>
<trkpt lat="44.164024" lon="2.958591">
<ele>669.5</ele>
<time>2013-05-08T10:42:23.999Z</time>
</trkpt>
<trkpt lat="44.163896" lon="2.958513">
<ele>670</ele>
<time>2013-05-08T10:42:24.999Z</time>
</trkpt>
<trkpt lat="44.163762" lon="2.958422">
<ele>670.5</ele>
<time>2013-05-08T10:42:25.999Z</time>
</trkpt>
<trkpt lat="44.163636" lon="2.958319">
<ele>670.9</ele>
<time>2013-05-08T10:42:26.999Z</time>
</trkpt>
<trkpt lat="44.163516" lon="2.958204">
<ele>671.4</ele>
<time>2013-05-08T10:42:27.999Z</time>
</trkpt>
<trkpt lat="44.163399" lon="2.958081">
<ele>672</ele>
<time>2013-05-08T10:42:28.999Z</time>
</trkpt>
<trkpt lat="44.163292" lon="2.957963">
<ele>673.2</ele>
<time>2013-05-08T10:42:29.999Z</time>
</trkpt>
<trkpt lat="44.163183" lon="2.957844">
<ele>674.3</ele>
<time>2013-05-08T10:42:30.999Z</time>
</trkpt>
<trkpt lat="44.163059" lon="2.957731">
<ele>675.3</ele>
<time>2013-05-08T10:42:31.999Z</time>
</trkpt>
<trkpt lat="44.162944" lon="2.957627">
<ele>676.2</ele>
<time>2013-05-08T10:42:32.999Z</time>
</trkpt>
<trkpt lat="44.16284" lon="2.957522">
<ele>677</ele>
<time>2013-05-08T10:42:33.999Z</time>
</trkpt>
<trkpt lat="44.162756" lon="2.957387">
<ele>677.7</ele>
<time>2013-05-08T10:42:34.999Z</time>
</trkpt>
<trkpt lat="44.162678" lon="2.957243">
<ele>678.5</ele>
<time>2013-05-08T10:42:35.999Z</time>
</trkpt>
<trkpt lat="44.162608" lon="2.957084">
<ele>679.3</ele>
<time>2013-05-08T10:42:36.999Z</time>
</trkpt>
<trkpt lat="44.162546" lon="2.956912">
<ele>679.7</ele>
<time>2013-05-08T10:42:37.999Z</time>
</trkpt>
<trkpt lat="44.162498" lon="2.956714">
<ele>680.3</ele>
<time>2013-05-08T10:42:38.999Z</time>
</trkpt>
<trkpt lat="44.162455" lon="2.956494">
<ele>681.2</ele>
<time>2013-05-08T10:42:39.999Z</time>
</trkpt>
<trkpt lat="44.162398" lon="2.956256">
<ele>682.2</ele>
<time>2013-05-08T10:42:40.999Z</time>
</trkpt>
<trkpt lat="44.162335" lon="2.956006">
<ele>683</ele>
<time>2013-05-08T10:42:41.999Z</time>
</trkpt>
<trkpt lat="44.162268" lon="2.95575">
<ele>683.9</ele>
<time>2013-05-08T10:42:42.999Z</time>
</trkpt>
<trkpt lat="44.162212" lon="2.955502">
<ele>684.9</ele>
<time>2013-05-08T10:42:43.999Z</time>
</trkpt>
<trkpt lat="44.162178" lon="2.955254">
<ele>686</ele>
<time>2013-05-08T10:42:44.999Z</time>
</trkpt>
<trkpt lat="44.162156" lon="2.955024">
<ele>687.2</ele>
<time>2013-05-08T10:42:45.999Z</time>
</trkpt>
<trkpt lat="44.162133" lon="2.95481">
<ele>688.3</ele>
<time>2013-05-08T10:42:46.999Z</time>
</trkpt>
<trkpt lat="44.16211" lon="2.954605">
<ele>689.5</ele>
<time>2013-05-08T10:42:47.999Z</time>
</trkpt>
<trkpt lat="44.162086" lon="2.954416">
<ele>690.8</ele>
<time>2013-05-08T10:42:48.999Z</time>
</trkpt>
<trkpt lat="44.162055" lon="2.954241">
<ele>692.1</ele>
<time>2013-05-08T10:42:49.999Z</time>
</trkpt>
<trkpt lat="44.162014" lon="2.954077">
<ele>693.7</ele>
<time>2013-05-08T10:42:50.999Z</time>
</trkpt>
<trkpt lat="44.161892" lon="2.953976">
<ele>695.2</ele>
<time>2013-05-08T10:42:51.999Z</time>
</trkpt>
<trkpt lat="44.16174" lon="2.953869">
<ele>696.4</ele>
<time>2013-05-08T10:42:52.999Z</time>
</trkpt>
<trkpt lat="44.161594" lon="2.953763">
<ele>697.2</ele>
<time>2013-05-08T10:42:53.999Z</time>
</trkpt>
<trkpt lat="44.161456" lon="2.95365">
<ele>698</ele>
<time>2013-05-08T10:42:54.999Z</time>
</trkpt>
<trkpt lat="44.161327" lon="2.953533">
<ele>699</ele>
<time>2013-05-08T10:42:55.999Z</time>
</trkpt>
<trkpt lat="44.161205" lon="2.953409">
<ele>700.2</ele>
<time>2013-05-08T10:42:56.999Z</time>
</trkpt>
<trkpt lat="44.161105" lon="2.953293">
<ele>701.7</ele>
<time>2013-05-08T10:42:57.999Z</time>
</trkpt>
<trkpt lat="44.161013" lon="2.953176">
<ele>702.9</ele>
<time>2013-05-08T10:42:58.999Z</time>
</trkpt>
<trkpt lat="44.160958" lon="2.953044">
<ele>704.3</ele>
<time>2013-05-08T10:42:59.999Z</time>
</trkpt>
<trkpt lat="44.160942" lon="2.952895">
<ele>705.6</ele>
<time>2013-05-08T10:43:00.999Z</time>
</trkpt>
<trkpt lat="44.160956" lon="2.952731">
<ele>706.8</ele>
<time>2013-05-08T10:43:01.999Z</time>
</trkpt>
<trkpt lat="44.16098" lon="2.95256">
<ele>707.6</ele>
<time>2013-05-08T10:43:02.999Z</time>
</trkpt>
<trkpt lat="44.161044" lon="2.952374">
<ele>708.2</ele>
<time>2013-05-08T10:43:03.999Z</time>
</trkpt>
<trkpt lat="44.161113" lon="2.952171">
<ele>708.5</ele>
<time>2013-05-08T10:43:04.999Z</time>
</trkpt>
<trkpt lat="44.161203" lon="2.951949">
<ele>710.4</ele>
<time>2013-05-08T10:43:05.999Z</time>
</trkpt>
<trkpt lat="44.161292" lon="2.951732">
<ele>712.3</ele>
<time>2013-05-08T10:43:06.999Z</time>
</trkpt>
<trkpt lat="44.161385" lon="2.951511">
<ele>713.8</ele>
<time>2013-05-08T10:43:07.999Z</time>
</trkpt>
<trkpt lat="44.161483" lon="2.951299">
<ele>715.5</ele>
<time>2013-05-08T10:43:08.999Z</time>
</trkpt>
<trkpt lat="44.161587" lon="2.951085">
<ele>717</ele>
<time>2013-05-08T10:43:09.999Z</time>
</trkpt>
<trkpt lat="44.161703" lon="2.95088">
<ele>718.6</ele>
<time>2013-05-08T10:43:10.999Z</time>
</trkpt>
<trkpt lat="44.161821" lon="2.950682">
<ele>720.2</ele>
<time>2013-05-08T10:43:11.999Z</time>
</trkpt>
<trkpt lat="44.161937" lon="2.950482">
<ele>721.5</ele>
<time>2013-05-08T10:43:12.999Z</time>
</trkpt>
<trkpt lat="44.162045" lon="2.950259">
<ele>723</ele>
<time>2013-05-08T10:43:13.999Z</time>
</trkpt>
<trkpt lat="44.162141" lon="2.950034">
<ele>724.5</ele>
<time>2013-05-08T10:43:14.999Z</time>
</trkpt>
<trkpt lat="44.162219" lon="2.949798">
<ele>726.1</ele>
<time>2013-05-08T10:43:15.999Z</time>
</trkpt>
<trkpt lat="44.16229" lon="2.949568">
<ele>727.6</ele>
<time>2013-05-08T10:43:16.999Z</time>
</trkpt>
<trkpt lat="44.162354" lon="2.949342">
<ele>729</ele>
<time>2013-05-08T10:43:17.999Z</time>
</trkpt>
<trkpt lat="44.162415" lon="2.949118">
<ele>730.4</ele>
<time>2013-05-08T10:43:18.999Z</time>
</trkpt>
<trkpt lat="44.162482" lon="2.948912">
<ele>731.5</ele>
<time>2013-05-08T10:43:19.999Z</time>
</trkpt>
<trkpt lat="44.162552" lon="2.94872">
<ele>732.6</ele>
<time>2013-05-08T10:43:20.999Z</time>
</trkpt>
<trkpt lat="44.162625" lon="2.948552">
<ele>733.6</ele>
<time>2013-05-08T10:43:21.999Z</time>
</trkpt>
<trkpt lat="44.162713" lon="2.948417">
<ele>734.6</ele>
<time>2013-05-08T10:43:22.999Z</time>
</trkpt>
<trkpt lat="44.162797" lon="2.948313">
<ele>735.6</ele>
<time>2013-05-08T10:43:23.999Z</time>
</trkpt>
<trkpt lat="44.162892" lon="2.948248">
<ele>736.3</ele>
<time>2013-05-08T10:43:24.999Z</time>
</trkpt>
<trkpt lat="44.162981" lon="2.94818">
<ele>736.9</ele>
<time>2013-05-08T10:43:25.999Z</time>
</trkpt>
<trkpt lat="44.163038" lon="2.948076">
<ele>737.7</ele>
<time>2013-05-08T10:43:26.999Z</time>
</trkpt>
<trkpt lat="44.16306" lon="2.947956">
<ele>738.7</ele>
<time>2013-05-08T10:43:27.999Z</time>
</trkpt>
<trkpt lat="44.163011" lon="2.947839">
<ele>739.7</ele>
<time>2013-05-08T10:43:28.999Z</time>
</trkpt>
<trkpt lat="44.162967" lon="2.947729">
<ele>739.9</ele>
<time>2013-05-08T10:43:29.999Z</time>
</trkpt>
<trkpt lat="44.162864" lon="2.947619">
<ele>739.4</ele>
<time>2013-05-08T10:43:30.999Z</time>
</trkpt>
<trkpt lat="44.162736" lon="2.947479">
<ele>738.5</ele>
<time>2013-05-08T10:43:31.999Z</time>
</trkpt>
<trkpt lat="44.162601" lon="2.947331">
<ele>738.6</ele>
<time>2013-05-08T10:43:32.999Z</time>
</trkpt>
<trkpt lat="44.162476" lon="2.94718">
<ele>739</ele>
<time>2013-05-08T10:43:33.999Z</time>
</trkpt>
<trkpt lat="44.162359" lon="2.947022">
<ele>739.2</ele>
<time>2013-05-08T10:43:34.999Z</time>
</trkpt>
<trkpt lat="44.162273" lon="2.94683">
<ele>739.4</ele>
<time>2013-05-08T10:43:35.999Z</time>
</trkpt>
<trkpt lat="44.162206" lon="2.946638">
<ele>739.4</ele>
<time>2013-05-08T10:43:36.999Z</time>
</trkpt>
<trkpt lat="44.162183" lon="2.946416">
<ele>739.7</ele>
<time>2013-05-08T10:43:37.999Z</time>
</trkpt>
<trkpt lat="44.162213" lon="2.94614">
<ele>740.1</ele>
<time>2013-05-08T10:43:38.999Z</time>
</trkpt>
<trkpt lat="44.162247" lon="2.945864">
<ele>741.2</ele>
<time>2013-05-08T10:43:39.999Z</time>
</trkpt>
<trkpt lat="44.162274" lon="2.945568">
<ele>742</ele>
<time>2013-05-08T10:43:40.999Z</time>
</trkpt>
<trkpt lat="44.162314" lon="2.945258">
<ele>743.4</ele>
<time>2013-05-08T10:43:41.999Z</time>
</trkpt>
<trkpt lat="44.162348" lon="2.944938">
<ele>744.5</ele>
<time>2013-05-08T10:43:42.999Z</time>
</trkpt>
<trkpt lat="44.162373" lon="2.94462">
<ele>746.1</ele>
<time>2013-05-08T10:43:43.999Z</time>
</trkpt>
<trkpt lat="44.162378" lon="2.9443">
<ele>748.2</ele>
<time>2013-05-08T10:43:44.999Z</time>
</trkpt>
<trkpt lat="44.162356" lon="2.943993">
<ele>750.3</ele>
<time>2013-05-08T10:43:45.999Z</time>
</trkpt>
<trkpt lat="44.162328" lon="2.943692">
<ele>752.5</ele>
<time>2013-05-08T10:43:46.999Z</time>
</trkpt>
<trkpt lat="44.1623" lon="2.943392">
<ele>754.1</ele>
<time>2013-05-08T10:43:47.999Z</time>
</trkpt>
<trkpt lat="44.162287" lon="2.943089">
<ele>755.3</ele>
<time>2013-05-08T10:43:48.999Z</time>
</trkpt>
<trkpt lat="44.162287" lon="2.942801">
<ele>756.3</ele>
<time>2013-05-08T10:43:49.999Z</time>
</trkpt>
<trkpt lat="44.162291" lon="2.942507">
<ele>758</ele>
<time>2013-05-08T10:43:50.999Z</time>
</trkpt>
<trkpt lat="44.162294" lon="2.942227">
<ele>760.7</ele>
<time>2013-05-08T10:43:51.999Z</time>
</trkpt>
<trkpt lat="44.162301" lon="2.941956">
<ele>763.2</ele>
<time>2013-05-08T10:43:52.999Z</time>
</trkpt>
<trkpt lat="44.162313" lon="2.941714">
<ele>765.4</ele>
<time>2013-05-08T10:43:53.999Z</time>
</trkpt>
<trkpt lat="44.16232" lon="2.941509">
<ele>767</ele>
<time>2013-05-08T10:43:54.999Z</time>
</trkpt>
<trkpt lat="44.162326" lon="2.941356">
<ele>768.6</ele>
<time>2013-05-08T10:43:55.999Z</time>
</trkpt>
<trkpt lat="44.162303" lon="2.941229">
<ele>770.4</ele>
<time>2013-05-08T10:43:56.999Z</time>
</trkpt>
<trkpt lat="44.162251" lon="2.941123">
<ele>771.1</ele>
<time>2013-05-08T10:43:57.999Z</time>
</trkpt>
<trkpt lat="44.16215" lon="2.941077">
<ele>772.3</ele>
<time>2013-05-08T10:43:58.999Z</time>
</trkpt>
<trkpt lat="44.162044" lon="2.94107">
<ele>773</ele>
<time>2013-05-08T10:43:59.999Z</time>
</trkpt>
<trkpt lat="44.161932" lon="2.941114">
<ele>773</ele>
<time>2013-05-08T10:44:00.999Z</time>
</trkpt>
<trkpt lat="44.161832" lon="2.94123">
<ele>772.7</ele>
<time>2013-05-08T10:44:01.999Z</time>
</trkpt>
<trkpt lat="44.161759" lon="2.941379">
<ele>772.7</ele>
<time>2013-05-08T10:44:02.999Z</time>
</trkpt>
<trkpt lat="44.161696" lon="2.941544">
<ele>772.5</ele>
<time>2013-05-08T10:44:03.999Z</time>
</trkpt>
<trkpt lat="44.161627" lon="2.941752">
<ele>772.4</ele>
<time>2013-05-08T10:44:04.999Z</time>
</trkpt>
<trkpt lat="44.16155" lon="2.94198">
<ele>772</ele>
<time>2013-05-08T10:44:05.999Z</time>
</trkpt>
<trkpt lat="44.161452" lon="2.942214">
<ele>772</ele>
<time>2013-05-08T10:44:06.999Z</time>
</trkpt>
<trkpt lat="44.161301" lon="2.94242">
<ele>772.3</ele>
<time>2013-05-08T10:44:07.999Z</time>
</trkpt>
<trkpt lat="44.16114" lon="2.942638">
<ele>772.5</ele>
<time>2013-05-08T10:44:08.999Z</time>
</trkpt>
<trkpt lat="44.160975" lon="2.942879">
<ele>772.9</ele>
<time>2013-05-08T10:44:09.999Z</time>
</trkpt>
<trkpt lat="44.16081" lon="2.943144">
<ele>773.8</ele>
<time>2013-05-08T10:44:10.999Z</time>
</trkpt>
<trkpt lat="44.16065" lon="2.943424">
<ele>774.6</ele>
<time>2013-05-08T10:44:11.999Z</time>
</trkpt>
<trkpt lat="44.160477" lon="2.943724">
<ele>775.3</ele>
<time>2013-05-08T10:44:12.999Z</time>
</trkpt>
<trkpt lat="44.160304" lon="2.944029">
<ele>776.2</ele>
<time>2013-05-08T10:44:13.999Z</time>
</trkpt>
<trkpt lat="44.160128" lon="2.944327">
<ele>776.7</ele>
<time>2013-05-08T10:44:14.999Z</time>
</trkpt>
<trkpt lat="44.159976" lon="2.944609">
<ele>777.8</ele>
<time>2013-05-08T10:44:15.999Z</time>
</trkpt>
<trkpt lat="44.159845" lon="2.944818">
<ele>779.4</ele>
<time>2013-05-08T10:44:16.999Z</time>
</trkpt>
<trkpt lat="44.159719" lon="2.944996">
<ele>781.5</ele>
<time>2013-05-08T10:44:17.999Z</time>
</trkpt>
<trkpt lat="44.159593" lon="2.945108">
<ele>783</ele>
<time>2013-05-08T10:44:18.999Z</time>
</trkpt>
<trkpt lat="44.159419" lon="2.945158">
<ele>785</ele>
<time>2013-05-08T10:44:19.999Z</time>
</trkpt>
<trkpt lat="44.159227" lon="2.945181">
<ele>787.1</ele>
<time>2013-05-08T10:44:20.999Z</time>
</trkpt>
<trkpt lat="44.159037" lon="2.945209">
<ele>790.1</ele>
<time>2013-05-08T10:44:21.999Z</time>
</trkpt>
<trkpt lat="44.158837" lon="2.945228">
<ele>793.1</ele>
<time>2013-05-08T10:44:22.999Z</time>
</trkpt>
<trkpt lat="44.158636" lon="2.945241">
<ele>795.6</ele>
<time>2013-05-08T10:44:23.999Z</time>
</trkpt>
<trkpt lat="44.15843" lon="2.945262">
<ele>797.8</ele>
<time>2013-05-08T10:44:24.999Z</time>
</trkpt>
<trkpt lat="44.158226" lon="2.945282">
<ele>799.4</ele>
<time>2013-05-08T10:44:25.999Z</time>
</trkpt>
<trkpt lat="44.158032" lon="2.945262">
<ele>800.7</ele>
<time>2013-05-08T10:44:26.999Z</time>
</trkpt>
<trkpt lat="44.15783" lon="2.945225">
<ele>802.5</ele>
<time>2013-05-08T10:44:27.999Z</time>
</trkpt>
<trkpt lat="44.157642" lon="2.945159">
<ele>804.5</ele>
<time>2013-05-08T10:44:28.999Z</time>
</trkpt>
<trkpt lat="44.157469" lon="2.945037">
<ele>806.7</ele>
<time>2013-05-08T10:44:29.999Z</time>
</trkpt>
<trkpt lat="44.157313" lon="2.944913">
<ele>808.8</ele>
<time>2013-05-08T10:44:30.999Z</time>
</trkpt>
<trkpt lat="44.157174" lon="2.944812">
<ele>810.5</ele>
<time>2013-05-08T10:44:31.999Z</time>
</trkpt>
<trkpt lat="44.157012" lon="2.944719">
<ele>812</ele>
<time>2013-05-08T10:44:32.999Z</time>
</trkpt>
<trkpt lat="44.156834" lon="2.944681">
<ele>813.7</ele>
<time>2013-05-08T10:44:33.999Z</time>
</trkpt>
<trkpt lat="44.156637" lon="2.944662">
<ele>815.8</ele>
<time>2013-05-08T10:44:34.999Z</time>
</trkpt>
<trkpt lat="44.156435" lon="2.944703">
<ele>817.8</ele>
<time>2013-05-08T10:44:35.999Z</time>
</trkpt>
<trkpt lat="44.156234" lon="2.944772">
<ele>820.6</ele>
<time>2013-05-08T10:44:36.999Z</time>
</trkpt>
<trkpt lat="44.156041" lon="2.94482">
<ele>822.8</ele>
<time>2013-05-08T10:44:37.999Z</time>
</trkpt>
<trkpt lat="44.155876" lon="2.944857">
<ele>824.5</ele>
<time>2013-05-08T10:44:38.999Z</time>
</trkpt>
<trkpt lat="44.155742" lon="2.944879">
<ele>825.9</ele>
<time>2013-05-08T10:44:39.999Z</time>
</trkpt>
<trkpt lat="44.155637" lon="2.944848">
<ele>826.9</ele>
<time>2013-05-08T10:44:40.999Z</time>
</trkpt>
<trkpt lat="44.15554" lon="2.944769">
<ele>828</ele>
<time>2013-05-08T10:44:41.999Z</time>
</trkpt>
<trkpt lat="44.15547" lon="2.94463">
<ele>828.8</ele>
<time>2013-05-08T10:44:42.999Z</time>
</trkpt>
<trkpt lat="44.155414" lon="2.94449">
<ele>829.7</ele>
<time>2013-05-08T10:44:43.999Z</time>
</trkpt>
<trkpt lat="44.155391" lon="2.944349">
<ele>830.5</ele>
<time>2013-05-08T10:44:44.999Z</time>
</trkpt>
<trkpt lat="44.155414" lon="2.944157">
<ele>830.9</ele>
<time>2013-05-08T10:44:45.999Z</time>
</trkpt>
<trkpt lat="44.155451" lon="2.943912">
<ele>831.2</ele>
<time>2013-05-08T10:44:46.999Z</time>
</trkpt>
<trkpt lat="44.155493" lon="2.943646">
<ele>831.8</ele>
<time>2013-05-08T10:44:47.999Z</time>
</trkpt>
<trkpt lat="44.15554" lon="2.943372">
<ele>832.2</ele>
<time>2013-05-08T10:44:48.999Z</time>
</trkpt>
<trkpt lat="44.155595" lon="2.943047">
<ele>832.9</ele>
<time>2013-05-08T10:44:49.999Z</time>
</trkpt>
<trkpt lat="44.155651" lon="2.942704">
<ele>834.3</ele>
<time>2013-05-08T10:44:50.999Z</time>
</trkpt>
<trkpt lat="44.15571" lon="2.942345">
<ele>835.6</ele>
<time>2013-05-08T10:44:51.999Z</time>
</trkpt>
<trkpt lat="44.155773" lon="2.94198">
<ele>837.1</ele>
<time>2013-05-08T10:44:52.999Z</time>
</trkpt>
<trkpt lat="44.155838" lon="2.941598">
<ele>839</ele>
<time>2013-05-08T10:44:53.999Z</time>
</trkpt>
<trkpt lat="44.1559" lon="2.941221">
<ele>841.1</ele>
<time>2013-05-08T10:44:54.999Z</time>
</trkpt>
<trkpt lat="44.155958" lon="2.940866">
<ele>842.9</ele>
<time>2013-05-08T10:44:55.999Z</time>
</trkpt>
<trkpt lat="44.156019" lon="2.940527">
<ele>844.8</ele>
<time>2013-05-08T10:44:56.999Z</time>
</trkpt>
<trkpt lat="44.156081" lon="2.940201">
<ele>846.2</ele>
<time>2013-05-08T10:44:57.999Z</time>
</trkpt>
<trkpt lat="44.156135" lon="2.939888">
<ele>847.9</ele>
<time>2013-05-08T10:44:58.999Z</time>
</trkpt>
<trkpt lat="44.156186" lon="2.939588">
<ele>849.8</ele>
<time>2013-05-08T10:44:59.999Z</time>
</trkpt>
<trkpt lat="44.156237" lon="2.939274">
<ele>851.6</ele>
<time>2013-05-08T10:45:00.999Z</time>
</trkpt>
<trkpt lat="44.156288" lon="2.938969">
<ele>853</ele>
<time>2013-05-08T10:45:01.999Z</time>
</trkpt>
<trkpt lat="44.156338" lon="2.938668">
<ele>854.4</ele>
<time>2013-05-08T10:45:02.999Z</time>
</trkpt>
<trkpt lat="44.156373" lon="2.938385">
<ele>856.1</ele>
<time>2013-05-08T10:45:03.999Z</time>
</trkpt>
<trkpt lat="44.15638" lon="2.938116">
<ele>858.1</ele>
<time>2013-05-08T10:45:04.999Z</time>
</trkpt>
<trkpt lat="44.156345" lon="2.937841">
<ele>860.4</ele>
<time>2013-05-08T10:45:05.999Z</time>
</trkpt>
<trkpt lat="44.156267" lon="2.937568">
<ele>862.6</ele>
<time>2013-05-08T10:45:06.999Z</time>
</trkpt>
<trkpt lat="44.156161" lon="2.937316">
<ele>864.7</ele>
<time>2013-05-08T10:45:07.999Z</time>
</trkpt>
<trkpt lat="44.156049" lon="2.937079">
<ele>866.8</ele>
<time>2013-05-08T10:45:08.999Z</time>
</trkpt>
<trkpt lat="44.155942" lon="2.936854">
<ele>868.7</ele>
<time>2013-05-08T10:45:09.999Z</time>
</trkpt>
<trkpt lat="44.155869" lon="2.936623">
<ele>870.4</ele>
<time>2013-05-08T10:45:10.999Z</time>
</trkpt>
<trkpt lat="44.155844" lon="2.936364">
<ele>871.8</ele>
<time>2013-05-08T10:45:11.999Z</time>
</trkpt>
<trkpt lat="44.155862" lon="2.936108">
<ele>873.2</ele>
<time>2013-05-08T10:45:12.999Z</time>
</trkpt>
<trkpt lat="44.155904" lon="2.935849">
<ele>874.4</ele>
<time>2013-05-08T10:45:13.999Z</time>
</trkpt>
<trkpt lat="44.155998" lon="2.93562">
<ele>876.2</ele>
<time>2013-05-08T10:45:14.999Z</time>
</trkpt>
<trkpt lat="44.156118" lon="2.935386">
<ele>878.1</ele>
<time>2013-05-08T10:45:15.999Z</time>
</trkpt>
<trkpt lat="44.156244" lon="2.935158">
<ele>879.8</ele>
<time>2013-05-08T10:45:16.999Z</time>
</trkpt>
<trkpt lat="44.156374" lon="2.934919">
<ele>881.4</ele>
<time>2013-05-08T10:45:17.999Z</time>
</trkpt>
<trkpt lat="44.15651" lon="2.934678">
<ele>883.1</ele>
<time>2013-05-08T10:45:18.999Z</time>
</trkpt>
<trkpt lat="44.156644" lon="2.934424">
<ele>884.8</ele>
<time>2013-05-08T10:45:19.999Z</time>
</trkpt>
<trkpt lat="44.156778" lon="2.934165">
<ele>886.5</ele>
<time>2013-05-08T10:45:20.999Z</time>
</trkpt>
<trkpt lat="44.15691" lon="2.933904">
<ele>888.4</ele>
<time>2013-05-08T10:45:21.999Z</time>
</trkpt>
<trkpt lat="44.157035" lon="2.933635">
<ele>890.5</ele>
<time>2013-05-08T10:45:22.999Z</time>
</trkpt>
<trkpt lat="44.157156" lon="2.933365">
<ele>892.2</ele>
<time>2013-05-08T10:45:23.999Z</time>
</trkpt>
<trkpt lat="44.157278" lon="2.933095">
<ele>893.8</ele>
<time>2013-05-08T10:45:24.999Z</time>
</trkpt>
<trkpt lat="44.157399" lon="2.932826">
<ele>895.3</ele>
<time>2013-05-08T10:45:25.999Z</time>
</trkpt>
<trkpt lat="44.157513" lon="2.932569">
<ele>896.7</ele>
<time>2013-05-08T10:45:26.999Z</time>
</trkpt>
<trkpt lat="44.157634" lon="2.932306">
<ele>898.4</ele>
<time>2013-05-08T10:45:27.999Z</time>
</trkpt>
<trkpt lat="44.157742" lon="2.932066">
<ele>900</ele>
<time>2013-05-08T10:45:28.999Z</time>
</trkpt>
<trkpt lat="44.157859" lon="2.931858">
<ele>901.4</ele>
<time>2013-05-08T10:45:29.999Z</time>
</trkpt>
<trkpt lat="44.158004" lon="2.93168">
<ele>902.7</ele>
<time>2013-05-08T10:45:30.999Z</time>
</trkpt>
<trkpt lat="44.158159" lon="2.931539">
<ele>903.9</ele>
<time>2013-05-08T10:45:31.999Z</time>
</trkpt>
<trkpt lat="44.15832" lon="2.931452">
<ele>904.7</ele>
<time>2013-05-08T10:45:32.999Z</time>
</trkpt>
<trkpt lat="44.158484" lon="2.931391">
<ele>905</ele>
<time>2013-05-08T10:45:33.999Z</time>
</trkpt>
<trkpt lat="44.158645" lon="2.931354">
<ele>905.5</ele>
<time>2013-05-08T10:45:34.999Z</time>
</trkpt>
<trkpt lat="44.158792" lon="2.93132">
<ele>906</ele>
<time>2013-05-08T10:45:35.999Z</time>
</trkpt>
<trkpt lat="44.15893" lon="2.931285">
<ele>907</ele>
<time>2013-05-08T10:45:36.999Z</time>
</trkpt>
<trkpt lat="44.159056" lon="2.931241">
<ele>908.3</ele>
<time>2013-05-08T10:45:37.999Z</time>
</trkpt>
<trkpt lat="44.159141" lon="2.931131">
<ele>909</ele>
<time>2013-05-08T10:45:38.999Z</time>
</trkpt>
<trkpt lat="44.15922" lon="2.931001">
<ele>909.6</ele>
<time>2013-05-08T10:45:39.999Z</time>
</trkpt>
<trkpt lat="44.159254" lon="2.930845">
<ele>910.2</ele>
<time>2013-05-08T10:45:40.999Z</time>
</trkpt>
<trkpt lat="44.159227" lon="2.930654">
<ele>910.5</ele>
<time>2013-05-08T10:45:41.999Z</time>
</trkpt>
<trkpt lat="44.159175" lon="2.930491">
<ele>911.3</ele>
<time>2013-05-08T10:45:42.999Z</time>
</trkpt>
<trkpt lat="44.159124" lon="2.930343">
<ele>911.5</ele>
<time>2013-05-08T10:45:43.999Z</time>
</trkpt>
<trkpt lat="44.158985" lon="2.930256">
<ele>912.2</ele>
<time>2013-05-08T10:45:44.999Z</time>
</trkpt>
<trkpt lat="44.158809" lon="2.930175">
<ele>913.2</ele>
<time>2013-05-08T10:45:45.999Z</time>
</trkpt>
<trkpt lat="44.158594" lon="2.930066">
<ele>914.3</ele>
<time>2013-05-08T10:45:46.999Z</time>
</trkpt>
<trkpt lat="44.158365" lon="2.929967">
<ele>914.9</ele>
<time>2013-05-08T10:45:47.999Z</time>
</trkpt>
<trkpt lat="44.158118" lon="2.92986">
<ele>915.6</ele>
<time>2013-05-08T10:45:48.999Z</time>
</trkpt>
<trkpt lat="44.157876" lon="2.929752">
<ele>916.2</ele>
<time>2013-05-08T10:45:49.999Z</time>
</trkpt>
<trkpt lat="44.157643" lon="2.929648">
<ele>916.5</ele>
<time>2013-05-08T10:45:50.999Z</time>
</trkpt>
<trkpt lat="44.15743" lon="2.92955">
<ele>916.7</ele>
<time>2013-05-08T10:45:51.999Z</time>
</trkpt>
<trkpt lat="44.157253" lon="2.929459">
<ele>917.2</ele>
<time>2013-05-08T10:45:52.999Z</time>
</trkpt>
<trkpt lat="44.157086" lon="2.929358">
<ele>917.9</ele>
<time>2013-05-08T10:45:53.999Z</time>
</trkpt>
<trkpt lat="44.156963" lon="2.929184">
<ele>918.4</ele>
<time>2013-05-08T10:45:54.999Z</time>
</trkpt>
<trkpt lat="44.156867" lon="2.928977">
<ele>918.9</ele>
<time>2013-05-08T10:45:55.999Z</time>
</trkpt>
<trkpt lat="44.156792" lon="2.928743">
<ele>919.2</ele>
<time>2013-05-08T10:45:56.999Z</time>
</trkpt>
<trkpt lat="44.156728" lon="2.928492">
<ele>919.4</ele>
<time>2013-05-08T10:45:57.999Z</time>
</trkpt>
<trkpt lat="44.156671" lon="2.928231">
<ele>919.7</ele>
<time>2013-05-08T10:45:58.999Z</time>
</trkpt>
<trkpt lat="44.156633" lon="2.927955">
<ele>920.1</ele>
<time>2013-05-08T10:45:59.999Z</time>
</trkpt>
<trkpt lat="44.156615" lon="2.927683">
<ele>920.4</ele>
<time>2013-05-08T10:46:00.999Z</time>
</trkpt>
<trkpt lat="44.156617" lon="2.92741">
<ele>920.8</ele>
<time>2013-05-08T10:46:01.999Z</time>
</trkpt>
<trkpt lat="44.156635" lon="2.927148">
<ele>921.3</ele>
<time>2013-05-08T10:46:02.999Z</time>
</trkpt>
<trkpt lat="44.15666" lon="2.926926">
<ele>921.9</ele>
<time>2013-05-08T10:46:03.999Z</time>
</trkpt>
<trkpt lat="44.156697" lon="2.926727">
<ele>922.3</ele>
<time>2013-05-08T10:46:04.999Z</time>
</trkpt>
<trkpt lat="44.156782" lon="2.926555">
<ele>922.9</ele>
<time>2013-05-08T10:46:05.999Z</time>
</trkpt>
<trkpt lat="44.156889" lon="2.926413">
<ele>923.5</ele>
<time>2013-05-08T10:46:06.999Z</time>
</trkpt>
<trkpt lat="44.15702" lon="2.926321">
<ele>923.8</ele>
<time>2013-05-08T10:46:07.999Z</time>
</trkpt>
<trkpt lat="44.157153" lon="2.926245">
<ele>924</ele>
<time>2013-05-08T10:46:08.999Z</time>
</trkpt>
<trkpt lat="44.157302" lon="2.926169">
<ele>924.1</ele>
<time>2013-05-08T10:46:09.999Z</time>
</trkpt>
<trkpt lat="44.157457" lon="2.92609">
<ele>923.9</ele>
<time>2013-05-08T10:46:10.999Z</time>
</trkpt>
<trkpt lat="44.157598" lon="2.926015">
<ele>924.3</ele>
<time>2013-05-08T10:46:11.999Z</time>
</trkpt>
<trkpt lat="44.157733" lon="2.92592">
<ele>924.5</ele>
<time>2013-05-08T10:46:12.999Z</time>
</trkpt>
<trkpt lat="44.157835" lon="2.925758">
<ele>925</ele>
<time>2013-05-08T10:46:13.999Z</time>
</trkpt>
<trkpt lat="44.157927" lon="2.925588">
<ele>925.7</ele>
<time>2013-05-08T10:46:14.999Z</time>
</trkpt>
<trkpt lat="44.157975" lon="2.925378">
<ele>926.4</ele>
<time>2013-05-08T10:46:15.999Z</time>
</trkpt>
<trkpt lat="44.158012" lon="2.925166">
<ele>927</ele>
<time>2013-05-08T10:46:16.999Z</time>
</trkpt>
<trkpt lat="44.157995" lon="2.924937">
<ele>927.8</ele>
<time>2013-05-08T10:46:17.999Z</time>
</trkpt>
<trkpt lat="44.157941" lon="2.924699">
<ele>929</ele>
<time>2013-05-08T10:46:18.999Z</time>
</trkpt>
<trkpt lat="44.15784" lon="2.924488">
<ele>929.8</ele>
<time>2013-05-08T10:46:19.999Z</time>
</trkpt>
<trkpt lat="44.157721" lon="2.924247">
<ele>930.5</ele>
<time>2013-05-08T10:46:20.999Z</time>
</trkpt>
<trkpt lat="44.157606" lon="2.924016">
<ele>931.2</ele>
<time>2013-05-08T10:46:21.999Z</time>
</trkpt>
<trkpt lat="44.157477" lon="2.923769">
<ele>931.5</ele>
<time>2013-05-08T10:46:22.999Z</time>
</trkpt>
<trkpt lat="44.157354" lon="2.923531">
<ele>931.7</ele>
<time>2013-05-08T10:46:23.999Z</time>
</trkpt>
<trkpt lat="44.157228" lon="2.923288">
<ele>932.4</ele>
<time>2013-05-08T10:46:24.999Z</time>
</trkpt>
<trkpt lat="44.157103" lon="2.923042">
<ele>932.8</ele>
<time>2013-05-08T10:46:25.999Z</time>
</trkpt>
<trkpt lat="44.156975" lon="2.922792">
<ele>933.2</ele>
<time>2013-05-08T10:46:26.999Z</time>
</trkpt>
<trkpt lat="44.156865" lon="2.922521">
<ele>933.8</ele>
<time>2013-05-08T10:46:27.999Z</time>
</trkpt>
<trkpt lat="44.156759" lon="2.922263">
<ele>934.9</ele>
<time>2013-05-08T10:46:28.999Z</time>
</trkpt>
<trkpt lat="44.15666" lon="2.921991">
<ele>935.9</ele>
<time>2013-05-08T10:46:29.999Z</time>
</trkpt>
<trkpt lat="44.156575" lon="2.921691">
<ele>936.6</ele>
<time>2013-05-08T10:46:30.999Z</time>
</trkpt>
<trkpt lat="44.156501" lon="2.921388">
<ele>937.2</ele>
<time>2013-05-08T10:46:31.999Z</time>
</trkpt>
<trkpt lat="44.156428" lon="2.921073">
<ele>937.7</ele>
<time>2013-05-08T10:46:32.999Z</time>
</trkpt>
<trkpt lat="44.15636" lon="2.92075">
<ele>938.1</ele>
<time>2013-05-08T10:46:33.999Z</time>
</trkpt>
<trkpt lat="44.15629" lon="2.92042">
<ele>938.3</ele>
<time>2013-05-08T10:46:34.999Z</time>
</trkpt>
<trkpt lat="44.156216" lon="2.920076">
<ele>938.3</ele>
<time>2013-05-08T10:46:35.999Z</time>
</trkpt>
<trkpt lat="44.156138" lon="2.919727">
<ele>938.4</ele>
<time>2013-05-08T10:46:36.999Z</time>
</trkpt>
<trkpt lat="44.156063" lon="2.919388">
<ele>939.1</ele>
<time>2013-05-08T10:46:37.999Z</time>
</trkpt>
<trkpt lat="44.155993" lon="2.91904">
<ele>939.9</ele>
<time>2013-05-08T10:46:38.999Z</time>
</trkpt>
<trkpt lat="44.155927" lon="2.918699">
<ele>940.6</ele>
<time>2013-05-08T10:46:39.999Z</time>
</trkpt>
<trkpt lat="44.155863" lon="2.918367">
<ele>941.3</ele>
<time>2013-05-08T10:46:40.999Z</time>
</trkpt>
<trkpt lat="44.15579" lon="2.91805">
<ele>941.7</ele>
<time>2013-05-08T10:46:41.999Z</time>
</trkpt>
<trkpt lat="44.155724" lon="2.917762">
<ele>942.8</ele>
<time>2013-05-08T10:46:42.999Z</time>
</trkpt>
<trkpt lat="44.155626" lon="2.917512">
<ele>944.1</ele>
<time>2013-05-08T10:46:43.999Z</time>
</trkpt>
<trkpt lat="44.155496" lon="2.917324">
<ele>945.5</ele>
<time>2013-05-08T10:46:44.999Z</time>
</trkpt>
<trkpt lat="44.155334" lon="2.917144">
<ele>946.8</ele>
<time>2013-05-08T10:46:45.999Z</time>
</trkpt>
<trkpt lat="44.155138" lon="2.916994">
<ele>948.8</ele>
<time>2013-05-08T10:46:46.999Z</time>
</trkpt>
<trkpt lat="44.154931" lon="2.916847">
<ele>950.9</ele>
<time>2013-05-08T10:46:47.999Z</time>
</trkpt>
<trkpt lat="44.154723" lon="2.916698">
<ele>952.7</ele>
<time>2013-05-08T10:46:48.999Z</time>
</trkpt>
<trkpt lat="44.154537" lon="2.916542">
<ele>953.8</ele>
<time>2013-05-08T10:46:49.999Z</time>
</trkpt>
<trkpt lat="44.154367" lon="2.916382">
<ele>954.8</ele>
<time>2013-05-08T10:46:50.999Z</time>
</trkpt>
<trkpt lat="44.154226" lon="2.916183">
<ele>956.1</ele>
<time>2013-05-08T10:46:51.999Z</time>
</trkpt>
<trkpt lat="44.154115" lon="2.915951">
<ele>957.5</ele>
<time>2013-05-08T10:46:52.999Z</time>
</trkpt>
<trkpt lat="44.154014" lon="2.9157">
<ele>958.7</ele>
<time>2013-05-08T10:46:53.999Z</time>
</trkpt>
<trkpt lat="44.153916" lon="2.915444">
<ele>960.1</ele>
<time>2013-05-08T10:46:54.999Z</time>
</trkpt>
<trkpt lat="44.153814" lon="2.915212">
<ele>961.3</ele>
<time>2013-05-08T10:46:55.999Z</time>
</trkpt>
<trkpt lat="44.153705" lon="2.915001">
<ele>962.7</ele>
<time>2013-05-08T10:46:56.999Z</time>
</trkpt>
<trkpt lat="44.153549" lon="2.914826">
<ele>964</ele>
<time>2013-05-08T10:46:57.999Z</time>
</trkpt>
<trkpt lat="44.153389" lon="2.914667">
<ele>965.6</ele>
<time>2013-05-08T10:46:58.999Z</time>
</trkpt>
<trkpt lat="44.153238" lon="2.914514">
<ele>966.8</ele>
<time>2013-05-08T10:46:59.999Z</time>
</trkpt>
<trkpt lat="44.153117" lon="2.91432">
<ele>967.9</ele>
<time>2013-05-08T10:47:00.999Z</time>
</trkpt>
<trkpt lat="44.153012" lon="2.914104">
<ele>969.1</ele>
<time>2013-05-08T10:47:01.999Z</time>
</trkpt>
<trkpt lat="44.152931" lon="2.913869">
<ele>970</ele>
<time>2013-05-08T10:47:02.999Z</time>
</trkpt>
<trkpt lat="44.152862" lon="2.913643">
<ele>971.2</ele>
<time>2013-05-08T10:47:03.999Z</time>
</trkpt>
<trkpt lat="44.152808" lon="2.913394">
<ele>971.6</ele>
<time>2013-05-08T10:47:04.999Z</time>
</trkpt>
<trkpt lat="44.152757" lon="2.913154">
<ele>971.5</ele>
<time>2013-05-08T10:47:05.999Z</time>
</trkpt>
<trkpt lat="44.152661" lon="2.912917">
<ele>971.5</ele>
<time>2013-05-08T10:47:06.999Z</time>
</trkpt>
<trkpt lat="44.152543" lon="2.912673">
<ele>971.7</ele>
<time>2013-05-08T10:47:07.999Z</time>
</trkpt>
<trkpt lat="44.152391" lon="2.912465">
<ele>971.8</ele>
<time>2013-05-08T10:47:08.999Z</time>
</trkpt>
<trkpt lat="44.15222" lon="2.912295">
<ele>971.4</ele>
<time>2013-05-08T10:47:09.999Z</time>
</trkpt>
<trkpt lat="44.152033" lon="2.912132">
<ele>971.3</ele>
<time>2013-05-08T10:47:10.999Z</time>
</trkpt>
<trkpt lat="44.151838" lon="2.911976">
<ele>971.8</ele>
<time>2013-05-08T10:47:11.999Z</time>
</trkpt>
<trkpt lat="44.151638" lon="2.911835">
<ele>972.9</ele>
<time>2013-05-08T10:47:12.999Z</time>
</trkpt>
<trkpt lat="44.151457" lon="2.911689">
<ele>974.3</ele>
<time>2013-05-08T10:47:13.999Z</time>
</trkpt>
<trkpt lat="44.151302" lon="2.911513">
<ele>975.7</ele>
<time>2013-05-08T10:47:14.999Z</time>
</trkpt>
<trkpt lat="44.151175" lon="2.911315">
<ele>977.3</ele>
<time>2013-05-08T10:47:15.999Z</time>
</trkpt>
<trkpt lat="44.151097" lon="2.91107">
<ele>978.6</ele>
<time>2013-05-08T10:47:16.999Z</time>
</trkpt>
<trkpt lat="44.151035" lon="2.910807">
<ele>980</ele>
<time>2013-05-08T10:47:17.999Z</time>
</trkpt>
<trkpt lat="44.150974" lon="2.910555">
<ele>981.1</ele>
<time>2013-05-08T10:47:18.999Z</time>
</trkpt>
<trkpt lat="44.150912" lon="2.910283">
<ele>982.4</ele>
<time>2013-05-08T10:47:19.999Z</time>
</trkpt>
<trkpt lat="44.150856" lon="2.910013">
<ele>983.8</ele>
<time>2013-05-08T10:47:20.999Z</time>
</trkpt>
<trkpt lat="44.150808" lon="2.909735">
<ele>985</ele>
<time>2013-05-08T10:47:21.999Z</time>
</trkpt>
<trkpt lat="44.150761" lon="2.909479">
<ele>986.2</ele>
<time>2013-05-08T10:47:22.999Z</time>
</trkpt>
<trkpt lat="44.15072" lon="2.909218">
<ele>987.7</ele>
<time>2013-05-08T10:47:23.999Z</time>
</trkpt>
<trkpt lat="44.150692" lon="2.908962">
<ele>990.1</ele>
<time>2013-05-08T10:47:24.999Z</time>
</trkpt>
<trkpt lat="44.15068" lon="2.908713">
<ele>992.9</ele>
<time>2013-05-08T10:47:25.999Z</time>
</trkpt>
<trkpt lat="44.150685" lon="2.908462">
<ele>994.8</ele>
<time>2013-05-08T10:47:26.999Z</time>
</trkpt>
<trkpt lat="44.150734" lon="2.908245">
<ele>996.2</ele>
<time>2013-05-08T10:47:27.999Z</time>
</trkpt>
<trkpt lat="44.150805" lon="2.908006">
<ele>997.2</ele>
<time>2013-05-08T10:47:28.999Z</time>
</trkpt>
<trkpt lat="44.150913" lon="2.907785">
<ele>998.1</ele>
<time>2013-05-08T10:47:29.999Z</time>
</trkpt>
<trkpt lat="44.151023" lon="2.907578">
<ele>998.7</ele>
<time>2013-05-08T10:47:30.999Z</time>
</trkpt>
<trkpt lat="44.151135" lon="2.907391">
<ele>999.2</ele>
<time>2013-05-08T10:47:31.999Z</time>
</trkpt>
<trkpt lat="44.151277" lon="2.907277">
<ele>999.9</ele>
<time>2013-05-08T10:47:32.999Z</time>
</trkpt>
<trkpt lat="44.151429" lon="2.907182">
<ele>1000.4</ele>
<time>2013-05-08T10:47:33.999Z</time>
</trkpt>
<trkpt lat="44.151595" lon="2.907129">
<ele>1000.8</ele>
<time>2013-05-08T10:47:34.999Z</time>
</trkpt>
<trkpt lat="44.151773" lon="2.907085">
<ele>1001.1</ele>
<time>2013-05-08T10:47:35.999Z</time>
</trkpt>
<trkpt lat="44.151953" lon="2.907044">
<ele>1001.4</ele>
<time>2013-05-08T10:47:36.999Z</time>
</trkpt>
<trkpt lat="44.152145" lon="2.907003">
<ele>1001.7</ele>
<time>2013-05-08T10:47:37.999Z</time>
</trkpt>
<trkpt lat="44.152354" lon="2.906973">
<ele>1002</ele>
<time>2013-05-08T10:47:38.999Z</time>
</trkpt>
<trkpt lat="44.15258" lon="2.906962">
<ele>1002.7</ele>
<time>2013-05-08T10:47:39.999Z</time>
</trkpt>
<trkpt lat="44.152816" lon="2.906949">
<ele>1003.3</ele>
<time>2013-05-08T10:47:40.999Z</time>
</trkpt>
<trkpt lat="44.153066" lon="2.906948">
<ele>1004</ele>
<time>2013-05-08T10:47:41.999Z</time>
</trkpt>
<trkpt lat="44.153327" lon="2.90699">
<ele>1005.7</ele>
<time>2013-05-08T10:47:42.999Z</time>
</trkpt>
<trkpt lat="44.153601" lon="2.90706">
<ele>1007</ele>
<time>2013-05-08T10:47:43.999Z</time>
</trkpt>
<trkpt lat="44.15388" lon="2.907121">
<ele>1008.2</ele>
<time>2013-05-08T10:47:44.999Z</time>
</trkpt>
<trkpt lat="44.154148" lon="2.907192">
<ele>1010.5</ele>
<time>2013-05-08T10:47:45.999Z</time>
</trkpt>
<trkpt lat="44.154418" lon="2.907259">
<ele>1013.1</ele>
<time>2013-05-08T10:47:46.999Z</time>
</trkpt>
<trkpt lat="44.154682" lon="2.907321">
<ele>1015.5</ele>
<time>2013-05-08T10:47:47.999Z</time>
</trkpt>
<trkpt lat="44.154951" lon="2.907379">
<ele>1018</ele>
<time>2013-05-08T10:47:48.999Z</time>
</trkpt>
<trkpt lat="44.155204" lon="2.907423">
<ele>1020.2</ele>
<time>2013-05-08T10:47:49.999Z</time>
</trkpt>
<trkpt lat="44.155454" lon="2.907474">
<ele>1022.3</ele>
<time>2013-05-08T10:47:50.999Z</time>
</trkpt>
<trkpt lat="44.155678" lon="2.907522">
<ele>1024.1</ele>
<time>2013-05-08T10:47:51.999Z</time>
</trkpt>
<trkpt lat="44.155871" lon="2.907561">
<ele>1026.2</ele>
<time>2013-05-08T10:47:52.999Z</time>
</trkpt>
<trkpt lat="44.156047" lon="2.90759">
<ele>1028.2</ele>
<time>2013-05-08T10:47:53.999Z</time>
</trkpt>
<trkpt lat="44.156212" lon="2.907616">
<ele>1030.5</ele>
<time>2013-05-08T10:47:54.999Z</time>
</trkpt>
<trkpt lat="44.156374" lon="2.907617">
<ele>1032.2</ele>
<time>2013-05-08T10:47:55.999Z</time>
</trkpt>
<trkpt lat="44.156524" lon="2.907559">
<ele>1034.4</ele>
<time>2013-05-08T10:47:56.999Z</time>
</trkpt>
<trkpt lat="44.156674" lon="2.907477">
<ele>1036.3</ele>
<time>2013-05-08T10:47:57.999Z</time>
</trkpt>
<trkpt lat="44.156796" lon="2.907233">
<ele>1038</ele>
<time>2013-05-08T10:47:58.999Z</time>
</trkpt>
<trkpt lat="44.156919" lon="2.906977">
<ele>1039.3</ele>
<time>2013-05-08T10:47:59.999Z</time>
</trkpt>
<trkpt lat="44.157037" lon="2.906708">
<ele>1040.3</ele>
<time>2013-05-08T10:48:00.999Z</time>
</trkpt>
<trkpt lat="44.157168" lon="2.906436">
<ele>1041.2</ele>
<time>2013-05-08T10:48:01.999Z</time>
</trkpt>
<trkpt lat="44.157292" lon="2.906154">
<ele>1041.5</ele>
<time>2013-05-08T10:48:02.999Z</time>
</trkpt>
<trkpt lat="44.157403" lon="2.905895">
<ele>1042</ele>
<time>2013-05-08T10:48:03.999Z</time>
</trkpt>
<trkpt lat="44.15751" lon="2.905647">
<ele>1042.9</ele>
<time>2013-05-08T10:48:04.999Z</time>
</trkpt>
<trkpt lat="44.157612" lon="2.905419">
<ele>1044</ele>
<time>2013-05-08T10:48:05.999Z</time>
</trkpt>
<trkpt lat="44.157716" lon="2.905218">
<ele>1045.4</ele>
<time>2013-05-08T10:48:06.999Z</time>
</trkpt>
<trkpt lat="44.157799" lon="2.905031">
<ele>1047</ele>
<time>2013-05-08T10:48:07.999Z</time>
</trkpt>
<trkpt lat="44.157874" lon="2.904858">
<ele>1048.5</ele>
<time>2013-05-08T10:48:08.999Z</time>
</trkpt>
<trkpt lat="44.157938" lon="2.904686">
<ele>1050</ele>
<time>2013-05-08T10:48:09.999Z</time>
</trkpt>
<trkpt lat="44.157938" lon="2.904481">
<ele>1051.7</ele>
<time>2013-05-08T10:48:10.999Z</time>
</trkpt>
<trkpt lat="44.157904" lon="2.904292">
<ele>1053.3</ele>
<time>2013-05-08T10:48:11.999Z</time>
</trkpt>
<trkpt lat="44.157854" lon="2.904077">
<ele>1054.8</ele>
<time>2013-05-08T10:48:12.999Z</time>
</trkpt>
<trkpt lat="44.157771" lon="2.903838">
<ele>1056.4</ele>
<time>2013-05-08T10:48:13.999Z</time>
</trkpt>
<trkpt lat="44.157641" lon="2.903611">
<ele>1058.1</ele>
<time>2013-05-08T10:48:14.999Z</time>
</trkpt>
<trkpt lat="44.157511" lon="2.903377">
<ele>1059.8</ele>
<time>2013-05-08T10:48:15.999Z</time>
</trkpt>
<trkpt lat="44.157392" lon="2.90315">
<ele>1060.9</ele>
<time>2013-05-08T10:48:16.999Z</time>
</trkpt>
<trkpt lat="44.157301" lon="2.902904">
<ele>1062</ele>
<time>2013-05-08T10:48:17.999Z</time>
</trkpt>
<trkpt lat="44.157221" lon="2.902642">
<ele>1062.8</ele>
<time>2013-05-08T10:48:18.999Z</time>
</trkpt>
<trkpt lat="44.15718" lon="2.902378">
<ele>1063.9</ele>
<time>2013-05-08T10:48:19.999Z</time>
</trkpt>
<trkpt lat="44.157177" lon="2.902107">
<ele>1065</ele>
<time>2013-05-08T10:48:20.999Z</time>
</trkpt>
<trkpt lat="44.157204" lon="2.901839">
<ele>1066</ele>
<time>2013-05-08T10:48:21.999Z</time>
</trkpt>
<trkpt lat="44.157248" lon="2.901587">
<ele>1067.7</ele>
<time>2013-05-08T10:48:22.999Z</time>
</trkpt>
<trkpt lat="44.157324" lon="2.901325">
<ele>1069</ele>
<time>2013-05-08T10:48:23.999Z</time>
</trkpt>
<trkpt lat="44.157407" lon="2.901046">
<ele>1069.7</ele>
<time>2013-05-08T10:48:24.999Z</time>
</trkpt>
<trkpt lat="44.157507" lon="2.900751">
<ele>1070.2</ele>
<time>2013-05-08T10:48:25.999Z</time>
</trkpt>
<trkpt lat="44.157607" lon="2.900458">
<ele>1070.7</ele>
<time>2013-05-08T10:48:26.999Z</time>
</trkpt>
<trkpt lat="44.157711" lon="2.900166">
<ele>1071.4</ele>
<time>2013-05-08T10:48:27.999Z</time>
</trkpt>
<trkpt lat="44.157812" lon="2.899886">
<ele>1071.9</ele>
<time>2013-05-08T10:48:28.999Z</time>
</trkpt>
<trkpt lat="44.157913" lon="2.899607">
<ele>1072.4</ele>
<time>2013-05-08T10:48:29.999Z</time>
</trkpt>
<trkpt lat="44.158013" lon="2.899329">
<ele>1073</ele>
<time>2013-05-08T10:48:30.999Z</time>
</trkpt>
<trkpt lat="44.158116" lon="2.89907">
<ele>1073.5</ele>
<time>2013-05-08T10:48:31.999Z</time>
</trkpt>
<trkpt lat="44.158231" lon="2.898843">
<ele>1073.7</ele>
<time>2013-05-08T10:48:32.999Z</time>
</trkpt>
<trkpt lat="44.15836" lon="2.898643">
<ele>1073.9</ele>
<time>2013-05-08T10:48:33.999Z</time>
</trkpt>
<trkpt lat="44.158478" lon="2.898467">
<ele>1074.1</ele>
<time>2013-05-08T10:48:34.999Z</time>
</trkpt>
<trkpt lat="44.158562" lon="2.898287">
<ele>1074.6</ele>
<time>2013-05-08T10:48:35.999Z</time>
</trkpt>
<trkpt lat="44.158621" lon="2.898073">
<ele>1075.4</ele>
<time>2013-05-08T10:48:36.999Z</time>
</trkpt>
<trkpt lat="44.158636" lon="2.897861">
<ele>1076.7</ele>
<time>2013-05-08T10:48:37.999Z</time>
</trkpt>
<trkpt lat="44.158628" lon="2.897648">
<ele>1077.7</ele>
<time>2013-05-08T10:48:38.999Z</time>
</trkpt>
<trkpt lat="44.158611" lon="2.897418">
<ele>1078.4</ele>
<time>2013-05-08T10:48:39.999Z</time>
</trkpt>
<trkpt lat="44.158599" lon="2.897178">
<ele>1078.9</ele>
<time>2013-05-08T10:48:40.999Z</time>
</trkpt>
<trkpt lat="44.158599" lon="2.896951">
<ele>1079.7</ele>
<time>2013-05-08T10:48:41.999Z</time>
</trkpt>
<trkpt lat="44.158609" lon="2.896729">
<ele>1080.3</ele>
<time>2013-05-08T10:48:42.999Z</time>
</trkpt>
<trkpt lat="44.158618" lon="2.896527">
<ele>1081.3</ele>
<time>2013-05-08T10:48:43.999Z</time>
</trkpt>
<trkpt lat="44.158614" lon="2.896321">
<ele>1082.4</ele>
<time>2013-05-08T10:48:44.999Z</time>
</trkpt>
<trkpt lat="44.158547" lon="2.896138">
<ele>1083.4</ele>
<time>2013-05-08T10:48:45.999Z</time>
</trkpt>
<trkpt lat="44.158459" lon="2.895972">
<ele>1084.4</ele>
<time>2013-05-08T10:48:46.999Z</time>
</trkpt>
<trkpt lat="44.158303" lon="2.895858">
<ele>1084.7</ele>
<time>2013-05-08T10:48:47.999Z</time>
</trkpt>
<trkpt lat="44.158136" lon="2.895752">
<ele>1084.8</ele>
<time>2013-05-08T10:48:48.999Z</time>
</trkpt>
<trkpt lat="44.157964" lon="2.895651">
<ele>1085</ele>
<time>2013-05-08T10:48:49.999Z</time>
</trkpt>
<trkpt lat="44.15779" lon="2.895554">
<ele>1085</ele>
<time>2013-05-08T10:48:50.999Z</time>
</trkpt>
<trkpt lat="44.157619" lon="2.895462">
<ele>1084.9</ele>
<time>2013-05-08T10:48:51.999Z</time>
</trkpt>
<trkpt lat="44.157447" lon="2.895351">
<ele>1084.9</ele>
<time>2013-05-08T10:48:52.999Z</time>
</trkpt>
<trkpt lat="44.157311" lon="2.89518">
<ele>1085.7</ele>
<time>2013-05-08T10:48:53.999Z</time>
</trkpt>
<trkpt lat="44.157198" lon="2.894978">
<ele>1086.5</ele>
<time>2013-05-08T10:48:54.999Z</time>
</trkpt>
<trkpt lat="44.157111" lon="2.894756">
<ele>1088.4</ele>
<time>2013-05-08T10:48:55.999Z</time>
</trkpt>
<trkpt lat="44.15706" lon="2.894474">
<ele>1090.1</ele>
<time>2013-05-08T10:48:56.999Z</time>
</trkpt>
<trkpt lat="44.157009" lon="2.894176">
<ele>1091.7</ele>
<time>2013-05-08T10:48:57.999Z</time>
</trkpt>
<trkpt lat="44.156955" lon="2.893875">
<ele>1093</ele>
<time>2013-05-08T10:48:58.999Z</time>
</trkpt>
<trkpt lat="44.156903" lon="2.893569">
<ele>1094.1</ele>
<time>2013-05-08T10:48:59.999Z</time>
</trkpt>
<trkpt lat="44.156844" lon="2.893254">
<ele>1095.1</ele>
<time>2013-05-08T10:49:00.999Z</time>
</trkpt>
<trkpt lat="44.156778" lon="2.892919">
<ele>1096</ele>
<time>2013-05-08T10:49:01.999Z</time>
</trkpt>
<trkpt lat="44.156705" lon="2.892578">
<ele>1096.5</ele>
<time>2013-05-08T10:49:02.999Z</time>
</trkpt>
<trkpt lat="44.156631" lon="2.892244">
<ele>1096.9</ele>
<time>2013-05-08T10:49:03.999Z</time>
</trkpt>
<trkpt lat="44.156556" lon="2.891913">
<ele>1097.3</ele>
<time>2013-05-08T10:49:04.999Z</time>
</trkpt>
<trkpt lat="44.156484" lon="2.891584">
<ele>1097.5</ele>
<time>2013-05-08T10:49:05.999Z</time>
</trkpt>
<trkpt lat="44.156416" lon="2.891263">
<ele>1097.7</ele>
<time>2013-05-08T10:49:06.999Z</time>
</trkpt>
<trkpt lat="44.156343" lon="2.890941">
<ele>1098</ele>
<time>2013-05-08T10:49:07.999Z</time>
</trkpt>
<trkpt lat="44.156273" lon="2.890625">
<ele>1098.5</ele>
<time>2013-05-08T10:49:08.999Z</time>
</trkpt>
<trkpt lat="44.156199" lon="2.890313">
<ele>1098.8</ele>
<time>2013-05-08T10:49:09.999Z</time>
</trkpt>
<trkpt lat="44.156126" lon="2.890003">
<ele>1099.1</ele>
<time>2013-05-08T10:49:10.999Z</time>
</trkpt>
<trkpt lat="44.156055" lon="2.889685">
<ele>1099.1</ele>
<time>2013-05-08T10:49:11.999Z</time>
</trkpt>
<trkpt lat="44.15601" lon="2.889366">
<ele>1098.8</ele>
<time>2013-05-08T10:49:12.999Z</time>
</trkpt>
<trkpt lat="44.155996" lon="2.889042">
<ele>1098.4</ele>
<time>2013-05-08T10:49:13.999Z</time>
</trkpt>
<trkpt lat="44.156005" lon="2.888719">
<ele>1097.3</ele>
<time>2013-05-08T10:49:14.999Z</time>
</trkpt>
<trkpt lat="44.156062" lon="2.888434">
<ele>1096.5</ele>
<time>2013-05-08T10:49:15.999Z</time>
</trkpt>
<trkpt lat="44.156142" lon="2.888166">
<ele>1095.8</ele>
<time>2013-05-08T10:49:16.999Z</time>
</trkpt>
<trkpt lat="44.156237" lon="2.887915">
<ele>1094.8</ele>
<time>2013-05-08T10:49:17.999Z</time>
</trkpt>
<trkpt lat="44.156349" lon="2.887665">
<ele>1093.7</ele>
<time>2013-05-08T10:49:18.999Z</time>
</trkpt>
<trkpt lat="44.15647" lon="2.887411">
<ele>1092.2</ele>
<time>2013-05-08T10:49:19.999Z</time>
</trkpt>
<trkpt lat="44.156587" lon="2.887145">
<ele>1090.2</ele>
<time>2013-05-08T10:49:20.999Z</time>
</trkpt>
<trkpt lat="44.156702" lon="2.886883">
<ele>1088.4</ele>
<time>2013-05-08T10:49:21.999Z</time>
</trkpt>
<trkpt lat="44.156816" lon="2.886616">
<ele>1087.2</ele>
<time>2013-05-08T10:49:22.999Z</time>
</trkpt>
<trkpt lat="44.156924" lon="2.886339">
<ele>1086</ele>
<time>2013-05-08T10:49:23.999Z</time>
</trkpt>
<trkpt lat="44.157015" lon="2.886054">
<ele>1085</ele>
<time>2013-05-08T10:49:24.999Z</time>
</trkpt>
<trkpt lat="44.157094" lon="2.88577">
<ele>1084.2</ele>
<time>2013-05-08T10:49:25.999Z</time>
</trkpt>
<trkpt lat="44.157136" lon="2.885465">
<ele>1083.6</ele>
<time>2013-05-08T10:49:26.999Z</time>
</trkpt>
<trkpt lat="44.157155" lon="2.885164">
<ele>1083.2</ele>
<time>2013-05-08T10:49:27.999Z</time>
</trkpt>
<trkpt lat="44.157159" lon="2.884861">
<ele>1083</ele>
<time>2013-05-08T10:49:28.999Z</time>
</trkpt>
<trkpt lat="44.15715" lon="2.884557">
<ele>1082.7</ele>
<time>2013-05-08T10:49:29.999Z</time>
</trkpt>
<trkpt lat="44.157142" lon="2.88425">
<ele>1082.4</ele>
<time>2013-05-08T10:49:30.999Z</time>
</trkpt>
<trkpt lat="44.157115" lon="2.883945">
<ele>1082.3</ele>
<time>2013-05-08T10:49:31.999Z</time>
</trkpt>
<trkpt lat="44.157071" lon="2.883639">
<ele>1082.2</ele>
<time>2013-05-08T10:49:32.999Z</time>
</trkpt>
<trkpt lat="44.157028" lon="2.883337">
<ele>1081.8</ele>
<time>2013-05-08T10:49:33.999Z</time>
</trkpt>
<trkpt lat="44.156954" lon="2.883014">
<ele>1081.4</ele>
<time>2013-05-08T10:49:34.999Z</time>
</trkpt>
<trkpt lat="44.156875" lon="2.882672">
<ele>1080.7</ele>
<time>2013-05-08T10:49:35.999Z</time>
</trkpt>
<trkpt lat="44.156777" lon="2.882327">
<ele>1079.7</ele>
<time>2013-05-08T10:49:36.999Z</time>
</trkpt>
<trkpt lat="44.156661" lon="2.881979">
<ele>1078.8</ele>
<time>2013-05-08T10:49:37.999Z</time>
</trkpt>
<trkpt lat="44.156531" lon="2.881619">
<ele>1078</ele>
<time>2013-05-08T10:49:38.999Z</time>
</trkpt>
<trkpt lat="44.156398" lon="2.881267">
<ele>1077.4</ele>
<time>2013-05-08T10:49:39.999Z</time>
</trkpt>
<trkpt lat="44.156271" lon="2.880931">
<ele>1077</ele>
<time>2013-05-08T10:49:40.999Z</time>
</trkpt>
<trkpt lat="44.156149" lon="2.880611">
<ele>1076.4</ele>
<time>2013-05-08T10:49:41.999Z</time>
</trkpt>
<trkpt lat="44.156034" lon="2.880305">
<ele>1075.6</ele>
<time>2013-05-08T10:49:42.999Z</time>
</trkpt>
<trkpt lat="44.155918" lon="2.880019">
<ele>1074.6</ele>
<time>2013-05-08T10:49:43.999Z</time>
</trkpt>
<trkpt lat="44.155787" lon="2.879763">
<ele>1073.6</ele>
<time>2013-05-08T10:49:44.999Z</time>
</trkpt>
<trkpt lat="44.155644" lon="2.879516">
<ele>1072.5</ele>
<time>2013-05-08T10:49:45.999Z</time>
</trkpt>
<trkpt lat="44.155481" lon="2.87927">
<ele>1071.1</ele>
<time>2013-05-08T10:49:46.999Z</time>
</trkpt>
<trkpt lat="44.155296" lon="2.879033">
<ele>1069.6</ele>
<time>2013-05-08T10:49:47.999Z</time>
</trkpt>
<trkpt lat="44.155106" lon="2.878794">
<ele>1068.1</ele>
<time>2013-05-08T10:49:48.999Z</time>
</trkpt>
<trkpt lat="44.154913" lon="2.878554">
<ele>1066.5</ele>
<time>2013-05-08T10:49:49.999Z</time>
</trkpt>
<trkpt lat="44.154726" lon="2.878296">
<ele>1064.3</ele>
<time>2013-05-08T10:49:50.999Z</time>
</trkpt>
<trkpt lat="44.154549" lon="2.878019">
<ele>1062.2</ele>
<time>2013-05-08T10:49:51.999Z</time>
</trkpt>
<trkpt lat="44.154387" lon="2.87772">
<ele>1060.2</ele>
<time>2013-05-08T10:49:52.999Z</time>
</trkpt>
<trkpt lat="44.154237" lon="2.877408">
<ele>1058.4</ele>
<time>2013-05-08T10:49:53.999Z</time>
</trkpt>
<trkpt lat="44.154097" lon="2.877081">
<ele>1056.6</ele>
<time>2013-05-08T10:49:54.999Z</time>
</trkpt>
<trkpt lat="44.153961" lon="2.876751">
<ele>1054.9</ele>
<time>2013-05-08T10:49:55.999Z</time>
</trkpt>
<trkpt lat="44.153824" lon="2.876413">
<ele>1053.2</ele>
<time>2013-05-08T10:49:56.999Z</time>
</trkpt>
<trkpt lat="44.153693" lon="2.876066">
<ele>1051.6</ele>
<time>2013-05-08T10:49:57.999Z</time>
</trkpt>
<trkpt lat="44.153561" lon="2.875719">
<ele>1050</ele>
<time>2013-05-08T10:49:58.999Z</time>
</trkpt>
<trkpt lat="44.153429" lon="2.875373">
<ele>1048.6</ele>
<time>2013-05-08T10:49:59.999Z</time>
</trkpt>
<trkpt lat="44.153299" lon="2.875036">
<ele>1047.3</ele>
<time>2013-05-08T10:50:00.999Z</time>
</trkpt>
<trkpt lat="44.153165" lon="2.874699">
<ele>1046.4</ele>
<time>2013-05-08T10:50:01.999Z</time>
</trkpt>
<trkpt lat="44.153035" lon="2.874366">
<ele>1045.5</ele>
<time>2013-05-08T10:50:02.999Z</time>
</trkpt>
<trkpt lat="44.152904" lon="2.874033">
<ele>1044.5</ele>
<time>2013-05-08T10:50:03.999Z</time>
</trkpt>
<trkpt lat="44.152781" lon="2.8737">
<ele>1043.6</ele>
<time>2013-05-08T10:50:04.999Z</time>
</trkpt>
<trkpt lat="44.152661" lon="2.873381">
<ele>1042.9</ele>
<time>2013-05-08T10:50:05.999Z</time>
</trkpt>
<trkpt lat="44.152549" lon="2.873069">
<ele>1041.9</ele>
<time>2013-05-08T10:50:06.999Z</time>
</trkpt>
<trkpt lat="44.152437" lon="2.872758">
<ele>1040.8</ele>
<time>2013-05-08T10:50:07.999Z</time>
</trkpt>
<trkpt lat="44.152324" lon="2.872449">
<ele>1039.8</ele>
<time>2013-05-08T10:50:08.999Z</time>
</trkpt>
<trkpt lat="44.152217" lon="2.872134">
<ele>1038.9</ele>
<time>2013-05-08T10:50:09.999Z</time>
</trkpt>
<trkpt lat="44.15212" lon="2.871816">
<ele>1038</ele>
<time>2013-05-08T10:50:10.999Z</time>
</trkpt>
<trkpt lat="44.152045" lon="2.871487">
<ele>1037.2</ele>
<time>2013-05-08T10:50:11.999Z</time>
</trkpt>
<trkpt lat="44.151987" lon="2.871146">
<ele>1036.5</ele>
<time>2013-05-08T10:50:12.999Z</time>
</trkpt>
<trkpt lat="44.151943" lon="2.870801">
<ele>1035.9</ele>
<time>2013-05-08T10:50:13.999Z</time>
</trkpt>
<trkpt lat="44.151901" lon="2.870459">
<ele>1035.2</ele>
<time>2013-05-08T10:50:14.999Z</time>
</trkpt>
<trkpt lat="44.151862" lon="2.870124">
<ele>1034.7</ele>
<time>2013-05-08T10:50:15.999Z</time>
</trkpt>
<trkpt lat="44.151825" lon="2.869804">
<ele>1034.2</ele>
<time>2013-05-08T10:50:16.999Z</time>
</trkpt>
<trkpt lat="44.151797" lon="2.869516">
<ele>1033.9</ele>
<time>2013-05-08T10:50:17.999Z</time>
</trkpt>
<trkpt lat="44.151765" lon="2.869239">
<ele>1033.3</ele>
<time>2013-05-08T10:50:18.999Z</time>
</trkpt>
<trkpt lat="44.151737" lon="2.868981">
<ele>1032.2</ele>
<time>2013-05-08T10:50:19.999Z</time>
</trkpt>
<trkpt lat="44.151708" lon="2.868739">
<ele>1030.9</ele>
<time>2013-05-08T10:50:20.999Z</time>
</trkpt>
<trkpt lat="44.151686" lon="2.868526">
<ele>1029.9</ele>
<time>2013-05-08T10:50:21.999Z</time>
</trkpt>
<trkpt lat="44.151661" lon="2.868328">
<ele>1029.2</ele>
<time>2013-05-08T10:50:22.999Z</time>
</trkpt>
<trkpt lat="44.151636" lon="2.868145">
<ele>1028.5</ele>
<time>2013-05-08T10:50:23.999Z</time>
</trkpt>
<trkpt lat="44.151616" lon="2.867957">
<ele>1027.9</ele>
<time>2013-05-08T10:50:24.999Z</time>
</trkpt>
<trkpt lat="44.151596" lon="2.867795">
<ele>1027.2</ele>
<time>2013-05-08T10:50:25.999Z</time>
</trkpt>
<trkpt lat="44.151577" lon="2.867641">
<ele>1026.7</ele>
<time>2013-05-08T10:50:26.999Z</time>
</trkpt>
<trkpt lat="44.151561" lon="2.867503">
<ele>1026.4</ele>
<time>2013-05-08T10:50:27.999Z</time>
</trkpt>
<trkpt lat="44.151549" lon="2.867396">
<ele>1025.8</ele>
<time>2013-05-08T10:50:28.999Z</time>
</trkpt>
<trkpt lat="44.151533" lon="2.867291">
<ele>1025</ele>
<time>2013-05-08T10:50:29.999Z</time>
</trkpt>
<trkpt lat="44.151515" lon="2.867195">
<ele>1024.1</ele>
<time>2013-05-08T10:50:30.999Z</time>
</trkpt>
<trkpt lat="44.151505" lon="2.867132">
<ele>1023.3</ele>
<time>2013-05-08T10:50:31.999Z</time>
</trkpt>
<trkpt lat="44.151496" lon="2.867084">
<ele>1023.2</ele>
<time>2013-05-08T10:50:32.999Z</time>
</trkpt>
<trkpt lat="44.151492" lon="2.86705">
<ele>1023.1</ele>
<time>2013-05-08T10:50:33.999Z</time>
</trkpt>
<trkpt lat="44.151494" lon="2.866989">
<ele>1022.7</ele>
<time>2013-05-08T10:50:37.999Z</time>
</trkpt>
<trkpt lat="44.151494" lon="2.866966">
<ele>1022.6</ele>
<time>2013-05-08T10:50:38.999Z</time>
</trkpt>
<trkpt lat="44.1515" lon="2.866931">
<ele>1022.6</ele>
<time>2013-05-08T10:50:39.999Z</time>
</trkpt>
<trkpt lat="44.15153" lon="2.866879">
<ele>1021.7</ele>
<time>2013-05-08T10:50:40.999Z</time>
</trkpt>
<trkpt lat="44.151592" lon="2.866837">
<ele>1021</ele>
<time>2013-05-08T10:50:41.999Z</time>
</trkpt>
<trkpt lat="44.151675" lon="2.86679">
<ele>1020.2</ele>
<time>2013-05-08T10:50:42.999Z</time>
</trkpt>
<trkpt lat="44.151782" lon="2.866734">
<ele>1019.6</ele>
<time>2013-05-08T10:50:43.999Z</time>
</trkpt>
<trkpt lat="44.151891" lon="2.866676">
<ele>1019.2</ele>
<time>2013-05-08T10:50:44.999Z</time>
</trkpt>
<trkpt lat="44.152005" lon="2.866622">
<ele>1018.8</ele>
<time>2013-05-08T10:50:45.999Z</time>
</trkpt>
<trkpt lat="44.152123" lon="2.866565">
<ele>1018.3</ele>
<time>2013-05-08T10:50:46.999Z</time>
</trkpt>
<trkpt lat="44.152248" lon="2.866501">
<ele>1017.5</ele>
<time>2013-05-08T10:50:47.999Z</time>
</trkpt>
<trkpt lat="44.152371" lon="2.866435">
<ele>1016.9</ele>
<time>2013-05-08T10:50:48.999Z</time>
</trkpt>
<trkpt lat="44.152491" lon="2.866368">
<ele>1016.4</ele>
<time>2013-05-08T10:50:49.999Z</time>
</trkpt>
<trkpt lat="44.152612" lon="2.866301">
<ele>1015.5</ele>
<time>2013-05-08T10:50:50.999Z</time>
</trkpt>
<trkpt lat="44.152754" lon="2.866234">
<ele>1014.5</ele>
<time>2013-05-08T10:50:51.999Z</time>
</trkpt>
<trkpt lat="44.1529" lon="2.866167">
<ele>1013.5</ele>
<time>2013-05-08T10:50:52.999Z</time>
</trkpt>
<trkpt lat="44.153066" lon="2.866089">
<ele>1012.8</ele>
<time>2013-05-08T10:50:53.999Z</time>
</trkpt>
<trkpt lat="44.153242" lon="2.865994">
<ele>1012.5</ele>
<time>2013-05-08T10:50:54.999Z</time>
</trkpt>
<trkpt lat="44.15344" lon="2.865889">
<ele>1012.6</ele>
<time>2013-05-08T10:50:55.999Z</time>
</trkpt>
<trkpt lat="44.153669" lon="2.865771">
<ele>1012.6</ele>
<time>2013-05-08T10:50:56.999Z</time>
</trkpt>
<trkpt lat="44.153915" lon="2.865645">
<ele>1012.5</ele>
<time>2013-05-08T10:50:57.999Z</time>
</trkpt>
<trkpt lat="44.154171" lon="2.865513">
<ele>1012.3</ele>
<time>2013-05-08T10:50:58.999Z</time>
</trkpt>
<trkpt lat="44.154428" lon="2.865377">
<ele>1012</ele>
<time>2013-05-08T10:50:59.999Z</time>
</trkpt>
<trkpt lat="44.154675" lon="2.865249">
<ele>1011.8</ele>
<time>2013-05-08T10:51:00.999Z</time>
</trkpt>
<trkpt lat="44.154918" lon="2.865111">
<ele>1011.4</ele>
<time>2013-05-08T10:51:01.999Z</time>
</trkpt>
<trkpt lat="44.155151" lon="2.86498">
<ele>1011.2</ele>
<time>2013-05-08T10:51:02.999Z</time>
</trkpt>
<trkpt lat="44.15538" lon="2.864842">
<ele>1010.8</ele>
<time>2013-05-08T10:51:03.999Z</time>
</trkpt>
<trkpt lat="44.155604" lon="2.864707">
<ele>1010.3</ele>
<time>2013-05-08T10:51:04.999Z</time>
</trkpt>
<trkpt lat="44.155825" lon="2.864556">
<ele>1009.8</ele>
<time>2013-05-08T10:51:05.999Z</time>
</trkpt>
<trkpt lat="44.156037" lon="2.864389">
<ele>1009.4</ele>
<time>2013-05-08T10:51:06.999Z</time>
</trkpt>
<trkpt lat="44.156244" lon="2.864208">
<ele>1009</ele>
<time>2013-05-08T10:51:07.999Z</time>
</trkpt>
<trkpt lat="44.156449" lon="2.86403">
<ele>1008.6</ele>
<time>2013-05-08T10:51:08.999Z</time>
</trkpt>
<trkpt lat="44.156644" lon="2.863857">
<ele>1008.1</ele>
<time>2013-05-08T10:51:09.999Z</time>
</trkpt>
<trkpt lat="44.156823" lon="2.863692">
<ele>1007.9</ele>
<time>2013-05-08T10:51:10.999Z</time>
</trkpt>
<trkpt lat="44.156994" lon="2.863527">
<ele>1007.5</ele>
<time>2013-05-08T10:51:11.999Z</time>
</trkpt>
<trkpt lat="44.157152" lon="2.863357">
<ele>1007.3</ele>
<time>2013-05-08T10:51:12.999Z</time>
</trkpt>
<trkpt lat="44.157302" lon="2.863163">
<ele>1007.2</ele>
<time>2013-05-08T10:51:13.999Z</time>
</trkpt>
<trkpt lat="44.157444" lon="2.862945">
<ele>1007.2</ele>
<time>2013-05-08T10:51:14.999Z</time>
</trkpt>
<trkpt lat="44.157571" lon="2.862712">
<ele>1007.3</ele>
<time>2013-05-08T10:51:15.999Z</time>
</trkpt>
<trkpt lat="44.157674" lon="2.862448">
<ele>1007.7</ele>
<time>2013-05-08T10:51:16.999Z</time>
</trkpt>
<trkpt lat="44.157773" lon="2.862191">
<ele>1007.9</ele>
<time>2013-05-08T10:51:17.999Z</time>
</trkpt>
<trkpt lat="44.157863" lon="2.861912">
<ele>1008.1</ele>
<time>2013-05-08T10:51:18.999Z</time>
</trkpt>
<trkpt lat="44.157952" lon="2.861635">
<ele>1008.2</ele>
<time>2013-05-08T10:51:19.999Z</time>
</trkpt>
<trkpt lat="44.158032" lon="2.861336">
<ele>1008.4</ele>
<time>2013-05-08T10:51:20.999Z</time>
</trkpt>
<trkpt lat="44.158106" lon="2.861014">
<ele>1008.8</ele>
<time>2013-05-08T10:51:21.999Z</time>
</trkpt>
<trkpt lat="44.158175" lon="2.860681">
<ele>1009.2</ele>
<time>2013-05-08T10:51:22.999Z</time>
</trkpt>
<trkpt lat="44.158243" lon="2.860316">
<ele>1009.5</ele>
<time>2013-05-08T10:51:23.999Z</time>
</trkpt>
<trkpt lat="44.158311" lon="2.85995">
<ele>1009.6</ele>
<time>2013-05-08T10:51:24.999Z</time>
</trkpt>
<trkpt lat="44.158382" lon="2.85959">
<ele>1009.8</ele>
<time>2013-05-08T10:51:25.999Z</time>
</trkpt>
<trkpt lat="44.158457" lon="2.859218">
<ele>1009.9</ele>
<time>2013-05-08T10:51:26.999Z</time>
</trkpt>
<trkpt lat="44.158533" lon="2.858851">
<ele>1009.9</ele>
<time>2013-05-08T10:51:27.999Z</time>
</trkpt>
<trkpt lat="44.158606" lon="2.858492">
<ele>1010</ele>
<time>2013-05-08T10:51:28.999Z</time>
</trkpt>
<trkpt lat="44.158677" lon="2.858134">
<ele>1009.9</ele>
<time>2013-05-08T10:51:29.999Z</time>
</trkpt>
<trkpt lat="44.158751" lon="2.857772">
<ele>1009.8</ele>
<time>2013-05-08T10:51:30.999Z</time>
</trkpt>
<trkpt lat="44.158826" lon="2.857416">
<ele>1009.5</ele>
<time>2013-05-08T10:51:31.999Z</time>
</trkpt>
<trkpt lat="44.158901" lon="2.857067">
<ele>1009.3</ele>
<time>2013-05-08T10:51:32.999Z</time>
</trkpt>
<trkpt lat="44.158974" lon="2.856732">
<ele>1009.3</ele>
<time>2013-05-08T10:51:33.999Z</time>
</trkpt>
<trkpt lat="44.159046" lon="2.856386">
<ele>1008.9</ele>
<time>2013-05-08T10:51:34.999Z</time>
</trkpt>
<trkpt lat="44.159126" lon="2.856028">
<ele>1008.4</ele>
<time>2013-05-08T10:51:35.999Z</time>
</trkpt>
<trkpt lat="44.159216" lon="2.855663">
<ele>1008.1</ele>
<time>2013-05-08T10:51:36.999Z</time>
</trkpt>
<trkpt lat="44.159311" lon="2.855271">
<ele>1007.8</ele>
<time>2013-05-08T10:51:37.999Z</time>
</trkpt>
<trkpt lat="44.159413" lon="2.85486">
<ele>1007.5</ele>
<time>2013-05-08T10:51:38.999Z</time>
</trkpt>
<trkpt lat="44.159525" lon="2.854442">
<ele>1007.4</ele>
<time>2013-05-08T10:51:39.999Z</time>
</trkpt>
<trkpt lat="44.159634" lon="2.854035">
<ele>1007.4</ele>
<time>2013-05-08T10:51:40.999Z</time>
</trkpt>
<trkpt lat="44.159745" lon="2.85363">
<ele>1007.5</ele>
<time>2013-05-08T10:51:41.999Z</time>
</trkpt>
<trkpt lat="44.159853" lon="2.853234">
<ele>1007.4</ele>
<time>2013-05-08T10:51:42.999Z</time>
</trkpt>
<trkpt lat="44.159951" lon="2.852861">
<ele>1007.6</ele>
<time>2013-05-08T10:51:43.999Z</time>
</trkpt>
<trkpt lat="44.160043" lon="2.852505">
<ele>1008</ele>
<time>2013-05-08T10:51:44.999Z</time>
</trkpt>
<trkpt lat="44.160129" lon="2.852167">
<ele>1008.5</ele>
<time>2013-05-08T10:51:45.999Z</time>
</trkpt>
<trkpt lat="44.160207" lon="2.851856">
<ele>1009.7</ele>
<time>2013-05-08T10:51:46.999Z</time>
</trkpt>
<trkpt lat="44.160286" lon="2.851532">
<ele>1010.7</ele>
<time>2013-05-08T10:51:47.999Z</time>
</trkpt>
<trkpt lat="44.160366" lon="2.8512">
<ele>1011.4</ele>
<time>2013-05-08T10:51:48.999Z</time>
</trkpt>
<trkpt lat="44.160441" lon="2.850878">
<ele>1012.6</ele>
<time>2013-05-08T10:51:49.999Z</time>
</trkpt>
<trkpt lat="44.160524" lon="2.850551">
<ele>1014.1</ele>
<time>2013-05-08T10:51:50.999Z</time>
</trkpt>
<trkpt lat="44.16061" lon="2.850215">
<ele>1015.5</ele>
<time>2013-05-08T10:51:51.999Z</time>
</trkpt>
<trkpt lat="44.160693" lon="2.849889">
<ele>1017.1</ele>
<time>2013-05-08T10:51:52.999Z</time>
</trkpt>
<trkpt lat="44.160782" lon="2.849561">
<ele>1018.8</ele>
<time>2013-05-08T10:51:53.999Z</time>
</trkpt>
<trkpt lat="44.16087" lon="2.849237">
<ele>1020.3</ele>
<time>2013-05-08T10:51:54.999Z</time>
</trkpt>
<trkpt lat="44.160955" lon="2.848917">
<ele>1021.8</ele>
<time>2013-05-08T10:51:55.999Z</time>
</trkpt>
<trkpt lat="44.161045" lon="2.848595">
<ele>1023.3</ele>
<time>2013-05-08T10:51:56.999Z</time>
</trkpt>
<trkpt lat="44.161133" lon="2.848268">
<ele>1024.3</ele>
<time>2013-05-08T10:51:57.999Z</time>
</trkpt>
<trkpt lat="44.161216" lon="2.847955">
<ele>1025.1</ele>
<time>2013-05-08T10:51:58.999Z</time>
</trkpt>
<trkpt lat="44.161301" lon="2.847636">
<ele>1025.9</ele>
<time>2013-05-08T10:51:59.999Z</time>
</trkpt>
<trkpt lat="44.161397" lon="2.847304">
<ele>1026.8</ele>
<time>2013-05-08T10:52:00.999Z</time>
</trkpt>
<trkpt lat="44.161486" lon="2.846969">
<ele>1027.5</ele>
<time>2013-05-08T10:52:01.999Z</time>
</trkpt>
<trkpt lat="44.161577" lon="2.846624">
<ele>1027.9</ele>
<time>2013-05-08T10:52:02.999Z</time>
</trkpt>
<trkpt lat="44.16167" lon="2.846275">
<ele>1028.2</ele>
<time>2013-05-08T10:52:03.999Z</time>
</trkpt>
<trkpt lat="44.161764" lon="2.845918">
<ele>1028.3</ele>
<time>2013-05-08T10:52:04.999Z</time>
</trkpt>
<trkpt lat="44.161864" lon="2.845552">
<ele>1028.2</ele>
<time>2013-05-08T10:52:05.999Z</time>
</trkpt>
<trkpt lat="44.161981" lon="2.845179">
<ele>1028.1</ele>
<time>2013-05-08T10:52:06.999Z</time>
</trkpt>
<trkpt lat="44.16212" lon="2.844804">
<ele>1027.9</ele>
<time>2013-05-08T10:52:07.999Z</time>
</trkpt>
<trkpt lat="44.162273" lon="2.844423">
<ele>1027.7</ele>
<time>2013-05-08T10:52:08.999Z</time>
</trkpt>
<trkpt lat="44.162425" lon="2.844042">
<ele>1027.5</ele>
<time>2013-05-08T10:52:09.999Z</time>
</trkpt>
<trkpt lat="44.162573" lon="2.843669">
<ele>1027.4</ele>
<time>2013-05-08T10:52:10.999Z</time>
</trkpt>
<trkpt lat="44.162718" lon="2.843301">
<ele>1027.2</ele>
<time>2013-05-08T10:52:11.999Z</time>
</trkpt>
<trkpt lat="44.162862" lon="2.842937">
<ele>1027</ele>
<time>2013-05-08T10:52:12.999Z</time>
</trkpt>
<trkpt lat="44.163002" lon="2.84258">
<ele>1026.6</ele>
<time>2013-05-08T10:52:13.999Z</time>
</trkpt>
<trkpt lat="44.163138" lon="2.842228">
<ele>1026.2</ele>
<time>2013-05-08T10:52:14.999Z</time>
</trkpt>
<trkpt lat="44.163272" lon="2.841885">
<ele>1026</ele>
<time>2013-05-08T10:52:15.999Z</time>
</trkpt>
<trkpt lat="44.1634" lon="2.841551">
<ele>1025.7</ele>
<time>2013-05-08T10:52:16.999Z</time>
</trkpt>
<trkpt lat="44.163526" lon="2.841234">
<ele>1025.9</ele>
<time>2013-05-08T10:52:17.999Z</time>
</trkpt>
<trkpt lat="44.163654" lon="2.840919">
<ele>1026.2</ele>
<time>2013-05-08T10:52:18.999Z</time>
</trkpt>
<trkpt lat="44.163779" lon="2.840607">
<ele>1026.4</ele>
<time>2013-05-08T10:52:19.999Z</time>
</trkpt>
<trkpt lat="44.163901" lon="2.840303">
<ele>1026.5</ele>
<time>2013-05-08T10:52:20.999Z</time>
</trkpt>
<trkpt lat="44.164019" lon="2.840003">
<ele>1026.7</ele>
<time>2013-05-08T10:52:21.999Z</time>
</trkpt>
<trkpt lat="44.164137" lon="2.839704">
<ele>1026.9</ele>
<time>2013-05-08T10:52:22.999Z</time>
</trkpt>
<trkpt lat="44.16425" lon="2.839421">
<ele>1027.3</ele>
<time>2013-05-08T10:52:23.999Z</time>
</trkpt>
<trkpt lat="44.164365" lon="2.839147">
<ele>1027.9</ele>
<time>2013-05-08T10:52:24.999Z</time>
</trkpt>
<trkpt lat="44.164479" lon="2.838869">
<ele>1028.3</ele>
<time>2013-05-08T10:52:25.999Z</time>
</trkpt>
<trkpt lat="44.164586" lon="2.838592">
<ele>1028.5</ele>
<time>2013-05-08T10:52:26.999Z</time>
</trkpt>
<trkpt lat="44.16468" lon="2.838313">
<ele>1028.7</ele>
<time>2013-05-08T10:52:27.999Z</time>
</trkpt>
<trkpt lat="44.164743" lon="2.838026">
<ele>1029.2</ele>
<time>2013-05-08T10:52:28.999Z</time>
</trkpt>
<trkpt lat="44.164775" lon="2.837725">
<ele>1029.9</ele>
<time>2013-05-08T10:52:29.999Z</time>
</trkpt>
<trkpt lat="44.164779" lon="2.83741">
<ele>1030.4</ele>
<time>2013-05-08T10:52:30.999Z</time>
</trkpt>
<trkpt lat="44.164767" lon="2.837097">
<ele>1030.4</ele>
<time>2013-05-08T10:52:31.999Z</time>
</trkpt>
<trkpt lat="44.164748" lon="2.836785">
<ele>1030.7</ele>
<time>2013-05-08T10:52:32.999Z</time>
</trkpt>
<trkpt lat="44.164714" lon="2.836471">
<ele>1031.1</ele>
<time>2013-05-08T10:52:33.999Z</time>
</trkpt>
<trkpt lat="44.164671" lon="2.836149">
<ele>1031.5</ele>
<time>2013-05-08T10:52:34.999Z</time>
</trkpt>
<trkpt lat="44.164636" lon="2.835833">
<ele>1031.6</ele>
<time>2013-05-08T10:52:35.999Z</time>
</trkpt>
<trkpt lat="44.16462" lon="2.835512">
<ele>1031.4</ele>
<time>2013-05-08T10:52:36.999Z</time>
</trkpt>
<trkpt lat="44.164627" lon="2.835201">
<ele>1031</ele>
<time>2013-05-08T10:52:37.999Z</time>
</trkpt>
<trkpt lat="44.164648" lon="2.834905">
<ele>1030.7</ele>
<time>2013-05-08T10:52:38.999Z</time>
</trkpt>
<trkpt lat="44.164674" lon="2.834625">
<ele>1030.4</ele>
<time>2013-05-08T10:52:39.999Z</time>
</trkpt>
<trkpt lat="44.164701" lon="2.834351">
<ele>1030</ele>
<time>2013-05-08T10:52:40.999Z</time>
</trkpt>
<trkpt lat="44.16473" lon="2.834089">
<ele>1029.8</ele>
<time>2013-05-08T10:52:41.999Z</time>
</trkpt>
<trkpt lat="44.164755" lon="2.83384">
<ele>1029.8</ele>
<time>2013-05-08T10:52:42.999Z</time>
</trkpt>
<trkpt lat="44.16476" lon="2.83361">
<ele>1030</ele>
<time>2013-05-08T10:52:43.999Z</time>
</trkpt>
<trkpt lat="44.164751" lon="2.833391">
<ele>1030.7</ele>
<time>2013-05-08T10:52:44.999Z</time>
</trkpt>
<trkpt lat="44.164683" lon="2.833191">
<ele>1031</ele>
<time>2013-05-08T10:52:45.999Z</time>
</trkpt>
<trkpt lat="44.164571" lon="2.833028">
<ele>1031.3</ele>
<time>2013-05-08T10:52:46.999Z</time>
</trkpt>
<trkpt lat="44.164451" lon="2.83288">
<ele>1031.6</ele>
<time>2013-05-08T10:52:47.999Z</time>
</trkpt>
<trkpt lat="44.16433" lon="2.83275">
<ele>1031.9</ele>
<time>2013-05-08T10:52:48.999Z</time>
</trkpt>
<trkpt lat="44.164213" lon="2.832644">
<ele>1032.1</ele>
<time>2013-05-08T10:52:49.999Z</time>
</trkpt>
<trkpt lat="44.164098" lon="2.83255">
<ele>1031.7</ele>
<time>2013-05-08T10:52:50.999Z</time>
</trkpt>
<trkpt lat="44.163991" lon="2.832467">
<ele>1031.1</ele>
<time>2013-05-08T10:52:51.999Z</time>
</trkpt>
<trkpt lat="44.163884" lon="2.832359">
<ele>1030.5</ele>
<time>2013-05-08T10:52:52.999Z</time>
</trkpt>
<trkpt lat="44.163805" lon="2.832184">
<ele>1029.9</ele>
<time>2013-05-08T10:52:53.999Z</time>
</trkpt>
<trkpt lat="44.163738" lon="2.831989">
<ele>1029.3</ele>
<time>2013-05-08T10:52:54.999Z</time>
</trkpt>
<trkpt lat="44.163726" lon="2.831763">
<ele>1028.9</ele>
<time>2013-05-08T10:52:55.999Z</time>
</trkpt>
<trkpt lat="44.163758" lon="2.831535">
<ele>1028.6</ele>
<time>2013-05-08T10:52:56.999Z</time>
</trkpt>
<trkpt lat="44.163807" lon="2.831292">
<ele>1028.3</ele>
<time>2013-05-08T10:52:57.999Z</time>
</trkpt>
<trkpt lat="44.163875" lon="2.831041">
<ele>1028</ele>
<time>2013-05-08T10:52:58.999Z</time>
</trkpt>
<trkpt lat="44.163953" lon="2.83079">
<ele>1027.8</ele>
<time>2013-05-08T10:52:59.999Z</time>
</trkpt>
<trkpt lat="44.164054" lon="2.830542">
<ele>1027.5</ele>
<time>2013-05-08T10:53:00.999Z</time>
</trkpt>
<trkpt lat="44.164147" lon="2.830307">
<ele>1027.1</ele>
<time>2013-05-08T10:53:01.999Z</time>
</trkpt>
<trkpt lat="44.164244" lon="2.830067">
<ele>1026.9</ele>
<time>2013-05-08T10:53:02.999Z</time>
</trkpt>
<trkpt lat="44.164335" lon="2.829842">
<ele>1026.7</ele>
<time>2013-05-08T10:53:03.999Z</time>
</trkpt>
<trkpt lat="44.164419" lon="2.829627">
<ele>1026.5</ele>
<time>2013-05-08T10:53:04.999Z</time>
</trkpt>
<trkpt lat="44.164497" lon="2.829421">
<ele>1026.4</ele>
<time>2013-05-08T10:53:05.999Z</time>
</trkpt>
<trkpt lat="44.164574" lon="2.82921">
<ele>1025.9</ele>
<time>2013-05-08T10:53:06.999Z</time>
</trkpt>
<trkpt lat="44.16465" lon="2.828998">
<ele>1025.3</ele>
<time>2013-05-08T10:53:07.999Z</time>
</trkpt>
<trkpt lat="44.164711" lon="2.828777">
<ele>1024.7</ele>
<time>2013-05-08T10:53:08.999Z</time>
</trkpt>
<trkpt lat="44.164716" lon="2.828522">
<ele>1024.4</ele>
<time>2013-05-08T10:53:09.999Z</time>
</trkpt>
<trkpt lat="44.164712" lon="2.828244">
<ele>1024.5</ele>
<time>2013-05-08T10:53:10.999Z</time>
</trkpt>
<trkpt lat="44.164692" lon="2.827981">
<ele>1024.8</ele>
<time>2013-05-08T10:53:11.999Z</time>
</trkpt>
<trkpt lat="44.164633" lon="2.827687">
<ele>1024.5</ele>
<time>2013-05-08T10:53:12.999Z</time>
</trkpt>
<trkpt lat="44.164557" lon="2.827394">
<ele>1024.1</ele>
<time>2013-05-08T10:53:13.999Z</time>
</trkpt>
<trkpt lat="44.164476" lon="2.827107">
<ele>1023.9</ele>
<time>2013-05-08T10:53:14.999Z</time>
</trkpt>
<trkpt lat="44.1644" lon="2.826829">
<ele>1023.6</ele>
<time>2013-05-08T10:53:15.999Z</time>
</trkpt>
<trkpt lat="44.164331" lon="2.826558">
<ele>1023.2</ele>
<time>2013-05-08T10:53:16.999Z</time>
</trkpt>
<trkpt lat="44.164266" lon="2.826299">
<ele>1023</ele>
<time>2013-05-08T10:53:17.999Z</time>
</trkpt>
<trkpt lat="44.164207" lon="2.826061">
<ele>1022.9</ele>
<time>2013-05-08T10:53:18.999Z</time>
</trkpt>
<trkpt lat="44.164137" lon="2.825842">
<ele>1022.7</ele>
<time>2013-05-08T10:53:19.999Z</time>
</trkpt>
<trkpt lat="44.164028" lon="2.825653">
<ele>1023</ele>
<time>2013-05-08T10:53:20.999Z</time>
</trkpt>
<trkpt lat="44.163886" lon="2.825497">
<ele>1023.5</ele>
<time>2013-05-08T10:53:21.999Z</time>
</trkpt>
<trkpt lat="44.163739" lon="2.825348">
<ele>1024.2</ele>
<time>2013-05-08T10:53:22.999Z</time>
</trkpt>
<trkpt lat="44.163583" lon="2.825203">
<ele>1024.4</ele>
<time>2013-05-08T10:53:23.999Z</time>
</trkpt>
<trkpt lat="44.163427" lon="2.825073">
<ele>1024.6</ele>
<time>2013-05-08T10:53:24.999Z</time>
</trkpt>
<trkpt lat="44.163301" lon="2.824917">
<ele>1024.3</ele>
<time>2013-05-08T10:53:25.999Z</time>
</trkpt>
<trkpt lat="44.163223" lon="2.824706">
<ele>1023.8</ele>
<time>2013-05-08T10:53:26.999Z</time>
</trkpt>
<trkpt lat="44.163148" lon="2.824493">
<ele>1023.4</ele>
<time>2013-05-08T10:53:27.999Z</time>
</trkpt>
<trkpt lat="44.163093" lon="2.824272">
<ele>1022.8</ele>
<time>2013-05-08T10:53:28.999Z</time>
</trkpt>
<trkpt lat="44.163044" lon="2.824025">
<ele>1022.3</ele>
<time>2013-05-08T10:53:29.999Z</time>
</trkpt>
<trkpt lat="44.163" lon="2.82377">
<ele>1022.4</ele>
<time>2013-05-08T10:53:30.999Z</time>
</trkpt>
<trkpt lat="44.162965" lon="2.823522">
<ele>1022.6</ele>
<time>2013-05-08T10:53:31.999Z</time>
</trkpt>
<trkpt lat="44.162934" lon="2.823287">
<ele>1022.8</ele>
<time>2013-05-08T10:53:32.999Z</time>
</trkpt>
<trkpt lat="44.162905" lon="2.823058">
<ele>1022.9</ele>
<time>2013-05-08T10:53:33.999Z</time>
</trkpt>
<trkpt lat="44.162877" lon="2.822837">
<ele>1023</ele>
<time>2013-05-08T10:53:34.999Z</time>
</trkpt>
<trkpt lat="44.162812" lon="2.822635">
<ele>1023</ele>
<time>2013-05-08T10:53:35.999Z</time>
</trkpt>
<trkpt lat="44.162703" lon="2.822453">
<ele>1022.8</ele>
<time>2013-05-08T10:53:36.999Z</time>
</trkpt>
<trkpt lat="44.162589" lon="2.822319">
<ele>1022.6</ele>
<time>2013-05-08T10:53:37.999Z</time>
</trkpt>
<trkpt lat="44.162436" lon="2.822236">
<ele>1022.3</ele>
<time>2013-05-08T10:53:38.999Z</time>
</trkpt>
<trkpt lat="44.162288" lon="2.822162">
<ele>1022.3</ele>
<time>2013-05-08T10:53:39.999Z</time>
</trkpt>
<trkpt lat="44.162132" lon="2.822059">
<ele>1022.3</ele>
<time>2013-05-08T10:53:40.999Z</time>
</trkpt>
<trkpt lat="44.161995" lon="2.821894">
<ele>1022.3</ele>
<time>2013-05-08T10:53:41.999Z</time>
</trkpt>
<trkpt lat="44.161893" lon="2.821686">
<ele>1022</ele>
<time>2013-05-08T10:53:42.999Z</time>
</trkpt>
<trkpt lat="44.161824" lon="2.821455">
<ele>1022</ele>
<time>2013-05-08T10:53:43.999Z</time>
</trkpt>
<trkpt lat="44.161796" lon="2.821204">
<ele>1022</ele>
<time>2013-05-08T10:53:44.999Z</time>
</trkpt>
<trkpt lat="44.1618" lon="2.820969">
<ele>1022.7</ele>
<time>2013-05-08T10:53:45.999Z</time>
</trkpt>
<trkpt lat="44.161841" lon="2.820727">
<ele>1023.3</ele>
<time>2013-05-08T10:53:46.999Z</time>
</trkpt>
<trkpt lat="44.161907" lon="2.820482">
<ele>1023.7</ele>
<time>2013-05-08T10:53:47.999Z</time>
</trkpt>
<trkpt lat="44.161973" lon="2.820225">
<ele>1023.5</ele>
<time>2013-05-08T10:53:48.999Z</time>
</trkpt>
<trkpt lat="44.162047" lon="2.819967">
<ele>1023.4</ele>
<time>2013-05-08T10:53:49.999Z</time>
</trkpt>
<trkpt lat="44.162121" lon="2.819699">
<ele>1022.9</ele>
<time>2013-05-08T10:53:50.999Z</time>
</trkpt>
<trkpt lat="44.162191" lon="2.81944">
<ele>1022.7</ele>
<time>2013-05-08T10:53:51.999Z</time>
</trkpt>
<trkpt lat="44.162264" lon="2.819174">
<ele>1023.3</ele>
<time>2013-05-08T10:53:52.999Z</time>
</trkpt>
<trkpt lat="44.162312" lon="2.818906">
<ele>1024.2</ele>
<time>2013-05-08T10:53:53.999Z</time>
</trkpt>
<trkpt lat="44.162333" lon="2.818626">
<ele>1025</ele>
<time>2013-05-08T10:53:54.999Z</time>
</trkpt>
<trkpt lat="44.162337" lon="2.818337">
<ele>1025.7</ele>
<time>2013-05-08T10:53:55.999Z</time>
</trkpt>
<trkpt lat="44.16232" lon="2.818034">
<ele>1026.3</ele>
<time>2013-05-08T10:53:56.999Z</time>
</trkpt>
<trkpt lat="44.162283" lon="2.817716">
<ele>1026.9</ele>
<time>2013-05-08T10:53:57.999Z</time>
</trkpt>
<trkpt lat="44.162236" lon="2.817398">
<ele>1027.2</ele>
<time>2013-05-08T10:53:58.999Z</time>
</trkpt>
<trkpt lat="44.162183" lon="2.817069">
<ele>1027.4</ele>
<time>2013-05-08T10:53:59.999Z</time>
</trkpt>
<trkpt lat="44.162129" lon="2.816748">
<ele>1027.7</ele>
<time>2013-05-08T10:54:00.999Z</time>
</trkpt>
<trkpt lat="44.162069" lon="2.81642">
<ele>1028.2</ele>
<time>2013-05-08T10:54:01.999Z</time>
</trkpt>
<trkpt lat="44.162006" lon="2.816092">
<ele>1028.7</ele>
<time>2013-05-08T10:54:02.999Z</time>
</trkpt>
<trkpt lat="44.161944" lon="2.815765">
<ele>1029.1</ele>
<time>2013-05-08T10:54:03.999Z</time>
</trkpt>
<trkpt lat="44.161879" lon="2.815437">
<ele>1029.6</ele>
<time>2013-05-08T10:54:04.999Z</time>
</trkpt>
<trkpt lat="44.161816" lon="2.815104">
<ele>1029.8</ele>
<time>2013-05-08T10:54:05.999Z</time>
</trkpt>
<trkpt lat="44.161755" lon="2.814774">
<ele>1029.9</ele>
<time>2013-05-08T10:54:06.999Z</time>
</trkpt>
<trkpt lat="44.161695" lon="2.814449">
<ele>1030</ele>
<time>2013-05-08T10:54:07.999Z</time>
</trkpt>
<trkpt lat="44.161629" lon="2.814131">
<ele>1030</ele>
<time>2013-05-08T10:54:08.999Z</time>
</trkpt>
<trkpt lat="44.161541" lon="2.813822">
<ele>1030.1</ele>
<time>2013-05-08T10:54:09.999Z</time>
</trkpt>
<trkpt lat="44.16144" lon="2.813529">
<ele>1030.4</ele>
<time>2013-05-08T10:54:10.999Z</time>
</trkpt>
<trkpt lat="44.161302" lon="2.813245">
<ele>1031.4</ele>
<time>2013-05-08T10:54:11.999Z</time>
</trkpt>
<trkpt lat="44.161171" lon="2.812973">
<ele>1032.2</ele>
<time>2013-05-08T10:54:12.999Z</time>
</trkpt>
<trkpt lat="44.161031" lon="2.812708">
<ele>1033.1</ele>
<time>2013-05-08T10:54:13.999Z</time>
</trkpt>
<trkpt lat="44.160887" lon="2.812467">
<ele>1033.7</ele>
<time>2013-05-08T10:54:14.999Z</time>
</trkpt>
<trkpt lat="44.16074" lon="2.812251">
<ele>1033.8</ele>
<time>2013-05-08T10:54:15.999Z</time>
</trkpt>
<trkpt lat="44.160583" lon="2.812069">
<ele>1033.7</ele>
<time>2013-05-08T10:54:16.999Z</time>
</trkpt>
<trkpt lat="44.160435" lon="2.811894">
<ele>1033.4</ele>
<time>2013-05-08T10:54:17.999Z</time>
</trkpt>
<trkpt lat="44.160294" lon="2.811716">
<ele>1032.8</ele>
<time>2013-05-08T10:54:18.999Z</time>
</trkpt>
<trkpt lat="44.160172" lon="2.811521">
<ele>1032</ele>
<time>2013-05-08T10:54:19.999Z</time>
</trkpt>
<trkpt lat="44.160067" lon="2.811314">
<ele>1031.1</ele>
<time>2013-05-08T10:54:20.999Z</time>
</trkpt>
<trkpt lat="44.159993" lon="2.811079">
<ele>1030.5</ele>
<time>2013-05-08T10:54:21.999Z</time>
</trkpt>
<trkpt lat="44.159973" lon="2.810818">
<ele>1030.3</ele>
<time>2013-05-08T10:54:22.999Z</time>
</trkpt>
<trkpt lat="44.159994" lon="2.81055">
<ele>1030.3</ele>
<time>2013-05-08T10:54:23.999Z</time>
</trkpt>
<trkpt lat="44.160058" lon="2.810284">
<ele>1030.3</ele>
<time>2013-05-08T10:54:24.999Z</time>
</trkpt>
<trkpt lat="44.160157" lon="2.810009">
<ele>1030.3</ele>
<time>2013-05-08T10:54:25.999Z</time>
</trkpt>
<trkpt lat="44.160273" lon="2.809749">
<ele>1030.5</ele>
<time>2013-05-08T10:54:26.999Z</time>
</trkpt>
<trkpt lat="44.160407" lon="2.809514">
<ele>1030.7</ele>
<time>2013-05-08T10:54:27.999Z</time>
</trkpt>
<trkpt lat="44.160535" lon="2.809277">
<ele>1031.1</ele>
<time>2013-05-08T10:54:28.999Z</time>
</trkpt>
<trkpt lat="44.160647" lon="2.809046">
<ele>1031.5</ele>
<time>2013-05-08T10:54:29.999Z</time>
</trkpt>
<trkpt lat="44.160748" lon="2.808807">
<ele>1031.7</ele>
<time>2013-05-08T10:54:30.999Z</time>
</trkpt>
<trkpt lat="44.160831" lon="2.808561">
<ele>1031.8</ele>
<time>2013-05-08T10:54:31.999Z</time>
</trkpt>
<trkpt lat="44.160896" lon="2.808324">
<ele>1032.1</ele>
<time>2013-05-08T10:54:32.999Z</time>
</trkpt>
<trkpt lat="44.16095" lon="2.808075">
<ele>1032.5</ele>
<time>2013-05-08T10:54:33.999Z</time>
</trkpt>
<trkpt lat="44.160982" lon="2.807811">
<ele>1032.9</ele>
<time>2013-05-08T10:54:34.999Z</time>
</trkpt>
<trkpt lat="44.16101" lon="2.807515">
<ele>1033.5</ele>
<time>2013-05-08T10:54:35.999Z</time>
</trkpt>
<trkpt lat="44.161022" lon="2.80722">
<ele>1033.8</ele>
<time>2013-05-08T10:54:36.999Z</time>
</trkpt>
<trkpt lat="44.161041" lon="2.806912">
<ele>1033.6</ele>
<time>2013-05-08T10:54:37.999Z</time>
</trkpt>
<trkpt lat="44.161082" lon="2.806608">
<ele>1033</ele>
<time>2013-05-08T10:54:38.999Z</time>
</trkpt>
<trkpt lat="44.161155" lon="2.806317">
<ele>1032.7</ele>
<time>2013-05-08T10:54:39.999Z</time>
</trkpt>
<trkpt lat="44.161276" lon="2.806056">
<ele>1032.7</ele>
<time>2013-05-08T10:54:40.999Z</time>
</trkpt>
<trkpt lat="44.16141" lon="2.805811">
<ele>1032.8</ele>
<time>2013-05-08T10:54:41.999Z</time>
</trkpt>
<trkpt lat="44.16156" lon="2.805559">
<ele>1033.1</ele>
<time>2013-05-08T10:54:42.999Z</time>
</trkpt>
<trkpt lat="44.161701" lon="2.805311">
<ele>1033.5</ele>
<time>2013-05-08T10:54:43.999Z</time>
</trkpt>
<trkpt lat="44.161834" lon="2.805068">
<ele>1034</ele>
<time>2013-05-08T10:54:44.999Z</time>
</trkpt>
<trkpt lat="44.161955" lon="2.804824">
<ele>1034.5</ele>
<time>2013-05-08T10:54:45.999Z</time>
</trkpt>
<trkpt lat="44.162053" lon="2.804567">
<ele>1034.8</ele>
<time>2013-05-08T10:54:46.999Z</time>
</trkpt>
<trkpt lat="44.162125" lon="2.804283">
<ele>1035.4</ele>
<time>2013-05-08T10:54:47.999Z</time>
</trkpt>
<trkpt lat="44.162192" lon="2.803992">
<ele>1035.8</ele>
<time>2013-05-08T10:54:48.999Z</time>
</trkpt>
<trkpt lat="44.162252" lon="2.803675">
<ele>1036.1</ele>
<time>2013-05-08T10:54:49.999Z</time>
</trkpt>
<trkpt lat="44.162314" lon="2.803352">
<ele>1036.4</ele>
<time>2013-05-08T10:54:50.999Z</time>
</trkpt>
<trkpt lat="44.162374" lon="2.803018">
<ele>1036.6</ele>
<time>2013-05-08T10:54:51.999Z</time>
</trkpt>
<trkpt lat="44.162433" lon="2.802686">
<ele>1036.7</ele>
<time>2013-05-08T10:54:52.999Z</time>
</trkpt>
<trkpt lat="44.162495" lon="2.802346">
<ele>1036.4</ele>
<time>2013-05-08T10:54:53.999Z</time>
</trkpt>
<trkpt lat="44.162556" lon="2.80201">
<ele>1035.9</ele>
<time>2013-05-08T10:54:54.999Z</time>
</trkpt>
<trkpt lat="44.162615" lon="2.801679">
<ele>1035.2</ele>
<time>2013-05-08T10:54:55.999Z</time>
</trkpt>
<trkpt lat="44.162672" lon="2.801345">
<ele>1034.5</ele>
<time>2013-05-08T10:54:56.999Z</time>
</trkpt>
<trkpt lat="44.162729" lon="2.801009">
<ele>1033.7</ele>
<time>2013-05-08T10:54:57.999Z</time>
</trkpt>
<trkpt lat="44.162788" lon="2.800675">
<ele>1032.7</ele>
<time>2013-05-08T10:54:58.999Z</time>
</trkpt>
<trkpt lat="44.162858" lon="2.800341">
<ele>1031.5</ele>
<time>2013-05-08T10:54:59.999Z</time>
</trkpt>
<trkpt lat="44.162935" lon="2.800019">
<ele>1030</ele>
<time>2013-05-08T10:55:00.999Z</time>
</trkpt>
<trkpt lat="44.16301" lon="2.799704">
<ele>1028.3</ele>
<time>2013-05-08T10:55:01.999Z</time>
</trkpt>
<trkpt lat="44.163082" lon="2.799399">
<ele>1026.6</ele>
<time>2013-05-08T10:55:02.999Z</time>
</trkpt>
<trkpt lat="44.163155" lon="2.799111">
<ele>1025.2</ele>
<time>2013-05-08T10:55:03.999Z</time>
</trkpt>
<trkpt lat="44.163219" lon="2.798846">
<ele>1024</ele>
<time>2013-05-08T10:55:04.999Z</time>
</trkpt>
<trkpt lat="44.163275" lon="2.798588">
<ele>1023</ele>
<time>2013-05-08T10:55:05.999Z</time>
</trkpt>
<trkpt lat="44.163323" lon="2.798321">
<ele>1021.9</ele>
<time>2013-05-08T10:55:06.999Z</time>
</trkpt>
<trkpt lat="44.163367" lon="2.798048">
<ele>1020.9</ele>
<time>2013-05-08T10:55:07.999Z</time>
</trkpt>
<trkpt lat="44.163413" lon="2.797766">
<ele>1019.9</ele>
<time>2013-05-08T10:55:08.999Z</time>
</trkpt>
<trkpt lat="44.163479" lon="2.79748">
<ele>1019.1</ele>
<time>2013-05-08T10:55:09.999Z</time>
</trkpt>
<trkpt lat="44.163569" lon="2.797198">
<ele>1018.2</ele>
<time>2013-05-08T10:55:10.999Z</time>
</trkpt>
<trkpt lat="44.163703" lon="2.796935">
<ele>1017.1</ele>
<time>2013-05-08T10:55:11.999Z</time>
</trkpt>
<trkpt lat="44.163869" lon="2.796699">
<ele>1015.8</ele>
<time>2013-05-08T10:55:12.999Z</time>
</trkpt>
<trkpt lat="44.164057" lon="2.796493">
<ele>1014.4</ele>
<time>2013-05-08T10:55:13.999Z</time>
</trkpt>
<trkpt lat="44.164283" lon="2.796349">
<ele>1013.1</ele>
<time>2013-05-08T10:55:14.999Z</time>
</trkpt>
<trkpt lat="44.16452" lon="2.796226">
<ele>1011.8</ele>
<time>2013-05-08T10:55:15.999Z</time>
</trkpt>
<trkpt lat="44.164779" lon="2.796139">
<ele>1010.2</ele>
<time>2013-05-08T10:55:16.999Z</time>
</trkpt>
<trkpt lat="44.165033" lon="2.796034">
<ele>1008.9</ele>
<time>2013-05-08T10:55:17.999Z</time>
</trkpt>
<trkpt lat="44.165279" lon="2.795924">
<ele>1007.5</ele>
<time>2013-05-08T10:55:18.999Z</time>
</trkpt>
<trkpt lat="44.165523" lon="2.795812">
<ele>1006</ele>
<time>2013-05-08T10:55:19.999Z</time>
</trkpt>
<trkpt lat="44.165764" lon="2.795697">
<ele>1004.6</ele>
<time>2013-05-08T10:55:20.999Z</time>
</trkpt>
<trkpt lat="44.166002" lon="2.795583">
<ele>1003.2</ele>
<time>2013-05-08T10:55:21.999Z</time>
</trkpt>
<trkpt lat="44.166239" lon="2.795471">
<ele>1002</ele>
<time>2013-05-08T10:55:22.999Z</time>
</trkpt>
<trkpt lat="44.166476" lon="2.795357">
<ele>1001</ele>
<time>2013-05-08T10:55:23.999Z</time>
</trkpt>
<trkpt lat="44.166708" lon="2.795239">
<ele>1000</ele>
<time>2013-05-08T10:55:24.999Z</time>
</trkpt>
<trkpt lat="44.166938" lon="2.795106">
<ele>999.1</ele>
<time>2013-05-08T10:55:25.999Z</time>
</trkpt>
<trkpt lat="44.167169" lon="2.794963">
<ele>998.1</ele>
<time>2013-05-08T10:55:26.999Z</time>
</trkpt>
<trkpt lat="44.167389" lon="2.79482">
<ele>997.1</ele>
<time>2013-05-08T10:55:27.999Z</time>
</trkpt>
<trkpt lat="44.16762" lon="2.794674">
<ele>995.9</ele>
<time>2013-05-08T10:55:28.999Z</time>
</trkpt>
<trkpt lat="44.167844" lon="2.794525">
<ele>994.8</ele>
<time>2013-05-08T10:55:29.999Z</time>
</trkpt>
<trkpt lat="44.16807" lon="2.794372">
<ele>993.3</ele>
<time>2013-05-08T10:55:30.999Z</time>
</trkpt>
<trkpt lat="44.168288" lon="2.79421">
<ele>991.6</ele>
<time>2013-05-08T10:55:31.999Z</time>
</trkpt>
<trkpt lat="44.168493" lon="2.794029">
<ele>990.3</ele>
<time>2013-05-08T10:55:32.999Z</time>
</trkpt>
<trkpt lat="44.168698" lon="2.793847">
<ele>989.1</ele>
<time>2013-05-08T10:55:33.999Z</time>
</trkpt>
<trkpt lat="44.1689" lon="2.793666">
<ele>987.9</ele>
<time>2013-05-08T10:55:34.999Z</time>
</trkpt>
<trkpt lat="44.169098" lon="2.793474">
<ele>986.6</ele>
<time>2013-05-08T10:55:35.999Z</time>
</trkpt>
<trkpt lat="44.169295" lon="2.793286">
<ele>985.2</ele>
<time>2013-05-08T10:55:36.999Z</time>
</trkpt>
<trkpt lat="44.169494" lon="2.793098">
<ele>983.7</ele>
<time>2013-05-08T10:55:37.999Z</time>
</trkpt>
<trkpt lat="44.169692" lon="2.792908">
<ele>982.3</ele>
<time>2013-05-08T10:55:38.999Z</time>
</trkpt>
<trkpt lat="44.169889" lon="2.792715">
<ele>980.8</ele>
<time>2013-05-08T10:55:39.999Z</time>
</trkpt>
<trkpt lat="44.170087" lon="2.79252">
<ele>979.3</ele>
<time>2013-05-08T10:55:40.999Z</time>
</trkpt>
<trkpt lat="44.170284" lon="2.792327">
<ele>977.8</ele>
<time>2013-05-08T10:55:41.999Z</time>
</trkpt>
<trkpt lat="44.170486" lon="2.792134">
<ele>976.3</ele>
<time>2013-05-08T10:55:42.999Z</time>
</trkpt>
<trkpt lat="44.17068" lon="2.791947">
<ele>975</ele>
<time>2013-05-08T10:55:43.999Z</time>
</trkpt>
<trkpt lat="44.170865" lon="2.791721">
<ele>973.3</ele>
<time>2013-05-08T10:55:44.999Z</time>
</trkpt>
<trkpt lat="44.171032" lon="2.791481">
<ele>971.5</ele>
<time>2013-05-08T10:55:45.999Z</time>
</trkpt>
<trkpt lat="44.171178" lon="2.791228">
<ele>969.6</ele>
<time>2013-05-08T10:55:46.999Z</time>
</trkpt>
<trkpt lat="44.171307" lon="2.790963">
<ele>968</ele>
<time>2013-05-08T10:55:47.999Z</time>
</trkpt>
<trkpt lat="44.171408" lon="2.790704">
<ele>966.3</ele>
<time>2013-05-08T10:55:48.999Z</time>
</trkpt>
<trkpt lat="44.171519" lon="2.790452">
<ele>964.5</ele>
<time>2013-05-08T10:55:49.999Z</time>
</trkpt>
<trkpt lat="44.171622" lon="2.790213">
<ele>962.8</ele>
<time>2013-05-08T10:55:50.999Z</time>
</trkpt>
<trkpt lat="44.171736" lon="2.78999">
<ele>961.1</ele>
<time>2013-05-08T10:55:51.999Z</time>
</trkpt>
<trkpt lat="44.171857" lon="2.789799">
<ele>959.7</ele>
<time>2013-05-08T10:55:52.999Z</time>
</trkpt>
<trkpt lat="44.172009" lon="2.789658">
<ele>958.7</ele>
<time>2013-05-08T10:55:53.999Z</time>
</trkpt>
<trkpt lat="44.172191" lon="2.7896">
<ele>957.7</ele>
<time>2013-05-08T10:55:54.999Z</time>
</trkpt>
<trkpt lat="44.172398" lon="2.789599">
<ele>956.7</ele>
<time>2013-05-08T10:55:55.999Z</time>
</trkpt>
<trkpt lat="44.172613" lon="2.789622">
<ele>955.8</ele>
<time>2013-05-08T10:55:56.999Z</time>
</trkpt>
<trkpt lat="44.172831" lon="2.789659">
<ele>954.7</ele>
<time>2013-05-08T10:55:57.999Z</time>
</trkpt>
<trkpt lat="44.173048" lon="2.789726">
<ele>953.6</ele>
<time>2013-05-08T10:55:58.999Z</time>
</trkpt>
<trkpt lat="44.173264" lon="2.789786">
<ele>952.5</ele>
<time>2013-05-08T10:55:59.999Z</time>
</trkpt>
<trkpt lat="44.173479" lon="2.789856">
<ele>951.6</ele>
<time>2013-05-08T10:56:00.999Z</time>
</trkpt>
<trkpt lat="44.173682" lon="2.789918">
<ele>950.4</ele>
<time>2013-05-08T10:56:01.999Z</time>
</trkpt>
<trkpt lat="44.173896" lon="2.789992">
<ele>949.3</ele>
<time>2013-05-08T10:56:02.999Z</time>
</trkpt>
<trkpt lat="44.174092" lon="2.790041">
<ele>948.3</ele>
<time>2013-05-08T10:56:03.999Z</time>
</trkpt>
<trkpt lat="44.174286" lon="2.790088">
<ele>947.4</ele>
<time>2013-05-08T10:56:04.999Z</time>
</trkpt>
<trkpt lat="44.174478" lon="2.790135">
<ele>946.5</ele>
<time>2013-05-08T10:56:05.999Z</time>
</trkpt>
<trkpt lat="44.174675" lon="2.790182">
<ele>945.6</ele>
<time>2013-05-08T10:56:06.999Z</time>
</trkpt>
<trkpt lat="44.174878" lon="2.790259">
<ele>944.9</ele>
<time>2013-05-08T10:56:07.999Z</time>
</trkpt>
<trkpt lat="44.175081" lon="2.790356">
<ele>944.1</ele>
<time>2013-05-08T10:56:08.999Z</time>
</trkpt>
<trkpt lat="44.175267" lon="2.7905">
<ele>943.6</ele>
<time>2013-05-08T10:56:09.999Z</time>
</trkpt>
<trkpt lat="44.175442" lon="2.790658">
<ele>943.2</ele>
<time>2013-05-08T10:56:10.999Z</time>
</trkpt>
<trkpt lat="44.17562" lon="2.790815">
<ele>942.3</ele>
<time>2013-05-08T10:56:11.999Z</time>
</trkpt>
<trkpt lat="44.17579" lon="2.790948">
<ele>941.6</ele>
<time>2013-05-08T10:56:12.999Z</time>
</trkpt>
<trkpt lat="44.175952" lon="2.791065">
<ele>941.3</ele>
<time>2013-05-08T10:56:13.999Z</time>
</trkpt>
<trkpt lat="44.176114" lon="2.79118">
<ele>941.1</ele>
<time>2013-05-08T10:56:14.999Z</time>
</trkpt>
<trkpt lat="44.176257" lon="2.791332">
<ele>940.9</ele>
<time>2013-05-08T10:56:15.999Z</time>
</trkpt>
<trkpt lat="44.176395" lon="2.791491">
<ele>940.6</ele>
<time>2013-05-08T10:56:16.999Z</time>
</trkpt>
<trkpt lat="44.176533" lon="2.791651">
<ele>940.3</ele>
<time>2013-05-08T10:56:17.999Z</time>
</trkpt>
<trkpt lat="44.176688" lon="2.791793">
<ele>940</ele>
<time>2013-05-08T10:56:18.999Z</time>
</trkpt>
<trkpt lat="44.176846" lon="2.791912">
<ele>939.5</ele>
<time>2013-05-08T10:56:19.999Z</time>
</trkpt>
<trkpt lat="44.17703" lon="2.791935">
<ele>938.7</ele>
<time>2013-05-08T10:56:20.999Z</time>
</trkpt>
<trkpt lat="44.177222" lon="2.791924">
<ele>937.6</ele>
<time>2013-05-08T10:56:21.999Z</time>
</trkpt>
<trkpt lat="44.177423" lon="2.791879">
<ele>936.4</ele>
<time>2013-05-08T10:56:22.999Z</time>
</trkpt>
<trkpt lat="44.177629" lon="2.791829">
<ele>935.3</ele>
<time>2013-05-08T10:56:23.999Z</time>
</trkpt>
<trkpt lat="44.17783" lon="2.791783">
<ele>934.3</ele>
<time>2013-05-08T10:56:24.999Z</time>
</trkpt>
<trkpt lat="44.178029" lon="2.791749">
<ele>933.4</ele>
<time>2013-05-08T10:56:25.999Z</time>
</trkpt>
<trkpt lat="44.178224" lon="2.791732">
<ele>932.7</ele>
<time>2013-05-08T10:56:26.999Z</time>
</trkpt>
<trkpt lat="44.178424" lon="2.791729">
<ele>931.9</ele>
<time>2013-05-08T10:56:27.999Z</time>
</trkpt>
<trkpt lat="44.178626" lon="2.791753">
<ele>931</ele>
<time>2013-05-08T10:56:28.999Z</time>
</trkpt>
<trkpt lat="44.178825" lon="2.79183">
<ele>930.2</ele>
<time>2013-05-08T10:56:29.999Z</time>
</trkpt>
<trkpt lat="44.179003" lon="2.791931">
<ele>930</ele>
<time>2013-05-08T10:56:30.999Z</time>
</trkpt>
<trkpt lat="44.179177" lon="2.792032">
<ele>929.6</ele>
<time>2013-05-08T10:56:31.999Z</time>
</trkpt>
<trkpt lat="44.179341" lon="2.792108">
<ele>929.3</ele>
<time>2013-05-08T10:56:32.999Z</time>
</trkpt>
<trkpt lat="44.179495" lon="2.792161">
<ele>928.6</ele>
<time>2013-05-08T10:56:33.999Z</time>
</trkpt>
<trkpt lat="44.179657" lon="2.792203">
<ele>927.7</ele>
<time>2013-05-08T10:56:34.999Z</time>
</trkpt>
<trkpt lat="44.179818" lon="2.792241">
<ele>926.5</ele>
<time>2013-05-08T10:56:35.999Z</time>
</trkpt>
<trkpt lat="44.179968" lon="2.792265">
<ele>925.2</ele>
<time>2013-05-08T10:56:36.999Z</time>
</trkpt>
<trkpt lat="44.180113" lon="2.792241">
<ele>924.1</ele>
<time>2013-05-08T10:56:37.999Z</time>
</trkpt>
<trkpt lat="44.180237" lon="2.792165">
<ele>923.2</ele>
<time>2013-05-08T10:56:38.999Z</time>
</trkpt>
<trkpt lat="44.180353" lon="2.79203">
<ele>922.4</ele>
<time>2013-05-08T10:56:39.999Z</time>
</trkpt>
<trkpt lat="44.180438" lon="2.791838">
<ele>921.7</ele>
<time>2013-05-08T10:56:40.999Z</time>
</trkpt>
<trkpt lat="44.180484" lon="2.791593">
<ele>921</ele>
<time>2013-05-08T10:56:41.999Z</time>
</trkpt>
<trkpt lat="44.180525" lon="2.791357">
<ele>920.5</ele>
<time>2013-05-08T10:56:42.999Z</time>
</trkpt>
<trkpt lat="44.180564" lon="2.791121">
<ele>920.4</ele>
<time>2013-05-08T10:56:43.999Z</time>
</trkpt>
<trkpt lat="44.180602" lon="2.790903">
<ele>919.7</ele>
<time>2013-05-08T10:56:44.999Z</time>
</trkpt>
<trkpt lat="44.180669" lon="2.790721">
<ele>919.1</ele>
<time>2013-05-08T10:56:45.999Z</time>
</trkpt>
<trkpt lat="44.180744" lon="2.790549">
<ele>918.2</ele>
<time>2013-05-08T10:56:46.999Z</time>
</trkpt>
<trkpt lat="44.180836" lon="2.790423">
<ele>917.5</ele>
<time>2013-05-08T10:56:47.999Z</time>
</trkpt>
<trkpt lat="44.180943" lon="2.790343">
<ele>916.7</ele>
<time>2013-05-08T10:56:48.999Z</time>
</trkpt>
<trkpt lat="44.181042" lon="2.790266">
<ele>915.7</ele>
<time>2013-05-08T10:56:49.999Z</time>
</trkpt>
<trkpt lat="44.181133" lon="2.790197">
<ele>914.9</ele>
<time>2013-05-08T10:56:50.999Z</time>
</trkpt>
<trkpt lat="44.181219" lon="2.790137">
<ele>914.3</ele>
<time>2013-05-08T10:56:51.999Z</time>
</trkpt>
<trkpt lat="44.181297" lon="2.790087">
<ele>913.8</ele>
<time>2013-05-08T10:56:52.999Z</time>
</trkpt>
<trkpt lat="44.181367" lon="2.790045">
<ele>913.2</ele>
<time>2013-05-08T10:56:53.999Z</time>
</trkpt>
<trkpt lat="44.181424" lon="2.790015">
<ele>912.7</ele>
<time>2013-05-08T10:56:54.999Z</time>
</trkpt>
<trkpt lat="44.181494" lon="2.789976">
<ele>912.2</ele>
<time>2013-05-08T10:56:55.999Z</time>
</trkpt>
<trkpt lat="44.181565" lon="2.789931">
<ele>912</ele>
<time>2013-05-08T10:56:56.999Z</time>
</trkpt>
<trkpt lat="44.181624" lon="2.78984">
<ele>911.9</ele>
<time>2013-05-08T10:56:57.999Z</time>
</trkpt>
<trkpt lat="44.181686" lon="2.789737">
<ele>911.9</ele>
<time>2013-05-08T10:56:58.999Z</time>
</trkpt>
<trkpt lat="44.181756" lon="2.789619">
<ele>911.5</ele>
<time>2013-05-08T10:56:59.999Z</time>
</trkpt>
<trkpt lat="44.181827" lon="2.789506">
<ele>911</ele>
<time>2013-05-08T10:57:00.999Z</time>
</trkpt>
<trkpt lat="44.181894" lon="2.789411">
<ele>910.5</ele>
<time>2013-05-08T10:57:01.999Z</time>
</trkpt>
<trkpt lat="44.181958" lon="2.789325">
<ele>910.2</ele>
<time>2013-05-08T10:57:02.999Z</time>
</trkpt>
<trkpt lat="44.182013" lon="2.789256">
<ele>910</ele>
<time>2013-05-08T10:57:03.999Z</time>
</trkpt>
<trkpt lat="44.182069" lon="2.789186">
<ele>909.6</ele>
<time>2013-05-08T10:57:04.999Z</time>
</trkpt>
<trkpt lat="44.182124" lon="2.78912">
<ele>909.4</ele>
<time>2013-05-08T10:57:05.999Z</time>
</trkpt>
<trkpt lat="44.182177" lon="2.789057">
<ele>909</ele>
<time>2013-05-08T10:57:06.999Z</time>
</trkpt>
<trkpt lat="44.182234" lon="2.788993">
<ele>909</ele>
<time>2013-05-08T10:57:07.999Z</time>
</trkpt>
<trkpt lat="44.182285" lon="2.788935">
<ele>908.8</ele>
<time>2013-05-08T10:57:08.999Z</time>
</trkpt>
<trkpt lat="44.182324" lon="2.788877">
<ele>908.5</ele>
<time>2013-05-08T10:57:09.999Z</time>
</trkpt>
<trkpt lat="44.182339" lon="2.788814">
<ele>908.4</ele>
<time>2013-05-08T10:57:10.999Z</time>
</trkpt>
<trkpt lat="44.182352" lon="2.788752">
<ele>908.5</ele>
<time>2013-05-08T10:57:11.999Z</time>
</trkpt>
<trkpt lat="44.18234" lon="2.788678">
<ele>908.2</ele>
<time>2013-05-08T10:57:12.999Z</time>
</trkpt>
<trkpt lat="44.182329" lon="2.788584">
<ele>907.8</ele>
<time>2013-05-08T10:57:13.999Z</time>
</trkpt>
<trkpt lat="44.182316" lon="2.788468">
<ele>907.2</ele>
<time>2013-05-08T10:57:14.999Z</time>
</trkpt>
<trkpt lat="44.182304" lon="2.788343">
<ele>906.8</ele>
<time>2013-05-08T10:57:15.999Z</time>
</trkpt>
<trkpt lat="44.182295" lon="2.788226">
<ele>906.5</ele>
<time>2013-05-08T10:57:16.999Z</time>
</trkpt>
<trkpt lat="44.182289" lon="2.788123">
<ele>906.2</ele>
<time>2013-05-08T10:57:17.999Z</time>
</trkpt>
<trkpt lat="44.182284" lon="2.788037">
<ele>906.2</ele>
<time>2013-05-08T10:57:18.999Z</time>
</trkpt>
<trkpt lat="44.182278" lon="2.787965">
<ele>906.1</ele>
<time>2013-05-08T10:57:19.999Z</time>
</trkpt>
<trkpt lat="44.182273" lon="2.787904">
<ele>905.9</ele>
<time>2013-05-08T10:57:20.999Z</time>
</trkpt>
<trkpt lat="44.182268" lon="2.787845">
<ele>905.7</ele>
<time>2013-05-08T10:57:21.999Z</time>
</trkpt>
<trkpt lat="44.182263" lon="2.787787">
<ele>905.3</ele>
<time>2013-05-08T10:57:22.999Z</time>
</trkpt>
<trkpt lat="44.182253" lon="2.787734">
<ele>904.9</ele>
<time>2013-05-08T10:57:23.999Z</time>
</trkpt>
<trkpt lat="44.182245" lon="2.787685">
<ele>904.8</ele>
<time>2013-05-08T10:57:24.999Z</time>
</trkpt>
<trkpt lat="44.182238" lon="2.787629">
<ele>904.7</ele>
<time>2013-05-08T10:57:25.999Z</time>
</trkpt>
<trkpt lat="44.182231" lon="2.787562">
<ele>904.1</ele>
<time>2013-05-08T10:57:26.999Z</time>
</trkpt>
<trkpt lat="44.182223" lon="2.78749">
<ele>903.8</ele>
<time>2013-05-08T10:57:27.999Z</time>
</trkpt>
<trkpt lat="44.182214" lon="2.787411">
<ele>903.4</ele>
<time>2013-05-08T10:57:28.999Z</time>
</trkpt>
<trkpt lat="44.182205" lon="2.787315">
<ele>903.2</ele>
<time>2013-05-08T10:57:29.999Z</time>
</trkpt>
<trkpt lat="44.182198" lon="2.787205">
<ele>902.7</ele>
<time>2013-05-08T10:57:30.999Z</time>
</trkpt>
<trkpt lat="44.18219" lon="2.7871">
<ele>902.2</ele>
<time>2013-05-08T10:57:31.999Z</time>
</trkpt>
<trkpt lat="44.182182" lon="2.786964">
<ele>901.3</ele>
<time>2013-05-08T10:57:32.999Z</time>
</trkpt>
<trkpt lat="44.182173" lon="2.786827">
<ele>900.3</ele>
<time>2013-05-08T10:57:33.999Z</time>
</trkpt>
<trkpt lat="44.182165" lon="2.786703">
<ele>899.2</ele>
<time>2013-05-08T10:57:34.999Z</time>
</trkpt>
<trkpt lat="44.18216" lon="2.786585">
<ele>898.2</ele>
<time>2013-05-08T10:57:35.999Z</time>
</trkpt>
<trkpt lat="44.18216" lon="2.786473">
<ele>897.1</ele>
<time>2013-05-08T10:57:36.999Z</time>
</trkpt>
<trkpt lat="44.182175" lon="2.786384">
<ele>896.1</ele>
<time>2013-05-08T10:57:37.999Z</time>
</trkpt>
<trkpt lat="44.182202" lon="2.786298">
<ele>894.7</ele>
<time>2013-05-08T10:57:38.999Z</time>
</trkpt>
<trkpt lat="44.182228" lon="2.786241">
<ele>893.2</ele>
<time>2013-05-08T10:57:39.999Z</time>
</trkpt>
<trkpt lat="44.182257" lon="2.786211">
<ele>893.1</ele>
<time>2013-05-08T10:57:40.999Z</time>
</trkpt>
<trkpt lat="44.182286" lon="2.786178">
<ele>893</ele>
<time>2013-05-08T10:57:41.999Z</time>
</trkpt>
<trkpt lat="44.182307" lon="2.786154">
<ele>892.9</ele>
<time>2013-05-08T10:57:42.999Z</time>
</trkpt>
<trkpt lat="44.182302" lon="2.786098">
<ele>891.9</ele>
<time>2013-05-08T10:57:43.999Z</time>
</trkpt>
<trkpt lat="44.182284" lon="2.786028">
<ele>890.8</ele>
<time>2013-05-08T10:57:44.999Z</time>
</trkpt>
<trkpt lat="44.182264" lon="2.785953">
<ele>890.2</ele>
<time>2013-05-08T10:57:45.999Z</time>
</trkpt>
<trkpt lat="44.182259" lon="2.785848">
<ele>889.7</ele>
<time>2013-05-08T10:57:46.999Z</time>
</trkpt>
<trkpt lat="44.182278" lon="2.785738">
<ele>889.1</ele>
<time>2013-05-08T10:57:47.999Z</time>
</trkpt>
<trkpt lat="44.18233" lon="2.785637">
<ele>888.6</ele>
<time>2013-05-08T10:57:48.999Z</time>
</trkpt>
<trkpt lat="44.182413" lon="2.785562">
<ele>887.8</ele>
<time>2013-05-08T10:57:49.999Z</time>
</trkpt>
<trkpt lat="44.182503" lon="2.785483">
<ele>887.2</ele>
<time>2013-05-08T10:57:50.999Z</time>
</trkpt>
<trkpt lat="44.1826" lon="2.785402">
<ele>886.7</ele>
<time>2013-05-08T10:57:51.999Z</time>
</trkpt>
<trkpt lat="44.182697" lon="2.785332">
<ele>886</ele>
<time>2013-05-08T10:57:52.999Z</time>
</trkpt>
<trkpt lat="44.182794" lon="2.785275">
<ele>885.1</ele>
<time>2013-05-08T10:57:53.999Z</time>
</trkpt>
<trkpt lat="44.182898" lon="2.785258">
<ele>884.5</ele>
<time>2013-05-08T10:57:54.999Z</time>
</trkpt>
<trkpt lat="44.182996" lon="2.785247">
<ele>884</ele>
<time>2013-05-08T10:57:55.999Z</time>
</trkpt>
<trkpt lat="44.183093" lon="2.785241">
<ele>883.9</ele>
<time>2013-05-08T10:57:56.999Z</time>
</trkpt>
<trkpt lat="44.183191" lon="2.785241">
<ele>883.7</ele>
<time>2013-05-08T10:57:57.999Z</time>
</trkpt>
<trkpt lat="44.18329" lon="2.785248">
<ele>883.3</ele>
<time>2013-05-08T10:57:58.999Z</time>
</trkpt>
<trkpt lat="44.183397" lon="2.785266">
<ele>883.3</ele>
<time>2013-05-08T10:57:59.999Z</time>
</trkpt>
<trkpt lat="44.183511" lon="2.78532">
<ele>883.5</ele>
<time>2013-05-08T10:58:00.999Z</time>
</trkpt>
<trkpt lat="44.183629" lon="2.785383">
<ele>883.3</ele>
<time>2013-05-08T10:58:01.999Z</time>
</trkpt>
<trkpt lat="44.183749" lon="2.785464">
<ele>882.8</ele>
<time>2013-05-08T10:58:02.999Z</time>
</trkpt>
<trkpt lat="44.183862" lon="2.785553">
<ele>881.9</ele>
<time>2013-05-08T10:58:03.999Z</time>
</trkpt>
<trkpt lat="44.183966" lon="2.785644">
<ele>881.2</ele>
<time>2013-05-08T10:58:04.999Z</time>
</trkpt>
<trkpt lat="44.184069" lon="2.785745">
<ele>880.5</ele>
<time>2013-05-08T10:58:05.999Z</time>
</trkpt>
<trkpt lat="44.184157" lon="2.785888">
<ele>879.8</ele>
<time>2013-05-08T10:58:06.999Z</time>
</trkpt>
<trkpt lat="44.184231" lon="2.786018">
<ele>878.8</ele>
<time>2013-05-08T10:58:07.999Z</time>
</trkpt>
<trkpt lat="44.184284" lon="2.786221">
<ele>878</ele>
<time>2013-05-08T10:58:08.999Z</time>
</trkpt>
<trkpt lat="44.184314" lon="2.786406">
<ele>877.5</ele>
<time>2013-05-08T10:58:09.999Z</time>
</trkpt>
<trkpt lat="44.184343" lon="2.786586">
<ele>877</ele>
<time>2013-05-08T10:58:10.999Z</time>
</trkpt>
<trkpt lat="44.184392" lon="2.786771">
<ele>876.7</ele>
<time>2013-05-08T10:58:11.999Z</time>
</trkpt>
<trkpt lat="44.184479" lon="2.786933">
<ele>876.9</ele>
<time>2013-05-08T10:58:12.999Z</time>
</trkpt>
<trkpt lat="44.184576" lon="2.787088">
<ele>877.1</ele>
<time>2013-05-08T10:58:13.999Z</time>
</trkpt>
<trkpt lat="44.184687" lon="2.787253">
<ele>877</ele>
<time>2013-05-08T10:58:14.999Z</time>
</trkpt>
<trkpt lat="44.184794" lon="2.787406">
<ele>876.5</ele>
<time>2013-05-08T10:58:15.999Z</time>
</trkpt>
<trkpt lat="44.184902" lon="2.787562">
<ele>876.3</ele>
<time>2013-05-08T10:58:16.999Z</time>
</trkpt>
<trkpt lat="44.185011" lon="2.787714">
<ele>875.8</ele>
<time>2013-05-08T10:58:17.999Z</time>
</trkpt>
<trkpt lat="44.18512" lon="2.787853">
<ele>875.5</ele>
<time>2013-05-08T10:58:18.999Z</time>
</trkpt>
<trkpt lat="44.185249" lon="2.787996">
<ele>875.5</ele>
<time>2013-05-08T10:58:19.999Z</time>
</trkpt>
<trkpt lat="44.185384" lon="2.78807">
<ele>875.5</ele>
<time>2013-05-08T10:58:20.999Z</time>
</trkpt>
<trkpt lat="44.18554" lon="2.78809">
<ele>875.3</ele>
<time>2013-05-08T10:58:21.999Z</time>
</trkpt>
<trkpt lat="44.18569" lon="2.788099">
<ele>875.1</ele>
<time>2013-05-08T10:58:22.999Z</time>
</trkpt>
<trkpt lat="44.185842" lon="2.788117">
<ele>874.7</ele>
<time>2013-05-08T10:58:23.999Z</time>
</trkpt>
<trkpt lat="44.185983" lon="2.788136">
<ele>874.4</ele>
<time>2013-05-08T10:58:24.999Z</time>
</trkpt>
<trkpt lat="44.186131" lon="2.788156">
<ele>873.9</ele>
<time>2013-05-08T10:58:25.999Z</time>
</trkpt>
<trkpt lat="44.186269" lon="2.788166">
<ele>872.9</ele>
<time>2013-05-08T10:58:26.999Z</time>
</trkpt>
<trkpt lat="44.186399" lon="2.78818">
<ele>871.9</ele>
<time>2013-05-08T10:58:27.999Z</time>
</trkpt>
<trkpt lat="44.186524" lon="2.788196">
<ele>870.9</ele>
<time>2013-05-08T10:58:28.999Z</time>
</trkpt>
<trkpt lat="44.186653" lon="2.788213">
<ele>870</ele>
<time>2013-05-08T10:58:29.999Z</time>
</trkpt>
<trkpt lat="44.18678" lon="2.788231">
<ele>869.3</ele>
<time>2013-05-08T10:58:30.999Z</time>
</trkpt>
<trkpt lat="44.186907" lon="2.788255">
<ele>868.1</ele>
<time>2013-05-08T10:58:31.999Z</time>
</trkpt>
<trkpt lat="44.187038" lon="2.788281">
<ele>867.2</ele>
<time>2013-05-08T10:58:32.999Z</time>
</trkpt>
<trkpt lat="44.18716" lon="2.788307">
<ele>866.3</ele>
<time>2013-05-08T10:58:33.999Z</time>
</trkpt>
<trkpt lat="44.187275" lon="2.788342">
<ele>865.5</ele>
<time>2013-05-08T10:58:34.999Z</time>
</trkpt>
<trkpt lat="44.187387" lon="2.788386">
<ele>864.7</ele>
<time>2013-05-08T10:58:35.999Z</time>
</trkpt>
<trkpt lat="44.187492" lon="2.788433">
<ele>863.9</ele>
<time>2013-05-08T10:58:36.999Z</time>
</trkpt>
<trkpt lat="44.18759" lon="2.788482">
<ele>862.9</ele>
<time>2013-05-08T10:58:37.999Z</time>
</trkpt>
<trkpt lat="44.187686" lon="2.788533">
<ele>862.1</ele>
<time>2013-05-08T10:58:38.999Z</time>
</trkpt>
<trkpt lat="44.187766" lon="2.788581">
<ele>861.6</ele>
<time>2013-05-08T10:58:39.999Z</time>
</trkpt>
<trkpt lat="44.187836" lon="2.788664">
<ele>860.9</ele>
<time>2013-05-08T10:58:40.999Z</time>
</trkpt>
<trkpt lat="44.187886" lon="2.788769">
<ele>860.6</ele>
<time>2013-05-08T10:58:41.999Z</time>
</trkpt>
<trkpt lat="44.187907" lon="2.78888">
<ele>860.1</ele>
<time>2013-05-08T10:58:42.999Z</time>
</trkpt>
<trkpt lat="44.187928" lon="2.788994">
<ele>859.8</ele>
<time>2013-05-08T10:58:43.999Z</time>
</trkpt>
<trkpt lat="44.187968" lon="2.789091">
<ele>859.3</ele>
<time>2013-05-08T10:58:44.999Z</time>
</trkpt>
<trkpt lat="44.188031" lon="2.789137">
<ele>859.2</ele>
<time>2013-05-08T10:58:45.999Z</time>
</trkpt>
<trkpt lat="44.188091" lon="2.789168">
<ele>859.2</ele>
<time>2013-05-08T10:58:46.999Z</time>
</trkpt>
<trkpt lat="44.188155" lon="2.789197">
<ele>859.1</ele>
<time>2013-05-08T10:58:47.999Z</time>
</trkpt>
<trkpt lat="44.188227" lon="2.789241">
<ele>858.9</ele>
<time>2013-05-08T10:58:48.999Z</time>
</trkpt>
<trkpt lat="44.188305" lon="2.789327">
<ele>858.9</ele>
<time>2013-05-08T10:58:49.999Z</time>
</trkpt>
<trkpt lat="44.188392" lon="2.78942">
<ele>858.9</ele>
<time>2013-05-08T10:58:50.999Z</time>
</trkpt>
<trkpt lat="44.188485" lon="2.789517">
<ele>859</ele>
<time>2013-05-08T10:58:51.999Z</time>
</trkpt>
<trkpt lat="44.188571" lon="2.789607">
<ele>859.4</ele>
<time>2013-05-08T10:58:52.999Z</time>
</trkpt>
<trkpt lat="44.18864" lon="2.789691">
<ele>860</ele>
<time>2013-05-08T10:58:53.999Z</time>
</trkpt>
<trkpt lat="44.188699" lon="2.789763">
<ele>860.3</ele>
<time>2013-05-08T10:58:54.999Z</time>
</trkpt>
<trkpt lat="44.188734" lon="2.789802">
<ele>860.4</ele>
<time>2013-05-08T10:58:55.999Z</time>
</trkpt>
<trkpt lat="44.188771" lon="2.789845">
<ele>860.5</ele>
<time>2013-05-08T10:58:56.999Z</time>
</trkpt>
<trkpt lat="44.188802" lon="2.789887">
<ele>860.5</ele>
<time>2013-05-08T10:58:57.999Z</time>
</trkpt>
<trkpt lat="44.188813" lon="2.789913">
<ele>860.5</ele>
<time>2013-05-08T10:58:58.999Z</time>
</trkpt>
<trkpt lat="44.188815" lon="2.789947">
<ele>860.6</ele>
<time>2013-05-08T10:58:59.999Z</time>
</trkpt>
<trkpt lat="44.188805" lon="2.789979">
<ele>860.6</ele>
<time>2013-05-08T10:59:00.999Z</time>
</trkpt>
<trkpt lat="44.188786" lon="2.789999">
<ele>860.6</ele>
<time>2013-05-08T10:59:01.999Z</time>
</trkpt>
<trkpt lat="44.188763" lon="2.790018">
<ele>860.6</ele>
<time>2013-05-08T10:59:02.999Z</time>
</trkpt>
<trkpt lat="44.188724" lon="2.790014">
<ele>860.6</ele>
<time>2013-05-08T10:59:03.999Z</time>
</trkpt>
<trkpt lat="44.188675" lon="2.790013">
<ele>860.6</ele>
<time>2013-05-08T10:59:04.999Z</time>
</trkpt>
<trkpt lat="44.188623" lon="2.790009">
<ele>860.4</ele>
<time>2013-05-08T10:59:05.999Z</time>
</trkpt>
<trkpt lat="44.188573" lon="2.790004">
<ele>860.3</ele>
<time>2013-05-08T10:59:06.999Z</time>
</trkpt>
<trkpt lat="44.188531" lon="2.789997">
<ele>860.1</ele>
<time>2013-05-08T10:59:07.999Z</time>
</trkpt>
<trkpt lat="44.188495" lon="2.789989">
<ele>860.1</ele>
<time>2013-05-08T10:59:08.999Z</time>
</trkpt>
<trkpt lat="44.188457" lon="2.789979">
<ele>860</ele>
<time>2013-05-08T10:59:09.999Z</time>
</trkpt>
<trkpt lat="44.18842" lon="2.789968">
<ele>860</ele>
<time>2013-05-08T10:59:10.999Z</time>
</trkpt>
<trkpt lat="44.188384" lon="2.789955">
<ele>859.9</ele>
<time>2013-05-08T10:59:11.999Z</time>
</trkpt>
<trkpt lat="44.188352" lon="2.789938">
<ele>859.8</ele>
<time>2013-05-08T10:59:12.999Z</time>
</trkpt>
<trkpt lat="44.188322" lon="2.789912">
<ele>859.7</ele>
<time>2013-05-08T10:59:13.999Z</time>
</trkpt>
<trkpt lat="44.188292" lon="2.789883">
<ele>859.7</ele>
<time>2013-05-08T10:59:14.999Z</time>
</trkpt>
<trkpt lat="44.188266" lon="2.789841">
<ele>859.7</ele>
<time>2013-05-08T10:59:15.999Z</time>
</trkpt>
<trkpt lat="44.188243" lon="2.789789">
<ele>859.7</ele>
<time>2013-05-08T10:59:16.999Z</time>
</trkpt>
<trkpt lat="44.188224" lon="2.789738">
<ele>859.7</ele>
<time>2013-05-08T10:59:17.999Z</time>
</trkpt>
<trkpt lat="44.188213" lon="2.789681">
<ele>860</ele>
<time>2013-05-08T10:59:18.999Z</time>
</trkpt>
<trkpt lat="44.188204" lon="2.789631">
<ele>860</ele>
<time>2013-05-08T10:59:19.999Z</time>
</trkpt>
<trkpt lat="44.188195" lon="2.789586">
<ele>860.1</ele>
<time>2013-05-08T10:59:20.999Z</time>
</trkpt>
<trkpt lat="44.188186" lon="2.789547">
<ele>860.1</ele>
<time>2013-05-08T10:59:21.999Z</time>
</trkpt>
<trkpt lat="44.188175" lon="2.789515">
<ele>860.2</ele>
<time>2013-05-08T10:59:22.999Z</time>
</trkpt>
<trkpt lat="44.188159" lon="2.789466">
<ele>860.4</ele>
<time>2013-05-08T10:59:54.000Z</time>
</trkpt>
<trkpt lat="44.188157" lon="2.789416">
<ele>860.4</ele>
<time>2013-05-08T10:59:55.000Z</time>
</trkpt>
<trkpt lat="44.188155" lon="2.789376">
<ele>860.3</ele>
<time>2013-05-08T10:59:56.000Z</time>
</trkpt>
<trkpt lat="44.188161" lon="2.789334">
<ele>860.3</ele>
<time>2013-05-08T10:59:57.000Z</time>
</trkpt>
<trkpt lat="44.188142" lon="2.789291">
<ele>860.3</ele>
<time>2013-05-08T10:59:59.000Z</time>
</trkpt>
<trkpt lat="44.188129" lon="2.789276">
<ele>860.2</ele>
<time>2013-05-08T11:00:00.000Z</time>
</trkpt>
<trkpt lat="44.188104" lon="2.789322">
<ele>860.2</ele>
<time>2013-05-08T11:00:03.000Z</time>
</trkpt>
<trkpt lat="44.188118" lon="2.789372">
<ele>860.1</ele>
<time>2013-05-08T11:00:04.000Z</time>
</trkpt>
<trkpt lat="44.188136" lon="2.789404">
<ele>859.4</ele>
<time>2013-05-08T11:01:49.000Z</time>
</trkpt>
<trkpt lat="44.18819" lon="2.789469">
<ele>859.4</ele>
<time>2013-05-08T11:01:50.000Z</time>
</trkpt>
<trkpt lat="44.18819" lon="2.789469">
<ele>859.2</ele>
<time>2013-05-08T11:02:11.000Z</time>
</trkpt>
<trkpt lat="44.188147" lon="2.789376">
<ele>859.2</ele>
<time>2013-05-08T11:02:12.000Z</time>
</trkpt>
<trkpt lat="44.188147" lon="2.789376">
<ele>858.6</ele>
<time>2013-05-08T11:03:30.000Z</time>
</trkpt>
<trkpt lat="44.188221" lon="2.78951">
<ele>858.6</ele>
<time>2013-05-08T11:03:31.000Z</time>
</trkpt>
<trkpt lat="44.188193" lon="2.789464">
<ele>855.9</ele>
<time>2013-05-08T11:04:20.000Z</time>
</trkpt>
<trkpt lat="44.188186" lon="2.789462">
<ele>855.9</ele>
<time>2013-05-08T11:04:21.000Z</time>
</trkpt>
<trkpt lat="44.188182" lon="2.789401">
<ele>857.2</ele>
<time>2013-05-08T11:05:21.000Z</time>
</trkpt>
<trkpt lat="44.188177" lon="2.78939">
<ele>857.4</ele>
<time>2013-05-08T11:05:22.000Z</time>
</trkpt>
<trkpt lat="44.188212" lon="2.789424">
<ele>857.9</ele>
<time>2013-05-08T11:05:57.000Z</time>
</trkpt>
<trkpt lat="44.188215" lon="2.789427">
<ele>857.9</ele>
<time>2013-05-08T11:05:58.000Z</time>
</trkpt>
<trkpt lat="44.188178" lon="2.789402">
<ele>857.2</ele>
<time>2013-05-08T11:06:39.000Z</time>
</trkpt>
<trkpt lat="44.188169" lon="2.789395">
<ele>857.1</ele>
<time>2013-05-08T11:06:40.000Z</time>
</trkpt>
<trkpt lat="44.188134" lon="2.789434">
<ele>857.2</ele>
<time>2013-05-08T11:07:36.000Z</time>
</trkpt>
<trkpt lat="44.188135" lon="2.789437">
<ele>857.2</ele>
<time>2013-05-08T11:07:37.000Z</time>
</trkpt>
<trkpt lat="44.188152" lon="2.78949">
<ele>857.1</ele>
<time>2013-05-08T11:08:22.000Z</time>
</trkpt>
<trkpt lat="44.188156" lon="2.789492">
<ele>857.2</ele>
<time>2013-05-08T11:08:23.000Z</time>
</trkpt>
<trkpt lat="44.18819" lon="2.789516">
<ele>857.4</ele>
<time>2013-05-08T11:08:48.000Z</time>
</trkpt>
<trkpt lat="44.188199" lon="2.789544">
<ele>857.4</ele>
<time>2013-05-08T11:08:49.000Z</time>
</trkpt>
<trkpt lat="44.188212" lon="2.789598">
<ele>857.4</ele>
<time>2013-05-08T11:08:51.000Z</time>
</trkpt>
<trkpt lat="44.188219" lon="2.789625">
<ele>857.4</ele>
<time>2013-05-08T11:08:52.000Z</time>
</trkpt>
<trkpt lat="44.188238" lon="2.789673">
<ele>857.5</ele>
<time>2013-05-08T11:08:54.000Z</time>
</trkpt>
<trkpt lat="44.188244" lon="2.789701">
<ele>857.5</ele>
<time>2013-05-08T11:08:55.000Z</time>
</trkpt>
<trkpt lat="44.188256" lon="2.789752">
<ele>857.8</ele>
<time>2013-05-08T11:08:56.000Z</time>
</trkpt>
<trkpt lat="44.188269" lon="2.789801">
<ele>858.4</ele>
<time>2013-05-08T11:08:57.000Z</time>
</trkpt>
<trkpt lat="44.188295" lon="2.789858">
<ele>858.8</ele>
<time>2013-05-08T11:08:58.000Z</time>
</trkpt>
<trkpt lat="44.188347" lon="2.789914">
<ele>859</ele>
<time>2013-05-08T11:08:59.000Z</time>
</trkpt>
<trkpt lat="44.188405" lon="2.789975">
<ele>859.4</ele>
<time>2013-05-08T11:09:00.000Z</time>
</trkpt>
<trkpt lat="44.188485" lon="2.790017">
<ele>859.8</ele>
<time>2013-05-08T11:09:01.000Z</time>
</trkpt>
<trkpt lat="44.188564" lon="2.790044">
<ele>860.1</ele>
<time>2013-05-08T11:09:02.000Z</time>
</trkpt>
<trkpt lat="44.188637" lon="2.790057">
<ele>860.2</ele>
<time>2013-05-08T11:09:03.000Z</time>
</trkpt>
<trkpt lat="44.188696" lon="2.79007">
<ele>860.3</ele>
<time>2013-05-08T11:09:04.000Z</time>
</trkpt>
<trkpt lat="44.188743" lon="2.790072">
<ele>860.2</ele>
<time>2013-05-08T11:09:05.000Z</time>
</trkpt>
<trkpt lat="44.188778" lon="2.790068">
<ele>860.2</ele>
<time>2013-05-08T11:09:06.000Z</time>
</trkpt>
<trkpt lat="44.188809" lon="2.790061">
<ele>860.2</ele>
<time>2013-05-08T11:09:07.000Z</time>
</trkpt>
<trkpt lat="44.188851" lon="2.790043">
<ele>860.2</ele>
<time>2013-05-08T11:09:16.000Z</time>
</trkpt>
<trkpt lat="44.188901" lon="2.790044">
<ele>860.5</ele>
<time>2013-05-08T11:09:17.000Z</time>
</trkpt>
<trkpt lat="44.188962" lon="2.790058">
<ele>860.6</ele>
<time>2013-05-08T11:09:18.000Z</time>
</trkpt>
<trkpt lat="44.189029" lon="2.790081">
<ele>861</ele>
<time>2013-05-08T11:09:19.000Z</time>
</trkpt>
<trkpt lat="44.189098" lon="2.790107">
<ele>861.3</ele>
<time>2013-05-08T11:09:20.000Z</time>
</trkpt>
<trkpt lat="44.189171" lon="2.790131">
<ele>861.5</ele>
<time>2013-05-08T11:09:21.000Z</time>
</trkpt>
<trkpt lat="44.189246" lon="2.79014">
<ele>861.7</ele>
<time>2013-05-08T11:09:22.000Z</time>
</trkpt>
<trkpt lat="44.189321" lon="2.790146">
<ele>861.8</ele>
<time>2013-05-08T11:09:23.000Z</time>
</trkpt>
<trkpt lat="44.189402" lon="2.790138">
<ele>861.7</ele>
<time>2013-05-08T11:09:24.000Z</time>
</trkpt>
<trkpt lat="44.189492" lon="2.790126">
<ele>861.3</ele>
<time>2013-05-08T11:09:25.000Z</time>
</trkpt>
<trkpt lat="44.189584" lon="2.790114">
<ele>860.9</ele>
<time>2013-05-08T11:09:26.000Z</time>
</trkpt>
<trkpt lat="44.189683" lon="2.790093">
<ele>860.8</ele>
<time>2013-05-08T11:09:27.000Z</time>
</trkpt>
<trkpt lat="44.18979" lon="2.790052">
<ele>860.6</ele>
<time>2013-05-08T11:09:28.000Z</time>
</trkpt>
<trkpt lat="44.189895" lon="2.790007">
<ele>860.9</ele>
<time>2013-05-08T11:09:29.000Z</time>
</trkpt>
<trkpt lat="44.189996" lon="2.789957">
<ele>861.4</ele>
<time>2013-05-08T11:09:30.000Z</time>
</trkpt>
<trkpt lat="44.190097" lon="2.789896">
<ele>862</ele>
<time>2013-05-08T11:09:31.000Z</time>
</trkpt>
<trkpt lat="44.190197" lon="2.78983">
<ele>862.5</ele>
<time>2013-05-08T11:09:32.000Z</time>
</trkpt>
<trkpt lat="44.190312" lon="2.789734">
<ele>862.8</ele>
<time>2013-05-08T11:09:33.000Z</time>
</trkpt>
<trkpt lat="44.190436" lon="2.789643">
<ele>863</ele>
<time>2013-05-08T11:09:34.000Z</time>
</trkpt>
<trkpt lat="44.190579" lon="2.789532">
<ele>863</ele>
<time>2013-05-08T11:09:35.000Z</time>
</trkpt>
<trkpt lat="44.190729" lon="2.789429">
<ele>863</ele>
<time>2013-05-08T11:09:36.000Z</time>
</trkpt>
<trkpt lat="44.190901" lon="2.78933">
<ele>862.5</ele>
<time>2013-05-08T11:09:37.000Z</time>
</trkpt>
<trkpt lat="44.191081" lon="2.789239">
<ele>862</ele>
<time>2013-05-08T11:09:38.000Z</time>
</trkpt>
<trkpt lat="44.191262" lon="2.789165">
<ele>861.4</ele>
<time>2013-05-08T11:09:39.000Z</time>
</trkpt>
<trkpt lat="44.19145" lon="2.789111">
<ele>860.8</ele>
<time>2013-05-08T11:09:40.000Z</time>
</trkpt>
<trkpt lat="44.191635" lon="2.789062">
<ele>860.1</ele>
<time>2013-05-08T11:09:41.000Z</time>
</trkpt>
<trkpt lat="44.191813" lon="2.789012">
<ele>859.7</ele>
<time>2013-05-08T11:09:42.000Z</time>
</trkpt>
<trkpt lat="44.191983" lon="2.788963">
<ele>859.7</ele>
<time>2013-05-08T11:09:43.000Z</time>
</trkpt>
<trkpt lat="44.192144" lon="2.788924">
<ele>859.9</ele>
<time>2013-05-08T11:09:44.000Z</time>
</trkpt>
<trkpt lat="44.192281" lon="2.78889">
<ele>859.9</ele>
<time>2013-05-08T11:09:45.000Z</time>
</trkpt>
<trkpt lat="44.192398" lon="2.788862">
<ele>859.9</ele>
<time>2013-05-08T11:09:46.000Z</time>
</trkpt>
<trkpt lat="44.192496" lon="2.788839">
<ele>859.6</ele>
<time>2013-05-08T11:09:47.000Z</time>
</trkpt>
<trkpt lat="44.192553" lon="2.788785">
<ele>859.5</ele>
<time>2013-05-08T11:09:48.000Z</time>
</trkpt>
<trkpt lat="44.192586" lon="2.788728">
<ele>858.8</ele>
<time>2013-05-08T11:09:49.000Z</time>
</trkpt>
<trkpt lat="44.192606" lon="2.788681">
<ele>858.5</ele>
<time>2013-05-08T11:09:50.000Z</time>
</trkpt>
<trkpt lat="44.192549" lon="2.788592">
<ele>859.1</ele>
<time>2013-05-08T11:09:51.000Z</time>
</trkpt>
<trkpt lat="44.192458" lon="2.788547">
<ele>859.7</ele>
<time>2013-05-08T11:09:52.000Z</time>
</trkpt>
<trkpt lat="44.192362" lon="2.788501">
<ele>859.7</ele>
<time>2013-05-08T11:09:53.000Z</time>
</trkpt>
<trkpt lat="44.19226" lon="2.788446">
<ele>859.7</ele>
<time>2013-05-08T11:09:54.000Z</time>
</trkpt>
<trkpt lat="44.19216" lon="2.788379">
<ele>859.9</ele>
<time>2013-05-08T11:09:55.000Z</time>
</trkpt>
<trkpt lat="44.192065" lon="2.788307">
<ele>859.9</ele>
<time>2013-05-08T11:09:56.000Z</time>
</trkpt>
<trkpt lat="44.191987" lon="2.788211">
<ele>860.3</ele>
<time>2013-05-08T11:09:57.000Z</time>
</trkpt>
<trkpt lat="44.191911" lon="2.788113">
<ele>860.8</ele>
<time>2013-05-08T11:09:58.000Z</time>
</trkpt>
<trkpt lat="44.191839" lon="2.788009">
<ele>861.1</ele>
<time>2013-05-08T11:09:59.000Z</time>
</trkpt>
<trkpt lat="44.191776" lon="2.787892">
<ele>861.6</ele>
<time>2013-05-08T11:10:00.000Z</time>
</trkpt>
<trkpt lat="44.191739" lon="2.787746">
<ele>862.4</ele>
<time>2013-05-08T11:10:01.000Z</time>
</trkpt>
<trkpt lat="44.191737" lon="2.787569">
<ele>863.4</ele>
<time>2013-05-08T11:10:02.000Z</time>
</trkpt>
<trkpt lat="44.19176" lon="2.787401">
<ele>864.8</ele>
<time>2013-05-08T11:10:03.000Z</time>
</trkpt>
<trkpt lat="44.191792" lon="2.787218">
<ele>866.3</ele>
<time>2013-05-08T11:10:04.000Z</time>
</trkpt>
<trkpt lat="44.191831" lon="2.787034">
<ele>867.5</ele>
<time>2013-05-08T11:10:05.000Z</time>
</trkpt>
<trkpt lat="44.191878" lon="2.78684">
<ele>868.6</ele>
<time>2013-05-08T11:10:06.000Z</time>
</trkpt>
<trkpt lat="44.19193" lon="2.786643">
<ele>869.7</ele>
<time>2013-05-08T11:10:07.000Z</time>
</trkpt>
<trkpt lat="44.191985" lon="2.786453">
<ele>870.8</ele>
<time>2013-05-08T11:10:08.000Z</time>
</trkpt>
<trkpt lat="44.192045" lon="2.786271">
<ele>871.6</ele>
<time>2013-05-08T11:10:09.000Z</time>
</trkpt>
<trkpt lat="44.192111" lon="2.786098">
<ele>872.2</ele>
<time>2013-05-08T11:10:10.000Z</time>
</trkpt>
<trkpt lat="44.192181" lon="2.78592">
<ele>872.7</ele>
<time>2013-05-08T11:10:11.000Z</time>
</trkpt>
<trkpt lat="44.192251" lon="2.785754">
<ele>873</ele>
<time>2013-05-08T11:10:12.000Z</time>
</trkpt>
<trkpt lat="44.19232" lon="2.785597">
<ele>873.3</ele>
<time>2013-05-08T11:10:13.000Z</time>
</trkpt>
<trkpt lat="44.192386" lon="2.785449">
<ele>873.7</ele>
<time>2013-05-08T11:10:14.000Z</time>
</trkpt>
<trkpt lat="44.192454" lon="2.785302">
<ele>874.1</ele>
<time>2013-05-08T11:10:15.000Z</time>
</trkpt>
<trkpt lat="44.192524" lon="2.785149">
<ele>874.5</ele>
<time>2013-05-08T11:10:16.000Z</time>
</trkpt>
<trkpt lat="44.192595" lon="2.784998">
<ele>874.9</ele>
<time>2013-05-08T11:10:17.000Z</time>
</trkpt>
<trkpt lat="44.192667" lon="2.784846">
<ele>875.4</ele>
<time>2013-05-08T11:10:18.000Z</time>
</trkpt>
<trkpt lat="44.192738" lon="2.784701">
<ele>875.8</ele>
<time>2013-05-08T11:10:19.000Z</time>
</trkpt>
<trkpt lat="44.192806" lon="2.78456">
<ele>876.2</ele>
<time>2013-05-08T11:10:20.000Z</time>
</trkpt>
<trkpt lat="44.192864" lon="2.784425">
<ele>876.5</ele>
<time>2013-05-08T11:10:21.000Z</time>
</trkpt>
<trkpt lat="44.192914" lon="2.784288">
<ele>876.7</ele>
<time>2013-05-08T11:10:22.000Z</time>
</trkpt>
<trkpt lat="44.192932" lon="2.784123">
<ele>876.9</ele>
<time>2013-05-08T11:10:23.000Z</time>
</trkpt>
<trkpt lat="44.19294" lon="2.783963">
<ele>877</ele>
<time>2013-05-08T11:10:24.000Z</time>
</trkpt>
<trkpt lat="44.192941" lon="2.7838">
<ele>877.1</ele>
<time>2013-05-08T11:10:25.000Z</time>
</trkpt>
<trkpt lat="44.192933" lon="2.783633">
<ele>877.1</ele>
<time>2013-05-08T11:10:26.000Z</time>
</trkpt>
<trkpt lat="44.192918" lon="2.783457">
<ele>877.1</ele>
<time>2013-05-08T11:10:27.000Z</time>
</trkpt>
<trkpt lat="44.192899" lon="2.783269">
<ele>876.9</ele>
<time>2013-05-08T11:10:28.000Z</time>
</trkpt>
<trkpt lat="44.192877" lon="2.783087">
<ele>876.9</ele>
<time>2013-05-08T11:10:29.000Z</time>
</trkpt>
<trkpt lat="44.192854" lon="2.782904">
<ele>877.1</ele>
<time>2013-05-08T11:10:30.000Z</time>
</trkpt>
<trkpt lat="44.192832" lon="2.782724">
<ele>877.2</ele>
<time>2013-05-08T11:10:31.000Z</time>
</trkpt>
<trkpt lat="44.192815" lon="2.78254">
<ele>877.1</ele>
<time>2013-05-08T11:10:32.000Z</time>
</trkpt>
<trkpt lat="44.192807" lon="2.782358">
<ele>876.7</ele>
<time>2013-05-08T11:10:33.000Z</time>
</trkpt>
<trkpt lat="44.192814" lon="2.782168">
<ele>876.3</ele>
<time>2013-05-08T11:10:34.000Z</time>
</trkpt>
<trkpt lat="44.192848" lon="2.781981">
<ele>875.9</ele>
<time>2013-05-08T11:10:35.000Z</time>
</trkpt>
<trkpt lat="44.192885" lon="2.781796">
<ele>875.5</ele>
<time>2013-05-08T11:10:36.000Z</time>
</trkpt>
<trkpt lat="44.19292" lon="2.781616">
<ele>875.1</ele>
<time>2013-05-08T11:10:37.000Z</time>
</trkpt>
<trkpt lat="44.192953" lon="2.781442">
<ele>874.9</ele>
<time>2013-05-08T11:10:38.000Z</time>
</trkpt>
<trkpt lat="44.192985" lon="2.781255">
<ele>874.7</ele>
<time>2013-05-08T11:10:39.000Z</time>
</trkpt>
<trkpt lat="44.193012" lon="2.781073">
<ele>874.4</ele>
<time>2013-05-08T11:10:40.000Z</time>
</trkpt>
<trkpt lat="44.19304" lon="2.780882">
<ele>874</ele>
<time>2013-05-08T11:10:41.000Z</time>
</trkpt>
<trkpt lat="44.193064" lon="2.780687">
<ele>873.7</ele>
<time>2013-05-08T11:10:42.000Z</time>
</trkpt>
<trkpt lat="44.193089" lon="2.780495">
<ele>873.2</ele>
<time>2013-05-08T11:10:43.000Z</time>
</trkpt>
<trkpt lat="44.19311" lon="2.780303">
<ele>873</ele>
<time>2013-05-08T11:10:44.000Z</time>
</trkpt>
<trkpt lat="44.193131" lon="2.780118">
<ele>872.8</ele>
<time>2013-05-08T11:10:45.000Z</time>
</trkpt>
<trkpt lat="44.193153" lon="2.779932">
<ele>872.4</ele>
<time>2013-05-08T11:10:46.000Z</time>
</trkpt>
<trkpt lat="44.193185" lon="2.779756">
<ele>872.1</ele>
<time>2013-05-08T11:10:47.000Z</time>
</trkpt>
<trkpt lat="44.193226" lon="2.779582">
<ele>871.5</ele>
<time>2013-05-08T11:10:48.000Z</time>
</trkpt>
<trkpt lat="44.193275" lon="2.779414">
<ele>870.8</ele>
<time>2013-05-08T11:10:49.000Z</time>
</trkpt>
<trkpt lat="44.193329" lon="2.779249">
<ele>870.4</ele>
<time>2013-05-08T11:10:50.000Z</time>
</trkpt>
<trkpt lat="44.193387" lon="2.779095">
<ele>869.9</ele>
<time>2013-05-08T11:10:51.000Z</time>
</trkpt>
<trkpt lat="44.193454" lon="2.778942">
<ele>869.5</ele>
<time>2013-05-08T11:10:52.000Z</time>
</trkpt>
<trkpt lat="44.193545" lon="2.778812">
<ele>869.2</ele>
<time>2013-05-08T11:10:53.000Z</time>
</trkpt>
<trkpt lat="44.193641" lon="2.778688">
<ele>868.9</ele>
<time>2013-05-08T11:10:54.000Z</time>
</trkpt>
<trkpt lat="44.19375" lon="2.778599">
<ele>868.7</ele>
<time>2013-05-08T11:10:55.000Z</time>
</trkpt>
<trkpt lat="44.193872" lon="2.778538">
<ele>868.5</ele>
<time>2013-05-08T11:10:56.000Z</time>
</trkpt>
<trkpt lat="44.194004" lon="2.778512">
<ele>868.8</ele>
<time>2013-05-08T11:10:57.000Z</time>
</trkpt>
<trkpt lat="44.194127" lon="2.778477">
<ele>869.1</ele>
<time>2013-05-08T11:10:58.000Z</time>
</trkpt>
<trkpt lat="44.194216" lon="2.778402">
<ele>869.3</ele>
<time>2013-05-08T11:10:59.000Z</time>
</trkpt>
<trkpt lat="44.194284" lon="2.778286">
<ele>869.6</ele>
<time>2013-05-08T11:11:00.000Z</time>
</trkpt>
<trkpt lat="44.194302" lon="2.778157">
<ele>869.9</ele>
<time>2013-05-08T11:11:01.000Z</time>
</trkpt>
<trkpt lat="44.194311" lon="2.778018">
<ele>870.5</ele>
<time>2013-05-08T11:11:02.000Z</time>
</trkpt>
<trkpt lat="44.194309" lon="2.777869">
<ele>870.9</ele>
<time>2013-05-08T11:11:03.000Z</time>
</trkpt>
<trkpt lat="44.194304" lon="2.777713">
<ele>871.2</ele>
<time>2013-05-08T11:11:04.000Z</time>
</trkpt>
<trkpt lat="44.19431" lon="2.777542">
<ele>870.9</ele>
<time>2013-05-08T11:11:05.000Z</time>
</trkpt>
<trkpt lat="44.194326" lon="2.77736">
<ele>870.9</ele>
<time>2013-05-08T11:11:06.000Z</time>
</trkpt>
<trkpt lat="44.194344" lon="2.777173">
<ele>871.1</ele>
<time>2013-05-08T11:11:07.000Z</time>
</trkpt>
<trkpt lat="44.194363" lon="2.77698">
<ele>871.2</ele>
<time>2013-05-08T11:11:08.000Z</time>
</trkpt>
<trkpt lat="44.194382" lon="2.776784">
<ele>871.4</ele>
<time>2013-05-08T11:11:09.000Z</time>
</trkpt>
<trkpt lat="44.194396" lon="2.776587">
<ele>871.3</ele>
<time>2013-05-08T11:11:10.000Z</time>
</trkpt>
<trkpt lat="44.194412" lon="2.776395">
<ele>870.8</ele>
<time>2013-05-08T11:11:11.000Z</time>
</trkpt>
<trkpt lat="44.194431" lon="2.776217">
<ele>870.7</ele>
<time>2013-05-08T11:11:12.000Z</time>
</trkpt>
<trkpt lat="44.194487" lon="2.776063">
<ele>870.4</ele>
<time>2013-05-08T11:11:13.000Z</time>
</trkpt>
<trkpt lat="44.194552" lon="2.775923">
<ele>870.3</ele>
<time>2013-05-08T11:11:14.000Z</time>
</trkpt>
<trkpt lat="44.194645" lon="2.775813">
<ele>870</ele>
<time>2013-05-08T11:11:15.000Z</time>
</trkpt>
<trkpt lat="44.19475" lon="2.775695">
<ele>869.6</ele>
<time>2013-05-08T11:11:16.000Z</time>
</trkpt>
<trkpt lat="44.194863" lon="2.775583">
<ele>869.2</ele>
<time>2013-05-08T11:11:17.000Z</time>
</trkpt>
<trkpt lat="44.194976" lon="2.775477">
<ele>868.7</ele>
<time>2013-05-08T11:11:18.000Z</time>
</trkpt>
<trkpt lat="44.195095" lon="2.775377">
<ele>868.3</ele>
<time>2013-05-08T11:11:19.000Z</time>
</trkpt>
<trkpt lat="44.195228" lon="2.7753">
<ele>867.9</ele>
<time>2013-05-08T11:11:20.000Z</time>
</trkpt>
<trkpt lat="44.195347" lon="2.775234">
<ele>867.6</ele>
<time>2013-05-08T11:11:21.000Z</time>
</trkpt>
<trkpt lat="44.195452" lon="2.775173">
<ele>867.5</ele>
<time>2013-05-08T11:11:22.000Z</time>
</trkpt>
<trkpt lat="44.195542" lon="2.775135">
<ele>867.2</ele>
<time>2013-05-08T11:11:23.000Z</time>
</trkpt>
<trkpt lat="44.195634" lon="2.775122">
<ele>866.6</ele>
<time>2013-05-08T11:11:24.000Z</time>
</trkpt>
<trkpt lat="44.195729" lon="2.775106">
<ele>865.9</ele>
<time>2013-05-08T11:11:25.000Z</time>
</trkpt>
<trkpt lat="44.195809" lon="2.775091">
<ele>865.2</ele>
<time>2013-05-08T11:11:26.000Z</time>
</trkpt>
<trkpt lat="44.195862" lon="2.775082">
<ele>864.7</ele>
<time>2013-05-08T11:11:27.000Z</time>
</trkpt>
<trkpt lat="44.195891" lon="2.775084">
<ele>864.8</ele>
<time>2013-05-08T11:12:08.000Z</time>
</trkpt>
<trkpt lat="44.195936" lon="2.775031">
<ele>864.8</ele>
<time>2013-05-08T11:12:09.000Z</time>
</trkpt>
<trkpt lat="44.195981" lon="2.774975">
<ele>866.3</ele>
<time>2013-05-08T11:12:10.000Z</time>
</trkpt>
<trkpt lat="44.196052" lon="2.774904">
<ele>867.2</ele>
<time>2013-05-08T11:12:11.000Z</time>
</trkpt>
<trkpt lat="44.196217" lon="2.774761">
<ele>867.3</ele>
<time>2013-05-08T11:12:12.000Z</time>
</trkpt>
<trkpt lat="44.196327" lon="2.774718">
<ele>867.4</ele>
<time>2013-05-08T11:12:13.000Z</time>
</trkpt>
<trkpt lat="44.196451" lon="2.774675">
<ele>867.2</ele>
<time>2013-05-08T11:12:14.000Z</time>
</trkpt>
<trkpt lat="44.196571" lon="2.774649">
<ele>867.1</ele>
<time>2013-05-08T11:12:15.000Z</time>
</trkpt>
<trkpt lat="44.196689" lon="2.774638">
<ele>866.9</ele>
<time>2013-05-08T11:12:16.000Z</time>
</trkpt>
<trkpt lat="44.196786" lon="2.774646">
<ele>866.6</ele>
<time>2013-05-08T11:12:17.000Z</time>
</trkpt>
<trkpt lat="44.196852" lon="2.77465">
<ele>866.4</ele>
<time>2013-05-08T11:12:18.000Z</time>
</trkpt>
<trkpt lat="44.196931" lon="2.774642">
<ele>866</ele>
<time>2013-05-08T11:12:19.000Z</time>
</trkpt>
<trkpt lat="44.196988" lon="2.774629">
<ele>865.8</ele>
<time>2013-05-08T11:12:20.000Z</time>
</trkpt>
<trkpt lat="44.197015" lon="2.774617">
<ele>865.8</ele>
<time>2013-05-08T11:12:21.000Z</time>
</trkpt>
<trkpt lat="44.197042" lon="2.774601">
<ele>865.8</ele>
<time>2013-05-08T11:12:22.000Z</time>
</trkpt>
<trkpt lat="44.197085" lon="2.774588">
<ele>865.7</ele>
<time>2013-05-08T11:12:24.000Z</time>
</trkpt>
<trkpt lat="44.197101" lon="2.774588">
<ele>865.7</ele>
<time>2013-05-08T11:12:25.000Z</time>
</trkpt>
<trkpt lat="44.197095" lon="2.774565">
<ele>865</ele>
<time>2013-05-08T11:12:49.000Z</time>
</trkpt>
<trkpt lat="44.197048" lon="2.774625">
<ele>865</ele>
<time>2013-05-08T11:12:50.000Z</time>
</trkpt>
<trkpt lat="44.197028" lon="2.774657">
<ele>865.1</ele>
<time>2013-05-08T11:12:53.000Z</time>
</trkpt>
<trkpt lat="44.196989" lon="2.774702">
<ele>865.3</ele>
<time>2013-05-08T11:12:54.000Z</time>
</trkpt>
<trkpt lat="44.196934" lon="2.774738">
<ele>865.2</ele>
<time>2013-05-08T11:12:55.000Z</time>
</trkpt>
<trkpt lat="44.196853" lon="2.774769">
<ele>864.9</ele>
<time>2013-05-08T11:12:56.000Z</time>
</trkpt>
<trkpt lat="44.196743" lon="2.774793">
<ele>864.8</ele>
<time>2013-05-08T11:12:57.000Z</time>
</trkpt>
<trkpt lat="44.196619" lon="2.774829">
<ele>864.5</ele>
<time>2013-05-08T11:12:58.000Z</time>
</trkpt>
<trkpt lat="44.196484" lon="2.774871">
<ele>864.2</ele>
<time>2013-05-08T11:12:59.000Z</time>
</trkpt>
<trkpt lat="44.196349" lon="2.774905">
<ele>864.1</ele>
<time>2013-05-08T11:13:00.000Z</time>
</trkpt>
<trkpt lat="44.196218" lon="2.774936">
<ele>864.2</ele>
<time>2013-05-08T11:13:01.000Z</time>
</trkpt>
<trkpt lat="44.196098" lon="2.774967">
<ele>864.5</ele>
<time>2013-05-08T11:13:02.000Z</time>
</trkpt>
<trkpt lat="44.196002" lon="2.774999">
<ele>865</ele>
<time>2013-05-08T11:13:03.000Z</time>
</trkpt>
<trkpt lat="44.195911" lon="2.775033">
<ele>865.8</ele>
<time>2013-05-08T11:13:04.000Z</time>
</trkpt>
<trkpt lat="44.19586" lon="2.775053">
<ele>866.6</ele>
<time>2013-05-08T11:13:05.000Z</time>
</trkpt>
<trkpt lat="44.195831" lon="2.775074">
<ele>866.6</ele>
<time>2013-05-08T11:13:06.000Z</time>
</trkpt>
<trkpt lat="44.195816" lon="2.77509">
<ele>866.7</ele>
<time>2013-05-08T11:13:07.000Z</time>
</trkpt>
<trkpt lat="44.195797" lon="2.775127">
<ele>866.8</ele>
<time>2013-05-08T11:13:10.000Z</time>
</trkpt>
<trkpt lat="44.195812" lon="2.775156">
<ele>866.9</ele>
<time>2013-05-08T11:13:11.000Z</time>
</trkpt>
<trkpt lat="44.195887" lon="2.775197">
<ele>869.4</ele>
<time>2013-05-08T11:13:12.000Z</time>
</trkpt>
<trkpt lat="44.196008" lon="2.775171">
<ele>871.7</ele>
<time>2013-05-08T11:13:13.000Z</time>
</trkpt>
<trkpt lat="44.196137" lon="2.775129">
<ele>873.2</ele>
<time>2013-05-08T11:13:14.000Z</time>
</trkpt>
<trkpt lat="44.196277" lon="2.775091">
<ele>874.3</ele>
<time>2013-05-08T11:13:15.000Z</time>
</trkpt>
<trkpt lat="44.196429" lon="2.775045">
<ele>875.1</ele>
<time>2013-05-08T11:13:16.000Z</time>
</trkpt>
<trkpt lat="44.196588" lon="2.775001">
<ele>875.9</ele>
<time>2013-05-08T11:13:17.000Z</time>
</trkpt>
<trkpt lat="44.196748" lon="2.774961">
<ele>876.7</ele>
<time>2013-05-08T11:13:18.000Z</time>
</trkpt>
<trkpt lat="44.196916" lon="2.774929">
<ele>877</ele>
<time>2013-05-08T11:13:19.000Z</time>
</trkpt>
<trkpt lat="44.197079" lon="2.774917">
<ele>876.9</ele>
<time>2013-05-08T11:13:20.000Z</time>
</trkpt>
<trkpt lat="44.197238" lon="2.774954">
<ele>876.2</ele>
<time>2013-05-08T11:13:21.000Z</time>
</trkpt>
<trkpt lat="44.197375" lon="2.775027">
<ele>875.9</ele>
<time>2013-05-08T11:13:22.000Z</time>
</trkpt>
<trkpt lat="44.197497" lon="2.775109">
<ele>875.6</ele>
<time>2013-05-08T11:13:23.000Z</time>
</trkpt>
<trkpt lat="44.197598" lon="2.775249">
<ele>875.5</ele>
<time>2013-05-08T11:13:24.000Z</time>
</trkpt>
<trkpt lat="44.197699" lon="2.775391">
<ele>875.2</ele>
<time>2013-05-08T11:13:25.000Z</time>
</trkpt>
<trkpt lat="44.197787" lon="2.775533">
<ele>874.9</ele>
<time>2013-05-08T11:13:26.000Z</time>
</trkpt>
<trkpt lat="44.197883" lon="2.77566">
<ele>874.6</ele>
<time>2013-05-08T11:13:27.000Z</time>
</trkpt>
<trkpt lat="44.197991" lon="2.775759">
<ele>874.3</ele>
<time>2013-05-08T11:13:28.000Z</time>
</trkpt>
<trkpt lat="44.198094" lon="2.775821">
<ele>874.4</ele>
<time>2013-05-08T11:13:29.000Z</time>
</trkpt>
<trkpt lat="44.198219" lon="2.77587">
<ele>874</ele>
<time>2013-05-08T11:13:30.000Z</time>
</trkpt>
<trkpt lat="44.198332" lon="2.775926">
<ele>873.7</ele>
<time>2013-05-08T11:13:31.000Z</time>
</trkpt>
<trkpt lat="44.198441" lon="2.77597">
<ele>873.3</ele>
<time>2013-05-08T11:13:32.000Z</time>
</trkpt>
<trkpt lat="44.19855" lon="2.776027">
<ele>873.3</ele>
<time>2013-05-08T11:13:33.000Z</time>
</trkpt>
<trkpt lat="44.198653" lon="2.776093">
<ele>873.3</ele>
<time>2013-05-08T11:13:34.000Z</time>
</trkpt>
<trkpt lat="44.198755" lon="2.776182">
<ele>873.3</ele>
<time>2013-05-08T11:13:35.000Z</time>
</trkpt>
<trkpt lat="44.198847" lon="2.776257">
<ele>873.6</ele>
<time>2013-05-08T11:13:36.000Z</time>
</trkpt>
<trkpt lat="44.198934" lon="2.776278">
<ele>873.8</ele>
<time>2013-05-08T11:13:37.000Z</time>
</trkpt>
<trkpt lat="44.199029" lon="2.776297">
<ele>873.9</ele>
<time>2013-05-08T11:13:38.000Z</time>
</trkpt>
<trkpt lat="44.199131" lon="2.776312">
<ele>873.9</ele>
<time>2013-05-08T11:13:39.000Z</time>
</trkpt>
<trkpt lat="44.199255" lon="2.77633">
<ele>873.3</ele>
<time>2013-05-08T11:13:40.000Z</time>
</trkpt>
<trkpt lat="44.199371" lon="2.776347">
<ele>872.9</ele>
<time>2013-05-08T11:13:41.000Z</time>
</trkpt>
<trkpt lat="44.199483" lon="2.776356">
<ele>872.3</ele>
<time>2013-05-08T11:13:42.000Z</time>
</trkpt>
<trkpt lat="44.199597" lon="2.776366">
<ele>872.2</ele>
<time>2013-05-08T11:13:43.000Z</time>
</trkpt>
<trkpt lat="44.19973" lon="2.776328">
<ele>872.3</ele>
<time>2013-05-08T11:13:44.000Z</time>
</trkpt>
<trkpt lat="44.19987" lon="2.776275">
<ele>872.4</ele>
<time>2013-05-08T11:13:45.000Z</time>
</trkpt>
<trkpt lat="44.200009" lon="2.77622">
<ele>872.2</ele>
<time>2013-05-08T11:13:46.000Z</time>
</trkpt>
<trkpt lat="44.200161" lon="2.776167">
<ele>871.9</ele>
<time>2013-05-08T11:13:47.000Z</time>
</trkpt>
<trkpt lat="44.200304" lon="2.776134">
<ele>871.6</ele>
<time>2013-05-08T11:13:48.000Z</time>
</trkpt>
<trkpt lat="44.20044" lon="2.77615">
<ele>871.4</ele>
<time>2013-05-08T11:13:49.000Z</time>
</trkpt>
<trkpt lat="44.200563" lon="2.77618">
<ele>871.2</ele>
<time>2013-05-08T11:13:50.000Z</time>
</trkpt>
<trkpt lat="44.200686" lon="2.77626">
<ele>870.7</ele>
<time>2013-05-08T11:13:51.000Z</time>
</trkpt>
<trkpt lat="44.200799" lon="2.776339">
<ele>870.3</ele>
<time>2013-05-08T11:13:52.000Z</time>
</trkpt>
<trkpt lat="44.20091" lon="2.776433">
<ele>870.2</ele>
<time>2013-05-08T11:13:53.000Z</time>
</trkpt>
<trkpt lat="44.201013" lon="2.776532">
<ele>870.4</ele>
<time>2013-05-08T11:13:54.000Z</time>
</trkpt>
<trkpt lat="44.2011" lon="2.776618">
<ele>870.4</ele>
<time>2013-05-08T11:13:55.000Z</time>
</trkpt>
<trkpt lat="44.201185" lon="2.776726">
<ele>870.7</ele>
<time>2013-05-08T11:13:56.000Z</time>
</trkpt>
<trkpt lat="44.201267" lon="2.776829">
<ele>871.2</ele>
<time>2013-05-08T11:13:57.000Z</time>
</trkpt>
<trkpt lat="44.20135" lon="2.776933">
<ele>871.7</ele>
<time>2013-05-08T11:13:58.000Z</time>
</trkpt>
<trkpt lat="44.201427" lon="2.777029">
<ele>872</ele>
<time>2013-05-08T11:13:59.000Z</time>
</trkpt>
<trkpt lat="44.20151" lon="2.777123">
<ele>872.3</ele>
<time>2013-05-08T11:14:00.000Z</time>
</trkpt>
<trkpt lat="44.201597" lon="2.777218">
<ele>872.3</ele>
<time>2013-05-08T11:14:01.000Z</time>
</trkpt>
<trkpt lat="44.201695" lon="2.77731">
<ele>872.4</ele>
<time>2013-05-08T11:14:02.000Z</time>
</trkpt>
<trkpt lat="44.201814" lon="2.777362">
<ele>872.8</ele>
<time>2013-05-08T11:14:03.000Z</time>
</trkpt>
<trkpt lat="44.201927" lon="2.777406">
<ele>873.4</ele>
<time>2013-05-08T11:14:04.000Z</time>
</trkpt>
<trkpt lat="44.202037" lon="2.777439">
<ele>873.6</ele>
<time>2013-05-08T11:14:05.000Z</time>
</trkpt>
<trkpt lat="44.202148" lon="2.777443">
<ele>873.5</ele>
<time>2013-05-08T11:14:06.000Z</time>
</trkpt>
<trkpt lat="44.20227" lon="2.777441">
<ele>873.2</ele>
<time>2013-05-08T11:14:07.000Z</time>
</trkpt>
<trkpt lat="44.202383" lon="2.777434">
<ele>872.8</ele>
<time>2013-05-08T11:14:08.000Z</time>
</trkpt>
<trkpt lat="44.202496" lon="2.777426">
<ele>872.4</ele>
<time>2013-05-08T11:14:09.000Z</time>
</trkpt>
<trkpt lat="44.202614" lon="2.777437">
<ele>871.9</ele>
<time>2013-05-08T11:14:10.000Z</time>
</trkpt>
<trkpt lat="44.202728" lon="2.777462">
<ele>871.4</ele>
<time>2013-05-08T11:14:11.000Z</time>
</trkpt>
<trkpt lat="44.202862" lon="2.777494">
<ele>871</ele>
<time>2013-05-08T11:14:12.000Z</time>
</trkpt>
<trkpt lat="44.202993" lon="2.777543">
<ele>870.7</ele>
<time>2013-05-08T11:14:13.000Z</time>
</trkpt>
<trkpt lat="44.203133" lon="2.777593">
<ele>870.2</ele>
<time>2013-05-08T11:14:14.000Z</time>
</trkpt>
<trkpt lat="44.203266" lon="2.777641">
<ele>870.1</ele>
<time>2013-05-08T11:14:15.000Z</time>
</trkpt>
<trkpt lat="44.203387" lon="2.777692">
<ele>870.3</ele>
<time>2013-05-08T11:14:16.000Z</time>
</trkpt>
<trkpt lat="44.203515" lon="2.777751">
<ele>870.5</ele>
<time>2013-05-08T11:14:17.000Z</time>
</trkpt>
<trkpt lat="44.203654" lon="2.777808">
<ele>870.6</ele>
<time>2013-05-08T11:14:18.000Z</time>
</trkpt>
<trkpt lat="44.203792" lon="2.77787">
<ele>870.7</ele>
<time>2013-05-08T11:14:19.000Z</time>
</trkpt>
<trkpt lat="44.203933" lon="2.777933">
<ele>870.8</ele>
<time>2013-05-08T11:14:20.000Z</time>
</trkpt>
<trkpt lat="44.20407" lon="2.777999">
<ele>871</ele>
<time>2013-05-08T11:14:21.000Z</time>
</trkpt>
<trkpt lat="44.204201" lon="2.778068">
<ele>871.2</ele>
<time>2013-05-08T11:14:22.000Z</time>
</trkpt>
<trkpt lat="44.204333" lon="2.778138">
<ele>871.8</ele>
<time>2013-05-08T11:14:23.000Z</time>
</trkpt>
<trkpt lat="44.204438" lon="2.778194">
<ele>871.8</ele>
<time>2013-05-08T11:14:24.000Z</time>
</trkpt>
<trkpt lat="44.20453" lon="2.778244">
<ele>871.9</ele>
<time>2013-05-08T11:14:25.000Z</time>
</trkpt>
<trkpt lat="44.204618" lon="2.778284">
<ele>871.9</ele>
<time>2013-05-08T11:14:26.000Z</time>
</trkpt>
<trkpt lat="44.204707" lon="2.778321">
<ele>872.1</ele>
<time>2013-05-08T11:14:27.000Z</time>
</trkpt>
<trkpt lat="44.204806" lon="2.778314">
<ele>872.5</ele>
<time>2013-05-08T11:14:28.000Z</time>
</trkpt>
<trkpt lat="44.20492" lon="2.778302">
<ele>872.5</ele>
<time>2013-05-08T11:14:29.000Z</time>
</trkpt>
<trkpt lat="44.205037" lon="2.778277">
<ele>872.5</ele>
<time>2013-05-08T11:14:30.000Z</time>
</trkpt>
<trkpt lat="44.205154" lon="2.778249">
<ele>872.6</ele>
<time>2013-05-08T11:14:31.000Z</time>
</trkpt>
<trkpt lat="44.205282" lon="2.778213">
<ele>872.6</ele>
<time>2013-05-08T11:14:32.000Z</time>
</trkpt>
<trkpt lat="44.20541" lon="2.778171">
<ele>872.9</ele>
<time>2013-05-08T11:14:33.000Z</time>
</trkpt>
<trkpt lat="44.205551" lon="2.778102">
<ele>873.3</ele>
<time>2013-05-08T11:14:34.000Z</time>
</trkpt>
<trkpt lat="44.2057" lon="2.778019">
<ele>873.6</ele>
<time>2013-05-08T11:14:35.000Z</time>
</trkpt>
<trkpt lat="44.205845" lon="2.777933">
<ele>873.8</ele>
<time>2013-05-08T11:14:36.000Z</time>
</trkpt>
<trkpt lat="44.205991" lon="2.777858">
<ele>873.8</ele>
<time>2013-05-08T11:14:37.000Z</time>
</trkpt>
<trkpt lat="44.206134" lon="2.777784">
<ele>873.8</ele>
<time>2013-05-08T11:14:38.000Z</time>
</trkpt>
<trkpt lat="44.206276" lon="2.777717">
<ele>873.8</ele>
<time>2013-05-08T11:14:39.000Z</time>
</trkpt>
<trkpt lat="44.206403" lon="2.777655">
<ele>873.6</ele>
<time>2013-05-08T11:14:40.000Z</time>
</trkpt>
<trkpt lat="44.206518" lon="2.777608">
<ele>873.3</ele>
<time>2013-05-08T11:14:41.000Z</time>
</trkpt>
<trkpt lat="44.206625" lon="2.777568">
<ele>873.1</ele>
<time>2013-05-08T11:14:42.000Z</time>
</trkpt>
<trkpt lat="44.206712" lon="2.777531">
<ele>872.9</ele>
<time>2013-05-08T11:14:43.000Z</time>
</trkpt>
<trkpt lat="44.206777" lon="2.777515">
<ele>873.5</ele>
<time>2013-05-08T11:14:44.000Z</time>
</trkpt>
<trkpt lat="44.20684" lon="2.777491">
<ele>873.8</ele>
<time>2013-05-08T11:14:45.000Z</time>
</trkpt>
<trkpt lat="44.206888" lon="2.777468">
<ele>874.4</ele>
<time>2013-05-08T11:14:46.000Z</time>
</trkpt>
<trkpt lat="44.206922" lon="2.777447">
<ele>874.4</ele>
<time>2013-05-08T11:14:47.000Z</time>
</trkpt>
<trkpt lat="44.206947" lon="2.777439">
<ele>874.4</ele>
<time>2013-05-08T11:14:48.000Z</time>
</trkpt>
<trkpt lat="44.206983" lon="2.77742">
<ele>874.3</ele>
<time>2013-05-08T11:14:57.000Z</time>
</trkpt>
<trkpt lat="44.20699" lon="2.777374">
<ele>874.3</ele>
<time>2013-05-08T11:14:58.000Z</time>
</trkpt>
<trkpt lat="44.20699" lon="2.777374">
<ele>874.3</ele>
<time>2013-05-08T11:14:59.000Z</time>
</trkpt>
<trkpt lat="44.206978" lon="2.777313">
<ele>874.4</ele>
<time>2013-05-08T11:15:00.000Z</time>
</trkpt>
<trkpt lat="44.206957" lon="2.777285">
<ele>874.5</ele>
<time>2013-05-08T11:15:01.000Z</time>
</trkpt>
<trkpt lat="44.20693" lon="2.777243">
<ele>874.5</ele>
<time>2013-05-08T11:15:02.000Z</time>
</trkpt>
<trkpt lat="44.206906" lon="2.777207">
<ele>874.6</ele>
<time>2013-05-08T11:15:03.000Z</time>
</trkpt>
<trkpt lat="44.206863" lon="2.777177">
<ele>875.5</ele>
<time>2013-05-08T11:15:04.000Z</time>
</trkpt>
<trkpt lat="44.206825" lon="2.777155">
<ele>876.5</ele>
<time>2013-05-08T11:15:05.000Z</time>
</trkpt>
<trkpt lat="44.206766" lon="2.777159">
<ele>877.3</ele>
<time>2013-05-08T11:15:06.000Z</time>
</trkpt>
<trkpt lat="44.206699" lon="2.777175">
<ele>877.8</ele>
<time>2013-05-08T11:15:07.000Z</time>
</trkpt>
<trkpt lat="44.206623" lon="2.777197">
<ele>878.4</ele>
<time>2013-05-08T11:15:08.000Z</time>
</trkpt>
<trkpt lat="44.206551" lon="2.777222">
<ele>879</ele>
<time>2013-05-08T11:15:09.000Z</time>
</trkpt>
<trkpt lat="44.206489" lon="2.777245">
<ele>879.5</ele>
<time>2013-05-08T11:15:10.000Z</time>
</trkpt>
<trkpt lat="44.206437" lon="2.777264">
<ele>879.9</ele>
<time>2013-05-08T11:15:11.000Z</time>
</trkpt>
<trkpt lat="44.206385" lon="2.77728">
<ele>879.8</ele>
<time>2013-05-08T11:15:12.000Z</time>
</trkpt>
<trkpt lat="44.206331" lon="2.777294">
<ele>879.6</ele>
<time>2013-05-08T11:15:13.000Z</time>
</trkpt>
<trkpt lat="44.206284" lon="2.777296">
<ele>879.6</ele>
<time>2013-05-08T11:15:14.000Z</time>
</trkpt>
<trkpt lat="44.206237" lon="2.777297">
<ele>879.4</ele>
<time>2013-05-08T11:15:15.000Z</time>
</trkpt>
<trkpt lat="44.206176" lon="2.777294">
<ele>878.7</ele>
<time>2013-05-08T11:15:16.000Z</time>
</trkpt>
<trkpt lat="44.206109" lon="2.777284">
<ele>877.5</ele>
<time>2013-05-08T11:15:17.000Z</time>
</trkpt>
<trkpt lat="44.206041" lon="2.777263">
<ele>876</ele>
<time>2013-05-08T11:15:18.000Z</time>
</trkpt>
<trkpt lat="44.205973" lon="2.777242">
<ele>874.3</ele>
<time>2013-05-08T11:15:19.000Z</time>
</trkpt>
<trkpt lat="44.205901" lon="2.777224">
<ele>872.8</ele>
<time>2013-05-08T11:15:20.000Z</time>
</trkpt>
<trkpt lat="44.205835" lon="2.777208">
<ele>871.4</ele>
<time>2013-05-08T11:15:21.000Z</time>
</trkpt>
<trkpt lat="44.205772" lon="2.777189">
<ele>870.1</ele>
<time>2013-05-08T11:15:22.000Z</time>
</trkpt>
<trkpt lat="44.20571" lon="2.777171">
<ele>868.6</ele>
<time>2013-05-08T11:15:23.000Z</time>
</trkpt>
<trkpt lat="44.205649" lon="2.777152">
<ele>867.8</ele>
<time>2013-05-08T11:15:24.000Z</time>
</trkpt>
<trkpt lat="44.205584" lon="2.777127">
<ele>867.1</ele>
<time>2013-05-08T11:15:25.000Z</time>
</trkpt>
<trkpt lat="44.205517" lon="2.777093">
<ele>866.8</ele>
<time>2013-05-08T11:15:26.000Z</time>
</trkpt>
<trkpt lat="44.205465" lon="2.777033">
<ele>866.3</ele>
<time>2013-05-08T11:15:27.000Z</time>
</trkpt>
<trkpt lat="44.205416" lon="2.776975">
<ele>866</ele>
<time>2013-05-08T11:15:28.000Z</time>
</trkpt>
<trkpt lat="44.205375" lon="2.776929">
<ele>866</ele>
<time>2013-05-08T11:15:29.000Z</time>
</trkpt>
<trkpt lat="44.205338" lon="2.77689">
<ele>866.4</ele>
<time>2013-05-08T11:15:30.000Z</time>
</trkpt>
<trkpt lat="44.205305" lon="2.776856">
<ele>866.8</ele>
<time>2013-05-08T11:15:31.000Z</time>
</trkpt>
<trkpt lat="44.205288" lon="2.776812">
<ele>866.7</ele>
<time>2013-05-08T11:15:32.000Z</time>
</trkpt>
<trkpt lat="44.205283" lon="2.776755">
<ele>866.6</ele>
<time>2013-05-08T11:15:33.000Z</time>
</trkpt>
<trkpt lat="44.205289" lon="2.776707">
<ele>866.4</ele>
<time>2013-05-08T11:15:34.000Z</time>
</trkpt>
<trkpt lat="44.205319" lon="2.77666">
<ele>864.9</ele>
<time>2013-05-08T11:15:35.000Z</time>
</trkpt>
<trkpt lat="44.205351" lon="2.776613">
<ele>863.7</ele>
<time>2013-05-08T11:15:36.000Z</time>
</trkpt>
<trkpt lat="44.205384" lon="2.776566">
<ele>862.8</ele>
<time>2013-05-08T11:15:37.000Z</time>
</trkpt>
<trkpt lat="44.205413" lon="2.776521">
<ele>862</ele>
<time>2013-05-08T11:15:38.000Z</time>
</trkpt>
<trkpt lat="44.205442" lon="2.776473">
<ele>861.5</ele>
<time>2013-05-08T11:15:39.000Z</time>
</trkpt>
<trkpt lat="44.205473" lon="2.776428">
<ele>860.9</ele>
<time>2013-05-08T11:15:40.000Z</time>
</trkpt>
<trkpt lat="44.205497" lon="2.776395">
<ele>860.9</ele>
<time>2013-05-08T11:15:41.000Z</time>
</trkpt>
<trkpt lat="44.205515" lon="2.776362">
<ele>860.8</ele>
<time>2013-05-08T11:15:42.000Z</time>
</trkpt>
<trkpt lat="44.205539" lon="2.776325">
<ele>860.8</ele>
<time>2013-05-08T11:15:43.000Z</time>
</trkpt>
<trkpt lat="44.205575" lon="2.776306">
<ele>860.8</ele>
<time>2013-05-08T11:15:44.000Z</time>
</trkpt>
<trkpt lat="44.205617" lon="2.776288">
<ele>860.6</ele>
<time>2013-05-08T11:15:45.000Z</time>
</trkpt>
<trkpt lat="44.205668" lon="2.776284">
<ele>860.4</ele>
<time>2013-05-08T11:15:46.000Z</time>
</trkpt>
<trkpt lat="44.205716" lon="2.776281">
<ele>860.3</ele>
<time>2013-05-08T11:15:47.000Z</time>
</trkpt>
<trkpt lat="44.205761" lon="2.776278">
<ele>860.3</ele>
<time>2013-05-08T11:15:48.000Z</time>
</trkpt>
<trkpt lat="44.205803" lon="2.776275">
<ele>860.2</ele>
<time>2013-05-08T11:15:49.000Z</time>
</trkpt>
<trkpt lat="44.205842" lon="2.776265">
<ele>859.9</ele>
<time>2013-05-08T11:15:50.000Z</time>
</trkpt>
<trkpt lat="44.205882" lon="2.776255">
<ele>859.6</ele>
<time>2013-05-08T11:15:51.000Z</time>
</trkpt>
<trkpt lat="44.205924" lon="2.776245">
<ele>859.4</ele>
<time>2013-05-08T11:15:52.000Z</time>
</trkpt>
<trkpt lat="44.205967" lon="2.776235">
<ele>859.4</ele>
<time>2013-05-08T11:15:53.000Z</time>
</trkpt>
<trkpt lat="44.20601" lon="2.776226">
<ele>859.5</ele>
<time>2013-05-08T11:15:54.000Z</time>
</trkpt>
<trkpt lat="44.206051" lon="2.776219">
<ele>859.7</ele>
<time>2013-05-08T11:15:55.000Z</time>
</trkpt>
<trkpt lat="44.206094" lon="2.77621">
<ele>859.7</ele>
<time>2013-05-08T11:15:56.000Z</time>
</trkpt>
<trkpt lat="44.206132" lon="2.776198">
<ele>859.7</ele>
<time>2013-05-08T11:15:57.000Z</time>
</trkpt>
<trkpt lat="44.206166" lon="2.776187">
<ele>859.7</ele>
<time>2013-05-08T11:15:58.000Z</time>
</trkpt>
<trkpt lat="44.2062" lon="2.77617">
<ele>859.7</ele>
<time>2013-05-08T11:16:00.000Z</time>
</trkpt>
<trkpt lat="44.206212" lon="2.776163">
<ele>859.7</ele>
<time>2013-05-08T11:16:01.000Z</time>
</trkpt>
<trkpt lat="44.206212" lon="2.776163">
<ele>859.2</ele>
<time>2013-05-08T11:17:48.000Z</time>
</trkpt>
<trkpt lat="44.206205" lon="2.776097">
<ele>859.1</ele>
<time>2013-05-08T11:17:49.000Z</time>
</trkpt>
<trkpt lat="44.206206" lon="2.776036">
<ele>858.9</ele>
<time>2013-05-08T11:17:52.000Z</time>
</trkpt>
<trkpt lat="44.206206" lon="2.776017">
<ele>858.8</ele>
<time>2013-05-08T11:17:53.000Z</time>
</trkpt>
<trkpt lat="44.206205" lon="2.775955">
<ele>858.6</ele>
<time>2013-05-08T11:17:57.000Z</time>
</trkpt>
<trkpt lat="44.206206" lon="2.77594">
<ele>858.6</ele>
<time>2013-05-08T11:17:58.000Z</time>
</trkpt>
<trkpt lat="44.206218" lon="2.775884">
<ele>858.4</ele>
<time>2013-05-08T11:18:02.000Z</time>
</trkpt>
<trkpt lat="44.206224" lon="2.775872">
<ele>858.4</ele>
<time>2013-05-08T11:18:03.000Z</time>
</trkpt>
<trkpt lat="44.206256" lon="2.775835">
<ele>858</ele>
<time>2013-05-08T11:18:12.000Z</time>
</trkpt>
<trkpt lat="44.206298" lon="2.775826">
<ele>858</ele>
<time>2013-05-08T11:18:13.000Z</time>
</trkpt>
<trkpt lat="44.206337" lon="2.775816">
<ele>858.2</ele>
<time>2013-05-08T11:19:03.000Z</time>
</trkpt>
<trkpt lat="44.206409" lon="2.775792">
<ele>858.2</ele>
<time>2013-05-08T11:19:04.000Z</time>
</trkpt>
<trkpt lat="44.206428" lon="2.775848">
<ele>858.4</ele>
<time>2013-05-08T11:22:23.000Z</time>
</trkpt>
<trkpt lat="44.206428" lon="2.77585">
<ele>858.4</ele>
<time>2013-05-08T11:22:24.000Z</time>
</trkpt>
<trkpt lat="44.206429" lon="2.775788">
<ele>857.8</ele>
<time>2013-05-08T11:23:22.000Z</time>
</trkpt>
<trkpt lat="44.206428" lon="2.775787">
<ele>857.8</ele>
<time>2013-05-08T11:23:23.000Z</time>
</trkpt>
<trkpt lat="44.206418" lon="2.775843">
<ele>857.4</ele>
<time>2013-05-08T11:24:39.000Z</time>
</trkpt>
<trkpt lat="44.206411" lon="2.775847">
<ele>857.4</ele>
<time>2013-05-08T11:24:40.000Z</time>
</trkpt>
<trkpt lat="44.206373" lon="2.775878">
<ele>857.2</ele>
<time>2013-05-08T11:24:53.000Z</time>
</trkpt>
<trkpt lat="44.206372" lon="2.77588">
<ele>857.2</ele>
<time>2013-05-08T11:24:54.000Z</time>
</trkpt>
<trkpt lat="44.206411" lon="2.77585">
<ele>856.9</ele>
<time>2013-05-08T11:25:27.000Z</time>
</trkpt>
<trkpt lat="44.206412" lon="2.775851">
<ele>856.9</ele>
<time>2013-05-08T11:25:28.000Z</time>
</trkpt>
<trkpt lat="44.2064" lon="2.775791">
<ele>856.9</ele>
<time>2013-05-08T11:26:18.000Z</time>
</trkpt>
<trkpt lat="44.206398" lon="2.77579">
<ele>856.9</ele>
<time>2013-05-08T11:26:19.000Z</time>
</trkpt>
<trkpt lat="44.206439" lon="2.775768">
<ele>857</ele>
<time>2013-05-08T11:26:55.000Z</time>
</trkpt>
<trkpt lat="44.206443" lon="2.775771">
<ele>857</ele>
<time>2013-05-08T11:26:56.000Z</time>
</trkpt>
<trkpt lat="44.206445" lon="2.775826">
<ele>857.1</ele>
<time>2013-05-08T11:27:18.000Z</time>
</trkpt>
<trkpt lat="44.206444" lon="2.775834">
<ele>857.1</ele>
<time>2013-05-08T11:27:19.000Z</time>
</trkpt>
<trkpt lat="44.206401" lon="2.775817">
<ele>857.3</ele>
<time>2013-05-08T11:27:38.000Z</time>
</trkpt>
<trkpt lat="44.2064" lon="2.775816">
<ele>857.3</ele>
<time>2013-05-08T11:27:39.000Z</time>
</trkpt>
<trkpt lat="44.206428" lon="2.775862">
<ele>857.4</ele>
<time>2013-05-08T11:28:46.000Z</time>
</trkpt>
<trkpt lat="44.206429" lon="2.775864">
<ele>857.4</ele>
<time>2013-05-08T11:28:47.000Z</time>
</trkpt>
<trkpt lat="44.206471" lon="2.775844">
<ele>856.8</ele>
<time>2013-05-08T11:29:41.000Z</time>
</trkpt>
<trkpt lat="44.206471" lon="2.775843">
<ele>856.8</ele>
<time>2013-05-08T11:29:42.000Z</time>
</trkpt>
<trkpt lat="44.206429" lon="2.77582">
<ele>856.5</ele>
<time>2013-05-08T11:30:10.000Z</time>
</trkpt>
<trkpt lat="44.206428" lon="2.775818">
<ele>856.5</ele>
<time>2013-05-08T11:30:11.000Z</time>
</trkpt>
<trkpt lat="44.206386" lon="2.775833">
<ele>856.4</ele>
<time>2013-05-08T11:30:20.000Z</time>
</trkpt>
<trkpt lat="44.206382" lon="2.775839">
<ele>856.4</ele>
<time>2013-05-08T11:30:21.000Z</time>
</trkpt>
<trkpt lat="44.206424" lon="2.775847">
<ele>855.4</ele>
<time>2013-05-08T11:30:56.000Z</time>
</trkpt>
<trkpt lat="44.206428" lon="2.775846">
<ele>855.4</ele>
<time>2013-05-08T11:30:57.000Z</time>
</trkpt>
<trkpt lat="44.206471" lon="2.775844">
<ele>854.8</ele>
<time>2013-05-08T11:31:40.000Z</time>
</trkpt>
<trkpt lat="44.206473" lon="2.775844">
<ele>854.8</ele>
<time>2013-05-08T11:31:41.000Z</time>
</trkpt>
<trkpt lat="44.206443" lon="2.775883">
<ele>854.6</ele>
<time>2013-05-08T11:31:57.000Z</time>
</trkpt>
<trkpt lat="44.206438" lon="2.775887">
<ele>854.6</ele>
<time>2013-05-08T11:31:58.000Z</time>
</trkpt>
<trkpt lat="44.206401" lon="2.775908">
<ele>854.7</ele>
<time>2013-05-08T11:32:04.000Z</time>
</trkpt>
<trkpt lat="44.206396" lon="2.775911">
<ele>854.7</ele>
<time>2013-05-08T11:32:05.000Z</time>
</trkpt>
<trkpt lat="44.206436" lon="2.775886">
<ele>854.3</ele>
<time>2013-05-08T11:32:20.000Z</time>
</trkpt>
<trkpt lat="44.206441" lon="2.775886">
<ele>854.2</ele>
<time>2013-05-08T11:32:21.000Z</time>
</trkpt>
<trkpt lat="44.206428" lon="2.775827">
<ele>853.8</ele>
<time>2013-05-08T11:33:12.999Z</time>
</trkpt>
<trkpt lat="44.206431" lon="2.77582">
<ele>853.8</ele>
<time>2013-05-08T11:33:13.999Z</time>
</trkpt>
<trkpt lat="44.206394" lon="2.775843">
<ele>854.9</ele>
<time>2013-05-08T11:34:24.999Z</time>
</trkpt>
<trkpt lat="44.206388" lon="2.775842">
<ele>855</ele>
<time>2013-05-08T11:34:25.999Z</time>
</trkpt>
<trkpt lat="44.206344" lon="2.775847">
<ele>855</ele>
<time>2013-05-08T11:34:35.999Z</time>
</trkpt>
<trkpt lat="44.206342" lon="2.775849">
<ele>854.9</ele>
<time>2013-05-08T11:34:36.999Z</time>
</trkpt>
<trkpt lat="44.206361" lon="2.775905">
<ele>854.5</ele>
<time>2013-05-08T11:35:04.999Z</time>
</trkpt>
<trkpt lat="44.206362" lon="2.775905">
<ele>854.4</ele>
<time>2013-05-08T11:35:05.999Z</time>
</trkpt>
<trkpt lat="44.206406" lon="2.775899">
<ele>853.6</ele>
<time>2013-05-08T11:35:44.999Z</time>
</trkpt>
<trkpt lat="44.206409" lon="2.775899">
<ele>853.6</ele>
<time>2013-05-08T11:35:45.999Z</time>
</trkpt>
<trkpt lat="44.206432" lon="2.775848">
<ele>853.3</ele>
<time>2013-05-08T11:36:34.999Z</time>
</trkpt>
<trkpt lat="44.206432" lon="2.775843">
<ele>853.3</ele>
<time>2013-05-08T11:36:35.999Z</time>
</trkpt>
<trkpt lat="44.206428" lon="2.775783">
<ele>853.5</ele>
<time>2013-05-08T11:37:02.999Z</time>
</trkpt>
<trkpt lat="44.206428" lon="2.775778">
<ele>853.5</ele>
<time>2013-05-08T11:37:03.999Z</time>
</trkpt>
<trkpt lat="44.20647" lon="2.775759">
<ele>853.4</ele>
<time>2013-05-08T11:37:18.999Z</time>
</trkpt>
<trkpt lat="44.206471" lon="2.775762">
<ele>853.4</ele>
<time>2013-05-08T11:37:19.999Z</time>
</trkpt>
<trkpt lat="44.206469" lon="2.775823">
<ele>853.4</ele>
<time>2013-05-08T11:37:30.999Z</time>
</trkpt>
<trkpt lat="44.206468" lon="2.775825">
<ele>853.4</ele>
<time>2013-05-08T11:37:31.999Z</time>
</trkpt>
<trkpt lat="44.206447" lon="2.775879">
<ele>853.6</ele>
<time>2013-05-08T11:38:03.999Z</time>
</trkpt>
<trkpt lat="44.206445" lon="2.775884">
<ele>853.6</ele>
<time>2013-05-08T11:38:04.999Z</time>
</trkpt>
<trkpt lat="44.20642" lon="2.775933">
<ele>854</ele>
<time>2013-05-08T11:38:16.999Z</time>
</trkpt>
<trkpt lat="44.206418" lon="2.775935">
<ele>854.1</ele>
<time>2013-05-08T11:38:17.999Z</time>
</trkpt>
<trkpt lat="44.206382" lon="2.775899">
<ele>854.8</ele>
<time>2013-05-08T11:39:30.999Z</time>
</trkpt>
<trkpt lat="44.20638" lon="2.775897">
<ele>854.8</ele>
<time>2013-05-08T11:39:31.999Z</time>
</trkpt>
<trkpt lat="44.206414" lon="2.775871">
<ele>854.8</ele>
<time>2013-05-08T11:39:44.999Z</time>
</trkpt>
<trkpt lat="44.20642" lon="2.775868">
<ele>854.8</ele>
<time>2013-05-08T11:39:45.999Z</time>
</trkpt>
<trkpt lat="44.20643" lon="2.775807">
<ele>854.6</ele>
<time>2013-05-08T11:40:09.999Z</time>
</trkpt>
<trkpt lat="44.206428" lon="2.775806">
<ele>854.6</ele>
<time>2013-05-08T11:40:10.999Z</time>
</trkpt>
<trkpt lat="44.206468" lon="2.775779">
<ele>854.6</ele>
<time>2013-05-08T11:40:39.999Z</time>
</trkpt>
<trkpt lat="44.206472" lon="2.775774">
<ele>854.6</ele>
<time>2013-05-08T11:40:40.999Z</time>
</trkpt>
<trkpt lat="44.206461" lon="2.775722">
<ele>854.7</ele>
<time>2013-05-08T11:41:40.999Z</time>
</trkpt>
<trkpt lat="44.206471" lon="2.775779">
<ele>855.1</ele>
<time>2013-05-08T11:42:21.999Z</time>
</trkpt>
<trkpt lat="44.206468" lon="2.775785">
<ele>855</ele>
<time>2013-05-08T11:42:22.999Z</time>
</trkpt>
<trkpt lat="44.206423" lon="2.775781">
<ele>854.8</ele>
<time>2013-05-08T11:43:49.999Z</time>
</trkpt>
<trkpt lat="44.206421" lon="2.775783">
<ele>854.8</ele>
<time>2013-05-08T11:43:50.999Z</time>
</trkpt>
<trkpt lat="44.206418" lon="2.775722">
<ele>856.7</ele>
<time>2013-05-08T11:44:53.999Z</time>
</trkpt>
<trkpt lat="44.206419" lon="2.775716">
<ele>856.7</ele>
<time>2013-05-08T11:44:54.999Z</time>
</trkpt>
<trkpt lat="44.206409" lon="2.775775">
<ele>858.2</ele>
<time>2013-05-08T11:45:30.999Z</time>
</trkpt>
<trkpt lat="44.206411" lon="2.77578">
<ele>858.2</ele>
<time>2013-05-08T11:45:31.999Z</time>
</trkpt>
<trkpt lat="44.206429" lon="2.775836">
<ele>858.5</ele>
<time>2013-05-08T11:45:47.999Z</time>
</trkpt>
<trkpt lat="44.206429" lon="2.775843">
<ele>858.5</ele>
<time>2013-05-08T11:45:48.999Z</time>
</trkpt>
<trkpt lat="44.206414" lon="2.775899">
<ele>858.6</ele>
<time>2013-05-08T11:45:59.999Z</time>
</trkpt>
<trkpt lat="44.206412" lon="2.775902">
<ele>858.6</ele>
<time>2013-05-08T11:46:00.999Z</time>
</trkpt>
<trkpt lat="44.206414" lon="2.775841">
<ele>859.2</ele>
<time>2013-05-08T11:46:53.999Z</time>
</trkpt>
<trkpt lat="44.206415" lon="2.775839">
<ele>859.2</ele>
<time>2013-05-08T11:46:54.999Z</time>
</trkpt>
<trkpt lat="44.206399" lon="2.775896">
<ele>859.5</ele>
<time>2013-05-08T11:51:00.999Z</time>
</trkpt>
<trkpt lat="44.206398" lon="2.775897">
<ele>859.5</ele>
<time>2013-05-08T11:51:01.999Z</time>
</trkpt>
<trkpt lat="44.206423" lon="2.775847">
<ele>859.9</ele>
<time>2013-05-08T11:52:02.999Z</time>
</trkpt>
<trkpt lat="44.206423" lon="2.775844">
<ele>859.9</ele>
<time>2013-05-08T11:52:03.999Z</time>
</trkpt>
<trkpt lat="44.20638" lon="2.775862">
<ele>860.1</ele>
<time>2013-05-08T11:55:31.999Z</time>
</trkpt>
<trkpt lat="44.20638" lon="2.775865">
<ele>860.1</ele>
<time>2013-05-08T11:55:32.999Z</time>
</trkpt>
<trkpt lat="44.206416" lon="2.775837">
<ele>860.3</ele>
<time>2013-05-08T11:56:15.999Z</time>
</trkpt>
<trkpt lat="44.20642" lon="2.775836">
<ele>860.3</ele>
<time>2013-05-08T11:56:16.999Z</time>
</trkpt>
</trkseg>
</trk>
</gpx>
